<?xml version="1.0"?>
<gpx
 version="1.1"
 creator="Satmap Active 20"
 xmlns:xsi="http://www.w3.org/2001/XMLSchema-instance"
 xmlns="http://www.topografix.com/GPX/1/1"
 xmlns:satmap="http://www.satmap.com/updates/xmlschemas/GpxExtensions/v2/GpxExtensions_v2.xsd"
 xsi:schemaLocation="http://www.topografix.com/GPX/1/1 http://www.topografix.com/GPX/1/1/gpx.xsd">
<metadata>
<time>2020-08-05T09:17:43Z</time>
<extensions>
<satmap:platform>43</satmap:platform>
<satmap:software version="3.12.831">SM15.exe</satmap:software>
<satmap:username>Jim Grant</satmap:username>
<satmap:network_ids>
<satmap:network_id type="wifi">00-23-A7-EC-D5-78</satmap:network_id>
<satmap:network_id type="bluetooth">80-BB-EB-D7-5B-7C</satmap:network_id>
</satmap:network_ids>
<satmap:snap_type>simple</satmap:snap_type>
</extensions>
</metadata>
<trk>
<name>2020-08-05_0917</name>
<desc>Track 1</desc>
<number>1</number>
<trkseg>
<trkpt lat="53.345598" lon="-1.815401"><ele>427</ele><time>2020-08-05T09:17:43Z</time><name>PT1</name></trkpt>
<trkpt lat="53.345596" lon="-1.815399"><ele>426</ele><time>2020-08-05T09:17:57Z</time><name>PT2</name></trkpt>
<trkpt lat="53.345597" lon="-1.815400"><ele>426</ele><time>2020-08-05T09:17:58Z</time><name>PT3</name></trkpt>
<trkpt lat="53.345604" lon="-1.815396"><ele>426</ele><time>2020-08-05T09:17:59Z</time><name>PT4</name></trkpt>
<trkpt lat="53.345601" lon="-1.815412"><ele>425</ele><time>2020-08-05T09:18:00Z</time><name>PT5</name></trkpt>
<trkpt lat="53.345601" lon="-1.815412"><ele>425</ele><time>2020-08-05T09:18:04Z</time><name>PT6</name></trkpt>
<trkpt lat="53.345601" lon="-1.815412"><ele>425</ele><time>2020-08-05T09:18:05Z</time><name>PT7</name></trkpt>
<trkpt lat="53.345610" lon="-1.815396"><ele>423</ele><time>2020-08-05T09:18:20Z</time><name>PT8</name></trkpt>
<trkpt lat="53.345626" lon="-1.815397"><ele>423</ele><time>2020-08-05T09:18:21Z</time><name>PT9</name></trkpt>
<trkpt lat="53.345627" lon="-1.815406"><ele>423</ele><time>2020-08-05T09:18:22Z</time><name>PT10</name></trkpt>
<trkpt lat="53.345624" lon="-1.815408"><ele>422</ele><time>2020-08-05T09:18:23Z</time><name>PT11</name></trkpt>
<trkpt lat="53.345625" lon="-1.815417"><ele>422</ele><time>2020-08-05T09:18:24Z</time><name>PT12</name></trkpt>
<trkpt lat="53.345625" lon="-1.815419"><ele>422</ele><time>2020-08-05T09:18:25Z</time><name>PT13</name></trkpt>
<trkpt lat="53.345623" lon="-1.815423"><ele>422</ele><time>2020-08-05T09:18:26Z</time><name>PT14</name></trkpt>
<trkpt lat="53.345624" lon="-1.815426"><ele>423</ele><time>2020-08-05T09:18:27Z</time><name>PT15</name></trkpt>
<trkpt lat="53.345625" lon="-1.815427"><ele>422</ele><time>2020-08-05T09:18:28Z</time><name>PT16</name></trkpt>
<trkpt lat="53.345625" lon="-1.815427"><ele>423</ele><time>2020-08-05T09:18:29Z</time><name>PT17</name></trkpt>
<trkpt lat="53.345623" lon="-1.815423"><ele>423</ele><time>2020-08-05T09:18:30Z</time><name>PT18</name></trkpt>
<trkpt lat="53.345626" lon="-1.815426"><ele>422</ele><time>2020-08-05T09:18:31Z</time><name>PT19</name></trkpt>
<trkpt lat="53.345629" lon="-1.815426"><ele>422</ele><time>2020-08-05T09:18:32Z</time><name>PT20</name></trkpt>
<trkpt lat="53.345629" lon="-1.815428"><ele>422</ele><time>2020-08-05T09:18:33Z</time><name>PT21</name></trkpt>
<trkpt lat="53.345629" lon="-1.815430"><ele>422</ele><time>2020-08-05T09:18:34Z</time><name>PT22</name></trkpt>
<trkpt lat="53.345624" lon="-1.815432"><ele>422</ele><time>2020-08-05T09:18:45Z</time><name>PT23</name></trkpt>
<trkpt lat="53.345620" lon="-1.815440"><ele>422</ele><time>2020-08-05T09:18:46Z</time><name>PT24</name></trkpt>
<trkpt lat="53.345617" lon="-1.815447"><ele>422</ele><time>2020-08-05T09:18:47Z</time><name>PT25</name></trkpt>
<trkpt lat="53.345601" lon="-1.815461"><ele>421</ele><time>2020-08-05T09:18:48Z</time><name>PT26</name></trkpt>
<trkpt lat="53.345598" lon="-1.815461"><ele>421</ele><time>2020-08-05T09:18:49Z</time><name>PT27</name></trkpt>
<trkpt lat="53.345595" lon="-1.815465"><ele>421</ele><time>2020-08-05T09:18:50Z</time><name>PT28</name></trkpt>
<trkpt lat="53.345590" lon="-1.815464"><ele>421</ele><time>2020-08-05T09:18:51Z</time><name>PT29</name></trkpt>
<trkpt lat="53.345596" lon="-1.815453"><ele>421</ele><time>2020-08-05T09:18:57Z</time><name>PT30</name></trkpt>
<trkpt lat="53.345609" lon="-1.815454"><ele>420</ele><time>2020-08-05T09:18:58Z</time><name>PT31</name></trkpt>
<trkpt lat="53.345616" lon="-1.815457"><ele>421</ele><time>2020-08-05T09:18:59Z</time><name>PT32</name></trkpt>
<trkpt lat="53.345622" lon="-1.815462"><ele>421</ele><time>2020-08-05T09:19:00Z</time><name>PT33</name></trkpt>
<trkpt lat="53.345626" lon="-1.815468"><ele>421</ele><time>2020-08-05T09:19:01Z</time><name>PT34</name></trkpt>
<trkpt lat="53.345633" lon="-1.815477"><ele>422</ele><time>2020-08-05T09:19:02Z</time><name>PT35</name></trkpt>
<trkpt lat="53.345642" lon="-1.815489"><ele>422</ele><time>2020-08-05T09:19:03Z</time><name>PT36</name></trkpt>
<trkpt lat="53.345652" lon="-1.815506"><ele>422</ele><time>2020-08-05T09:19:04Z</time><name>PT37</name></trkpt>
<trkpt lat="53.345660" lon="-1.815506"><ele>423</ele><time>2020-08-05T09:19:05Z</time><name>PT38</name></trkpt>
<trkpt lat="53.345666" lon="-1.815507"><ele>424</ele><time>2020-08-05T09:19:06Z</time><name>PT39</name></trkpt>
<trkpt lat="53.345664" lon="-1.815525"><ele>422</ele><time>2020-08-05T09:19:07Z</time><name>PT40</name></trkpt>
<trkpt lat="53.345674" lon="-1.815528"><ele>422</ele><time>2020-08-05T09:19:08Z</time><name>PT41</name></trkpt>
<trkpt lat="53.345685" lon="-1.815532"><ele>423</ele><time>2020-08-05T09:19:09Z</time><name>PT42</name></trkpt>
<trkpt lat="53.345691" lon="-1.815529"><ele>425</ele><time>2020-08-05T09:19:10Z</time><name>PT43</name></trkpt>
<trkpt lat="53.345698" lon="-1.815524"><ele>426</ele><time>2020-08-05T09:19:11Z</time><name>PT44</name></trkpt>
<trkpt lat="53.345703" lon="-1.815520"><ele>426</ele><time>2020-08-05T09:19:12Z</time><name>PT45</name></trkpt>
<trkpt lat="53.345711" lon="-1.815512"><ele>427</ele><time>2020-08-05T09:19:13Z</time><name>PT46</name></trkpt>
<trkpt lat="53.345713" lon="-1.815505"><ele>426</ele><time>2020-08-05T09:19:14Z</time><name>PT47</name></trkpt>
<trkpt lat="53.345718" lon="-1.815498"><ele>425</ele><time>2020-08-05T09:19:15Z</time><name>PT48</name></trkpt>
<trkpt lat="53.345730" lon="-1.815494"><ele>424</ele><time>2020-08-05T09:19:16Z</time><name>PT49</name></trkpt>
<trkpt lat="53.345742" lon="-1.815496"><ele>424</ele><time>2020-08-05T09:19:17Z</time><name>PT50</name></trkpt>
<trkpt lat="53.345747" lon="-1.815489"><ele>425</ele><time>2020-08-05T09:19:18Z</time><name>PT51</name></trkpt>
<trkpt lat="53.345757" lon="-1.815483"><ele>424</ele><time>2020-08-05T09:19:19Z</time><name>PT52</name></trkpt>
<trkpt lat="53.345763" lon="-1.815480"><ele>424</ele><time>2020-08-05T09:19:20Z</time><name>PT53</name></trkpt>
<trkpt lat="53.345767" lon="-1.815476"><ele>424</ele><time>2020-08-05T09:19:21Z</time><name>PT54</name></trkpt>
<trkpt lat="53.345765" lon="-1.815474"><ele>425</ele><time>2020-08-05T09:19:22Z</time><name>PT55</name></trkpt>
<trkpt lat="53.345767" lon="-1.815474"><ele>425</ele><time>2020-08-05T09:19:23Z</time><name>PT56</name></trkpt>
<trkpt lat="53.345772" lon="-1.815471"><ele>425</ele><time>2020-08-05T09:19:24Z</time><name>PT57</name></trkpt>
<trkpt lat="53.345775" lon="-1.815469"><ele>425</ele><time>2020-08-05T09:19:25Z</time><name>PT58</name></trkpt>
<trkpt lat="53.345781" lon="-1.815463"><ele>425</ele><time>2020-08-05T09:19:26Z</time><name>PT59</name></trkpt>
<trkpt lat="53.345787" lon="-1.815454"><ele>425</ele><time>2020-08-05T09:19:27Z</time><name>PT60</name></trkpt>
<trkpt lat="53.345793" lon="-1.815482"><ele>424</ele><time>2020-08-05T09:19:31Z</time><name>PT61</name></trkpt>
<trkpt lat="53.345794" lon="-1.815489"><ele>424</ele><time>2020-08-05T09:19:32Z</time><name>PT62</name></trkpt>
<trkpt lat="53.345796" lon="-1.815492"><ele>424</ele><time>2020-08-05T09:19:33Z</time><name>PT63</name></trkpt>
<trkpt lat="53.345797" lon="-1.815494"><ele>424</ele><time>2020-08-05T09:19:34Z</time><name>PT64</name></trkpt>
<trkpt lat="53.345795" lon="-1.815495"><ele>424</ele><time>2020-08-05T09:19:38Z</time><name>PT65</name></trkpt>
<trkpt lat="53.345787" lon="-1.815502"><ele>423</ele><time>2020-08-05T09:19:39Z</time><name>PT66</name></trkpt>
<trkpt lat="53.345781" lon="-1.815507"><ele>423</ele><time>2020-08-05T09:19:40Z</time><name>PT67</name></trkpt>
<trkpt lat="53.345776" lon="-1.815514"><ele>423</ele><time>2020-08-05T09:19:41Z</time><name>PT68</name></trkpt>
<trkpt lat="53.345767" lon="-1.815524"><ele>423</ele><time>2020-08-05T09:19:42Z</time><name>PT69</name></trkpt>
<trkpt lat="53.345758" lon="-1.815538"><ele>423</ele><time>2020-08-05T09:19:43Z</time><name>PT70</name></trkpt>
<trkpt lat="53.345751" lon="-1.815545"><ele>423</ele><time>2020-08-05T09:19:44Z</time><name>PT71</name></trkpt>
<trkpt lat="53.345744" lon="-1.815549"><ele>423</ele><time>2020-08-05T09:19:45Z</time><name>PT72</name></trkpt>
<trkpt lat="53.345740" lon="-1.815547"><ele>422</ele><time>2020-08-05T09:19:46Z</time><name>PT73</name></trkpt>
<trkpt lat="53.345732" lon="-1.815550"><ele>422</ele><time>2020-08-05T09:19:47Z</time><name>PT74</name></trkpt>
<trkpt lat="53.345725" lon="-1.815550"><ele>422</ele><time>2020-08-05T09:19:48Z</time><name>PT75</name></trkpt>
<trkpt lat="53.345718" lon="-1.815538"><ele>422</ele><time>2020-08-05T09:19:49Z</time><name>PT76</name></trkpt>
<trkpt lat="53.345701" lon="-1.815513"><ele>421</ele><time>2020-08-05T09:19:50Z</time><name>PT77</name></trkpt>
<trkpt lat="53.345697" lon="-1.815511"><ele>420</ele><time>2020-08-05T09:19:51Z</time><name>PT78</name></trkpt>
<trkpt lat="53.345692" lon="-1.815502"><ele>419</ele><time>2020-08-05T09:19:52Z</time><name>PT79</name></trkpt>
<trkpt lat="53.345683" lon="-1.815488"><ele>420</ele><time>2020-08-05T09:19:53Z</time><name>PT80</name></trkpt>
<trkpt lat="53.345663" lon="-1.815469"><ele>421</ele><time>2020-08-05T09:19:54Z</time><name>PT81</name></trkpt>
<trkpt lat="53.345662" lon="-1.815456"><ele>421</ele><time>2020-08-05T09:19:55Z</time><name>PT82</name></trkpt>
<trkpt lat="53.345657" lon="-1.815446"><ele>422</ele><time>2020-08-05T09:19:56Z</time><name>PT83</name></trkpt>
<trkpt lat="53.345653" lon="-1.815441"><ele>422</ele><time>2020-08-05T09:19:57Z</time><name>PT84</name></trkpt>
<trkpt lat="53.345652" lon="-1.815436"><ele>421</ele><time>2020-08-05T09:19:58Z</time><name>PT85</name></trkpt>
<trkpt lat="53.345649" lon="-1.815436"><ele>421</ele><time>2020-08-05T09:19:59Z</time><name>PT86</name></trkpt>
<trkpt lat="53.345648" lon="-1.815432"><ele>421</ele><time>2020-08-05T09:20:00Z</time><name>PT87</name></trkpt>
<trkpt lat="53.345649" lon="-1.815433"><ele>421</ele><time>2020-08-05T09:20:01Z</time><name>PT88</name></trkpt>
<trkpt lat="53.345651" lon="-1.815433"><ele>422</ele><time>2020-08-05T09:20:02Z</time><name>PT89</name></trkpt>
<trkpt lat="53.345652" lon="-1.815451"><ele>421</ele><time>2020-08-05T09:20:31Z</time><name>PT90</name></trkpt>
<trkpt lat="53.345659" lon="-1.815455"><ele>421</ele><time>2020-08-05T09:20:32Z</time><name>PT91</name></trkpt>
<trkpt lat="53.345664" lon="-1.815465"><ele>421</ele><time>2020-08-05T09:20:33Z</time><name>PT92</name></trkpt>
<trkpt lat="53.345668" lon="-1.815478"><ele>421</ele><time>2020-08-05T09:20:34Z</time><name>PT93</name></trkpt>
<trkpt lat="53.345675" lon="-1.815493"><ele>422</ele><time>2020-08-05T09:20:35Z</time><name>PT94</name></trkpt>
<trkpt lat="53.345682" lon="-1.815506"><ele>422</ele><time>2020-08-05T09:20:36Z</time><name>PT95</name></trkpt>
<trkpt lat="53.345686" lon="-1.815513"><ele>422</ele><time>2020-08-05T09:20:37Z</time><name>PT96</name></trkpt>
<trkpt lat="53.345692" lon="-1.815521"><ele>423</ele><time>2020-08-05T09:20:38Z</time><name>PT97</name></trkpt>
<trkpt lat="53.345698" lon="-1.815534"><ele>423</ele><time>2020-08-05T09:20:39Z</time><name>PT98</name></trkpt>
<trkpt lat="53.345703" lon="-1.815534"><ele>424</ele><time>2020-08-05T09:20:40Z</time><name>PT99</name></trkpt>
<trkpt lat="53.345712" lon="-1.815541"><ele>424</ele><time>2020-08-05T09:20:41Z</time><name>PT100</name></trkpt>
<trkpt lat="53.345718" lon="-1.815542"><ele>424</ele><time>2020-08-05T09:20:42Z</time><name>PT101</name></trkpt>
<trkpt lat="53.345718" lon="-1.815542"><ele>425</ele><time>2020-08-05T09:20:43Z</time><name>PT102</name></trkpt>
<trkpt lat="53.345725" lon="-1.815537"><ele>425</ele><time>2020-08-05T09:20:44Z</time><name>PT103</name></trkpt>
<trkpt lat="53.345734" lon="-1.815529"><ele>425</ele><time>2020-08-05T09:20:45Z</time><name>PT104</name></trkpt>
<trkpt lat="53.345740" lon="-1.815518"><ele>426</ele><time>2020-08-05T09:20:46Z</time><name>PT105</name></trkpt>
<trkpt lat="53.345746" lon="-1.815517"><ele>426</ele><time>2020-08-05T09:20:47Z</time><name>PT106</name></trkpt>
<trkpt lat="53.345752" lon="-1.815514"><ele>426</ele><time>2020-08-05T09:20:48Z</time><name>PT107</name></trkpt>
<trkpt lat="53.345753" lon="-1.815505"><ele>427</ele><time>2020-08-05T09:20:49Z</time><name>PT108</name></trkpt>
<trkpt lat="53.345764" lon="-1.815502"><ele>427</ele><time>2020-08-05T09:20:50Z</time><name>PT109</name></trkpt>
<trkpt lat="53.345772" lon="-1.815498"><ele>426</ele><time>2020-08-05T09:20:51Z</time><name>PT110</name></trkpt>
<trkpt lat="53.345772" lon="-1.815494"><ele>426</ele><time>2020-08-05T09:20:52Z</time><name>PT111</name></trkpt>
<trkpt lat="53.345776" lon="-1.815486"><ele>426</ele><time>2020-08-05T09:20:53Z</time><name>PT112</name></trkpt>
<trkpt lat="53.345768" lon="-1.815481"><ele>425</ele><time>2020-08-05T09:21:05Z</time><name>PT113</name></trkpt>
<trkpt lat="53.345769" lon="-1.815475"><ele>425</ele><time>2020-08-05T09:21:06Z</time><name>PT114</name></trkpt>
<trkpt lat="53.345771" lon="-1.815469"><ele>425</ele><time>2020-08-05T09:21:07Z</time><name>PT115</name></trkpt>
<trkpt lat="53.345778" lon="-1.815462"><ele>426</ele><time>2020-08-05T09:21:08Z</time><name>PT116</name></trkpt>
<trkpt lat="53.345789" lon="-1.815428"><ele>426</ele><time>2020-08-05T09:21:09Z</time><name>PT117</name></trkpt>
<trkpt lat="53.345795" lon="-1.815431"><ele>426</ele><time>2020-08-05T09:21:10Z</time><name>PT118</name></trkpt>
<trkpt lat="53.345801" lon="-1.815431"><ele>426</ele><time>2020-08-05T09:21:11Z</time><name>PT119</name></trkpt>
<trkpt lat="53.345817" lon="-1.815431"><ele>426</ele><time>2020-08-05T09:21:12Z</time><name>PT120</name></trkpt>
<trkpt lat="53.345812" lon="-1.815435"><ele>426</ele><time>2020-08-05T09:21:13Z</time><name>PT121</name></trkpt>
<trkpt lat="53.345811" lon="-1.815438"><ele>426</ele><time>2020-08-05T09:21:14Z</time><name>PT122</name></trkpt>
<trkpt lat="53.345813" lon="-1.815447"><ele>425</ele><time>2020-08-05T09:21:15Z</time><name>PT123</name></trkpt>
<trkpt lat="53.345815" lon="-1.815450"><ele>425</ele><time>2020-08-05T09:21:16Z</time><name>PT124</name></trkpt>
<trkpt lat="53.345815" lon="-1.815455"><ele>425</ele><time>2020-08-05T09:21:17Z</time><name>PT125</name></trkpt>
<trkpt lat="53.345811" lon="-1.815455"><ele>425</ele><time>2020-08-05T09:21:18Z</time><name>PT126</name></trkpt>
<trkpt lat="53.345804" lon="-1.815464"><ele>425</ele><time>2020-08-05T09:21:19Z</time><name>PT127</name></trkpt>
<trkpt lat="53.345800" lon="-1.815463"><ele>425</ele><time>2020-08-05T09:21:20Z</time><name>PT128</name></trkpt>
<trkpt lat="53.345799" lon="-1.815463"><ele>425</ele><time>2020-08-05T09:21:21Z</time><name>PT129</name></trkpt>
<trkpt lat="53.345800" lon="-1.815461"><ele>425</ele><time>2020-08-05T09:21:22Z</time><name>PT130</name></trkpt>
<trkpt lat="53.345798" lon="-1.815463"><ele>425</ele><time>2020-08-05T09:21:23Z</time><name>PT131</name></trkpt>
<trkpt lat="53.345799" lon="-1.815462"><ele>425</ele><time>2020-08-05T09:21:24Z</time><name>PT132</name></trkpt>
<trkpt lat="53.345804" lon="-1.815460"><ele>424</ele><time>2020-08-05T09:24:25Z</time><name>PT133</name></trkpt>
<trkpt lat="53.345820" lon="-1.815473"><ele>423</ele><time>2020-08-05T09:24:26Z</time><name>PT134</name></trkpt>
<trkpt lat="53.345812" lon="-1.815491"><ele>424</ele><time>2020-08-05T09:24:28Z</time><name>PT135</name></trkpt>
<trkpt lat="53.345810" lon="-1.815503"><ele>424</ele><time>2020-08-05T09:24:29Z</time><name>PT136</name></trkpt>
<trkpt lat="53.345808" lon="-1.815514"><ele>424</ele><time>2020-08-05T09:24:30Z</time><name>PT137</name></trkpt>
<trkpt lat="53.345808" lon="-1.815523"><ele>424</ele><time>2020-08-05T09:24:31Z</time><name>PT138</name></trkpt>
<trkpt lat="53.345803" lon="-1.815543"><ele>425</ele><time>2020-08-05T09:24:32Z</time><name>PT139</name></trkpt>
<trkpt lat="53.345800" lon="-1.815554"><ele>425</ele><time>2020-08-05T09:24:33Z</time><name>PT140</name></trkpt>
<trkpt lat="53.345798" lon="-1.815559"><ele>424</ele><time>2020-08-05T09:24:34Z</time><name>PT141</name></trkpt>
<trkpt lat="53.345797" lon="-1.815561"><ele>424</ele><time>2020-08-05T09:24:35Z</time><name>PT142</name></trkpt>
<trkpt lat="53.345798" lon="-1.815560"><ele>424</ele><time>2020-08-05T09:24:36Z</time><name>PT143</name></trkpt>
<trkpt lat="53.345799" lon="-1.815558"><ele>424</ele><time>2020-08-05T09:24:37Z</time><name>PT144</name></trkpt>
<trkpt lat="53.345800" lon="-1.815565"><ele>423</ele><time>2020-08-05T09:25:24Z</time><name>PT145</name></trkpt>
<trkpt lat="53.345800" lon="-1.815569"><ele>423</ele><time>2020-08-05T09:25:25Z</time><name>PT146</name></trkpt>
<trkpt lat="53.345804" lon="-1.815573"><ele>423</ele><time>2020-08-05T09:25:26Z</time><name>PT147</name></trkpt>
<trkpt lat="53.345804" lon="-1.815571"><ele>423</ele><time>2020-08-05T09:25:32Z</time><name>PT148</name></trkpt>
<trkpt lat="53.345778" lon="-1.815566"><ele>422</ele><time>2020-08-05T09:25:33Z</time><name>PT149</name></trkpt>
<trkpt lat="53.345770" lon="-1.815567"><ele>422</ele><time>2020-08-05T09:25:34Z</time><name>PT150</name></trkpt>
<trkpt lat="53.345762" lon="-1.815562"><ele>421</ele><time>2020-08-05T09:25:35Z</time><name>PT151</name></trkpt>
<trkpt lat="53.345754" lon="-1.815559"><ele>421</ele><time>2020-08-05T09:25:36Z</time><name>PT152</name></trkpt>
<trkpt lat="53.345755" lon="-1.815563"><ele>421</ele><time>2020-08-05T09:25:37Z</time><name>PT153</name></trkpt>
<trkpt lat="53.345757" lon="-1.815565"><ele>421</ele><time>2020-08-05T09:25:38Z</time><name>PT154</name></trkpt>
<trkpt lat="53.345763" lon="-1.815567"><ele>422</ele><time>2020-08-05T09:25:39Z</time><name>PT155</name></trkpt>
<trkpt lat="53.345767" lon="-1.815565"><ele>422</ele><time>2020-08-05T09:25:40Z</time><name>PT156</name></trkpt>
<trkpt lat="53.345772" lon="-1.815562"><ele>422</ele><time>2020-08-05T09:25:41Z</time><name>PT157</name></trkpt>
<trkpt lat="53.345777" lon="-1.815559"><ele>422</ele><time>2020-08-05T09:25:42Z</time><name>PT158</name></trkpt>
<trkpt lat="53.345788" lon="-1.815560"><ele>421</ele><time>2020-08-05T09:25:43Z</time><name>PT159</name></trkpt>
<trkpt lat="53.345798" lon="-1.815558"><ele>420</ele><time>2020-08-05T09:25:44Z</time><name>PT160</name></trkpt>
<trkpt lat="53.345806" lon="-1.815556"><ele>420</ele><time>2020-08-05T09:25:45Z</time><name>PT161</name></trkpt>
<trkpt lat="53.345813" lon="-1.815550"><ele>420</ele><time>2020-08-05T09:25:46Z</time><name>PT162</name></trkpt>
<trkpt lat="53.345816" lon="-1.815540"><ele>420</ele><time>2020-08-05T09:25:47Z</time><name>PT163</name></trkpt>
<trkpt lat="53.345818" lon="-1.815534"><ele>420</ele><time>2020-08-05T09:25:48Z</time><name>PT164</name></trkpt>
<trkpt lat="53.345819" lon="-1.815531"><ele>420</ele><time>2020-08-05T09:25:49Z</time><name>PT165</name></trkpt>
<trkpt lat="53.345819" lon="-1.815528"><ele>420</ele><time>2020-08-05T09:25:50Z</time><name>PT166</name></trkpt>
<trkpt lat="53.345821" lon="-1.815522"><ele>421</ele><time>2020-08-05T09:25:51Z</time><name>PT167</name></trkpt>
<trkpt lat="53.345833" lon="-1.815497"><ele>422</ele><time>2020-08-05T09:26:10Z</time><name>PT168</name></trkpt>
<trkpt lat="53.345835" lon="-1.815497"><ele>422</ele><time>2020-08-05T09:26:11Z</time><name>PT169</name></trkpt>
<trkpt lat="53.345841" lon="-1.815521"><ele>422</ele><time>2020-08-05T09:26:12Z</time><name>PT170</name></trkpt>
<trkpt lat="53.345842" lon="-1.815526"><ele>422</ele><time>2020-08-05T09:26:19Z</time><name>PT171</name></trkpt>
<trkpt lat="53.345848" lon="-1.815525"><ele>421</ele><time>2020-08-05T09:26:20Z</time><name>PT172</name></trkpt>
<trkpt lat="53.345858" lon="-1.815515"><ele>421</ele><time>2020-08-05T09:26:21Z</time><name>PT173</name></trkpt>
<trkpt lat="53.345865" lon="-1.815503"><ele>421</ele><time>2020-08-05T09:26:22Z</time><name>PT174</name></trkpt>
<trkpt lat="53.345877" lon="-1.815503"><ele>421</ele><time>2020-08-05T09:26:23Z</time><name>PT175</name></trkpt>
<trkpt lat="53.345892" lon="-1.815507"><ele>420</ele><time>2020-08-05T09:26:24Z</time><name>PT176</name></trkpt>
<trkpt lat="53.345903" lon="-1.815496"><ele>420</ele><time>2020-08-05T09:26:25Z</time><name>PT177</name></trkpt>
<trkpt lat="53.345916" lon="-1.815498"><ele>420</ele><time>2020-08-05T09:26:26Z</time><name>PT178</name></trkpt>
<trkpt lat="53.345932" lon="-1.815490"><ele>422</ele><time>2020-08-05T09:26:27Z</time><name>PT179</name></trkpt>
<trkpt lat="53.345943" lon="-1.815483"><ele>422</ele><time>2020-08-05T09:26:28Z</time><name>PT180</name></trkpt>
<trkpt lat="53.345954" lon="-1.815484"><ele>421</ele><time>2020-08-05T09:26:29Z</time><name>PT181</name></trkpt>
<trkpt lat="53.345960" lon="-1.815482"><ele>421</ele><time>2020-08-05T09:26:30Z</time><name>PT182</name></trkpt>
<trkpt lat="53.345969" lon="-1.815483"><ele>421</ele><time>2020-08-05T09:26:31Z</time><name>PT183</name></trkpt>
<trkpt lat="53.345978" lon="-1.815483"><ele>421</ele><time>2020-08-05T09:26:32Z</time><name>PT184</name></trkpt>
<trkpt lat="53.345988" lon="-1.815484"><ele>421</ele><time>2020-08-05T09:26:33Z</time><name>PT185</name></trkpt>
<trkpt lat="53.345995" lon="-1.815482"><ele>422</ele><time>2020-08-05T09:26:34Z</time><name>PT186</name></trkpt>
<trkpt lat="53.346004" lon="-1.815478"><ele>422</ele><time>2020-08-05T09:26:35Z</time><name>PT187</name></trkpt>
<trkpt lat="53.346014" lon="-1.815475"><ele>422</ele><time>2020-08-05T09:26:36Z</time><name>PT188</name></trkpt>
<trkpt lat="53.346024" lon="-1.815466"><ele>422</ele><time>2020-08-05T09:26:37Z</time><name>PT189</name></trkpt>
<trkpt lat="53.346038" lon="-1.815462"><ele>422</ele><time>2020-08-05T09:26:38Z</time><name>PT190</name></trkpt>
<trkpt lat="53.346048" lon="-1.815455"><ele>422</ele><time>2020-08-05T09:26:39Z</time><name>PT191</name></trkpt>
<trkpt lat="53.346059" lon="-1.815451"><ele>422</ele><time>2020-08-05T09:26:40Z</time><name>PT192</name></trkpt>
<trkpt lat="53.346074" lon="-1.815441"><ele>423</ele><time>2020-08-05T09:26:41Z</time><name>PT193</name></trkpt>
<trkpt lat="53.346085" lon="-1.815433"><ele>424</ele><time>2020-08-05T09:26:42Z</time><name>PT194</name></trkpt>
<trkpt lat="53.346098" lon="-1.815430"><ele>424</ele><time>2020-08-05T09:26:43Z</time><name>PT195</name></trkpt>
<trkpt lat="53.346106" lon="-1.815425"><ele>425</ele><time>2020-08-05T09:26:44Z</time><name>PT196</name></trkpt>
<trkpt lat="53.346112" lon="-1.815417"><ele>425</ele><time>2020-08-05T09:26:45Z</time><name>PT197</name></trkpt>
<trkpt lat="53.346126" lon="-1.815420"><ele>425</ele><time>2020-08-05T09:26:46Z</time><name>PT198</name></trkpt>
<trkpt lat="53.346136" lon="-1.815413"><ele>425</ele><time>2020-08-05T09:26:47Z</time><name>PT199</name></trkpt>
<trkpt lat="53.346149" lon="-1.815412"><ele>425</ele><time>2020-08-05T09:26:48Z</time><name>PT200</name></trkpt>
<trkpt lat="53.346156" lon="-1.815407"><ele>425</ele><time>2020-08-05T09:26:49Z</time><name>PT201</name></trkpt>
<trkpt lat="53.346159" lon="-1.815395"><ele>426</ele><time>2020-08-05T09:26:50Z</time><name>PT202</name></trkpt>
<trkpt lat="53.346160" lon="-1.815382"><ele>426</ele><time>2020-08-05T09:26:51Z</time><name>PT203</name></trkpt>
<trkpt lat="53.346168" lon="-1.815375"><ele>426</ele><time>2020-08-05T09:26:52Z</time><name>PT204</name></trkpt>
<trkpt lat="53.346176" lon="-1.815363"><ele>427</ele><time>2020-08-05T09:26:53Z</time><name>PT205</name></trkpt>
<trkpt lat="53.346187" lon="-1.815353"><ele>427</ele><time>2020-08-05T09:26:54Z</time><name>PT206</name></trkpt>
<trkpt lat="53.346194" lon="-1.815348"><ele>427</ele><time>2020-08-05T09:26:55Z</time><name>PT207</name></trkpt>
<trkpt lat="53.346200" lon="-1.815339"><ele>428</ele><time>2020-08-05T09:26:56Z</time><name>PT208</name></trkpt>
<trkpt lat="53.346215" lon="-1.815339"><ele>426</ele><time>2020-08-05T09:26:57Z</time><name>PT209</name></trkpt>
<trkpt lat="53.346225" lon="-1.815337"><ele>426</ele><time>2020-08-05T09:26:58Z</time><name>PT210</name></trkpt>
<trkpt lat="53.346236" lon="-1.815339"><ele>426</ele><time>2020-08-05T09:26:59Z</time><name>PT211</name></trkpt>
<trkpt lat="53.346248" lon="-1.815340"><ele>427</ele><time>2020-08-05T09:27:00Z</time><name>PT212</name></trkpt>
<trkpt lat="53.346260" lon="-1.815340"><ele>427</ele><time>2020-08-05T09:27:01Z</time><name>PT213</name></trkpt>
<trkpt lat="53.346268" lon="-1.815336"><ele>427</ele><time>2020-08-05T09:27:02Z</time><name>PT214</name></trkpt>
<trkpt lat="53.346272" lon="-1.815328"><ele>428</ele><time>2020-08-05T09:27:03Z</time><name>PT215</name></trkpt>
<trkpt lat="53.346279" lon="-1.815326"><ele>427</ele><time>2020-08-05T09:27:04Z</time><name>PT216</name></trkpt>
<trkpt lat="53.346286" lon="-1.815315"><ele>428</ele><time>2020-08-05T09:27:05Z</time><name>PT217</name></trkpt>
<trkpt lat="53.346292" lon="-1.815311"><ele>429</ele><time>2020-08-05T09:27:06Z</time><name>PT218</name></trkpt>
<trkpt lat="53.346300" lon="-1.815312"><ele>428</ele><time>2020-08-05T09:27:07Z</time><name>PT219</name></trkpt>
<trkpt lat="53.346310" lon="-1.815313"><ele>429</ele><time>2020-08-05T09:27:08Z</time><name>PT220</name></trkpt>
<trkpt lat="53.346322" lon="-1.815308"><ele>429</ele><time>2020-08-05T09:27:09Z</time><name>PT221</name></trkpt>
<trkpt lat="53.346328" lon="-1.815311"><ele>429</ele><time>2020-08-05T09:27:10Z</time><name>PT222</name></trkpt>
<trkpt lat="53.346338" lon="-1.815313"><ele>430</ele><time>2020-08-05T09:27:11Z</time><name>PT223</name></trkpt>
<trkpt lat="53.346344" lon="-1.815306"><ele>431</ele><time>2020-08-05T09:27:12Z</time><name>PT224</name></trkpt>
<trkpt lat="53.346347" lon="-1.815304"><ele>431</ele><time>2020-08-05T09:27:13Z</time><name>PT225</name></trkpt>
<trkpt lat="53.346350" lon="-1.815300"><ele>431</ele><time>2020-08-05T09:27:14Z</time><name>PT226</name></trkpt>
<trkpt lat="53.346349" lon="-1.815294"><ele>432</ele><time>2020-08-05T09:27:15Z</time><name>PT227</name></trkpt>
<trkpt lat="53.346363" lon="-1.815298"><ele>430</ele><time>2020-08-05T09:27:17Z</time><name>PT228</name></trkpt>
<trkpt lat="53.346371" lon="-1.815302"><ele>430</ele><time>2020-08-05T09:27:18Z</time><name>PT229</name></trkpt>
<trkpt lat="53.346379" lon="-1.815303"><ele>430</ele><time>2020-08-05T09:27:19Z</time><name>PT230</name></trkpt>
<trkpt lat="53.346385" lon="-1.815306"><ele>431</ele><time>2020-08-05T09:27:20Z</time><name>PT231</name></trkpt>
<trkpt lat="53.346393" lon="-1.815305"><ele>431</ele><time>2020-08-05T09:27:21Z</time><name>PT232</name></trkpt>
<trkpt lat="53.346400" lon="-1.815306"><ele>431</ele><time>2020-08-05T09:27:22Z</time><name>PT233</name></trkpt>
<trkpt lat="53.346406" lon="-1.815305"><ele>432</ele><time>2020-08-05T09:27:23Z</time><name>PT234</name></trkpt>
<trkpt lat="53.346414" lon="-1.815297"><ele>432</ele><time>2020-08-05T09:27:24Z</time><name>PT235</name></trkpt>
<trkpt lat="53.346420" lon="-1.815291"><ele>433</ele><time>2020-08-05T09:27:25Z</time><name>PT236</name></trkpt>
<trkpt lat="53.346427" lon="-1.815283"><ele>433</ele><time>2020-08-05T09:27:26Z</time><name>PT237</name></trkpt>
<trkpt lat="53.346434" lon="-1.815282"><ele>433</ele><time>2020-08-05T09:27:27Z</time><name>PT238</name></trkpt>
<trkpt lat="53.346443" lon="-1.815277"><ele>434</ele><time>2020-08-05T09:27:28Z</time><name>PT239</name></trkpt>
<trkpt lat="53.346454" lon="-1.815277"><ele>434</ele><time>2020-08-05T09:27:29Z</time><name>PT240</name></trkpt>
<trkpt lat="53.346460" lon="-1.815270"><ele>434</ele><time>2020-08-05T09:27:30Z</time><name>PT241</name></trkpt>
<trkpt lat="53.346468" lon="-1.815272"><ele>434</ele><time>2020-08-05T09:27:31Z</time><name>PT242</name></trkpt>
<trkpt lat="53.346477" lon="-1.815265"><ele>434</ele><time>2020-08-05T09:27:32Z</time><name>PT243</name></trkpt>
<trkpt lat="53.346486" lon="-1.815271"><ele>434</ele><time>2020-08-05T09:27:33Z</time><name>PT244</name></trkpt>
<trkpt lat="53.346491" lon="-1.815262"><ele>435</ele><time>2020-08-05T09:27:34Z</time><name>PT245</name></trkpt>
<trkpt lat="53.346498" lon="-1.815261"><ele>435</ele><time>2020-08-05T09:27:35Z</time><name>PT246</name></trkpt>
<trkpt lat="53.346509" lon="-1.815266"><ele>435</ele><time>2020-08-05T09:27:36Z</time><name>PT247</name></trkpt>
<trkpt lat="53.346512" lon="-1.815269"><ele>435</ele><time>2020-08-05T09:27:37Z</time><name>PT248</name></trkpt>
<trkpt lat="53.346515" lon="-1.815274"><ele>434</ele><time>2020-08-05T09:27:38Z</time><name>PT249</name></trkpt>
<trkpt lat="53.346519" lon="-1.815277"><ele>434</ele><time>2020-08-05T09:27:39Z</time><name>PT250</name></trkpt>
<trkpt lat="53.346525" lon="-1.815276"><ele>434</ele><time>2020-08-05T09:27:40Z</time><name>PT251</name></trkpt>
<trkpt lat="53.346530" lon="-1.815277"><ele>434</ele><time>2020-08-05T09:27:41Z</time><name>PT252</name></trkpt>
<trkpt lat="53.346534" lon="-1.815275"><ele>434</ele><time>2020-08-05T09:27:42Z</time><name>PT253</name></trkpt>
<trkpt lat="53.346542" lon="-1.815270"><ele>435</ele><time>2020-08-05T09:27:43Z</time><name>PT254</name></trkpt>
<trkpt lat="53.346547" lon="-1.815265"><ele>436</ele><time>2020-08-05T09:27:44Z</time><name>PT255</name></trkpt>
<trkpt lat="53.346547" lon="-1.815265"><ele>436</ele><time>2020-08-05T09:27:45Z</time><name>PT256</name></trkpt>
<trkpt lat="53.346548" lon="-1.815259"><ele>437</ele><time>2020-08-05T09:27:46Z</time><name>PT257</name></trkpt>
<trkpt lat="53.346552" lon="-1.815248"><ele>439</ele><time>2020-08-05T09:27:47Z</time><name>PT258</name></trkpt>
<trkpt lat="53.346556" lon="-1.815245"><ele>440</ele><time>2020-08-05T09:27:48Z</time><name>PT259</name></trkpt>
<trkpt lat="53.346562" lon="-1.815241"><ele>440</ele><time>2020-08-05T09:27:49Z</time><name>PT260</name></trkpt>
<trkpt lat="53.346568" lon="-1.815232"><ele>441</ele><time>2020-08-05T09:27:50Z</time><name>PT261</name></trkpt>
<trkpt lat="53.346574" lon="-1.815224"><ele>442</ele><time>2020-08-05T09:27:51Z</time><name>PT262</name></trkpt>
<trkpt lat="53.346582" lon="-1.815219"><ele>441</ele><time>2020-08-05T09:27:52Z</time><name>PT263</name></trkpt>
<trkpt lat="53.346583" lon="-1.815209"><ele>442</ele><time>2020-08-05T09:27:53Z</time><name>PT264</name></trkpt>
<trkpt lat="53.346589" lon="-1.815204"><ele>442</ele><time>2020-08-05T09:27:54Z</time><name>PT265</name></trkpt>
<trkpt lat="53.346591" lon="-1.815195"><ele>443</ele><time>2020-08-05T09:27:55Z</time><name>PT266</name></trkpt>
<trkpt lat="53.346598" lon="-1.815193"><ele>443</ele><time>2020-08-05T09:27:56Z</time><name>PT267</name></trkpt>
<trkpt lat="53.346600" lon="-1.815184"><ele>443</ele><time>2020-08-05T09:27:57Z</time><name>PT268</name></trkpt>
<trkpt lat="53.346606" lon="-1.815174"><ele>444</ele><time>2020-08-05T09:27:58Z</time><name>PT269</name></trkpt>
<trkpt lat="53.346616" lon="-1.815163"><ele>443</ele><time>2020-08-05T09:27:59Z</time><name>PT270</name></trkpt>
<trkpt lat="53.346626" lon="-1.815163"><ele>442</ele><time>2020-08-05T09:28:00Z</time><name>PT271</name></trkpt>
<trkpt lat="53.346634" lon="-1.815156"><ele>441</ele><time>2020-08-05T09:28:01Z</time><name>PT272</name></trkpt>
<trkpt lat="53.346637" lon="-1.815133"><ele>443</ele><time>2020-08-05T09:28:02Z</time><name>PT273</name></trkpt>
<trkpt lat="53.346641" lon="-1.815127"><ele>443</ele><time>2020-08-05T09:28:03Z</time><name>PT274</name></trkpt>
<trkpt lat="53.346646" lon="-1.815120"><ele>443</ele><time>2020-08-05T09:28:04Z</time><name>PT275</name></trkpt>
<trkpt lat="53.346647" lon="-1.815115"><ele>443</ele><time>2020-08-05T09:28:05Z</time><name>PT276</name></trkpt>
<trkpt lat="53.346658" lon="-1.815111"><ele>440</ele><time>2020-08-05T09:28:06Z</time><name>PT277</name></trkpt>
<trkpt lat="53.346660" lon="-1.815099"><ele>440</ele><time>2020-08-05T09:28:07Z</time><name>PT278</name></trkpt>
<trkpt lat="53.346665" lon="-1.815090"><ele>440</ele><time>2020-08-05T09:28:08Z</time><name>PT279</name></trkpt>
<trkpt lat="53.346677" lon="-1.815085"><ele>440</ele><time>2020-08-05T09:28:09Z</time><name>PT280</name></trkpt>
<trkpt lat="53.346681" lon="-1.815075"><ele>440</ele><time>2020-08-05T09:28:10Z</time><name>PT281</name></trkpt>
<trkpt lat="53.346682" lon="-1.815058"><ele>440</ele><time>2020-08-05T09:28:11Z</time><name>PT282</name></trkpt>
<trkpt lat="53.346689" lon="-1.815049"><ele>440</ele><time>2020-08-05T09:28:12Z</time><name>PT283</name></trkpt>
<trkpt lat="53.346701" lon="-1.815040"><ele>441</ele><time>2020-08-05T09:28:13Z</time><name>PT284</name></trkpt>
<trkpt lat="53.346705" lon="-1.815029"><ele>441</ele><time>2020-08-05T09:28:14Z</time><name>PT285</name></trkpt>
<trkpt lat="53.346705" lon="-1.815008"><ele>442</ele><time>2020-08-05T09:28:15Z</time><name>PT286</name></trkpt>
<trkpt lat="53.346714" lon="-1.815000"><ele>441</ele><time>2020-08-05T09:28:16Z</time><name>PT287</name></trkpt>
<trkpt lat="53.346721" lon="-1.814989"><ele>441</ele><time>2020-08-05T09:28:17Z</time><name>PT288</name></trkpt>
<trkpt lat="53.346729" lon="-1.814963"><ele>443</ele><time>2020-08-05T09:28:18Z</time><name>PT289</name></trkpt>
<trkpt lat="53.346737" lon="-1.814954"><ele>443</ele><time>2020-08-05T09:28:19Z</time><name>PT290</name></trkpt>
<trkpt lat="53.346746" lon="-1.814941"><ele>443</ele><time>2020-08-05T09:28:20Z</time><name>PT291</name></trkpt>
<trkpt lat="53.346753" lon="-1.814925"><ele>443</ele><time>2020-08-05T09:28:21Z</time><name>PT292</name></trkpt>
<trkpt lat="53.346759" lon="-1.814912"><ele>443</ele><time>2020-08-05T09:28:22Z</time><name>PT293</name></trkpt>
<trkpt lat="53.346766" lon="-1.814893"><ele>442</ele><time>2020-08-05T09:28:23Z</time><name>PT294</name></trkpt>
<trkpt lat="53.346768" lon="-1.814881"><ele>442</ele><time>2020-08-05T09:28:24Z</time><name>PT295</name></trkpt>
<trkpt lat="53.346776" lon="-1.814873"><ele>442</ele><time>2020-08-05T09:28:25Z</time><name>PT296</name></trkpt>
<trkpt lat="53.346782" lon="-1.814857"><ele>441</ele><time>2020-08-05T09:28:26Z</time><name>PT297</name></trkpt>
<trkpt lat="53.346783" lon="-1.814832"><ele>441</ele><time>2020-08-05T09:28:27Z</time><name>PT298</name></trkpt>
<trkpt lat="53.346785" lon="-1.814811"><ele>441</ele><time>2020-08-05T09:28:28Z</time><name>PT299</name></trkpt>
<trkpt lat="53.346794" lon="-1.814775"><ele>443</ele><time>2020-08-05T09:28:29Z</time><name>PT300</name></trkpt>
<trkpt lat="53.346802" lon="-1.814750"><ele>444</ele><time>2020-08-05T09:28:30Z</time><name>PT301</name></trkpt>
<trkpt lat="53.346810" lon="-1.814734"><ele>444</ele><time>2020-08-05T09:28:31Z</time><name>PT302</name></trkpt>
<trkpt lat="53.346816" lon="-1.814723"><ele>444</ele><time>2020-08-05T09:28:32Z</time><name>PT303</name></trkpt>
<trkpt lat="53.346835" lon="-1.814695"><ele>445</ele><time>2020-08-05T09:28:33Z</time><name>PT304</name></trkpt>
<trkpt lat="53.346841" lon="-1.814675"><ele>446</ele><time>2020-08-05T09:28:34Z</time><name>PT305</name></trkpt>
<trkpt lat="53.346841" lon="-1.814659"><ele>446</ele><time>2020-08-05T09:28:35Z</time><name>PT306</name></trkpt>
<trkpt lat="53.346845" lon="-1.814640"><ele>446</ele><time>2020-08-05T09:28:36Z</time><name>PT307</name></trkpt>
<trkpt lat="53.346848" lon="-1.814626"><ele>446</ele><time>2020-08-05T09:28:37Z</time><name>PT308</name></trkpt>
<trkpt lat="53.346851" lon="-1.814611"><ele>446</ele><time>2020-08-05T09:28:38Z</time><name>PT309</name></trkpt>
<trkpt lat="53.346853" lon="-1.814591"><ele>446</ele><time>2020-08-05T09:28:39Z</time><name>PT310</name></trkpt>
<trkpt lat="53.346861" lon="-1.814566"><ele>448</ele><time>2020-08-05T09:28:40Z</time><name>PT311</name></trkpt>
<trkpt lat="53.346866" lon="-1.814546"><ele>448</ele><time>2020-08-05T09:28:41Z</time><name>PT312</name></trkpt>
<trkpt lat="53.346870" lon="-1.814527"><ele>448</ele><time>2020-08-05T09:28:42Z</time><name>PT313</name></trkpt>
<trkpt lat="53.346875" lon="-1.814510"><ele>448</ele><time>2020-08-05T09:28:43Z</time><name>PT314</name></trkpt>
<trkpt lat="53.346882" lon="-1.814501"><ele>448</ele><time>2020-08-05T09:28:44Z</time><name>PT315</name></trkpt>
<trkpt lat="53.346888" lon="-1.814487"><ele>449</ele><time>2020-08-05T09:28:45Z</time><name>PT316</name></trkpt>
<trkpt lat="53.346894" lon="-1.814476"><ele>448</ele><time>2020-08-05T09:28:46Z</time><name>PT317</name></trkpt>
<trkpt lat="53.346900" lon="-1.814465"><ele>448</ele><time>2020-08-05T09:28:47Z</time><name>PT318</name></trkpt>
<trkpt lat="53.346902" lon="-1.814456"><ele>448</ele><time>2020-08-05T09:28:48Z</time><name>PT319</name></trkpt>
<trkpt lat="53.346907" lon="-1.814448"><ele>448</ele><time>2020-08-05T09:28:49Z</time><name>PT320</name></trkpt>
<trkpt lat="53.346911" lon="-1.814440"><ele>448</ele><time>2020-08-05T09:28:50Z</time><name>PT321</name></trkpt>
<trkpt lat="53.346914" lon="-1.814432"><ele>448</ele><time>2020-08-05T09:28:51Z</time><name>PT322</name></trkpt>
<trkpt lat="53.346920" lon="-1.814422"><ele>448</ele><time>2020-08-05T09:28:52Z</time><name>PT323</name></trkpt>
<trkpt lat="53.346925" lon="-1.814409"><ele>448</ele><time>2020-08-05T09:28:53Z</time><name>PT324</name></trkpt>
<trkpt lat="53.346929" lon="-1.814398"><ele>448</ele><time>2020-08-05T09:28:54Z</time><name>PT325</name></trkpt>
<trkpt lat="53.346933" lon="-1.814386"><ele>449</ele><time>2020-08-05T09:28:55Z</time><name>PT326</name></trkpt>
<trkpt lat="53.346936" lon="-1.814377"><ele>448</ele><time>2020-08-05T09:28:56Z</time><name>PT327</name></trkpt>
<trkpt lat="53.346939" lon="-1.814367"><ele>448</ele><time>2020-08-05T09:28:57Z</time><name>PT328</name></trkpt>
<trkpt lat="53.346945" lon="-1.814359"><ele>448</ele><time>2020-08-05T09:28:58Z</time><name>PT329</name></trkpt>
<trkpt lat="53.346946" lon="-1.814337"><ele>449</ele><time>2020-08-05T09:28:59Z</time><name>PT330</name></trkpt>
<trkpt lat="53.346950" lon="-1.814326"><ele>449</ele><time>2020-08-05T09:29:00Z</time><name>PT331</name></trkpt>
<trkpt lat="53.346959" lon="-1.814306"><ele>450</ele><time>2020-08-05T09:29:01Z</time><name>PT332</name></trkpt>
<trkpt lat="53.346967" lon="-1.814290"><ele>450</ele><time>2020-08-05T09:29:02Z</time><name>PT333</name></trkpt>
<trkpt lat="53.346971" lon="-1.814272"><ele>450</ele><time>2020-08-05T09:29:03Z</time><name>PT334</name></trkpt>
<trkpt lat="53.346975" lon="-1.814255"><ele>450</ele><time>2020-08-05T09:29:04Z</time><name>PT335</name></trkpt>
<trkpt lat="53.346977" lon="-1.814234"><ele>451</ele><time>2020-08-05T09:29:05Z</time><name>PT336</name></trkpt>
<trkpt lat="53.346981" lon="-1.814219"><ele>451</ele><time>2020-08-05T09:29:06Z</time><name>PT337</name></trkpt>
<trkpt lat="53.346985" lon="-1.814204"><ele>452</ele><time>2020-08-05T09:29:07Z</time><name>PT338</name></trkpt>
<trkpt lat="53.346988" lon="-1.814194"><ele>452</ele><time>2020-08-05T09:29:08Z</time><name>PT339</name></trkpt>
<trkpt lat="53.346988" lon="-1.814176"><ele>452</ele><time>2020-08-05T09:29:09Z</time><name>PT340</name></trkpt>
<trkpt lat="53.346990" lon="-1.814158"><ele>453</ele><time>2020-08-05T09:29:10Z</time><name>PT341</name></trkpt>
<trkpt lat="53.346992" lon="-1.814145"><ele>453</ele><time>2020-08-05T09:29:11Z</time><name>PT342</name></trkpt>
<trkpt lat="53.346999" lon="-1.814127"><ele>453</ele><time>2020-08-05T09:29:12Z</time><name>PT343</name></trkpt>
<trkpt lat="53.347005" lon="-1.814117"><ele>453</ele><time>2020-08-05T09:29:13Z</time><name>PT344</name></trkpt>
<trkpt lat="53.347013" lon="-1.814105"><ele>453</ele><time>2020-08-05T09:29:14Z</time><name>PT345</name></trkpt>
<trkpt lat="53.347016" lon="-1.814089"><ele>453</ele><time>2020-08-05T09:29:15Z</time><name>PT346</name></trkpt>
<trkpt lat="53.347018" lon="-1.814070"><ele>453</ele><time>2020-08-05T09:29:16Z</time><name>PT347</name></trkpt>
<trkpt lat="53.347021" lon="-1.814054"><ele>453</ele><time>2020-08-05T09:29:17Z</time><name>PT348</name></trkpt>
<trkpt lat="53.347027" lon="-1.814032"><ele>453</ele><time>2020-08-05T09:29:18Z</time><name>PT349</name></trkpt>
<trkpt lat="53.347031" lon="-1.814008"><ele>453</ele><time>2020-08-05T09:29:19Z</time><name>PT350</name></trkpt>
<trkpt lat="53.347037" lon="-1.813999"><ele>453</ele><time>2020-08-05T09:29:20Z</time><name>PT351</name></trkpt>
<trkpt lat="53.347045" lon="-1.813984"><ele>453</ele><time>2020-08-05T09:29:21Z</time><name>PT352</name></trkpt>
<trkpt lat="53.347055" lon="-1.813973"><ele>452</ele><time>2020-08-05T09:29:22Z</time><name>PT353</name></trkpt>
<trkpt lat="53.347062" lon="-1.813960"><ele>452</ele><time>2020-08-05T09:29:23Z</time><name>PT354</name></trkpt>
<trkpt lat="53.347070" lon="-1.813948"><ele>453</ele><time>2020-08-05T09:29:24Z</time><name>PT355</name></trkpt>
<trkpt lat="53.347077" lon="-1.813937"><ele>453</ele><time>2020-08-05T09:29:25Z</time><name>PT356</name></trkpt>
<trkpt lat="53.347083" lon="-1.813929"><ele>453</ele><time>2020-08-05T09:29:26Z</time><name>PT357</name></trkpt>
<trkpt lat="53.347091" lon="-1.813917"><ele>452</ele><time>2020-08-05T09:29:27Z</time><name>PT358</name></trkpt>
<trkpt lat="53.347098" lon="-1.813907"><ele>452</ele><time>2020-08-05T09:29:28Z</time><name>PT359</name></trkpt>
<trkpt lat="53.347105" lon="-1.813896"><ele>452</ele><time>2020-08-05T09:29:29Z</time><name>PT360</name></trkpt>
<trkpt lat="53.347112" lon="-1.813889"><ele>452</ele><time>2020-08-05T09:29:30Z</time><name>PT361</name></trkpt>
<trkpt lat="53.347117" lon="-1.813874"><ele>453</ele><time>2020-08-05T09:29:31Z</time><name>PT362</name></trkpt>
<trkpt lat="53.347123" lon="-1.813864"><ele>453</ele><time>2020-08-05T09:29:32Z</time><name>PT363</name></trkpt>
<trkpt lat="53.347130" lon="-1.813849"><ele>453</ele><time>2020-08-05T09:29:33Z</time><name>PT364</name></trkpt>
<trkpt lat="53.347138" lon="-1.813842"><ele>453</ele><time>2020-08-05T09:29:34Z</time><name>PT365</name></trkpt>
<trkpt lat="53.347144" lon="-1.813829"><ele>453</ele><time>2020-08-05T09:29:35Z</time><name>PT366</name></trkpt>
<trkpt lat="53.347150" lon="-1.813817"><ele>454</ele><time>2020-08-05T09:29:36Z</time><name>PT367</name></trkpt>
<trkpt lat="53.347157" lon="-1.813807"><ele>454</ele><time>2020-08-05T09:29:37Z</time><name>PT368</name></trkpt>
<trkpt lat="53.347161" lon="-1.813790"><ele>454</ele><time>2020-08-05T09:29:38Z</time><name>PT369</name></trkpt>
<trkpt lat="53.347167" lon="-1.813779"><ele>454</ele><time>2020-08-05T09:29:39Z</time><name>PT370</name></trkpt>
<trkpt lat="53.347174" lon="-1.813778"><ele>454</ele><time>2020-08-05T09:29:40Z</time><name>PT371</name></trkpt>
<trkpt lat="53.347183" lon="-1.813771"><ele>454</ele><time>2020-08-05T09:29:41Z</time><name>PT372</name></trkpt>
<trkpt lat="53.347188" lon="-1.813762"><ele>454</ele><time>2020-08-05T09:29:42Z</time><name>PT373</name></trkpt>
<trkpt lat="53.347195" lon="-1.813749"><ele>454</ele><time>2020-08-05T09:29:43Z</time><name>PT374</name></trkpt>
<trkpt lat="53.347202" lon="-1.813742"><ele>454</ele><time>2020-08-05T09:29:44Z</time><name>PT375</name></trkpt>
<trkpt lat="53.347208" lon="-1.813739"><ele>454</ele><time>2020-08-05T09:29:45Z</time><name>PT376</name></trkpt>
<trkpt lat="53.347216" lon="-1.813734"><ele>454</ele><time>2020-08-05T09:29:46Z</time><name>PT377</name></trkpt>
<trkpt lat="53.347229" lon="-1.813733"><ele>454</ele><time>2020-08-05T09:29:47Z</time><name>PT378</name></trkpt>
<trkpt lat="53.347237" lon="-1.813724"><ele>455</ele><time>2020-08-05T09:29:48Z</time><name>PT379</name></trkpt>
<trkpt lat="53.347244" lon="-1.813714"><ele>454</ele><time>2020-08-05T09:29:49Z</time><name>PT380</name></trkpt>
<trkpt lat="53.347252" lon="-1.813704"><ele>454</ele><time>2020-08-05T09:29:50Z</time><name>PT381</name></trkpt>
<trkpt lat="53.347257" lon="-1.813690"><ele>454</ele><time>2020-08-05T09:29:51Z</time><name>PT382</name></trkpt>
<trkpt lat="53.347261" lon="-1.813682"><ele>455</ele><time>2020-08-05T09:29:52Z</time><name>PT383</name></trkpt>
<trkpt lat="53.347265" lon="-1.813679"><ele>455</ele><time>2020-08-05T09:29:53Z</time><name>PT384</name></trkpt>
<trkpt lat="53.347273" lon="-1.813669"><ele>455</ele><time>2020-08-05T09:29:54Z</time><name>PT385</name></trkpt>
<trkpt lat="53.347277" lon="-1.813654"><ele>456</ele><time>2020-08-05T09:29:55Z</time><name>PT386</name></trkpt>
<trkpt lat="53.347282" lon="-1.813644"><ele>457</ele><time>2020-08-05T09:29:56Z</time><name>PT387</name></trkpt>
<trkpt lat="53.347285" lon="-1.813640"><ele>457</ele><time>2020-08-05T09:29:57Z</time><name>PT388</name></trkpt>
<trkpt lat="53.347289" lon="-1.813633"><ele>457</ele><time>2020-08-05T09:29:58Z</time><name>PT389</name></trkpt>
<trkpt lat="53.347298" lon="-1.813623"><ele>457</ele><time>2020-08-05T09:29:59Z</time><name>PT390</name></trkpt>
<trkpt lat="53.347304" lon="-1.813618"><ele>457</ele><time>2020-08-05T09:30:00Z</time><name>PT391</name></trkpt>
<trkpt lat="53.347309" lon="-1.813619"><ele>457</ele><time>2020-08-05T09:30:01Z</time><name>PT392</name></trkpt>
<trkpt lat="53.347315" lon="-1.813619"><ele>457</ele><time>2020-08-05T09:30:02Z</time><name>PT393</name></trkpt>
<trkpt lat="53.347321" lon="-1.813618"><ele>457</ele><time>2020-08-05T09:30:03Z</time><name>PT394</name></trkpt>
<trkpt lat="53.347324" lon="-1.813618"><ele>456</ele><time>2020-08-05T09:30:08Z</time><name>PT395</name></trkpt>
<trkpt lat="53.347341" lon="-1.813621"><ele>457</ele><time>2020-08-05T09:30:09Z</time><name>PT396</name></trkpt>
<trkpt lat="53.347351" lon="-1.813628"><ele>456</ele><time>2020-08-05T09:30:10Z</time><name>PT397</name></trkpt>
<trkpt lat="53.347367" lon="-1.813637"><ele>456</ele><time>2020-08-05T09:30:11Z</time><name>PT398</name></trkpt>
<trkpt lat="53.347378" lon="-1.813635"><ele>456</ele><time>2020-08-05T09:30:12Z</time><name>PT399</name></trkpt>
<trkpt lat="53.347390" lon="-1.813635"><ele>456</ele><time>2020-08-05T09:30:13Z</time><name>PT400</name></trkpt>
<trkpt lat="53.347399" lon="-1.813633"><ele>455</ele><time>2020-08-05T09:30:14Z</time><name>PT401</name></trkpt>
<trkpt lat="53.347409" lon="-1.813632"><ele>455</ele><time>2020-08-05T09:30:15Z</time><name>PT402</name></trkpt>
<trkpt lat="53.347419" lon="-1.813632"><ele>456</ele><time>2020-08-05T09:30:16Z</time><name>PT403</name></trkpt>
<trkpt lat="53.347429" lon="-1.813630"><ele>456</ele><time>2020-08-05T09:30:17Z</time><name>PT404</name></trkpt>
<trkpt lat="53.347443" lon="-1.813626"><ele>456</ele><time>2020-08-05T09:30:18Z</time><name>PT405</name></trkpt>
<trkpt lat="53.347454" lon="-1.813623"><ele>457</ele><time>2020-08-05T09:30:19Z</time><name>PT406</name></trkpt>
<trkpt lat="53.347471" lon="-1.813606"><ele>455</ele><time>2020-08-05T09:30:20Z</time><name>PT407</name></trkpt>
<trkpt lat="53.347485" lon="-1.813595"><ele>455</ele><time>2020-08-05T09:30:21Z</time><name>PT408</name></trkpt>
<trkpt lat="53.347492" lon="-1.813590"><ele>456</ele><time>2020-08-05T09:30:22Z</time><name>PT409</name></trkpt>
<trkpt lat="53.347507" lon="-1.813587"><ele>456</ele><time>2020-08-05T09:30:23Z</time><name>PT410</name></trkpt>
<trkpt lat="53.347514" lon="-1.813581"><ele>457</ele><time>2020-08-05T09:30:24Z</time><name>PT411</name></trkpt>
<trkpt lat="53.347520" lon="-1.813579"><ele>457</ele><time>2020-08-05T09:30:25Z</time><name>PT412</name></trkpt>
<trkpt lat="53.347530" lon="-1.813573"><ele>457</ele><time>2020-08-05T09:30:26Z</time><name>PT413</name></trkpt>
<trkpt lat="53.347540" lon="-1.813568"><ele>457</ele><time>2020-08-05T09:30:27Z</time><name>PT414</name></trkpt>
<trkpt lat="53.347548" lon="-1.813568"><ele>456</ele><time>2020-08-05T09:30:28Z</time><name>PT415</name></trkpt>
<trkpt lat="53.347557" lon="-1.813570"><ele>456</ele><time>2020-08-05T09:30:29Z</time><name>PT416</name></trkpt>
<trkpt lat="53.347567" lon="-1.813574"><ele>456</ele><time>2020-08-05T09:30:30Z</time><name>PT417</name></trkpt>
<trkpt lat="53.347576" lon="-1.813577"><ele>456</ele><time>2020-08-05T09:30:31Z</time><name>PT418</name></trkpt>
<trkpt lat="53.347584" lon="-1.813577"><ele>456</ele><time>2020-08-05T09:30:32Z</time><name>PT419</name></trkpt>
<trkpt lat="53.347590" lon="-1.813584"><ele>455</ele><time>2020-08-05T09:30:33Z</time><name>PT420</name></trkpt>
<trkpt lat="53.347597" lon="-1.813588"><ele>455</ele><time>2020-08-05T09:30:34Z</time><name>PT421</name></trkpt>
<trkpt lat="53.347608" lon="-1.813588"><ele>456</ele><time>2020-08-05T09:30:35Z</time><name>PT422</name></trkpt>
<trkpt lat="53.347617" lon="-1.813588"><ele>456</ele><time>2020-08-05T09:30:36Z</time><name>PT423</name></trkpt>
<trkpt lat="53.347623" lon="-1.813591"><ele>455</ele><time>2020-08-05T09:30:37Z</time><name>PT424</name></trkpt>
<trkpt lat="53.347628" lon="-1.813590"><ele>455</ele><time>2020-08-05T09:30:38Z</time><name>PT425</name></trkpt>
<trkpt lat="53.347637" lon="-1.813588"><ele>455</ele><time>2020-08-05T09:30:39Z</time><name>PT426</name></trkpt>
<trkpt lat="53.347646" lon="-1.813588"><ele>455</ele><time>2020-08-05T09:30:40Z</time><name>PT427</name></trkpt>
<trkpt lat="53.347653" lon="-1.813587"><ele>454</ele><time>2020-08-05T09:30:41Z</time><name>PT428</name></trkpt>
<trkpt lat="53.347661" lon="-1.813586"><ele>455</ele><time>2020-08-05T09:30:42Z</time><name>PT429</name></trkpt>
<trkpt lat="53.347671" lon="-1.813587"><ele>455</ele><time>2020-08-05T09:30:43Z</time><name>PT430</name></trkpt>
<trkpt lat="53.347682" lon="-1.813582"><ele>455</ele><time>2020-08-05T09:30:44Z</time><name>PT431</name></trkpt>
<trkpt lat="53.347692" lon="-1.813576"><ele>455</ele><time>2020-08-05T09:30:45Z</time><name>PT432</name></trkpt>
<trkpt lat="53.347699" lon="-1.813578"><ele>456</ele><time>2020-08-05T09:30:46Z</time><name>PT433</name></trkpt>
<trkpt lat="53.347707" lon="-1.813576"><ele>456</ele><time>2020-08-05T09:30:47Z</time><name>PT434</name></trkpt>
<trkpt lat="53.347715" lon="-1.813571"><ele>456</ele><time>2020-08-05T09:30:48Z</time><name>PT435</name></trkpt>
<trkpt lat="53.347722" lon="-1.813561"><ele>457</ele><time>2020-08-05T09:30:49Z</time><name>PT436</name></trkpt>
<trkpt lat="53.347725" lon="-1.813559"><ele>457</ele><time>2020-08-05T09:30:50Z</time><name>PT437</name></trkpt>
<trkpt lat="53.347731" lon="-1.813549"><ele>457</ele><time>2020-08-05T09:30:51Z</time><name>PT438</name></trkpt>
<trkpt lat="53.347734" lon="-1.813541"><ele>458</ele><time>2020-08-05T09:30:52Z</time><name>PT439</name></trkpt>
<trkpt lat="53.347736" lon="-1.813535"><ele>458</ele><time>2020-08-05T09:30:53Z</time><name>PT440</name></trkpt>
<trkpt lat="53.347739" lon="-1.813523"><ele>458</ele><time>2020-08-05T09:30:54Z</time><name>PT441</name></trkpt>
<trkpt lat="53.347741" lon="-1.813514"><ele>459</ele><time>2020-08-05T09:30:55Z</time><name>PT442</name></trkpt>
<trkpt lat="53.347744" lon="-1.813503"><ele>459</ele><time>2020-08-05T09:30:56Z</time><name>PT443</name></trkpt>
<trkpt lat="53.347746" lon="-1.813489"><ele>460</ele><time>2020-08-05T09:30:57Z</time><name>PT444</name></trkpt>
<trkpt lat="53.347746" lon="-1.813481"><ele>461</ele><time>2020-08-05T09:30:58Z</time><name>PT445</name></trkpt>
<trkpt lat="53.347746" lon="-1.813471"><ele>461</ele><time>2020-08-05T09:30:59Z</time><name>PT446</name></trkpt>
<trkpt lat="53.347745" lon="-1.813461"><ele>461</ele><time>2020-08-05T09:31:00Z</time><name>PT447</name></trkpt>
<trkpt lat="53.347744" lon="-1.813451"><ele>461</ele><time>2020-08-05T09:31:01Z</time><name>PT448</name></trkpt>
<trkpt lat="53.347744" lon="-1.813436"><ele>462</ele><time>2020-08-05T09:31:02Z</time><name>PT449</name></trkpt>
<trkpt lat="53.347749" lon="-1.813429"><ele>463</ele><time>2020-08-05T09:31:03Z</time><name>PT450</name></trkpt>
<trkpt lat="53.347751" lon="-1.813414"><ele>463</ele><time>2020-08-05T09:31:04Z</time><name>PT451</name></trkpt>
<trkpt lat="53.347755" lon="-1.813397"><ele>465</ele><time>2020-08-05T09:31:05Z</time><name>PT452</name></trkpt>
<trkpt lat="53.347755" lon="-1.813385"><ele>465</ele><time>2020-08-05T09:31:06Z</time><name>PT453</name></trkpt>
<trkpt lat="53.347755" lon="-1.813372"><ele>465</ele><time>2020-08-05T09:31:07Z</time><name>PT454</name></trkpt>
<trkpt lat="53.347756" lon="-1.813366"><ele>465</ele><time>2020-08-05T09:31:08Z</time><name>PT455</name></trkpt>
<trkpt lat="53.347758" lon="-1.813359"><ele>465</ele><time>2020-08-05T09:31:09Z</time><name>PT456</name></trkpt>
<trkpt lat="53.347760" lon="-1.813347"><ele>466</ele><time>2020-08-05T09:31:10Z</time><name>PT457</name></trkpt>
<trkpt lat="53.347762" lon="-1.813339"><ele>466</ele><time>2020-08-05T09:31:11Z</time><name>PT458</name></trkpt>
<trkpt lat="53.347760" lon="-1.813324"><ele>467</ele><time>2020-08-05T09:31:12Z</time><name>PT459</name></trkpt>
<trkpt lat="53.347760" lon="-1.813312"><ele>468</ele><time>2020-08-05T09:31:13Z</time><name>PT460</name></trkpt>
<trkpt lat="53.347758" lon="-1.813301"><ele>469</ele><time>2020-08-05T09:31:14Z</time><name>PT461</name></trkpt>
<trkpt lat="53.347753" lon="-1.813293"><ele>470</ele><time>2020-08-05T09:31:15Z</time><name>PT462</name></trkpt>
<trkpt lat="53.347754" lon="-1.813282"><ele>470</ele><time>2020-08-05T09:31:16Z</time><name>PT463</name></trkpt>
<trkpt lat="53.347752" lon="-1.813270"><ele>470</ele><time>2020-08-05T09:31:17Z</time><name>PT464</name></trkpt>
<trkpt lat="53.347752" lon="-1.813253"><ele>472</ele><time>2020-08-05T09:31:18Z</time><name>PT465</name></trkpt>
<trkpt lat="53.347754" lon="-1.813239"><ele>472</ele><time>2020-08-05T09:31:19Z</time><name>PT466</name></trkpt>
<trkpt lat="53.347755" lon="-1.813228"><ele>472</ele><time>2020-08-05T09:31:20Z</time><name>PT467</name></trkpt>
<trkpt lat="53.347757" lon="-1.813217"><ele>473</ele><time>2020-08-05T09:31:21Z</time><name>PT468</name></trkpt>
<trkpt lat="53.347759" lon="-1.813205"><ele>473</ele><time>2020-08-05T09:31:22Z</time><name>PT469</name></trkpt>
<trkpt lat="53.347760" lon="-1.813198"><ele>473</ele><time>2020-08-05T09:31:23Z</time><name>PT470</name></trkpt>
<trkpt lat="53.347762" lon="-1.813187"><ele>473</ele><time>2020-08-05T09:31:24Z</time><name>PT471</name></trkpt>
<trkpt lat="53.347763" lon="-1.813177"><ele>473</ele><time>2020-08-05T09:31:25Z</time><name>PT472</name></trkpt>
<trkpt lat="53.347767" lon="-1.813171"><ele>474</ele><time>2020-08-05T09:31:26Z</time><name>PT473</name></trkpt>
<trkpt lat="53.347771" lon="-1.813162"><ele>474</ele><time>2020-08-05T09:31:27Z</time><name>PT474</name></trkpt>
<trkpt lat="53.347775" lon="-1.813154"><ele>474</ele><time>2020-08-05T09:31:28Z</time><name>PT475</name></trkpt>
<trkpt lat="53.347778" lon="-1.813146"><ele>475</ele><time>2020-08-05T09:31:29Z</time><name>PT476</name></trkpt>
<trkpt lat="53.347780" lon="-1.813135"><ele>475</ele><time>2020-08-05T09:31:30Z</time><name>PT477</name></trkpt>
<trkpt lat="53.347783" lon="-1.813123"><ele>475</ele><time>2020-08-05T09:31:31Z</time><name>PT478</name></trkpt>
<trkpt lat="53.347788" lon="-1.813104"><ele>476</ele><time>2020-08-05T09:31:32Z</time><name>PT479</name></trkpt>
<trkpt lat="53.347789" lon="-1.813099"><ele>475</ele><time>2020-08-05T09:31:33Z</time><name>PT480</name></trkpt>
<trkpt lat="53.347793" lon="-1.813090"><ele>475</ele><time>2020-08-05T09:31:34Z</time><name>PT481</name></trkpt>
<trkpt lat="53.347801" lon="-1.813078"><ele>476</ele><time>2020-08-05T09:31:35Z</time><name>PT482</name></trkpt>
<trkpt lat="53.347804" lon="-1.813071"><ele>476</ele><time>2020-08-05T09:31:36Z</time><name>PT483</name></trkpt>
<trkpt lat="53.347809" lon="-1.813063"><ele>476</ele><time>2020-08-05T09:31:37Z</time><name>PT484</name></trkpt>
<trkpt lat="53.347814" lon="-1.813056"><ele>476</ele><time>2020-08-05T09:31:38Z</time><name>PT485</name></trkpt>
<trkpt lat="53.347819" lon="-1.813046"><ele>476</ele><time>2020-08-05T09:31:39Z</time><name>PT486</name></trkpt>
<trkpt lat="53.347827" lon="-1.813040"><ele>476</ele><time>2020-08-05T09:31:40Z</time><name>PT487</name></trkpt>
<trkpt lat="53.347834" lon="-1.813032"><ele>476</ele><time>2020-08-05T09:31:41Z</time><name>PT488</name></trkpt>
<trkpt lat="53.347842" lon="-1.813024"><ele>476</ele><time>2020-08-05T09:31:42Z</time><name>PT489</name></trkpt>
<trkpt lat="53.347849" lon="-1.813017"><ele>476</ele><time>2020-08-05T09:31:43Z</time><name>PT490</name></trkpt>
<trkpt lat="53.347859" lon="-1.813008"><ele>476</ele><time>2020-08-05T09:31:44Z</time><name>PT491</name></trkpt>
<trkpt lat="53.347867" lon="-1.813003"><ele>476</ele><time>2020-08-05T09:31:45Z</time><name>PT492</name></trkpt>
<trkpt lat="53.347874" lon="-1.812999"><ele>476</ele><time>2020-08-05T09:31:46Z</time><name>PT493</name></trkpt>
<trkpt lat="53.347882" lon="-1.812990"><ele>476</ele><time>2020-08-05T09:31:47Z</time><name>PT494</name></trkpt>
<trkpt lat="53.347890" lon="-1.812980"><ele>476</ele><time>2020-08-05T09:31:48Z</time><name>PT495</name></trkpt>
<trkpt lat="53.347896" lon="-1.812969"><ele>476</ele><time>2020-08-05T09:31:49Z</time><name>PT496</name></trkpt>
<trkpt lat="53.347903" lon="-1.812961"><ele>476</ele><time>2020-08-05T09:31:50Z</time><name>PT497</name></trkpt>
<trkpt lat="53.347908" lon="-1.812957"><ele>475</ele><time>2020-08-05T09:31:51Z</time><name>PT498</name></trkpt>
<trkpt lat="53.347915" lon="-1.812951"><ele>476</ele><time>2020-08-05T09:31:52Z</time><name>PT499</name></trkpt>
<trkpt lat="53.347925" lon="-1.812944"><ele>476</ele><time>2020-08-05T09:31:53Z</time><name>PT500</name></trkpt>
<trkpt lat="53.347931" lon="-1.812939"><ele>476</ele><time>2020-08-05T09:31:54Z</time><name>PT501</name></trkpt>
<trkpt lat="53.347940" lon="-1.812935"><ele>476</ele><time>2020-08-05T09:31:55Z</time><name>PT502</name></trkpt>
<trkpt lat="53.347948" lon="-1.812928"><ele>476</ele><time>2020-08-05T09:31:56Z</time><name>PT503</name></trkpt>
<trkpt lat="53.347957" lon="-1.812924"><ele>476</ele><time>2020-08-05T09:31:57Z</time><name>PT504</name></trkpt>
<trkpt lat="53.347968" lon="-1.812919"><ele>476</ele><time>2020-08-05T09:31:58Z</time><name>PT505</name></trkpt>
<trkpt lat="53.347976" lon="-1.812912"><ele>476</ele><time>2020-08-05T09:31:59Z</time><name>PT506</name></trkpt>
<trkpt lat="53.347983" lon="-1.812904"><ele>477</ele><time>2020-08-05T09:32:00Z</time><name>PT507</name></trkpt>
<trkpt lat="53.347991" lon="-1.812894"><ele>478</ele><time>2020-08-05T09:32:01Z</time><name>PT508</name></trkpt>
<trkpt lat="53.347999" lon="-1.812886"><ele>478</ele><time>2020-08-05T09:32:02Z</time><name>PT509</name></trkpt>
<trkpt lat="53.348004" lon="-1.812882"><ele>478</ele><time>2020-08-05T09:32:03Z</time><name>PT510</name></trkpt>
<trkpt lat="53.348010" lon="-1.812874"><ele>478</ele><time>2020-08-05T09:32:04Z</time><name>PT511</name></trkpt>
<trkpt lat="53.348016" lon="-1.812866"><ele>478</ele><time>2020-08-05T09:32:05Z</time><name>PT512</name></trkpt>
<trkpt lat="53.348022" lon="-1.812860"><ele>479</ele><time>2020-08-05T09:32:06Z</time><name>PT513</name></trkpt>
<trkpt lat="53.348028" lon="-1.812851"><ele>479</ele><time>2020-08-05T09:32:07Z</time><name>PT514</name></trkpt>
<trkpt lat="53.348034" lon="-1.812844"><ele>480</ele><time>2020-08-05T09:32:08Z</time><name>PT515</name></trkpt>
<trkpt lat="53.348041" lon="-1.812839"><ele>480</ele><time>2020-08-05T09:32:09Z</time><name>PT516</name></trkpt>
<trkpt lat="53.348047" lon="-1.812833"><ele>480</ele><time>2020-08-05T09:32:10Z</time><name>PT517</name></trkpt>
<trkpt lat="53.348051" lon="-1.812832"><ele>480</ele><time>2020-08-05T09:32:11Z</time><name>PT518</name></trkpt>
<trkpt lat="53.348055" lon="-1.812824"><ele>480</ele><time>2020-08-05T09:32:12Z</time><name>PT519</name></trkpt>
<trkpt lat="53.348061" lon="-1.812816"><ele>480</ele><time>2020-08-05T09:32:13Z</time><name>PT520</name></trkpt>
<trkpt lat="53.348065" lon="-1.812812"><ele>480</ele><time>2020-08-05T09:32:14Z</time><name>PT521</name></trkpt>
<trkpt lat="53.348067" lon="-1.812805"><ele>480</ele><time>2020-08-05T09:32:15Z</time><name>PT522</name></trkpt>
<trkpt lat="53.348071" lon="-1.812800"><ele>480</ele><time>2020-08-05T09:32:16Z</time><name>PT523</name></trkpt>
<trkpt lat="53.348075" lon="-1.812793"><ele>480</ele><time>2020-08-05T09:32:17Z</time><name>PT524</name></trkpt>
<trkpt lat="53.348079" lon="-1.812781"><ele>480</ele><time>2020-08-05T09:32:18Z</time><name>PT525</name></trkpt>
<trkpt lat="53.348082" lon="-1.812771"><ele>481</ele><time>2020-08-05T09:32:19Z</time><name>PT526</name></trkpt>
<trkpt lat="53.348084" lon="-1.812764"><ele>481</ele><time>2020-08-05T09:32:20Z</time><name>PT527</name></trkpt>
<trkpt lat="53.348089" lon="-1.812753"><ele>481</ele><time>2020-08-05T09:32:21Z</time><name>PT528</name></trkpt>
<trkpt lat="53.348093" lon="-1.812742"><ele>481</ele><time>2020-08-05T09:32:22Z</time><name>PT529</name></trkpt>
<trkpt lat="53.348098" lon="-1.812731"><ele>481</ele><time>2020-08-05T09:32:23Z</time><name>PT530</name></trkpt>
<trkpt lat="53.348104" lon="-1.812718"><ele>482</ele><time>2020-08-05T09:32:24Z</time><name>PT531</name></trkpt>
<trkpt lat="53.348114" lon="-1.812704"><ele>482</ele><time>2020-08-05T09:32:25Z</time><name>PT532</name></trkpt>
<trkpt lat="53.348119" lon="-1.812693"><ele>482</ele><time>2020-08-05T09:32:26Z</time><name>PT533</name></trkpt>
<trkpt lat="53.348123" lon="-1.812681"><ele>483</ele><time>2020-08-05T09:32:27Z</time><name>PT534</name></trkpt>
<trkpt lat="53.348126" lon="-1.812667"><ele>483</ele><time>2020-08-05T09:32:28Z</time><name>PT535</name></trkpt>
<trkpt lat="53.348128" lon="-1.812657"><ele>483</ele><time>2020-08-05T09:32:29Z</time><name>PT536</name></trkpt>
<trkpt lat="53.348134" lon="-1.812645"><ele>484</ele><time>2020-08-05T09:32:30Z</time><name>PT537</name></trkpt>
<trkpt lat="53.348140" lon="-1.812631"><ele>484</ele><time>2020-08-05T09:32:31Z</time><name>PT538</name></trkpt>
<trkpt lat="53.348145" lon="-1.812618"><ele>484</ele><time>2020-08-05T09:32:32Z</time><name>PT539</name></trkpt>
<trkpt lat="53.348150" lon="-1.812607"><ele>484</ele><time>2020-08-05T09:32:33Z</time><name>PT540</name></trkpt>
<trkpt lat="53.348155" lon="-1.812597"><ele>484</ele><time>2020-08-05T09:32:34Z</time><name>PT541</name></trkpt>
<trkpt lat="53.348159" lon="-1.812585"><ele>485</ele><time>2020-08-05T09:32:35Z</time><name>PT542</name></trkpt>
<trkpt lat="53.348163" lon="-1.812577"><ele>485</ele><time>2020-08-05T09:32:36Z</time><name>PT543</name></trkpt>
<trkpt lat="53.348168" lon="-1.812567"><ele>485</ele><time>2020-08-05T09:32:37Z</time><name>PT544</name></trkpt>
<trkpt lat="53.348171" lon="-1.812555"><ele>485</ele><time>2020-08-05T09:32:38Z</time><name>PT545</name></trkpt>
<trkpt lat="53.348174" lon="-1.812543"><ele>486</ele><time>2020-08-05T09:32:39Z</time><name>PT546</name></trkpt>
<trkpt lat="53.348179" lon="-1.812532"><ele>486</ele><time>2020-08-05T09:32:40Z</time><name>PT547</name></trkpt>
<trkpt lat="53.348184" lon="-1.812520"><ele>486</ele><time>2020-08-05T09:32:41Z</time><name>PT548</name></trkpt>
<trkpt lat="53.348187" lon="-1.812506"><ele>486</ele><time>2020-08-05T09:32:42Z</time><name>PT549</name></trkpt>
<trkpt lat="53.348193" lon="-1.812493"><ele>486</ele><time>2020-08-05T09:32:43Z</time><name>PT550</name></trkpt>
<trkpt lat="53.348197" lon="-1.812481"><ele>487</ele><time>2020-08-05T09:32:44Z</time><name>PT551</name></trkpt>
<trkpt lat="53.348199" lon="-1.812472"><ele>487</ele><time>2020-08-05T09:32:45Z</time><name>PT552</name></trkpt>
<trkpt lat="53.348203" lon="-1.812464"><ele>486</ele><time>2020-08-05T09:32:46Z</time><name>PT553</name></trkpt>
<trkpt lat="53.348206" lon="-1.812453"><ele>487</ele><time>2020-08-05T09:32:47Z</time><name>PT554</name></trkpt>
<trkpt lat="53.348210" lon="-1.812441"><ele>487</ele><time>2020-08-05T09:32:48Z</time><name>PT555</name></trkpt>
<trkpt lat="53.348214" lon="-1.812429"><ele>487</ele><time>2020-08-05T09:32:49Z</time><name>PT556</name></trkpt>
<trkpt lat="53.348219" lon="-1.812417"><ele>487</ele><time>2020-08-05T09:32:50Z</time><name>PT557</name></trkpt>
<trkpt lat="53.348223" lon="-1.812410"><ele>487</ele><time>2020-08-05T09:32:51Z</time><name>PT558</name></trkpt>
<trkpt lat="53.348228" lon="-1.812397"><ele>487</ele><time>2020-08-05T09:32:52Z</time><name>PT559</name></trkpt>
<trkpt lat="53.348232" lon="-1.812384"><ele>488</ele><time>2020-08-05T09:32:53Z</time><name>PT560</name></trkpt>
<trkpt lat="53.348237" lon="-1.812372"><ele>488</ele><time>2020-08-05T09:32:54Z</time><name>PT561</name></trkpt>
<trkpt lat="53.348241" lon="-1.812361"><ele>488</ele><time>2020-08-05T09:32:55Z</time><name>PT562</name></trkpt>
<trkpt lat="53.348242" lon="-1.812351"><ele>488</ele><time>2020-08-05T09:32:56Z</time><name>PT563</name></trkpt>
<trkpt lat="53.348246" lon="-1.812334"><ele>489</ele><time>2020-08-05T09:32:57Z</time><name>PT564</name></trkpt>
<trkpt lat="53.348250" lon="-1.812321"><ele>489</ele><time>2020-08-05T09:32:58Z</time><name>PT565</name></trkpt>
<trkpt lat="53.348253" lon="-1.812308"><ele>489</ele><time>2020-08-05T09:32:59Z</time><name>PT566</name></trkpt>
<trkpt lat="53.348257" lon="-1.812295"><ele>489</ele><time>2020-08-05T09:33:00Z</time><name>PT567</name></trkpt>
<trkpt lat="53.348263" lon="-1.812282"><ele>490</ele><time>2020-08-05T09:33:01Z</time><name>PT568</name></trkpt>
<trkpt lat="53.348267" lon="-1.812270"><ele>490</ele><time>2020-08-05T09:33:02Z</time><name>PT569</name></trkpt>
<trkpt lat="53.348272" lon="-1.812257"><ele>490</ele><time>2020-08-05T09:33:03Z</time><name>PT570</name></trkpt>
<trkpt lat="53.348275" lon="-1.812249"><ele>490</ele><time>2020-08-05T09:33:04Z</time><name>PT571</name></trkpt>
<trkpt lat="53.348280" lon="-1.812234"><ele>490</ele><time>2020-08-05T09:33:05Z</time><name>PT572</name></trkpt>
<trkpt lat="53.348285" lon="-1.812222"><ele>490</ele><time>2020-08-05T09:33:06Z</time><name>PT573</name></trkpt>
<trkpt lat="53.348288" lon="-1.812214"><ele>490</ele><time>2020-08-05T09:33:07Z</time><name>PT574</name></trkpt>
<trkpt lat="53.348293" lon="-1.812202"><ele>491</ele><time>2020-08-05T09:33:08Z</time><name>PT575</name></trkpt>
<trkpt lat="53.348300" lon="-1.812189"><ele>491</ele><time>2020-08-05T09:33:09Z</time><name>PT576</name></trkpt>
<trkpt lat="53.348307" lon="-1.812179"><ele>492</ele><time>2020-08-05T09:33:10Z</time><name>PT577</name></trkpt>
<trkpt lat="53.348311" lon="-1.812169"><ele>492</ele><time>2020-08-05T09:33:11Z</time><name>PT578</name></trkpt>
<trkpt lat="53.348315" lon="-1.812162"><ele>492</ele><time>2020-08-05T09:33:12Z</time><name>PT579</name></trkpt>
<trkpt lat="53.348320" lon="-1.812153"><ele>493</ele><time>2020-08-05T09:33:13Z</time><name>PT580</name></trkpt>
<trkpt lat="53.348322" lon="-1.812143"><ele>493</ele><time>2020-08-05T09:33:14Z</time><name>PT581</name></trkpt>
<trkpt lat="53.348325" lon="-1.812135"><ele>493</ele><time>2020-08-05T09:33:15Z</time><name>PT582</name></trkpt>
<trkpt lat="53.348331" lon="-1.812129"><ele>493</ele><time>2020-08-05T09:33:16Z</time><name>PT583</name></trkpt>
<trkpt lat="53.348334" lon="-1.812119"><ele>493</ele><time>2020-08-05T09:33:17Z</time><name>PT584</name></trkpt>
<trkpt lat="53.348339" lon="-1.812113"><ele>493</ele><time>2020-08-05T09:33:18Z</time><name>PT585</name></trkpt>
<trkpt lat="53.348344" lon="-1.812102"><ele>494</ele><time>2020-08-05T09:33:19Z</time><name>PT586</name></trkpt>
<trkpt lat="53.348346" lon="-1.812090"><ele>494</ele><time>2020-08-05T09:33:20Z</time><name>PT587</name></trkpt>
<trkpt lat="53.348350" lon="-1.812081"><ele>494</ele><time>2020-08-05T09:33:21Z</time><name>PT588</name></trkpt>
<trkpt lat="53.348353" lon="-1.812071"><ele>494</ele><time>2020-08-05T09:33:22Z</time><name>PT589</name></trkpt>
<trkpt lat="53.348358" lon="-1.812061"><ele>494</ele><time>2020-08-05T09:33:23Z</time><name>PT590</name></trkpt>
<trkpt lat="53.348364" lon="-1.812052"><ele>495</ele><time>2020-08-05T09:33:24Z</time><name>PT591</name></trkpt>
<trkpt lat="53.348367" lon="-1.812047"><ele>495</ele><time>2020-08-05T09:33:25Z</time><name>PT592</name></trkpt>
<trkpt lat="53.348372" lon="-1.812036"><ele>495</ele><time>2020-08-05T09:33:26Z</time><name>PT593</name></trkpt>
<trkpt lat="53.348376" lon="-1.812024"><ele>496</ele><time>2020-08-05T09:33:27Z</time><name>PT594</name></trkpt>
<trkpt lat="53.348380" lon="-1.812015"><ele>496</ele><time>2020-08-05T09:33:28Z</time><name>PT595</name></trkpt>
<trkpt lat="53.348385" lon="-1.812005"><ele>496</ele><time>2020-08-05T09:33:29Z</time><name>PT596</name></trkpt>
<trkpt lat="53.348391" lon="-1.811998"><ele>497</ele><time>2020-08-05T09:33:30Z</time><name>PT597</name></trkpt>
<trkpt lat="53.348393" lon="-1.811988"><ele>497</ele><time>2020-08-05T09:33:31Z</time><name>PT598</name></trkpt>
<trkpt lat="53.348396" lon="-1.811977"><ele>497</ele><time>2020-08-05T09:33:32Z</time><name>PT599</name></trkpt>
<trkpt lat="53.348400" lon="-1.811970"><ele>497</ele><time>2020-08-05T09:33:33Z</time><name>PT600</name></trkpt>
<trkpt lat="53.348404" lon="-1.811961"><ele>497</ele><time>2020-08-05T09:33:34Z</time><name>PT601</name></trkpt>
<trkpt lat="53.348410" lon="-1.811949"><ele>497</ele><time>2020-08-05T09:33:35Z</time><name>PT602</name></trkpt>
<trkpt lat="53.348416" lon="-1.811938"><ele>498</ele><time>2020-08-05T09:33:36Z</time><name>PT603</name></trkpt>
<trkpt lat="53.348421" lon="-1.811928"><ele>498</ele><time>2020-08-05T09:33:37Z</time><name>PT604</name></trkpt>
<trkpt lat="53.348427" lon="-1.811916"><ele>498</ele><time>2020-08-05T09:33:38Z</time><name>PT605</name></trkpt>
<trkpt lat="53.348430" lon="-1.811911"><ele>497</ele><time>2020-08-05T09:33:39Z</time><name>PT606</name></trkpt>
<trkpt lat="53.348432" lon="-1.811900"><ele>497</ele><time>2020-08-05T09:33:40Z</time><name>PT607</name></trkpt>
<trkpt lat="53.348437" lon="-1.811889"><ele>498</ele><time>2020-08-05T09:33:41Z</time><name>PT608</name></trkpt>
<trkpt lat="53.348437" lon="-1.811881"><ele>497</ele><time>2020-08-05T09:33:42Z</time><name>PT609</name></trkpt>
<trkpt lat="53.348440" lon="-1.811872"><ele>497</ele><time>2020-08-05T09:33:43Z</time><name>PT610</name></trkpt>
<trkpt lat="53.348444" lon="-1.811864"><ele>497</ele><time>2020-08-05T09:33:44Z</time><name>PT611</name></trkpt>
<trkpt lat="53.348450" lon="-1.811853"><ele>497</ele><time>2020-08-05T09:33:45Z</time><name>PT612</name></trkpt>
<trkpt lat="53.348456" lon="-1.811842"><ele>497</ele><time>2020-08-05T09:33:46Z</time><name>PT613</name></trkpt>
<trkpt lat="53.348460" lon="-1.811834"><ele>497</ele><time>2020-08-05T09:33:47Z</time><name>PT614</name></trkpt>
<trkpt lat="53.348464" lon="-1.811825"><ele>497</ele><time>2020-08-05T09:33:48Z</time><name>PT615</name></trkpt>
<trkpt lat="53.348471" lon="-1.811814"><ele>497</ele><time>2020-08-05T09:33:49Z</time><name>PT616</name></trkpt>
<trkpt lat="53.348480" lon="-1.811804"><ele>497</ele><time>2020-08-05T09:33:50Z</time><name>PT617</name></trkpt>
<trkpt lat="53.348486" lon="-1.811790"><ele>498</ele><time>2020-08-05T09:33:51Z</time><name>PT618</name></trkpt>
<trkpt lat="53.348492" lon="-1.811781"><ele>498</ele><time>2020-08-05T09:33:52Z</time><name>PT619</name></trkpt>
<trkpt lat="53.348500" lon="-1.811771"><ele>499</ele><time>2020-08-05T09:33:53Z</time><name>PT620</name></trkpt>
<trkpt lat="53.348504" lon="-1.811762"><ele>499</ele><time>2020-08-05T09:33:54Z</time><name>PT621</name></trkpt>
<trkpt lat="53.348511" lon="-1.811752"><ele>500</ele><time>2020-08-05T09:33:55Z</time><name>PT622</name></trkpt>
<trkpt lat="53.348514" lon="-1.811745"><ele>500</ele><time>2020-08-05T09:33:56Z</time><name>PT623</name></trkpt>
<trkpt lat="53.348518" lon="-1.811740"><ele>501</ele><time>2020-08-05T09:33:57Z</time><name>PT624</name></trkpt>
<trkpt lat="53.348523" lon="-1.811734"><ele>501</ele><time>2020-08-05T09:33:58Z</time><name>PT625</name></trkpt>
<trkpt lat="53.348526" lon="-1.811729"><ele>501</ele><time>2020-08-05T09:33:59Z</time><name>PT626</name></trkpt>
<trkpt lat="53.348530" lon="-1.811724"><ele>501</ele><time>2020-08-05T09:34:00Z</time><name>PT627</name></trkpt>
<trkpt lat="53.348532" lon="-1.811725"><ele>500</ele><time>2020-08-05T09:34:01Z</time><name>PT628</name></trkpt>
<trkpt lat="53.348537" lon="-1.811724"><ele>500</ele><time>2020-08-05T09:34:02Z</time><name>PT629</name></trkpt>
<trkpt lat="53.348542" lon="-1.811717"><ele>500</ele><time>2020-08-05T09:34:03Z</time><name>PT630</name></trkpt>
<trkpt lat="53.348545" lon="-1.811713"><ele>500</ele><time>2020-08-05T09:34:04Z</time><name>PT631</name></trkpt>
<trkpt lat="53.348548" lon="-1.811707"><ele>500</ele><time>2020-08-05T09:34:05Z</time><name>PT632</name></trkpt>
<trkpt lat="53.348554" lon="-1.811701"><ele>501</ele><time>2020-08-05T09:34:06Z</time><name>PT633</name></trkpt>
<trkpt lat="53.348561" lon="-1.811703"><ele>501</ele><time>2020-08-05T09:34:07Z</time><name>PT634</name></trkpt>
<trkpt lat="53.348569" lon="-1.811695"><ele>501</ele><time>2020-08-05T09:34:08Z</time><name>PT635</name></trkpt>
<trkpt lat="53.348577" lon="-1.811688"><ele>502</ele><time>2020-08-05T09:34:09Z</time><name>PT636</name></trkpt>
<trkpt lat="53.348582" lon="-1.811683"><ele>502</ele><time>2020-08-05T09:34:10Z</time><name>PT637</name></trkpt>
<trkpt lat="53.348588" lon="-1.811675"><ele>503</ele><time>2020-08-05T09:34:11Z</time><name>PT638</name></trkpt>
<trkpt lat="53.348592" lon="-1.811669"><ele>503</ele><time>2020-08-05T09:34:12Z</time><name>PT639</name></trkpt>
<trkpt lat="53.348600" lon="-1.811659"><ele>503</ele><time>2020-08-05T09:34:13Z</time><name>PT640</name></trkpt>
<trkpt lat="53.348607" lon="-1.811647"><ele>503</ele><time>2020-08-05T09:34:14Z</time><name>PT641</name></trkpt>
<trkpt lat="53.348612" lon="-1.811634"><ele>504</ele><time>2020-08-05T09:34:15Z</time><name>PT642</name></trkpt>
<trkpt lat="53.348617" lon="-1.811622"><ele>504</ele><time>2020-08-05T09:34:16Z</time><name>PT643</name></trkpt>
<trkpt lat="53.348624" lon="-1.811611"><ele>503</ele><time>2020-08-05T09:34:17Z</time><name>PT644</name></trkpt>
<trkpt lat="53.348630" lon="-1.811598"><ele>504</ele><time>2020-08-05T09:34:18Z</time><name>PT645</name></trkpt>
<trkpt lat="53.348634" lon="-1.811586"><ele>504</ele><time>2020-08-05T09:34:19Z</time><name>PT646</name></trkpt>
<trkpt lat="53.348639" lon="-1.811576"><ele>504</ele><time>2020-08-05T09:34:20Z</time><name>PT647</name></trkpt>
<trkpt lat="53.348644" lon="-1.811563"><ele>504</ele><time>2020-08-05T09:34:21Z</time><name>PT648</name></trkpt>
<trkpt lat="53.348649" lon="-1.811550"><ele>505</ele><time>2020-08-05T09:34:22Z</time><name>PT649</name></trkpt>
<trkpt lat="53.348652" lon="-1.811545"><ele>505</ele><time>2020-08-05T09:34:23Z</time><name>PT650</name></trkpt>
<trkpt lat="53.348657" lon="-1.811536"><ele>505</ele><time>2020-08-05T09:34:24Z</time><name>PT651</name></trkpt>
<trkpt lat="53.348660" lon="-1.811526"><ele>505</ele><time>2020-08-05T09:34:25Z</time><name>PT652</name></trkpt>
<trkpt lat="53.348664" lon="-1.811517"><ele>505</ele><time>2020-08-05T09:34:26Z</time><name>PT653</name></trkpt>
<trkpt lat="53.348666" lon="-1.811506"><ele>505</ele><time>2020-08-05T09:34:27Z</time><name>PT654</name></trkpt>
<trkpt lat="53.348671" lon="-1.811490"><ele>506</ele><time>2020-08-05T09:34:28Z</time><name>PT655</name></trkpt>
<trkpt lat="53.348672" lon="-1.811476"><ele>506</ele><time>2020-08-05T09:34:29Z</time><name>PT656</name></trkpt>
<trkpt lat="53.348675" lon="-1.811462"><ele>506</ele><time>2020-08-05T09:34:30Z</time><name>PT657</name></trkpt>
<trkpt lat="53.348675" lon="-1.811449"><ele>506</ele><time>2020-08-05T09:34:31Z</time><name>PT658</name></trkpt>
<trkpt lat="53.348673" lon="-1.811433"><ele>506</ele><time>2020-08-05T09:34:32Z</time><name>PT659</name></trkpt>
<trkpt lat="53.348674" lon="-1.811422"><ele>506</ele><time>2020-08-05T09:34:33Z</time><name>PT660</name></trkpt>
<trkpt lat="53.348678" lon="-1.811398"><ele>507</ele><time>2020-08-05T09:34:34Z</time><name>PT661</name></trkpt>
<trkpt lat="53.348679" lon="-1.811381"><ele>507</ele><time>2020-08-05T09:34:35Z</time><name>PT662</name></trkpt>
<trkpt lat="53.348678" lon="-1.811371"><ele>507</ele><time>2020-08-05T09:34:36Z</time><name>PT663</name></trkpt>
<trkpt lat="53.348680" lon="-1.811357"><ele>507</ele><time>2020-08-05T09:34:37Z</time><name>PT664</name></trkpt>
<trkpt lat="53.348683" lon="-1.811340"><ele>508</ele><time>2020-08-05T09:34:38Z</time><name>PT665</name></trkpt>
<trkpt lat="53.348686" lon="-1.811330"><ele>508</ele><time>2020-08-05T09:34:39Z</time><name>PT666</name></trkpt>
<trkpt lat="53.348690" lon="-1.811319"><ele>508</ele><time>2020-08-05T09:34:40Z</time><name>PT667</name></trkpt>
<trkpt lat="53.348693" lon="-1.811309"><ele>508</ele><time>2020-08-05T09:34:41Z</time><name>PT668</name></trkpt>
<trkpt lat="53.348697" lon="-1.811299"><ele>509</ele><time>2020-08-05T09:34:42Z</time><name>PT669</name></trkpt>
<trkpt lat="53.348703" lon="-1.811288"><ele>509</ele><time>2020-08-05T09:34:43Z</time><name>PT670</name></trkpt>
<trkpt lat="53.348705" lon="-1.811278"><ele>509</ele><time>2020-08-05T09:34:44Z</time><name>PT671</name></trkpt>
<trkpt lat="53.348707" lon="-1.811266"><ele>509</ele><time>2020-08-05T09:34:45Z</time><name>PT672</name></trkpt>
<trkpt lat="53.348710" lon="-1.811251"><ele>509</ele><time>2020-08-05T09:34:46Z</time><name>PT673</name></trkpt>
<trkpt lat="53.348710" lon="-1.811238"><ele>509</ele><time>2020-08-05T09:34:47Z</time><name>PT674</name></trkpt>
<trkpt lat="53.348711" lon="-1.811223"><ele>509</ele><time>2020-08-05T09:34:48Z</time><name>PT675</name></trkpt>
<trkpt lat="53.348718" lon="-1.811216"><ele>508</ele><time>2020-08-05T09:34:49Z</time><name>PT676</name></trkpt>
<trkpt lat="53.348724" lon="-1.811201"><ele>508</ele><time>2020-08-05T09:34:50Z</time><name>PT677</name></trkpt>
<trkpt lat="53.348731" lon="-1.811188"><ele>508</ele><time>2020-08-05T09:34:51Z</time><name>PT678</name></trkpt>
<trkpt lat="53.348737" lon="-1.811174"><ele>508</ele><time>2020-08-05T09:34:52Z</time><name>PT679</name></trkpt>
<trkpt lat="53.348743" lon="-1.811155"><ele>509</ele><time>2020-08-05T09:34:53Z</time><name>PT680</name></trkpt>
<trkpt lat="53.348751" lon="-1.811128"><ele>510</ele><time>2020-08-05T09:34:54Z</time><name>PT681</name></trkpt>
<trkpt lat="53.348758" lon="-1.811108"><ele>510</ele><time>2020-08-05T09:34:55Z</time><name>PT682</name></trkpt>
<trkpt lat="53.348758" lon="-1.811093"><ele>510</ele><time>2020-08-05T09:34:56Z</time><name>PT683</name></trkpt>
<trkpt lat="53.348761" lon="-1.811073"><ele>510</ele><time>2020-08-05T09:34:57Z</time><name>PT684</name></trkpt>
<trkpt lat="53.348762" lon="-1.811055"><ele>510</ele><time>2020-08-05T09:34:58Z</time><name>PT685</name></trkpt>
<trkpt lat="53.348760" lon="-1.811034"><ele>510</ele><time>2020-08-05T09:34:59Z</time><name>PT686</name></trkpt>
<trkpt lat="53.348759" lon="-1.811012"><ele>510</ele><time>2020-08-05T09:35:00Z</time><name>PT687</name></trkpt>
<trkpt lat="53.348759" lon="-1.810991"><ele>510</ele><time>2020-08-05T09:35:01Z</time><name>PT688</name></trkpt>
<trkpt lat="53.348759" lon="-1.810970"><ele>510</ele><time>2020-08-05T09:35:02Z</time><name>PT689</name></trkpt>
<trkpt lat="53.348762" lon="-1.810946"><ele>510</ele><time>2020-08-05T09:35:03Z</time><name>PT690</name></trkpt>
<trkpt lat="53.348765" lon="-1.810928"><ele>511</ele><time>2020-08-05T09:35:04Z</time><name>PT691</name></trkpt>
<trkpt lat="53.348768" lon="-1.810910"><ele>511</ele><time>2020-08-05T09:35:05Z</time><name>PT692</name></trkpt>
<trkpt lat="53.348770" lon="-1.810891"><ele>511</ele><time>2020-08-05T09:35:06Z</time><name>PT693</name></trkpt>
<trkpt lat="53.348774" lon="-1.810873"><ele>511</ele><time>2020-08-05T09:35:07Z</time><name>PT694</name></trkpt>
<trkpt lat="53.348775" lon="-1.810853"><ele>511</ele><time>2020-08-05T09:35:08Z</time><name>PT695</name></trkpt>
<trkpt lat="53.348778" lon="-1.810837"><ele>511</ele><time>2020-08-05T09:35:09Z</time><name>PT696</name></trkpt>
<trkpt lat="53.348781" lon="-1.810817"><ele>511</ele><time>2020-08-05T09:35:10Z</time><name>PT697</name></trkpt>
<trkpt lat="53.348786" lon="-1.810799"><ele>512</ele><time>2020-08-05T09:35:11Z</time><name>PT698</name></trkpt>
<trkpt lat="53.348794" lon="-1.810785"><ele>511</ele><time>2020-08-05T09:35:12Z</time><name>PT699</name></trkpt>
<trkpt lat="53.348801" lon="-1.810766"><ele>512</ele><time>2020-08-05T09:35:13Z</time><name>PT700</name></trkpt>
<trkpt lat="53.348808" lon="-1.810750"><ele>512</ele><time>2020-08-05T09:35:14Z</time><name>PT701</name></trkpt>
<trkpt lat="53.348814" lon="-1.810731"><ele>513</ele><time>2020-08-05T09:35:15Z</time><name>PT702</name></trkpt>
<trkpt lat="53.348821" lon="-1.810716"><ele>513</ele><time>2020-08-05T09:35:16Z</time><name>PT703</name></trkpt>
<trkpt lat="53.348826" lon="-1.810706"><ele>512</ele><time>2020-08-05T09:35:17Z</time><name>PT704</name></trkpt>
<trkpt lat="53.348831" lon="-1.810694"><ele>512</ele><time>2020-08-05T09:35:18Z</time><name>PT705</name></trkpt>
<trkpt lat="53.348837" lon="-1.810681"><ele>513</ele><time>2020-08-05T09:35:19Z</time><name>PT706</name></trkpt>
<trkpt lat="53.348844" lon="-1.810667"><ele>513</ele><time>2020-08-05T09:35:20Z</time><name>PT707</name></trkpt>
<trkpt lat="53.348850" lon="-1.810656"><ele>513</ele><time>2020-08-05T09:35:21Z</time><name>PT708</name></trkpt>
<trkpt lat="53.348857" lon="-1.810640"><ele>513</ele><time>2020-08-05T09:35:22Z</time><name>PT709</name></trkpt>
<trkpt lat="53.348864" lon="-1.810626"><ele>513</ele><time>2020-08-05T09:35:23Z</time><name>PT710</name></trkpt>
<trkpt lat="53.348871" lon="-1.810612"><ele>514</ele><time>2020-08-05T09:35:24Z</time><name>PT711</name></trkpt>
<trkpt lat="53.348878" lon="-1.810597"><ele>514</ele><time>2020-08-05T09:35:25Z</time><name>PT712</name></trkpt>
<trkpt lat="53.348884" lon="-1.810579"><ele>514</ele><time>2020-08-05T09:35:26Z</time><name>PT713</name></trkpt>
<trkpt lat="53.348890" lon="-1.810565"><ele>514</ele><time>2020-08-05T09:35:27Z</time><name>PT714</name></trkpt>
<trkpt lat="53.348898" lon="-1.810550"><ele>514</ele><time>2020-08-05T09:35:28Z</time><name>PT715</name></trkpt>
<trkpt lat="53.348904" lon="-1.810538"><ele>515</ele><time>2020-08-05T09:35:29Z</time><name>PT716</name></trkpt>
<trkpt lat="53.348913" lon="-1.810522"><ele>515</ele><time>2020-08-05T09:35:30Z</time><name>PT717</name></trkpt>
<trkpt lat="53.348920" lon="-1.810508"><ele>515</ele><time>2020-08-05T09:35:31Z</time><name>PT718</name></trkpt>
<trkpt lat="53.348928" lon="-1.810494"><ele>515</ele><time>2020-08-05T09:35:32Z</time><name>PT719</name></trkpt>
<trkpt lat="53.348934" lon="-1.810480"><ele>515</ele><time>2020-08-05T09:35:33Z</time><name>PT720</name></trkpt>
<trkpt lat="53.348942" lon="-1.810463"><ele>514</ele><time>2020-08-05T09:35:34Z</time><name>PT721</name></trkpt>
<trkpt lat="53.348950" lon="-1.810446"><ele>514</ele><time>2020-08-05T09:35:35Z</time><name>PT722</name></trkpt>
<trkpt lat="53.348957" lon="-1.810431"><ele>514</ele><time>2020-08-05T09:35:36Z</time><name>PT723</name></trkpt>
<trkpt lat="53.348963" lon="-1.810417"><ele>514</ele><time>2020-08-05T09:35:37Z</time><name>PT724</name></trkpt>
<trkpt lat="53.348969" lon="-1.810401"><ele>514</ele><time>2020-08-05T09:35:38Z</time><name>PT725</name></trkpt>
<trkpt lat="53.348975" lon="-1.810386"><ele>514</ele><time>2020-08-05T09:35:39Z</time><name>PT726</name></trkpt>
<trkpt lat="53.348982" lon="-1.810369"><ele>514</ele><time>2020-08-05T09:35:40Z</time><name>PT727</name></trkpt>
<trkpt lat="53.348991" lon="-1.810351"><ele>514</ele><time>2020-08-05T09:35:41Z</time><name>PT728</name></trkpt>
<trkpt lat="53.348995" lon="-1.810339"><ele>514</ele><time>2020-08-05T09:35:42Z</time><name>PT729</name></trkpt>
<trkpt lat="53.349003" lon="-1.810321"><ele>514</ele><time>2020-08-05T09:35:43Z</time><name>PT730</name></trkpt>
<trkpt lat="53.349010" lon="-1.810305"><ele>514</ele><time>2020-08-05T09:35:44Z</time><name>PT731</name></trkpt>
<trkpt lat="53.349017" lon="-1.810288"><ele>514</ele><time>2020-08-05T09:35:45Z</time><name>PT732</name></trkpt>
<trkpt lat="53.349022" lon="-1.810271"><ele>515</ele><time>2020-08-05T09:35:46Z</time><name>PT733</name></trkpt>
<trkpt lat="53.349030" lon="-1.810258"><ele>515</ele><time>2020-08-05T09:35:47Z</time><name>PT734</name></trkpt>
<trkpt lat="53.349036" lon="-1.810244"><ele>515</ele><time>2020-08-05T09:35:48Z</time><name>PT735</name></trkpt>
<trkpt lat="53.349042" lon="-1.810225"><ele>516</ele><time>2020-08-05T09:35:49Z</time><name>PT736</name></trkpt>
<trkpt lat="53.349048" lon="-1.810210"><ele>516</ele><time>2020-08-05T09:35:50Z</time><name>PT737</name></trkpt>
<trkpt lat="53.349053" lon="-1.810196"><ele>516</ele><time>2020-08-05T09:35:51Z</time><name>PT738</name></trkpt>
<trkpt lat="53.349055" lon="-1.810186"><ele>517</ele><time>2020-08-05T09:35:52Z</time><name>PT739</name></trkpt>
<trkpt lat="53.349060" lon="-1.810167"><ele>517</ele><time>2020-08-05T09:35:53Z</time><name>PT740</name></trkpt>
<trkpt lat="53.349065" lon="-1.810154"><ele>517</ele><time>2020-08-05T09:35:54Z</time><name>PT741</name></trkpt>
<trkpt lat="53.349070" lon="-1.810138"><ele>517</ele><time>2020-08-05T09:35:55Z</time><name>PT742</name></trkpt>
<trkpt lat="53.349076" lon="-1.810124"><ele>517</ele><time>2020-08-05T09:35:56Z</time><name>PT743</name></trkpt>
<trkpt lat="53.349080" lon="-1.810114"><ele>518</ele><time>2020-08-05T09:35:57Z</time><name>PT744</name></trkpt>
<trkpt lat="53.349084" lon="-1.810097"><ele>518</ele><time>2020-08-05T09:35:58Z</time><name>PT745</name></trkpt>
<trkpt lat="53.349089" lon="-1.810083"><ele>518</ele><time>2020-08-05T09:35:59Z</time><name>PT746</name></trkpt>
<trkpt lat="53.349096" lon="-1.810066"><ele>519</ele><time>2020-08-05T09:36:00Z</time><name>PT747</name></trkpt>
<trkpt lat="53.349102" lon="-1.810055"><ele>518</ele><time>2020-08-05T09:36:01Z</time><name>PT748</name></trkpt>
<trkpt lat="53.349105" lon="-1.810042"><ele>518</ele><time>2020-08-05T09:36:02Z</time><name>PT749</name></trkpt>
<trkpt lat="53.349111" lon="-1.810026"><ele>519</ele><time>2020-08-05T09:36:03Z</time><name>PT750</name></trkpt>
<trkpt lat="53.349118" lon="-1.810003"><ele>519</ele><time>2020-08-05T09:36:04Z</time><name>PT751</name></trkpt>
<trkpt lat="53.349124" lon="-1.809990"><ele>519</ele><time>2020-08-05T09:36:05Z</time><name>PT752</name></trkpt>
<trkpt lat="53.349131" lon="-1.809970"><ele>520</ele><time>2020-08-05T09:36:06Z</time><name>PT753</name></trkpt>
<trkpt lat="53.349140" lon="-1.809954"><ele>520</ele><time>2020-08-05T09:36:07Z</time><name>PT754</name></trkpt>
<trkpt lat="53.349144" lon="-1.809943"><ele>521</ele><time>2020-08-05T09:36:08Z</time><name>PT755</name></trkpt>
<trkpt lat="53.349150" lon="-1.809933"><ele>521</ele><time>2020-08-05T09:36:09Z</time><name>PT756</name></trkpt>
<trkpt lat="53.349158" lon="-1.809921"><ele>521</ele><time>2020-08-05T09:36:10Z</time><name>PT757</name></trkpt>
<trkpt lat="53.349166" lon="-1.809905"><ele>521</ele><time>2020-08-05T09:36:11Z</time><name>PT758</name></trkpt>
<trkpt lat="53.349175" lon="-1.809889"><ele>521</ele><time>2020-08-05T09:36:12Z</time><name>PT759</name></trkpt>
<trkpt lat="53.349183" lon="-1.809869"><ele>521</ele><time>2020-08-05T09:36:13Z</time><name>PT760</name></trkpt>
<trkpt lat="53.349190" lon="-1.809855"><ele>521</ele><time>2020-08-05T09:36:14Z</time><name>PT761</name></trkpt>
<trkpt lat="53.349200" lon="-1.809840"><ele>521</ele><time>2020-08-05T09:36:15Z</time><name>PT762</name></trkpt>
<trkpt lat="53.349207" lon="-1.809824"><ele>521</ele><time>2020-08-05T09:36:16Z</time><name>PT763</name></trkpt>
<trkpt lat="53.349215" lon="-1.809808"><ele>522</ele><time>2020-08-05T09:36:17Z</time><name>PT764</name></trkpt>
<trkpt lat="53.349220" lon="-1.809796"><ele>522</ele><time>2020-08-05T09:36:18Z</time><name>PT765</name></trkpt>
<trkpt lat="53.349228" lon="-1.809780"><ele>522</ele><time>2020-08-05T09:36:19Z</time><name>PT766</name></trkpt>
<trkpt lat="53.349235" lon="-1.809766"><ele>522</ele><time>2020-08-05T09:36:20Z</time><name>PT767</name></trkpt>
<trkpt lat="53.349240" lon="-1.809752"><ele>522</ele><time>2020-08-05T09:36:21Z</time><name>PT768</name></trkpt>
<trkpt lat="53.349246" lon="-1.809739"><ele>522</ele><time>2020-08-05T09:36:22Z</time><name>PT769</name></trkpt>
<trkpt lat="53.349252" lon="-1.809725"><ele>522</ele><time>2020-08-05T09:36:23Z</time><name>PT770</name></trkpt>
<trkpt lat="53.349258" lon="-1.809716"><ele>522</ele><time>2020-08-05T09:36:24Z</time><name>PT771</name></trkpt>
<trkpt lat="53.349271" lon="-1.809705"><ele>522</ele><time>2020-08-05T09:36:25Z</time><name>PT772</name></trkpt>
<trkpt lat="53.349279" lon="-1.809706"><ele>522</ele><time>2020-08-05T09:36:26Z</time><name>PT773</name></trkpt>
<trkpt lat="53.349280" lon="-1.809705"><ele>522</ele><time>2020-08-05T09:36:27Z</time><name>PT774</name></trkpt>
<trkpt lat="53.349281" lon="-1.809702"><ele>522</ele><time>2020-08-05T09:36:28Z</time><name>PT775</name></trkpt>
<trkpt lat="53.349281" lon="-1.809700"><ele>522</ele><time>2020-08-05T09:36:29Z</time><name>PT776</name></trkpt>
<trkpt lat="53.349284" lon="-1.809701"><ele>522</ele><time>2020-08-05T09:36:30Z</time><name>PT777</name></trkpt>
<trkpt lat="53.349285" lon="-1.809703"><ele>522</ele><time>2020-08-05T09:36:31Z</time><name>PT778</name></trkpt>
<trkpt lat="53.349290" lon="-1.809698"><ele>522</ele><time>2020-08-05T09:36:32Z</time><name>PT779</name></trkpt>
<trkpt lat="53.349288" lon="-1.809701"><ele>522</ele><time>2020-08-05T09:36:33Z</time><name>PT780</name></trkpt>
<trkpt lat="53.349288" lon="-1.809701"><ele>522</ele><time>2020-08-05T09:36:34Z</time><name>PT781</name></trkpt>
<trkpt lat="53.349288" lon="-1.809702"><ele>522</ele><time>2020-08-05T09:36:35Z</time><name>PT782</name></trkpt>
<trkpt lat="53.349288" lon="-1.809702"><ele>522</ele><time>2020-08-05T09:36:36Z</time><name>PT783</name></trkpt>
<trkpt lat="53.349286" lon="-1.809702"><ele>521</ele><time>2020-08-05T09:37:21Z</time><name>PT784</name></trkpt>
<trkpt lat="53.349292" lon="-1.809682"><ele>521</ele><time>2020-08-05T09:37:22Z</time><name>PT785</name></trkpt>
<trkpt lat="53.349297" lon="-1.809673"><ele>521</ele><time>2020-08-05T09:37:23Z</time><name>PT786</name></trkpt>
<trkpt lat="53.349304" lon="-1.809660"><ele>521</ele><time>2020-08-05T09:37:24Z</time><name>PT787</name></trkpt>
<trkpt lat="53.349309" lon="-1.809652"><ele>521</ele><time>2020-08-05T09:37:25Z</time><name>PT788</name></trkpt>
<trkpt lat="53.349310" lon="-1.809649"><ele>521</ele><time>2020-08-05T09:37:26Z</time><name>PT789</name></trkpt>
<trkpt lat="53.349310" lon="-1.809643"><ele>521</ele><time>2020-08-05T09:37:27Z</time><name>PT790</name></trkpt>
<trkpt lat="53.349311" lon="-1.809637"><ele>522</ele><time>2020-08-05T09:37:29Z</time><name>PT791</name></trkpt>
<trkpt lat="53.349310" lon="-1.809634"><ele>522</ele><time>2020-08-05T09:37:30Z</time><name>PT792</name></trkpt>
<trkpt lat="53.349309" lon="-1.809632"><ele>522</ele><time>2020-08-05T09:37:31Z</time><name>PT793</name></trkpt>
<trkpt lat="53.349309" lon="-1.809633"><ele>522</ele><time>2020-08-05T09:37:32Z</time><name>PT794</name></trkpt>
<trkpt lat="53.349309" lon="-1.809631"><ele>522</ele><time>2020-08-05T09:37:33Z</time><name>PT795</name></trkpt>
<trkpt lat="53.349308" lon="-1.809627"><ele>522</ele><time>2020-08-05T09:37:34Z</time><name>PT796</name></trkpt>
<trkpt lat="53.349310" lon="-1.809621"><ele>522</ele><time>2020-08-05T09:37:54Z</time><name>PT797</name></trkpt>
<trkpt lat="53.349318" lon="-1.809606"><ele>522</ele><time>2020-08-05T09:37:55Z</time><name>PT798</name></trkpt>
<trkpt lat="53.349328" lon="-1.809597"><ele>522</ele><time>2020-08-05T09:37:56Z</time><name>PT799</name></trkpt>
<trkpt lat="53.349342" lon="-1.809585"><ele>522</ele><time>2020-08-05T09:37:57Z</time><name>PT800</name></trkpt>
<trkpt lat="53.349352" lon="-1.809573"><ele>522</ele><time>2020-08-05T09:37:58Z</time><name>PT801</name></trkpt>
<trkpt lat="53.349364" lon="-1.809569"><ele>522</ele><time>2020-08-05T09:37:59Z</time><name>PT802</name></trkpt>
<trkpt lat="53.349376" lon="-1.809564"><ele>522</ele><time>2020-08-05T09:38:00Z</time><name>PT803</name></trkpt>
<trkpt lat="53.349390" lon="-1.809557"><ele>522</ele><time>2020-08-05T09:38:01Z</time><name>PT804</name></trkpt>
<trkpt lat="53.349400" lon="-1.809550"><ele>521</ele><time>2020-08-05T09:38:02Z</time><name>PT805</name></trkpt>
<trkpt lat="53.349407" lon="-1.809542"><ele>521</ele><time>2020-08-05T09:38:03Z</time><name>PT806</name></trkpt>
<trkpt lat="53.349414" lon="-1.809531"><ele>521</ele><time>2020-08-05T09:38:04Z</time><name>PT807</name></trkpt>
<trkpt lat="53.349423" lon="-1.809526"><ele>520</ele><time>2020-08-05T09:38:05Z</time><name>PT808</name></trkpt>
<trkpt lat="53.349437" lon="-1.809518"><ele>520</ele><time>2020-08-05T09:38:06Z</time><name>PT809</name></trkpt>
<trkpt lat="53.349450" lon="-1.809504"><ele>520</ele><time>2020-08-05T09:38:07Z</time><name>PT810</name></trkpt>
<trkpt lat="53.349460" lon="-1.809497"><ele>520</ele><time>2020-08-05T09:38:08Z</time><name>PT811</name></trkpt>
<trkpt lat="53.349474" lon="-1.809487"><ele>521</ele><time>2020-08-05T09:38:09Z</time><name>PT812</name></trkpt>
<trkpt lat="53.349486" lon="-1.809482"><ele>520</ele><time>2020-08-05T09:38:10Z</time><name>PT813</name></trkpt>
<trkpt lat="53.349498" lon="-1.809478"><ele>520</ele><time>2020-08-05T09:38:11Z</time><name>PT814</name></trkpt>
<trkpt lat="53.349512" lon="-1.809474"><ele>520</ele><time>2020-08-05T09:38:12Z</time><name>PT815</name></trkpt>
<trkpt lat="53.349523" lon="-1.809468"><ele>519</ele><time>2020-08-05T09:38:13Z</time><name>PT816</name></trkpt>
<trkpt lat="53.349545" lon="-1.809455"><ele>521</ele><time>2020-08-05T09:38:14Z</time><name>PT817</name></trkpt>
<trkpt lat="53.349558" lon="-1.809447"><ele>522</ele><time>2020-08-05T09:38:15Z</time><name>PT818</name></trkpt>
<trkpt lat="53.349571" lon="-1.809441"><ele>522</ele><time>2020-08-05T09:38:16Z</time><name>PT819</name></trkpt>
<trkpt lat="53.349582" lon="-1.809433"><ele>521</ele><time>2020-08-05T09:38:17Z</time><name>PT820</name></trkpt>
<trkpt lat="53.349592" lon="-1.809425"><ele>521</ele><time>2020-08-05T09:38:18Z</time><name>PT821</name></trkpt>
<trkpt lat="53.349600" lon="-1.809418"><ele>521</ele><time>2020-08-05T09:38:19Z</time><name>PT822</name></trkpt>
<trkpt lat="53.349608" lon="-1.809412"><ele>521</ele><time>2020-08-05T09:38:20Z</time><name>PT823</name></trkpt>
<trkpt lat="53.349616" lon="-1.809407"><ele>520</ele><time>2020-08-05T09:38:21Z</time><name>PT824</name></trkpt>
<trkpt lat="53.349620" lon="-1.809407"><ele>520</ele><time>2020-08-05T09:38:22Z</time><name>PT825</name></trkpt>
<trkpt lat="53.349622" lon="-1.809407"><ele>520</ele><time>2020-08-05T09:38:23Z</time><name>PT826</name></trkpt>
<trkpt lat="53.349625" lon="-1.809408"><ele>520</ele><time>2020-08-05T09:38:24Z</time><name>PT827</name></trkpt>
<trkpt lat="53.349624" lon="-1.809406"><ele>519</ele><time>2020-08-05T09:38:25Z</time><name>PT828</name></trkpt>
<trkpt lat="53.349625" lon="-1.809391"><ele>519</ele><time>2020-08-05T09:38:42Z</time><name>PT829</name></trkpt>
<trkpt lat="53.349637" lon="-1.809375"><ele>519</ele><time>2020-08-05T09:38:43Z</time><name>PT830</name></trkpt>
<trkpt lat="53.349651" lon="-1.809360"><ele>519</ele><time>2020-08-05T09:38:44Z</time><name>PT831</name></trkpt>
<trkpt lat="53.349660" lon="-1.809342"><ele>519</ele><time>2020-08-05T09:38:45Z</time><name>PT832</name></trkpt>
<trkpt lat="53.349675" lon="-1.809335"><ele>519</ele><time>2020-08-05T09:38:46Z</time><name>PT833</name></trkpt>
<trkpt lat="53.349688" lon="-1.809333"><ele>519</ele><time>2020-08-05T09:38:47Z</time><name>PT834</name></trkpt>
<trkpt lat="53.349700" lon="-1.809328"><ele>519</ele><time>2020-08-05T09:38:48Z</time><name>PT835</name></trkpt>
<trkpt lat="53.349712" lon="-1.809322"><ele>518</ele><time>2020-08-05T09:38:49Z</time><name>PT836</name></trkpt>
<trkpt lat="53.349722" lon="-1.809315"><ele>518</ele><time>2020-08-05T09:38:50Z</time><name>PT837</name></trkpt>
<trkpt lat="53.349735" lon="-1.809311"><ele>518</ele><time>2020-08-05T09:38:51Z</time><name>PT838</name></trkpt>
<trkpt lat="53.349747" lon="-1.809299"><ele>518</ele><time>2020-08-05T09:38:52Z</time><name>PT839</name></trkpt>
<trkpt lat="53.349761" lon="-1.809289"><ele>518</ele><time>2020-08-05T09:38:53Z</time><name>PT840</name></trkpt>
<trkpt lat="53.349776" lon="-1.809283"><ele>517</ele><time>2020-08-05T09:38:54Z</time><name>PT841</name></trkpt>
<trkpt lat="53.349790" lon="-1.809279"><ele>517</ele><time>2020-08-05T09:38:55Z</time><name>PT842</name></trkpt>
<trkpt lat="53.349805" lon="-1.809277"><ele>517</ele><time>2020-08-05T09:38:56Z</time><name>PT843</name></trkpt>
<trkpt lat="53.349820" lon="-1.809269"><ele>517</ele><time>2020-08-05T09:38:57Z</time><name>PT844</name></trkpt>
<trkpt lat="53.349836" lon="-1.809263"><ele>516</ele><time>2020-08-05T09:38:58Z</time><name>PT845</name></trkpt>
<trkpt lat="53.349850" lon="-1.809263"><ele>516</ele><time>2020-08-05T09:38:59Z</time><name>PT846</name></trkpt>
<trkpt lat="53.349863" lon="-1.809258"><ele>516</ele><time>2020-08-05T09:39:00Z</time><name>PT847</name></trkpt>
<trkpt lat="53.349878" lon="-1.809252"><ele>516</ele><time>2020-08-05T09:39:01Z</time><name>PT848</name></trkpt>
<trkpt lat="53.349890" lon="-1.809240"><ele>515</ele><time>2020-08-05T09:39:02Z</time><name>PT849</name></trkpt>
<trkpt lat="53.349902" lon="-1.809227"><ele>515</ele><time>2020-08-05T09:39:03Z</time><name>PT850</name></trkpt>
<trkpt lat="53.349914" lon="-1.809215"><ele>514</ele><time>2020-08-05T09:39:04Z</time><name>PT851</name></trkpt>
<trkpt lat="53.349923" lon="-1.809202"><ele>514</ele><time>2020-08-05T09:39:05Z</time><name>PT852</name></trkpt>
<trkpt lat="53.349931" lon="-1.809191"><ele>514</ele><time>2020-08-05T09:39:06Z</time><name>PT853</name></trkpt>
<trkpt lat="53.349942" lon="-1.809182"><ele>514</ele><time>2020-08-05T09:39:07Z</time><name>PT854</name></trkpt>
<trkpt lat="53.349954" lon="-1.809171"><ele>514</ele><time>2020-08-05T09:39:08Z</time><name>PT855</name></trkpt>
<trkpt lat="53.349965" lon="-1.809165"><ele>514</ele><time>2020-08-05T09:39:09Z</time><name>PT856</name></trkpt>
<trkpt lat="53.349979" lon="-1.809162"><ele>514</ele><time>2020-08-05T09:39:10Z</time><name>PT857</name></trkpt>
<trkpt lat="53.349993" lon="-1.809160"><ele>514</ele><time>2020-08-05T09:39:11Z</time><name>PT858</name></trkpt>
<trkpt lat="53.350005" lon="-1.809157"><ele>514</ele><time>2020-08-05T09:39:12Z</time><name>PT859</name></trkpt>
<trkpt lat="53.350017" lon="-1.809155"><ele>514</ele><time>2020-08-05T09:39:13Z</time><name>PT860</name></trkpt>
<trkpt lat="53.350031" lon="-1.809148"><ele>514</ele><time>2020-08-05T09:39:14Z</time><name>PT861</name></trkpt>
<trkpt lat="53.350043" lon="-1.809144"><ele>514</ele><time>2020-08-05T09:39:15Z</time><name>PT862</name></trkpt>
<trkpt lat="53.350056" lon="-1.809142"><ele>514</ele><time>2020-08-05T09:39:16Z</time><name>PT863</name></trkpt>
<trkpt lat="53.350069" lon="-1.809136"><ele>514</ele><time>2020-08-05T09:39:17Z</time><name>PT864</name></trkpt>
<trkpt lat="53.350077" lon="-1.809133"><ele>514</ele><time>2020-08-05T09:39:18Z</time><name>PT865</name></trkpt>
<trkpt lat="53.350088" lon="-1.809128"><ele>513</ele><time>2020-08-05T09:39:19Z</time><name>PT866</name></trkpt>
<trkpt lat="53.350098" lon="-1.809126"><ele>513</ele><time>2020-08-05T09:39:20Z</time><name>PT867</name></trkpt>
<trkpt lat="53.350110" lon="-1.809125"><ele>512</ele><time>2020-08-05T09:39:21Z</time><name>PT868</name></trkpt>
<trkpt lat="53.350122" lon="-1.809124"><ele>512</ele><time>2020-08-05T09:39:22Z</time><name>PT869</name></trkpt>
<trkpt lat="53.350135" lon="-1.809120"><ele>513</ele><time>2020-08-05T09:39:23Z</time><name>PT870</name></trkpt>
<trkpt lat="53.350145" lon="-1.809119"><ele>512</ele><time>2020-08-05T09:39:24Z</time><name>PT871</name></trkpt>
<trkpt lat="53.350155" lon="-1.809114"><ele>512</ele><time>2020-08-05T09:39:25Z</time><name>PT872</name></trkpt>
<trkpt lat="53.350166" lon="-1.809109"><ele>512</ele><time>2020-08-05T09:39:26Z</time><name>PT873</name></trkpt>
<trkpt lat="53.350178" lon="-1.809104"><ele>512</ele><time>2020-08-05T09:39:27Z</time><name>PT874</name></trkpt>
<trkpt lat="53.350194" lon="-1.809100"><ele>512</ele><time>2020-08-05T09:39:28Z</time><name>PT875</name></trkpt>
<trkpt lat="53.350206" lon="-1.809097"><ele>511</ele><time>2020-08-05T09:39:29Z</time><name>PT876</name></trkpt>
<trkpt lat="53.350217" lon="-1.809091"><ele>511</ele><time>2020-08-05T09:39:30Z</time><name>PT877</name></trkpt>
<trkpt lat="53.350229" lon="-1.809086"><ele>511</ele><time>2020-08-05T09:39:31Z</time><name>PT878</name></trkpt>
<trkpt lat="53.350240" lon="-1.809083"><ele>510</ele><time>2020-08-05T09:39:32Z</time><name>PT879</name></trkpt>
<trkpt lat="53.350252" lon="-1.809076"><ele>510</ele><time>2020-08-05T09:39:33Z</time><name>PT880</name></trkpt>
<trkpt lat="53.350265" lon="-1.809069"><ele>511</ele><time>2020-08-05T09:39:34Z</time><name>PT881</name></trkpt>
<trkpt lat="53.350276" lon="-1.809062"><ele>510</ele><time>2020-08-05T09:39:35Z</time><name>PT882</name></trkpt>
<trkpt lat="53.350286" lon="-1.809055"><ele>510</ele><time>2020-08-05T09:39:36Z</time><name>PT883</name></trkpt>
<trkpt lat="53.350301" lon="-1.809049"><ele>511</ele><time>2020-08-05T09:39:37Z</time><name>PT884</name></trkpt>
<trkpt lat="53.350315" lon="-1.809040"><ele>511</ele><time>2020-08-05T09:39:38Z</time><name>PT885</name></trkpt>
<trkpt lat="53.350326" lon="-1.809035"><ele>511</ele><time>2020-08-05T09:39:39Z</time><name>PT886</name></trkpt>
<trkpt lat="53.350335" lon="-1.809035"><ele>511</ele><time>2020-08-05T09:39:40Z</time><name>PT887</name></trkpt>
<trkpt lat="53.350346" lon="-1.809031"><ele>511</ele><time>2020-08-05T09:39:41Z</time><name>PT888</name></trkpt>
<trkpt lat="53.350356" lon="-1.809022"><ele>511</ele><time>2020-08-05T09:39:42Z</time><name>PT889</name></trkpt>
<trkpt lat="53.350362" lon="-1.809020"><ele>510</ele><time>2020-08-05T09:39:43Z</time><name>PT890</name></trkpt>
<trkpt lat="53.350369" lon="-1.809021"><ele>510</ele><time>2020-08-05T09:39:44Z</time><name>PT891</name></trkpt>
<trkpt lat="53.350374" lon="-1.809017"><ele>510</ele><time>2020-08-05T09:39:45Z</time><name>PT892</name></trkpt>
<trkpt lat="53.350375" lon="-1.809017"><ele>510</ele><time>2020-08-05T09:39:46Z</time><name>PT893</name></trkpt>
<trkpt lat="53.350373" lon="-1.809022"><ele>509</ele><time>2020-08-05T09:39:47Z</time><name>PT894</name></trkpt>
<trkpt lat="53.350374" lon="-1.809024"><ele>509</ele><time>2020-08-05T09:39:48Z</time><name>PT895</name></trkpt>
<trkpt lat="53.350380" lon="-1.809018"><ele>509</ele><time>2020-08-05T09:39:52Z</time><name>PT896</name></trkpt>
<trkpt lat="53.350393" lon="-1.809014"><ele>509</ele><time>2020-08-05T09:39:53Z</time><name>PT897</name></trkpt>
<trkpt lat="53.350403" lon="-1.809021"><ele>508</ele><time>2020-08-05T09:39:54Z</time><name>PT898</name></trkpt>
<trkpt lat="53.350415" lon="-1.809019"><ele>508</ele><time>2020-08-05T09:39:55Z</time><name>PT899</name></trkpt>
<trkpt lat="53.350426" lon="-1.809017"><ele>508</ele><time>2020-08-05T09:39:56Z</time><name>PT900</name></trkpt>
<trkpt lat="53.350439" lon="-1.809013"><ele>508</ele><time>2020-08-05T09:39:57Z</time><name>PT901</name></trkpt>
<trkpt lat="53.350455" lon="-1.809008"><ele>508</ele><time>2020-08-05T09:39:58Z</time><name>PT902</name></trkpt>
<trkpt lat="53.350468" lon="-1.809004"><ele>508</ele><time>2020-08-05T09:39:59Z</time><name>PT903</name></trkpt>
<trkpt lat="53.350477" lon="-1.808998"><ele>508</ele><time>2020-08-05T09:40:00Z</time><name>PT904</name></trkpt>
<trkpt lat="53.350487" lon="-1.808989"><ele>508</ele><time>2020-08-05T09:40:01Z</time><name>PT905</name></trkpt>
<trkpt lat="53.350499" lon="-1.808986"><ele>507</ele><time>2020-08-05T09:40:02Z</time><name>PT906</name></trkpt>
<trkpt lat="53.350511" lon="-1.808981"><ele>507</ele><time>2020-08-05T09:40:03Z</time><name>PT907</name></trkpt>
<trkpt lat="53.350524" lon="-1.808970"><ele>507</ele><time>2020-08-05T09:40:04Z</time><name>PT908</name></trkpt>
<trkpt lat="53.350536" lon="-1.808965"><ele>507</ele><time>2020-08-05T09:40:05Z</time><name>PT909</name></trkpt>
<trkpt lat="53.350547" lon="-1.808962"><ele>506</ele><time>2020-08-05T09:40:06Z</time><name>PT910</name></trkpt>
<trkpt lat="53.350558" lon="-1.808959"><ele>506</ele><time>2020-08-05T09:40:07Z</time><name>PT911</name></trkpt>
<trkpt lat="53.350569" lon="-1.808953"><ele>506</ele><time>2020-08-05T09:40:08Z</time><name>PT912</name></trkpt>
<trkpt lat="53.350581" lon="-1.808949"><ele>506</ele><time>2020-08-05T09:40:09Z</time><name>PT913</name></trkpt>
<trkpt lat="53.350590" lon="-1.808950"><ele>505</ele><time>2020-08-05T09:40:10Z</time><name>PT914</name></trkpt>
<trkpt lat="53.350600" lon="-1.808942"><ele>505</ele><time>2020-08-05T09:40:11Z</time><name>PT915</name></trkpt>
<trkpt lat="53.350609" lon="-1.808934"><ele>504</ele><time>2020-08-05T09:40:12Z</time><name>PT916</name></trkpt>
<trkpt lat="53.350618" lon="-1.808927"><ele>504</ele><time>2020-08-05T09:40:13Z</time><name>PT917</name></trkpt>
<trkpt lat="53.350630" lon="-1.808917"><ele>504</ele><time>2020-08-05T09:40:14Z</time><name>PT918</name></trkpt>
<trkpt lat="53.350643" lon="-1.808908"><ele>504</ele><time>2020-08-05T09:40:15Z</time><name>PT919</name></trkpt>
<trkpt lat="53.350654" lon="-1.808900"><ele>504</ele><time>2020-08-05T09:40:16Z</time><name>PT920</name></trkpt>
<trkpt lat="53.350666" lon="-1.808891"><ele>504</ele><time>2020-08-05T09:40:17Z</time><name>PT921</name></trkpt>
<trkpt lat="53.350676" lon="-1.808882"><ele>504</ele><time>2020-08-05T09:40:18Z</time><name>PT922</name></trkpt>
<trkpt lat="53.350686" lon="-1.808875"><ele>504</ele><time>2020-08-05T09:40:19Z</time><name>PT923</name></trkpt>
<trkpt lat="53.350695" lon="-1.808868"><ele>503</ele><time>2020-08-05T09:40:20Z</time><name>PT924</name></trkpt>
<trkpt lat="53.350706" lon="-1.808857"><ele>504</ele><time>2020-08-05T09:40:21Z</time><name>PT925</name></trkpt>
<trkpt lat="53.350715" lon="-1.808858"><ele>503</ele><time>2020-08-05T09:40:22Z</time><name>PT926</name></trkpt>
<trkpt lat="53.350724" lon="-1.808854"><ele>503</ele><time>2020-08-05T09:40:23Z</time><name>PT927</name></trkpt>
<trkpt lat="53.350733" lon="-1.808849"><ele>503</ele><time>2020-08-05T09:40:24Z</time><name>PT928</name></trkpt>
<trkpt lat="53.350744" lon="-1.808841"><ele>503</ele><time>2020-08-05T09:40:25Z</time><name>PT929</name></trkpt>
<trkpt lat="53.350757" lon="-1.808827"><ele>503</ele><time>2020-08-05T09:40:26Z</time><name>PT930</name></trkpt>
<trkpt lat="53.350769" lon="-1.808817"><ele>503</ele><time>2020-08-05T09:40:27Z</time><name>PT931</name></trkpt>
<trkpt lat="53.350779" lon="-1.808811"><ele>502</ele><time>2020-08-05T09:40:28Z</time><name>PT932</name></trkpt>
<trkpt lat="53.350790" lon="-1.808804"><ele>502</ele><time>2020-08-05T09:40:29Z</time><name>PT933</name></trkpt>
<trkpt lat="53.350803" lon="-1.808796"><ele>502</ele><time>2020-08-05T09:40:30Z</time><name>PT934</name></trkpt>
<trkpt lat="53.350812" lon="-1.808787"><ele>502</ele><time>2020-08-05T09:40:31Z</time><name>PT935</name></trkpt>
<trkpt lat="53.350818" lon="-1.808785"><ele>501</ele><time>2020-08-05T09:40:32Z</time><name>PT936</name></trkpt>
<trkpt lat="53.350824" lon="-1.808777"><ele>500</ele><time>2020-08-05T09:40:33Z</time><name>PT937</name></trkpt>
<trkpt lat="53.350834" lon="-1.808769"><ele>500</ele><time>2020-08-05T09:40:34Z</time><name>PT938</name></trkpt>
<trkpt lat="53.350843" lon="-1.808763"><ele>500</ele><time>2020-08-05T09:40:35Z</time><name>PT939</name></trkpt>
<trkpt lat="53.350853" lon="-1.808758"><ele>499</ele><time>2020-08-05T09:40:36Z</time><name>PT940</name></trkpt>
<trkpt lat="53.350866" lon="-1.808750"><ele>499</ele><time>2020-08-05T09:40:37Z</time><name>PT941</name></trkpt>
<trkpt lat="53.350881" lon="-1.808741"><ele>499</ele><time>2020-08-05T09:40:38Z</time><name>PT942</name></trkpt>
<trkpt lat="53.350891" lon="-1.808737"><ele>499</ele><time>2020-08-05T09:40:39Z</time><name>PT943</name></trkpt>
<trkpt lat="53.350903" lon="-1.808736"><ele>499</ele><time>2020-08-05T09:40:40Z</time><name>PT944</name></trkpt>
<trkpt lat="53.350915" lon="-1.808732"><ele>499</ele><time>2020-08-05T09:40:41Z</time><name>PT945</name></trkpt>
<trkpt lat="53.350925" lon="-1.808726"><ele>499</ele><time>2020-08-05T09:40:42Z</time><name>PT946</name></trkpt>
<trkpt lat="53.350936" lon="-1.808721"><ele>498</ele><time>2020-08-05T09:40:43Z</time><name>PT947</name></trkpt>
<trkpt lat="53.350947" lon="-1.808714"><ele>498</ele><time>2020-08-05T09:40:44Z</time><name>PT948</name></trkpt>
<trkpt lat="53.350959" lon="-1.808707"><ele>498</ele><time>2020-08-05T09:40:45Z</time><name>PT949</name></trkpt>
<trkpt lat="53.350972" lon="-1.808699"><ele>498</ele><time>2020-08-05T09:40:46Z</time><name>PT950</name></trkpt>
<trkpt lat="53.350986" lon="-1.808690"><ele>498</ele><time>2020-08-05T09:40:47Z</time><name>PT951</name></trkpt>
<trkpt lat="53.350996" lon="-1.808685"><ele>498</ele><time>2020-08-05T09:40:48Z</time><name>PT952</name></trkpt>
<trkpt lat="53.351006" lon="-1.808683"><ele>498</ele><time>2020-08-05T09:40:49Z</time><name>PT953</name></trkpt>
<trkpt lat="53.351019" lon="-1.808678"><ele>498</ele><time>2020-08-05T09:40:50Z</time><name>PT954</name></trkpt>
<trkpt lat="53.351031" lon="-1.808672"><ele>497</ele><time>2020-08-05T09:40:51Z</time><name>PT955</name></trkpt>
<trkpt lat="53.351042" lon="-1.808666"><ele>497</ele><time>2020-08-05T09:40:52Z</time><name>PT956</name></trkpt>
<trkpt lat="53.351051" lon="-1.808659"><ele>497</ele><time>2020-08-05T09:40:53Z</time><name>PT957</name></trkpt>
<trkpt lat="53.351060" lon="-1.808654"><ele>497</ele><time>2020-08-05T09:40:54Z</time><name>PT958</name></trkpt>
<trkpt lat="53.351072" lon="-1.808647"><ele>498</ele><time>2020-08-05T09:40:55Z</time><name>PT959</name></trkpt>
<trkpt lat="53.351083" lon="-1.808644"><ele>498</ele><time>2020-08-05T09:40:56Z</time><name>PT960</name></trkpt>
<trkpt lat="53.351096" lon="-1.808640"><ele>498</ele><time>2020-08-05T09:40:57Z</time><name>PT961</name></trkpt>
<trkpt lat="53.351107" lon="-1.808636"><ele>498</ele><time>2020-08-05T09:40:58Z</time><name>PT962</name></trkpt>
<trkpt lat="53.351119" lon="-1.808627"><ele>498</ele><time>2020-08-05T09:40:59Z</time><name>PT963</name></trkpt>
<trkpt lat="53.351129" lon="-1.808622"><ele>498</ele><time>2020-08-05T09:41:00Z</time><name>PT964</name></trkpt>
<trkpt lat="53.351141" lon="-1.808615"><ele>498</ele><time>2020-08-05T09:41:01Z</time><name>PT965</name></trkpt>
<trkpt lat="53.351154" lon="-1.808608"><ele>498</ele><time>2020-08-05T09:41:02Z</time><name>PT966</name></trkpt>
<trkpt lat="53.351166" lon="-1.808601"><ele>498</ele><time>2020-08-05T09:41:03Z</time><name>PT967</name></trkpt>
<trkpt lat="53.351176" lon="-1.808597"><ele>498</ele><time>2020-08-05T09:41:04Z</time><name>PT968</name></trkpt>
<trkpt lat="53.351190" lon="-1.808595"><ele>498</ele><time>2020-08-05T09:41:05Z</time><name>PT969</name></trkpt>
<trkpt lat="53.351201" lon="-1.808592"><ele>498</ele><time>2020-08-05T09:41:06Z</time><name>PT970</name></trkpt>
<trkpt lat="53.351211" lon="-1.808590"><ele>498</ele><time>2020-08-05T09:41:07Z</time><name>PT971</name></trkpt>
<trkpt lat="53.351223" lon="-1.808584"><ele>498</ele><time>2020-08-05T09:41:08Z</time><name>PT972</name></trkpt>
<trkpt lat="53.351236" lon="-1.808581"><ele>499</ele><time>2020-08-05T09:41:09Z</time><name>PT973</name></trkpt>
<trkpt lat="53.351248" lon="-1.808577"><ele>499</ele><time>2020-08-05T09:41:10Z</time><name>PT974</name></trkpt>
<trkpt lat="53.351260" lon="-1.808572"><ele>499</ele><time>2020-08-05T09:41:11Z</time><name>PT975</name></trkpt>
<trkpt lat="53.351273" lon="-1.808564"><ele>499</ele><time>2020-08-05T09:41:12Z</time><name>PT976</name></trkpt>
<trkpt lat="53.351284" lon="-1.808559"><ele>499</ele><time>2020-08-05T09:41:13Z</time><name>PT977</name></trkpt>
<trkpt lat="53.351296" lon="-1.808556"><ele>499</ele><time>2020-08-05T09:41:14Z</time><name>PT978</name></trkpt>
<trkpt lat="53.351309" lon="-1.808550"><ele>500</ele><time>2020-08-05T09:41:15Z</time><name>PT979</name></trkpt>
<trkpt lat="53.351320" lon="-1.808541"><ele>500</ele><time>2020-08-05T09:41:16Z</time><name>PT980</name></trkpt>
<trkpt lat="53.351332" lon="-1.808538"><ele>500</ele><time>2020-08-05T09:41:17Z</time><name>PT981</name></trkpt>
<trkpt lat="53.351346" lon="-1.808531"><ele>500</ele><time>2020-08-05T09:41:18Z</time><name>PT982</name></trkpt>
<trkpt lat="53.351359" lon="-1.808525"><ele>500</ele><time>2020-08-05T09:41:19Z</time><name>PT983</name></trkpt>
<trkpt lat="53.351371" lon="-1.808520"><ele>500</ele><time>2020-08-05T09:41:20Z</time><name>PT984</name></trkpt>
<trkpt lat="53.351383" lon="-1.808515"><ele>500</ele><time>2020-08-05T09:41:21Z</time><name>PT985</name></trkpt>
<trkpt lat="53.351396" lon="-1.808509"><ele>500</ele><time>2020-08-05T09:41:22Z</time><name>PT986</name></trkpt>
<trkpt lat="53.351408" lon="-1.808502"><ele>500</ele><time>2020-08-05T09:41:23Z</time><name>PT987</name></trkpt>
<trkpt lat="53.351419" lon="-1.808496"><ele>500</ele><time>2020-08-05T09:41:24Z</time><name>PT988</name></trkpt>
<trkpt lat="53.351431" lon="-1.808493"><ele>500</ele><time>2020-08-05T09:41:25Z</time><name>PT989</name></trkpt>
<trkpt lat="53.351445" lon="-1.808488"><ele>500</ele><time>2020-08-05T09:41:26Z</time><name>PT990</name></trkpt>
<trkpt lat="53.351459" lon="-1.808483"><ele>500</ele><time>2020-08-05T09:41:27Z</time><name>PT991</name></trkpt>
<trkpt lat="53.351472" lon="-1.808476"><ele>500</ele><time>2020-08-05T09:41:28Z</time><name>PT992</name></trkpt>
<trkpt lat="53.351485" lon="-1.808469"><ele>500</ele><time>2020-08-05T09:41:29Z</time><name>PT993</name></trkpt>
<trkpt lat="53.351497" lon="-1.808464"><ele>500</ele><time>2020-08-05T09:41:30Z</time><name>PT994</name></trkpt>
<trkpt lat="53.351510" lon="-1.808457"><ele>500</ele><time>2020-08-05T09:41:31Z</time><name>PT995</name></trkpt>
<trkpt lat="53.351521" lon="-1.808452"><ele>500</ele><time>2020-08-05T09:41:32Z</time><name>PT996</name></trkpt>
<trkpt lat="53.351533" lon="-1.808447"><ele>500</ele><time>2020-08-05T09:41:33Z</time><name>PT997</name></trkpt>
<trkpt lat="53.351548" lon="-1.808441"><ele>500</ele><time>2020-08-05T09:41:34Z</time><name>PT998</name></trkpt>
<trkpt lat="53.351561" lon="-1.808438"><ele>500</ele><time>2020-08-05T09:41:35Z</time><name>PT999</name></trkpt>
<trkpt lat="53.351571" lon="-1.808433"><ele>500</ele><time>2020-08-05T09:41:36Z</time><name>PT1000</name></trkpt>
<trkpt lat="53.351585" lon="-1.808428"><ele>500</ele><time>2020-08-05T09:41:37Z</time><name>PT1001</name></trkpt>
<trkpt lat="53.351595" lon="-1.808429"><ele>500</ele><time>2020-08-05T09:41:38Z</time><name>PT1002</name></trkpt>
<trkpt lat="53.351611" lon="-1.808426"><ele>501</ele><time>2020-08-05T09:41:39Z</time><name>PT1003</name></trkpt>
<trkpt lat="53.351622" lon="-1.808425"><ele>501</ele><time>2020-08-05T09:41:40Z</time><name>PT1004</name></trkpt>
<trkpt lat="53.351636" lon="-1.808424"><ele>501</ele><time>2020-08-05T09:41:41Z</time><name>PT1005</name></trkpt>
<trkpt lat="53.351650" lon="-1.808420"><ele>501</ele><time>2020-08-05T09:41:42Z</time><name>PT1006</name></trkpt>
<trkpt lat="53.351663" lon="-1.808417"><ele>501</ele><time>2020-08-05T09:41:43Z</time><name>PT1007</name></trkpt>
<trkpt lat="53.351678" lon="-1.808407"><ele>502</ele><time>2020-08-05T09:41:44Z</time><name>PT1008</name></trkpt>
<trkpt lat="53.351692" lon="-1.808403"><ele>502</ele><time>2020-08-05T09:41:45Z</time><name>PT1009</name></trkpt>
<trkpt lat="53.351706" lon="-1.808398"><ele>502</ele><time>2020-08-05T09:41:46Z</time><name>PT1010</name></trkpt>
<trkpt lat="53.351718" lon="-1.808394"><ele>502</ele><time>2020-08-05T09:41:47Z</time><name>PT1011</name></trkpt>
<trkpt lat="53.351732" lon="-1.808391"><ele>502</ele><time>2020-08-05T09:41:48Z</time><name>PT1012</name></trkpt>
<trkpt lat="53.351745" lon="-1.808386"><ele>502</ele><time>2020-08-05T09:41:49Z</time><name>PT1013</name></trkpt>
<trkpt lat="53.351761" lon="-1.808387"><ele>502</ele><time>2020-08-05T09:41:50Z</time><name>PT1014</name></trkpt>
<trkpt lat="53.351776" lon="-1.808381"><ele>502</ele><time>2020-08-05T09:41:51Z</time><name>PT1015</name></trkpt>
<trkpt lat="53.351788" lon="-1.808378"><ele>502</ele><time>2020-08-05T09:41:52Z</time><name>PT1016</name></trkpt>
<trkpt lat="53.351799" lon="-1.808377"><ele>501</ele><time>2020-08-05T09:41:53Z</time><name>PT1017</name></trkpt>
<trkpt lat="53.351812" lon="-1.808378"><ele>501</ele><time>2020-08-05T09:41:54Z</time><name>PT1018</name></trkpt>
<trkpt lat="53.351826" lon="-1.808375"><ele>501</ele><time>2020-08-05T09:41:55Z</time><name>PT1019</name></trkpt>
<trkpt lat="53.351840" lon="-1.808370"><ele>500</ele><time>2020-08-05T09:41:56Z</time><name>PT1020</name></trkpt>
<trkpt lat="53.351854" lon="-1.808371"><ele>500</ele><time>2020-08-05T09:41:57Z</time><name>PT1021</name></trkpt>
<trkpt lat="53.351866" lon="-1.808373"><ele>500</ele><time>2020-08-05T09:41:58Z</time><name>PT1022</name></trkpt>
<trkpt lat="53.351875" lon="-1.808380"><ele>500</ele><time>2020-08-05T09:41:59Z</time><name>PT1023</name></trkpt>
<trkpt lat="53.351890" lon="-1.808380"><ele>500</ele><time>2020-08-05T09:42:00Z</time><name>PT1024</name></trkpt>
<trkpt lat="53.351903" lon="-1.808380"><ele>500</ele><time>2020-08-05T09:42:01Z</time><name>PT1025</name></trkpt>
<trkpt lat="53.351912" lon="-1.808379"><ele>500</ele><time>2020-08-05T09:42:02Z</time><name>PT1026</name></trkpt>
<trkpt lat="53.351922" lon="-1.808375"><ele>499</ele><time>2020-08-05T09:42:03Z</time><name>PT1027</name></trkpt>
<trkpt lat="53.351931" lon="-1.808368"><ele>499</ele><time>2020-08-05T09:42:04Z</time><name>PT1028</name></trkpt>
<trkpt lat="53.351940" lon="-1.808361"><ele>499</ele><time>2020-08-05T09:42:05Z</time><name>PT1029</name></trkpt>
<trkpt lat="53.351949" lon="-1.808355"><ele>498</ele><time>2020-08-05T09:42:06Z</time><name>PT1030</name></trkpt>
<trkpt lat="53.351955" lon="-1.808349"><ele>498</ele><time>2020-08-05T09:42:07Z</time><name>PT1031</name></trkpt>
<trkpt lat="53.351963" lon="-1.808338"><ele>497</ele><time>2020-08-05T09:42:08Z</time><name>PT1032</name></trkpt>
<trkpt lat="53.351970" lon="-1.808330"><ele>497</ele><time>2020-08-05T09:42:09Z</time><name>PT1033</name></trkpt>
<trkpt lat="53.351976" lon="-1.808321"><ele>496</ele><time>2020-08-05T09:42:10Z</time><name>PT1034</name></trkpt>
<trkpt lat="53.351979" lon="-1.808314"><ele>495</ele><time>2020-08-05T09:42:11Z</time><name>PT1035</name></trkpt>
<trkpt lat="53.351985" lon="-1.808305"><ele>495</ele><time>2020-08-05T09:42:12Z</time><name>PT1036</name></trkpt>
<trkpt lat="53.351993" lon="-1.808296"><ele>495</ele><time>2020-08-05T09:42:13Z</time><name>PT1037</name></trkpt>
<trkpt lat="53.352002" lon="-1.808287"><ele>495</ele><time>2020-08-05T09:42:14Z</time><name>PT1038</name></trkpt>
<trkpt lat="53.352009" lon="-1.808277"><ele>494</ele><time>2020-08-05T09:42:15Z</time><name>PT1039</name></trkpt>
<trkpt lat="53.352013" lon="-1.808270"><ele>494</ele><time>2020-08-05T09:42:16Z</time><name>PT1040</name></trkpt>
<trkpt lat="53.352015" lon="-1.808266"><ele>494</ele><time>2020-08-05T09:42:17Z</time><name>PT1041</name></trkpt>
<trkpt lat="53.352020" lon="-1.808260"><ele>493</ele><time>2020-08-05T09:42:18Z</time><name>PT1042</name></trkpt>
<trkpt lat="53.352028" lon="-1.808251"><ele>493</ele><time>2020-08-05T09:42:19Z</time><name>PT1043</name></trkpt>
<trkpt lat="53.352035" lon="-1.808242"><ele>493</ele><time>2020-08-05T09:42:20Z</time><name>PT1044</name></trkpt>
<trkpt lat="53.352040" lon="-1.808240"><ele>492</ele><time>2020-08-05T09:42:21Z</time><name>PT1045</name></trkpt>
<trkpt lat="53.352045" lon="-1.808236"><ele>492</ele><time>2020-08-05T09:42:22Z</time><name>PT1046</name></trkpt>
<trkpt lat="53.352052" lon="-1.808230"><ele>492</ele><time>2020-08-05T09:42:23Z</time><name>PT1047</name></trkpt>
<trkpt lat="53.352057" lon="-1.808224"><ele>492</ele><time>2020-08-05T09:42:24Z</time><name>PT1048</name></trkpt>
<trkpt lat="53.352063" lon="-1.808219"><ele>492</ele><time>2020-08-05T09:42:25Z</time><name>PT1049</name></trkpt>
<trkpt lat="53.352069" lon="-1.808212"><ele>492</ele><time>2020-08-05T09:42:26Z</time><name>PT1050</name></trkpt>
<trkpt lat="53.352073" lon="-1.808202"><ele>492</ele><time>2020-08-05T09:42:27Z</time><name>PT1051</name></trkpt>
<trkpt lat="53.352079" lon="-1.808193"><ele>492</ele><time>2020-08-05T09:42:28Z</time><name>PT1052</name></trkpt>
<trkpt lat="53.352085" lon="-1.808188"><ele>491</ele><time>2020-08-05T09:42:29Z</time><name>PT1053</name></trkpt>
<trkpt lat="53.352097" lon="-1.808176"><ele>492</ele><time>2020-08-05T09:42:30Z</time><name>PT1054</name></trkpt>
<trkpt lat="53.352103" lon="-1.808166"><ele>492</ele><time>2020-08-05T09:42:31Z</time><name>PT1055</name></trkpt>
<trkpt lat="53.352110" lon="-1.808158"><ele>492</ele><time>2020-08-05T09:42:32Z</time><name>PT1056</name></trkpt>
<trkpt lat="53.352117" lon="-1.808153"><ele>492</ele><time>2020-08-05T09:42:33Z</time><name>PT1057</name></trkpt>
<trkpt lat="53.352123" lon="-1.808149"><ele>492</ele><time>2020-08-05T09:42:34Z</time><name>PT1058</name></trkpt>
<trkpt lat="53.352127" lon="-1.808142"><ele>492</ele><time>2020-08-05T09:42:35Z</time><name>PT1059</name></trkpt>
<trkpt lat="53.352128" lon="-1.808142"><ele>491</ele><time>2020-08-05T09:42:36Z</time><name>PT1060</name></trkpt>
<trkpt lat="53.352133" lon="-1.808133"><ele>491</ele><time>2020-08-05T09:42:37Z</time><name>PT1061</name></trkpt>
<trkpt lat="53.352140" lon="-1.808127"><ele>491</ele><time>2020-08-05T09:42:38Z</time><name>PT1062</name></trkpt>
<trkpt lat="53.352148" lon="-1.808119"><ele>491</ele><time>2020-08-05T09:42:39Z</time><name>PT1063</name></trkpt>
<trkpt lat="53.352156" lon="-1.808110"><ele>490</ele><time>2020-08-05T09:42:40Z</time><name>PT1064</name></trkpt>
<trkpt lat="53.352163" lon="-1.808103"><ele>490</ele><time>2020-08-05T09:42:41Z</time><name>PT1065</name></trkpt>
<trkpt lat="53.352168" lon="-1.808101"><ele>490</ele><time>2020-08-05T09:42:42Z</time><name>PT1066</name></trkpt>
<trkpt lat="53.352174" lon="-1.808099"><ele>491</ele><time>2020-08-05T09:42:43Z</time><name>PT1067</name></trkpt>
<trkpt lat="53.352180" lon="-1.808098"><ele>491</ele><time>2020-08-05T09:42:44Z</time><name>PT1068</name></trkpt>
<trkpt lat="53.352186" lon="-1.808098"><ele>491</ele><time>2020-08-05T09:42:45Z</time><name>PT1069</name></trkpt>
<trkpt lat="53.352191" lon="-1.808091"><ele>491</ele><time>2020-08-05T09:42:46Z</time><name>PT1070</name></trkpt>
<trkpt lat="53.352198" lon="-1.808089"><ele>491</ele><time>2020-08-05T09:42:47Z</time><name>PT1071</name></trkpt>
<trkpt lat="53.352203" lon="-1.808087"><ele>490</ele><time>2020-08-05T09:42:48Z</time><name>PT1072</name></trkpt>
<trkpt lat="53.352211" lon="-1.808086"><ele>490</ele><time>2020-08-05T09:42:49Z</time><name>PT1073</name></trkpt>
<trkpt lat="53.352218" lon="-1.808081"><ele>490</ele><time>2020-08-05T09:42:50Z</time><name>PT1074</name></trkpt>
<trkpt lat="53.352226" lon="-1.808076"><ele>490</ele><time>2020-08-05T09:42:51Z</time><name>PT1075</name></trkpt>
<trkpt lat="53.352233" lon="-1.808070"><ele>490</ele><time>2020-08-05T09:42:52Z</time><name>PT1076</name></trkpt>
<trkpt lat="53.352238" lon="-1.808062"><ele>490</ele><time>2020-08-05T09:42:53Z</time><name>PT1077</name></trkpt>
<trkpt lat="53.352243" lon="-1.808056"><ele>490</ele><time>2020-08-05T09:42:54Z</time><name>PT1078</name></trkpt>
<trkpt lat="53.352249" lon="-1.808054"><ele>489</ele><time>2020-08-05T09:42:55Z</time><name>PT1079</name></trkpt>
<trkpt lat="53.352254" lon="-1.808052"><ele>489</ele><time>2020-08-05T09:42:56Z</time><name>PT1080</name></trkpt>
<trkpt lat="53.352259" lon="-1.808051"><ele>488</ele><time>2020-08-05T09:42:57Z</time><name>PT1081</name></trkpt>
<trkpt lat="53.352263" lon="-1.808045"><ele>488</ele><time>2020-08-05T09:42:58Z</time><name>PT1082</name></trkpt>
<trkpt lat="53.352268" lon="-1.808037"><ele>487</ele><time>2020-08-05T09:42:59Z</time><name>PT1083</name></trkpt>
<trkpt lat="53.352275" lon="-1.808026"><ele>487</ele><time>2020-08-05T09:43:00Z</time><name>PT1084</name></trkpt>
<trkpt lat="53.352284" lon="-1.808014"><ele>487</ele><time>2020-08-05T09:43:01Z</time><name>PT1085</name></trkpt>
<trkpt lat="53.352290" lon="-1.808008"><ele>487</ele><time>2020-08-05T09:43:02Z</time><name>PT1086</name></trkpt>
<trkpt lat="53.352297" lon="-1.808006"><ele>487</ele><time>2020-08-05T09:43:03Z</time><name>PT1087</name></trkpt>
<trkpt lat="53.352297" lon="-1.808001"><ele>486</ele><time>2020-08-05T09:43:04Z</time><name>PT1088</name></trkpt>
<trkpt lat="53.352298" lon="-1.807996"><ele>486</ele><time>2020-08-05T09:43:05Z</time><name>PT1089</name></trkpt>
<trkpt lat="53.352302" lon="-1.807992"><ele>486</ele><time>2020-08-05T09:43:06Z</time><name>PT1090</name></trkpt>
<trkpt lat="53.352304" lon="-1.807985"><ele>485</ele><time>2020-08-05T09:43:07Z</time><name>PT1091</name></trkpt>
<trkpt lat="53.352308" lon="-1.807971"><ele>485</ele><time>2020-08-05T09:43:08Z</time><name>PT1092</name></trkpt>
<trkpt lat="53.352314" lon="-1.807955"><ele>485</ele><time>2020-08-05T09:43:09Z</time><name>PT1093</name></trkpt>
<trkpt lat="53.352321" lon="-1.807944"><ele>485</ele><time>2020-08-05T09:43:10Z</time><name>PT1094</name></trkpt>
<trkpt lat="53.352327" lon="-1.807936"><ele>484</ele><time>2020-08-05T09:43:11Z</time><name>PT1095</name></trkpt>
<trkpt lat="53.352332" lon="-1.807932"><ele>484</ele><time>2020-08-05T09:43:12Z</time><name>PT1096</name></trkpt>
<trkpt lat="53.352340" lon="-1.807929"><ele>484</ele><time>2020-08-05T09:43:13Z</time><name>PT1097</name></trkpt>
<trkpt lat="53.352347" lon="-1.807922"><ele>484</ele><time>2020-08-05T09:43:14Z</time><name>PT1098</name></trkpt>
<trkpt lat="53.352356" lon="-1.807914"><ele>484</ele><time>2020-08-05T09:43:15Z</time><name>PT1099</name></trkpt>
<trkpt lat="53.352364" lon="-1.807904"><ele>484</ele><time>2020-08-05T09:43:16Z</time><name>PT1100</name></trkpt>
<trkpt lat="53.352371" lon="-1.807895"><ele>484</ele><time>2020-08-05T09:43:17Z</time><name>PT1101</name></trkpt>
<trkpt lat="53.352378" lon="-1.807887"><ele>484</ele><time>2020-08-05T09:43:18Z</time><name>PT1102</name></trkpt>
<trkpt lat="53.352386" lon="-1.807881"><ele>483</ele><time>2020-08-05T09:43:19Z</time><name>PT1103</name></trkpt>
<trkpt lat="53.352393" lon="-1.807880"><ele>483</ele><time>2020-08-05T09:43:20Z</time><name>PT1104</name></trkpt>
<trkpt lat="53.352401" lon="-1.807879"><ele>483</ele><time>2020-08-05T09:43:21Z</time><name>PT1105</name></trkpt>
<trkpt lat="53.352409" lon="-1.807876"><ele>483</ele><time>2020-08-05T09:43:22Z</time><name>PT1106</name></trkpt>
<trkpt lat="53.352415" lon="-1.807870"><ele>482</ele><time>2020-08-05T09:43:23Z</time><name>PT1107</name></trkpt>
<trkpt lat="53.352422" lon="-1.807862"><ele>482</ele><time>2020-08-05T09:43:24Z</time><name>PT1108</name></trkpt>
<trkpt lat="53.352430" lon="-1.807852"><ele>481</ele><time>2020-08-05T09:43:25Z</time><name>PT1109</name></trkpt>
<trkpt lat="53.352440" lon="-1.807842"><ele>481</ele><time>2020-08-05T09:43:26Z</time><name>PT1110</name></trkpt>
<trkpt lat="53.352449" lon="-1.807833"><ele>481</ele><time>2020-08-05T09:43:27Z</time><name>PT1111</name></trkpt>
<trkpt lat="53.352459" lon="-1.807825"><ele>481</ele><time>2020-08-05T09:43:28Z</time><name>PT1112</name></trkpt>
<trkpt lat="53.352469" lon="-1.807821"><ele>481</ele><time>2020-08-05T09:43:29Z</time><name>PT1113</name></trkpt>
<trkpt lat="53.352476" lon="-1.807810"><ele>480</ele><time>2020-08-05T09:43:30Z</time><name>PT1114</name></trkpt>
<trkpt lat="53.352485" lon="-1.807800"><ele>480</ele><time>2020-08-05T09:43:31Z</time><name>PT1115</name></trkpt>
<trkpt lat="53.352493" lon="-1.807787"><ele>480</ele><time>2020-08-05T09:43:32Z</time><name>PT1116</name></trkpt>
<trkpt lat="53.352502" lon="-1.807773"><ele>480</ele><time>2020-08-05T09:43:33Z</time><name>PT1117</name></trkpt>
<trkpt lat="53.352510" lon="-1.807762"><ele>480</ele><time>2020-08-05T09:43:34Z</time><name>PT1118</name></trkpt>
<trkpt lat="53.352520" lon="-1.807752"><ele>479</ele><time>2020-08-05T09:43:35Z</time><name>PT1119</name></trkpt>
<trkpt lat="53.352528" lon="-1.807742"><ele>479</ele><time>2020-08-05T09:43:36Z</time><name>PT1120</name></trkpt>
<trkpt lat="53.352538" lon="-1.807731"><ele>479</ele><time>2020-08-05T09:43:37Z</time><name>PT1121</name></trkpt>
<trkpt lat="53.352549" lon="-1.807723"><ele>478</ele><time>2020-08-05T09:43:38Z</time><name>PT1122</name></trkpt>
<trkpt lat="53.352558" lon="-1.807712"><ele>478</ele><time>2020-08-05T09:43:39Z</time><name>PT1123</name></trkpt>
<trkpt lat="53.352567" lon="-1.807701"><ele>478</ele><time>2020-08-05T09:43:40Z</time><name>PT1124</name></trkpt>
<trkpt lat="53.352576" lon="-1.807689"><ele>477</ele><time>2020-08-05T09:43:41Z</time><name>PT1125</name></trkpt>
<trkpt lat="53.352587" lon="-1.807680"><ele>478</ele><time>2020-08-05T09:43:42Z</time><name>PT1126</name></trkpt>
<trkpt lat="53.352596" lon="-1.807672"><ele>478</ele><time>2020-08-05T09:43:43Z</time><name>PT1127</name></trkpt>
<trkpt lat="53.352607" lon="-1.807662"><ele>478</ele><time>2020-08-05T09:43:44Z</time><name>PT1128</name></trkpt>
<trkpt lat="53.352617" lon="-1.807654"><ele>477</ele><time>2020-08-05T09:43:45Z</time><name>PT1129</name></trkpt>
<trkpt lat="53.352628" lon="-1.807647"><ele>477</ele><time>2020-08-05T09:43:46Z</time><name>PT1130</name></trkpt>
<trkpt lat="53.352638" lon="-1.807640"><ele>476</ele><time>2020-08-05T09:43:47Z</time><name>PT1131</name></trkpt>
<trkpt lat="53.352647" lon="-1.807630"><ele>476</ele><time>2020-08-05T09:43:48Z</time><name>PT1132</name></trkpt>
<trkpt lat="53.352657" lon="-1.807619"><ele>476</ele><time>2020-08-05T09:43:49Z</time><name>PT1133</name></trkpt>
<trkpt lat="53.352667" lon="-1.807607"><ele>475</ele><time>2020-08-05T09:43:50Z</time><name>PT1134</name></trkpt>
<trkpt lat="53.352680" lon="-1.807595"><ele>475</ele><time>2020-08-05T09:43:51Z</time><name>PT1135</name></trkpt>
<trkpt lat="53.352690" lon="-1.807586"><ele>475</ele><time>2020-08-05T09:43:52Z</time><name>PT1136</name></trkpt>
<trkpt lat="53.352699" lon="-1.807577"><ele>475</ele><time>2020-08-05T09:43:53Z</time><name>PT1137</name></trkpt>
<trkpt lat="53.352708" lon="-1.807568"><ele>474</ele><time>2020-08-05T09:43:54Z</time><name>PT1138</name></trkpt>
<trkpt lat="53.352718" lon="-1.807557"><ele>474</ele><time>2020-08-05T09:43:55Z</time><name>PT1139</name></trkpt>
<trkpt lat="53.352727" lon="-1.807544"><ele>474</ele><time>2020-08-05T09:43:56Z</time><name>PT1140</name></trkpt>
<trkpt lat="53.352735" lon="-1.807534"><ele>474</ele><time>2020-08-05T09:43:57Z</time><name>PT1141</name></trkpt>
<trkpt lat="53.352743" lon="-1.807523"><ele>473</ele><time>2020-08-05T09:43:58Z</time><name>PT1142</name></trkpt>
<trkpt lat="53.352751" lon="-1.807518"><ele>473</ele><time>2020-08-05T09:43:59Z</time><name>PT1143</name></trkpt>
<trkpt lat="53.352758" lon="-1.807512"><ele>473</ele><time>2020-08-05T09:44:00Z</time><name>PT1144</name></trkpt>
<trkpt lat="53.352766" lon="-1.807504"><ele>472</ele><time>2020-08-05T09:44:01Z</time><name>PT1145</name></trkpt>
<trkpt lat="53.352779" lon="-1.807493"><ele>472</ele><time>2020-08-05T09:44:02Z</time><name>PT1146</name></trkpt>
<trkpt lat="53.352789" lon="-1.807484"><ele>472</ele><time>2020-08-05T09:44:03Z</time><name>PT1147</name></trkpt>
<trkpt lat="53.352797" lon="-1.807478"><ele>471</ele><time>2020-08-05T09:44:04Z</time><name>PT1148</name></trkpt>
<trkpt lat="53.352805" lon="-1.807469"><ele>471</ele><time>2020-08-05T09:44:05Z</time><name>PT1149</name></trkpt>
<trkpt lat="53.352813" lon="-1.807459"><ele>471</ele><time>2020-08-05T09:44:06Z</time><name>PT1150</name></trkpt>
<trkpt lat="53.352819" lon="-1.807445"><ele>471</ele><time>2020-08-05T09:44:07Z</time><name>PT1151</name></trkpt>
<trkpt lat="53.352829" lon="-1.807433"><ele>471</ele><time>2020-08-05T09:44:08Z</time><name>PT1152</name></trkpt>
<trkpt lat="53.352839" lon="-1.807422"><ele>471</ele><time>2020-08-05T09:44:09Z</time><name>PT1153</name></trkpt>
<trkpt lat="53.352849" lon="-1.807415"><ele>471</ele><time>2020-08-05T09:44:10Z</time><name>PT1154</name></trkpt>
<trkpt lat="53.352858" lon="-1.807409"><ele>470</ele><time>2020-08-05T09:44:11Z</time><name>PT1155</name></trkpt>
<trkpt lat="53.352866" lon="-1.807397"><ele>470</ele><time>2020-08-05T09:44:12Z</time><name>PT1156</name></trkpt>
<trkpt lat="53.352875" lon="-1.807384"><ele>470</ele><time>2020-08-05T09:44:13Z</time><name>PT1157</name></trkpt>
<trkpt lat="53.352883" lon="-1.807376"><ele>470</ele><time>2020-08-05T09:44:14Z</time><name>PT1158</name></trkpt>
<trkpt lat="53.352893" lon="-1.807364"><ele>470</ele><time>2020-08-05T09:44:15Z</time><name>PT1159</name></trkpt>
<trkpt lat="53.352903" lon="-1.807353"><ele>470</ele><time>2020-08-05T09:44:16Z</time><name>PT1160</name></trkpt>
<trkpt lat="53.352911" lon="-1.807345"><ele>470</ele><time>2020-08-05T09:44:17Z</time><name>PT1161</name></trkpt>
<trkpt lat="53.352920" lon="-1.807337"><ele>469</ele><time>2020-08-05T09:44:18Z</time><name>PT1162</name></trkpt>
<trkpt lat="53.352931" lon="-1.807329"><ele>469</ele><time>2020-08-05T09:44:19Z</time><name>PT1163</name></trkpt>
<trkpt lat="53.352944" lon="-1.807319"><ele>470</ele><time>2020-08-05T09:44:20Z</time><name>PT1164</name></trkpt>
<trkpt lat="53.352957" lon="-1.807308"><ele>470</ele><time>2020-08-05T09:44:21Z</time><name>PT1165</name></trkpt>
<trkpt lat="53.352970" lon="-1.807290"><ele>470</ele><time>2020-08-05T09:44:22Z</time><name>PT1166</name></trkpt>
<trkpt lat="53.352981" lon="-1.807276"><ele>470</ele><time>2020-08-05T09:44:23Z</time><name>PT1167</name></trkpt>
<trkpt lat="53.352994" lon="-1.807263"><ele>470</ele><time>2020-08-05T09:44:24Z</time><name>PT1168</name></trkpt>
<trkpt lat="53.353006" lon="-1.807256"><ele>471</ele><time>2020-08-05T09:44:25Z</time><name>PT1169</name></trkpt>
<trkpt lat="53.353018" lon="-1.807254"><ele>471</ele><time>2020-08-05T09:44:26Z</time><name>PT1170</name></trkpt>
<trkpt lat="53.353030" lon="-1.807248"><ele>471</ele><time>2020-08-05T09:44:27Z</time><name>PT1171</name></trkpt>
<trkpt lat="53.353039" lon="-1.807242"><ele>470</ele><time>2020-08-05T09:44:28Z</time><name>PT1172</name></trkpt>
<trkpt lat="53.353046" lon="-1.807236"><ele>469</ele><time>2020-08-05T09:44:29Z</time><name>PT1173</name></trkpt>
<trkpt lat="53.353058" lon="-1.807226"><ele>470</ele><time>2020-08-05T09:44:30Z</time><name>PT1174</name></trkpt>
<trkpt lat="53.353070" lon="-1.807221"><ele>470</ele><time>2020-08-05T09:44:31Z</time><name>PT1175</name></trkpt>
<trkpt lat="53.353077" lon="-1.807212"><ele>470</ele><time>2020-08-05T09:44:32Z</time><name>PT1176</name></trkpt>
<trkpt lat="53.353087" lon="-1.807207"><ele>470</ele><time>2020-08-05T09:44:33Z</time><name>PT1177</name></trkpt>
<trkpt lat="53.353098" lon="-1.807203"><ele>470</ele><time>2020-08-05T09:44:34Z</time><name>PT1178</name></trkpt>
<trkpt lat="53.353109" lon="-1.807195"><ele>469</ele><time>2020-08-05T09:44:35Z</time><name>PT1179</name></trkpt>
<trkpt lat="53.353118" lon="-1.807185"><ele>469</ele><time>2020-08-05T09:44:36Z</time><name>PT1180</name></trkpt>
<trkpt lat="53.353128" lon="-1.807177"><ele>469</ele><time>2020-08-05T09:44:37Z</time><name>PT1181</name></trkpt>
<trkpt lat="53.353139" lon="-1.807171"><ele>468</ele><time>2020-08-05T09:44:38Z</time><name>PT1182</name></trkpt>
<trkpt lat="53.353147" lon="-1.807169"><ele>468</ele><time>2020-08-05T09:44:39Z</time><name>PT1183</name></trkpt>
<trkpt lat="53.353158" lon="-1.807166"><ele>469</ele><time>2020-08-05T09:44:40Z</time><name>PT1184</name></trkpt>
<trkpt lat="53.353171" lon="-1.807158"><ele>469</ele><time>2020-08-05T09:44:41Z</time><name>PT1185</name></trkpt>
<trkpt lat="53.353180" lon="-1.807151"><ele>468</ele><time>2020-08-05T09:44:42Z</time><name>PT1186</name></trkpt>
<trkpt lat="53.353189" lon="-1.807141"><ele>468</ele><time>2020-08-05T09:44:43Z</time><name>PT1187</name></trkpt>
<trkpt lat="53.353198" lon="-1.807131"><ele>467</ele><time>2020-08-05T09:44:44Z</time><name>PT1188</name></trkpt>
<trkpt lat="53.353212" lon="-1.807123"><ele>467</ele><time>2020-08-05T09:44:45Z</time><name>PT1189</name></trkpt>
<trkpt lat="53.353222" lon="-1.807113"><ele>467</ele><time>2020-08-05T09:44:46Z</time><name>PT1190</name></trkpt>
<trkpt lat="53.353231" lon="-1.807106"><ele>467</ele><time>2020-08-05T09:44:47Z</time><name>PT1191</name></trkpt>
<trkpt lat="53.353241" lon="-1.807103"><ele>466</ele><time>2020-08-05T09:44:48Z</time><name>PT1192</name></trkpt>
<trkpt lat="53.353249" lon="-1.807099"><ele>466</ele><time>2020-08-05T09:44:49Z</time><name>PT1193</name></trkpt>
<trkpt lat="53.353257" lon="-1.807092"><ele>466</ele><time>2020-08-05T09:44:50Z</time><name>PT1194</name></trkpt>
<trkpt lat="53.353265" lon="-1.807082"><ele>465</ele><time>2020-08-05T09:44:51Z</time><name>PT1195</name></trkpt>
<trkpt lat="53.353274" lon="-1.807072"><ele>465</ele><time>2020-08-05T09:44:52Z</time><name>PT1196</name></trkpt>
<trkpt lat="53.353283" lon="-1.807062"><ele>465</ele><time>2020-08-05T09:44:53Z</time><name>PT1197</name></trkpt>
<trkpt lat="53.353295" lon="-1.807053"><ele>465</ele><time>2020-08-05T09:44:54Z</time><name>PT1198</name></trkpt>
<trkpt lat="53.353305" lon="-1.807046"><ele>465</ele><time>2020-08-05T09:44:55Z</time><name>PT1199</name></trkpt>
<trkpt lat="53.353316" lon="-1.807040"><ele>465</ele><time>2020-08-05T09:44:56Z</time><name>PT1200</name></trkpt>
<trkpt lat="53.353328" lon="-1.807035"><ele>464</ele><time>2020-08-05T09:44:57Z</time><name>PT1201</name></trkpt>
<trkpt lat="53.353341" lon="-1.807030"><ele>465</ele><time>2020-08-05T09:44:58Z</time><name>PT1202</name></trkpt>
<trkpt lat="53.353350" lon="-1.807023"><ele>464</ele><time>2020-08-05T09:44:59Z</time><name>PT1203</name></trkpt>
<trkpt lat="53.353359" lon="-1.807010"><ele>464</ele><time>2020-08-05T09:45:00Z</time><name>PT1204</name></trkpt>
<trkpt lat="53.353368" lon="-1.807002"><ele>464</ele><time>2020-08-05T09:45:01Z</time><name>PT1205</name></trkpt>
<trkpt lat="53.353379" lon="-1.806996"><ele>464</ele><time>2020-08-05T09:45:02Z</time><name>PT1206</name></trkpt>
<trkpt lat="53.353388" lon="-1.806994"><ele>464</ele><time>2020-08-05T09:45:03Z</time><name>PT1207</name></trkpt>
<trkpt lat="53.353397" lon="-1.806988"><ele>464</ele><time>2020-08-05T09:45:04Z</time><name>PT1208</name></trkpt>
<trkpt lat="53.353408" lon="-1.806981"><ele>464</ele><time>2020-08-05T09:45:05Z</time><name>PT1209</name></trkpt>
<trkpt lat="53.353418" lon="-1.806971"><ele>464</ele><time>2020-08-05T09:45:06Z</time><name>PT1210</name></trkpt>
<trkpt lat="53.353427" lon="-1.806960"><ele>464</ele><time>2020-08-05T09:45:07Z</time><name>PT1211</name></trkpt>
<trkpt lat="53.353435" lon="-1.806953"><ele>463</ele><time>2020-08-05T09:45:08Z</time><name>PT1212</name></trkpt>
<trkpt lat="53.353443" lon="-1.806944"><ele>463</ele><time>2020-08-05T09:45:09Z</time><name>PT1213</name></trkpt>
<trkpt lat="53.353452" lon="-1.806940"><ele>463</ele><time>2020-08-05T09:45:10Z</time><name>PT1214</name></trkpt>
<trkpt lat="53.353459" lon="-1.806936"><ele>463</ele><time>2020-08-05T09:45:11Z</time><name>PT1215</name></trkpt>
<trkpt lat="53.353468" lon="-1.806927"><ele>462</ele><time>2020-08-05T09:45:12Z</time><name>PT1216</name></trkpt>
<trkpt lat="53.353477" lon="-1.806916"><ele>462</ele><time>2020-08-05T09:45:13Z</time><name>PT1217</name></trkpt>
<trkpt lat="53.353487" lon="-1.806908"><ele>462</ele><time>2020-08-05T09:45:14Z</time><name>PT1218</name></trkpt>
<trkpt lat="53.353497" lon="-1.806902"><ele>462</ele><time>2020-08-05T09:45:15Z</time><name>PT1219</name></trkpt>
<trkpt lat="53.353509" lon="-1.806895"><ele>462</ele><time>2020-08-05T09:45:16Z</time><name>PT1220</name></trkpt>
<trkpt lat="53.353521" lon="-1.806889"><ele>462</ele><time>2020-08-05T09:45:17Z</time><name>PT1221</name></trkpt>
<trkpt lat="53.353529" lon="-1.806881"><ele>462</ele><time>2020-08-05T09:45:18Z</time><name>PT1222</name></trkpt>
<trkpt lat="53.353538" lon="-1.806870"><ele>462</ele><time>2020-08-05T09:45:19Z</time><name>PT1223</name></trkpt>
<trkpt lat="53.353547" lon="-1.806864"><ele>462</ele><time>2020-08-05T09:45:20Z</time><name>PT1224</name></trkpt>
<trkpt lat="53.353555" lon="-1.806858"><ele>462</ele><time>2020-08-05T09:45:21Z</time><name>PT1225</name></trkpt>
<trkpt lat="53.353561" lon="-1.806853"><ele>461</ele><time>2020-08-05T09:45:22Z</time><name>PT1226</name></trkpt>
<trkpt lat="53.353574" lon="-1.806849"><ele>461</ele><time>2020-08-05T09:45:23Z</time><name>PT1227</name></trkpt>
<trkpt lat="53.353585" lon="-1.806845"><ele>461</ele><time>2020-08-05T09:45:24Z</time><name>PT1228</name></trkpt>
<trkpt lat="53.353598" lon="-1.806836"><ele>461</ele><time>2020-08-05T09:45:25Z</time><name>PT1229</name></trkpt>
<trkpt lat="53.353609" lon="-1.806825"><ele>461</ele><time>2020-08-05T09:45:26Z</time><name>PT1230</name></trkpt>
<trkpt lat="53.353619" lon="-1.806819"><ele>460</ele><time>2020-08-05T09:45:27Z</time><name>PT1231</name></trkpt>
<trkpt lat="53.353627" lon="-1.806811"><ele>459</ele><time>2020-08-05T09:45:28Z</time><name>PT1232</name></trkpt>
<trkpt lat="53.353638" lon="-1.806804"><ele>459</ele><time>2020-08-05T09:45:29Z</time><name>PT1233</name></trkpt>
<trkpt lat="53.353647" lon="-1.806799"><ele>458</ele><time>2020-08-05T09:45:30Z</time><name>PT1234</name></trkpt>
<trkpt lat="53.353657" lon="-1.806791"><ele>458</ele><time>2020-08-05T09:45:31Z</time><name>PT1235</name></trkpt>
<trkpt lat="53.353668" lon="-1.806786"><ele>457</ele><time>2020-08-05T09:45:32Z</time><name>PT1236</name></trkpt>
<trkpt lat="53.353678" lon="-1.806779"><ele>456</ele><time>2020-08-05T09:45:33Z</time><name>PT1237</name></trkpt>
<trkpt lat="53.353688" lon="-1.806776"><ele>457</ele><time>2020-08-05T09:45:34Z</time><name>PT1238</name></trkpt>
<trkpt lat="53.353694" lon="-1.806774"><ele>457</ele><time>2020-08-05T09:45:35Z</time><name>PT1239</name></trkpt>
<trkpt lat="53.353699" lon="-1.806766"><ele>456</ele><time>2020-08-05T09:45:36Z</time><name>PT1240</name></trkpt>
<trkpt lat="53.353710" lon="-1.806757"><ele>456</ele><time>2020-08-05T09:45:37Z</time><name>PT1241</name></trkpt>
<trkpt lat="53.353720" lon="-1.806749"><ele>455</ele><time>2020-08-05T09:45:38Z</time><name>PT1242</name></trkpt>
<trkpt lat="53.353730" lon="-1.806746"><ele>455</ele><time>2020-08-05T09:45:39Z</time><name>PT1243</name></trkpt>
<trkpt lat="53.353741" lon="-1.806740"><ele>455</ele><time>2020-08-05T09:45:40Z</time><name>PT1244</name></trkpt>
<trkpt lat="53.353749" lon="-1.806734"><ele>455</ele><time>2020-08-05T09:45:41Z</time><name>PT1245</name></trkpt>
<trkpt lat="53.353762" lon="-1.806728"><ele>454</ele><time>2020-08-05T09:45:42Z</time><name>PT1246</name></trkpt>
<trkpt lat="53.353773" lon="-1.806720"><ele>453</ele><time>2020-08-05T09:45:43Z</time><name>PT1247</name></trkpt>
<trkpt lat="53.353784" lon="-1.806708"><ele>453</ele><time>2020-08-05T09:45:44Z</time><name>PT1248</name></trkpt>
<trkpt lat="53.353795" lon="-1.806698"><ele>453</ele><time>2020-08-05T09:45:45Z</time><name>PT1249</name></trkpt>
<trkpt lat="53.353805" lon="-1.806692"><ele>453</ele><time>2020-08-05T09:45:46Z</time><name>PT1250</name></trkpt>
<trkpt lat="53.353813" lon="-1.806683"><ele>453</ele><time>2020-08-05T09:45:47Z</time><name>PT1251</name></trkpt>
<trkpt lat="53.353822" lon="-1.806676"><ele>453</ele><time>2020-08-05T09:45:48Z</time><name>PT1252</name></trkpt>
<trkpt lat="53.353831" lon="-1.806670"><ele>453</ele><time>2020-08-05T09:45:49Z</time><name>PT1253</name></trkpt>
<trkpt lat="53.353840" lon="-1.806665"><ele>454</ele><time>2020-08-05T09:45:50Z</time><name>PT1254</name></trkpt>
<trkpt lat="53.353850" lon="-1.806656"><ele>453</ele><time>2020-08-05T09:45:51Z</time><name>PT1255</name></trkpt>
<trkpt lat="53.353859" lon="-1.806646"><ele>454</ele><time>2020-08-05T09:45:52Z</time><name>PT1256</name></trkpt>
<trkpt lat="53.353871" lon="-1.806639"><ele>453</ele><time>2020-08-05T09:45:53Z</time><name>PT1257</name></trkpt>
<trkpt lat="53.353880" lon="-1.806634"><ele>453</ele><time>2020-08-05T09:45:54Z</time><name>PT1258</name></trkpt>
<trkpt lat="53.353884" lon="-1.806631"><ele>452</ele><time>2020-08-05T09:45:55Z</time><name>PT1259</name></trkpt>
<trkpt lat="53.353892" lon="-1.806621"><ele>452</ele><time>2020-08-05T09:45:56Z</time><name>PT1260</name></trkpt>
<trkpt lat="53.353902" lon="-1.806611"><ele>452</ele><time>2020-08-05T09:45:57Z</time><name>PT1261</name></trkpt>
<trkpt lat="53.353915" lon="-1.806600"><ele>452</ele><time>2020-08-05T09:45:58Z</time><name>PT1262</name></trkpt>
<trkpt lat="53.353925" lon="-1.806592"><ele>451</ele><time>2020-08-05T09:45:59Z</time><name>PT1263</name></trkpt>
<trkpt lat="53.353934" lon="-1.806585"><ele>451</ele><time>2020-08-05T09:46:00Z</time><name>PT1264</name></trkpt>
<trkpt lat="53.353947" lon="-1.806575"><ele>451</ele><time>2020-08-05T09:46:01Z</time><name>PT1265</name></trkpt>
<trkpt lat="53.353957" lon="-1.806566"><ele>450</ele><time>2020-08-05T09:46:02Z</time><name>PT1266</name></trkpt>
<trkpt lat="53.353969" lon="-1.806553"><ele>450</ele><time>2020-08-05T09:46:03Z</time><name>PT1267</name></trkpt>
<trkpt lat="53.353979" lon="-1.806541"><ele>450</ele><time>2020-08-05T09:46:04Z</time><name>PT1268</name></trkpt>
<trkpt lat="53.353989" lon="-1.806533"><ele>450</ele><time>2020-08-05T09:46:05Z</time><name>PT1269</name></trkpt>
<trkpt lat="53.354000" lon="-1.806525"><ele>449</ele><time>2020-08-05T09:46:06Z</time><name>PT1270</name></trkpt>
<trkpt lat="53.354014" lon="-1.806516"><ele>450</ele><time>2020-08-05T09:46:07Z</time><name>PT1271</name></trkpt>
<trkpt lat="53.354024" lon="-1.806505"><ele>449</ele><time>2020-08-05T09:46:08Z</time><name>PT1272</name></trkpt>
<trkpt lat="53.354033" lon="-1.806496"><ele>449</ele><time>2020-08-05T09:46:09Z</time><name>PT1273</name></trkpt>
<trkpt lat="53.354043" lon="-1.806487"><ele>449</ele><time>2020-08-05T09:46:10Z</time><name>PT1274</name></trkpt>
<trkpt lat="53.354054" lon="-1.806479"><ele>449</ele><time>2020-08-05T09:46:11Z</time><name>PT1275</name></trkpt>
<trkpt lat="53.354065" lon="-1.806469"><ele>449</ele><time>2020-08-05T09:46:12Z</time><name>PT1276</name></trkpt>
<trkpt lat="53.354075" lon="-1.806461"><ele>448</ele><time>2020-08-05T09:46:13Z</time><name>PT1277</name></trkpt>
<trkpt lat="53.354086" lon="-1.806452"><ele>448</ele><time>2020-08-05T09:46:14Z</time><name>PT1278</name></trkpt>
<trkpt lat="53.354097" lon="-1.806444"><ele>448</ele><time>2020-08-05T09:46:15Z</time><name>PT1279</name></trkpt>
<trkpt lat="53.354108" lon="-1.806436"><ele>447</ele><time>2020-08-05T09:46:16Z</time><name>PT1280</name></trkpt>
<trkpt lat="53.354121" lon="-1.806425"><ele>447</ele><time>2020-08-05T09:46:17Z</time><name>PT1281</name></trkpt>
<trkpt lat="53.354132" lon="-1.806413"><ele>447</ele><time>2020-08-05T09:46:18Z</time><name>PT1282</name></trkpt>
<trkpt lat="53.354145" lon="-1.806401"><ele>447</ele><time>2020-08-05T09:46:19Z</time><name>PT1283</name></trkpt>
<trkpt lat="53.354157" lon="-1.806393"><ele>447</ele><time>2020-08-05T09:46:20Z</time><name>PT1284</name></trkpt>
<trkpt lat="53.354168" lon="-1.806383"><ele>447</ele><time>2020-08-05T09:46:21Z</time><name>PT1285</name></trkpt>
<trkpt lat="53.354179" lon="-1.806371"><ele>446</ele><time>2020-08-05T09:46:22Z</time><name>PT1286</name></trkpt>
<trkpt lat="53.354187" lon="-1.806364"><ele>445</ele><time>2020-08-05T09:46:23Z</time><name>PT1287</name></trkpt>
<trkpt lat="53.354196" lon="-1.806356"><ele>445</ele><time>2020-08-05T09:46:24Z</time><name>PT1288</name></trkpt>
<trkpt lat="53.354206" lon="-1.806346"><ele>445</ele><time>2020-08-05T09:46:25Z</time><name>PT1289</name></trkpt>
<trkpt lat="53.354214" lon="-1.806336"><ele>445</ele><time>2020-08-05T09:46:26Z</time><name>PT1290</name></trkpt>
<trkpt lat="53.354225" lon="-1.806320"><ele>445</ele><time>2020-08-05T09:46:27Z</time><name>PT1291</name></trkpt>
<trkpt lat="53.354237" lon="-1.806309"><ele>446</ele><time>2020-08-05T09:46:28Z</time><name>PT1292</name></trkpt>
<trkpt lat="53.354249" lon="-1.806298"><ele>447</ele><time>2020-08-05T09:46:29Z</time><name>PT1293</name></trkpt>
<trkpt lat="53.354259" lon="-1.806292"><ele>446</ele><time>2020-08-05T09:46:30Z</time><name>PT1294</name></trkpt>
<trkpt lat="53.354266" lon="-1.806286"><ele>446</ele><time>2020-08-05T09:46:31Z</time><name>PT1295</name></trkpt>
<trkpt lat="53.354274" lon="-1.806277"><ele>446</ele><time>2020-08-05T09:46:32Z</time><name>PT1296</name></trkpt>
<trkpt lat="53.354282" lon="-1.806270"><ele>446</ele><time>2020-08-05T09:46:33Z</time><name>PT1297</name></trkpt>
<trkpt lat="53.354294" lon="-1.806259"><ele>446</ele><time>2020-08-05T09:46:34Z</time><name>PT1298</name></trkpt>
<trkpt lat="53.354307" lon="-1.806249"><ele>445</ele><time>2020-08-05T09:46:35Z</time><name>PT1299</name></trkpt>
<trkpt lat="53.354321" lon="-1.806233"><ele>445</ele><time>2020-08-05T09:46:36Z</time><name>PT1300</name></trkpt>
<trkpt lat="53.354332" lon="-1.806222"><ele>445</ele><time>2020-08-05T09:46:37Z</time><name>PT1301</name></trkpt>
<trkpt lat="53.354343" lon="-1.806210"><ele>445</ele><time>2020-08-05T09:46:38Z</time><name>PT1302</name></trkpt>
<trkpt lat="53.354355" lon="-1.806193"><ele>444</ele><time>2020-08-05T09:46:39Z</time><name>PT1303</name></trkpt>
<trkpt lat="53.354368" lon="-1.806175"><ele>444</ele><time>2020-08-05T09:46:40Z</time><name>PT1304</name></trkpt>
<trkpt lat="53.354382" lon="-1.806162"><ele>444</ele><time>2020-08-05T09:46:41Z</time><name>PT1305</name></trkpt>
<trkpt lat="53.354393" lon="-1.806150"><ele>445</ele><time>2020-08-05T09:46:42Z</time><name>PT1306</name></trkpt>
<trkpt lat="53.354404" lon="-1.806142"><ele>445</ele><time>2020-08-05T09:46:43Z</time><name>PT1307</name></trkpt>
<trkpt lat="53.354415" lon="-1.806133"><ele>444</ele><time>2020-08-05T09:46:44Z</time><name>PT1308</name></trkpt>
<trkpt lat="53.354428" lon="-1.806123"><ele>444</ele><time>2020-08-05T09:46:45Z</time><name>PT1309</name></trkpt>
<trkpt lat="53.354437" lon="-1.806111"><ele>444</ele><time>2020-08-05T09:46:46Z</time><name>PT1310</name></trkpt>
<trkpt lat="53.354449" lon="-1.806100"><ele>445</ele><time>2020-08-05T09:46:47Z</time><name>PT1311</name></trkpt>
<trkpt lat="53.354461" lon="-1.806090"><ele>444</ele><time>2020-08-05T09:46:48Z</time><name>PT1312</name></trkpt>
<trkpt lat="53.354472" lon="-1.806085"><ele>445</ele><time>2020-08-05T09:46:49Z</time><name>PT1313</name></trkpt>
<trkpt lat="53.354483" lon="-1.806073"><ele>445</ele><time>2020-08-05T09:46:50Z</time><name>PT1314</name></trkpt>
<trkpt lat="53.354496" lon="-1.806060"><ele>445</ele><time>2020-08-05T09:46:51Z</time><name>PT1315</name></trkpt>
<trkpt lat="53.354506" lon="-1.806047"><ele>445</ele><time>2020-08-05T09:46:52Z</time><name>PT1316</name></trkpt>
<trkpt lat="53.354512" lon="-1.806038"><ele>445</ele><time>2020-08-05T09:46:53Z</time><name>PT1317</name></trkpt>
<trkpt lat="53.354520" lon="-1.806029"><ele>445</ele><time>2020-08-05T09:46:54Z</time><name>PT1318</name></trkpt>
<trkpt lat="53.354528" lon="-1.806018"><ele>445</ele><time>2020-08-05T09:46:55Z</time><name>PT1319</name></trkpt>
<trkpt lat="53.354536" lon="-1.806005"><ele>444</ele><time>2020-08-05T09:46:56Z</time><name>PT1320</name></trkpt>
<trkpt lat="53.354547" lon="-1.805992"><ele>444</ele><time>2020-08-05T09:46:57Z</time><name>PT1321</name></trkpt>
<trkpt lat="53.354557" lon="-1.805980"><ele>444</ele><time>2020-08-05T09:46:58Z</time><name>PT1322</name></trkpt>
<trkpt lat="53.354572" lon="-1.805966"><ele>445</ele><time>2020-08-05T09:46:59Z</time><name>PT1323</name></trkpt>
<trkpt lat="53.354583" lon="-1.805952"><ele>446</ele><time>2020-08-05T09:47:00Z</time><name>PT1324</name></trkpt>
<trkpt lat="53.354592" lon="-1.805939"><ele>445</ele><time>2020-08-05T09:47:01Z</time><name>PT1325</name></trkpt>
<trkpt lat="53.354601" lon="-1.805927"><ele>445</ele><time>2020-08-05T09:47:02Z</time><name>PT1326</name></trkpt>
<trkpt lat="53.354613" lon="-1.805921"><ele>446</ele><time>2020-08-05T09:47:03Z</time><name>PT1327</name></trkpt>
<trkpt lat="53.354623" lon="-1.805910"><ele>446</ele><time>2020-08-05T09:47:04Z</time><name>PT1328</name></trkpt>
<trkpt lat="53.354629" lon="-1.805896"><ele>445</ele><time>2020-08-05T09:47:05Z</time><name>PT1329</name></trkpt>
<trkpt lat="53.354640" lon="-1.805882"><ele>445</ele><time>2020-08-05T09:47:06Z</time><name>PT1330</name></trkpt>
<trkpt lat="53.354649" lon="-1.805872"><ele>444</ele><time>2020-08-05T09:47:07Z</time><name>PT1331</name></trkpt>
<trkpt lat="53.354659" lon="-1.805860"><ele>444</ele><time>2020-08-05T09:47:08Z</time><name>PT1332</name></trkpt>
<trkpt lat="53.354669" lon="-1.805853"><ele>444</ele><time>2020-08-05T09:47:09Z</time><name>PT1333</name></trkpt>
<trkpt lat="53.354682" lon="-1.805844"><ele>444</ele><time>2020-08-05T09:47:10Z</time><name>PT1334</name></trkpt>
<trkpt lat="53.354692" lon="-1.805834"><ele>444</ele><time>2020-08-05T09:47:11Z</time><name>PT1335</name></trkpt>
<trkpt lat="53.354699" lon="-1.805825"><ele>444</ele><time>2020-08-05T09:47:12Z</time><name>PT1336</name></trkpt>
<trkpt lat="53.354708" lon="-1.805812"><ele>443</ele><time>2020-08-05T09:47:13Z</time><name>PT1337</name></trkpt>
<trkpt lat="53.354720" lon="-1.805800"><ele>443</ele><time>2020-08-05T09:47:14Z</time><name>PT1338</name></trkpt>
<trkpt lat="53.354730" lon="-1.805791"><ele>443</ele><time>2020-08-05T09:47:15Z</time><name>PT1339</name></trkpt>
<trkpt lat="53.354740" lon="-1.805783"><ele>443</ele><time>2020-08-05T09:47:16Z</time><name>PT1340</name></trkpt>
<trkpt lat="53.354749" lon="-1.805774"><ele>443</ele><time>2020-08-05T09:47:17Z</time><name>PT1341</name></trkpt>
<trkpt lat="53.354759" lon="-1.805768"><ele>443</ele><time>2020-08-05T09:47:18Z</time><name>PT1342</name></trkpt>
<trkpt lat="53.354771" lon="-1.805755"><ele>443</ele><time>2020-08-05T09:47:19Z</time><name>PT1343</name></trkpt>
<trkpt lat="53.354784" lon="-1.805741"><ele>443</ele><time>2020-08-05T09:47:20Z</time><name>PT1344</name></trkpt>
<trkpt lat="53.354793" lon="-1.805736"><ele>443</ele><time>2020-08-05T09:47:21Z</time><name>PT1345</name></trkpt>
<trkpt lat="53.354806" lon="-1.805732"><ele>443</ele><time>2020-08-05T09:47:22Z</time><name>PT1346</name></trkpt>
<trkpt lat="53.354815" lon="-1.805726"><ele>443</ele><time>2020-08-05T09:47:23Z</time><name>PT1347</name></trkpt>
<trkpt lat="53.354824" lon="-1.805722"><ele>443</ele><time>2020-08-05T09:47:24Z</time><name>PT1348</name></trkpt>
<trkpt lat="53.354837" lon="-1.805718"><ele>443</ele><time>2020-08-05T09:47:25Z</time><name>PT1349</name></trkpt>
<trkpt lat="53.354847" lon="-1.805711"><ele>442</ele><time>2020-08-05T09:47:26Z</time><name>PT1350</name></trkpt>
<trkpt lat="53.354858" lon="-1.805706"><ele>443</ele><time>2020-08-05T09:47:27Z</time><name>PT1351</name></trkpt>
<trkpt lat="53.354867" lon="-1.805707"><ele>442</ele><time>2020-08-05T09:47:28Z</time><name>PT1352</name></trkpt>
<trkpt lat="53.354880" lon="-1.805702"><ele>443</ele><time>2020-08-05T09:47:29Z</time><name>PT1353</name></trkpt>
<trkpt lat="53.354891" lon="-1.805698"><ele>443</ele><time>2020-08-05T09:47:30Z</time><name>PT1354</name></trkpt>
<trkpt lat="53.354903" lon="-1.805691"><ele>443</ele><time>2020-08-05T09:47:31Z</time><name>PT1355</name></trkpt>
<trkpt lat="53.354914" lon="-1.805687"><ele>443</ele><time>2020-08-05T09:47:32Z</time><name>PT1356</name></trkpt>
<trkpt lat="53.354925" lon="-1.805684"><ele>443</ele><time>2020-08-05T09:47:33Z</time><name>PT1357</name></trkpt>
<trkpt lat="53.354938" lon="-1.805680"><ele>443</ele><time>2020-08-05T09:47:34Z</time><name>PT1358</name></trkpt>
<trkpt lat="53.354949" lon="-1.805675"><ele>443</ele><time>2020-08-05T09:47:35Z</time><name>PT1359</name></trkpt>
<trkpt lat="53.354962" lon="-1.805667"><ele>443</ele><time>2020-08-05T09:47:36Z</time><name>PT1360</name></trkpt>
<trkpt lat="53.354973" lon="-1.805660"><ele>443</ele><time>2020-08-05T09:47:37Z</time><name>PT1361</name></trkpt>
<trkpt lat="53.354982" lon="-1.805656"><ele>443</ele><time>2020-08-05T09:47:38Z</time><name>PT1362</name></trkpt>
<trkpt lat="53.354993" lon="-1.805650"><ele>443</ele><time>2020-08-05T09:47:39Z</time><name>PT1363</name></trkpt>
<trkpt lat="53.355004" lon="-1.805637"><ele>443</ele><time>2020-08-05T09:47:40Z</time><name>PT1364</name></trkpt>
<trkpt lat="53.355012" lon="-1.805626"><ele>442</ele><time>2020-08-05T09:47:41Z</time><name>PT1365</name></trkpt>
<trkpt lat="53.355021" lon="-1.805617"><ele>442</ele><time>2020-08-05T09:47:42Z</time><name>PT1366</name></trkpt>
<trkpt lat="53.355033" lon="-1.805607"><ele>442</ele><time>2020-08-05T09:47:43Z</time><name>PT1367</name></trkpt>
<trkpt lat="53.355045" lon="-1.805596"><ele>442</ele><time>2020-08-05T09:47:44Z</time><name>PT1368</name></trkpt>
<trkpt lat="53.355057" lon="-1.805586"><ele>442</ele><time>2020-08-05T09:47:45Z</time><name>PT1369</name></trkpt>
<trkpt lat="53.355066" lon="-1.805578"><ele>441</ele><time>2020-08-05T09:47:46Z</time><name>PT1370</name></trkpt>
<trkpt lat="53.355075" lon="-1.805566"><ele>441</ele><time>2020-08-05T09:47:47Z</time><name>PT1371</name></trkpt>
<trkpt lat="53.355086" lon="-1.805551"><ele>442</ele><time>2020-08-05T09:47:48Z</time><name>PT1372</name></trkpt>
<trkpt lat="53.355094" lon="-1.805540"><ele>442</ele><time>2020-08-05T09:47:49Z</time><name>PT1373</name></trkpt>
<trkpt lat="53.355103" lon="-1.805528"><ele>441</ele><time>2020-08-05T09:47:50Z</time><name>PT1374</name></trkpt>
<trkpt lat="53.355110" lon="-1.805519"><ele>441</ele><time>2020-08-05T09:47:51Z</time><name>PT1375</name></trkpt>
<trkpt lat="53.355118" lon="-1.805510"><ele>440</ele><time>2020-08-05T09:47:52Z</time><name>PT1376</name></trkpt>
<trkpt lat="53.355129" lon="-1.805494"><ele>440</ele><time>2020-08-05T09:47:53Z</time><name>PT1377</name></trkpt>
<trkpt lat="53.355139" lon="-1.805480"><ele>440</ele><time>2020-08-05T09:47:54Z</time><name>PT1378</name></trkpt>
<trkpt lat="53.355147" lon="-1.805465"><ele>440</ele><time>2020-08-05T09:47:55Z</time><name>PT1379</name></trkpt>
<trkpt lat="53.355157" lon="-1.805451"><ele>440</ele><time>2020-08-05T09:47:56Z</time><name>PT1380</name></trkpt>
<trkpt lat="53.355168" lon="-1.805438"><ele>440</ele><time>2020-08-05T09:47:57Z</time><name>PT1381</name></trkpt>
<trkpt lat="53.355177" lon="-1.805427"><ele>440</ele><time>2020-08-05T09:47:58Z</time><name>PT1382</name></trkpt>
<trkpt lat="53.355184" lon="-1.805413"><ele>439</ele><time>2020-08-05T09:47:59Z</time><name>PT1383</name></trkpt>
<trkpt lat="53.355189" lon="-1.805397"><ele>438</ele><time>2020-08-05T09:48:00Z</time><name>PT1384</name></trkpt>
<trkpt lat="53.355196" lon="-1.805380"><ele>438</ele><time>2020-08-05T09:48:01Z</time><name>PT1385</name></trkpt>
<trkpt lat="53.355206" lon="-1.805369"><ele>438</ele><time>2020-08-05T09:48:02Z</time><name>PT1386</name></trkpt>
<trkpt lat="53.355218" lon="-1.805355"><ele>439</ele><time>2020-08-05T09:48:03Z</time><name>PT1387</name></trkpt>
<trkpt lat="53.355227" lon="-1.805341"><ele>439</ele><time>2020-08-05T09:48:04Z</time><name>PT1388</name></trkpt>
<trkpt lat="53.355237" lon="-1.805330"><ele>439</ele><time>2020-08-05T09:48:05Z</time><name>PT1389</name></trkpt>
<trkpt lat="53.355246" lon="-1.805317"><ele>439</ele><time>2020-08-05T09:48:06Z</time><name>PT1390</name></trkpt>
<trkpt lat="53.355255" lon="-1.805301"><ele>438</ele><time>2020-08-05T09:48:07Z</time><name>PT1391</name></trkpt>
<trkpt lat="53.355267" lon="-1.805289"><ele>438</ele><time>2020-08-05T09:48:08Z</time><name>PT1392</name></trkpt>
<trkpt lat="53.355276" lon="-1.805274"><ele>438</ele><time>2020-08-05T09:48:09Z</time><name>PT1393</name></trkpt>
<trkpt lat="53.355285" lon="-1.805259"><ele>438</ele><time>2020-08-05T09:48:10Z</time><name>PT1394</name></trkpt>
<trkpt lat="53.355294" lon="-1.805243"><ele>438</ele><time>2020-08-05T09:48:11Z</time><name>PT1395</name></trkpt>
<trkpt lat="53.355302" lon="-1.805227"><ele>437</ele><time>2020-08-05T09:48:12Z</time><name>PT1396</name></trkpt>
<trkpt lat="53.355312" lon="-1.805210"><ele>437</ele><time>2020-08-05T09:48:13Z</time><name>PT1397</name></trkpt>
<trkpt lat="53.355323" lon="-1.805197"><ele>437</ele><time>2020-08-05T09:48:14Z</time><name>PT1398</name></trkpt>
<trkpt lat="53.355332" lon="-1.805184"><ele>436</ele><time>2020-08-05T09:48:15Z</time><name>PT1399</name></trkpt>
<trkpt lat="53.355342" lon="-1.805168"><ele>436</ele><time>2020-08-05T09:48:16Z</time><name>PT1400</name></trkpt>
<trkpt lat="53.355347" lon="-1.805152"><ele>435</ele><time>2020-08-05T09:48:17Z</time><name>PT1401</name></trkpt>
<trkpt lat="53.355355" lon="-1.805135"><ele>435</ele><time>2020-08-05T09:48:18Z</time><name>PT1402</name></trkpt>
<trkpt lat="53.355365" lon="-1.805118"><ele>435</ele><time>2020-08-05T09:48:19Z</time><name>PT1403</name></trkpt>
<trkpt lat="53.355374" lon="-1.805102"><ele>435</ele><time>2020-08-05T09:48:20Z</time><name>PT1404</name></trkpt>
<trkpt lat="53.355385" lon="-1.805090"><ele>435</ele><time>2020-08-05T09:48:21Z</time><name>PT1405</name></trkpt>
<trkpt lat="53.355397" lon="-1.805077"><ele>434</ele><time>2020-08-05T09:48:22Z</time><name>PT1406</name></trkpt>
<trkpt lat="53.355408" lon="-1.805065"><ele>434</ele><time>2020-08-05T09:48:23Z</time><name>PT1407</name></trkpt>
<trkpt lat="53.355417" lon="-1.805049"><ele>434</ele><time>2020-08-05T09:48:24Z</time><name>PT1408</name></trkpt>
<trkpt lat="53.355425" lon="-1.805032"><ele>434</ele><time>2020-08-05T09:48:25Z</time><name>PT1409</name></trkpt>
<trkpt lat="53.355432" lon="-1.805016"><ele>434</ele><time>2020-08-05T09:48:26Z</time><name>PT1410</name></trkpt>
<trkpt lat="53.355440" lon="-1.804997"><ele>434</ele><time>2020-08-05T09:48:27Z</time><name>PT1411</name></trkpt>
<trkpt lat="53.355446" lon="-1.804981"><ele>433</ele><time>2020-08-05T09:48:28Z</time><name>PT1412</name></trkpt>
<trkpt lat="53.355454" lon="-1.804958"><ele>436</ele><time>2020-08-05T09:48:29Z</time><name>PT1413</name></trkpt>
<trkpt lat="53.355463" lon="-1.804937"><ele>436</ele><time>2020-08-05T09:48:30Z</time><name>PT1414</name></trkpt>
<trkpt lat="53.355472" lon="-1.804918"><ele>437</ele><time>2020-08-05T09:48:31Z</time><name>PT1415</name></trkpt>
<trkpt lat="53.355481" lon="-1.804897"><ele>438</ele><time>2020-08-05T09:48:32Z</time><name>PT1416</name></trkpt>
<trkpt lat="53.355491" lon="-1.804881"><ele>438</ele><time>2020-08-05T09:48:33Z</time><name>PT1417</name></trkpt>
<trkpt lat="53.355499" lon="-1.804863"><ele>438</ele><time>2020-08-05T09:48:34Z</time><name>PT1418</name></trkpt>
<trkpt lat="53.355504" lon="-1.804843"><ele>437</ele><time>2020-08-05T09:48:35Z</time><name>PT1419</name></trkpt>
<trkpt lat="53.355511" lon="-1.804828"><ele>437</ele><time>2020-08-05T09:48:36Z</time><name>PT1420</name></trkpt>
<trkpt lat="53.355521" lon="-1.804815"><ele>437</ele><time>2020-08-05T09:48:37Z</time><name>PT1421</name></trkpt>
<trkpt lat="53.355530" lon="-1.804799"><ele>438</ele><time>2020-08-05T09:48:38Z</time><name>PT1422</name></trkpt>
<trkpt lat="53.355539" lon="-1.804785"><ele>438</ele><time>2020-08-05T09:48:39Z</time><name>PT1423</name></trkpt>
<trkpt lat="53.355548" lon="-1.804768"><ele>437</ele><time>2020-08-05T09:48:40Z</time><name>PT1424</name></trkpt>
<trkpt lat="53.355560" lon="-1.804752"><ele>437</ele><time>2020-08-05T09:48:41Z</time><name>PT1425</name></trkpt>
<trkpt lat="53.355569" lon="-1.804742"><ele>437</ele><time>2020-08-05T09:48:42Z</time><name>PT1426</name></trkpt>
<trkpt lat="53.355579" lon="-1.804732"><ele>436</ele><time>2020-08-05T09:48:43Z</time><name>PT1427</name></trkpt>
<trkpt lat="53.355590" lon="-1.804719"><ele>437</ele><time>2020-08-05T09:48:44Z</time><name>PT1428</name></trkpt>
<trkpt lat="53.355599" lon="-1.804706"><ele>437</ele><time>2020-08-05T09:48:45Z</time><name>PT1429</name></trkpt>
<trkpt lat="53.355609" lon="-1.804695"><ele>437</ele><time>2020-08-05T09:48:46Z</time><name>PT1430</name></trkpt>
<trkpt lat="53.355620" lon="-1.804684"><ele>437</ele><time>2020-08-05T09:48:47Z</time><name>PT1431</name></trkpt>
<trkpt lat="53.355626" lon="-1.804670"><ele>436</ele><time>2020-08-05T09:48:48Z</time><name>PT1432</name></trkpt>
<trkpt lat="53.355636" lon="-1.804662"><ele>436</ele><time>2020-08-05T09:48:49Z</time><name>PT1433</name></trkpt>
<trkpt lat="53.355648" lon="-1.804654"><ele>436</ele><time>2020-08-05T09:48:50Z</time><name>PT1434</name></trkpt>
<trkpt lat="53.355656" lon="-1.804644"><ele>436</ele><time>2020-08-05T09:48:51Z</time><name>PT1435</name></trkpt>
<trkpt lat="53.355662" lon="-1.804634"><ele>435</ele><time>2020-08-05T09:48:52Z</time><name>PT1436</name></trkpt>
<trkpt lat="53.355665" lon="-1.804626"><ele>435</ele><time>2020-08-05T09:48:53Z</time><name>PT1437</name></trkpt>
<trkpt lat="53.355667" lon="-1.804625"><ele>435</ele><time>2020-08-05T09:48:54Z</time><name>PT1438</name></trkpt>
<trkpt lat="53.355674" lon="-1.804628"><ele>434</ele><time>2020-08-05T09:48:55Z</time><name>PT1439</name></trkpt>
<trkpt lat="53.355679" lon="-1.804627"><ele>434</ele><time>2020-08-05T09:48:56Z</time><name>PT1440</name></trkpt>
<trkpt lat="53.355682" lon="-1.804627"><ele>434</ele><time>2020-08-05T09:48:57Z</time><name>PT1441</name></trkpt>
<trkpt lat="53.355684" lon="-1.804632"><ele>434</ele><time>2020-08-05T09:48:58Z</time><name>PT1442</name></trkpt>
<trkpt lat="53.355685" lon="-1.804631"><ele>434</ele><time>2020-08-05T09:48:59Z</time><name>PT1443</name></trkpt>
<trkpt lat="53.355687" lon="-1.804626"><ele>434</ele><time>2020-08-05T09:49:00Z</time><name>PT1444</name></trkpt>
<trkpt lat="53.355690" lon="-1.804621"><ele>433</ele><time>2020-08-05T09:49:01Z</time><name>PT1445</name></trkpt>
<trkpt lat="53.355696" lon="-1.804611"><ele>434</ele><time>2020-08-05T09:49:02Z</time><name>PT1446</name></trkpt>
<trkpt lat="53.355707" lon="-1.804594"><ele>434</ele><time>2020-08-05T09:49:03Z</time><name>PT1447</name></trkpt>
<trkpt lat="53.355716" lon="-1.804578"><ele>433</ele><time>2020-08-05T09:49:04Z</time><name>PT1448</name></trkpt>
<trkpt lat="53.355726" lon="-1.804562"><ele>434</ele><time>2020-08-05T09:49:05Z</time><name>PT1449</name></trkpt>
<trkpt lat="53.355733" lon="-1.804546"><ele>433</ele><time>2020-08-05T09:49:06Z</time><name>PT1450</name></trkpt>
<trkpt lat="53.355743" lon="-1.804531"><ele>433</ele><time>2020-08-05T09:49:07Z</time><name>PT1451</name></trkpt>
<trkpt lat="53.355751" lon="-1.804512"><ele>433</ele><time>2020-08-05T09:49:08Z</time><name>PT1452</name></trkpt>
<trkpt lat="53.355759" lon="-1.804493"><ele>432</ele><time>2020-08-05T09:49:09Z</time><name>PT1453</name></trkpt>
<trkpt lat="53.355767" lon="-1.804470"><ele>433</ele><time>2020-08-05T09:49:10Z</time><name>PT1454</name></trkpt>
<trkpt lat="53.355772" lon="-1.804449"><ele>433</ele><time>2020-08-05T09:49:11Z</time><name>PT1455</name></trkpt>
<trkpt lat="53.355780" lon="-1.804428"><ele>433</ele><time>2020-08-05T09:49:12Z</time><name>PT1456</name></trkpt>
<trkpt lat="53.355788" lon="-1.804408"><ele>433</ele><time>2020-08-05T09:49:13Z</time><name>PT1457</name></trkpt>
<trkpt lat="53.355797" lon="-1.804395"><ele>433</ele><time>2020-08-05T09:49:14Z</time><name>PT1458</name></trkpt>
<trkpt lat="53.355805" lon="-1.804379"><ele>432</ele><time>2020-08-05T09:49:15Z</time><name>PT1459</name></trkpt>
<trkpt lat="53.355814" lon="-1.804367"><ele>433</ele><time>2020-08-05T09:49:16Z</time><name>PT1460</name></trkpt>
<trkpt lat="53.355823" lon="-1.804352"><ele>433</ele><time>2020-08-05T09:49:17Z</time><name>PT1461</name></trkpt>
<trkpt lat="53.355831" lon="-1.804333"><ele>432</ele><time>2020-08-05T09:49:18Z</time><name>PT1462</name></trkpt>
<trkpt lat="53.355835" lon="-1.804316"><ele>432</ele><time>2020-08-05T09:49:19Z</time><name>PT1463</name></trkpt>
<trkpt lat="53.355841" lon="-1.804298"><ele>432</ele><time>2020-08-05T09:49:20Z</time><name>PT1464</name></trkpt>
<trkpt lat="53.355846" lon="-1.804282"><ele>432</ele><time>2020-08-05T09:49:21Z</time><name>PT1465</name></trkpt>
<trkpt lat="53.355854" lon="-1.804269"><ele>432</ele><time>2020-08-05T09:49:22Z</time><name>PT1466</name></trkpt>
<trkpt lat="53.355861" lon="-1.804254"><ele>430</ele><time>2020-08-05T09:49:23Z</time><name>PT1467</name></trkpt>
<trkpt lat="53.355865" lon="-1.804240"><ele>429</ele><time>2020-08-05T09:49:24Z</time><name>PT1468</name></trkpt>
<trkpt lat="53.355870" lon="-1.804230"><ele>429</ele><time>2020-08-05T09:49:25Z</time><name>PT1469</name></trkpt>
<trkpt lat="53.355877" lon="-1.804217"><ele>429</ele><time>2020-08-05T09:49:26Z</time><name>PT1470</name></trkpt>
<trkpt lat="53.355883" lon="-1.804198"><ele>429</ele><time>2020-08-05T09:49:27Z</time><name>PT1471</name></trkpt>
<trkpt lat="53.355889" lon="-1.804180"><ele>428</ele><time>2020-08-05T09:49:28Z</time><name>PT1472</name></trkpt>
<trkpt lat="53.355894" lon="-1.804168"><ele>428</ele><time>2020-08-05T09:49:29Z</time><name>PT1473</name></trkpt>
<trkpt lat="53.355900" lon="-1.804153"><ele>428</ele><time>2020-08-05T09:49:30Z</time><name>PT1474</name></trkpt>
<trkpt lat="53.355908" lon="-1.804135"><ele>428</ele><time>2020-08-05T09:49:31Z</time><name>PT1475</name></trkpt>
<trkpt lat="53.355914" lon="-1.804122"><ele>427</ele><time>2020-08-05T09:49:32Z</time><name>PT1476</name></trkpt>
<trkpt lat="53.355924" lon="-1.804104"><ele>427</ele><time>2020-08-05T09:49:33Z</time><name>PT1477</name></trkpt>
<trkpt lat="53.355934" lon="-1.804079"><ele>427</ele><time>2020-08-05T09:49:34Z</time><name>PT1478</name></trkpt>
<trkpt lat="53.355941" lon="-1.804066"><ele>427</ele><time>2020-08-05T09:49:35Z</time><name>PT1479</name></trkpt>
<trkpt lat="53.355951" lon="-1.804050"><ele>427</ele><time>2020-08-05T09:49:36Z</time><name>PT1480</name></trkpt>
<trkpt lat="53.355959" lon="-1.804032"><ele>427</ele><time>2020-08-05T09:49:37Z</time><name>PT1481</name></trkpt>
<trkpt lat="53.355966" lon="-1.804014"><ele>427</ele><time>2020-08-05T09:49:38Z</time><name>PT1482</name></trkpt>
<trkpt lat="53.355973" lon="-1.803995"><ele>427</ele><time>2020-08-05T09:49:39Z</time><name>PT1483</name></trkpt>
<trkpt lat="53.355983" lon="-1.803984"><ele>427</ele><time>2020-08-05T09:49:40Z</time><name>PT1484</name></trkpt>
<trkpt lat="53.355987" lon="-1.803969"><ele>426</ele><time>2020-08-05T09:49:41Z</time><name>PT1485</name></trkpt>
<trkpt lat="53.355995" lon="-1.803954"><ele>426</ele><time>2020-08-05T09:49:42Z</time><name>PT1486</name></trkpt>
<trkpt lat="53.356001" lon="-1.803938"><ele>426</ele><time>2020-08-05T09:49:43Z</time><name>PT1487</name></trkpt>
<trkpt lat="53.356008" lon="-1.803923"><ele>425</ele><time>2020-08-05T09:49:44Z</time><name>PT1488</name></trkpt>
<trkpt lat="53.356013" lon="-1.803907"><ele>425</ele><time>2020-08-05T09:49:45Z</time><name>PT1489</name></trkpt>
<trkpt lat="53.356018" lon="-1.803889"><ele>424</ele><time>2020-08-05T09:49:46Z</time><name>PT1490</name></trkpt>
<trkpt lat="53.356024" lon="-1.803870"><ele>425</ele><time>2020-08-05T09:49:47Z</time><name>PT1491</name></trkpt>
<trkpt lat="53.356031" lon="-1.803852"><ele>425</ele><time>2020-08-05T09:49:48Z</time><name>PT1492</name></trkpt>
<trkpt lat="53.356041" lon="-1.803836"><ele>424</ele><time>2020-08-05T09:49:49Z</time><name>PT1493</name></trkpt>
<trkpt lat="53.356049" lon="-1.803820"><ele>424</ele><time>2020-08-05T09:49:50Z</time><name>PT1494</name></trkpt>
<trkpt lat="53.356056" lon="-1.803799"><ele>424</ele><time>2020-08-05T09:49:51Z</time><name>PT1495</name></trkpt>
<trkpt lat="53.356062" lon="-1.803781"><ele>423</ele><time>2020-08-05T09:49:52Z</time><name>PT1496</name></trkpt>
<trkpt lat="53.356068" lon="-1.803765"><ele>423</ele><time>2020-08-05T09:49:53Z</time><name>PT1497</name></trkpt>
<trkpt lat="53.356074" lon="-1.803746"><ele>423</ele><time>2020-08-05T09:49:54Z</time><name>PT1498</name></trkpt>
<trkpt lat="53.356080" lon="-1.803729"><ele>423</ele><time>2020-08-05T09:49:55Z</time><name>PT1499</name></trkpt>
<trkpt lat="53.356086" lon="-1.803713"><ele>422</ele><time>2020-08-05T09:49:56Z</time><name>PT1500</name></trkpt>
<trkpt lat="53.356092" lon="-1.803698"><ele>423</ele><time>2020-08-05T09:49:57Z</time><name>PT1501</name></trkpt>
<trkpt lat="53.356099" lon="-1.803678"><ele>423</ele><time>2020-08-05T09:49:58Z</time><name>PT1502</name></trkpt>
<trkpt lat="53.356108" lon="-1.803661"><ele>423</ele><time>2020-08-05T09:49:59Z</time><name>PT1503</name></trkpt>
<trkpt lat="53.356113" lon="-1.803642"><ele>422</ele><time>2020-08-05T09:50:00Z</time><name>PT1504</name></trkpt>
<trkpt lat="53.356122" lon="-1.803626"><ele>422</ele><time>2020-08-05T09:50:01Z</time><name>PT1505</name></trkpt>
<trkpt lat="53.356128" lon="-1.803602"><ele>422</ele><time>2020-08-05T09:50:02Z</time><name>PT1506</name></trkpt>
<trkpt lat="53.356136" lon="-1.803582"><ele>421</ele><time>2020-08-05T09:50:03Z</time><name>PT1507</name></trkpt>
<trkpt lat="53.356146" lon="-1.803563"><ele>422</ele><time>2020-08-05T09:50:04Z</time><name>PT1508</name></trkpt>
<trkpt lat="53.356152" lon="-1.803549"><ele>422</ele><time>2020-08-05T09:50:05Z</time><name>PT1509</name></trkpt>
<trkpt lat="53.356157" lon="-1.803535"><ele>422</ele><time>2020-08-05T09:50:06Z</time><name>PT1510</name></trkpt>
<trkpt lat="53.356164" lon="-1.803517"><ele>421</ele><time>2020-08-05T09:50:07Z</time><name>PT1511</name></trkpt>
<trkpt lat="53.356171" lon="-1.803502"><ele>421</ele><time>2020-08-05T09:50:08Z</time><name>PT1512</name></trkpt>
<trkpt lat="53.356177" lon="-1.803482"><ele>421</ele><time>2020-08-05T09:50:09Z</time><name>PT1513</name></trkpt>
<trkpt lat="53.356187" lon="-1.803456"><ele>422</ele><time>2020-08-05T09:50:10Z</time><name>PT1514</name></trkpt>
<trkpt lat="53.356194" lon="-1.803441"><ele>422</ele><time>2020-08-05T09:50:11Z</time><name>PT1515</name></trkpt>
<trkpt lat="53.356201" lon="-1.803428"><ele>421</ele><time>2020-08-05T09:50:12Z</time><name>PT1516</name></trkpt>
<trkpt lat="53.356211" lon="-1.803415"><ele>421</ele><time>2020-08-05T09:50:13Z</time><name>PT1517</name></trkpt>
<trkpt lat="53.356217" lon="-1.803404"><ele>420</ele><time>2020-08-05T09:50:14Z</time><name>PT1518</name></trkpt>
<trkpt lat="53.356223" lon="-1.803389"><ele>419</ele><time>2020-08-05T09:50:15Z</time><name>PT1519</name></trkpt>
<trkpt lat="53.356230" lon="-1.803372"><ele>419</ele><time>2020-08-05T09:50:16Z</time><name>PT1520</name></trkpt>
<trkpt lat="53.356235" lon="-1.803352"><ele>419</ele><time>2020-08-05T09:50:17Z</time><name>PT1521</name></trkpt>
<trkpt lat="53.356243" lon="-1.803331"><ele>419</ele><time>2020-08-05T09:50:18Z</time><name>PT1522</name></trkpt>
<trkpt lat="53.356251" lon="-1.803313"><ele>420</ele><time>2020-08-05T09:50:19Z</time><name>PT1523</name></trkpt>
<trkpt lat="53.356260" lon="-1.803295"><ele>419</ele><time>2020-08-05T09:50:20Z</time><name>PT1524</name></trkpt>
<trkpt lat="53.356269" lon="-1.803284"><ele>419</ele><time>2020-08-05T09:50:21Z</time><name>PT1525</name></trkpt>
<trkpt lat="53.356271" lon="-1.803266"><ele>418</ele><time>2020-08-05T09:50:22Z</time><name>PT1526</name></trkpt>
<trkpt lat="53.356277" lon="-1.803246"><ele>418</ele><time>2020-08-05T09:50:23Z</time><name>PT1527</name></trkpt>
<trkpt lat="53.356283" lon="-1.803229"><ele>418</ele><time>2020-08-05T09:50:24Z</time><name>PT1528</name></trkpt>
<trkpt lat="53.356290" lon="-1.803211"><ele>418</ele><time>2020-08-05T09:50:25Z</time><name>PT1529</name></trkpt>
<trkpt lat="53.356297" lon="-1.803192"><ele>418</ele><time>2020-08-05T09:50:26Z</time><name>PT1530</name></trkpt>
<trkpt lat="53.356305" lon="-1.803175"><ele>418</ele><time>2020-08-05T09:50:27Z</time><name>PT1531</name></trkpt>
<trkpt lat="53.356314" lon="-1.803162"><ele>418</ele><time>2020-08-05T09:50:28Z</time><name>PT1532</name></trkpt>
<trkpt lat="53.356321" lon="-1.803144"><ele>418</ele><time>2020-08-05T09:50:29Z</time><name>PT1533</name></trkpt>
<trkpt lat="53.356327" lon="-1.803126"><ele>418</ele><time>2020-08-05T09:50:30Z</time><name>PT1534</name></trkpt>
<trkpt lat="53.356332" lon="-1.803108"><ele>418</ele><time>2020-08-05T09:50:31Z</time><name>PT1535</name></trkpt>
<trkpt lat="53.356337" lon="-1.803091"><ele>418</ele><time>2020-08-05T09:50:32Z</time><name>PT1536</name></trkpt>
<trkpt lat="53.356343" lon="-1.803073"><ele>418</ele><time>2020-08-05T09:50:33Z</time><name>PT1537</name></trkpt>
<trkpt lat="53.356349" lon="-1.803055"><ele>418</ele><time>2020-08-05T09:50:34Z</time><name>PT1538</name></trkpt>
<trkpt lat="53.356359" lon="-1.803038"><ele>418</ele><time>2020-08-05T09:50:35Z</time><name>PT1539</name></trkpt>
<trkpt lat="53.356363" lon="-1.803021"><ele>418</ele><time>2020-08-05T09:50:36Z</time><name>PT1540</name></trkpt>
<trkpt lat="53.356368" lon="-1.803000"><ele>418</ele><time>2020-08-05T09:50:37Z</time><name>PT1541</name></trkpt>
<trkpt lat="53.356375" lon="-1.802978"><ele>417</ele><time>2020-08-05T09:50:38Z</time><name>PT1542</name></trkpt>
<trkpt lat="53.356382" lon="-1.802956"><ele>417</ele><time>2020-08-05T09:50:39Z</time><name>PT1543</name></trkpt>
<trkpt lat="53.356390" lon="-1.802939"><ele>417</ele><time>2020-08-05T09:50:40Z</time><name>PT1544</name></trkpt>
<trkpt lat="53.356398" lon="-1.802919"><ele>417</ele><time>2020-08-05T09:50:41Z</time><name>PT1545</name></trkpt>
<trkpt lat="53.356405" lon="-1.802898"><ele>416</ele><time>2020-08-05T09:50:42Z</time><name>PT1546</name></trkpt>
<trkpt lat="53.356416" lon="-1.802876"><ele>417</ele><time>2020-08-05T09:50:43Z</time><name>PT1547</name></trkpt>
<trkpt lat="53.356422" lon="-1.802857"><ele>417</ele><time>2020-08-05T09:50:44Z</time><name>PT1548</name></trkpt>
<trkpt lat="53.356428" lon="-1.802837"><ele>417</ele><time>2020-08-05T09:50:45Z</time><name>PT1549</name></trkpt>
<trkpt lat="53.356432" lon="-1.802824"><ele>417</ele><time>2020-08-05T09:50:46Z</time><name>PT1550</name></trkpt>
<trkpt lat="53.356437" lon="-1.802808"><ele>417</ele><time>2020-08-05T09:50:47Z</time><name>PT1551</name></trkpt>
<trkpt lat="53.356443" lon="-1.802786"><ele>417</ele><time>2020-08-05T09:50:48Z</time><name>PT1552</name></trkpt>
<trkpt lat="53.356452" lon="-1.802767"><ele>416</ele><time>2020-08-05T09:50:49Z</time><name>PT1553</name></trkpt>
<trkpt lat="53.356459" lon="-1.802749"><ele>416</ele><time>2020-08-05T09:50:50Z</time><name>PT1554</name></trkpt>
<trkpt lat="53.356465" lon="-1.802729"><ele>416</ele><time>2020-08-05T09:50:51Z</time><name>PT1555</name></trkpt>
<trkpt lat="53.356474" lon="-1.802711"><ele>416</ele><time>2020-08-05T09:50:52Z</time><name>PT1556</name></trkpt>
<trkpt lat="53.356482" lon="-1.802687"><ele>416</ele><time>2020-08-05T09:50:53Z</time><name>PT1557</name></trkpt>
<trkpt lat="53.356489" lon="-1.802668"><ele>416</ele><time>2020-08-05T09:50:54Z</time><name>PT1558</name></trkpt>
<trkpt lat="53.356495" lon="-1.802651"><ele>416</ele><time>2020-08-05T09:50:55Z</time><name>PT1559</name></trkpt>
<trkpt lat="53.356502" lon="-1.802629"><ele>416</ele><time>2020-08-05T09:50:56Z</time><name>PT1560</name></trkpt>
<trkpt lat="53.356508" lon="-1.802613"><ele>416</ele><time>2020-08-05T09:50:57Z</time><name>PT1561</name></trkpt>
<trkpt lat="53.356517" lon="-1.802596"><ele>416</ele><time>2020-08-05T09:50:58Z</time><name>PT1562</name></trkpt>
<trkpt lat="53.356524" lon="-1.802576"><ele>416</ele><time>2020-08-05T09:50:59Z</time><name>PT1563</name></trkpt>
<trkpt lat="53.356530" lon="-1.802552"><ele>416</ele><time>2020-08-05T09:51:00Z</time><name>PT1564</name></trkpt>
<trkpt lat="53.356537" lon="-1.802532"><ele>416</ele><time>2020-08-05T09:51:01Z</time><name>PT1565</name></trkpt>
<trkpt lat="53.356546" lon="-1.802513"><ele>416</ele><time>2020-08-05T09:51:02Z</time><name>PT1566</name></trkpt>
<trkpt lat="53.356553" lon="-1.802498"><ele>416</ele><time>2020-08-05T09:51:03Z</time><name>PT1567</name></trkpt>
<trkpt lat="53.356560" lon="-1.802482"><ele>415</ele><time>2020-08-05T09:51:04Z</time><name>PT1568</name></trkpt>
<trkpt lat="53.356569" lon="-1.802467"><ele>415</ele><time>2020-08-05T09:51:05Z</time><name>PT1569</name></trkpt>
<trkpt lat="53.356579" lon="-1.802448"><ele>415</ele><time>2020-08-05T09:51:06Z</time><name>PT1570</name></trkpt>
<trkpt lat="53.356586" lon="-1.802429"><ele>415</ele><time>2020-08-05T09:51:07Z</time><name>PT1571</name></trkpt>
<trkpt lat="53.356593" lon="-1.802411"><ele>415</ele><time>2020-08-05T09:51:08Z</time><name>PT1572</name></trkpt>
<trkpt lat="53.356598" lon="-1.802393"><ele>414</ele><time>2020-08-05T09:51:09Z</time><name>PT1573</name></trkpt>
<trkpt lat="53.356604" lon="-1.802374"><ele>413</ele><time>2020-08-05T09:51:10Z</time><name>PT1574</name></trkpt>
<trkpt lat="53.356610" lon="-1.802357"><ele>413</ele><time>2020-08-05T09:51:11Z</time><name>PT1575</name></trkpt>
<trkpt lat="53.356617" lon="-1.802340"><ele>413</ele><time>2020-08-05T09:51:12Z</time><name>PT1576</name></trkpt>
<trkpt lat="53.356625" lon="-1.802320"><ele>413</ele><time>2020-08-05T09:51:13Z</time><name>PT1577</name></trkpt>
<trkpt lat="53.356633" lon="-1.802298"><ele>413</ele><time>2020-08-05T09:51:14Z</time><name>PT1578</name></trkpt>
<trkpt lat="53.356642" lon="-1.802282"><ele>413</ele><time>2020-08-05T09:51:15Z</time><name>PT1579</name></trkpt>
<trkpt lat="53.356648" lon="-1.802265"><ele>413</ele><time>2020-08-05T09:51:16Z</time><name>PT1580</name></trkpt>
<trkpt lat="53.356654" lon="-1.802243"><ele>413</ele><time>2020-08-05T09:51:17Z</time><name>PT1581</name></trkpt>
<trkpt lat="53.356660" lon="-1.802219"><ele>413</ele><time>2020-08-05T09:51:18Z</time><name>PT1582</name></trkpt>
<trkpt lat="53.356665" lon="-1.802196"><ele>412</ele><time>2020-08-05T09:51:19Z</time><name>PT1583</name></trkpt>
<trkpt lat="53.356671" lon="-1.802176"><ele>412</ele><time>2020-08-05T09:51:20Z</time><name>PT1584</name></trkpt>
<trkpt lat="53.356677" lon="-1.802152"><ele>413</ele><time>2020-08-05T09:51:21Z</time><name>PT1585</name></trkpt>
<trkpt lat="53.356683" lon="-1.802127"><ele>413</ele><time>2020-08-05T09:51:22Z</time><name>PT1586</name></trkpt>
<trkpt lat="53.356689" lon="-1.802102"><ele>413</ele><time>2020-08-05T09:51:23Z</time><name>PT1587</name></trkpt>
<trkpt lat="53.356693" lon="-1.802079"><ele>413</ele><time>2020-08-05T09:51:24Z</time><name>PT1588</name></trkpt>
<trkpt lat="53.356695" lon="-1.802055"><ele>413</ele><time>2020-08-05T09:51:25Z</time><name>PT1589</name></trkpt>
<trkpt lat="53.356697" lon="-1.802031"><ele>413</ele><time>2020-08-05T09:51:26Z</time><name>PT1590</name></trkpt>
<trkpt lat="53.356699" lon="-1.802009"><ele>413</ele><time>2020-08-05T09:51:27Z</time><name>PT1591</name></trkpt>
<trkpt lat="53.356702" lon="-1.801995"><ele>413</ele><time>2020-08-05T09:51:28Z</time><name>PT1592</name></trkpt>
<trkpt lat="53.356706" lon="-1.801973"><ele>413</ele><time>2020-08-05T09:51:29Z</time><name>PT1593</name></trkpt>
<trkpt lat="53.356710" lon="-1.801947"><ele>412</ele><time>2020-08-05T09:51:30Z</time><name>PT1594</name></trkpt>
<trkpt lat="53.356710" lon="-1.801924"><ele>412</ele><time>2020-08-05T09:51:31Z</time><name>PT1595</name></trkpt>
<trkpt lat="53.356711" lon="-1.801901"><ele>412</ele><time>2020-08-05T09:51:32Z</time><name>PT1596</name></trkpt>
<trkpt lat="53.356709" lon="-1.801878"><ele>411</ele><time>2020-08-05T09:51:33Z</time><name>PT1597</name></trkpt>
<trkpt lat="53.356711" lon="-1.801852"><ele>411</ele><time>2020-08-05T09:51:34Z</time><name>PT1598</name></trkpt>
<trkpt lat="53.356713" lon="-1.801825"><ele>411</ele><time>2020-08-05T09:51:35Z</time><name>PT1599</name></trkpt>
<trkpt lat="53.356714" lon="-1.801807"><ele>410</ele><time>2020-08-05T09:51:36Z</time><name>PT1600</name></trkpt>
<trkpt lat="53.356716" lon="-1.801787"><ele>410</ele><time>2020-08-05T09:51:37Z</time><name>PT1601</name></trkpt>
<trkpt lat="53.356716" lon="-1.801778"><ele>410</ele><time>2020-08-05T09:51:38Z</time><name>PT1602</name></trkpt>
<trkpt lat="53.356719" lon="-1.801774"><ele>409</ele><time>2020-08-05T09:51:39Z</time><name>PT1603</name></trkpt>
<trkpt lat="53.356723" lon="-1.801760"><ele>410</ele><time>2020-08-05T09:51:40Z</time><name>PT1604</name></trkpt>
<trkpt lat="53.356728" lon="-1.801740"><ele>410</ele><time>2020-08-05T09:51:41Z</time><name>PT1605</name></trkpt>
<trkpt lat="53.356731" lon="-1.801723"><ele>410</ele><time>2020-08-05T09:51:42Z</time><name>PT1606</name></trkpt>
<trkpt lat="53.356735" lon="-1.801705"><ele>409</ele><time>2020-08-05T09:51:43Z</time><name>PT1607</name></trkpt>
<trkpt lat="53.356738" lon="-1.801684"><ele>409</ele><time>2020-08-05T09:51:44Z</time><name>PT1608</name></trkpt>
<trkpt lat="53.356737" lon="-1.801658"><ele>409</ele><time>2020-08-05T09:51:45Z</time><name>PT1609</name></trkpt>
<trkpt lat="53.356740" lon="-1.801638"><ele>410</ele><time>2020-08-05T09:51:46Z</time><name>PT1610</name></trkpt>
<trkpt lat="53.356744" lon="-1.801617"><ele>410</ele><time>2020-08-05T09:51:47Z</time><name>PT1611</name></trkpt>
<trkpt lat="53.356750" lon="-1.801591"><ele>410</ele><time>2020-08-05T09:51:48Z</time><name>PT1612</name></trkpt>
<trkpt lat="53.356753" lon="-1.801574"><ele>411</ele><time>2020-08-05T09:51:49Z</time><name>PT1613</name></trkpt>
<trkpt lat="53.356757" lon="-1.801556"><ele>411</ele><time>2020-08-05T09:51:50Z</time><name>PT1614</name></trkpt>
<trkpt lat="53.356762" lon="-1.801534"><ele>410</ele><time>2020-08-05T09:51:51Z</time><name>PT1615</name></trkpt>
<trkpt lat="53.356766" lon="-1.801506"><ele>410</ele><time>2020-08-05T09:51:52Z</time><name>PT1616</name></trkpt>
<trkpt lat="53.356769" lon="-1.801487"><ele>410</ele><time>2020-08-05T09:51:53Z</time><name>PT1617</name></trkpt>
<trkpt lat="53.356773" lon="-1.801474"><ele>409</ele><time>2020-08-05T09:51:54Z</time><name>PT1618</name></trkpt>
<trkpt lat="53.356780" lon="-1.801452"><ele>409</ele><time>2020-08-05T09:51:55Z</time><name>PT1619</name></trkpt>
<trkpt lat="53.356785" lon="-1.801430"><ele>409</ele><time>2020-08-05T09:51:56Z</time><name>PT1620</name></trkpt>
<trkpt lat="53.356790" lon="-1.801402"><ele>409</ele><time>2020-08-05T09:51:57Z</time><name>PT1621</name></trkpt>
<trkpt lat="53.356796" lon="-1.801376"><ele>409</ele><time>2020-08-05T09:51:58Z</time><name>PT1622</name></trkpt>
<trkpt lat="53.356801" lon="-1.801351"><ele>410</ele><time>2020-08-05T09:51:59Z</time><name>PT1623</name></trkpt>
<trkpt lat="53.356804" lon="-1.801332"><ele>410</ele><time>2020-08-05T09:52:00Z</time><name>PT1624</name></trkpt>
<trkpt lat="53.356809" lon="-1.801311"><ele>410</ele><time>2020-08-05T09:52:01Z</time><name>PT1625</name></trkpt>
<trkpt lat="53.356813" lon="-1.801290"><ele>410</ele><time>2020-08-05T09:52:02Z</time><name>PT1626</name></trkpt>
<trkpt lat="53.356817" lon="-1.801269"><ele>410</ele><time>2020-08-05T09:52:03Z</time><name>PT1627</name></trkpt>
<trkpt lat="53.356820" lon="-1.801247"><ele>410</ele><time>2020-08-05T09:52:04Z</time><name>PT1628</name></trkpt>
<trkpt lat="53.356822" lon="-1.801231"><ele>410</ele><time>2020-08-05T09:52:05Z</time><name>PT1629</name></trkpt>
<trkpt lat="53.356825" lon="-1.801212"><ele>410</ele><time>2020-08-05T09:52:06Z</time><name>PT1630</name></trkpt>
<trkpt lat="53.356829" lon="-1.801192"><ele>410</ele><time>2020-08-05T09:52:07Z</time><name>PT1631</name></trkpt>
<trkpt lat="53.356833" lon="-1.801174"><ele>410</ele><time>2020-08-05T09:52:08Z</time><name>PT1632</name></trkpt>
<trkpt lat="53.356837" lon="-1.801152"><ele>410</ele><time>2020-08-05T09:52:09Z</time><name>PT1633</name></trkpt>
<trkpt lat="53.356842" lon="-1.801128"><ele>410</ele><time>2020-08-05T09:52:10Z</time><name>PT1634</name></trkpt>
<trkpt lat="53.356845" lon="-1.801105"><ele>410</ele><time>2020-08-05T09:52:11Z</time><name>PT1635</name></trkpt>
<trkpt lat="53.356846" lon="-1.801084"><ele>409</ele><time>2020-08-05T09:52:12Z</time><name>PT1636</name></trkpt>
<trkpt lat="53.356846" lon="-1.801060"><ele>409</ele><time>2020-08-05T09:52:13Z</time><name>PT1637</name></trkpt>
<trkpt lat="53.356847" lon="-1.801037"><ele>409</ele><time>2020-08-05T09:52:14Z</time><name>PT1638</name></trkpt>
<trkpt lat="53.356850" lon="-1.801017"><ele>409</ele><time>2020-08-05T09:52:15Z</time><name>PT1639</name></trkpt>
<trkpt lat="53.356855" lon="-1.800996"><ele>409</ele><time>2020-08-05T09:52:16Z</time><name>PT1640</name></trkpt>
<trkpt lat="53.356861" lon="-1.800972"><ele>408</ele><time>2020-08-05T09:52:17Z</time><name>PT1641</name></trkpt>
<trkpt lat="53.356864" lon="-1.800949"><ele>408</ele><time>2020-08-05T09:52:18Z</time><name>PT1642</name></trkpt>
<trkpt lat="53.356869" lon="-1.800926"><ele>408</ele><time>2020-08-05T09:52:19Z</time><name>PT1643</name></trkpt>
<trkpt lat="53.356872" lon="-1.800901"><ele>408</ele><time>2020-08-05T09:52:20Z</time><name>PT1644</name></trkpt>
<trkpt lat="53.356876" lon="-1.800883"><ele>408</ele><time>2020-08-05T09:52:21Z</time><name>PT1645</name></trkpt>
<trkpt lat="53.356881" lon="-1.800866"><ele>408</ele><time>2020-08-05T09:52:22Z</time><name>PT1646</name></trkpt>
<trkpt lat="53.356887" lon="-1.800843"><ele>408</ele><time>2020-08-05T09:52:23Z</time><name>PT1647</name></trkpt>
<trkpt lat="53.356891" lon="-1.800821"><ele>408</ele><time>2020-08-05T09:52:24Z</time><name>PT1648</name></trkpt>
<trkpt lat="53.356894" lon="-1.800800"><ele>408</ele><time>2020-08-05T09:52:25Z</time><name>PT1649</name></trkpt>
<trkpt lat="53.356897" lon="-1.800779"><ele>408</ele><time>2020-08-05T09:52:26Z</time><name>PT1650</name></trkpt>
<trkpt lat="53.356900" lon="-1.800758"><ele>408</ele><time>2020-08-05T09:52:27Z</time><name>PT1651</name></trkpt>
<trkpt lat="53.356903" lon="-1.800736"><ele>408</ele><time>2020-08-05T09:52:28Z</time><name>PT1652</name></trkpt>
<trkpt lat="53.356908" lon="-1.800713"><ele>408</ele><time>2020-08-05T09:52:29Z</time><name>PT1653</name></trkpt>
<trkpt lat="53.356911" lon="-1.800688"><ele>408</ele><time>2020-08-05T09:52:30Z</time><name>PT1654</name></trkpt>
<trkpt lat="53.356912" lon="-1.800670"><ele>408</ele><time>2020-08-05T09:52:31Z</time><name>PT1655</name></trkpt>
<trkpt lat="53.356913" lon="-1.800652"><ele>408</ele><time>2020-08-05T09:52:32Z</time><name>PT1656</name></trkpt>
<trkpt lat="53.356917" lon="-1.800629"><ele>408</ele><time>2020-08-05T09:52:33Z</time><name>PT1657</name></trkpt>
<trkpt lat="53.356923" lon="-1.800610"><ele>408</ele><time>2020-08-05T09:52:34Z</time><name>PT1658</name></trkpt>
<trkpt lat="53.356930" lon="-1.800593"><ele>408</ele><time>2020-08-05T09:52:35Z</time><name>PT1659</name></trkpt>
<trkpt lat="53.356933" lon="-1.800572"><ele>408</ele><time>2020-08-05T09:52:36Z</time><name>PT1660</name></trkpt>
<trkpt lat="53.356936" lon="-1.800551"><ele>408</ele><time>2020-08-05T09:52:37Z</time><name>PT1661</name></trkpt>
<trkpt lat="53.356938" lon="-1.800529"><ele>408</ele><time>2020-08-05T09:52:38Z</time><name>PT1662</name></trkpt>
<trkpt lat="53.356948" lon="-1.800514"><ele>408</ele><time>2020-08-05T09:52:39Z</time><name>PT1663</name></trkpt>
<trkpt lat="53.356953" lon="-1.800492"><ele>408</ele><time>2020-08-05T09:52:40Z</time><name>PT1664</name></trkpt>
<trkpt lat="53.356957" lon="-1.800473"><ele>408</ele><time>2020-08-05T09:52:41Z</time><name>PT1665</name></trkpt>
<trkpt lat="53.356962" lon="-1.800455"><ele>407</ele><time>2020-08-05T09:52:42Z</time><name>PT1666</name></trkpt>
<trkpt lat="53.356967" lon="-1.800431"><ele>408</ele><time>2020-08-05T09:52:43Z</time><name>PT1667</name></trkpt>
<trkpt lat="53.356968" lon="-1.800410"><ele>407</ele><time>2020-08-05T09:52:44Z</time><name>PT1668</name></trkpt>
<trkpt lat="53.356970" lon="-1.800392"><ele>405</ele><time>2020-08-05T09:52:45Z</time><name>PT1669</name></trkpt>
<trkpt lat="53.356976" lon="-1.800367"><ele>405</ele><time>2020-08-05T09:52:46Z</time><name>PT1670</name></trkpt>
<trkpt lat="53.356981" lon="-1.800343"><ele>405</ele><time>2020-08-05T09:52:47Z</time><name>PT1671</name></trkpt>
<trkpt lat="53.356984" lon="-1.800325"><ele>405</ele><time>2020-08-05T09:52:48Z</time><name>PT1672</name></trkpt>
<trkpt lat="53.356993" lon="-1.800306"><ele>405</ele><time>2020-08-05T09:52:49Z</time><name>PT1673</name></trkpt>
<trkpt lat="53.357000" lon="-1.800284"><ele>404</ele><time>2020-08-05T09:52:50Z</time><name>PT1674</name></trkpt>
<trkpt lat="53.357005" lon="-1.800261"><ele>404</ele><time>2020-08-05T09:52:51Z</time><name>PT1675</name></trkpt>
<trkpt lat="53.357009" lon="-1.800240"><ele>403</ele><time>2020-08-05T09:52:52Z</time><name>PT1676</name></trkpt>
<trkpt lat="53.357009" lon="-1.800221"><ele>403</ele><time>2020-08-05T09:52:53Z</time><name>PT1677</name></trkpt>
<trkpt lat="53.357013" lon="-1.800196"><ele>403</ele><time>2020-08-05T09:52:54Z</time><name>PT1678</name></trkpt>
<trkpt lat="53.357016" lon="-1.800174"><ele>403</ele><time>2020-08-05T09:52:55Z</time><name>PT1679</name></trkpt>
<trkpt lat="53.357021" lon="-1.800152"><ele>403</ele><time>2020-08-05T09:52:56Z</time><name>PT1680</name></trkpt>
<trkpt lat="53.357027" lon="-1.800130"><ele>404</ele><time>2020-08-05T09:52:57Z</time><name>PT1681</name></trkpt>
<trkpt lat="53.357032" lon="-1.800108"><ele>404</ele><time>2020-08-05T09:52:58Z</time><name>PT1682</name></trkpt>
<trkpt lat="53.357034" lon="-1.800088"><ele>403</ele><time>2020-08-05T09:52:59Z</time><name>PT1683</name></trkpt>
<trkpt lat="53.357038" lon="-1.800065"><ele>403</ele><time>2020-08-05T09:53:00Z</time><name>PT1684</name></trkpt>
<trkpt lat="53.357042" lon="-1.800043"><ele>404</ele><time>2020-08-05T09:53:01Z</time><name>PT1685</name></trkpt>
<trkpt lat="53.357047" lon="-1.800019"><ele>404</ele><time>2020-08-05T09:53:02Z</time><name>PT1686</name></trkpt>
<trkpt lat="53.357053" lon="-1.799995"><ele>404</ele><time>2020-08-05T09:53:03Z</time><name>PT1687</name></trkpt>
<trkpt lat="53.357056" lon="-1.799970"><ele>404</ele><time>2020-08-05T09:53:04Z</time><name>PT1688</name></trkpt>
<trkpt lat="53.357060" lon="-1.799949"><ele>404</ele><time>2020-08-05T09:53:05Z</time><name>PT1689</name></trkpt>
<trkpt lat="53.357064" lon="-1.799930"><ele>404</ele><time>2020-08-05T09:53:06Z</time><name>PT1690</name></trkpt>
<trkpt lat="53.357068" lon="-1.799912"><ele>404</ele><time>2020-08-05T09:53:07Z</time><name>PT1691</name></trkpt>
<trkpt lat="53.357073" lon="-1.799889"><ele>404</ele><time>2020-08-05T09:53:08Z</time><name>PT1692</name></trkpt>
<trkpt lat="53.357076" lon="-1.799868"><ele>404</ele><time>2020-08-05T09:53:09Z</time><name>PT1693</name></trkpt>
<trkpt lat="53.357080" lon="-1.799849"><ele>404</ele><time>2020-08-05T09:53:10Z</time><name>PT1694</name></trkpt>
<trkpt lat="53.357083" lon="-1.799828"><ele>404</ele><time>2020-08-05T09:53:11Z</time><name>PT1695</name></trkpt>
<trkpt lat="53.357086" lon="-1.799806"><ele>404</ele><time>2020-08-05T09:53:12Z</time><name>PT1696</name></trkpt>
<trkpt lat="53.357089" lon="-1.799780"><ele>404</ele><time>2020-08-05T09:53:13Z</time><name>PT1697</name></trkpt>
<trkpt lat="53.357089" lon="-1.799757"><ele>404</ele><time>2020-08-05T09:53:14Z</time><name>PT1698</name></trkpt>
<trkpt lat="53.357092" lon="-1.799739"><ele>404</ele><time>2020-08-05T09:53:15Z</time><name>PT1699</name></trkpt>
<trkpt lat="53.357097" lon="-1.799718"><ele>404</ele><time>2020-08-05T09:53:16Z</time><name>PT1700</name></trkpt>
<trkpt lat="53.357100" lon="-1.799696"><ele>404</ele><time>2020-08-05T09:53:17Z</time><name>PT1701</name></trkpt>
<trkpt lat="53.357102" lon="-1.799679"><ele>404</ele><time>2020-08-05T09:53:18Z</time><name>PT1702</name></trkpt>
<trkpt lat="53.357104" lon="-1.799660"><ele>405</ele><time>2020-08-05T09:53:19Z</time><name>PT1703</name></trkpt>
<trkpt lat="53.357107" lon="-1.799640"><ele>404</ele><time>2020-08-05T09:53:20Z</time><name>PT1704</name></trkpt>
<trkpt lat="53.357108" lon="-1.799620"><ele>404</ele><time>2020-08-05T09:53:21Z</time><name>PT1705</name></trkpt>
<trkpt lat="53.357112" lon="-1.799599"><ele>404</ele><time>2020-08-05T09:53:22Z</time><name>PT1706</name></trkpt>
<trkpt lat="53.357120" lon="-1.799574"><ele>405</ele><time>2020-08-05T09:53:23Z</time><name>PT1707</name></trkpt>
<trkpt lat="53.357123" lon="-1.799550"><ele>405</ele><time>2020-08-05T09:53:24Z</time><name>PT1708</name></trkpt>
<trkpt lat="53.357126" lon="-1.799527"><ele>404</ele><time>2020-08-05T09:53:25Z</time><name>PT1709</name></trkpt>
<trkpt lat="53.357129" lon="-1.799505"><ele>405</ele><time>2020-08-05T09:53:26Z</time><name>PT1710</name></trkpt>
<trkpt lat="53.357132" lon="-1.799483"><ele>404</ele><time>2020-08-05T09:53:27Z</time><name>PT1711</name></trkpt>
<trkpt lat="53.357136" lon="-1.799460"><ele>405</ele><time>2020-08-05T09:53:28Z</time><name>PT1712</name></trkpt>
<trkpt lat="53.357139" lon="-1.799440"><ele>405</ele><time>2020-08-05T09:53:29Z</time><name>PT1713</name></trkpt>
<trkpt lat="53.357145" lon="-1.799418"><ele>405</ele><time>2020-08-05T09:53:30Z</time><name>PT1714</name></trkpt>
<trkpt lat="53.357147" lon="-1.799400"><ele>405</ele><time>2020-08-05T09:53:31Z</time><name>PT1715</name></trkpt>
<trkpt lat="53.357148" lon="-1.799376"><ele>405</ele><time>2020-08-05T09:53:32Z</time><name>PT1716</name></trkpt>
<trkpt lat="53.357149" lon="-1.799351"><ele>405</ele><time>2020-08-05T09:53:33Z</time><name>PT1717</name></trkpt>
<trkpt lat="53.357152" lon="-1.799330"><ele>405</ele><time>2020-08-05T09:53:34Z</time><name>PT1718</name></trkpt>
<trkpt lat="53.357157" lon="-1.799308"><ele>405</ele><time>2020-08-05T09:53:35Z</time><name>PT1719</name></trkpt>
<trkpt lat="53.357162" lon="-1.799283"><ele>405</ele><time>2020-08-05T09:53:36Z</time><name>PT1720</name></trkpt>
<trkpt lat="53.357165" lon="-1.799263"><ele>404</ele><time>2020-08-05T09:53:37Z</time><name>PT1721</name></trkpt>
<trkpt lat="53.357167" lon="-1.799243"><ele>404</ele><time>2020-08-05T09:53:38Z</time><name>PT1722</name></trkpt>
<trkpt lat="53.357171" lon="-1.799220"><ele>405</ele><time>2020-08-05T09:53:39Z</time><name>PT1723</name></trkpt>
<trkpt lat="53.357174" lon="-1.799197"><ele>405</ele><time>2020-08-05T09:53:40Z</time><name>PT1724</name></trkpt>
<trkpt lat="53.357177" lon="-1.799173"><ele>405</ele><time>2020-08-05T09:53:41Z</time><name>PT1725</name></trkpt>
<trkpt lat="53.357181" lon="-1.799148"><ele>405</ele><time>2020-08-05T09:53:42Z</time><name>PT1726</name></trkpt>
<trkpt lat="53.357184" lon="-1.799126"><ele>405</ele><time>2020-08-05T09:53:43Z</time><name>PT1727</name></trkpt>
<trkpt lat="53.357188" lon="-1.799103"><ele>405</ele><time>2020-08-05T09:53:44Z</time><name>PT1728</name></trkpt>
<trkpt lat="53.357188" lon="-1.799080"><ele>405</ele><time>2020-08-05T09:53:45Z</time><name>PT1729</name></trkpt>
<trkpt lat="53.357189" lon="-1.799060"><ele>405</ele><time>2020-08-05T09:53:46Z</time><name>PT1730</name></trkpt>
<trkpt lat="53.357193" lon="-1.799037"><ele>406</ele><time>2020-08-05T09:53:47Z</time><name>PT1731</name></trkpt>
<trkpt lat="53.357196" lon="-1.799015"><ele>406</ele><time>2020-08-05T09:53:48Z</time><name>PT1732</name></trkpt>
<trkpt lat="53.357199" lon="-1.798995"><ele>406</ele><time>2020-08-05T09:53:49Z</time><name>PT1733</name></trkpt>
<trkpt lat="53.357201" lon="-1.798974"><ele>406</ele><time>2020-08-05T09:53:50Z</time><name>PT1734</name></trkpt>
<trkpt lat="53.357202" lon="-1.798954"><ele>406</ele><time>2020-08-05T09:53:51Z</time><name>PT1735</name></trkpt>
<trkpt lat="53.357203" lon="-1.798931"><ele>406</ele><time>2020-08-05T09:53:52Z</time><name>PT1736</name></trkpt>
<trkpt lat="53.357203" lon="-1.798911"><ele>406</ele><time>2020-08-05T09:53:53Z</time><name>PT1737</name></trkpt>
<trkpt lat="53.357204" lon="-1.798888"><ele>406</ele><time>2020-08-05T09:53:54Z</time><name>PT1738</name></trkpt>
<trkpt lat="53.357205" lon="-1.798864"><ele>406</ele><time>2020-08-05T09:53:55Z</time><name>PT1739</name></trkpt>
<trkpt lat="53.357207" lon="-1.798843"><ele>406</ele><time>2020-08-05T09:53:56Z</time><name>PT1740</name></trkpt>
<trkpt lat="53.357207" lon="-1.798824"><ele>406</ele><time>2020-08-05T09:53:57Z</time><name>PT1741</name></trkpt>
<trkpt lat="53.357210" lon="-1.798807"><ele>405</ele><time>2020-08-05T09:53:58Z</time><name>PT1742</name></trkpt>
<trkpt lat="53.357216" lon="-1.798787"><ele>406</ele><time>2020-08-05T09:53:59Z</time><name>PT1743</name></trkpt>
<trkpt lat="53.357220" lon="-1.798766"><ele>406</ele><time>2020-08-05T09:54:00Z</time><name>PT1744</name></trkpt>
<trkpt lat="53.357223" lon="-1.798741"><ele>406</ele><time>2020-08-05T09:54:01Z</time><name>PT1745</name></trkpt>
<trkpt lat="53.357226" lon="-1.798717"><ele>406</ele><time>2020-08-05T09:54:02Z</time><name>PT1746</name></trkpt>
<trkpt lat="53.357228" lon="-1.798697"><ele>406</ele><time>2020-08-05T09:54:03Z</time><name>PT1747</name></trkpt>
<trkpt lat="53.357230" lon="-1.798676"><ele>406</ele><time>2020-08-05T09:54:04Z</time><name>PT1748</name></trkpt>
<trkpt lat="53.357231" lon="-1.798653"><ele>406</ele><time>2020-08-05T09:54:05Z</time><name>PT1749</name></trkpt>
<trkpt lat="53.357234" lon="-1.798631"><ele>406</ele><time>2020-08-05T09:54:06Z</time><name>PT1750</name></trkpt>
<trkpt lat="53.357238" lon="-1.798611"><ele>405</ele><time>2020-08-05T09:54:07Z</time><name>PT1751</name></trkpt>
<trkpt lat="53.357240" lon="-1.798591"><ele>405</ele><time>2020-08-05T09:54:08Z</time><name>PT1752</name></trkpt>
<trkpt lat="53.357243" lon="-1.798566"><ele>405</ele><time>2020-08-05T09:54:09Z</time><name>PT1753</name></trkpt>
<trkpt lat="53.357247" lon="-1.798543"><ele>405</ele><time>2020-08-05T09:54:10Z</time><name>PT1754</name></trkpt>
<trkpt lat="53.357250" lon="-1.798523"><ele>405</ele><time>2020-08-05T09:54:11Z</time><name>PT1755</name></trkpt>
<trkpt lat="53.357250" lon="-1.798502"><ele>404</ele><time>2020-08-05T09:54:12Z</time><name>PT1756</name></trkpt>
<trkpt lat="53.357254" lon="-1.798476"><ele>406</ele><time>2020-08-05T09:54:13Z</time><name>PT1757</name></trkpt>
<trkpt lat="53.357258" lon="-1.798455"><ele>406</ele><time>2020-08-05T09:54:14Z</time><name>PT1758</name></trkpt>
<trkpt lat="53.357263" lon="-1.798429"><ele>406</ele><time>2020-08-05T09:54:15Z</time><name>PT1759</name></trkpt>
<trkpt lat="53.357268" lon="-1.798408"><ele>405</ele><time>2020-08-05T09:54:16Z</time><name>PT1760</name></trkpt>
<trkpt lat="53.357273" lon="-1.798385"><ele>405</ele><time>2020-08-05T09:54:17Z</time><name>PT1761</name></trkpt>
<trkpt lat="53.357274" lon="-1.798363"><ele>405</ele><time>2020-08-05T09:54:18Z</time><name>PT1762</name></trkpt>
<trkpt lat="53.357276" lon="-1.798342"><ele>405</ele><time>2020-08-05T09:54:19Z</time><name>PT1763</name></trkpt>
<trkpt lat="53.357276" lon="-1.798317"><ele>405</ele><time>2020-08-05T09:54:20Z</time><name>PT1764</name></trkpt>
<trkpt lat="53.357278" lon="-1.798298"><ele>405</ele><time>2020-08-05T09:54:21Z</time><name>PT1765</name></trkpt>
<trkpt lat="53.357281" lon="-1.798277"><ele>405</ele><time>2020-08-05T09:54:22Z</time><name>PT1766</name></trkpt>
<trkpt lat="53.357286" lon="-1.798255"><ele>405</ele><time>2020-08-05T09:54:23Z</time><name>PT1767</name></trkpt>
<trkpt lat="53.357289" lon="-1.798234"><ele>405</ele><time>2020-08-05T09:54:24Z</time><name>PT1768</name></trkpt>
<trkpt lat="53.357292" lon="-1.798216"><ele>405</ele><time>2020-08-05T09:54:25Z</time><name>PT1769</name></trkpt>
<trkpt lat="53.357294" lon="-1.798196"><ele>404</ele><time>2020-08-05T09:54:26Z</time><name>PT1770</name></trkpt>
<trkpt lat="53.357297" lon="-1.798173"><ele>403</ele><time>2020-08-05T09:54:27Z</time><name>PT1771</name></trkpt>
<trkpt lat="53.357301" lon="-1.798153"><ele>403</ele><time>2020-08-05T09:54:28Z</time><name>PT1772</name></trkpt>
<trkpt lat="53.357304" lon="-1.798132"><ele>403</ele><time>2020-08-05T09:54:29Z</time><name>PT1773</name></trkpt>
<trkpt lat="53.357307" lon="-1.798117"><ele>403</ele><time>2020-08-05T09:54:30Z</time><name>PT1774</name></trkpt>
<trkpt lat="53.357310" lon="-1.798100"><ele>403</ele><time>2020-08-05T09:54:31Z</time><name>PT1775</name></trkpt>
<trkpt lat="53.357310" lon="-1.798079"><ele>403</ele><time>2020-08-05T09:54:32Z</time><name>PT1776</name></trkpt>
<trkpt lat="53.357311" lon="-1.798056"><ele>403</ele><time>2020-08-05T09:54:33Z</time><name>PT1777</name></trkpt>
<trkpt lat="53.357312" lon="-1.798032"><ele>403</ele><time>2020-08-05T09:54:34Z</time><name>PT1778</name></trkpt>
<trkpt lat="53.357312" lon="-1.798007"><ele>403</ele><time>2020-08-05T09:54:35Z</time><name>PT1779</name></trkpt>
<trkpt lat="53.357314" lon="-1.797986"><ele>403</ele><time>2020-08-05T09:54:36Z</time><name>PT1780</name></trkpt>
<trkpt lat="53.357317" lon="-1.797964"><ele>403</ele><time>2020-08-05T09:54:37Z</time><name>PT1781</name></trkpt>
<trkpt lat="53.357319" lon="-1.797939"><ele>403</ele><time>2020-08-05T09:54:38Z</time><name>PT1782</name></trkpt>
<trkpt lat="53.357320" lon="-1.797919"><ele>403</ele><time>2020-08-05T09:54:39Z</time><name>PT1783</name></trkpt>
<trkpt lat="53.357323" lon="-1.797896"><ele>403</ele><time>2020-08-05T09:54:40Z</time><name>PT1784</name></trkpt>
<trkpt lat="53.357324" lon="-1.797873"><ele>403</ele><time>2020-08-05T09:54:41Z</time><name>PT1785</name></trkpt>
<trkpt lat="53.357325" lon="-1.797849"><ele>403</ele><time>2020-08-05T09:54:42Z</time><name>PT1786</name></trkpt>
<trkpt lat="53.357324" lon="-1.797827"><ele>403</ele><time>2020-08-05T09:54:43Z</time><name>PT1787</name></trkpt>
<trkpt lat="53.357325" lon="-1.797808"><ele>402</ele><time>2020-08-05T09:54:44Z</time><name>PT1788</name></trkpt>
<trkpt lat="53.357327" lon="-1.797783"><ele>402</ele><time>2020-08-05T09:54:45Z</time><name>PT1789</name></trkpt>
<trkpt lat="53.357329" lon="-1.797761"><ele>402</ele><time>2020-08-05T09:54:46Z</time><name>PT1790</name></trkpt>
<trkpt lat="53.357332" lon="-1.797738"><ele>402</ele><time>2020-08-05T09:54:47Z</time><name>PT1791</name></trkpt>
<trkpt lat="53.357333" lon="-1.797718"><ele>402</ele><time>2020-08-05T09:54:48Z</time><name>PT1792</name></trkpt>
<trkpt lat="53.357335" lon="-1.797696"><ele>401</ele><time>2020-08-05T09:54:49Z</time><name>PT1793</name></trkpt>
<trkpt lat="53.357337" lon="-1.797675"><ele>402</ele><time>2020-08-05T09:54:50Z</time><name>PT1794</name></trkpt>
<trkpt lat="53.357339" lon="-1.797650"><ele>403</ele><time>2020-08-05T09:54:51Z</time><name>PT1795</name></trkpt>
<trkpt lat="53.357340" lon="-1.797624"><ele>403</ele><time>2020-08-05T09:54:52Z</time><name>PT1796</name></trkpt>
<trkpt lat="53.357339" lon="-1.797604"><ele>403</ele><time>2020-08-05T09:54:53Z</time><name>PT1797</name></trkpt>
<trkpt lat="53.357341" lon="-1.797585"><ele>403</ele><time>2020-08-05T09:54:54Z</time><name>PT1798</name></trkpt>
<trkpt lat="53.357344" lon="-1.797563"><ele>402</ele><time>2020-08-05T09:54:55Z</time><name>PT1799</name></trkpt>
<trkpt lat="53.357346" lon="-1.797539"><ele>402</ele><time>2020-08-05T09:54:56Z</time><name>PT1800</name></trkpt>
<trkpt lat="53.357347" lon="-1.797517"><ele>402</ele><time>2020-08-05T09:54:57Z</time><name>PT1801</name></trkpt>
<trkpt lat="53.357351" lon="-1.797493"><ele>402</ele><time>2020-08-05T09:54:58Z</time><name>PT1802</name></trkpt>
<trkpt lat="53.357351" lon="-1.797475"><ele>402</ele><time>2020-08-05T09:54:59Z</time><name>PT1803</name></trkpt>
<trkpt lat="53.357352" lon="-1.797454"><ele>403</ele><time>2020-08-05T09:55:00Z</time><name>PT1804</name></trkpt>
<trkpt lat="53.357353" lon="-1.797436"><ele>402</ele><time>2020-08-05T09:55:01Z</time><name>PT1805</name></trkpt>
<trkpt lat="53.357355" lon="-1.797413"><ele>402</ele><time>2020-08-05T09:55:02Z</time><name>PT1806</name></trkpt>
<trkpt lat="53.357359" lon="-1.797400"><ele>402</ele><time>2020-08-05T09:55:03Z</time><name>PT1807</name></trkpt>
<trkpt lat="53.357359" lon="-1.797380"><ele>402</ele><time>2020-08-05T09:55:04Z</time><name>PT1808</name></trkpt>
<trkpt lat="53.357363" lon="-1.797356"><ele>402</ele><time>2020-08-05T09:55:05Z</time><name>PT1809</name></trkpt>
<trkpt lat="53.357365" lon="-1.797333"><ele>402</ele><time>2020-08-05T09:55:06Z</time><name>PT1810</name></trkpt>
<trkpt lat="53.357368" lon="-1.797313"><ele>402</ele><time>2020-08-05T09:55:07Z</time><name>PT1811</name></trkpt>
<trkpt lat="53.357368" lon="-1.797297"><ele>401</ele><time>2020-08-05T09:55:08Z</time><name>PT1812</name></trkpt>
<trkpt lat="53.357371" lon="-1.797276"><ele>401</ele><time>2020-08-05T09:55:09Z</time><name>PT1813</name></trkpt>
<trkpt lat="53.357370" lon="-1.797263"><ele>401</ele><time>2020-08-05T09:55:10Z</time><name>PT1814</name></trkpt>
<trkpt lat="53.357369" lon="-1.797249"><ele>400</ele><time>2020-08-05T09:55:11Z</time><name>PT1815</name></trkpt>
<trkpt lat="53.357372" lon="-1.797228"><ele>400</ele><time>2020-08-05T09:55:12Z</time><name>PT1816</name></trkpt>
<trkpt lat="53.357373" lon="-1.797209"><ele>400</ele><time>2020-08-05T09:55:13Z</time><name>PT1817</name></trkpt>
<trkpt lat="53.357375" lon="-1.797190"><ele>400</ele><time>2020-08-05T09:55:14Z</time><name>PT1818</name></trkpt>
<trkpt lat="53.357375" lon="-1.797169"><ele>400</ele><time>2020-08-05T09:55:15Z</time><name>PT1819</name></trkpt>
<trkpt lat="53.357376" lon="-1.797148"><ele>400</ele><time>2020-08-05T09:55:16Z</time><name>PT1820</name></trkpt>
<trkpt lat="53.357377" lon="-1.797129"><ele>400</ele><time>2020-08-05T09:55:17Z</time><name>PT1821</name></trkpt>
<trkpt lat="53.357380" lon="-1.797108"><ele>401</ele><time>2020-08-05T09:55:18Z</time><name>PT1822</name></trkpt>
<trkpt lat="53.357385" lon="-1.797088"><ele>400</ele><time>2020-08-05T09:55:19Z</time><name>PT1823</name></trkpt>
<trkpt lat="53.357389" lon="-1.797072"><ele>400</ele><time>2020-08-05T09:55:20Z</time><name>PT1824</name></trkpt>
<trkpt lat="53.357393" lon="-1.797053"><ele>401</ele><time>2020-08-05T09:55:21Z</time><name>PT1825</name></trkpt>
<trkpt lat="53.357396" lon="-1.797033"><ele>400</ele><time>2020-08-05T09:55:22Z</time><name>PT1826</name></trkpt>
<trkpt lat="53.357398" lon="-1.797014"><ele>401</ele><time>2020-08-05T09:55:23Z</time><name>PT1827</name></trkpt>
<trkpt lat="53.357402" lon="-1.796996"><ele>401</ele><time>2020-08-05T09:55:24Z</time><name>PT1828</name></trkpt>
<trkpt lat="53.357407" lon="-1.796977"><ele>401</ele><time>2020-08-05T09:55:25Z</time><name>PT1829</name></trkpt>
<trkpt lat="53.357410" lon="-1.796958"><ele>401</ele><time>2020-08-05T09:55:26Z</time><name>PT1830</name></trkpt>
<trkpt lat="53.357411" lon="-1.796936"><ele>402</ele><time>2020-08-05T09:55:27Z</time><name>PT1831</name></trkpt>
<trkpt lat="53.357412" lon="-1.796914"><ele>403</ele><time>2020-08-05T09:55:28Z</time><name>PT1832</name></trkpt>
<trkpt lat="53.357414" lon="-1.796891"><ele>403</ele><time>2020-08-05T09:55:29Z</time><name>PT1833</name></trkpt>
<trkpt lat="53.357416" lon="-1.796866"><ele>404</ele><time>2020-08-05T09:55:30Z</time><name>PT1834</name></trkpt>
<trkpt lat="53.357420" lon="-1.796847"><ele>404</ele><time>2020-08-05T09:55:31Z</time><name>PT1835</name></trkpt>
<trkpt lat="53.357424" lon="-1.796832"><ele>404</ele><time>2020-08-05T09:55:32Z</time><name>PT1836</name></trkpt>
<trkpt lat="53.357425" lon="-1.796813"><ele>404</ele><time>2020-08-05T09:55:33Z</time><name>PT1837</name></trkpt>
<trkpt lat="53.357427" lon="-1.796790"><ele>404</ele><time>2020-08-05T09:55:34Z</time><name>PT1838</name></trkpt>
<trkpt lat="53.357431" lon="-1.796771"><ele>405</ele><time>2020-08-05T09:55:35Z</time><name>PT1839</name></trkpt>
<trkpt lat="53.357435" lon="-1.796755"><ele>405</ele><time>2020-08-05T09:55:36Z</time><name>PT1840</name></trkpt>
<trkpt lat="53.357435" lon="-1.796738"><ele>405</ele><time>2020-08-05T09:55:37Z</time><name>PT1841</name></trkpt>
<trkpt lat="53.357435" lon="-1.796722"><ele>405</ele><time>2020-08-05T09:55:38Z</time><name>PT1842</name></trkpt>
<trkpt lat="53.357436" lon="-1.796704"><ele>405</ele><time>2020-08-05T09:55:39Z</time><name>PT1843</name></trkpt>
<trkpt lat="53.357435" lon="-1.796688"><ele>405</ele><time>2020-08-05T09:55:40Z</time><name>PT1844</name></trkpt>
<trkpt lat="53.357436" lon="-1.796673"><ele>405</ele><time>2020-08-05T09:55:41Z</time><name>PT1845</name></trkpt>
<trkpt lat="53.357437" lon="-1.796659"><ele>405</ele><time>2020-08-05T09:55:42Z</time><name>PT1846</name></trkpt>
<trkpt lat="53.357439" lon="-1.796640"><ele>405</ele><time>2020-08-05T09:55:43Z</time><name>PT1847</name></trkpt>
<trkpt lat="53.357441" lon="-1.796620"><ele>405</ele><time>2020-08-05T09:55:44Z</time><name>PT1848</name></trkpt>
<trkpt lat="53.357443" lon="-1.796597"><ele>405</ele><time>2020-08-05T09:55:45Z</time><name>PT1849</name></trkpt>
<trkpt lat="53.357444" lon="-1.796574"><ele>405</ele><time>2020-08-05T09:55:46Z</time><name>PT1850</name></trkpt>
<trkpt lat="53.357443" lon="-1.796550"><ele>405</ele><time>2020-08-05T09:55:47Z</time><name>PT1851</name></trkpt>
<trkpt lat="53.357440" lon="-1.796530"><ele>405</ele><time>2020-08-05T09:55:48Z</time><name>PT1852</name></trkpt>
<trkpt lat="53.357443" lon="-1.796514"><ele>405</ele><time>2020-08-05T09:55:49Z</time><name>PT1853</name></trkpt>
<trkpt lat="53.357447" lon="-1.796497"><ele>405</ele><time>2020-08-05T09:55:50Z</time><name>PT1854</name></trkpt>
<trkpt lat="53.357453" lon="-1.796480"><ele>405</ele><time>2020-08-05T09:55:51Z</time><name>PT1855</name></trkpt>
<trkpt lat="53.357456" lon="-1.796460"><ele>405</ele><time>2020-08-05T09:55:52Z</time><name>PT1856</name></trkpt>
<trkpt lat="53.357460" lon="-1.796441"><ele>405</ele><time>2020-08-05T09:55:53Z</time><name>PT1857</name></trkpt>
<trkpt lat="53.357463" lon="-1.796424"><ele>404</ele><time>2020-08-05T09:55:54Z</time><name>PT1858</name></trkpt>
<trkpt lat="53.357467" lon="-1.796400"><ele>405</ele><time>2020-08-05T09:55:55Z</time><name>PT1859</name></trkpt>
<trkpt lat="53.357470" lon="-1.796385"><ele>405</ele><time>2020-08-05T09:55:56Z</time><name>PT1860</name></trkpt>
<trkpt lat="53.357473" lon="-1.796370"><ele>405</ele><time>2020-08-05T09:55:57Z</time><name>PT1861</name></trkpt>
<trkpt lat="53.357475" lon="-1.796353"><ele>405</ele><time>2020-08-05T09:55:58Z</time><name>PT1862</name></trkpt>
<trkpt lat="53.357478" lon="-1.796335"><ele>405</ele><time>2020-08-05T09:55:59Z</time><name>PT1863</name></trkpt>
<trkpt lat="53.357480" lon="-1.796314"><ele>405</ele><time>2020-08-05T09:56:00Z</time><name>PT1864</name></trkpt>
<trkpt lat="53.357479" lon="-1.796296"><ele>405</ele><time>2020-08-05T09:56:01Z</time><name>PT1865</name></trkpt>
<trkpt lat="53.357482" lon="-1.796280"><ele>405</ele><time>2020-08-05T09:56:02Z</time><name>PT1866</name></trkpt>
<trkpt lat="53.357483" lon="-1.796266"><ele>406</ele><time>2020-08-05T09:56:03Z</time><name>PT1867</name></trkpt>
<trkpt lat="53.357486" lon="-1.796250"><ele>406</ele><time>2020-08-05T09:56:04Z</time><name>PT1868</name></trkpt>
<trkpt lat="53.357490" lon="-1.796230"><ele>405</ele><time>2020-08-05T09:56:05Z</time><name>PT1869</name></trkpt>
<trkpt lat="53.357495" lon="-1.796207"><ele>406</ele><time>2020-08-05T09:56:06Z</time><name>PT1870</name></trkpt>
<trkpt lat="53.357496" lon="-1.796186"><ele>406</ele><time>2020-08-05T09:56:07Z</time><name>PT1871</name></trkpt>
<trkpt lat="53.357499" lon="-1.796163"><ele>406</ele><time>2020-08-05T09:56:08Z</time><name>PT1872</name></trkpt>
<trkpt lat="53.357503" lon="-1.796140"><ele>406</ele><time>2020-08-05T09:56:09Z</time><name>PT1873</name></trkpt>
<trkpt lat="53.357507" lon="-1.796123"><ele>407</ele><time>2020-08-05T09:56:10Z</time><name>PT1874</name></trkpt>
<trkpt lat="53.357511" lon="-1.796101"><ele>407</ele><time>2020-08-05T09:56:11Z</time><name>PT1875</name></trkpt>
<trkpt lat="53.357514" lon="-1.796081"><ele>407</ele><time>2020-08-05T09:56:12Z</time><name>PT1876</name></trkpt>
<trkpt lat="53.357511" lon="-1.796057"><ele>407</ele><time>2020-08-05T09:56:13Z</time><name>PT1877</name></trkpt>
<trkpt lat="53.357513" lon="-1.796034"><ele>408</ele><time>2020-08-05T09:56:14Z</time><name>PT1878</name></trkpt>
<trkpt lat="53.357517" lon="-1.796012"><ele>408</ele><time>2020-08-05T09:56:15Z</time><name>PT1879</name></trkpt>
<trkpt lat="53.357520" lon="-1.795993"><ele>408</ele><time>2020-08-05T09:56:16Z</time><name>PT1880</name></trkpt>
<trkpt lat="53.357526" lon="-1.795974"><ele>408</ele><time>2020-08-05T09:56:17Z</time><name>PT1881</name></trkpt>
<trkpt lat="53.357530" lon="-1.795959"><ele>408</ele><time>2020-08-05T09:56:18Z</time><name>PT1882</name></trkpt>
<trkpt lat="53.357531" lon="-1.795942"><ele>408</ele><time>2020-08-05T09:56:19Z</time><name>PT1883</name></trkpt>
<trkpt lat="53.357535" lon="-1.795923"><ele>409</ele><time>2020-08-05T09:56:20Z</time><name>PT1884</name></trkpt>
<trkpt lat="53.357539" lon="-1.795905"><ele>409</ele><time>2020-08-05T09:56:21Z</time><name>PT1885</name></trkpt>
<trkpt lat="53.357542" lon="-1.795889"><ele>409</ele><time>2020-08-05T09:56:22Z</time><name>PT1886</name></trkpt>
<trkpt lat="53.357545" lon="-1.795874"><ele>409</ele><time>2020-08-05T09:56:23Z</time><name>PT1887</name></trkpt>
<trkpt lat="53.357548" lon="-1.795850"><ele>410</ele><time>2020-08-05T09:56:24Z</time><name>PT1888</name></trkpt>
<trkpt lat="53.357552" lon="-1.795830"><ele>411</ele><time>2020-08-05T09:56:25Z</time><name>PT1889</name></trkpt>
<trkpt lat="53.357557" lon="-1.795816"><ele>411</ele><time>2020-08-05T09:56:26Z</time><name>PT1890</name></trkpt>
<trkpt lat="53.357564" lon="-1.795802"><ele>410</ele><time>2020-08-05T09:56:27Z</time><name>PT1891</name></trkpt>
<trkpt lat="53.357570" lon="-1.795781"><ele>410</ele><time>2020-08-05T09:56:28Z</time><name>PT1892</name></trkpt>
<trkpt lat="53.357575" lon="-1.795761"><ele>410</ele><time>2020-08-05T09:56:29Z</time><name>PT1893</name></trkpt>
<trkpt lat="53.357578" lon="-1.795743"><ele>410</ele><time>2020-08-05T09:56:30Z</time><name>PT1894</name></trkpt>
<trkpt lat="53.357584" lon="-1.795731"><ele>411</ele><time>2020-08-05T09:56:31Z</time><name>PT1895</name></trkpt>
<trkpt lat="53.357587" lon="-1.795713"><ele>411</ele><time>2020-08-05T09:56:32Z</time><name>PT1896</name></trkpt>
<trkpt lat="53.357591" lon="-1.795698"><ele>411</ele><time>2020-08-05T09:56:33Z</time><name>PT1897</name></trkpt>
<trkpt lat="53.357595" lon="-1.795685"><ele>411</ele><time>2020-08-05T09:56:34Z</time><name>PT1898</name></trkpt>
<trkpt lat="53.357600" lon="-1.795670"><ele>410</ele><time>2020-08-05T09:56:35Z</time><name>PT1899</name></trkpt>
<trkpt lat="53.357605" lon="-1.795652"><ele>410</ele><time>2020-08-05T09:56:36Z</time><name>PT1900</name></trkpt>
<trkpt lat="53.357611" lon="-1.795633"><ele>411</ele><time>2020-08-05T09:56:37Z</time><name>PT1901</name></trkpt>
<trkpt lat="53.357616" lon="-1.795616"><ele>411</ele><time>2020-08-05T09:56:38Z</time><name>PT1902</name></trkpt>
<trkpt lat="53.357620" lon="-1.795599"><ele>411</ele><time>2020-08-05T09:56:39Z</time><name>PT1903</name></trkpt>
<trkpt lat="53.357624" lon="-1.795578"><ele>411</ele><time>2020-08-05T09:56:40Z</time><name>PT1904</name></trkpt>
<trkpt lat="53.357627" lon="-1.795561"><ele>412</ele><time>2020-08-05T09:56:41Z</time><name>PT1905</name></trkpt>
<trkpt lat="53.357631" lon="-1.795541"><ele>411</ele><time>2020-08-05T09:56:42Z</time><name>PT1906</name></trkpt>
<trkpt lat="53.357636" lon="-1.795524"><ele>411</ele><time>2020-08-05T09:56:43Z</time><name>PT1907</name></trkpt>
<trkpt lat="53.357639" lon="-1.795509"><ele>411</ele><time>2020-08-05T09:56:44Z</time><name>PT1908</name></trkpt>
<trkpt lat="53.357642" lon="-1.795493"><ele>412</ele><time>2020-08-05T09:56:45Z</time><name>PT1909</name></trkpt>
<trkpt lat="53.357647" lon="-1.795480"><ele>412</ele><time>2020-08-05T09:56:46Z</time><name>PT1910</name></trkpt>
<trkpt lat="53.357649" lon="-1.795466"><ele>412</ele><time>2020-08-05T09:56:47Z</time><name>PT1911</name></trkpt>
<trkpt lat="53.357652" lon="-1.795451"><ele>413</ele><time>2020-08-05T09:56:48Z</time><name>PT1912</name></trkpt>
<trkpt lat="53.357656" lon="-1.795435"><ele>413</ele><time>2020-08-05T09:56:49Z</time><name>PT1913</name></trkpt>
<trkpt lat="53.357660" lon="-1.795422"><ele>413</ele><time>2020-08-05T09:56:50Z</time><name>PT1914</name></trkpt>
<trkpt lat="53.357665" lon="-1.795412"><ele>413</ele><time>2020-08-05T09:56:51Z</time><name>PT1915</name></trkpt>
<trkpt lat="53.357670" lon="-1.795405"><ele>413</ele><time>2020-08-05T09:56:52Z</time><name>PT1916</name></trkpt>
<trkpt lat="53.357677" lon="-1.795391"><ele>414</ele><time>2020-08-05T09:56:53Z</time><name>PT1917</name></trkpt>
<trkpt lat="53.357682" lon="-1.795375"><ele>414</ele><time>2020-08-05T09:56:54Z</time><name>PT1918</name></trkpt>
<trkpt lat="53.357686" lon="-1.795360"><ele>414</ele><time>2020-08-05T09:56:55Z</time><name>PT1919</name></trkpt>
<trkpt lat="53.357689" lon="-1.795352"><ele>414</ele><time>2020-08-05T09:56:56Z</time><name>PT1920</name></trkpt>
<trkpt lat="53.357692" lon="-1.795340"><ele>414</ele><time>2020-08-05T09:56:57Z</time><name>PT1921</name></trkpt>
<trkpt lat="53.357694" lon="-1.795325"><ele>414</ele><time>2020-08-05T09:56:58Z</time><name>PT1922</name></trkpt>
<trkpt lat="53.357697" lon="-1.795308"><ele>414</ele><time>2020-08-05T09:56:59Z</time><name>PT1923</name></trkpt>
<trkpt lat="53.357699" lon="-1.795293"><ele>414</ele><time>2020-08-05T09:57:00Z</time><name>PT1924</name></trkpt>
<trkpt lat="53.357704" lon="-1.795279"><ele>414</ele><time>2020-08-05T09:57:01Z</time><name>PT1925</name></trkpt>
<trkpt lat="53.357707" lon="-1.795267"><ele>414</ele><time>2020-08-05T09:57:02Z</time><name>PT1926</name></trkpt>
<trkpt lat="53.357710" lon="-1.795255"><ele>415</ele><time>2020-08-05T09:57:03Z</time><name>PT1927</name></trkpt>
<trkpt lat="53.357715" lon="-1.795238"><ele>416</ele><time>2020-08-05T09:57:04Z</time><name>PT1928</name></trkpt>
<trkpt lat="53.357719" lon="-1.795224"><ele>416</ele><time>2020-08-05T09:57:05Z</time><name>PT1929</name></trkpt>
<trkpt lat="53.357721" lon="-1.795213"><ele>417</ele><time>2020-08-05T09:57:06Z</time><name>PT1930</name></trkpt>
<trkpt lat="53.357723" lon="-1.795197"><ele>418</ele><time>2020-08-05T09:57:07Z</time><name>PT1931</name></trkpt>
<trkpt lat="53.357724" lon="-1.795181"><ele>418</ele><time>2020-08-05T09:57:08Z</time><name>PT1932</name></trkpt>
<trkpt lat="53.357728" lon="-1.795167"><ele>418</ele><time>2020-08-05T09:57:09Z</time><name>PT1933</name></trkpt>
<trkpt lat="53.357732" lon="-1.795152"><ele>418</ele><time>2020-08-05T09:57:10Z</time><name>PT1934</name></trkpt>
<trkpt lat="53.357733" lon="-1.795138"><ele>418</ele><time>2020-08-05T09:57:11Z</time><name>PT1935</name></trkpt>
<trkpt lat="53.357737" lon="-1.795125"><ele>418</ele><time>2020-08-05T09:57:12Z</time><name>PT1936</name></trkpt>
<trkpt lat="53.357743" lon="-1.795116"><ele>418</ele><time>2020-08-05T09:57:13Z</time><name>PT1937</name></trkpt>
<trkpt lat="53.357749" lon="-1.795106"><ele>419</ele><time>2020-08-05T09:57:14Z</time><name>PT1938</name></trkpt>
<trkpt lat="53.357752" lon="-1.795090"><ele>419</ele><time>2020-08-05T09:57:15Z</time><name>PT1939</name></trkpt>
<trkpt lat="53.357755" lon="-1.795078"><ele>419</ele><time>2020-08-05T09:57:16Z</time><name>PT1940</name></trkpt>
<trkpt lat="53.357760" lon="-1.795068"><ele>420</ele><time>2020-08-05T09:57:17Z</time><name>PT1941</name></trkpt>
<trkpt lat="53.357763" lon="-1.795056"><ele>420</ele><time>2020-08-05T09:57:18Z</time><name>PT1942</name></trkpt>
<trkpt lat="53.357766" lon="-1.795042"><ele>420</ele><time>2020-08-05T09:57:19Z</time><name>PT1943</name></trkpt>
<trkpt lat="53.357770" lon="-1.795031"><ele>420</ele><time>2020-08-05T09:57:20Z</time><name>PT1944</name></trkpt>
<trkpt lat="53.357772" lon="-1.795023"><ele>419</ele><time>2020-08-05T09:57:21Z</time><name>PT1945</name></trkpt>
<trkpt lat="53.357776" lon="-1.795006"><ele>420</ele><time>2020-08-05T09:57:22Z</time><name>PT1946</name></trkpt>
<trkpt lat="53.357779" lon="-1.794990"><ele>420</ele><time>2020-08-05T09:57:23Z</time><name>PT1947</name></trkpt>
<trkpt lat="53.357783" lon="-1.794975"><ele>420</ele><time>2020-08-05T09:57:24Z</time><name>PT1948</name></trkpt>
<trkpt lat="53.357787" lon="-1.794959"><ele>420</ele><time>2020-08-05T09:57:25Z</time><name>PT1949</name></trkpt>
<trkpt lat="53.357790" lon="-1.794947"><ele>421</ele><time>2020-08-05T09:57:26Z</time><name>PT1950</name></trkpt>
<trkpt lat="53.357796" lon="-1.794945"><ele>420</ele><time>2020-08-05T09:57:27Z</time><name>PT1951</name></trkpt>
<trkpt lat="53.357800" lon="-1.794932"><ele>420</ele><time>2020-08-05T09:57:28Z</time><name>PT1952</name></trkpt>
<trkpt lat="53.357803" lon="-1.794920"><ele>420</ele><time>2020-08-05T09:57:29Z</time><name>PT1953</name></trkpt>
<trkpt lat="53.357806" lon="-1.794904"><ele>420</ele><time>2020-08-05T09:57:30Z</time><name>PT1954</name></trkpt>
<trkpt lat="53.357808" lon="-1.794891"><ele>420</ele><time>2020-08-05T09:57:31Z</time><name>PT1955</name></trkpt>
<trkpt lat="53.357812" lon="-1.794877"><ele>420</ele><time>2020-08-05T09:57:32Z</time><name>PT1956</name></trkpt>
<trkpt lat="53.357815" lon="-1.794864"><ele>420</ele><time>2020-08-05T09:57:33Z</time><name>PT1957</name></trkpt>
<trkpt lat="53.357820" lon="-1.794852"><ele>420</ele><time>2020-08-05T09:57:34Z</time><name>PT1958</name></trkpt>
<trkpt lat="53.357821" lon="-1.794838"><ele>420</ele><time>2020-08-05T09:57:35Z</time><name>PT1959</name></trkpt>
<trkpt lat="53.357823" lon="-1.794821"><ele>421</ele><time>2020-08-05T09:57:36Z</time><name>PT1960</name></trkpt>
<trkpt lat="53.357826" lon="-1.794808"><ele>421</ele><time>2020-08-05T09:57:37Z</time><name>PT1961</name></trkpt>
<trkpt lat="53.357830" lon="-1.794797"><ele>422</ele><time>2020-08-05T09:57:38Z</time><name>PT1962</name></trkpt>
<trkpt lat="53.357835" lon="-1.794784"><ele>422</ele><time>2020-08-05T09:57:39Z</time><name>PT1963</name></trkpt>
<trkpt lat="53.357836" lon="-1.794769"><ele>422</ele><time>2020-08-05T09:57:40Z</time><name>PT1964</name></trkpt>
<trkpt lat="53.357838" lon="-1.794754"><ele>423</ele><time>2020-08-05T09:57:41Z</time><name>PT1965</name></trkpt>
<trkpt lat="53.357839" lon="-1.794737"><ele>423</ele><time>2020-08-05T09:57:42Z</time><name>PT1966</name></trkpt>
<trkpt lat="53.357840" lon="-1.794722"><ele>423</ele><time>2020-08-05T09:57:43Z</time><name>PT1967</name></trkpt>
<trkpt lat="53.357839" lon="-1.794706"><ele>422</ele><time>2020-08-05T09:57:44Z</time><name>PT1968</name></trkpt>
<trkpt lat="53.357842" lon="-1.794690"><ele>422</ele><time>2020-08-05T09:57:45Z</time><name>PT1969</name></trkpt>
<trkpt lat="53.357849" lon="-1.794676"><ele>422</ele><time>2020-08-05T09:57:46Z</time><name>PT1970</name></trkpt>
<trkpt lat="53.357855" lon="-1.794657"><ele>422</ele><time>2020-08-05T09:57:47Z</time><name>PT1971</name></trkpt>
<trkpt lat="53.357856" lon="-1.794640"><ele>422</ele><time>2020-08-05T09:57:48Z</time><name>PT1972</name></trkpt>
<trkpt lat="53.357861" lon="-1.794632"><ele>422</ele><time>2020-08-05T09:57:49Z</time><name>PT1973</name></trkpt>
<trkpt lat="53.357865" lon="-1.794620"><ele>422</ele><time>2020-08-05T09:57:50Z</time><name>PT1974</name></trkpt>
<trkpt lat="53.357868" lon="-1.794600"><ele>422</ele><time>2020-08-05T09:57:51Z</time><name>PT1975</name></trkpt>
<trkpt lat="53.357871" lon="-1.794584"><ele>423</ele><time>2020-08-05T09:57:52Z</time><name>PT1976</name></trkpt>
<trkpt lat="53.357873" lon="-1.794569"><ele>423</ele><time>2020-08-05T09:57:53Z</time><name>PT1977</name></trkpt>
<trkpt lat="53.357874" lon="-1.794552"><ele>423</ele><time>2020-08-05T09:57:54Z</time><name>PT1978</name></trkpt>
<trkpt lat="53.357874" lon="-1.794539"><ele>423</ele><time>2020-08-05T09:57:55Z</time><name>PT1979</name></trkpt>
<trkpt lat="53.357875" lon="-1.794527"><ele>423</ele><time>2020-08-05T09:57:56Z</time><name>PT1980</name></trkpt>
<trkpt lat="53.357876" lon="-1.794514"><ele>424</ele><time>2020-08-05T09:57:57Z</time><name>PT1981</name></trkpt>
<trkpt lat="53.357878" lon="-1.794496"><ele>424</ele><time>2020-08-05T09:57:58Z</time><name>PT1982</name></trkpt>
<trkpt lat="53.357878" lon="-1.794479"><ele>424</ele><time>2020-08-05T09:57:59Z</time><name>PT1983</name></trkpt>
<trkpt lat="53.357877" lon="-1.794461"><ele>424</ele><time>2020-08-05T09:58:00Z</time><name>PT1984</name></trkpt>
<trkpt lat="53.357880" lon="-1.794446"><ele>424</ele><time>2020-08-05T09:58:01Z</time><name>PT1985</name></trkpt>
<trkpt lat="53.357882" lon="-1.794431"><ele>424</ele><time>2020-08-05T09:58:02Z</time><name>PT1986</name></trkpt>
<trkpt lat="53.357883" lon="-1.794418"><ele>425</ele><time>2020-08-05T09:58:03Z</time><name>PT1987</name></trkpt>
<trkpt lat="53.357885" lon="-1.794405"><ele>425</ele><time>2020-08-05T09:58:04Z</time><name>PT1988</name></trkpt>
<trkpt lat="53.357887" lon="-1.794394"><ele>425</ele><time>2020-08-05T09:58:05Z</time><name>PT1989</name></trkpt>
<trkpt lat="53.357890" lon="-1.794377"><ele>426</ele><time>2020-08-05T09:58:06Z</time><name>PT1990</name></trkpt>
<trkpt lat="53.357892" lon="-1.794363"><ele>426</ele><time>2020-08-05T09:58:07Z</time><name>PT1991</name></trkpt>
<trkpt lat="53.357896" lon="-1.794350"><ele>426</ele><time>2020-08-05T09:58:08Z</time><name>PT1992</name></trkpt>
<trkpt lat="53.357899" lon="-1.794335"><ele>426</ele><time>2020-08-05T09:58:09Z</time><name>PT1993</name></trkpt>
<trkpt lat="53.357901" lon="-1.794318"><ele>426</ele><time>2020-08-05T09:58:10Z</time><name>PT1994</name></trkpt>
<trkpt lat="53.357904" lon="-1.794305"><ele>426</ele><time>2020-08-05T09:58:11Z</time><name>PT1995</name></trkpt>
<trkpt lat="53.357907" lon="-1.794290"><ele>427</ele><time>2020-08-05T09:58:12Z</time><name>PT1996</name></trkpt>
<trkpt lat="53.357911" lon="-1.794274"><ele>427</ele><time>2020-08-05T09:58:13Z</time><name>PT1997</name></trkpt>
<trkpt lat="53.357915" lon="-1.794262"><ele>427</ele><time>2020-08-05T09:58:14Z</time><name>PT1998</name></trkpt>
<trkpt lat="53.357920" lon="-1.794246"><ele>427</ele><time>2020-08-05T09:58:15Z</time><name>PT1999</name></trkpt>
<trkpt lat="53.357922" lon="-1.794230"><ele>427</ele><time>2020-08-05T09:58:16Z</time><name>PT2000</name></trkpt>
<trkpt lat="53.357924" lon="-1.794215"><ele>428</ele><time>2020-08-05T09:58:17Z</time><name>PT2001</name></trkpt>
<trkpt lat="53.357927" lon="-1.794194"><ele>428</ele><time>2020-08-05T09:58:18Z</time><name>PT2002</name></trkpt>
<trkpt lat="53.357930" lon="-1.794175"><ele>428</ele><time>2020-08-05T09:58:19Z</time><name>PT2003</name></trkpt>
<trkpt lat="53.357935" lon="-1.794154"><ele>428</ele><time>2020-08-05T09:58:20Z</time><name>PT2004</name></trkpt>
<trkpt lat="53.357938" lon="-1.794133"><ele>429</ele><time>2020-08-05T09:58:21Z</time><name>PT2005</name></trkpt>
<trkpt lat="53.357942" lon="-1.794114"><ele>429</ele><time>2020-08-05T09:58:22Z</time><name>PT2006</name></trkpt>
<trkpt lat="53.357945" lon="-1.794097"><ele>429</ele><time>2020-08-05T09:58:23Z</time><name>PT2007</name></trkpt>
<trkpt lat="53.357950" lon="-1.794086"><ele>430</ele><time>2020-08-05T09:58:24Z</time><name>PT2008</name></trkpt>
<trkpt lat="53.357953" lon="-1.794071"><ele>430</ele><time>2020-08-05T09:58:25Z</time><name>PT2009</name></trkpt>
<trkpt lat="53.357958" lon="-1.794053"><ele>430</ele><time>2020-08-05T09:58:26Z</time><name>PT2010</name></trkpt>
<trkpt lat="53.357964" lon="-1.794033"><ele>430</ele><time>2020-08-05T09:58:27Z</time><name>PT2011</name></trkpt>
<trkpt lat="53.357967" lon="-1.794015"><ele>430</ele><time>2020-08-05T09:58:28Z</time><name>PT2012</name></trkpt>
<trkpt lat="53.357970" lon="-1.793996"><ele>429</ele><time>2020-08-05T09:58:29Z</time><name>PT2013</name></trkpt>
<trkpt lat="53.357976" lon="-1.793980"><ele>429</ele><time>2020-08-05T09:58:30Z</time><name>PT2014</name></trkpt>
<trkpt lat="53.357980" lon="-1.793968"><ele>429</ele><time>2020-08-05T09:58:31Z</time><name>PT2015</name></trkpt>
<trkpt lat="53.357983" lon="-1.793956"><ele>429</ele><time>2020-08-05T09:58:32Z</time><name>PT2016</name></trkpt>
<trkpt lat="53.357987" lon="-1.793942"><ele>429</ele><time>2020-08-05T09:58:33Z</time><name>PT2017</name></trkpt>
<trkpt lat="53.357991" lon="-1.793924"><ele>429</ele><time>2020-08-05T09:58:34Z</time><name>PT2018</name></trkpt>
<trkpt lat="53.357994" lon="-1.793909"><ele>429</ele><time>2020-08-05T09:58:35Z</time><name>PT2019</name></trkpt>
<trkpt lat="53.358000" lon="-1.793890"><ele>429</ele><time>2020-08-05T09:58:36Z</time><name>PT2020</name></trkpt>
<trkpt lat="53.358004" lon="-1.793868"><ele>430</ele><time>2020-08-05T09:58:37Z</time><name>PT2021</name></trkpt>
<trkpt lat="53.358009" lon="-1.793851"><ele>429</ele><time>2020-08-05T09:58:38Z</time><name>PT2022</name></trkpt>
<trkpt lat="53.358018" lon="-1.793830"><ele>430</ele><time>2020-08-05T09:58:39Z</time><name>PT2023</name></trkpt>
<trkpt lat="53.358024" lon="-1.793810"><ele>430</ele><time>2020-08-05T09:58:40Z</time><name>PT2024</name></trkpt>
<trkpt lat="53.358028" lon="-1.793789"><ele>431</ele><time>2020-08-05T09:58:41Z</time><name>PT2025</name></trkpt>
<trkpt lat="53.358030" lon="-1.793770"><ele>431</ele><time>2020-08-05T09:58:42Z</time><name>PT2026</name></trkpt>
<trkpt lat="53.358033" lon="-1.793753"><ele>431</ele><time>2020-08-05T09:58:43Z</time><name>PT2027</name></trkpt>
<trkpt lat="53.358036" lon="-1.793739"><ele>431</ele><time>2020-08-05T09:58:44Z</time><name>PT2028</name></trkpt>
<trkpt lat="53.358038" lon="-1.793721"><ele>432</ele><time>2020-08-05T09:58:45Z</time><name>PT2029</name></trkpt>
<trkpt lat="53.358039" lon="-1.793699"><ele>432</ele><time>2020-08-05T09:58:46Z</time><name>PT2030</name></trkpt>
<trkpt lat="53.358044" lon="-1.793681"><ele>432</ele><time>2020-08-05T09:58:47Z</time><name>PT2031</name></trkpt>
<trkpt lat="53.358046" lon="-1.793662"><ele>432</ele><time>2020-08-05T09:58:48Z</time><name>PT2032</name></trkpt>
<trkpt lat="53.358048" lon="-1.793642"><ele>431</ele><time>2020-08-05T09:58:49Z</time><name>PT2033</name></trkpt>
<trkpt lat="53.358048" lon="-1.793625"><ele>432</ele><time>2020-08-05T09:58:50Z</time><name>PT2034</name></trkpt>
<trkpt lat="53.358052" lon="-1.793606"><ele>432</ele><time>2020-08-05T09:58:51Z</time><name>PT2035</name></trkpt>
<trkpt lat="53.358056" lon="-1.793589"><ele>432</ele><time>2020-08-05T09:58:52Z</time><name>PT2036</name></trkpt>
<trkpt lat="53.358059" lon="-1.793572"><ele>432</ele><time>2020-08-05T09:58:53Z</time><name>PT2037</name></trkpt>
<trkpt lat="53.358062" lon="-1.793552"><ele>433</ele><time>2020-08-05T09:58:54Z</time><name>PT2038</name></trkpt>
<trkpt lat="53.358065" lon="-1.793528"><ele>433</ele><time>2020-08-05T09:58:55Z</time><name>PT2039</name></trkpt>
<trkpt lat="53.358068" lon="-1.793508"><ele>432</ele><time>2020-08-05T09:58:56Z</time><name>PT2040</name></trkpt>
<trkpt lat="53.358072" lon="-1.793487"><ele>432</ele><time>2020-08-05T09:58:57Z</time><name>PT2041</name></trkpt>
<trkpt lat="53.358076" lon="-1.793463"><ele>432</ele><time>2020-08-05T09:58:58Z</time><name>PT2042</name></trkpt>
<trkpt lat="53.358080" lon="-1.793445"><ele>432</ele><time>2020-08-05T09:58:59Z</time><name>PT2043</name></trkpt>
<trkpt lat="53.358084" lon="-1.793425"><ele>432</ele><time>2020-08-05T09:59:00Z</time><name>PT2044</name></trkpt>
<trkpt lat="53.358087" lon="-1.793404"><ele>432</ele><time>2020-08-05T09:59:01Z</time><name>PT2045</name></trkpt>
<trkpt lat="53.358091" lon="-1.793387"><ele>432</ele><time>2020-08-05T09:59:02Z</time><name>PT2046</name></trkpt>
<trkpt lat="53.358095" lon="-1.793368"><ele>432</ele><time>2020-08-05T09:59:03Z</time><name>PT2047</name></trkpt>
<trkpt lat="53.358098" lon="-1.793352"><ele>432</ele><time>2020-08-05T09:59:04Z</time><name>PT2048</name></trkpt>
<trkpt lat="53.358103" lon="-1.793331"><ele>432</ele><time>2020-08-05T09:59:05Z</time><name>PT2049</name></trkpt>
<trkpt lat="53.358107" lon="-1.793308"><ele>432</ele><time>2020-08-05T09:59:06Z</time><name>PT2050</name></trkpt>
<trkpt lat="53.358112" lon="-1.793293"><ele>433</ele><time>2020-08-05T09:59:07Z</time><name>PT2051</name></trkpt>
<trkpt lat="53.358116" lon="-1.793273"><ele>432</ele><time>2020-08-05T09:59:08Z</time><name>PT2052</name></trkpt>
<trkpt lat="53.358121" lon="-1.793252"><ele>433</ele><time>2020-08-05T09:59:09Z</time><name>PT2053</name></trkpt>
<trkpt lat="53.358125" lon="-1.793233"><ele>433</ele><time>2020-08-05T09:59:10Z</time><name>PT2054</name></trkpt>
<trkpt lat="53.358130" lon="-1.793214"><ele>433</ele><time>2020-08-05T09:59:11Z</time><name>PT2055</name></trkpt>
<trkpt lat="53.358136" lon="-1.793197"><ele>433</ele><time>2020-08-05T09:59:12Z</time><name>PT2056</name></trkpt>
<trkpt lat="53.358140" lon="-1.793178"><ele>433</ele><time>2020-08-05T09:59:13Z</time><name>PT2057</name></trkpt>
<trkpt lat="53.358143" lon="-1.793158"><ele>433</ele><time>2020-08-05T09:59:14Z</time><name>PT2058</name></trkpt>
<trkpt lat="53.358147" lon="-1.793139"><ele>434</ele><time>2020-08-05T09:59:15Z</time><name>PT2059</name></trkpt>
<trkpt lat="53.358152" lon="-1.793121"><ele>434</ele><time>2020-08-05T09:59:16Z</time><name>PT2060</name></trkpt>
<trkpt lat="53.358157" lon="-1.793101"><ele>434</ele><time>2020-08-05T09:59:17Z</time><name>PT2061</name></trkpt>
<trkpt lat="53.358162" lon="-1.793082"><ele>434</ele><time>2020-08-05T09:59:18Z</time><name>PT2062</name></trkpt>
<trkpt lat="53.358167" lon="-1.793063"><ele>434</ele><time>2020-08-05T09:59:19Z</time><name>PT2063</name></trkpt>
<trkpt lat="53.358174" lon="-1.793046"><ele>434</ele><time>2020-08-05T09:59:20Z</time><name>PT2064</name></trkpt>
<trkpt lat="53.358180" lon="-1.793025"><ele>434</ele><time>2020-08-05T09:59:21Z</time><name>PT2065</name></trkpt>
<trkpt lat="53.358185" lon="-1.793005"><ele>434</ele><time>2020-08-05T09:59:22Z</time><name>PT2066</name></trkpt>
<trkpt lat="53.358188" lon="-1.792986"><ele>434</ele><time>2020-08-05T09:59:23Z</time><name>PT2067</name></trkpt>
<trkpt lat="53.358190" lon="-1.792972"><ele>433</ele><time>2020-08-05T09:59:24Z</time><name>PT2068</name></trkpt>
<trkpt lat="53.358193" lon="-1.792951"><ele>433</ele><time>2020-08-05T09:59:25Z</time><name>PT2069</name></trkpt>
<trkpt lat="53.358198" lon="-1.792928"><ele>433</ele><time>2020-08-05T09:59:26Z</time><name>PT2070</name></trkpt>
<trkpt lat="53.358204" lon="-1.792907"><ele>433</ele><time>2020-08-05T09:59:27Z</time><name>PT2071</name></trkpt>
<trkpt lat="53.358210" lon="-1.792893"><ele>434</ele><time>2020-08-05T09:59:28Z</time><name>PT2072</name></trkpt>
<trkpt lat="53.358217" lon="-1.792882"><ele>434</ele><time>2020-08-05T09:59:29Z</time><name>PT2073</name></trkpt>
<trkpt lat="53.358219" lon="-1.792872"><ele>433</ele><time>2020-08-05T09:59:30Z</time><name>PT2074</name></trkpt>
<trkpt lat="53.358221" lon="-1.792865"><ele>433</ele><time>2020-08-05T09:59:31Z</time><name>PT2075</name></trkpt>
<trkpt lat="53.358224" lon="-1.792860"><ele>433</ele><time>2020-08-05T09:59:32Z</time><name>PT2076</name></trkpt>
<trkpt lat="53.358225" lon="-1.792847"><ele>434</ele><time>2020-08-05T09:59:33Z</time><name>PT2077</name></trkpt>
<trkpt lat="53.358224" lon="-1.792838"><ele>433</ele><time>2020-08-05T09:59:34Z</time><name>PT2078</name></trkpt>
<trkpt lat="53.358224" lon="-1.792825"><ele>433</ele><time>2020-08-05T09:59:35Z</time><name>PT2079</name></trkpt>
<trkpt lat="53.358225" lon="-1.792813"><ele>433</ele><time>2020-08-05T09:59:36Z</time><name>PT2080</name></trkpt>
<trkpt lat="53.358231" lon="-1.792796"><ele>433</ele><time>2020-08-05T09:59:37Z</time><name>PT2081</name></trkpt>
<trkpt lat="53.358236" lon="-1.792780"><ele>432</ele><time>2020-08-05T09:59:38Z</time><name>PT2082</name></trkpt>
<trkpt lat="53.358242" lon="-1.792763"><ele>432</ele><time>2020-08-05T09:59:39Z</time><name>PT2083</name></trkpt>
<trkpt lat="53.358249" lon="-1.792747"><ele>431</ele><time>2020-08-05T09:59:40Z</time><name>PT2084</name></trkpt>
<trkpt lat="53.358256" lon="-1.792730"><ele>432</ele><time>2020-08-05T09:59:41Z</time><name>PT2085</name></trkpt>
<trkpt lat="53.358264" lon="-1.792708"><ele>432</ele><time>2020-08-05T09:59:42Z</time><name>PT2086</name></trkpt>
<trkpt lat="53.358270" lon="-1.792684"><ele>433</ele><time>2020-08-05T09:59:43Z</time><name>PT2087</name></trkpt>
<trkpt lat="53.358277" lon="-1.792660"><ele>433</ele><time>2020-08-05T09:59:44Z</time><name>PT2088</name></trkpt>
<trkpt lat="53.358282" lon="-1.792640"><ele>433</ele><time>2020-08-05T09:59:45Z</time><name>PT2089</name></trkpt>
<trkpt lat="53.358286" lon="-1.792625"><ele>433</ele><time>2020-08-05T09:59:46Z</time><name>PT2090</name></trkpt>
<trkpt lat="53.358294" lon="-1.792606"><ele>432</ele><time>2020-08-05T09:59:47Z</time><name>PT2091</name></trkpt>
<trkpt lat="53.358297" lon="-1.792592"><ele>432</ele><time>2020-08-05T09:59:48Z</time><name>PT2092</name></trkpt>
<trkpt lat="53.358303" lon="-1.792576"><ele>432</ele><time>2020-08-05T09:59:49Z</time><name>PT2093</name></trkpt>
<trkpt lat="53.358308" lon="-1.792556"><ele>432</ele><time>2020-08-05T09:59:50Z</time><name>PT2094</name></trkpt>
<trkpt lat="53.358312" lon="-1.792534"><ele>432</ele><time>2020-08-05T09:59:51Z</time><name>PT2095</name></trkpt>
<trkpt lat="53.358317" lon="-1.792514"><ele>431</ele><time>2020-08-05T09:59:52Z</time><name>PT2096</name></trkpt>
<trkpt lat="53.358322" lon="-1.792493"><ele>431</ele><time>2020-08-05T09:59:53Z</time><name>PT2097</name></trkpt>
<trkpt lat="53.358327" lon="-1.792470"><ele>431</ele><time>2020-08-05T09:59:54Z</time><name>PT2098</name></trkpt>
<trkpt lat="53.358335" lon="-1.792448"><ele>432</ele><time>2020-08-05T09:59:55Z</time><name>PT2099</name></trkpt>
<trkpt lat="53.358342" lon="-1.792427"><ele>432</ele><time>2020-08-05T09:59:56Z</time><name>PT2100</name></trkpt>
<trkpt lat="53.358347" lon="-1.792409"><ele>432</ele><time>2020-08-05T09:59:57Z</time><name>PT2101</name></trkpt>
<trkpt lat="53.358352" lon="-1.792389"><ele>432</ele><time>2020-08-05T09:59:58Z</time><name>PT2102</name></trkpt>
<trkpt lat="53.358356" lon="-1.792370"><ele>432</ele><time>2020-08-05T09:59:59Z</time><name>PT2103</name></trkpt>
<trkpt lat="53.358359" lon="-1.792351"><ele>431</ele><time>2020-08-05T10:00:00Z</time><name>PT2104</name></trkpt>
<trkpt lat="53.358364" lon="-1.792337"><ele>431</ele><time>2020-08-05T10:00:01Z</time><name>PT2105</name></trkpt>
<trkpt lat="53.358370" lon="-1.792319"><ele>431</ele><time>2020-08-05T10:00:02Z</time><name>PT2106</name></trkpt>
<trkpt lat="53.358375" lon="-1.792294"><ele>431</ele><time>2020-08-05T10:00:03Z</time><name>PT2107</name></trkpt>
<trkpt lat="53.358381" lon="-1.792274"><ele>431</ele><time>2020-08-05T10:00:04Z</time><name>PT2108</name></trkpt>
<trkpt lat="53.358386" lon="-1.792252"><ele>431</ele><time>2020-08-05T10:00:05Z</time><name>PT2109</name></trkpt>
<trkpt lat="53.358391" lon="-1.792228"><ele>431</ele><time>2020-08-05T10:00:06Z</time><name>PT2110</name></trkpt>
<trkpt lat="53.358394" lon="-1.792206"><ele>431</ele><time>2020-08-05T10:00:07Z</time><name>PT2111</name></trkpt>
<trkpt lat="53.358399" lon="-1.792186"><ele>431</ele><time>2020-08-05T10:00:08Z</time><name>PT2112</name></trkpt>
<trkpt lat="53.358406" lon="-1.792168"><ele>431</ele><time>2020-08-05T10:00:09Z</time><name>PT2113</name></trkpt>
<trkpt lat="53.358410" lon="-1.792146"><ele>431</ele><time>2020-08-05T10:00:10Z</time><name>PT2114</name></trkpt>
<trkpt lat="53.358413" lon="-1.792128"><ele>431</ele><time>2020-08-05T10:00:11Z</time><name>PT2115</name></trkpt>
<trkpt lat="53.358420" lon="-1.792106"><ele>431</ele><time>2020-08-05T10:00:12Z</time><name>PT2116</name></trkpt>
<trkpt lat="53.358423" lon="-1.792092"><ele>431</ele><time>2020-08-05T10:00:13Z</time><name>PT2117</name></trkpt>
<trkpt lat="53.358429" lon="-1.792075"><ele>431</ele><time>2020-08-05T10:00:14Z</time><name>PT2118</name></trkpt>
<trkpt lat="53.358436" lon="-1.792053"><ele>431</ele><time>2020-08-05T10:00:15Z</time><name>PT2119</name></trkpt>
<trkpt lat="53.358439" lon="-1.792031"><ele>430</ele><time>2020-08-05T10:00:16Z</time><name>PT2120</name></trkpt>
<trkpt lat="53.358445" lon="-1.792009"><ele>430</ele><time>2020-08-05T10:00:17Z</time><name>PT2121</name></trkpt>
<trkpt lat="53.358446" lon="-1.791988"><ele>430</ele><time>2020-08-05T10:00:18Z</time><name>PT2122</name></trkpt>
<trkpt lat="53.358449" lon="-1.791965"><ele>431</ele><time>2020-08-05T10:00:19Z</time><name>PT2123</name></trkpt>
<trkpt lat="53.358453" lon="-1.791942"><ele>431</ele><time>2020-08-05T10:00:20Z</time><name>PT2124</name></trkpt>
<trkpt lat="53.358457" lon="-1.791919"><ele>430</ele><time>2020-08-05T10:00:21Z</time><name>PT2125</name></trkpt>
<trkpt lat="53.358461" lon="-1.791900"><ele>430</ele><time>2020-08-05T10:00:22Z</time><name>PT2126</name></trkpt>
<trkpt lat="53.358467" lon="-1.791880"><ele>431</ele><time>2020-08-05T10:00:23Z</time><name>PT2127</name></trkpt>
<trkpt lat="53.358474" lon="-1.791857"><ele>431</ele><time>2020-08-05T10:00:24Z</time><name>PT2128</name></trkpt>
<trkpt lat="53.358482" lon="-1.791841"><ele>432</ele><time>2020-08-05T10:00:25Z</time><name>PT2129</name></trkpt>
<trkpt lat="53.358490" lon="-1.791821"><ele>432</ele><time>2020-08-05T10:00:26Z</time><name>PT2130</name></trkpt>
<trkpt lat="53.358498" lon="-1.791804"><ele>432</ele><time>2020-08-05T10:00:27Z</time><name>PT2131</name></trkpt>
<trkpt lat="53.358505" lon="-1.791784"><ele>433</ele><time>2020-08-05T10:00:28Z</time><name>PT2132</name></trkpt>
<trkpt lat="53.358511" lon="-1.791766"><ele>433</ele><time>2020-08-05T10:00:29Z</time><name>PT2133</name></trkpt>
<trkpt lat="53.358518" lon="-1.791746"><ele>433</ele><time>2020-08-05T10:00:30Z</time><name>PT2134</name></trkpt>
<trkpt lat="53.358526" lon="-1.791724"><ele>433</ele><time>2020-08-05T10:00:31Z</time><name>PT2135</name></trkpt>
<trkpt lat="53.358531" lon="-1.791705"><ele>433</ele><time>2020-08-05T10:00:32Z</time><name>PT2136</name></trkpt>
<trkpt lat="53.358535" lon="-1.791687"><ele>433</ele><time>2020-08-05T10:00:33Z</time><name>PT2137</name></trkpt>
<trkpt lat="53.358540" lon="-1.791666"><ele>432</ele><time>2020-08-05T10:00:34Z</time><name>PT2138</name></trkpt>
<trkpt lat="53.358548" lon="-1.791644"><ele>433</ele><time>2020-08-05T10:00:35Z</time><name>PT2139</name></trkpt>
<trkpt lat="53.358559" lon="-1.791643"><ele>433</ele><time>2020-08-05T10:00:36Z</time><name>PT2140</name></trkpt>
<trkpt lat="53.358564" lon="-1.791631"><ele>433</ele><time>2020-08-05T10:00:37Z</time><name>PT2141</name></trkpt>
<trkpt lat="53.358570" lon="-1.791614"><ele>433</ele><time>2020-08-05T10:00:38Z</time><name>PT2142</name></trkpt>
<trkpt lat="53.358575" lon="-1.791593"><ele>433</ele><time>2020-08-05T10:00:39Z</time><name>PT2143</name></trkpt>
<trkpt lat="53.358581" lon="-1.791573"><ele>433</ele><time>2020-08-05T10:00:40Z</time><name>PT2144</name></trkpt>
<trkpt lat="53.358587" lon="-1.791551"><ele>433</ele><time>2020-08-05T10:00:41Z</time><name>PT2145</name></trkpt>
<trkpt lat="53.358593" lon="-1.791528"><ele>433</ele><time>2020-08-05T10:00:42Z</time><name>PT2146</name></trkpt>
<trkpt lat="53.358599" lon="-1.791507"><ele>433</ele><time>2020-08-05T10:00:43Z</time><name>PT2147</name></trkpt>
<trkpt lat="53.358604" lon="-1.791487"><ele>433</ele><time>2020-08-05T10:00:44Z</time><name>PT2148</name></trkpt>
<trkpt lat="53.358609" lon="-1.791466"><ele>433</ele><time>2020-08-05T10:00:45Z</time><name>PT2149</name></trkpt>
<trkpt lat="53.358612" lon="-1.791447"><ele>432</ele><time>2020-08-05T10:00:46Z</time><name>PT2150</name></trkpt>
<trkpt lat="53.358617" lon="-1.791428"><ele>432</ele><time>2020-08-05T10:00:47Z</time><name>PT2151</name></trkpt>
<trkpt lat="53.358621" lon="-1.791409"><ele>432</ele><time>2020-08-05T10:00:48Z</time><name>PT2152</name></trkpt>
<trkpt lat="53.358628" lon="-1.791390"><ele>432</ele><time>2020-08-05T10:00:49Z</time><name>PT2153</name></trkpt>
<trkpt lat="53.358638" lon="-1.791372"><ele>432</ele><time>2020-08-05T10:00:50Z</time><name>PT2154</name></trkpt>
<trkpt lat="53.358648" lon="-1.791354"><ele>432</ele><time>2020-08-05T10:00:51Z</time><name>PT2155</name></trkpt>
<trkpt lat="53.358658" lon="-1.791342"><ele>432</ele><time>2020-08-05T10:00:52Z</time><name>PT2156</name></trkpt>
<trkpt lat="53.358666" lon="-1.791327"><ele>433</ele><time>2020-08-05T10:00:53Z</time><name>PT2157</name></trkpt>
<trkpt lat="53.358674" lon="-1.791308"><ele>433</ele><time>2020-08-05T10:00:54Z</time><name>PT2158</name></trkpt>
<trkpt lat="53.358681" lon="-1.791289"><ele>434</ele><time>2020-08-05T10:00:55Z</time><name>PT2159</name></trkpt>
<trkpt lat="53.358688" lon="-1.791269"><ele>434</ele><time>2020-08-05T10:00:56Z</time><name>PT2160</name></trkpt>
<trkpt lat="53.358695" lon="-1.791251"><ele>434</ele><time>2020-08-05T10:00:57Z</time><name>PT2161</name></trkpt>
<trkpt lat="53.358701" lon="-1.791235"><ele>434</ele><time>2020-08-05T10:00:58Z</time><name>PT2162</name></trkpt>
<trkpt lat="53.358706" lon="-1.791214"><ele>433</ele><time>2020-08-05T10:00:59Z</time><name>PT2163</name></trkpt>
<trkpt lat="53.358712" lon="-1.791192"><ele>433</ele><time>2020-08-05T10:01:00Z</time><name>PT2164</name></trkpt>
<trkpt lat="53.358717" lon="-1.791174"><ele>434</ele><time>2020-08-05T10:01:01Z</time><name>PT2165</name></trkpt>
<trkpt lat="53.358724" lon="-1.791153"><ele>433</ele><time>2020-08-05T10:01:02Z</time><name>PT2166</name></trkpt>
<trkpt lat="53.358727" lon="-1.791133"><ele>433</ele><time>2020-08-05T10:01:03Z</time><name>PT2167</name></trkpt>
<trkpt lat="53.358731" lon="-1.791117"><ele>433</ele><time>2020-08-05T10:01:04Z</time><name>PT2168</name></trkpt>
<trkpt lat="53.358733" lon="-1.791104"><ele>433</ele><time>2020-08-05T10:01:05Z</time><name>PT2169</name></trkpt>
<trkpt lat="53.358737" lon="-1.791088"><ele>432</ele><time>2020-08-05T10:01:06Z</time><name>PT2170</name></trkpt>
<trkpt lat="53.358741" lon="-1.791072"><ele>432</ele><time>2020-08-05T10:01:07Z</time><name>PT2171</name></trkpt>
<trkpt lat="53.358745" lon="-1.791056"><ele>432</ele><time>2020-08-05T10:01:08Z</time><name>PT2172</name></trkpt>
<trkpt lat="53.358750" lon="-1.791045"><ele>432</ele><time>2020-08-05T10:01:09Z</time><name>PT2173</name></trkpt>
<trkpt lat="53.358756" lon="-1.791038"><ele>432</ele><time>2020-08-05T10:01:10Z</time><name>PT2174</name></trkpt>
<trkpt lat="53.358763" lon="-1.791025"><ele>431</ele><time>2020-08-05T10:01:11Z</time><name>PT2175</name></trkpt>
<trkpt lat="53.358768" lon="-1.791005"><ele>430</ele><time>2020-08-05T10:01:12Z</time><name>PT2176</name></trkpt>
<trkpt lat="53.358772" lon="-1.790983"><ele>430</ele><time>2020-08-05T10:01:13Z</time><name>PT2177</name></trkpt>
<trkpt lat="53.358775" lon="-1.790964"><ele>429</ele><time>2020-08-05T10:01:14Z</time><name>PT2178</name></trkpt>
<trkpt lat="53.358779" lon="-1.790946"><ele>429</ele><time>2020-08-05T10:01:15Z</time><name>PT2179</name></trkpt>
<trkpt lat="53.358783" lon="-1.790932"><ele>429</ele><time>2020-08-05T10:01:16Z</time><name>PT2180</name></trkpt>
<trkpt lat="53.358787" lon="-1.790915"><ele>428</ele><time>2020-08-05T10:01:17Z</time><name>PT2181</name></trkpt>
<trkpt lat="53.358792" lon="-1.790893"><ele>429</ele><time>2020-08-05T10:01:18Z</time><name>PT2182</name></trkpt>
<trkpt lat="53.358798" lon="-1.790872"><ele>428</ele><time>2020-08-05T10:01:19Z</time><name>PT2183</name></trkpt>
<trkpt lat="53.358806" lon="-1.790852"><ele>428</ele><time>2020-08-05T10:01:20Z</time><name>PT2184</name></trkpt>
<trkpt lat="53.358813" lon="-1.790831"><ele>429</ele><time>2020-08-05T10:01:21Z</time><name>PT2185</name></trkpt>
<trkpt lat="53.358820" lon="-1.790808"><ele>428</ele><time>2020-08-05T10:01:22Z</time><name>PT2186</name></trkpt>
<trkpt lat="53.358828" lon="-1.790786"><ele>428</ele><time>2020-08-05T10:01:23Z</time><name>PT2187</name></trkpt>
<trkpt lat="53.358835" lon="-1.790770"><ele>429</ele><time>2020-08-05T10:01:24Z</time><name>PT2188</name></trkpt>
<trkpt lat="53.358844" lon="-1.790764"><ele>429</ele><time>2020-08-05T10:01:25Z</time><name>PT2189</name></trkpt>
<trkpt lat="53.358851" lon="-1.790749"><ele>429</ele><time>2020-08-05T10:01:26Z</time><name>PT2190</name></trkpt>
<trkpt lat="53.358856" lon="-1.790736"><ele>429</ele><time>2020-08-05T10:01:27Z</time><name>PT2191</name></trkpt>
<trkpt lat="53.358863" lon="-1.790720"><ele>428</ele><time>2020-08-05T10:01:28Z</time><name>PT2192</name></trkpt>
<trkpt lat="53.358870" lon="-1.790698"><ele>428</ele><time>2020-08-05T10:01:29Z</time><name>PT2193</name></trkpt>
<trkpt lat="53.358877" lon="-1.790679"><ele>427</ele><time>2020-08-05T10:01:30Z</time><name>PT2194</name></trkpt>
<trkpt lat="53.358884" lon="-1.790659"><ele>427</ele><time>2020-08-05T10:01:31Z</time><name>PT2195</name></trkpt>
<trkpt lat="53.358889" lon="-1.790642"><ele>426</ele><time>2020-08-05T10:01:32Z</time><name>PT2196</name></trkpt>
<trkpt lat="53.358897" lon="-1.790622"><ele>426</ele><time>2020-08-05T10:01:33Z</time><name>PT2197</name></trkpt>
<trkpt lat="53.358904" lon="-1.790604"><ele>426</ele><time>2020-08-05T10:01:34Z</time><name>PT2198</name></trkpt>
<trkpt lat="53.358913" lon="-1.790580"><ele>427</ele><time>2020-08-05T10:01:35Z</time><name>PT2199</name></trkpt>
<trkpt lat="53.358920" lon="-1.790558"><ele>426</ele><time>2020-08-05T10:01:36Z</time><name>PT2200</name></trkpt>
<trkpt lat="53.358926" lon="-1.790542"><ele>426</ele><time>2020-08-05T10:01:37Z</time><name>PT2201</name></trkpt>
<trkpt lat="53.358931" lon="-1.790526"><ele>426</ele><time>2020-08-05T10:01:38Z</time><name>PT2202</name></trkpt>
<trkpt lat="53.358936" lon="-1.790504"><ele>426</ele><time>2020-08-05T10:01:39Z</time><name>PT2203</name></trkpt>
<trkpt lat="53.358940" lon="-1.790486"><ele>426</ele><time>2020-08-05T10:01:40Z</time><name>PT2204</name></trkpt>
<trkpt lat="53.358946" lon="-1.790474"><ele>426</ele><time>2020-08-05T10:01:41Z</time><name>PT2205</name></trkpt>
<trkpt lat="53.358952" lon="-1.790458"><ele>425</ele><time>2020-08-05T10:01:42Z</time><name>PT2206</name></trkpt>
<trkpt lat="53.358959" lon="-1.790439"><ele>425</ele><time>2020-08-05T10:01:43Z</time><name>PT2207</name></trkpt>
<trkpt lat="53.358965" lon="-1.790421"><ele>425</ele><time>2020-08-05T10:01:44Z</time><name>PT2208</name></trkpt>
<trkpt lat="53.358973" lon="-1.790403"><ele>425</ele><time>2020-08-05T10:01:45Z</time><name>PT2209</name></trkpt>
<trkpt lat="53.358980" lon="-1.790385"><ele>425</ele><time>2020-08-05T10:01:46Z</time><name>PT2210</name></trkpt>
<trkpt lat="53.358983" lon="-1.790372"><ele>425</ele><time>2020-08-05T10:01:47Z</time><name>PT2211</name></trkpt>
<trkpt lat="53.358991" lon="-1.790356"><ele>425</ele><time>2020-08-05T10:01:48Z</time><name>PT2212</name></trkpt>
<trkpt lat="53.359002" lon="-1.790335"><ele>425</ele><time>2020-08-05T10:01:49Z</time><name>PT2213</name></trkpt>
<trkpt lat="53.359011" lon="-1.790313"><ele>425</ele><time>2020-08-05T10:01:50Z</time><name>PT2214</name></trkpt>
<trkpt lat="53.359018" lon="-1.790292"><ele>426</ele><time>2020-08-05T10:01:51Z</time><name>PT2215</name></trkpt>
<trkpt lat="53.359025" lon="-1.790272"><ele>425</ele><time>2020-08-05T10:01:52Z</time><name>PT2216</name></trkpt>
<trkpt lat="53.359032" lon="-1.790251"><ele>426</ele><time>2020-08-05T10:01:53Z</time><name>PT2217</name></trkpt>
<trkpt lat="53.359038" lon="-1.790231"><ele>426</ele><time>2020-08-05T10:01:54Z</time><name>PT2218</name></trkpt>
<trkpt lat="53.359045" lon="-1.790212"><ele>426</ele><time>2020-08-05T10:01:55Z</time><name>PT2219</name></trkpt>
<trkpt lat="53.359052" lon="-1.790193"><ele>426</ele><time>2020-08-05T10:01:56Z</time><name>PT2220</name></trkpt>
<trkpt lat="53.359057" lon="-1.790172"><ele>426</ele><time>2020-08-05T10:01:57Z</time><name>PT2221</name></trkpt>
<trkpt lat="53.359058" lon="-1.790153"><ele>426</ele><time>2020-08-05T10:01:58Z</time><name>PT2222</name></trkpt>
<trkpt lat="53.359062" lon="-1.790135"><ele>425</ele><time>2020-08-05T10:01:59Z</time><name>PT2223</name></trkpt>
<trkpt lat="53.359066" lon="-1.790115"><ele>425</ele><time>2020-08-05T10:02:00Z</time><name>PT2224</name></trkpt>
<trkpt lat="53.359067" lon="-1.790099"><ele>425</ele><time>2020-08-05T10:02:01Z</time><name>PT2225</name></trkpt>
<trkpt lat="53.359070" lon="-1.790088"><ele>425</ele><time>2020-08-05T10:02:02Z</time><name>PT2226</name></trkpt>
<trkpt lat="53.359073" lon="-1.790078"><ele>425</ele><time>2020-08-05T10:02:03Z</time><name>PT2227</name></trkpt>
<trkpt lat="53.359079" lon="-1.790064"><ele>425</ele><time>2020-08-05T10:02:04Z</time><name>PT2228</name></trkpt>
<trkpt lat="53.359084" lon="-1.790056"><ele>425</ele><time>2020-08-05T10:02:05Z</time><name>PT2229</name></trkpt>
<trkpt lat="53.359089" lon="-1.790029"><ele>424</ele><time>2020-08-05T10:02:06Z</time><name>PT2230</name></trkpt>
<trkpt lat="53.359095" lon="-1.790008"><ele>423</ele><time>2020-08-05T10:02:07Z</time><name>PT2231</name></trkpt>
<trkpt lat="53.359100" lon="-1.789987"><ele>423</ele><time>2020-08-05T10:02:08Z</time><name>PT2232</name></trkpt>
<trkpt lat="53.359106" lon="-1.789969"><ele>423</ele><time>2020-08-05T10:02:09Z</time><name>PT2233</name></trkpt>
<trkpt lat="53.359112" lon="-1.789950"><ele>422</ele><time>2020-08-05T10:02:10Z</time><name>PT2234</name></trkpt>
<trkpt lat="53.359116" lon="-1.789933"><ele>421</ele><time>2020-08-05T10:02:11Z</time><name>PT2235</name></trkpt>
<trkpt lat="53.359118" lon="-1.789915"><ele>421</ele><time>2020-08-05T10:02:12Z</time><name>PT2236</name></trkpt>
<trkpt lat="53.359121" lon="-1.789896"><ele>421</ele><time>2020-08-05T10:02:13Z</time><name>PT2237</name></trkpt>
<trkpt lat="53.359126" lon="-1.789878"><ele>420</ele><time>2020-08-05T10:02:14Z</time><name>PT2238</name></trkpt>
<trkpt lat="53.359131" lon="-1.789851"><ele>420</ele><time>2020-08-05T10:02:15Z</time><name>PT2239</name></trkpt>
<trkpt lat="53.359137" lon="-1.789831"><ele>421</ele><time>2020-08-05T10:02:16Z</time><name>PT2240</name></trkpt>
<trkpt lat="53.359144" lon="-1.789814"><ele>421</ele><time>2020-08-05T10:02:17Z</time><name>PT2241</name></trkpt>
<trkpt lat="53.359153" lon="-1.789800"><ele>421</ele><time>2020-08-05T10:02:18Z</time><name>PT2242</name></trkpt>
<trkpt lat="53.359161" lon="-1.789784"><ele>420</ele><time>2020-08-05T10:02:19Z</time><name>PT2243</name></trkpt>
<trkpt lat="53.359168" lon="-1.789772"><ele>420</ele><time>2020-08-05T10:02:20Z</time><name>PT2244</name></trkpt>
<trkpt lat="53.359174" lon="-1.789758"><ele>420</ele><time>2020-08-05T10:02:21Z</time><name>PT2245</name></trkpt>
<trkpt lat="53.359179" lon="-1.789739"><ele>420</ele><time>2020-08-05T10:02:22Z</time><name>PT2246</name></trkpt>
<trkpt lat="53.359185" lon="-1.789726"><ele>420</ele><time>2020-08-05T10:02:23Z</time><name>PT2247</name></trkpt>
<trkpt lat="53.359193" lon="-1.789712"><ele>420</ele><time>2020-08-05T10:02:24Z</time><name>PT2248</name></trkpt>
<trkpt lat="53.359199" lon="-1.789698"><ele>419</ele><time>2020-08-05T10:02:25Z</time><name>PT2249</name></trkpt>
<trkpt lat="53.359205" lon="-1.789675"><ele>421</ele><time>2020-08-05T10:02:26Z</time><name>PT2250</name></trkpt>
<trkpt lat="53.359213" lon="-1.789663"><ele>421</ele><time>2020-08-05T10:02:27Z</time><name>PT2251</name></trkpt>
<trkpt lat="53.359221" lon="-1.789651"><ele>422</ele><time>2020-08-05T10:02:28Z</time><name>PT2252</name></trkpt>
<trkpt lat="53.359229" lon="-1.789640"><ele>421</ele><time>2020-08-05T10:02:29Z</time><name>PT2253</name></trkpt>
<trkpt lat="53.359238" lon="-1.789625"><ele>420</ele><time>2020-08-05T10:02:30Z</time><name>PT2254</name></trkpt>
<trkpt lat="53.359245" lon="-1.789613"><ele>419</ele><time>2020-08-05T10:02:31Z</time><name>PT2255</name></trkpt>
<trkpt lat="53.359250" lon="-1.789596"><ele>419</ele><time>2020-08-05T10:02:32Z</time><name>PT2256</name></trkpt>
<trkpt lat="53.359255" lon="-1.789577"><ele>419</ele><time>2020-08-05T10:02:33Z</time><name>PT2257</name></trkpt>
<trkpt lat="53.359261" lon="-1.789554"><ele>419</ele><time>2020-08-05T10:02:34Z</time><name>PT2258</name></trkpt>
<trkpt lat="53.359267" lon="-1.789537"><ele>419</ele><time>2020-08-05T10:02:35Z</time><name>PT2259</name></trkpt>
<trkpt lat="53.359271" lon="-1.789526"><ele>418</ele><time>2020-08-05T10:02:36Z</time><name>PT2260</name></trkpt>
<trkpt lat="53.359276" lon="-1.789503"><ele>419</ele><time>2020-08-05T10:02:37Z</time><name>PT2261</name></trkpt>
<trkpt lat="53.359280" lon="-1.789478"><ele>419</ele><time>2020-08-05T10:02:38Z</time><name>PT2262</name></trkpt>
<trkpt lat="53.359283" lon="-1.789456"><ele>418</ele><time>2020-08-05T10:02:39Z</time><name>PT2263</name></trkpt>
<trkpt lat="53.359288" lon="-1.789440"><ele>417</ele><time>2020-08-05T10:02:40Z</time><name>PT2264</name></trkpt>
<trkpt lat="53.359296" lon="-1.789423"><ele>417</ele><time>2020-08-05T10:02:41Z</time><name>PT2265</name></trkpt>
<trkpt lat="53.359302" lon="-1.789405"><ele>417</ele><time>2020-08-05T10:02:42Z</time><name>PT2266</name></trkpt>
<trkpt lat="53.359305" lon="-1.789387"><ele>417</ele><time>2020-08-05T10:02:43Z</time><name>PT2267</name></trkpt>
<trkpt lat="53.359310" lon="-1.789368"><ele>416</ele><time>2020-08-05T10:02:44Z</time><name>PT2268</name></trkpt>
<trkpt lat="53.359315" lon="-1.789350"><ele>416</ele><time>2020-08-05T10:02:45Z</time><name>PT2269</name></trkpt>
<trkpt lat="53.359325" lon="-1.789334"><ele>417</ele><time>2020-08-05T10:02:46Z</time><name>PT2270</name></trkpt>
<trkpt lat="53.359332" lon="-1.789319"><ele>417</ele><time>2020-08-05T10:02:47Z</time><name>PT2271</name></trkpt>
<trkpt lat="53.359336" lon="-1.789301"><ele>417</ele><time>2020-08-05T10:02:48Z</time><name>PT2272</name></trkpt>
<trkpt lat="53.359343" lon="-1.789281"><ele>417</ele><time>2020-08-05T10:02:49Z</time><name>PT2273</name></trkpt>
<trkpt lat="53.359350" lon="-1.789263"><ele>416</ele><time>2020-08-05T10:02:50Z</time><name>PT2274</name></trkpt>
<trkpt lat="53.359357" lon="-1.789247"><ele>416</ele><time>2020-08-05T10:02:51Z</time><name>PT2275</name></trkpt>
<trkpt lat="53.359367" lon="-1.789233"><ele>416</ele><time>2020-08-05T10:02:52Z</time><name>PT2276</name></trkpt>
<trkpt lat="53.359374" lon="-1.789221"><ele>416</ele><time>2020-08-05T10:02:53Z</time><name>PT2277</name></trkpt>
<trkpt lat="53.359381" lon="-1.789207"><ele>416</ele><time>2020-08-05T10:02:54Z</time><name>PT2278</name></trkpt>
<trkpt lat="53.359386" lon="-1.789186"><ele>416</ele><time>2020-08-05T10:02:55Z</time><name>PT2279</name></trkpt>
<trkpt lat="53.359389" lon="-1.789165"><ele>416</ele><time>2020-08-05T10:02:56Z</time><name>PT2280</name></trkpt>
<trkpt lat="53.359394" lon="-1.789150"><ele>416</ele><time>2020-08-05T10:02:57Z</time><name>PT2281</name></trkpt>
<trkpt lat="53.359400" lon="-1.789134"><ele>416</ele><time>2020-08-05T10:02:58Z</time><name>PT2282</name></trkpt>
<trkpt lat="53.359405" lon="-1.789111"><ele>416</ele><time>2020-08-05T10:02:59Z</time><name>PT2283</name></trkpt>
<trkpt lat="53.359410" lon="-1.789092"><ele>416</ele><time>2020-08-05T10:03:00Z</time><name>PT2284</name></trkpt>
<trkpt lat="53.359413" lon="-1.789073"><ele>416</ele><time>2020-08-05T10:03:01Z</time><name>PT2285</name></trkpt>
<trkpt lat="53.359420" lon="-1.789049"><ele>416</ele><time>2020-08-05T10:03:02Z</time><name>PT2286</name></trkpt>
<trkpt lat="53.359427" lon="-1.789025"><ele>416</ele><time>2020-08-05T10:03:03Z</time><name>PT2287</name></trkpt>
<trkpt lat="53.359434" lon="-1.789007"><ele>416</ele><time>2020-08-05T10:03:04Z</time><name>PT2288</name></trkpt>
<trkpt lat="53.359442" lon="-1.788989"><ele>416</ele><time>2020-08-05T10:03:05Z</time><name>PT2289</name></trkpt>
<trkpt lat="53.359449" lon="-1.788970"><ele>416</ele><time>2020-08-05T10:03:06Z</time><name>PT2290</name></trkpt>
<trkpt lat="53.359456" lon="-1.788951"><ele>415</ele><time>2020-08-05T10:03:07Z</time><name>PT2291</name></trkpt>
<trkpt lat="53.359463" lon="-1.788932"><ele>415</ele><time>2020-08-05T10:03:08Z</time><name>PT2292</name></trkpt>
<trkpt lat="53.359470" lon="-1.788913"><ele>415</ele><time>2020-08-05T10:03:09Z</time><name>PT2293</name></trkpt>
<trkpt lat="53.359473" lon="-1.788893"><ele>414</ele><time>2020-08-05T10:03:10Z</time><name>PT2294</name></trkpt>
<trkpt lat="53.359479" lon="-1.788874"><ele>414</ele><time>2020-08-05T10:03:11Z</time><name>PT2295</name></trkpt>
<trkpt lat="53.359486" lon="-1.788852"><ele>415</ele><time>2020-08-05T10:03:12Z</time><name>PT2296</name></trkpt>
<trkpt lat="53.359490" lon="-1.788835"><ele>415</ele><time>2020-08-05T10:03:13Z</time><name>PT2297</name></trkpt>
<trkpt lat="53.359497" lon="-1.788813"><ele>414</ele><time>2020-08-05T10:03:14Z</time><name>PT2298</name></trkpt>
<trkpt lat="53.359503" lon="-1.788793"><ele>414</ele><time>2020-08-05T10:03:15Z</time><name>PT2299</name></trkpt>
<trkpt lat="53.359507" lon="-1.788777"><ele>413</ele><time>2020-08-05T10:03:16Z</time><name>PT2300</name></trkpt>
<trkpt lat="53.359512" lon="-1.788756"><ele>413</ele><time>2020-08-05T10:03:17Z</time><name>PT2301</name></trkpt>
<trkpt lat="53.359517" lon="-1.788737"><ele>413</ele><time>2020-08-05T10:03:18Z</time><name>PT2302</name></trkpt>
<trkpt lat="53.359521" lon="-1.788717"><ele>412</ele><time>2020-08-05T10:03:19Z</time><name>PT2303</name></trkpt>
<trkpt lat="53.359528" lon="-1.788703"><ele>412</ele><time>2020-08-05T10:03:20Z</time><name>PT2304</name></trkpt>
<trkpt lat="53.359538" lon="-1.788682"><ele>412</ele><time>2020-08-05T10:03:21Z</time><name>PT2305</name></trkpt>
<trkpt lat="53.359546" lon="-1.788662"><ele>412</ele><time>2020-08-05T10:03:22Z</time><name>PT2306</name></trkpt>
<trkpt lat="53.359552" lon="-1.788643"><ele>412</ele><time>2020-08-05T10:03:23Z</time><name>PT2307</name></trkpt>
<trkpt lat="53.359561" lon="-1.788626"><ele>412</ele><time>2020-08-05T10:03:24Z</time><name>PT2308</name></trkpt>
<trkpt lat="53.359570" lon="-1.788606"><ele>413</ele><time>2020-08-05T10:03:25Z</time><name>PT2309</name></trkpt>
<trkpt lat="53.359576" lon="-1.788585"><ele>413</ele><time>2020-08-05T10:03:26Z</time><name>PT2310</name></trkpt>
<trkpt lat="53.359584" lon="-1.788564"><ele>413</ele><time>2020-08-05T10:03:27Z</time><name>PT2311</name></trkpt>
<trkpt lat="53.359593" lon="-1.788542"><ele>412</ele><time>2020-08-05T10:03:28Z</time><name>PT2312</name></trkpt>
<trkpt lat="53.359601" lon="-1.788519"><ele>412</ele><time>2020-08-05T10:03:29Z</time><name>PT2313</name></trkpt>
<trkpt lat="53.359606" lon="-1.788501"><ele>413</ele><time>2020-08-05T10:03:30Z</time><name>PT2314</name></trkpt>
<trkpt lat="53.359614" lon="-1.788481"><ele>413</ele><time>2020-08-05T10:03:31Z</time><name>PT2315</name></trkpt>
<trkpt lat="53.359623" lon="-1.788458"><ele>413</ele><time>2020-08-05T10:03:32Z</time><name>PT2316</name></trkpt>
<trkpt lat="53.359630" lon="-1.788434"><ele>414</ele><time>2020-08-05T10:03:33Z</time><name>PT2317</name></trkpt>
<trkpt lat="53.359636" lon="-1.788414"><ele>414</ele><time>2020-08-05T10:03:34Z</time><name>PT2318</name></trkpt>
<trkpt lat="53.359643" lon="-1.788393"><ele>414</ele><time>2020-08-05T10:03:35Z</time><name>PT2319</name></trkpt>
<trkpt lat="53.359649" lon="-1.788373"><ele>414</ele><time>2020-08-05T10:03:36Z</time><name>PT2320</name></trkpt>
<trkpt lat="53.359656" lon="-1.788361"><ele>415</ele><time>2020-08-05T10:03:37Z</time><name>PT2321</name></trkpt>
<trkpt lat="53.359663" lon="-1.788344"><ele>415</ele><time>2020-08-05T10:03:38Z</time><name>PT2322</name></trkpt>
<trkpt lat="53.359669" lon="-1.788327"><ele>415</ele><time>2020-08-05T10:03:39Z</time><name>PT2323</name></trkpt>
<trkpt lat="53.359676" lon="-1.788306"><ele>415</ele><time>2020-08-05T10:03:40Z</time><name>PT2324</name></trkpt>
<trkpt lat="53.359682" lon="-1.788286"><ele>414</ele><time>2020-08-05T10:03:41Z</time><name>PT2325</name></trkpt>
<trkpt lat="53.359688" lon="-1.788265"><ele>414</ele><time>2020-08-05T10:03:42Z</time><name>PT2326</name></trkpt>
<trkpt lat="53.359694" lon="-1.788241"><ele>415</ele><time>2020-08-05T10:03:43Z</time><name>PT2327</name></trkpt>
<trkpt lat="53.359701" lon="-1.788227"><ele>415</ele><time>2020-08-05T10:03:44Z</time><name>PT2328</name></trkpt>
<trkpt lat="53.359708" lon="-1.788208"><ele>415</ele><time>2020-08-05T10:03:45Z</time><name>PT2329</name></trkpt>
<trkpt lat="53.359714" lon="-1.788191"><ele>415</ele><time>2020-08-05T10:03:46Z</time><name>PT2330</name></trkpt>
<trkpt lat="53.359721" lon="-1.788174"><ele>415</ele><time>2020-08-05T10:03:47Z</time><name>PT2331</name></trkpt>
<trkpt lat="53.359727" lon="-1.788157"><ele>415</ele><time>2020-08-05T10:03:48Z</time><name>PT2332</name></trkpt>
<trkpt lat="53.359733" lon="-1.788136"><ele>415</ele><time>2020-08-05T10:03:49Z</time><name>PT2333</name></trkpt>
<trkpt lat="53.359739" lon="-1.788116"><ele>415</ele><time>2020-08-05T10:03:50Z</time><name>PT2334</name></trkpt>
<trkpt lat="53.359743" lon="-1.788089"><ele>414</ele><time>2020-08-05T10:03:51Z</time><name>PT2335</name></trkpt>
<trkpt lat="53.359748" lon="-1.788064"><ele>415</ele><time>2020-08-05T10:03:52Z</time><name>PT2336</name></trkpt>
<trkpt lat="53.359754" lon="-1.788043"><ele>415</ele><time>2020-08-05T10:03:53Z</time><name>PT2337</name></trkpt>
<trkpt lat="53.359761" lon="-1.788025"><ele>415</ele><time>2020-08-05T10:03:54Z</time><name>PT2338</name></trkpt>
<trkpt lat="53.359768" lon="-1.788004"><ele>415</ele><time>2020-08-05T10:03:55Z</time><name>PT2339</name></trkpt>
<trkpt lat="53.359775" lon="-1.787982"><ele>415</ele><time>2020-08-05T10:03:56Z</time><name>PT2340</name></trkpt>
<trkpt lat="53.359781" lon="-1.787960"><ele>416</ele><time>2020-08-05T10:03:57Z</time><name>PT2341</name></trkpt>
<trkpt lat="53.359784" lon="-1.787941"><ele>416</ele><time>2020-08-05T10:03:58Z</time><name>PT2342</name></trkpt>
<trkpt lat="53.359785" lon="-1.787920"><ele>417</ele><time>2020-08-05T10:03:59Z</time><name>PT2343</name></trkpt>
<trkpt lat="53.359789" lon="-1.787899"><ele>417</ele><time>2020-08-05T10:04:00Z</time><name>PT2344</name></trkpt>
<trkpt lat="53.359795" lon="-1.787876"><ele>417</ele><time>2020-08-05T10:04:01Z</time><name>PT2345</name></trkpt>
<trkpt lat="53.359802" lon="-1.787859"><ele>417</ele><time>2020-08-05T10:04:02Z</time><name>PT2346</name></trkpt>
<trkpt lat="53.359810" lon="-1.787848"><ele>417</ele><time>2020-08-05T10:04:03Z</time><name>PT2347</name></trkpt>
<trkpt lat="53.359817" lon="-1.787832"><ele>417</ele><time>2020-08-05T10:04:04Z</time><name>PT2348</name></trkpt>
<trkpt lat="53.359824" lon="-1.787815"><ele>418</ele><time>2020-08-05T10:04:05Z</time><name>PT2349</name></trkpt>
<trkpt lat="53.359832" lon="-1.787798"><ele>418</ele><time>2020-08-05T10:04:06Z</time><name>PT2350</name></trkpt>
<trkpt lat="53.359840" lon="-1.787781"><ele>418</ele><time>2020-08-05T10:04:07Z</time><name>PT2351</name></trkpt>
<trkpt lat="53.359847" lon="-1.787764"><ele>418</ele><time>2020-08-05T10:04:08Z</time><name>PT2352</name></trkpt>
<trkpt lat="53.359855" lon="-1.787745"><ele>418</ele><time>2020-08-05T10:04:09Z</time><name>PT2353</name></trkpt>
<trkpt lat="53.359863" lon="-1.787730"><ele>418</ele><time>2020-08-05T10:04:10Z</time><name>PT2354</name></trkpt>
<trkpt lat="53.359870" lon="-1.787711"><ele>418</ele><time>2020-08-05T10:04:11Z</time><name>PT2355</name></trkpt>
<trkpt lat="53.359877" lon="-1.787690"><ele>418</ele><time>2020-08-05T10:04:12Z</time><name>PT2356</name></trkpt>
<trkpt lat="53.359883" lon="-1.787672"><ele>418</ele><time>2020-08-05T10:04:13Z</time><name>PT2357</name></trkpt>
<trkpt lat="53.359888" lon="-1.787652"><ele>417</ele><time>2020-08-05T10:04:14Z</time><name>PT2358</name></trkpt>
<trkpt lat="53.359895" lon="-1.787628"><ele>418</ele><time>2020-08-05T10:04:15Z</time><name>PT2359</name></trkpt>
<trkpt lat="53.359902" lon="-1.787608"><ele>418</ele><time>2020-08-05T10:04:16Z</time><name>PT2360</name></trkpt>
<trkpt lat="53.359910" lon="-1.787586"><ele>419</ele><time>2020-08-05T10:04:17Z</time><name>PT2361</name></trkpt>
<trkpt lat="53.359920" lon="-1.787566"><ele>419</ele><time>2020-08-05T10:04:18Z</time><name>PT2362</name></trkpt>
<trkpt lat="53.359928" lon="-1.787546"><ele>419</ele><time>2020-08-05T10:04:19Z</time><name>PT2363</name></trkpt>
<trkpt lat="53.359935" lon="-1.787533"><ele>418</ele><time>2020-08-05T10:04:20Z</time><name>PT2364</name></trkpt>
<trkpt lat="53.359941" lon="-1.787515"><ele>418</ele><time>2020-08-05T10:04:21Z</time><name>PT2365</name></trkpt>
<trkpt lat="53.359948" lon="-1.787500"><ele>418</ele><time>2020-08-05T10:04:22Z</time><name>PT2366</name></trkpt>
<trkpt lat="53.359954" lon="-1.787483"><ele>418</ele><time>2020-08-05T10:04:23Z</time><name>PT2367</name></trkpt>
<trkpt lat="53.359959" lon="-1.787464"><ele>418</ele><time>2020-08-05T10:04:24Z</time><name>PT2368</name></trkpt>
<trkpt lat="53.359965" lon="-1.787441"><ele>418</ele><time>2020-08-05T10:04:25Z</time><name>PT2369</name></trkpt>
<trkpt lat="53.359971" lon="-1.787418"><ele>417</ele><time>2020-08-05T10:04:26Z</time><name>PT2370</name></trkpt>
<trkpt lat="53.359978" lon="-1.787399"><ele>418</ele><time>2020-08-05T10:04:27Z</time><name>PT2371</name></trkpt>
<trkpt lat="53.359984" lon="-1.787387"><ele>418</ele><time>2020-08-05T10:04:28Z</time><name>PT2372</name></trkpt>
<trkpt lat="53.359990" lon="-1.787371"><ele>418</ele><time>2020-08-05T10:04:29Z</time><name>PT2373</name></trkpt>
<trkpt lat="53.359995" lon="-1.787353"><ele>417</ele><time>2020-08-05T10:04:30Z</time><name>PT2374</name></trkpt>
<trkpt lat="53.360000" lon="-1.787336"><ele>417</ele><time>2020-08-05T10:04:31Z</time><name>PT2375</name></trkpt>
<trkpt lat="53.360005" lon="-1.787323"><ele>417</ele><time>2020-08-05T10:04:32Z</time><name>PT2376</name></trkpt>
<trkpt lat="53.360009" lon="-1.787309"><ele>416</ele><time>2020-08-05T10:04:33Z</time><name>PT2377</name></trkpt>
<trkpt lat="53.360013" lon="-1.787286"><ele>417</ele><time>2020-08-05T10:04:34Z</time><name>PT2378</name></trkpt>
<trkpt lat="53.360017" lon="-1.787264"><ele>417</ele><time>2020-08-05T10:04:35Z</time><name>PT2379</name></trkpt>
<trkpt lat="53.360022" lon="-1.787246"><ele>417</ele><time>2020-08-05T10:04:36Z</time><name>PT2380</name></trkpt>
<trkpt lat="53.360028" lon="-1.787226"><ele>417</ele><time>2020-08-05T10:04:37Z</time><name>PT2381</name></trkpt>
<trkpt lat="53.360034" lon="-1.787209"><ele>417</ele><time>2020-08-05T10:04:38Z</time><name>PT2382</name></trkpt>
<trkpt lat="53.360040" lon="-1.787199"><ele>417</ele><time>2020-08-05T10:04:39Z</time><name>PT2383</name></trkpt>
<trkpt lat="53.360044" lon="-1.787184"><ele>417</ele><time>2020-08-05T10:04:40Z</time><name>PT2384</name></trkpt>
<trkpt lat="53.360050" lon="-1.787166"><ele>417</ele><time>2020-08-05T10:04:41Z</time><name>PT2385</name></trkpt>
<trkpt lat="53.360055" lon="-1.787145"><ele>417</ele><time>2020-08-05T10:04:42Z</time><name>PT2386</name></trkpt>
<trkpt lat="53.360059" lon="-1.787128"><ele>417</ele><time>2020-08-05T10:04:43Z</time><name>PT2387</name></trkpt>
<trkpt lat="53.360064" lon="-1.787110"><ele>416</ele><time>2020-08-05T10:04:44Z</time><name>PT2388</name></trkpt>
<trkpt lat="53.360069" lon="-1.787086"><ele>416</ele><time>2020-08-05T10:04:45Z</time><name>PT2389</name></trkpt>
<trkpt lat="53.360073" lon="-1.787066"><ele>416</ele><time>2020-08-05T10:04:46Z</time><name>PT2390</name></trkpt>
<trkpt lat="53.360077" lon="-1.787048"><ele>416</ele><time>2020-08-05T10:04:47Z</time><name>PT2391</name></trkpt>
<trkpt lat="53.360080" lon="-1.787026"><ele>416</ele><time>2020-08-05T10:04:48Z</time><name>PT2392</name></trkpt>
<trkpt lat="53.360083" lon="-1.787006"><ele>415</ele><time>2020-08-05T10:04:49Z</time><name>PT2393</name></trkpt>
<trkpt lat="53.360087" lon="-1.786987"><ele>415</ele><time>2020-08-05T10:04:50Z</time><name>PT2394</name></trkpt>
<trkpt lat="53.360091" lon="-1.786969"><ele>415</ele><time>2020-08-05T10:04:51Z</time><name>PT2395</name></trkpt>
<trkpt lat="53.360094" lon="-1.786947"><ele>415</ele><time>2020-08-05T10:04:52Z</time><name>PT2396</name></trkpt>
<trkpt lat="53.360096" lon="-1.786926"><ele>414</ele><time>2020-08-05T10:04:53Z</time><name>PT2397</name></trkpt>
<trkpt lat="53.360100" lon="-1.786905"><ele>414</ele><time>2020-08-05T10:04:54Z</time><name>PT2398</name></trkpt>
<trkpt lat="53.360102" lon="-1.786883"><ele>415</ele><time>2020-08-05T10:04:55Z</time><name>PT2399</name></trkpt>
<trkpt lat="53.360106" lon="-1.786859"><ele>414</ele><time>2020-08-05T10:04:56Z</time><name>PT2400</name></trkpt>
<trkpt lat="53.360111" lon="-1.786838"><ele>415</ele><time>2020-08-05T10:04:57Z</time><name>PT2401</name></trkpt>
<trkpt lat="53.360118" lon="-1.786815"><ele>415</ele><time>2020-08-05T10:04:58Z</time><name>PT2402</name></trkpt>
<trkpt lat="53.360124" lon="-1.786795"><ele>415</ele><time>2020-08-05T10:04:59Z</time><name>PT2403</name></trkpt>
<trkpt lat="53.360129" lon="-1.786779"><ele>415</ele><time>2020-08-05T10:05:00Z</time><name>PT2404</name></trkpt>
<trkpt lat="53.360133" lon="-1.786760"><ele>415</ele><time>2020-08-05T10:05:01Z</time><name>PT2405</name></trkpt>
<trkpt lat="53.360138" lon="-1.786742"><ele>415</ele><time>2020-08-05T10:05:02Z</time><name>PT2406</name></trkpt>
<trkpt lat="53.360141" lon="-1.786722"><ele>415</ele><time>2020-08-05T10:05:03Z</time><name>PT2407</name></trkpt>
<trkpt lat="53.360143" lon="-1.786703"><ele>415</ele><time>2020-08-05T10:05:04Z</time><name>PT2408</name></trkpt>
<trkpt lat="53.360146" lon="-1.786685"><ele>414</ele><time>2020-08-05T10:05:05Z</time><name>PT2409</name></trkpt>
<trkpt lat="53.360150" lon="-1.786663"><ele>413</ele><time>2020-08-05T10:05:06Z</time><name>PT2410</name></trkpt>
<trkpt lat="53.360154" lon="-1.786643"><ele>413</ele><time>2020-08-05T10:05:07Z</time><name>PT2411</name></trkpt>
<trkpt lat="53.360158" lon="-1.786626"><ele>412</ele><time>2020-08-05T10:05:08Z</time><name>PT2412</name></trkpt>
<trkpt lat="53.360160" lon="-1.786605"><ele>413</ele><time>2020-08-05T10:05:09Z</time><name>PT2413</name></trkpt>
<trkpt lat="53.360164" lon="-1.786583"><ele>412</ele><time>2020-08-05T10:05:10Z</time><name>PT2414</name></trkpt>
<trkpt lat="53.360167" lon="-1.786563"><ele>412</ele><time>2020-08-05T10:05:11Z</time><name>PT2415</name></trkpt>
<trkpt lat="53.360173" lon="-1.786543"><ele>412</ele><time>2020-08-05T10:05:12Z</time><name>PT2416</name></trkpt>
<trkpt lat="53.360178" lon="-1.786522"><ele>411</ele><time>2020-08-05T10:05:13Z</time><name>PT2417</name></trkpt>
<trkpt lat="53.360182" lon="-1.786503"><ele>411</ele><time>2020-08-05T10:05:14Z</time><name>PT2418</name></trkpt>
<trkpt lat="53.360184" lon="-1.786483"><ele>411</ele><time>2020-08-05T10:05:15Z</time><name>PT2419</name></trkpt>
<trkpt lat="53.360185" lon="-1.786462"><ele>411</ele><time>2020-08-05T10:05:16Z</time><name>PT2420</name></trkpt>
<trkpt lat="53.360186" lon="-1.786442"><ele>410</ele><time>2020-08-05T10:05:17Z</time><name>PT2421</name></trkpt>
<trkpt lat="53.360189" lon="-1.786421"><ele>411</ele><time>2020-08-05T10:05:18Z</time><name>PT2422</name></trkpt>
<trkpt lat="53.360193" lon="-1.786402"><ele>410</ele><time>2020-08-05T10:05:19Z</time><name>PT2423</name></trkpt>
<trkpt lat="53.360195" lon="-1.786379"><ele>410</ele><time>2020-08-05T10:05:20Z</time><name>PT2424</name></trkpt>
<trkpt lat="53.360197" lon="-1.786359"><ele>409</ele><time>2020-08-05T10:05:21Z</time><name>PT2425</name></trkpt>
<trkpt lat="53.360198" lon="-1.786335"><ele>409</ele><time>2020-08-05T10:05:22Z</time><name>PT2426</name></trkpt>
<trkpt lat="53.360199" lon="-1.786312"><ele>409</ele><time>2020-08-05T10:05:23Z</time><name>PT2427</name></trkpt>
<trkpt lat="53.360200" lon="-1.786291"><ele>409</ele><time>2020-08-05T10:05:24Z</time><name>PT2428</name></trkpt>
<trkpt lat="53.360201" lon="-1.786271"><ele>409</ele><time>2020-08-05T10:05:25Z</time><name>PT2429</name></trkpt>
<trkpt lat="53.360202" lon="-1.786252"><ele>408</ele><time>2020-08-05T10:05:26Z</time><name>PT2430</name></trkpt>
<trkpt lat="53.360203" lon="-1.786228"><ele>408</ele><time>2020-08-05T10:05:27Z</time><name>PT2431</name></trkpt>
<trkpt lat="53.360203" lon="-1.786208"><ele>408</ele><time>2020-08-05T10:05:28Z</time><name>PT2432</name></trkpt>
<trkpt lat="53.360204" lon="-1.786188"><ele>408</ele><time>2020-08-05T10:05:29Z</time><name>PT2433</name></trkpt>
<trkpt lat="53.360208" lon="-1.786159"><ele>409</ele><time>2020-08-05T10:05:30Z</time><name>PT2434</name></trkpt>
<trkpt lat="53.360210" lon="-1.786137"><ele>409</ele><time>2020-08-05T10:05:31Z</time><name>PT2435</name></trkpt>
<trkpt lat="53.360211" lon="-1.786115"><ele>408</ele><time>2020-08-05T10:05:32Z</time><name>PT2436</name></trkpt>
<trkpt lat="53.360213" lon="-1.786094"><ele>408</ele><time>2020-08-05T10:05:33Z</time><name>PT2437</name></trkpt>
<trkpt lat="53.360214" lon="-1.786072"><ele>408</ele><time>2020-08-05T10:05:34Z</time><name>PT2438</name></trkpt>
<trkpt lat="53.360215" lon="-1.786052"><ele>409</ele><time>2020-08-05T10:05:35Z</time><name>PT2439</name></trkpt>
<trkpt lat="53.360217" lon="-1.786031"><ele>409</ele><time>2020-08-05T10:05:36Z</time><name>PT2440</name></trkpt>
<trkpt lat="53.360217" lon="-1.786009"><ele>408</ele><time>2020-08-05T10:05:37Z</time><name>PT2441</name></trkpt>
<trkpt lat="53.360218" lon="-1.785989"><ele>408</ele><time>2020-08-05T10:05:38Z</time><name>PT2442</name></trkpt>
<trkpt lat="53.360219" lon="-1.785968"><ele>408</ele><time>2020-08-05T10:05:39Z</time><name>PT2443</name></trkpt>
<trkpt lat="53.360219" lon="-1.785947"><ele>408</ele><time>2020-08-05T10:05:40Z</time><name>PT2444</name></trkpt>
<trkpt lat="53.360220" lon="-1.785930"><ele>408</ele><time>2020-08-05T10:05:41Z</time><name>PT2445</name></trkpt>
<trkpt lat="53.360219" lon="-1.785912"><ele>408</ele><time>2020-08-05T10:05:42Z</time><name>PT2446</name></trkpt>
<trkpt lat="53.360219" lon="-1.785894"><ele>408</ele><time>2020-08-05T10:05:43Z</time><name>PT2447</name></trkpt>
<trkpt lat="53.360221" lon="-1.785881"><ele>408</ele><time>2020-08-05T10:05:44Z</time><name>PT2448</name></trkpt>
<trkpt lat="53.360224" lon="-1.785864"><ele>407</ele><time>2020-08-05T10:05:45Z</time><name>PT2449</name></trkpt>
<trkpt lat="53.360227" lon="-1.785846"><ele>407</ele><time>2020-08-05T10:05:46Z</time><name>PT2450</name></trkpt>
<trkpt lat="53.360229" lon="-1.785828"><ele>407</ele><time>2020-08-05T10:05:47Z</time><name>PT2451</name></trkpt>
<trkpt lat="53.360230" lon="-1.785807"><ele>406</ele><time>2020-08-05T10:05:48Z</time><name>PT2452</name></trkpt>
<trkpt lat="53.360233" lon="-1.785787"><ele>406</ele><time>2020-08-05T10:05:49Z</time><name>PT2453</name></trkpt>
<trkpt lat="53.360235" lon="-1.785770"><ele>405</ele><time>2020-08-05T10:05:50Z</time><name>PT2454</name></trkpt>
<trkpt lat="53.360238" lon="-1.785750"><ele>405</ele><time>2020-08-05T10:05:51Z</time><name>PT2455</name></trkpt>
<trkpt lat="53.360240" lon="-1.785726"><ele>405</ele><time>2020-08-05T10:05:52Z</time><name>PT2456</name></trkpt>
<trkpt lat="53.360244" lon="-1.785703"><ele>404</ele><time>2020-08-05T10:05:53Z</time><name>PT2457</name></trkpt>
<trkpt lat="53.360246" lon="-1.785684"><ele>404</ele><time>2020-08-05T10:05:54Z</time><name>PT2458</name></trkpt>
<trkpt lat="53.360248" lon="-1.785661"><ele>405</ele><time>2020-08-05T10:05:55Z</time><name>PT2459</name></trkpt>
<trkpt lat="53.360251" lon="-1.785636"><ele>404</ele><time>2020-08-05T10:05:56Z</time><name>PT2460</name></trkpt>
<trkpt lat="53.360253" lon="-1.785613"><ele>404</ele><time>2020-08-05T10:05:57Z</time><name>PT2461</name></trkpt>
<trkpt lat="53.360254" lon="-1.785593"><ele>404</ele><time>2020-08-05T10:05:58Z</time><name>PT2462</name></trkpt>
<trkpt lat="53.360257" lon="-1.785573"><ele>403</ele><time>2020-08-05T10:05:59Z</time><name>PT2463</name></trkpt>
<trkpt lat="53.360259" lon="-1.785555"><ele>403</ele><time>2020-08-05T10:06:00Z</time><name>PT2464</name></trkpt>
<trkpt lat="53.360261" lon="-1.785535"><ele>403</ele><time>2020-08-05T10:06:01Z</time><name>PT2465</name></trkpt>
<trkpt lat="53.360261" lon="-1.785515"><ele>403</ele><time>2020-08-05T10:06:02Z</time><name>PT2466</name></trkpt>
<trkpt lat="53.360262" lon="-1.785492"><ele>403</ele><time>2020-08-05T10:06:03Z</time><name>PT2467</name></trkpt>
<trkpt lat="53.360267" lon="-1.785466"><ele>402</ele><time>2020-08-05T10:06:04Z</time><name>PT2468</name></trkpt>
<trkpt lat="53.360270" lon="-1.785446"><ele>403</ele><time>2020-08-05T10:06:05Z</time><name>PT2469</name></trkpt>
<trkpt lat="53.360276" lon="-1.785435"><ele>402</ele><time>2020-08-05T10:06:06Z</time><name>PT2470</name></trkpt>
<trkpt lat="53.360284" lon="-1.785420"><ele>403</ele><time>2020-08-05T10:06:07Z</time><name>PT2471</name></trkpt>
<trkpt lat="53.360292" lon="-1.785410"><ele>402</ele><time>2020-08-05T10:06:08Z</time><name>PT2472</name></trkpt>
<trkpt lat="53.360302" lon="-1.785396"><ele>403</ele><time>2020-08-05T10:06:09Z</time><name>PT2473</name></trkpt>
<trkpt lat="53.360309" lon="-1.785386"><ele>402</ele><time>2020-08-05T10:06:10Z</time><name>PT2474</name></trkpt>
<trkpt lat="53.360314" lon="-1.785379"><ele>402</ele><time>2020-08-05T10:06:11Z</time><name>PT2475</name></trkpt>
<trkpt lat="53.360317" lon="-1.785378"><ele>402</ele><time>2020-08-05T10:06:12Z</time><name>PT2476</name></trkpt>
<trkpt lat="53.360322" lon="-1.785373"><ele>402</ele><time>2020-08-05T10:06:13Z</time><name>PT2477</name></trkpt>
<trkpt lat="53.360329" lon="-1.785367"><ele>403</ele><time>2020-08-05T10:06:14Z</time><name>PT2478</name></trkpt>
<trkpt lat="53.360334" lon="-1.785364"><ele>403</ele><time>2020-08-05T10:06:15Z</time><name>PT2479</name></trkpt>
<trkpt lat="53.360338" lon="-1.785357"><ele>403</ele><time>2020-08-05T10:06:16Z</time><name>PT2480</name></trkpt>
<trkpt lat="53.360341" lon="-1.785352"><ele>403</ele><time>2020-08-05T10:06:17Z</time><name>PT2481</name></trkpt>
<trkpt lat="53.360343" lon="-1.785345"><ele>402</ele><time>2020-08-05T10:06:18Z</time><name>PT2482</name></trkpt>
<trkpt lat="53.360346" lon="-1.785333"><ele>402</ele><time>2020-08-05T10:06:19Z</time><name>PT2483</name></trkpt>
<trkpt lat="53.360347" lon="-1.785320"><ele>402</ele><time>2020-08-05T10:06:20Z</time><name>PT2484</name></trkpt>
<trkpt lat="53.360348" lon="-1.785305"><ele>403</ele><time>2020-08-05T10:06:21Z</time><name>PT2485</name></trkpt>
<trkpt lat="53.360352" lon="-1.785292"><ele>403</ele><time>2020-08-05T10:06:22Z</time><name>PT2486</name></trkpt>
<trkpt lat="53.360355" lon="-1.785276"><ele>404</ele><time>2020-08-05T10:06:23Z</time><name>PT2487</name></trkpt>
<trkpt lat="53.360361" lon="-1.785261"><ele>404</ele><time>2020-08-05T10:06:24Z</time><name>PT2488</name></trkpt>
<trkpt lat="53.360367" lon="-1.785244"><ele>405</ele><time>2020-08-05T10:06:25Z</time><name>PT2489</name></trkpt>
<trkpt lat="53.360371" lon="-1.785230"><ele>404</ele><time>2020-08-05T10:06:26Z</time><name>PT2490</name></trkpt>
<trkpt lat="53.360370" lon="-1.785216"><ele>404</ele><time>2020-08-05T10:06:27Z</time><name>PT2491</name></trkpt>
<trkpt lat="53.360374" lon="-1.785203"><ele>405</ele><time>2020-08-05T10:06:28Z</time><name>PT2492</name></trkpt>
<trkpt lat="53.360380" lon="-1.785182"><ele>405</ele><time>2020-08-05T10:06:29Z</time><name>PT2493</name></trkpt>
<trkpt lat="53.360386" lon="-1.785159"><ele>405</ele><time>2020-08-05T10:06:30Z</time><name>PT2494</name></trkpt>
<trkpt lat="53.360392" lon="-1.785140"><ele>405</ele><time>2020-08-05T10:06:31Z</time><name>PT2495</name></trkpt>
<trkpt lat="53.360394" lon="-1.785121"><ele>405</ele><time>2020-08-05T10:06:32Z</time><name>PT2496</name></trkpt>
<trkpt lat="53.360400" lon="-1.785100"><ele>405</ele><time>2020-08-05T10:06:33Z</time><name>PT2497</name></trkpt>
<trkpt lat="53.360404" lon="-1.785080"><ele>405</ele><time>2020-08-05T10:06:34Z</time><name>PT2498</name></trkpt>
<trkpt lat="53.360409" lon="-1.785062"><ele>404</ele><time>2020-08-05T10:06:35Z</time><name>PT2499</name></trkpt>
<trkpt lat="53.360411" lon="-1.785041"><ele>404</ele><time>2020-08-05T10:06:36Z</time><name>PT2500</name></trkpt>
<trkpt lat="53.360416" lon="-1.785024"><ele>404</ele><time>2020-08-05T10:06:37Z</time><name>PT2501</name></trkpt>
<trkpt lat="53.360423" lon="-1.785003"><ele>404</ele><time>2020-08-05T10:06:38Z</time><name>PT2502</name></trkpt>
<trkpt lat="53.360426" lon="-1.784983"><ele>404</ele><time>2020-08-05T10:06:39Z</time><name>PT2503</name></trkpt>
<trkpt lat="53.360431" lon="-1.784968"><ele>404</ele><time>2020-08-05T10:06:40Z</time><name>PT2504</name></trkpt>
<trkpt lat="53.360436" lon="-1.784948"><ele>404</ele><time>2020-08-05T10:06:41Z</time><name>PT2505</name></trkpt>
<trkpt lat="53.360441" lon="-1.784926"><ele>404</ele><time>2020-08-05T10:06:42Z</time><name>PT2506</name></trkpt>
<trkpt lat="53.360442" lon="-1.784909"><ele>404</ele><time>2020-08-05T10:06:43Z</time><name>PT2507</name></trkpt>
<trkpt lat="53.360447" lon="-1.784892"><ele>404</ele><time>2020-08-05T10:06:44Z</time><name>PT2508</name></trkpt>
<trkpt lat="53.360451" lon="-1.784875"><ele>403</ele><time>2020-08-05T10:06:45Z</time><name>PT2509</name></trkpt>
<trkpt lat="53.360456" lon="-1.784856"><ele>403</ele><time>2020-08-05T10:06:46Z</time><name>PT2510</name></trkpt>
<trkpt lat="53.360460" lon="-1.784837"><ele>404</ele><time>2020-08-05T10:06:47Z</time><name>PT2511</name></trkpt>
<trkpt lat="53.360460" lon="-1.784823"><ele>404</ele><time>2020-08-05T10:06:48Z</time><name>PT2512</name></trkpt>
<trkpt lat="53.360465" lon="-1.784806"><ele>403</ele><time>2020-08-05T10:06:49Z</time><name>PT2513</name></trkpt>
<trkpt lat="53.360469" lon="-1.784786"><ele>403</ele><time>2020-08-05T10:06:50Z</time><name>PT2514</name></trkpt>
<trkpt lat="53.360473" lon="-1.784766"><ele>404</ele><time>2020-08-05T10:06:51Z</time><name>PT2515</name></trkpt>
<trkpt lat="53.360478" lon="-1.784747"><ele>404</ele><time>2020-08-05T10:06:52Z</time><name>PT2516</name></trkpt>
<trkpt lat="53.360482" lon="-1.784727"><ele>404</ele><time>2020-08-05T10:06:53Z</time><name>PT2517</name></trkpt>
<trkpt lat="53.360485" lon="-1.784710"><ele>404</ele><time>2020-08-05T10:06:54Z</time><name>PT2518</name></trkpt>
<trkpt lat="53.360490" lon="-1.784685"><ele>406</ele><time>2020-08-05T10:06:55Z</time><name>PT2519</name></trkpt>
<trkpt lat="53.360497" lon="-1.784667"><ele>407</ele><time>2020-08-05T10:06:56Z</time><name>PT2520</name></trkpt>
<trkpt lat="53.360503" lon="-1.784652"><ele>407</ele><time>2020-08-05T10:06:57Z</time><name>PT2521</name></trkpt>
<trkpt lat="53.360508" lon="-1.784637"><ele>407</ele><time>2020-08-05T10:06:58Z</time><name>PT2522</name></trkpt>
<trkpt lat="53.360514" lon="-1.784623"><ele>407</ele><time>2020-08-05T10:06:59Z</time><name>PT2523</name></trkpt>
<trkpt lat="53.360515" lon="-1.784603"><ele>406</ele><time>2020-08-05T10:07:00Z</time><name>PT2524</name></trkpt>
<trkpt lat="53.360520" lon="-1.784583"><ele>407</ele><time>2020-08-05T10:07:01Z</time><name>PT2525</name></trkpt>
<trkpt lat="53.360524" lon="-1.784566"><ele>407</ele><time>2020-08-05T10:07:02Z</time><name>PT2526</name></trkpt>
<trkpt lat="53.360529" lon="-1.784549"><ele>407</ele><time>2020-08-05T10:07:03Z</time><name>PT2527</name></trkpt>
<trkpt lat="53.360538" lon="-1.784546"><ele>406</ele><time>2020-08-05T10:07:04Z</time><name>PT2528</name></trkpt>
<trkpt lat="53.360543" lon="-1.784529"><ele>405</ele><time>2020-08-05T10:07:05Z</time><name>PT2529</name></trkpt>
<trkpt lat="53.360548" lon="-1.784513"><ele>406</ele><time>2020-08-05T10:07:06Z</time><name>PT2530</name></trkpt>
<trkpt lat="53.360556" lon="-1.784498"><ele>406</ele><time>2020-08-05T10:07:07Z</time><name>PT2531</name></trkpt>
<trkpt lat="53.360561" lon="-1.784482"><ele>406</ele><time>2020-08-05T10:07:08Z</time><name>PT2532</name></trkpt>
<trkpt lat="53.360566" lon="-1.784471"><ele>406</ele><time>2020-08-05T10:07:09Z</time><name>PT2533</name></trkpt>
<trkpt lat="53.360568" lon="-1.784460"><ele>405</ele><time>2020-08-05T10:07:10Z</time><name>PT2534</name></trkpt>
<trkpt lat="53.360571" lon="-1.784444"><ele>405</ele><time>2020-08-05T10:07:11Z</time><name>PT2535</name></trkpt>
<trkpt lat="53.360576" lon="-1.784422"><ele>405</ele><time>2020-08-05T10:07:12Z</time><name>PT2536</name></trkpt>
<trkpt lat="53.360582" lon="-1.784400"><ele>405</ele><time>2020-08-05T10:07:13Z</time><name>PT2537</name></trkpt>
<trkpt lat="53.360582" lon="-1.784378"><ele>405</ele><time>2020-08-05T10:07:14Z</time><name>PT2538</name></trkpt>
<trkpt lat="53.360583" lon="-1.784358"><ele>405</ele><time>2020-08-05T10:07:15Z</time><name>PT2539</name></trkpt>
<trkpt lat="53.360584" lon="-1.784337"><ele>405</ele><time>2020-08-05T10:07:16Z</time><name>PT2540</name></trkpt>
<trkpt lat="53.360589" lon="-1.784316"><ele>405</ele><time>2020-08-05T10:07:17Z</time><name>PT2541</name></trkpt>
<trkpt lat="53.360591" lon="-1.784296"><ele>404</ele><time>2020-08-05T10:07:18Z</time><name>PT2542</name></trkpt>
<trkpt lat="53.360596" lon="-1.784277"><ele>404</ele><time>2020-08-05T10:07:19Z</time><name>PT2543</name></trkpt>
<trkpt lat="53.360600" lon="-1.784258"><ele>404</ele><time>2020-08-05T10:07:20Z</time><name>PT2544</name></trkpt>
<trkpt lat="53.360605" lon="-1.784238"><ele>404</ele><time>2020-08-05T10:07:21Z</time><name>PT2545</name></trkpt>
<trkpt lat="53.360610" lon="-1.784222"><ele>405</ele><time>2020-08-05T10:07:22Z</time><name>PT2546</name></trkpt>
<trkpt lat="53.360614" lon="-1.784207"><ele>404</ele><time>2020-08-05T10:07:23Z</time><name>PT2547</name></trkpt>
<trkpt lat="53.360620" lon="-1.784185"><ele>405</ele><time>2020-08-05T10:07:24Z</time><name>PT2548</name></trkpt>
<trkpt lat="53.360627" lon="-1.784166"><ele>406</ele><time>2020-08-05T10:07:25Z</time><name>PT2549</name></trkpt>
<trkpt lat="53.360632" lon="-1.784153"><ele>406</ele><time>2020-08-05T10:07:26Z</time><name>PT2550</name></trkpt>
<trkpt lat="53.360639" lon="-1.784136"><ele>406</ele><time>2020-08-05T10:07:27Z</time><name>PT2551</name></trkpt>
<trkpt lat="53.360645" lon="-1.784119"><ele>406</ele><time>2020-08-05T10:07:28Z</time><name>PT2552</name></trkpt>
<trkpt lat="53.360653" lon="-1.784104"><ele>406</ele><time>2020-08-05T10:07:29Z</time><name>PT2553</name></trkpt>
<trkpt lat="53.360660" lon="-1.784090"><ele>406</ele><time>2020-08-05T10:07:30Z</time><name>PT2554</name></trkpt>
<trkpt lat="53.360670" lon="-1.784076"><ele>406</ele><time>2020-08-05T10:07:31Z</time><name>PT2555</name></trkpt>
<trkpt lat="53.360678" lon="-1.784066"><ele>406</ele><time>2020-08-05T10:07:32Z</time><name>PT2556</name></trkpt>
<trkpt lat="53.360683" lon="-1.784051"><ele>407</ele><time>2020-08-05T10:07:33Z</time><name>PT2557</name></trkpt>
<trkpt lat="53.360686" lon="-1.784038"><ele>407</ele><time>2020-08-05T10:07:34Z</time><name>PT2558</name></trkpt>
<trkpt lat="53.360688" lon="-1.784028"><ele>406</ele><time>2020-08-05T10:07:35Z</time><name>PT2559</name></trkpt>
<trkpt lat="53.360692" lon="-1.784019"><ele>407</ele><time>2020-08-05T10:07:36Z</time><name>PT2560</name></trkpt>
<trkpt lat="53.360698" lon="-1.784013"><ele>407</ele><time>2020-08-05T10:07:37Z</time><name>PT2561</name></trkpt>
<trkpt lat="53.360705" lon="-1.784008"><ele>407</ele><time>2020-08-05T10:07:38Z</time><name>PT2562</name></trkpt>
<trkpt lat="53.360710" lon="-1.783999"><ele>407</ele><time>2020-08-05T10:07:39Z</time><name>PT2563</name></trkpt>
<trkpt lat="53.360717" lon="-1.783988"><ele>408</ele><time>2020-08-05T10:07:40Z</time><name>PT2564</name></trkpt>
<trkpt lat="53.360726" lon="-1.783983"><ele>408</ele><time>2020-08-05T10:07:41Z</time><name>PT2565</name></trkpt>
<trkpt lat="53.360732" lon="-1.783975"><ele>408</ele><time>2020-08-05T10:07:42Z</time><name>PT2566</name></trkpt>
<trkpt lat="53.360739" lon="-1.783965"><ele>408</ele><time>2020-08-05T10:07:43Z</time><name>PT2567</name></trkpt>
<trkpt lat="53.360744" lon="-1.783954"><ele>408</ele><time>2020-08-05T10:07:44Z</time><name>PT2568</name></trkpt>
<trkpt lat="53.360752" lon="-1.783950"><ele>409</ele><time>2020-08-05T10:07:45Z</time><name>PT2569</name></trkpt>
<trkpt lat="53.360760" lon="-1.783946"><ele>409</ele><time>2020-08-05T10:07:46Z</time><name>PT2570</name></trkpt>
<trkpt lat="53.360768" lon="-1.783936"><ele>409</ele><time>2020-08-05T10:07:47Z</time><name>PT2571</name></trkpt>
<trkpt lat="53.360775" lon="-1.783930"><ele>409</ele><time>2020-08-05T10:07:48Z</time><name>PT2572</name></trkpt>
<trkpt lat="53.360777" lon="-1.783924"><ele>409</ele><time>2020-08-05T10:07:49Z</time><name>PT2573</name></trkpt>
<trkpt lat="53.360783" lon="-1.783918"><ele>409</ele><time>2020-08-05T10:07:50Z</time><name>PT2574</name></trkpt>
<trkpt lat="53.360787" lon="-1.783906"><ele>409</ele><time>2020-08-05T10:07:51Z</time><name>PT2575</name></trkpt>
<trkpt lat="53.360793" lon="-1.783899"><ele>410</ele><time>2020-08-05T10:07:52Z</time><name>PT2576</name></trkpt>
<trkpt lat="53.360799" lon="-1.783895"><ele>410</ele><time>2020-08-05T10:07:53Z</time><name>PT2577</name></trkpt>
<trkpt lat="53.360806" lon="-1.783888"><ele>410</ele><time>2020-08-05T10:07:54Z</time><name>PT2578</name></trkpt>
<trkpt lat="53.360813" lon="-1.783876"><ele>412</ele><time>2020-08-05T10:07:55Z</time><name>PT2579</name></trkpt>
<trkpt lat="53.360818" lon="-1.783864"><ele>412</ele><time>2020-08-05T10:07:56Z</time><name>PT2580</name></trkpt>
<trkpt lat="53.360826" lon="-1.783855"><ele>412</ele><time>2020-08-05T10:07:57Z</time><name>PT2581</name></trkpt>
<trkpt lat="53.360834" lon="-1.783850"><ele>412</ele><time>2020-08-05T10:07:58Z</time><name>PT2582</name></trkpt>
<trkpt lat="53.360841" lon="-1.783847"><ele>412</ele><time>2020-08-05T10:07:59Z</time><name>PT2583</name></trkpt>
<trkpt lat="53.360846" lon="-1.783842"><ele>412</ele><time>2020-08-05T10:08:00Z</time><name>PT2584</name></trkpt>
<trkpt lat="53.360849" lon="-1.783833"><ele>412</ele><time>2020-08-05T10:08:01Z</time><name>PT2585</name></trkpt>
<trkpt lat="53.360853" lon="-1.783826"><ele>412</ele><time>2020-08-05T10:08:02Z</time><name>PT2586</name></trkpt>
<trkpt lat="53.360856" lon="-1.783816"><ele>412</ele><time>2020-08-05T10:08:03Z</time><name>PT2587</name></trkpt>
<trkpt lat="53.360861" lon="-1.783804"><ele>413</ele><time>2020-08-05T10:08:04Z</time><name>PT2588</name></trkpt>
<trkpt lat="53.360865" lon="-1.783791"><ele>413</ele><time>2020-08-05T10:08:05Z</time><name>PT2589</name></trkpt>
<trkpt lat="53.360867" lon="-1.783778"><ele>413</ele><time>2020-08-05T10:08:06Z</time><name>PT2590</name></trkpt>
<trkpt lat="53.360868" lon="-1.783770"><ele>414</ele><time>2020-08-05T10:08:07Z</time><name>PT2591</name></trkpt>
<trkpt lat="53.360870" lon="-1.783759"><ele>414</ele><time>2020-08-05T10:08:08Z</time><name>PT2592</name></trkpt>
<trkpt lat="53.360873" lon="-1.783748"><ele>414</ele><time>2020-08-05T10:08:09Z</time><name>PT2593</name></trkpt>
<trkpt lat="53.360877" lon="-1.783736"><ele>414</ele><time>2020-08-05T10:08:10Z</time><name>PT2594</name></trkpt>
<trkpt lat="53.360880" lon="-1.783728"><ele>414</ele><time>2020-08-05T10:08:11Z</time><name>PT2595</name></trkpt>
<trkpt lat="53.360884" lon="-1.783720"><ele>414</ele><time>2020-08-05T10:08:12Z</time><name>PT2596</name></trkpt>
<trkpt lat="53.360887" lon="-1.783711"><ele>414</ele><time>2020-08-05T10:08:13Z</time><name>PT2597</name></trkpt>
<trkpt lat="53.360889" lon="-1.783701"><ele>414</ele><time>2020-08-05T10:08:14Z</time><name>PT2598</name></trkpt>
<trkpt lat="53.360893" lon="-1.783690"><ele>414</ele><time>2020-08-05T10:08:15Z</time><name>PT2599</name></trkpt>
<trkpt lat="53.360899" lon="-1.783678"><ele>414</ele><time>2020-08-05T10:08:16Z</time><name>PT2600</name></trkpt>
<trkpt lat="53.360903" lon="-1.783669"><ele>414</ele><time>2020-08-05T10:08:17Z</time><name>PT2601</name></trkpt>
<trkpt lat="53.360907" lon="-1.783659"><ele>415</ele><time>2020-08-05T10:08:18Z</time><name>PT2602</name></trkpt>
<trkpt lat="53.360911" lon="-1.783654"><ele>415</ele><time>2020-08-05T10:08:19Z</time><name>PT2603</name></trkpt>
<trkpt lat="53.360916" lon="-1.783649"><ele>415</ele><time>2020-08-05T10:08:20Z</time><name>PT2604</name></trkpt>
<trkpt lat="53.360918" lon="-1.783644"><ele>415</ele><time>2020-08-05T10:08:21Z</time><name>PT2605</name></trkpt>
<trkpt lat="53.360920" lon="-1.783634"><ele>416</ele><time>2020-08-05T10:08:22Z</time><name>PT2606</name></trkpt>
<trkpt lat="53.360922" lon="-1.783620"><ele>417</ele><time>2020-08-05T10:08:23Z</time><name>PT2607</name></trkpt>
<trkpt lat="53.360926" lon="-1.783613"><ele>417</ele><time>2020-08-05T10:08:24Z</time><name>PT2608</name></trkpt>
<trkpt lat="53.360932" lon="-1.783621"><ele>417</ele><time>2020-08-05T10:08:25Z</time><name>PT2609</name></trkpt>
<trkpt lat="53.360934" lon="-1.783614"><ele>417</ele><time>2020-08-05T10:08:26Z</time><name>PT2610</name></trkpt>
<trkpt lat="53.360936" lon="-1.783609"><ele>417</ele><time>2020-08-05T10:08:27Z</time><name>PT2611</name></trkpt>
<trkpt lat="53.360938" lon="-1.783602"><ele>418</ele><time>2020-08-05T10:08:28Z</time><name>PT2612</name></trkpt>
<trkpt lat="53.360941" lon="-1.783592"><ele>419</ele><time>2020-08-05T10:08:29Z</time><name>PT2613</name></trkpt>
<trkpt lat="53.360946" lon="-1.783582"><ele>418</ele><time>2020-08-05T10:08:30Z</time><name>PT2614</name></trkpt>
<trkpt lat="53.360949" lon="-1.783577"><ele>418</ele><time>2020-08-05T10:08:31Z</time><name>PT2615</name></trkpt>
<trkpt lat="53.360953" lon="-1.783572"><ele>418</ele><time>2020-08-05T10:08:32Z</time><name>PT2616</name></trkpt>
<trkpt lat="53.360957" lon="-1.783568"><ele>417</ele><time>2020-08-05T10:08:33Z</time><name>PT2617</name></trkpt>
<trkpt lat="53.360964" lon="-1.783556"><ele>418</ele><time>2020-08-05T10:08:34Z</time><name>PT2618</name></trkpt>
<trkpt lat="53.360966" lon="-1.783552"><ele>417</ele><time>2020-08-05T10:08:35Z</time><name>PT2619</name></trkpt>
<trkpt lat="53.360969" lon="-1.783548"><ele>417</ele><time>2020-08-05T10:08:36Z</time><name>PT2620</name></trkpt>
<trkpt lat="53.360971" lon="-1.783547"><ele>417</ele><time>2020-08-05T10:08:37Z</time><name>PT2621</name></trkpt>
<trkpt lat="53.360977" lon="-1.783542"><ele>417</ele><time>2020-08-05T10:08:38Z</time><name>PT2622</name></trkpt>
<trkpt lat="53.360982" lon="-1.783535"><ele>418</ele><time>2020-08-05T10:08:39Z</time><name>PT2623</name></trkpt>
<trkpt lat="53.360985" lon="-1.783533"><ele>417</ele><time>2020-08-05T10:08:40Z</time><name>PT2624</name></trkpt>
<trkpt lat="53.360992" lon="-1.783539"><ele>417</ele><time>2020-08-05T10:08:41Z</time><name>PT2625</name></trkpt>
<trkpt lat="53.360998" lon="-1.783533"><ele>417</ele><time>2020-08-05T10:08:42Z</time><name>PT2626</name></trkpt>
<trkpt lat="53.361005" lon="-1.783532"><ele>418</ele><time>2020-08-05T10:08:43Z</time><name>PT2627</name></trkpt>
<trkpt lat="53.361008" lon="-1.783524"><ele>418</ele><time>2020-08-05T10:08:44Z</time><name>PT2628</name></trkpt>
<trkpt lat="53.361013" lon="-1.783511"><ele>419</ele><time>2020-08-05T10:08:45Z</time><name>PT2629</name></trkpt>
<trkpt lat="53.361017" lon="-1.783498"><ele>420</ele><time>2020-08-05T10:08:46Z</time><name>PT2630</name></trkpt>
<trkpt lat="53.361021" lon="-1.783491"><ele>420</ele><time>2020-08-05T10:08:47Z</time><name>PT2631</name></trkpt>
<trkpt lat="53.361025" lon="-1.783484"><ele>419</ele><time>2020-08-05T10:08:48Z</time><name>PT2632</name></trkpt>
<trkpt lat="53.361028" lon="-1.783477"><ele>419</ele><time>2020-08-05T10:08:49Z</time><name>PT2633</name></trkpt>
<trkpt lat="53.361031" lon="-1.783471"><ele>420</ele><time>2020-08-05T10:08:50Z</time><name>PT2634</name></trkpt>
<trkpt lat="53.361043" lon="-1.783461"><ele>420</ele><time>2020-08-05T10:08:53Z</time><name>PT2635</name></trkpt>
<trkpt lat="53.361054" lon="-1.783458"><ele>420</ele><time>2020-08-05T10:08:54Z</time><name>PT2636</name></trkpt>
<trkpt lat="53.361058" lon="-1.783450"><ele>420</ele><time>2020-08-05T10:08:55Z</time><name>PT2637</name></trkpt>
<trkpt lat="53.361061" lon="-1.783444"><ele>420</ele><time>2020-08-05T10:08:56Z</time><name>PT2638</name></trkpt>
<trkpt lat="53.361065" lon="-1.783441"><ele>420</ele><time>2020-08-05T10:08:57Z</time><name>PT2639</name></trkpt>
<trkpt lat="53.361070" lon="-1.783437"><ele>420</ele><time>2020-08-05T10:08:58Z</time><name>PT2640</name></trkpt>
<trkpt lat="53.361074" lon="-1.783434"><ele>419</ele><time>2020-08-05T10:08:59Z</time><name>PT2641</name></trkpt>
<trkpt lat="53.361077" lon="-1.783433"><ele>419</ele><time>2020-08-05T10:09:00Z</time><name>PT2642</name></trkpt>
<trkpt lat="53.361079" lon="-1.783432"><ele>420</ele><time>2020-08-05T10:09:01Z</time><name>PT2643</name></trkpt>
<trkpt lat="53.361082" lon="-1.783417"><ele>420</ele><time>2020-08-05T10:09:02Z</time><name>PT2644</name></trkpt>
<trkpt lat="53.361085" lon="-1.783407"><ele>421</ele><time>2020-08-05T10:09:03Z</time><name>PT2645</name></trkpt>
<trkpt lat="53.361087" lon="-1.783397"><ele>421</ele><time>2020-08-05T10:09:04Z</time><name>PT2646</name></trkpt>
<trkpt lat="53.361090" lon="-1.783394"><ele>421</ele><time>2020-08-05T10:09:05Z</time><name>PT2647</name></trkpt>
<trkpt lat="53.361094" lon="-1.783388"><ele>421</ele><time>2020-08-05T10:09:06Z</time><name>PT2648</name></trkpt>
<trkpt lat="53.361096" lon="-1.783383"><ele>421</ele><time>2020-08-05T10:09:07Z</time><name>PT2649</name></trkpt>
<trkpt lat="53.361099" lon="-1.783378"><ele>421</ele><time>2020-08-05T10:09:08Z</time><name>PT2650</name></trkpt>
<trkpt lat="53.361101" lon="-1.783377"><ele>421</ele><time>2020-08-05T10:09:09Z</time><name>PT2651</name></trkpt>
<trkpt lat="53.361104" lon="-1.783376"><ele>421</ele><time>2020-08-05T10:09:10Z</time><name>PT2652</name></trkpt>
<trkpt lat="53.361108" lon="-1.783374"><ele>421</ele><time>2020-08-05T10:09:11Z</time><name>PT2653</name></trkpt>
<trkpt lat="53.361121" lon="-1.783362"><ele>422</ele><time>2020-08-05T10:09:17Z</time><name>PT2654</name></trkpt>
<trkpt lat="53.361128" lon="-1.783355"><ele>422</ele><time>2020-08-05T10:09:18Z</time><name>PT2655</name></trkpt>
<trkpt lat="53.361132" lon="-1.783347"><ele>422</ele><time>2020-08-05T10:09:19Z</time><name>PT2656</name></trkpt>
<trkpt lat="53.361140" lon="-1.783336"><ele>423</ele><time>2020-08-05T10:09:20Z</time><name>PT2657</name></trkpt>
<trkpt lat="53.361144" lon="-1.783334"><ele>423</ele><time>2020-08-05T10:09:21Z</time><name>PT2658</name></trkpt>
<trkpt lat="53.361149" lon="-1.783331"><ele>423</ele><time>2020-08-05T10:09:22Z</time><name>PT2659</name></trkpt>
<trkpt lat="53.361152" lon="-1.783319"><ele>423</ele><time>2020-08-05T10:09:23Z</time><name>PT2660</name></trkpt>
<trkpt lat="53.361155" lon="-1.783308"><ele>424</ele><time>2020-08-05T10:09:24Z</time><name>PT2661</name></trkpt>
<trkpt lat="53.361154" lon="-1.783308"><ele>424</ele><time>2020-08-05T10:09:26Z</time><name>PT2662</name></trkpt>
<trkpt lat="53.361160" lon="-1.783307"><ele>424</ele><time>2020-08-05T10:09:27Z</time><name>PT2663</name></trkpt>
<trkpt lat="53.361163" lon="-1.783301"><ele>424</ele><time>2020-08-05T10:09:28Z</time><name>PT2664</name></trkpt>
<trkpt lat="53.361170" lon="-1.783286"><ele>425</ele><time>2020-08-05T10:09:29Z</time><name>PT2665</name></trkpt>
<trkpt lat="53.361175" lon="-1.783278"><ele>426</ele><time>2020-08-05T10:09:30Z</time><name>PT2666</name></trkpt>
<trkpt lat="53.361178" lon="-1.783272"><ele>426</ele><time>2020-08-05T10:09:31Z</time><name>PT2667</name></trkpt>
<trkpt lat="53.361179" lon="-1.783271"><ele>426</ele><time>2020-08-05T10:09:32Z</time><name>PT2668</name></trkpt>
<trkpt lat="53.361182" lon="-1.783266"><ele>426</ele><time>2020-08-05T10:09:33Z</time><name>PT2669</name></trkpt>
<trkpt lat="53.361186" lon="-1.783259"><ele>426</ele><time>2020-08-05T10:09:34Z</time><name>PT2670</name></trkpt>
<trkpt lat="53.361189" lon="-1.783251"><ele>426</ele><time>2020-08-05T10:09:35Z</time><name>PT2671</name></trkpt>
<trkpt lat="53.361193" lon="-1.783241"><ele>426</ele><time>2020-08-05T10:09:36Z</time><name>PT2672</name></trkpt>
<trkpt lat="53.361197" lon="-1.783231"><ele>427</ele><time>2020-08-05T10:09:37Z</time><name>PT2673</name></trkpt>
<trkpt lat="53.361202" lon="-1.783223"><ele>427</ele><time>2020-08-05T10:09:38Z</time><name>PT2674</name></trkpt>
<trkpt lat="53.361205" lon="-1.783222"><ele>428</ele><time>2020-08-05T10:09:39Z</time><name>PT2675</name></trkpt>
<trkpt lat="53.361208" lon="-1.783225"><ele>428</ele><time>2020-08-05T10:09:40Z</time><name>PT2676</name></trkpt>
<trkpt lat="53.361210" lon="-1.783228"><ele>428</ele><time>2020-08-05T10:09:41Z</time><name>PT2677</name></trkpt>
<trkpt lat="53.361219" lon="-1.783231"><ele>428</ele><time>2020-08-05T10:09:42Z</time><name>PT2678</name></trkpt>
<trkpt lat="53.361232" lon="-1.783232"><ele>429</ele><time>2020-08-05T10:09:43Z</time><name>PT2679</name></trkpt>
<trkpt lat="53.361240" lon="-1.783239"><ele>430</ele><time>2020-08-05T10:09:44Z</time><name>PT2680</name></trkpt>
<trkpt lat="53.361249" lon="-1.783237"><ele>430</ele><time>2020-08-05T10:09:45Z</time><name>PT2681</name></trkpt>
<trkpt lat="53.361254" lon="-1.783236"><ele>430</ele><time>2020-08-05T10:09:46Z</time><name>PT2682</name></trkpt>
<trkpt lat="53.361259" lon="-1.783233"><ele>431</ele><time>2020-08-05T10:09:47Z</time><name>PT2683</name></trkpt>
<trkpt lat="53.361264" lon="-1.783228"><ele>431</ele><time>2020-08-05T10:09:48Z</time><name>PT2684</name></trkpt>
<trkpt lat="53.361267" lon="-1.783222"><ele>431</ele><time>2020-08-05T10:09:49Z</time><name>PT2685</name></trkpt>
<trkpt lat="53.361270" lon="-1.783221"><ele>431</ele><time>2020-08-05T10:09:50Z</time><name>PT2686</name></trkpt>
<trkpt lat="53.361275" lon="-1.783217"><ele>431</ele><time>2020-08-05T10:09:51Z</time><name>PT2687</name></trkpt>
<trkpt lat="53.361280" lon="-1.783213"><ele>431</ele><time>2020-08-05T10:09:52Z</time><name>PT2688</name></trkpt>
<trkpt lat="53.361285" lon="-1.783210"><ele>431</ele><time>2020-08-05T10:09:53Z</time><name>PT2689</name></trkpt>
<trkpt lat="53.361288" lon="-1.783212"><ele>432</ele><time>2020-08-05T10:09:54Z</time><name>PT2690</name></trkpt>
<trkpt lat="53.361292" lon="-1.783210"><ele>432</ele><time>2020-08-05T10:09:55Z</time><name>PT2691</name></trkpt>
<trkpt lat="53.361296" lon="-1.783202"><ele>432</ele><time>2020-08-05T10:09:56Z</time><name>PT2692</name></trkpt>
<trkpt lat="53.361301" lon="-1.783201"><ele>432</ele><time>2020-08-05T10:09:57Z</time><name>PT2693</name></trkpt>
<trkpt lat="53.361306" lon="-1.783202"><ele>432</ele><time>2020-08-05T10:09:58Z</time><name>PT2694</name></trkpt>
<trkpt lat="53.361312" lon="-1.783199"><ele>432</ele><time>2020-08-05T10:09:59Z</time><name>PT2695</name></trkpt>
<trkpt lat="53.361318" lon="-1.783193"><ele>432</ele><time>2020-08-05T10:10:00Z</time><name>PT2696</name></trkpt>
<trkpt lat="53.361324" lon="-1.783190"><ele>433</ele><time>2020-08-05T10:10:01Z</time><name>PT2697</name></trkpt>
<trkpt lat="53.361329" lon="-1.783189"><ele>433</ele><time>2020-08-05T10:10:02Z</time><name>PT2698</name></trkpt>
<trkpt lat="53.361335" lon="-1.783181"><ele>433</ele><time>2020-08-05T10:10:03Z</time><name>PT2699</name></trkpt>
<trkpt lat="53.361341" lon="-1.783176"><ele>434</ele><time>2020-08-05T10:10:04Z</time><name>PT2700</name></trkpt>
<trkpt lat="53.361345" lon="-1.783166"><ele>434</ele><time>2020-08-05T10:10:05Z</time><name>PT2701</name></trkpt>
<trkpt lat="53.361349" lon="-1.783155"><ele>435</ele><time>2020-08-05T10:10:06Z</time><name>PT2702</name></trkpt>
<trkpt lat="53.361355" lon="-1.783144"><ele>435</ele><time>2020-08-05T10:10:07Z</time><name>PT2703</name></trkpt>
<trkpt lat="53.361359" lon="-1.783133"><ele>435</ele><time>2020-08-05T10:10:08Z</time><name>PT2704</name></trkpt>
<trkpt lat="53.361361" lon="-1.783129"><ele>434</ele><time>2020-08-05T10:10:09Z</time><name>PT2705</name></trkpt>
<trkpt lat="53.361367" lon="-1.783128"><ele>434</ele><time>2020-08-05T10:10:10Z</time><name>PT2706</name></trkpt>
<trkpt lat="53.361373" lon="-1.783121"><ele>435</ele><time>2020-08-05T10:10:11Z</time><name>PT2707</name></trkpt>
<trkpt lat="53.361378" lon="-1.783116"><ele>435</ele><time>2020-08-05T10:10:12Z</time><name>PT2708</name></trkpt>
<trkpt lat="53.361382" lon="-1.783112"><ele>434</ele><time>2020-08-05T10:10:13Z</time><name>PT2709</name></trkpt>
<trkpt lat="53.361386" lon="-1.783107"><ele>434</ele><time>2020-08-05T10:10:14Z</time><name>PT2710</name></trkpt>
<trkpt lat="53.361389" lon="-1.783099"><ele>434</ele><time>2020-08-05T10:10:15Z</time><name>PT2711</name></trkpt>
<trkpt lat="53.361393" lon="-1.783091"><ele>435</ele><time>2020-08-05T10:10:16Z</time><name>PT2712</name></trkpt>
<trkpt lat="53.361395" lon="-1.783088"><ele>435</ele><time>2020-08-05T10:10:17Z</time><name>PT2713</name></trkpt>
<trkpt lat="53.361397" lon="-1.783083"><ele>435</ele><time>2020-08-05T10:10:18Z</time><name>PT2714</name></trkpt>
<trkpt lat="53.361398" lon="-1.783081"><ele>435</ele><time>2020-08-05T10:10:19Z</time><name>PT2715</name></trkpt>
<trkpt lat="53.361399" lon="-1.783076"><ele>435</ele><time>2020-08-05T10:10:24Z</time><name>PT2716</name></trkpt>
<trkpt lat="53.361410" lon="-1.783065"><ele>435</ele><time>2020-08-05T10:10:25Z</time><name>PT2717</name></trkpt>
<trkpt lat="53.361423" lon="-1.783064"><ele>435</ele><time>2020-08-05T10:10:26Z</time><name>PT2718</name></trkpt>
<trkpt lat="53.361431" lon="-1.783055"><ele>435</ele><time>2020-08-05T10:10:27Z</time><name>PT2719</name></trkpt>
<trkpt lat="53.361441" lon="-1.783045"><ele>435</ele><time>2020-08-05T10:10:28Z</time><name>PT2720</name></trkpt>
<trkpt lat="53.361446" lon="-1.783038"><ele>435</ele><time>2020-08-05T10:10:29Z</time><name>PT2721</name></trkpt>
<trkpt lat="53.361452" lon="-1.783033"><ele>436</ele><time>2020-08-05T10:10:30Z</time><name>PT2722</name></trkpt>
<trkpt lat="53.361461" lon="-1.783019"><ele>435</ele><time>2020-08-05T10:10:31Z</time><name>PT2723</name></trkpt>
<trkpt lat="53.361472" lon="-1.783006"><ele>436</ele><time>2020-08-05T10:10:32Z</time><name>PT2724</name></trkpt>
<trkpt lat="53.361482" lon="-1.782999"><ele>436</ele><time>2020-08-05T10:10:33Z</time><name>PT2725</name></trkpt>
<trkpt lat="53.361489" lon="-1.782987"><ele>436</ele><time>2020-08-05T10:10:34Z</time><name>PT2726</name></trkpt>
<trkpt lat="53.361496" lon="-1.782978"><ele>436</ele><time>2020-08-05T10:10:35Z</time><name>PT2727</name></trkpt>
<trkpt lat="53.361505" lon="-1.782969"><ele>436</ele><time>2020-08-05T10:10:36Z</time><name>PT2728</name></trkpt>
<trkpt lat="53.361513" lon="-1.782958"><ele>436</ele><time>2020-08-05T10:10:37Z</time><name>PT2729</name></trkpt>
<trkpt lat="53.361523" lon="-1.782941"><ele>437</ele><time>2020-08-05T10:10:38Z</time><name>PT2730</name></trkpt>
<trkpt lat="53.361533" lon="-1.782927"><ele>437</ele><time>2020-08-05T10:10:39Z</time><name>PT2731</name></trkpt>
<trkpt lat="53.361540" lon="-1.782914"><ele>437</ele><time>2020-08-05T10:10:40Z</time><name>PT2732</name></trkpt>
<trkpt lat="53.361547" lon="-1.782902"><ele>437</ele><time>2020-08-05T10:10:41Z</time><name>PT2733</name></trkpt>
<trkpt lat="53.361554" lon="-1.782886"><ele>437</ele><time>2020-08-05T10:10:42Z</time><name>PT2734</name></trkpt>
<trkpt lat="53.361562" lon="-1.782871"><ele>437</ele><time>2020-08-05T10:10:43Z</time><name>PT2735</name></trkpt>
<trkpt lat="53.361571" lon="-1.782858"><ele>437</ele><time>2020-08-05T10:10:44Z</time><name>PT2736</name></trkpt>
<trkpt lat="53.361578" lon="-1.782845"><ele>437</ele><time>2020-08-05T10:10:45Z</time><name>PT2737</name></trkpt>
<trkpt lat="53.361586" lon="-1.782829"><ele>438</ele><time>2020-08-05T10:10:46Z</time><name>PT2738</name></trkpt>
<trkpt lat="53.361595" lon="-1.782815"><ele>437</ele><time>2020-08-05T10:10:47Z</time><name>PT2739</name></trkpt>
<trkpt lat="53.361603" lon="-1.782802"><ele>437</ele><time>2020-08-05T10:10:48Z</time><name>PT2740</name></trkpt>
<trkpt lat="53.361611" lon="-1.782786"><ele>437</ele><time>2020-08-05T10:10:49Z</time><name>PT2741</name></trkpt>
<trkpt lat="53.361619" lon="-1.782772"><ele>437</ele><time>2020-08-05T10:10:50Z</time><name>PT2742</name></trkpt>
<trkpt lat="53.361625" lon="-1.782759"><ele>437</ele><time>2020-08-05T10:10:51Z</time><name>PT2743</name></trkpt>
<trkpt lat="53.361633" lon="-1.782746"><ele>437</ele><time>2020-08-05T10:10:52Z</time><name>PT2744</name></trkpt>
<trkpt lat="53.361641" lon="-1.782733"><ele>437</ele><time>2020-08-05T10:10:53Z</time><name>PT2745</name></trkpt>
<trkpt lat="53.361650" lon="-1.782718"><ele>437</ele><time>2020-08-05T10:10:54Z</time><name>PT2746</name></trkpt>
<trkpt lat="53.361658" lon="-1.782705"><ele>437</ele><time>2020-08-05T10:10:55Z</time><name>PT2747</name></trkpt>
<trkpt lat="53.361662" lon="-1.782689"><ele>437</ele><time>2020-08-05T10:10:56Z</time><name>PT2748</name></trkpt>
<trkpt lat="53.361665" lon="-1.782672"><ele>437</ele><time>2020-08-05T10:10:57Z</time><name>PT2749</name></trkpt>
<trkpt lat="53.361668" lon="-1.782658"><ele>437</ele><time>2020-08-05T10:10:58Z</time><name>PT2750</name></trkpt>
<trkpt lat="53.361670" lon="-1.782648"><ele>437</ele><time>2020-08-05T10:10:59Z</time><name>PT2751</name></trkpt>
<trkpt lat="53.361674" lon="-1.782633"><ele>437</ele><time>2020-08-05T10:11:00Z</time><name>PT2752</name></trkpt>
<trkpt lat="53.361680" lon="-1.782619"><ele>437</ele><time>2020-08-05T10:11:01Z</time><name>PT2753</name></trkpt>
<trkpt lat="53.361687" lon="-1.782602"><ele>437</ele><time>2020-08-05T10:11:02Z</time><name>PT2754</name></trkpt>
<trkpt lat="53.361691" lon="-1.782590"><ele>437</ele><time>2020-08-05T10:11:03Z</time><name>PT2755</name></trkpt>
<trkpt lat="53.361697" lon="-1.782572"><ele>437</ele><time>2020-08-05T10:11:04Z</time><name>PT2756</name></trkpt>
<trkpt lat="53.361704" lon="-1.782560"><ele>437</ele><time>2020-08-05T10:11:05Z</time><name>PT2757</name></trkpt>
<trkpt lat="53.361711" lon="-1.782549"><ele>437</ele><time>2020-08-05T10:11:06Z</time><name>PT2758</name></trkpt>
<trkpt lat="53.361718" lon="-1.782538"><ele>437</ele><time>2020-08-05T10:11:07Z</time><name>PT2759</name></trkpt>
<trkpt lat="53.361726" lon="-1.782523"><ele>438</ele><time>2020-08-05T10:11:08Z</time><name>PT2760</name></trkpt>
<trkpt lat="53.361733" lon="-1.782512"><ele>438</ele><time>2020-08-05T10:11:09Z</time><name>PT2761</name></trkpt>
<trkpt lat="53.361736" lon="-1.782497"><ele>438</ele><time>2020-08-05T10:11:10Z</time><name>PT2762</name></trkpt>
<trkpt lat="53.361740" lon="-1.782484"><ele>438</ele><time>2020-08-05T10:11:11Z</time><name>PT2763</name></trkpt>
<trkpt lat="53.361742" lon="-1.782467"><ele>438</ele><time>2020-08-05T10:11:12Z</time><name>PT2764</name></trkpt>
<trkpt lat="53.361745" lon="-1.782449"><ele>438</ele><time>2020-08-05T10:11:13Z</time><name>PT2765</name></trkpt>
<trkpt lat="53.361751" lon="-1.782431"><ele>438</ele><time>2020-08-05T10:11:14Z</time><name>PT2766</name></trkpt>
<trkpt lat="53.361758" lon="-1.782411"><ele>438</ele><time>2020-08-05T10:11:15Z</time><name>PT2767</name></trkpt>
<trkpt lat="53.361763" lon="-1.782395"><ele>439</ele><time>2020-08-05T10:11:16Z</time><name>PT2768</name></trkpt>
<trkpt lat="53.361769" lon="-1.782379"><ele>438</ele><time>2020-08-05T10:11:17Z</time><name>PT2769</name></trkpt>
<trkpt lat="53.361774" lon="-1.782368"><ele>438</ele><time>2020-08-05T10:11:18Z</time><name>PT2770</name></trkpt>
<trkpt lat="53.361779" lon="-1.782346"><ele>438</ele><time>2020-08-05T10:11:19Z</time><name>PT2771</name></trkpt>
<trkpt lat="53.361783" lon="-1.782325"><ele>438</ele><time>2020-08-05T10:11:20Z</time><name>PT2772</name></trkpt>
<trkpt lat="53.361789" lon="-1.782308"><ele>439</ele><time>2020-08-05T10:11:21Z</time><name>PT2773</name></trkpt>
<trkpt lat="53.361800" lon="-1.782293"><ele>439</ele><time>2020-08-05T10:11:22Z</time><name>PT2774</name></trkpt>
<trkpt lat="53.361810" lon="-1.782279"><ele>439</ele><time>2020-08-05T10:11:23Z</time><name>PT2775</name></trkpt>
<trkpt lat="53.361818" lon="-1.782263"><ele>439</ele><time>2020-08-05T10:11:24Z</time><name>PT2776</name></trkpt>
<trkpt lat="53.361821" lon="-1.782246"><ele>438</ele><time>2020-08-05T10:11:25Z</time><name>PT2777</name></trkpt>
<trkpt lat="53.361823" lon="-1.782225"><ele>438</ele><time>2020-08-05T10:11:26Z</time><name>PT2778</name></trkpt>
<trkpt lat="53.361827" lon="-1.782207"><ele>438</ele><time>2020-08-05T10:11:27Z</time><name>PT2779</name></trkpt>
<trkpt lat="53.361832" lon="-1.782187"><ele>438</ele><time>2020-08-05T10:11:28Z</time><name>PT2780</name></trkpt>
<trkpt lat="53.361837" lon="-1.782164"><ele>437</ele><time>2020-08-05T10:11:29Z</time><name>PT2781</name></trkpt>
<trkpt lat="53.361841" lon="-1.782149"><ele>437</ele><time>2020-08-05T10:11:30Z</time><name>PT2782</name></trkpt>
<trkpt lat="53.361846" lon="-1.782133"><ele>437</ele><time>2020-08-05T10:11:31Z</time><name>PT2783</name></trkpt>
<trkpt lat="53.361847" lon="-1.782115"><ele>437</ele><time>2020-08-05T10:11:32Z</time><name>PT2784</name></trkpt>
<trkpt lat="53.361850" lon="-1.782092"><ele>438</ele><time>2020-08-05T10:11:33Z</time><name>PT2785</name></trkpt>
<trkpt lat="53.361854" lon="-1.782070"><ele>438</ele><time>2020-08-05T10:11:34Z</time><name>PT2786</name></trkpt>
<trkpt lat="53.361856" lon="-1.782050"><ele>438</ele><time>2020-08-05T10:11:35Z</time><name>PT2787</name></trkpt>
<trkpt lat="53.361859" lon="-1.782033"><ele>438</ele><time>2020-08-05T10:11:36Z</time><name>PT2788</name></trkpt>
<trkpt lat="53.361864" lon="-1.782013"><ele>438</ele><time>2020-08-05T10:11:37Z</time><name>PT2789</name></trkpt>
<trkpt lat="53.361869" lon="-1.781994"><ele>438</ele><time>2020-08-05T10:11:38Z</time><name>PT2790</name></trkpt>
<trkpt lat="53.361875" lon="-1.781972"><ele>437</ele><time>2020-08-05T10:11:39Z</time><name>PT2791</name></trkpt>
<trkpt lat="53.361881" lon="-1.781950"><ele>438</ele><time>2020-08-05T10:11:40Z</time><name>PT2792</name></trkpt>
<trkpt lat="53.361887" lon="-1.781927"><ele>438</ele><time>2020-08-05T10:11:41Z</time><name>PT2793</name></trkpt>
<trkpt lat="53.361892" lon="-1.781907"><ele>438</ele><time>2020-08-05T10:11:42Z</time><name>PT2794</name></trkpt>
<trkpt lat="53.361897" lon="-1.781889"><ele>438</ele><time>2020-08-05T10:11:43Z</time><name>PT2795</name></trkpt>
<trkpt lat="53.361898" lon="-1.781869"><ele>437</ele><time>2020-08-05T10:11:44Z</time><name>PT2796</name></trkpt>
<trkpt lat="53.361898" lon="-1.781847"><ele>438</ele><time>2020-08-05T10:11:45Z</time><name>PT2797</name></trkpt>
<trkpt lat="53.361900" lon="-1.781827"><ele>437</ele><time>2020-08-05T10:11:46Z</time><name>PT2798</name></trkpt>
<trkpt lat="53.361906" lon="-1.781806"><ele>437</ele><time>2020-08-05T10:11:47Z</time><name>PT2799</name></trkpt>
<trkpt lat="53.361910" lon="-1.781787"><ele>437</ele><time>2020-08-05T10:11:48Z</time><name>PT2800</name></trkpt>
<trkpt lat="53.361914" lon="-1.781772"><ele>437</ele><time>2020-08-05T10:11:49Z</time><name>PT2801</name></trkpt>
<trkpt lat="53.361916" lon="-1.781758"><ele>437</ele><time>2020-08-05T10:11:50Z</time><name>PT2802</name></trkpt>
<trkpt lat="53.361916" lon="-1.781750"><ele>437</ele><time>2020-08-05T10:11:51Z</time><name>PT2803</name></trkpt>
<trkpt lat="53.361916" lon="-1.781742"><ele>437</ele><time>2020-08-05T10:11:52Z</time><name>PT2804</name></trkpt>
<trkpt lat="53.361914" lon="-1.781728"><ele>437</ele><time>2020-08-05T10:11:53Z</time><name>PT2805</name></trkpt>
<trkpt lat="53.361915" lon="-1.781715"><ele>437</ele><time>2020-08-05T10:11:54Z</time><name>PT2806</name></trkpt>
<trkpt lat="53.361919" lon="-1.781701"><ele>437</ele><time>2020-08-05T10:11:55Z</time><name>PT2807</name></trkpt>
<trkpt lat="53.361924" lon="-1.781689"><ele>437</ele><time>2020-08-05T10:11:56Z</time><name>PT2808</name></trkpt>
<trkpt lat="53.361928" lon="-1.781682"><ele>437</ele><time>2020-08-05T10:11:57Z</time><name>PT2809</name></trkpt>
<trkpt lat="53.361934" lon="-1.781672"><ele>437</ele><time>2020-08-05T10:11:58Z</time><name>PT2810</name></trkpt>
<trkpt lat="53.361938" lon="-1.781660"><ele>437</ele><time>2020-08-05T10:11:59Z</time><name>PT2811</name></trkpt>
<trkpt lat="53.361936" lon="-1.781651"><ele>437</ele><time>2020-08-05T10:12:00Z</time><name>PT2812</name></trkpt>
<trkpt lat="53.361934" lon="-1.781640"><ele>436</ele><time>2020-08-05T10:12:01Z</time><name>PT2813</name></trkpt>
<trkpt lat="53.361934" lon="-1.781629"><ele>436</ele><time>2020-08-05T10:12:02Z</time><name>PT2814</name></trkpt>
<trkpt lat="53.361938" lon="-1.781618"><ele>436</ele><time>2020-08-05T10:12:03Z</time><name>PT2815</name></trkpt>
<trkpt lat="53.361940" lon="-1.781610"><ele>436</ele><time>2020-08-05T10:12:04Z</time><name>PT2816</name></trkpt>
<trkpt lat="53.361941" lon="-1.781606"><ele>436</ele><time>2020-08-05T10:12:05Z</time><name>PT2817</name></trkpt>
<trkpt lat="53.361940" lon="-1.781603"><ele>435</ele><time>2020-08-05T10:12:06Z</time><name>PT2818</name></trkpt>
<trkpt lat="53.361939" lon="-1.781605"><ele>435</ele><time>2020-08-05T10:12:28Z</time><name>PT2819</name></trkpt>
<trkpt lat="53.361947" lon="-1.781604"><ele>435</ele><time>2020-08-05T10:12:29Z</time><name>PT2820</name></trkpt>
<trkpt lat="53.361954" lon="-1.781612"><ele>436</ele><time>2020-08-05T10:12:30Z</time><name>PT2821</name></trkpt>
<trkpt lat="53.361961" lon="-1.781618"><ele>436</ele><time>2020-08-05T10:12:31Z</time><name>PT2822</name></trkpt>
<trkpt lat="53.361968" lon="-1.781617"><ele>436</ele><time>2020-08-05T10:12:32Z</time><name>PT2823</name></trkpt>
<trkpt lat="53.361974" lon="-1.781615"><ele>437</ele><time>2020-08-05T10:12:33Z</time><name>PT2824</name></trkpt>
<trkpt lat="53.361983" lon="-1.781617"><ele>437</ele><time>2020-08-05T10:12:34Z</time><name>PT2825</name></trkpt>
<trkpt lat="53.361988" lon="-1.781612"><ele>437</ele><time>2020-08-05T10:12:35Z</time><name>PT2826</name></trkpt>
<trkpt lat="53.361992" lon="-1.781616"><ele>437</ele><time>2020-08-05T10:12:36Z</time><name>PT2827</name></trkpt>
<trkpt lat="53.361994" lon="-1.781613"><ele>437</ele><time>2020-08-05T10:12:37Z</time><name>PT2828</name></trkpt>
<trkpt lat="53.361998" lon="-1.781619"><ele>438</ele><time>2020-08-05T10:12:38Z</time><name>PT2829</name></trkpt>
<trkpt lat="53.362003" lon="-1.781614"><ele>438</ele><time>2020-08-05T10:12:46Z</time><name>PT2830</name></trkpt>
<trkpt lat="53.362013" lon="-1.781591"><ele>437</ele><time>2020-08-05T10:12:47Z</time><name>PT2831</name></trkpt>
<trkpt lat="53.362021" lon="-1.781571"><ele>437</ele><time>2020-08-05T10:12:48Z</time><name>PT2832</name></trkpt>
<trkpt lat="53.362028" lon="-1.781556"><ele>437</ele><time>2020-08-05T10:12:49Z</time><name>PT2833</name></trkpt>
<trkpt lat="53.362033" lon="-1.781536"><ele>437</ele><time>2020-08-05T10:12:50Z</time><name>PT2834</name></trkpt>
<trkpt lat="53.362039" lon="-1.781513"><ele>437</ele><time>2020-08-05T10:12:51Z</time><name>PT2835</name></trkpt>
<trkpt lat="53.362045" lon="-1.781499"><ele>437</ele><time>2020-08-05T10:12:52Z</time><name>PT2836</name></trkpt>
<trkpt lat="53.362047" lon="-1.781485"><ele>437</ele><time>2020-08-05T10:12:53Z</time><name>PT2837</name></trkpt>
<trkpt lat="53.362051" lon="-1.781464"><ele>437</ele><time>2020-08-05T10:12:54Z</time><name>PT2838</name></trkpt>
<trkpt lat="53.362052" lon="-1.781442"><ele>437</ele><time>2020-08-05T10:12:55Z</time><name>PT2839</name></trkpt>
<trkpt lat="53.362052" lon="-1.781427"><ele>437</ele><time>2020-08-05T10:12:56Z</time><name>PT2840</name></trkpt>
<trkpt lat="53.362051" lon="-1.781415"><ele>437</ele><time>2020-08-05T10:12:57Z</time><name>PT2841</name></trkpt>
<trkpt lat="53.362049" lon="-1.781405"><ele>437</ele><time>2020-08-05T10:12:58Z</time><name>PT2842</name></trkpt>
<trkpt lat="53.362048" lon="-1.781386"><ele>437</ele><time>2020-08-05T10:12:59Z</time><name>PT2843</name></trkpt>
<trkpt lat="53.362049" lon="-1.781367"><ele>437</ele><time>2020-08-05T10:13:00Z</time><name>PT2844</name></trkpt>
<trkpt lat="53.362048" lon="-1.781351"><ele>437</ele><time>2020-08-05T10:13:01Z</time><name>PT2845</name></trkpt>
<trkpt lat="53.362047" lon="-1.781335"><ele>437</ele><time>2020-08-05T10:13:02Z</time><name>PT2846</name></trkpt>
<trkpt lat="53.362048" lon="-1.781320"><ele>437</ele><time>2020-08-05T10:13:03Z</time><name>PT2847</name></trkpt>
<trkpt lat="53.362051" lon="-1.781302"><ele>437</ele><time>2020-08-05T10:13:04Z</time><name>PT2848</name></trkpt>
<trkpt lat="53.362054" lon="-1.781286"><ele>436</ele><time>2020-08-05T10:13:05Z</time><name>PT2849</name></trkpt>
<trkpt lat="53.362057" lon="-1.781265"><ele>436</ele><time>2020-08-05T10:13:06Z</time><name>PT2850</name></trkpt>
<trkpt lat="53.362060" lon="-1.781248"><ele>436</ele><time>2020-08-05T10:13:07Z</time><name>PT2851</name></trkpt>
<trkpt lat="53.362063" lon="-1.781235"><ele>436</ele><time>2020-08-05T10:13:08Z</time><name>PT2852</name></trkpt>
<trkpt lat="53.362066" lon="-1.781233"><ele>436</ele><time>2020-08-05T10:13:09Z</time><name>PT2853</name></trkpt>
<trkpt lat="53.362067" lon="-1.781228"><ele>436</ele><time>2020-08-05T10:13:10Z</time><name>PT2854</name></trkpt>
<trkpt lat="53.362066" lon="-1.781220"><ele>436</ele><time>2020-08-05T10:13:11Z</time><name>PT2855</name></trkpt>
<trkpt lat="53.362066" lon="-1.781210"><ele>436</ele><time>2020-08-05T10:13:12Z</time><name>PT2856</name></trkpt>
<trkpt lat="53.362068" lon="-1.781194"><ele>436</ele><time>2020-08-05T10:13:13Z</time><name>PT2857</name></trkpt>
<trkpt lat="53.362070" lon="-1.781177"><ele>436</ele><time>2020-08-05T10:13:14Z</time><name>PT2858</name></trkpt>
<trkpt lat="53.362074" lon="-1.781163"><ele>436</ele><time>2020-08-05T10:13:15Z</time><name>PT2859</name></trkpt>
<trkpt lat="53.362079" lon="-1.781150"><ele>436</ele><time>2020-08-05T10:13:16Z</time><name>PT2860</name></trkpt>
<trkpt lat="53.362081" lon="-1.781136"><ele>437</ele><time>2020-08-05T10:13:17Z</time><name>PT2861</name></trkpt>
<trkpt lat="53.362080" lon="-1.781118"><ele>436</ele><time>2020-08-05T10:13:18Z</time><name>PT2862</name></trkpt>
<trkpt lat="53.362081" lon="-1.781099"><ele>436</ele><time>2020-08-05T10:13:19Z</time><name>PT2863</name></trkpt>
<trkpt lat="53.362081" lon="-1.781076"><ele>436</ele><time>2020-08-05T10:13:20Z</time><name>PT2864</name></trkpt>
<trkpt lat="53.362083" lon="-1.781053"><ele>436</ele><time>2020-08-05T10:13:21Z</time><name>PT2865</name></trkpt>
<trkpt lat="53.362087" lon="-1.781031"><ele>436</ele><time>2020-08-05T10:13:22Z</time><name>PT2866</name></trkpt>
<trkpt lat="53.362091" lon="-1.781011"><ele>436</ele><time>2020-08-05T10:13:23Z</time><name>PT2867</name></trkpt>
<trkpt lat="53.362095" lon="-1.780989"><ele>435</ele><time>2020-08-05T10:13:24Z</time><name>PT2868</name></trkpt>
<trkpt lat="53.362099" lon="-1.780964"><ele>435</ele><time>2020-08-05T10:13:25Z</time><name>PT2869</name></trkpt>
<trkpt lat="53.362102" lon="-1.780944"><ele>435</ele><time>2020-08-05T10:13:26Z</time><name>PT2870</name></trkpt>
<trkpt lat="53.362106" lon="-1.780926"><ele>435</ele><time>2020-08-05T10:13:27Z</time><name>PT2871</name></trkpt>
<trkpt lat="53.362108" lon="-1.780905"><ele>435</ele><time>2020-08-05T10:13:28Z</time><name>PT2872</name></trkpt>
<trkpt lat="53.362109" lon="-1.780887"><ele>435</ele><time>2020-08-05T10:13:29Z</time><name>PT2873</name></trkpt>
<trkpt lat="53.362112" lon="-1.780865"><ele>436</ele><time>2020-08-05T10:13:30Z</time><name>PT2874</name></trkpt>
<trkpt lat="53.362115" lon="-1.780852"><ele>435</ele><time>2020-08-05T10:13:31Z</time><name>PT2875</name></trkpt>
<trkpt lat="53.362120" lon="-1.780836"><ele>435</ele><time>2020-08-05T10:13:32Z</time><name>PT2876</name></trkpt>
<trkpt lat="53.362125" lon="-1.780816"><ele>436</ele><time>2020-08-05T10:13:33Z</time><name>PT2877</name></trkpt>
<trkpt lat="53.362129" lon="-1.780796"><ele>435</ele><time>2020-08-05T10:13:34Z</time><name>PT2878</name></trkpt>
<trkpt lat="53.362131" lon="-1.780774"><ele>435</ele><time>2020-08-05T10:13:35Z</time><name>PT2879</name></trkpt>
<trkpt lat="53.362134" lon="-1.780757"><ele>434</ele><time>2020-08-05T10:13:36Z</time><name>PT2880</name></trkpt>
<trkpt lat="53.362137" lon="-1.780739"><ele>434</ele><time>2020-08-05T10:13:37Z</time><name>PT2881</name></trkpt>
<trkpt lat="53.362140" lon="-1.780719"><ele>434</ele><time>2020-08-05T10:13:38Z</time><name>PT2882</name></trkpt>
<trkpt lat="53.362142" lon="-1.780697"><ele>435</ele><time>2020-08-05T10:13:39Z</time><name>PT2883</name></trkpt>
<trkpt lat="53.362144" lon="-1.780678"><ele>435</ele><time>2020-08-05T10:13:40Z</time><name>PT2884</name></trkpt>
<trkpt lat="53.362145" lon="-1.780661"><ele>435</ele><time>2020-08-05T10:13:41Z</time><name>PT2885</name></trkpt>
<trkpt lat="53.362147" lon="-1.780641"><ele>435</ele><time>2020-08-05T10:13:42Z</time><name>PT2886</name></trkpt>
<trkpt lat="53.362151" lon="-1.780622"><ele>435</ele><time>2020-08-05T10:13:43Z</time><name>PT2887</name></trkpt>
<trkpt lat="53.362153" lon="-1.780604"><ele>434</ele><time>2020-08-05T10:13:44Z</time><name>PT2888</name></trkpt>
<trkpt lat="53.362151" lon="-1.780583"><ele>434</ele><time>2020-08-05T10:13:45Z</time><name>PT2889</name></trkpt>
<trkpt lat="53.362151" lon="-1.780563"><ele>434</ele><time>2020-08-05T10:13:46Z</time><name>PT2890</name></trkpt>
<trkpt lat="53.362155" lon="-1.780547"><ele>434</ele><time>2020-08-05T10:13:47Z</time><name>PT2891</name></trkpt>
<trkpt lat="53.362158" lon="-1.780535"><ele>434</ele><time>2020-08-05T10:13:48Z</time><name>PT2892</name></trkpt>
<trkpt lat="53.362159" lon="-1.780518"><ele>434</ele><time>2020-08-05T10:13:49Z</time><name>PT2893</name></trkpt>
<trkpt lat="53.362161" lon="-1.780502"><ele>433</ele><time>2020-08-05T10:13:50Z</time><name>PT2894</name></trkpt>
<trkpt lat="53.362161" lon="-1.780483"><ele>433</ele><time>2020-08-05T10:13:51Z</time><name>PT2895</name></trkpt>
<trkpt lat="53.362162" lon="-1.780470"><ele>433</ele><time>2020-08-05T10:13:52Z</time><name>PT2896</name></trkpt>
<trkpt lat="53.362160" lon="-1.780453"><ele>433</ele><time>2020-08-05T10:13:53Z</time><name>PT2897</name></trkpt>
<trkpt lat="53.362160" lon="-1.780435"><ele>433</ele><time>2020-08-05T10:13:54Z</time><name>PT2898</name></trkpt>
<trkpt lat="53.362163" lon="-1.780417"><ele>433</ele><time>2020-08-05T10:13:55Z</time><name>PT2899</name></trkpt>
<trkpt lat="53.362168" lon="-1.780402"><ele>432</ele><time>2020-08-05T10:13:56Z</time><name>PT2900</name></trkpt>
<trkpt lat="53.362173" lon="-1.780383"><ele>432</ele><time>2020-08-05T10:13:57Z</time><name>PT2901</name></trkpt>
<trkpt lat="53.362179" lon="-1.780362"><ele>432</ele><time>2020-08-05T10:13:58Z</time><name>PT2902</name></trkpt>
<trkpt lat="53.362184" lon="-1.780344"><ele>432</ele><time>2020-08-05T10:13:59Z</time><name>PT2903</name></trkpt>
<trkpt lat="53.362187" lon="-1.780328"><ele>433</ele><time>2020-08-05T10:14:00Z</time><name>PT2904</name></trkpt>
<trkpt lat="53.362191" lon="-1.780309"><ele>432</ele><time>2020-08-05T10:14:01Z</time><name>PT2905</name></trkpt>
<trkpt lat="53.362195" lon="-1.780292"><ele>432</ele><time>2020-08-05T10:14:02Z</time><name>PT2906</name></trkpt>
<trkpt lat="53.362198" lon="-1.780273"><ele>432</ele><time>2020-08-05T10:14:03Z</time><name>PT2907</name></trkpt>
<trkpt lat="53.362200" lon="-1.780255"><ele>432</ele><time>2020-08-05T10:14:04Z</time><name>PT2908</name></trkpt>
<trkpt lat="53.362203" lon="-1.780241"><ele>432</ele><time>2020-08-05T10:14:05Z</time><name>PT2909</name></trkpt>
<trkpt lat="53.362208" lon="-1.780226"><ele>432</ele><time>2020-08-05T10:14:06Z</time><name>PT2910</name></trkpt>
<trkpt lat="53.362210" lon="-1.780211"><ele>432</ele><time>2020-08-05T10:14:07Z</time><name>PT2911</name></trkpt>
<trkpt lat="53.362214" lon="-1.780194"><ele>432</ele><time>2020-08-05T10:14:08Z</time><name>PT2912</name></trkpt>
<trkpt lat="53.362218" lon="-1.780181"><ele>432</ele><time>2020-08-05T10:14:09Z</time><name>PT2913</name></trkpt>
<trkpt lat="53.362221" lon="-1.780175"><ele>431</ele><time>2020-08-05T10:14:10Z</time><name>PT2914</name></trkpt>
<trkpt lat="53.362226" lon="-1.780157"><ele>431</ele><time>2020-08-05T10:14:11Z</time><name>PT2915</name></trkpt>
<trkpt lat="53.362231" lon="-1.780136"><ele>431</ele><time>2020-08-05T10:14:12Z</time><name>PT2916</name></trkpt>
<trkpt lat="53.362233" lon="-1.780119"><ele>432</ele><time>2020-08-05T10:14:13Z</time><name>PT2917</name></trkpt>
<trkpt lat="53.362236" lon="-1.780111"><ele>432</ele><time>2020-08-05T10:14:14Z</time><name>PT2918</name></trkpt>
<trkpt lat="53.362240" lon="-1.780098"><ele>432</ele><time>2020-08-05T10:14:15Z</time><name>PT2919</name></trkpt>
<trkpt lat="53.362243" lon="-1.780081"><ele>432</ele><time>2020-08-05T10:14:16Z</time><name>PT2920</name></trkpt>
<trkpt lat="53.362246" lon="-1.780064"><ele>431</ele><time>2020-08-05T10:14:17Z</time><name>PT2921</name></trkpt>
<trkpt lat="53.362249" lon="-1.780051"><ele>431</ele><time>2020-08-05T10:14:18Z</time><name>PT2922</name></trkpt>
<trkpt lat="53.362256" lon="-1.780041"><ele>430</ele><time>2020-08-05T10:14:19Z</time><name>PT2923</name></trkpt>
<trkpt lat="53.362261" lon="-1.780021"><ele>430</ele><time>2020-08-05T10:14:20Z</time><name>PT2924</name></trkpt>
<trkpt lat="53.362266" lon="-1.780002"><ele>429</ele><time>2020-08-05T10:14:21Z</time><name>PT2925</name></trkpt>
<trkpt lat="53.362271" lon="-1.779983"><ele>429</ele><time>2020-08-05T10:14:22Z</time><name>PT2926</name></trkpt>
<trkpt lat="53.362276" lon="-1.779963"><ele>429</ele><time>2020-08-05T10:14:23Z</time><name>PT2927</name></trkpt>
<trkpt lat="53.362280" lon="-1.779944"><ele>429</ele><time>2020-08-05T10:14:24Z</time><name>PT2928</name></trkpt>
<trkpt lat="53.362283" lon="-1.779928"><ele>429</ele><time>2020-08-05T10:14:25Z</time><name>PT2929</name></trkpt>
<trkpt lat="53.362286" lon="-1.779911"><ele>429</ele><time>2020-08-05T10:14:26Z</time><name>PT2930</name></trkpt>
<trkpt lat="53.362289" lon="-1.779891"><ele>428</ele><time>2020-08-05T10:14:27Z</time><name>PT2931</name></trkpt>
<trkpt lat="53.362289" lon="-1.779868"><ele>429</ele><time>2020-08-05T10:14:28Z</time><name>PT2932</name></trkpt>
<trkpt lat="53.362292" lon="-1.779856"><ele>428</ele><time>2020-08-05T10:14:29Z</time><name>PT2933</name></trkpt>
<trkpt lat="53.362297" lon="-1.779838"><ele>428</ele><time>2020-08-05T10:14:30Z</time><name>PT2934</name></trkpt>
<trkpt lat="53.362299" lon="-1.779826"><ele>427</ele><time>2020-08-05T10:14:31Z</time><name>PT2935</name></trkpt>
<trkpt lat="53.362302" lon="-1.779810"><ele>427</ele><time>2020-08-05T10:14:32Z</time><name>PT2936</name></trkpt>
<trkpt lat="53.362303" lon="-1.779787"><ele>427</ele><time>2020-08-05T10:14:33Z</time><name>PT2937</name></trkpt>
<trkpt lat="53.362307" lon="-1.779773"><ele>427</ele><time>2020-08-05T10:14:34Z</time><name>PT2938</name></trkpt>
<trkpt lat="53.362312" lon="-1.779756"><ele>426</ele><time>2020-08-05T10:14:35Z</time><name>PT2939</name></trkpt>
<trkpt lat="53.362315" lon="-1.779736"><ele>426</ele><time>2020-08-05T10:14:36Z</time><name>PT2940</name></trkpt>
<trkpt lat="53.362320" lon="-1.779715"><ele>426</ele><time>2020-08-05T10:14:37Z</time><name>PT2941</name></trkpt>
<trkpt lat="53.362324" lon="-1.779696"><ele>425</ele><time>2020-08-05T10:14:38Z</time><name>PT2942</name></trkpt>
<trkpt lat="53.362330" lon="-1.779677"><ele>425</ele><time>2020-08-05T10:14:39Z</time><name>PT2943</name></trkpt>
<trkpt lat="53.362334" lon="-1.779654"><ele>426</ele><time>2020-08-05T10:14:40Z</time><name>PT2944</name></trkpt>
<trkpt lat="53.362341" lon="-1.779630"><ele>426</ele><time>2020-08-05T10:14:41Z</time><name>PT2945</name></trkpt>
<trkpt lat="53.362345" lon="-1.779613"><ele>425</ele><time>2020-08-05T10:14:42Z</time><name>PT2946</name></trkpt>
<trkpt lat="53.362349" lon="-1.779596"><ele>425</ele><time>2020-08-05T10:14:43Z</time><name>PT2947</name></trkpt>
<trkpt lat="53.362353" lon="-1.779570"><ele>425</ele><time>2020-08-05T10:14:44Z</time><name>PT2948</name></trkpt>
<trkpt lat="53.362358" lon="-1.779548"><ele>425</ele><time>2020-08-05T10:14:45Z</time><name>PT2949</name></trkpt>
<trkpt lat="53.362364" lon="-1.779529"><ele>425</ele><time>2020-08-05T10:14:46Z</time><name>PT2950</name></trkpt>
<trkpt lat="53.362372" lon="-1.779508"><ele>425</ele><time>2020-08-05T10:14:47Z</time><name>PT2951</name></trkpt>
<trkpt lat="53.362377" lon="-1.779487"><ele>425</ele><time>2020-08-05T10:14:48Z</time><name>PT2952</name></trkpt>
<trkpt lat="53.362381" lon="-1.779469"><ele>425</ele><time>2020-08-05T10:14:49Z</time><name>PT2953</name></trkpt>
<trkpt lat="53.362385" lon="-1.779451"><ele>425</ele><time>2020-08-05T10:14:50Z</time><name>PT2954</name></trkpt>
<trkpt lat="53.362388" lon="-1.779433"><ele>425</ele><time>2020-08-05T10:14:51Z</time><name>PT2955</name></trkpt>
<trkpt lat="53.362392" lon="-1.779415"><ele>424</ele><time>2020-08-05T10:14:52Z</time><name>PT2956</name></trkpt>
<trkpt lat="53.362394" lon="-1.779396"><ele>425</ele><time>2020-08-05T10:14:53Z</time><name>PT2957</name></trkpt>
<trkpt lat="53.362397" lon="-1.779375"><ele>425</ele><time>2020-08-05T10:14:54Z</time><name>PT2958</name></trkpt>
<trkpt lat="53.362401" lon="-1.779355"><ele>425</ele><time>2020-08-05T10:14:55Z</time><name>PT2959</name></trkpt>
<trkpt lat="53.362408" lon="-1.779333"><ele>425</ele><time>2020-08-05T10:14:56Z</time><name>PT2960</name></trkpt>
<trkpt lat="53.362410" lon="-1.779316"><ele>425</ele><time>2020-08-05T10:14:57Z</time><name>PT2961</name></trkpt>
<trkpt lat="53.362412" lon="-1.779301"><ele>425</ele><time>2020-08-05T10:14:58Z</time><name>PT2962</name></trkpt>
<trkpt lat="53.362416" lon="-1.779285"><ele>425</ele><time>2020-08-05T10:14:59Z</time><name>PT2963</name></trkpt>
<trkpt lat="53.362422" lon="-1.779260"><ele>425</ele><time>2020-08-05T10:15:00Z</time><name>PT2964</name></trkpt>
<trkpt lat="53.362424" lon="-1.779244"><ele>425</ele><time>2020-08-05T10:15:01Z</time><name>PT2965</name></trkpt>
<trkpt lat="53.362427" lon="-1.779230"><ele>425</ele><time>2020-08-05T10:15:02Z</time><name>PT2966</name></trkpt>
<trkpt lat="53.362430" lon="-1.779211"><ele>425</ele><time>2020-08-05T10:15:03Z</time><name>PT2967</name></trkpt>
<trkpt lat="53.362432" lon="-1.779201"><ele>425</ele><time>2020-08-05T10:15:04Z</time><name>PT2968</name></trkpt>
<trkpt lat="53.362434" lon="-1.779186"><ele>425</ele><time>2020-08-05T10:15:05Z</time><name>PT2969</name></trkpt>
<trkpt lat="53.362436" lon="-1.779169"><ele>425</ele><time>2020-08-05T10:15:06Z</time><name>PT2970</name></trkpt>
<trkpt lat="53.362440" lon="-1.779149"><ele>425</ele><time>2020-08-05T10:15:07Z</time><name>PT2971</name></trkpt>
<trkpt lat="53.362446" lon="-1.779133"><ele>425</ele><time>2020-08-05T10:15:08Z</time><name>PT2972</name></trkpt>
<trkpt lat="53.362451" lon="-1.779119"><ele>425</ele><time>2020-08-05T10:15:09Z</time><name>PT2973</name></trkpt>
<trkpt lat="53.362450" lon="-1.779100"><ele>424</ele><time>2020-08-05T10:15:10Z</time><name>PT2974</name></trkpt>
<trkpt lat="53.362450" lon="-1.779083"><ele>424</ele><time>2020-08-05T10:15:11Z</time><name>PT2975</name></trkpt>
<trkpt lat="53.362448" lon="-1.779061"><ele>424</ele><time>2020-08-05T10:15:12Z</time><name>PT2976</name></trkpt>
<trkpt lat="53.362449" lon="-1.779042"><ele>424</ele><time>2020-08-05T10:15:13Z</time><name>PT2977</name></trkpt>
<trkpt lat="53.362453" lon="-1.779023"><ele>424</ele><time>2020-08-05T10:15:14Z</time><name>PT2978</name></trkpt>
<trkpt lat="53.362459" lon="-1.779003"><ele>424</ele><time>2020-08-05T10:15:15Z</time><name>PT2979</name></trkpt>
<trkpt lat="53.362464" lon="-1.778983"><ele>424</ele><time>2020-08-05T10:15:16Z</time><name>PT2980</name></trkpt>
<trkpt lat="53.362469" lon="-1.778962"><ele>423</ele><time>2020-08-05T10:15:17Z</time><name>PT2981</name></trkpt>
<trkpt lat="53.362472" lon="-1.778943"><ele>423</ele><time>2020-08-05T10:15:18Z</time><name>PT2982</name></trkpt>
<trkpt lat="53.362476" lon="-1.778925"><ele>423</ele><time>2020-08-05T10:15:19Z</time><name>PT2983</name></trkpt>
<trkpt lat="53.362480" lon="-1.778905"><ele>422</ele><time>2020-08-05T10:15:20Z</time><name>PT2984</name></trkpt>
<trkpt lat="53.362486" lon="-1.778885"><ele>422</ele><time>2020-08-05T10:15:21Z</time><name>PT2985</name></trkpt>
<trkpt lat="53.362492" lon="-1.778866"><ele>422</ele><time>2020-08-05T10:15:22Z</time><name>PT2986</name></trkpt>
<trkpt lat="53.362497" lon="-1.778849"><ele>422</ele><time>2020-08-05T10:15:23Z</time><name>PT2987</name></trkpt>
<trkpt lat="53.362502" lon="-1.778833"><ele>421</ele><time>2020-08-05T10:15:24Z</time><name>PT2988</name></trkpt>
<trkpt lat="53.362508" lon="-1.778812"><ele>421</ele><time>2020-08-05T10:15:25Z</time><name>PT2989</name></trkpt>
<trkpt lat="53.362515" lon="-1.778794"><ele>421</ele><time>2020-08-05T10:15:26Z</time><name>PT2990</name></trkpt>
<trkpt lat="53.362521" lon="-1.778778"><ele>421</ele><time>2020-08-05T10:15:27Z</time><name>PT2991</name></trkpt>
<trkpt lat="53.362526" lon="-1.778763"><ele>421</ele><time>2020-08-05T10:15:28Z</time><name>PT2992</name></trkpt>
<trkpt lat="53.362533" lon="-1.778743"><ele>420</ele><time>2020-08-05T10:15:29Z</time><name>PT2993</name></trkpt>
<trkpt lat="53.362540" lon="-1.778719"><ele>420</ele><time>2020-08-05T10:15:30Z</time><name>PT2994</name></trkpt>
<trkpt lat="53.362546" lon="-1.778702"><ele>419</ele><time>2020-08-05T10:15:31Z</time><name>PT2995</name></trkpt>
<trkpt lat="53.362553" lon="-1.778684"><ele>419</ele><time>2020-08-05T10:15:32Z</time><name>PT2996</name></trkpt>
<trkpt lat="53.362559" lon="-1.778669"><ele>419</ele><time>2020-08-05T10:15:33Z</time><name>PT2997</name></trkpt>
<trkpt lat="53.362566" lon="-1.778653"><ele>418</ele><time>2020-08-05T10:15:34Z</time><name>PT2998</name></trkpt>
<trkpt lat="53.362576" lon="-1.778639"><ele>418</ele><time>2020-08-05T10:15:35Z</time><name>PT2999</name></trkpt>
<trkpt lat="53.362582" lon="-1.778625"><ele>418</ele><time>2020-08-05T10:15:36Z</time><name>PT3000</name></trkpt>
<trkpt lat="53.362590" lon="-1.778606"><ele>418</ele><time>2020-08-05T10:15:37Z</time><name>PT3001</name></trkpt>
<trkpt lat="53.362597" lon="-1.778581"><ele>419</ele><time>2020-08-05T10:15:38Z</time><name>PT3002</name></trkpt>
<trkpt lat="53.362605" lon="-1.778562"><ele>419</ele><time>2020-08-05T10:15:39Z</time><name>PT3003</name></trkpt>
<trkpt lat="53.362613" lon="-1.778544"><ele>419</ele><time>2020-08-05T10:15:40Z</time><name>PT3004</name></trkpt>
<trkpt lat="53.362621" lon="-1.778524"><ele>419</ele><time>2020-08-05T10:15:41Z</time><name>PT3005</name></trkpt>
<trkpt lat="53.362629" lon="-1.778506"><ele>419</ele><time>2020-08-05T10:15:42Z</time><name>PT3006</name></trkpt>
<trkpt lat="53.362636" lon="-1.778490"><ele>419</ele><time>2020-08-05T10:15:43Z</time><name>PT3007</name></trkpt>
<trkpt lat="53.362644" lon="-1.778476"><ele>419</ele><time>2020-08-05T10:15:44Z</time><name>PT3008</name></trkpt>
<trkpt lat="53.362651" lon="-1.778463"><ele>419</ele><time>2020-08-05T10:15:45Z</time><name>PT3009</name></trkpt>
<trkpt lat="53.362660" lon="-1.778456"><ele>419</ele><time>2020-08-05T10:15:46Z</time><name>PT3010</name></trkpt>
<trkpt lat="53.362673" lon="-1.778460"><ele>419</ele><time>2020-08-05T10:15:47Z</time><name>PT3011</name></trkpt>
<trkpt lat="53.362683" lon="-1.778455"><ele>419</ele><time>2020-08-05T10:15:48Z</time><name>PT3012</name></trkpt>
<trkpt lat="53.362692" lon="-1.778442"><ele>419</ele><time>2020-08-05T10:15:49Z</time><name>PT3013</name></trkpt>
<trkpt lat="53.362699" lon="-1.778426"><ele>419</ele><time>2020-08-05T10:15:50Z</time><name>PT3014</name></trkpt>
<trkpt lat="53.362707" lon="-1.778413"><ele>418</ele><time>2020-08-05T10:15:51Z</time><name>PT3015</name></trkpt>
<trkpt lat="53.362714" lon="-1.778399"><ele>418</ele><time>2020-08-05T10:15:52Z</time><name>PT3016</name></trkpt>
<trkpt lat="53.362722" lon="-1.778385"><ele>418</ele><time>2020-08-05T10:15:53Z</time><name>PT3017</name></trkpt>
<trkpt lat="53.362731" lon="-1.778367"><ele>419</ele><time>2020-08-05T10:15:54Z</time><name>PT3018</name></trkpt>
<trkpt lat="53.362738" lon="-1.778351"><ele>419</ele><time>2020-08-05T10:15:55Z</time><name>PT3019</name></trkpt>
<trkpt lat="53.362744" lon="-1.778333"><ele>419</ele><time>2020-08-05T10:15:56Z</time><name>PT3020</name></trkpt>
<trkpt lat="53.362751" lon="-1.778311"><ele>419</ele><time>2020-08-05T10:15:57Z</time><name>PT3021</name></trkpt>
<trkpt lat="53.362760" lon="-1.778293"><ele>419</ele><time>2020-08-05T10:15:58Z</time><name>PT3022</name></trkpt>
<trkpt lat="53.362765" lon="-1.778273"><ele>419</ele><time>2020-08-05T10:15:59Z</time><name>PT3023</name></trkpt>
<trkpt lat="53.362771" lon="-1.778252"><ele>419</ele><time>2020-08-05T10:16:00Z</time><name>PT3024</name></trkpt>
<trkpt lat="53.362776" lon="-1.778234"><ele>419</ele><time>2020-08-05T10:16:01Z</time><name>PT3025</name></trkpt>
<trkpt lat="53.362780" lon="-1.778215"><ele>419</ele><time>2020-08-05T10:16:02Z</time><name>PT3026</name></trkpt>
<trkpt lat="53.362788" lon="-1.778194"><ele>419</ele><time>2020-08-05T10:16:03Z</time><name>PT3027</name></trkpt>
<trkpt lat="53.362796" lon="-1.778176"><ele>419</ele><time>2020-08-05T10:16:04Z</time><name>PT3028</name></trkpt>
<trkpt lat="53.362803" lon="-1.778155"><ele>419</ele><time>2020-08-05T10:16:05Z</time><name>PT3029</name></trkpt>
<trkpt lat="53.362809" lon="-1.778135"><ele>419</ele><time>2020-08-05T10:16:06Z</time><name>PT3030</name></trkpt>
<trkpt lat="53.362816" lon="-1.778116"><ele>419</ele><time>2020-08-05T10:16:07Z</time><name>PT3031</name></trkpt>
<trkpt lat="53.362825" lon="-1.778096"><ele>420</ele><time>2020-08-05T10:16:08Z</time><name>PT3032</name></trkpt>
<trkpt lat="53.362833" lon="-1.778074"><ele>420</ele><time>2020-08-05T10:16:09Z</time><name>PT3033</name></trkpt>
<trkpt lat="53.362836" lon="-1.778049"><ele>420</ele><time>2020-08-05T10:16:10Z</time><name>PT3034</name></trkpt>
<trkpt lat="53.362839" lon="-1.778032"><ele>420</ele><time>2020-08-05T10:16:11Z</time><name>PT3035</name></trkpt>
<trkpt lat="53.362842" lon="-1.778016"><ele>420</ele><time>2020-08-05T10:16:12Z</time><name>PT3036</name></trkpt>
<trkpt lat="53.362849" lon="-1.777999"><ele>420</ele><time>2020-08-05T10:16:13Z</time><name>PT3037</name></trkpt>
<trkpt lat="53.362857" lon="-1.777980"><ele>420</ele><time>2020-08-05T10:16:14Z</time><name>PT3038</name></trkpt>
<trkpt lat="53.362863" lon="-1.777960"><ele>420</ele><time>2020-08-05T10:16:15Z</time><name>PT3039</name></trkpt>
<trkpt lat="53.362872" lon="-1.777940"><ele>420</ele><time>2020-08-05T10:16:16Z</time><name>PT3040</name></trkpt>
<trkpt lat="53.362879" lon="-1.777923"><ele>420</ele><time>2020-08-05T10:16:17Z</time><name>PT3041</name></trkpt>
<trkpt lat="53.362883" lon="-1.777907"><ele>421</ele><time>2020-08-05T10:16:18Z</time><name>PT3042</name></trkpt>
<trkpt lat="53.362889" lon="-1.777888"><ele>421</ele><time>2020-08-05T10:16:19Z</time><name>PT3043</name></trkpt>
<trkpt lat="53.362896" lon="-1.777872"><ele>420</ele><time>2020-08-05T10:16:20Z</time><name>PT3044</name></trkpt>
<trkpt lat="53.362903" lon="-1.777856"><ele>420</ele><time>2020-08-05T10:16:21Z</time><name>PT3045</name></trkpt>
<trkpt lat="53.362911" lon="-1.777839"><ele>421</ele><time>2020-08-05T10:16:22Z</time><name>PT3046</name></trkpt>
<trkpt lat="53.362915" lon="-1.777820"><ele>422</ele><time>2020-08-05T10:16:23Z</time><name>PT3047</name></trkpt>
<trkpt lat="53.362920" lon="-1.777803"><ele>422</ele><time>2020-08-05T10:16:24Z</time><name>PT3048</name></trkpt>
<trkpt lat="53.362926" lon="-1.777785"><ele>422</ele><time>2020-08-05T10:16:25Z</time><name>PT3049</name></trkpt>
<trkpt lat="53.362932" lon="-1.777766"><ele>422</ele><time>2020-08-05T10:16:26Z</time><name>PT3050</name></trkpt>
<trkpt lat="53.362936" lon="-1.777747"><ele>422</ele><time>2020-08-05T10:16:27Z</time><name>PT3051</name></trkpt>
<trkpt lat="53.362943" lon="-1.777724"><ele>422</ele><time>2020-08-05T10:16:28Z</time><name>PT3052</name></trkpt>
<trkpt lat="53.362947" lon="-1.777705"><ele>422</ele><time>2020-08-05T10:16:29Z</time><name>PT3053</name></trkpt>
<trkpt lat="53.362952" lon="-1.777691"><ele>422</ele><time>2020-08-05T10:16:30Z</time><name>PT3054</name></trkpt>
<trkpt lat="53.362955" lon="-1.777678"><ele>422</ele><time>2020-08-05T10:16:31Z</time><name>PT3055</name></trkpt>
<trkpt lat="53.362961" lon="-1.777662"><ele>422</ele><time>2020-08-05T10:16:32Z</time><name>PT3056</name></trkpt>
<trkpt lat="53.362967" lon="-1.777643"><ele>422</ele><time>2020-08-05T10:16:33Z</time><name>PT3057</name></trkpt>
<trkpt lat="53.362972" lon="-1.777625"><ele>422</ele><time>2020-08-05T10:16:34Z</time><name>PT3058</name></trkpt>
<trkpt lat="53.362978" lon="-1.777609"><ele>422</ele><time>2020-08-05T10:16:35Z</time><name>PT3059</name></trkpt>
<trkpt lat="53.362984" lon="-1.777595"><ele>421</ele><time>2020-08-05T10:16:36Z</time><name>PT3060</name></trkpt>
<trkpt lat="53.362990" lon="-1.777580"><ele>421</ele><time>2020-08-05T10:16:37Z</time><name>PT3061</name></trkpt>
<trkpt lat="53.362995" lon="-1.777565"><ele>421</ele><time>2020-08-05T10:16:38Z</time><name>PT3062</name></trkpt>
<trkpt lat="53.363000" lon="-1.777548"><ele>421</ele><time>2020-08-05T10:16:39Z</time><name>PT3063</name></trkpt>
<trkpt lat="53.363007" lon="-1.777532"><ele>420</ele><time>2020-08-05T10:16:40Z</time><name>PT3064</name></trkpt>
<trkpt lat="53.363012" lon="-1.777516"><ele>420</ele><time>2020-08-05T10:16:41Z</time><name>PT3065</name></trkpt>
<trkpt lat="53.363018" lon="-1.777499"><ele>420</ele><time>2020-08-05T10:16:42Z</time><name>PT3066</name></trkpt>
<trkpt lat="53.363024" lon="-1.777479"><ele>420</ele><time>2020-08-05T10:16:43Z</time><name>PT3067</name></trkpt>
<trkpt lat="53.363029" lon="-1.777462"><ele>420</ele><time>2020-08-05T10:16:44Z</time><name>PT3068</name></trkpt>
<trkpt lat="53.363035" lon="-1.777445"><ele>420</ele><time>2020-08-05T10:16:45Z</time><name>PT3069</name></trkpt>
<trkpt lat="53.363039" lon="-1.777423"><ele>420</ele><time>2020-08-05T10:16:46Z</time><name>PT3070</name></trkpt>
<trkpt lat="53.363041" lon="-1.777405"><ele>420</ele><time>2020-08-05T10:16:47Z</time><name>PT3071</name></trkpt>
<trkpt lat="53.363047" lon="-1.777387"><ele>421</ele><time>2020-08-05T10:16:48Z</time><name>PT3072</name></trkpt>
<trkpt lat="53.363053" lon="-1.777375"><ele>420</ele><time>2020-08-05T10:16:49Z</time><name>PT3073</name></trkpt>
<trkpt lat="53.363060" lon="-1.777358"><ele>420</ele><time>2020-08-05T10:16:50Z</time><name>PT3074</name></trkpt>
<trkpt lat="53.363064" lon="-1.777337"><ele>420</ele><time>2020-08-05T10:16:51Z</time><name>PT3075</name></trkpt>
<trkpt lat="53.363073" lon="-1.777318"><ele>420</ele><time>2020-08-05T10:16:52Z</time><name>PT3076</name></trkpt>
<trkpt lat="53.363080" lon="-1.777299"><ele>421</ele><time>2020-08-05T10:16:53Z</time><name>PT3077</name></trkpt>
<trkpt lat="53.363083" lon="-1.777282"><ele>421</ele><time>2020-08-05T10:16:54Z</time><name>PT3078</name></trkpt>
<trkpt lat="53.363083" lon="-1.777264"><ele>421</ele><time>2020-08-05T10:16:55Z</time><name>PT3079</name></trkpt>
<trkpt lat="53.363082" lon="-1.777248"><ele>421</ele><time>2020-08-05T10:16:56Z</time><name>PT3080</name></trkpt>
<trkpt lat="53.363081" lon="-1.777237"><ele>421</ele><time>2020-08-05T10:16:57Z</time><name>PT3081</name></trkpt>
<trkpt lat="53.363081" lon="-1.777220"><ele>421</ele><time>2020-08-05T10:16:58Z</time><name>PT3082</name></trkpt>
<trkpt lat="53.363082" lon="-1.777206"><ele>421</ele><time>2020-08-05T10:16:59Z</time><name>PT3083</name></trkpt>
<trkpt lat="53.363083" lon="-1.777191"><ele>421</ele><time>2020-08-05T10:17:00Z</time><name>PT3084</name></trkpt>
<trkpt lat="53.363086" lon="-1.777177"><ele>421</ele><time>2020-08-05T10:17:01Z</time><name>PT3085</name></trkpt>
<trkpt lat="53.363090" lon="-1.777163"><ele>421</ele><time>2020-08-05T10:17:02Z</time><name>PT3086</name></trkpt>
<trkpt lat="53.363097" lon="-1.777145"><ele>422</ele><time>2020-08-05T10:17:03Z</time><name>PT3087</name></trkpt>
<trkpt lat="53.363103" lon="-1.777128"><ele>422</ele><time>2020-08-05T10:17:04Z</time><name>PT3088</name></trkpt>
<trkpt lat="53.363106" lon="-1.777106"><ele>422</ele><time>2020-08-05T10:17:05Z</time><name>PT3089</name></trkpt>
<trkpt lat="53.363111" lon="-1.777087"><ele>422</ele><time>2020-08-05T10:17:06Z</time><name>PT3090</name></trkpt>
<trkpt lat="53.363118" lon="-1.777067"><ele>422</ele><time>2020-08-05T10:17:07Z</time><name>PT3091</name></trkpt>
<trkpt lat="53.363124" lon="-1.777048"><ele>422</ele><time>2020-08-05T10:17:08Z</time><name>PT3092</name></trkpt>
<trkpt lat="53.363128" lon="-1.777034"><ele>422</ele><time>2020-08-05T10:17:09Z</time><name>PT3093</name></trkpt>
<trkpt lat="53.363134" lon="-1.777018"><ele>422</ele><time>2020-08-05T10:17:10Z</time><name>PT3094</name></trkpt>
<trkpt lat="53.363140" lon="-1.777002"><ele>422</ele><time>2020-08-05T10:17:11Z</time><name>PT3095</name></trkpt>
<trkpt lat="53.363144" lon="-1.776987"><ele>422</ele><time>2020-08-05T10:17:12Z</time><name>PT3096</name></trkpt>
<trkpt lat="53.363149" lon="-1.776971"><ele>422</ele><time>2020-08-05T10:17:13Z</time><name>PT3097</name></trkpt>
<trkpt lat="53.363155" lon="-1.776953"><ele>422</ele><time>2020-08-05T10:17:14Z</time><name>PT3098</name></trkpt>
<trkpt lat="53.363162" lon="-1.776936"><ele>422</ele><time>2020-08-05T10:17:15Z</time><name>PT3099</name></trkpt>
<trkpt lat="53.363167" lon="-1.776921"><ele>422</ele><time>2020-08-05T10:17:16Z</time><name>PT3100</name></trkpt>
<trkpt lat="53.363173" lon="-1.776905"><ele>422</ele><time>2020-08-05T10:17:17Z</time><name>PT3101</name></trkpt>
<trkpt lat="53.363177" lon="-1.776888"><ele>423</ele><time>2020-08-05T10:17:18Z</time><name>PT3102</name></trkpt>
<trkpt lat="53.363183" lon="-1.776873"><ele>423</ele><time>2020-08-05T10:17:19Z</time><name>PT3103</name></trkpt>
<trkpt lat="53.363187" lon="-1.776858"><ele>423</ele><time>2020-08-05T10:17:20Z</time><name>PT3104</name></trkpt>
<trkpt lat="53.363190" lon="-1.776841"><ele>423</ele><time>2020-08-05T10:17:21Z</time><name>PT3105</name></trkpt>
<trkpt lat="53.363194" lon="-1.776820"><ele>424</ele><time>2020-08-05T10:17:22Z</time><name>PT3106</name></trkpt>
<trkpt lat="53.363198" lon="-1.776803"><ele>424</ele><time>2020-08-05T10:17:23Z</time><name>PT3107</name></trkpt>
<trkpt lat="53.363204" lon="-1.776790"><ele>423</ele><time>2020-08-05T10:17:24Z</time><name>PT3108</name></trkpt>
<trkpt lat="53.363210" lon="-1.776773"><ele>424</ele><time>2020-08-05T10:17:25Z</time><name>PT3109</name></trkpt>
<trkpt lat="53.363215" lon="-1.776755"><ele>423</ele><time>2020-08-05T10:17:26Z</time><name>PT3110</name></trkpt>
<trkpt lat="53.363219" lon="-1.776738"><ele>424</ele><time>2020-08-05T10:17:27Z</time><name>PT3111</name></trkpt>
<trkpt lat="53.363224" lon="-1.776720"><ele>424</ele><time>2020-08-05T10:17:28Z</time><name>PT3112</name></trkpt>
<trkpt lat="53.363228" lon="-1.776699"><ele>425</ele><time>2020-08-05T10:17:29Z</time><name>PT3113</name></trkpt>
<trkpt lat="53.363230" lon="-1.776682"><ele>426</ele><time>2020-08-05T10:17:30Z</time><name>PT3114</name></trkpt>
<trkpt lat="53.363234" lon="-1.776667"><ele>426</ele><time>2020-08-05T10:17:31Z</time><name>PT3115</name></trkpt>
<trkpt lat="53.363235" lon="-1.776653"><ele>425</ele><time>2020-08-05T10:17:32Z</time><name>PT3116</name></trkpt>
<trkpt lat="53.363240" lon="-1.776632"><ele>425</ele><time>2020-08-05T10:17:33Z</time><name>PT3117</name></trkpt>
<trkpt lat="53.363244" lon="-1.776614"><ele>425</ele><time>2020-08-05T10:17:34Z</time><name>PT3118</name></trkpt>
<trkpt lat="53.363248" lon="-1.776598"><ele>426</ele><time>2020-08-05T10:17:35Z</time><name>PT3119</name></trkpt>
<trkpt lat="53.363250" lon="-1.776584"><ele>427</ele><time>2020-08-05T10:17:36Z</time><name>PT3120</name></trkpt>
<trkpt lat="53.363256" lon="-1.776572"><ele>427</ele><time>2020-08-05T10:17:37Z</time><name>PT3121</name></trkpt>
<trkpt lat="53.363261" lon="-1.776556"><ele>427</ele><time>2020-08-05T10:17:38Z</time><name>PT3122</name></trkpt>
<trkpt lat="53.363267" lon="-1.776542"><ele>427</ele><time>2020-08-05T10:17:39Z</time><name>PT3123</name></trkpt>
<trkpt lat="53.363272" lon="-1.776523"><ele>427</ele><time>2020-08-05T10:17:40Z</time><name>PT3124</name></trkpt>
<trkpt lat="53.363279" lon="-1.776502"><ele>428</ele><time>2020-08-05T10:17:41Z</time><name>PT3125</name></trkpt>
<trkpt lat="53.363285" lon="-1.776479"><ele>428</ele><time>2020-08-05T10:17:42Z</time><name>PT3126</name></trkpt>
<trkpt lat="53.363291" lon="-1.776459"><ele>428</ele><time>2020-08-05T10:17:43Z</time><name>PT3127</name></trkpt>
<trkpt lat="53.363296" lon="-1.776441"><ele>429</ele><time>2020-08-05T10:17:44Z</time><name>PT3128</name></trkpt>
<trkpt lat="53.363304" lon="-1.776426"><ele>429</ele><time>2020-08-05T10:17:45Z</time><name>PT3129</name></trkpt>
<trkpt lat="53.363310" lon="-1.776411"><ele>429</ele><time>2020-08-05T10:17:46Z</time><name>PT3130</name></trkpt>
<trkpt lat="53.363316" lon="-1.776393"><ele>429</ele><time>2020-08-05T10:17:47Z</time><name>PT3131</name></trkpt>
<trkpt lat="53.363324" lon="-1.776376"><ele>429</ele><time>2020-08-05T10:17:48Z</time><name>PT3132</name></trkpt>
<trkpt lat="53.363331" lon="-1.776359"><ele>429</ele><time>2020-08-05T10:17:49Z</time><name>PT3133</name></trkpt>
<trkpt lat="53.363336" lon="-1.776343"><ele>429</ele><time>2020-08-05T10:17:50Z</time><name>PT3134</name></trkpt>
<trkpt lat="53.363342" lon="-1.776326"><ele>428</ele><time>2020-08-05T10:17:51Z</time><name>PT3135</name></trkpt>
<trkpt lat="53.363346" lon="-1.776313"><ele>428</ele><time>2020-08-05T10:17:52Z</time><name>PT3136</name></trkpt>
<trkpt lat="53.363351" lon="-1.776294"><ele>428</ele><time>2020-08-05T10:17:53Z</time><name>PT3137</name></trkpt>
<trkpt lat="53.363358" lon="-1.776277"><ele>428</ele><time>2020-08-05T10:17:54Z</time><name>PT3138</name></trkpt>
<trkpt lat="53.363363" lon="-1.776259"><ele>429</ele><time>2020-08-05T10:17:55Z</time><name>PT3139</name></trkpt>
<trkpt lat="53.363367" lon="-1.776244"><ele>428</ele><time>2020-08-05T10:17:56Z</time><name>PT3140</name></trkpt>
<trkpt lat="53.363370" lon="-1.776232"><ele>429</ele><time>2020-08-05T10:17:57Z</time><name>PT3141</name></trkpt>
<trkpt lat="53.363375" lon="-1.776220"><ele>428</ele><time>2020-08-05T10:17:58Z</time><name>PT3142</name></trkpt>
<trkpt lat="53.363380" lon="-1.776207"><ele>428</ele><time>2020-08-05T10:17:59Z</time><name>PT3143</name></trkpt>
<trkpt lat="53.363388" lon="-1.776191"><ele>429</ele><time>2020-08-05T10:18:00Z</time><name>PT3144</name></trkpt>
<trkpt lat="53.363394" lon="-1.776175"><ele>429</ele><time>2020-08-05T10:18:01Z</time><name>PT3145</name></trkpt>
<trkpt lat="53.363399" lon="-1.776158"><ele>429</ele><time>2020-08-05T10:18:02Z</time><name>PT3146</name></trkpt>
<trkpt lat="53.363402" lon="-1.776143"><ele>429</ele><time>2020-08-05T10:18:03Z</time><name>PT3147</name></trkpt>
<trkpt lat="53.363410" lon="-1.776126"><ele>429</ele><time>2020-08-05T10:18:04Z</time><name>PT3148</name></trkpt>
<trkpt lat="53.363415" lon="-1.776114"><ele>429</ele><time>2020-08-05T10:18:05Z</time><name>PT3149</name></trkpt>
<trkpt lat="53.363422" lon="-1.776099"><ele>429</ele><time>2020-08-05T10:18:06Z</time><name>PT3150</name></trkpt>
<trkpt lat="53.363427" lon="-1.776086"><ele>429</ele><time>2020-08-05T10:18:07Z</time><name>PT3151</name></trkpt>
<trkpt lat="53.363432" lon="-1.776068"><ele>429</ele><time>2020-08-05T10:18:08Z</time><name>PT3152</name></trkpt>
<trkpt lat="53.363438" lon="-1.776051"><ele>429</ele><time>2020-08-05T10:18:09Z</time><name>PT3153</name></trkpt>
<trkpt lat="53.363444" lon="-1.776036"><ele>429</ele><time>2020-08-05T10:18:10Z</time><name>PT3154</name></trkpt>
<trkpt lat="53.363448" lon="-1.776023"><ele>429</ele><time>2020-08-05T10:18:11Z</time><name>PT3155</name></trkpt>
<trkpt lat="53.363452" lon="-1.776013"><ele>428</ele><time>2020-08-05T10:18:12Z</time><name>PT3156</name></trkpt>
<trkpt lat="53.363457" lon="-1.776001"><ele>429</ele><time>2020-08-05T10:18:13Z</time><name>PT3157</name></trkpt>
<trkpt lat="53.363465" lon="-1.775988"><ele>428</ele><time>2020-08-05T10:18:14Z</time><name>PT3158</name></trkpt>
<trkpt lat="53.363471" lon="-1.775977"><ele>428</ele><time>2020-08-05T10:18:15Z</time><name>PT3159</name></trkpt>
<trkpt lat="53.363476" lon="-1.775963"><ele>428</ele><time>2020-08-05T10:18:16Z</time><name>PT3160</name></trkpt>
<trkpt lat="53.363481" lon="-1.775946"><ele>428</ele><time>2020-08-05T10:18:17Z</time><name>PT3161</name></trkpt>
<trkpt lat="53.363485" lon="-1.775929"><ele>428</ele><time>2020-08-05T10:18:18Z</time><name>PT3162</name></trkpt>
<trkpt lat="53.363490" lon="-1.775911"><ele>428</ele><time>2020-08-05T10:18:19Z</time><name>PT3163</name></trkpt>
<trkpt lat="53.363495" lon="-1.775898"><ele>428</ele><time>2020-08-05T10:18:20Z</time><name>PT3164</name></trkpt>
<trkpt lat="53.363501" lon="-1.775883"><ele>428</ele><time>2020-08-05T10:18:21Z</time><name>PT3165</name></trkpt>
<trkpt lat="53.363507" lon="-1.775871"><ele>428</ele><time>2020-08-05T10:18:22Z</time><name>PT3166</name></trkpt>
<trkpt lat="53.363512" lon="-1.775854"><ele>428</ele><time>2020-08-05T10:18:23Z</time><name>PT3167</name></trkpt>
<trkpt lat="53.363517" lon="-1.775839"><ele>428</ele><time>2020-08-05T10:18:24Z</time><name>PT3168</name></trkpt>
<trkpt lat="53.363521" lon="-1.775825"><ele>428</ele><time>2020-08-05T10:18:25Z</time><name>PT3169</name></trkpt>
<trkpt lat="53.363525" lon="-1.775807"><ele>428</ele><time>2020-08-05T10:18:26Z</time><name>PT3170</name></trkpt>
<trkpt lat="53.363531" lon="-1.775791"><ele>428</ele><time>2020-08-05T10:18:27Z</time><name>PT3171</name></trkpt>
<trkpt lat="53.363536" lon="-1.775775"><ele>428</ele><time>2020-08-05T10:18:28Z</time><name>PT3172</name></trkpt>
<trkpt lat="53.363540" lon="-1.775761"><ele>428</ele><time>2020-08-05T10:18:29Z</time><name>PT3173</name></trkpt>
<trkpt lat="53.363545" lon="-1.775746"><ele>428</ele><time>2020-08-05T10:18:30Z</time><name>PT3174</name></trkpt>
<trkpt lat="53.363551" lon="-1.775734"><ele>428</ele><time>2020-08-05T10:18:31Z</time><name>PT3175</name></trkpt>
<trkpt lat="53.363556" lon="-1.775725"><ele>428</ele><time>2020-08-05T10:18:32Z</time><name>PT3176</name></trkpt>
<trkpt lat="53.363560" lon="-1.775710"><ele>428</ele><time>2020-08-05T10:18:33Z</time><name>PT3177</name></trkpt>
<trkpt lat="53.363561" lon="-1.775696"><ele>428</ele><time>2020-08-05T10:18:34Z</time><name>PT3178</name></trkpt>
<trkpt lat="53.363565" lon="-1.775686"><ele>428</ele><time>2020-08-05T10:18:35Z</time><name>PT3179</name></trkpt>
<trkpt lat="53.363568" lon="-1.775676"><ele>428</ele><time>2020-08-05T10:18:36Z</time><name>PT3180</name></trkpt>
<trkpt lat="53.363575" lon="-1.775662"><ele>428</ele><time>2020-08-05T10:18:37Z</time><name>PT3181</name></trkpt>
<trkpt lat="53.363582" lon="-1.775644"><ele>429</ele><time>2020-08-05T10:18:38Z</time><name>PT3182</name></trkpt>
<trkpt lat="53.363587" lon="-1.775630"><ele>429</ele><time>2020-08-05T10:18:39Z</time><name>PT3183</name></trkpt>
<trkpt lat="53.363591" lon="-1.775614"><ele>429</ele><time>2020-08-05T10:18:40Z</time><name>PT3184</name></trkpt>
<trkpt lat="53.363595" lon="-1.775600"><ele>430</ele><time>2020-08-05T10:18:41Z</time><name>PT3185</name></trkpt>
<trkpt lat="53.363598" lon="-1.775583"><ele>430</ele><time>2020-08-05T10:18:42Z</time><name>PT3186</name></trkpt>
<trkpt lat="53.363602" lon="-1.775572"><ele>431</ele><time>2020-08-05T10:18:43Z</time><name>PT3187</name></trkpt>
<trkpt lat="53.363606" lon="-1.775562"><ele>431</ele><time>2020-08-05T10:18:44Z</time><name>PT3188</name></trkpt>
<trkpt lat="53.363611" lon="-1.775548"><ele>431</ele><time>2020-08-05T10:18:45Z</time><name>PT3189</name></trkpt>
<trkpt lat="53.363618" lon="-1.775534"><ele>431</ele><time>2020-08-05T10:18:46Z</time><name>PT3190</name></trkpt>
<trkpt lat="53.363623" lon="-1.775523"><ele>432</ele><time>2020-08-05T10:18:47Z</time><name>PT3191</name></trkpt>
<trkpt lat="53.363626" lon="-1.775507"><ele>432</ele><time>2020-08-05T10:18:48Z</time><name>PT3192</name></trkpt>
<trkpt lat="53.363630" lon="-1.775493"><ele>432</ele><time>2020-08-05T10:18:49Z</time><name>PT3193</name></trkpt>
<trkpt lat="53.363636" lon="-1.775480"><ele>432</ele><time>2020-08-05T10:18:50Z</time><name>PT3194</name></trkpt>
<trkpt lat="53.363640" lon="-1.775464"><ele>432</ele><time>2020-08-05T10:18:51Z</time><name>PT3195</name></trkpt>
<trkpt lat="53.363645" lon="-1.775454"><ele>432</ele><time>2020-08-05T10:18:52Z</time><name>PT3196</name></trkpt>
<trkpt lat="53.363651" lon="-1.775442"><ele>432</ele><time>2020-08-05T10:18:53Z</time><name>PT3197</name></trkpt>
<trkpt lat="53.363657" lon="-1.775431"><ele>433</ele><time>2020-08-05T10:18:54Z</time><name>PT3198</name></trkpt>
<trkpt lat="53.363661" lon="-1.775418"><ele>432</ele><time>2020-08-05T10:18:55Z</time><name>PT3199</name></trkpt>
<trkpt lat="53.363666" lon="-1.775399"><ele>432</ele><time>2020-08-05T10:18:56Z</time><name>PT3200</name></trkpt>
<trkpt lat="53.363670" lon="-1.775384"><ele>432</ele><time>2020-08-05T10:18:57Z</time><name>PT3201</name></trkpt>
<trkpt lat="53.363675" lon="-1.775369"><ele>432</ele><time>2020-08-05T10:18:58Z</time><name>PT3202</name></trkpt>
<trkpt lat="53.363681" lon="-1.775354"><ele>432</ele><time>2020-08-05T10:18:59Z</time><name>PT3203</name></trkpt>
<trkpt lat="53.363688" lon="-1.775341"><ele>433</ele><time>2020-08-05T10:19:00Z</time><name>PT3204</name></trkpt>
<trkpt lat="53.363694" lon="-1.775330"><ele>433</ele><time>2020-08-05T10:19:01Z</time><name>PT3205</name></trkpt>
<trkpt lat="53.363703" lon="-1.775313"><ele>435</ele><time>2020-08-05T10:19:02Z</time><name>PT3206</name></trkpt>
<trkpt lat="53.363711" lon="-1.775302"><ele>435</ele><time>2020-08-05T10:19:03Z</time><name>PT3207</name></trkpt>
<trkpt lat="53.363717" lon="-1.775294"><ele>435</ele><time>2020-08-05T10:19:04Z</time><name>PT3208</name></trkpt>
<trkpt lat="53.363725" lon="-1.775285"><ele>435</ele><time>2020-08-05T10:19:05Z</time><name>PT3209</name></trkpt>
<trkpt lat="53.363731" lon="-1.775266"><ele>436</ele><time>2020-08-05T10:19:06Z</time><name>PT3210</name></trkpt>
<trkpt lat="53.363733" lon="-1.775255"><ele>436</ele><time>2020-08-05T10:19:07Z</time><name>PT3211</name></trkpt>
<trkpt lat="53.363737" lon="-1.775244"><ele>436</ele><time>2020-08-05T10:19:08Z</time><name>PT3212</name></trkpt>
<trkpt lat="53.363743" lon="-1.775234"><ele>436</ele><time>2020-08-05T10:19:09Z</time><name>PT3213</name></trkpt>
<trkpt lat="53.363747" lon="-1.775222"><ele>436</ele><time>2020-08-05T10:19:10Z</time><name>PT3214</name></trkpt>
<trkpt lat="53.363752" lon="-1.775213"><ele>436</ele><time>2020-08-05T10:19:11Z</time><name>PT3215</name></trkpt>
<trkpt lat="53.363757" lon="-1.775198"><ele>436</ele><time>2020-08-05T10:19:12Z</time><name>PT3216</name></trkpt>
<trkpt lat="53.363759" lon="-1.775187"><ele>436</ele><time>2020-08-05T10:19:13Z</time><name>PT3217</name></trkpt>
<trkpt lat="53.363760" lon="-1.775174"><ele>436</ele><time>2020-08-05T10:19:14Z</time><name>PT3218</name></trkpt>
<trkpt lat="53.363763" lon="-1.775169"><ele>436</ele><time>2020-08-05T10:19:15Z</time><name>PT3219</name></trkpt>
<trkpt lat="53.363766" lon="-1.775162"><ele>436</ele><time>2020-08-05T10:19:16Z</time><name>PT3220</name></trkpt>
<trkpt lat="53.363769" lon="-1.775151"><ele>436</ele><time>2020-08-05T10:19:17Z</time><name>PT3221</name></trkpt>
<trkpt lat="53.363772" lon="-1.775142"><ele>436</ele><time>2020-08-05T10:19:18Z</time><name>PT3222</name></trkpt>
<trkpt lat="53.363778" lon="-1.775122"><ele>436</ele><time>2020-08-05T10:19:19Z</time><name>PT3223</name></trkpt>
<trkpt lat="53.363781" lon="-1.775106"><ele>435</ele><time>2020-08-05T10:19:20Z</time><name>PT3224</name></trkpt>
<trkpt lat="53.363785" lon="-1.775089"><ele>436</ele><time>2020-08-05T10:19:21Z</time><name>PT3225</name></trkpt>
<trkpt lat="53.363792" lon="-1.775074"><ele>436</ele><time>2020-08-05T10:19:22Z</time><name>PT3226</name></trkpt>
<trkpt lat="53.363800" lon="-1.775063"><ele>436</ele><time>2020-08-05T10:19:23Z</time><name>PT3227</name></trkpt>
<trkpt lat="53.363806" lon="-1.775047"><ele>438</ele><time>2020-08-05T10:19:24Z</time><name>PT3228</name></trkpt>
<trkpt lat="53.363811" lon="-1.775033"><ele>438</ele><time>2020-08-05T10:19:25Z</time><name>PT3229</name></trkpt>
<trkpt lat="53.363818" lon="-1.775019"><ele>438</ele><time>2020-08-05T10:19:26Z</time><name>PT3230</name></trkpt>
<trkpt lat="53.363823" lon="-1.775006"><ele>438</ele><time>2020-08-05T10:19:27Z</time><name>PT3231</name></trkpt>
<trkpt lat="53.363830" lon="-1.774993"><ele>438</ele><time>2020-08-05T10:19:28Z</time><name>PT3232</name></trkpt>
<trkpt lat="53.363835" lon="-1.774981"><ele>438</ele><time>2020-08-05T10:19:29Z</time><name>PT3233</name></trkpt>
<trkpt lat="53.363839" lon="-1.774971"><ele>439</ele><time>2020-08-05T10:19:30Z</time><name>PT3234</name></trkpt>
<trkpt lat="53.363843" lon="-1.774957"><ele>439</ele><time>2020-08-05T10:19:31Z</time><name>PT3235</name></trkpt>
<trkpt lat="53.363847" lon="-1.774941"><ele>439</ele><time>2020-08-05T10:19:32Z</time><name>PT3236</name></trkpt>
<trkpt lat="53.363852" lon="-1.774923"><ele>440</ele><time>2020-08-05T10:19:33Z</time><name>PT3237</name></trkpt>
<trkpt lat="53.363858" lon="-1.774915"><ele>439</ele><time>2020-08-05T10:19:34Z</time><name>PT3238</name></trkpt>
<trkpt lat="53.363863" lon="-1.774904"><ele>440</ele><time>2020-08-05T10:19:35Z</time><name>PT3239</name></trkpt>
<trkpt lat="53.363867" lon="-1.774895"><ele>440</ele><time>2020-08-05T10:19:36Z</time><name>PT3240</name></trkpt>
<trkpt lat="53.363872" lon="-1.774881"><ele>440</ele><time>2020-08-05T10:19:37Z</time><name>PT3241</name></trkpt>
<trkpt lat="53.363878" lon="-1.774869"><ele>440</ele><time>2020-08-05T10:19:38Z</time><name>PT3242</name></trkpt>
<trkpt lat="53.363883" lon="-1.774861"><ele>440</ele><time>2020-08-05T10:19:39Z</time><name>PT3243</name></trkpt>
<trkpt lat="53.363891" lon="-1.774849"><ele>441</ele><time>2020-08-05T10:19:40Z</time><name>PT3244</name></trkpt>
<trkpt lat="53.363897" lon="-1.774839"><ele>441</ele><time>2020-08-05T10:19:41Z</time><name>PT3245</name></trkpt>
<trkpt lat="53.363905" lon="-1.774830"><ele>440</ele><time>2020-08-05T10:19:42Z</time><name>PT3246</name></trkpt>
<trkpt lat="53.363912" lon="-1.774820"><ele>441</ele><time>2020-08-05T10:19:43Z</time><name>PT3247</name></trkpt>
<trkpt lat="53.363916" lon="-1.774806"><ele>441</ele><time>2020-08-05T10:19:44Z</time><name>PT3248</name></trkpt>
<trkpt lat="53.363919" lon="-1.774800"><ele>440</ele><time>2020-08-05T10:19:45Z</time><name>PT3249</name></trkpt>
<trkpt lat="53.363921" lon="-1.774790"><ele>441</ele><time>2020-08-05T10:19:46Z</time><name>PT3250</name></trkpt>
<trkpt lat="53.363922" lon="-1.774780"><ele>441</ele><time>2020-08-05T10:19:47Z</time><name>PT3251</name></trkpt>
<trkpt lat="53.363927" lon="-1.774767"><ele>441</ele><time>2020-08-05T10:19:48Z</time><name>PT3252</name></trkpt>
<trkpt lat="53.363933" lon="-1.774757"><ele>442</ele><time>2020-08-05T10:19:49Z</time><name>PT3253</name></trkpt>
<trkpt lat="53.363939" lon="-1.774744"><ele>442</ele><time>2020-08-05T10:19:50Z</time><name>PT3254</name></trkpt>
<trkpt lat="53.363945" lon="-1.774734"><ele>443</ele><time>2020-08-05T10:19:51Z</time><name>PT3255</name></trkpt>
<trkpt lat="53.363950" lon="-1.774726"><ele>442</ele><time>2020-08-05T10:19:52Z</time><name>PT3256</name></trkpt>
<trkpt lat="53.363953" lon="-1.774713"><ele>443</ele><time>2020-08-05T10:19:53Z</time><name>PT3257</name></trkpt>
<trkpt lat="53.363956" lon="-1.774701"><ele>443</ele><time>2020-08-05T10:19:54Z</time><name>PT3258</name></trkpt>
<trkpt lat="53.363960" lon="-1.774688"><ele>444</ele><time>2020-08-05T10:19:55Z</time><name>PT3259</name></trkpt>
<trkpt lat="53.363966" lon="-1.774676"><ele>444</ele><time>2020-08-05T10:19:56Z</time><name>PT3260</name></trkpt>
<trkpt lat="53.363973" lon="-1.774661"><ele>445</ele><time>2020-08-05T10:19:57Z</time><name>PT3261</name></trkpt>
<trkpt lat="53.363976" lon="-1.774652"><ele>445</ele><time>2020-08-05T10:19:58Z</time><name>PT3262</name></trkpt>
<trkpt lat="53.363980" lon="-1.774643"><ele>445</ele><time>2020-08-05T10:19:59Z</time><name>PT3263</name></trkpt>
<trkpt lat="53.363984" lon="-1.774632"><ele>445</ele><time>2020-08-05T10:20:00Z</time><name>PT3264</name></trkpt>
<trkpt lat="53.363986" lon="-1.774616"><ele>446</ele><time>2020-08-05T10:20:01Z</time><name>PT3265</name></trkpt>
<trkpt lat="53.363991" lon="-1.774601"><ele>447</ele><time>2020-08-05T10:20:02Z</time><name>PT3266</name></trkpt>
<trkpt lat="53.363997" lon="-1.774587"><ele>447</ele><time>2020-08-05T10:20:03Z</time><name>PT3267</name></trkpt>
<trkpt lat="53.364002" lon="-1.774572"><ele>447</ele><time>2020-08-05T10:20:04Z</time><name>PT3268</name></trkpt>
<trkpt lat="53.364007" lon="-1.774557"><ele>447</ele><time>2020-08-05T10:20:05Z</time><name>PT3269</name></trkpt>
<trkpt lat="53.364010" lon="-1.774541"><ele>447</ele><time>2020-08-05T10:20:06Z</time><name>PT3270</name></trkpt>
<trkpt lat="53.364013" lon="-1.774526"><ele>446</ele><time>2020-08-05T10:20:07Z</time><name>PT3271</name></trkpt>
<trkpt lat="53.364020" lon="-1.774509"><ele>446</ele><time>2020-08-05T10:20:08Z</time><name>PT3272</name></trkpt>
<trkpt lat="53.364026" lon="-1.774496"><ele>446</ele><time>2020-08-05T10:20:09Z</time><name>PT3273</name></trkpt>
<trkpt lat="53.364032" lon="-1.774481"><ele>447</ele><time>2020-08-05T10:20:10Z</time><name>PT3274</name></trkpt>
<trkpt lat="53.364036" lon="-1.774472"><ele>447</ele><time>2020-08-05T10:20:11Z</time><name>PT3275</name></trkpt>
<trkpt lat="53.364040" lon="-1.774461"><ele>446</ele><time>2020-08-05T10:20:12Z</time><name>PT3276</name></trkpt>
<trkpt lat="53.364043" lon="-1.774450"><ele>447</ele><time>2020-08-05T10:20:13Z</time><name>PT3277</name></trkpt>
<trkpt lat="53.364045" lon="-1.774443"><ele>447</ele><time>2020-08-05T10:20:14Z</time><name>PT3278</name></trkpt>
<trkpt lat="53.364049" lon="-1.774440"><ele>447</ele><time>2020-08-05T10:20:15Z</time><name>PT3279</name></trkpt>
<trkpt lat="53.364056" lon="-1.774437"><ele>447</ele><time>2020-08-05T10:20:16Z</time><name>PT3280</name></trkpt>
<trkpt lat="53.364060" lon="-1.774436"><ele>447</ele><time>2020-08-05T10:20:17Z</time><name>PT3281</name></trkpt>
<trkpt lat="53.364064" lon="-1.774432"><ele>447</ele><time>2020-08-05T10:20:18Z</time><name>PT3282</name></trkpt>
<trkpt lat="53.364067" lon="-1.774427"><ele>446</ele><time>2020-08-05T10:20:19Z</time><name>PT3283</name></trkpt>
<trkpt lat="53.364069" lon="-1.774422"><ele>446</ele><time>2020-08-05T10:20:23Z</time><name>PT3284</name></trkpt>
<trkpt lat="53.364071" lon="-1.774425"><ele>446</ele><time>2020-08-05T10:20:24Z</time><name>PT3285</name></trkpt>
<trkpt lat="53.364074" lon="-1.774422"><ele>446</ele><time>2020-08-05T10:20:25Z</time><name>PT3286</name></trkpt>
<trkpt lat="53.364084" lon="-1.774410"><ele>446</ele><time>2020-08-05T10:20:26Z</time><name>PT3287</name></trkpt>
<trkpt lat="53.364088" lon="-1.774402"><ele>446</ele><time>2020-08-05T10:20:27Z</time><name>PT3288</name></trkpt>
<trkpt lat="53.364093" lon="-1.774396"><ele>445</ele><time>2020-08-05T10:20:28Z</time><name>PT3289</name></trkpt>
<trkpt lat="53.364094" lon="-1.774386"><ele>445</ele><time>2020-08-05T10:20:29Z</time><name>PT3290</name></trkpt>
<trkpt lat="53.364094" lon="-1.774372"><ele>445</ele><time>2020-08-05T10:20:30Z</time><name>PT3291</name></trkpt>
<trkpt lat="53.364098" lon="-1.774355"><ele>445</ele><time>2020-08-05T10:20:31Z</time><name>PT3292</name></trkpt>
<trkpt lat="53.364103" lon="-1.774340"><ele>445</ele><time>2020-08-05T10:20:32Z</time><name>PT3293</name></trkpt>
<trkpt lat="53.364105" lon="-1.774331"><ele>446</ele><time>2020-08-05T10:20:33Z</time><name>PT3294</name></trkpt>
<trkpt lat="53.364109" lon="-1.774314"><ele>446</ele><time>2020-08-05T10:20:34Z</time><name>PT3295</name></trkpt>
<trkpt lat="53.364112" lon="-1.774292"><ele>446</ele><time>2020-08-05T10:20:35Z</time><name>PT3296</name></trkpt>
<trkpt lat="53.364117" lon="-1.774273"><ele>446</ele><time>2020-08-05T10:20:36Z</time><name>PT3297</name></trkpt>
<trkpt lat="53.364117" lon="-1.774256"><ele>446</ele><time>2020-08-05T10:20:37Z</time><name>PT3298</name></trkpt>
<trkpt lat="53.364121" lon="-1.774238"><ele>447</ele><time>2020-08-05T10:20:38Z</time><name>PT3299</name></trkpt>
<trkpt lat="53.364127" lon="-1.774221"><ele>447</ele><time>2020-08-05T10:20:39Z</time><name>PT3300</name></trkpt>
<trkpt lat="53.364133" lon="-1.774208"><ele>447</ele><time>2020-08-05T10:20:40Z</time><name>PT3301</name></trkpt>
<trkpt lat="53.364139" lon="-1.774197"><ele>447</ele><time>2020-08-05T10:20:41Z</time><name>PT3302</name></trkpt>
<trkpt lat="53.364146" lon="-1.774185"><ele>447</ele><time>2020-08-05T10:20:42Z</time><name>PT3303</name></trkpt>
<trkpt lat="53.364154" lon="-1.774171"><ele>447</ele><time>2020-08-05T10:20:43Z</time><name>PT3304</name></trkpt>
<trkpt lat="53.364160" lon="-1.774158"><ele>447</ele><time>2020-08-05T10:20:44Z</time><name>PT3305</name></trkpt>
<trkpt lat="53.364165" lon="-1.774146"><ele>447</ele><time>2020-08-05T10:20:45Z</time><name>PT3306</name></trkpt>
<trkpt lat="53.364171" lon="-1.774131"><ele>448</ele><time>2020-08-05T10:20:46Z</time><name>PT3307</name></trkpt>
<trkpt lat="53.364179" lon="-1.774118"><ele>448</ele><time>2020-08-05T10:20:47Z</time><name>PT3308</name></trkpt>
<trkpt lat="53.364184" lon="-1.774106"><ele>448</ele><time>2020-08-05T10:20:48Z</time><name>PT3309</name></trkpt>
<trkpt lat="53.364188" lon="-1.774098"><ele>448</ele><time>2020-08-05T10:20:49Z</time><name>PT3310</name></trkpt>
<trkpt lat="53.364191" lon="-1.774089"><ele>449</ele><time>2020-08-05T10:20:50Z</time><name>PT3311</name></trkpt>
<trkpt lat="53.364197" lon="-1.774078"><ele>449</ele><time>2020-08-05T10:20:51Z</time><name>PT3312</name></trkpt>
<trkpt lat="53.364204" lon="-1.774070"><ele>449</ele><time>2020-08-05T10:20:52Z</time><name>PT3313</name></trkpt>
<trkpt lat="53.364210" lon="-1.774062"><ele>449</ele><time>2020-08-05T10:20:53Z</time><name>PT3314</name></trkpt>
<trkpt lat="53.364216" lon="-1.774049"><ele>450</ele><time>2020-08-05T10:20:54Z</time><name>PT3315</name></trkpt>
<trkpt lat="53.364223" lon="-1.774039"><ele>450</ele><time>2020-08-05T10:20:55Z</time><name>PT3316</name></trkpt>
<trkpt lat="53.364228" lon="-1.774034"><ele>450</ele><time>2020-08-05T10:20:56Z</time><name>PT3317</name></trkpt>
<trkpt lat="53.364234" lon="-1.774018"><ele>451</ele><time>2020-08-05T10:20:57Z</time><name>PT3318</name></trkpt>
<trkpt lat="53.364241" lon="-1.774004"><ele>452</ele><time>2020-08-05T10:20:58Z</time><name>PT3319</name></trkpt>
<trkpt lat="53.364249" lon="-1.773992"><ele>452</ele><time>2020-08-05T10:20:59Z</time><name>PT3320</name></trkpt>
<trkpt lat="53.364257" lon="-1.773984"><ele>452</ele><time>2020-08-05T10:21:00Z</time><name>PT3321</name></trkpt>
<trkpt lat="53.364265" lon="-1.773972"><ele>453</ele><time>2020-08-05T10:21:01Z</time><name>PT3322</name></trkpt>
<trkpt lat="53.364270" lon="-1.773963"><ele>453</ele><time>2020-08-05T10:21:02Z</time><name>PT3323</name></trkpt>
<trkpt lat="53.364276" lon="-1.773949"><ele>453</ele><time>2020-08-05T10:21:03Z</time><name>PT3324</name></trkpt>
<trkpt lat="53.364279" lon="-1.773936"><ele>453</ele><time>2020-08-05T10:21:04Z</time><name>PT3325</name></trkpt>
<trkpt lat="53.364284" lon="-1.773922"><ele>453</ele><time>2020-08-05T10:21:05Z</time><name>PT3326</name></trkpt>
<trkpt lat="53.364289" lon="-1.773907"><ele>453</ele><time>2020-08-05T10:21:06Z</time><name>PT3327</name></trkpt>
<trkpt lat="53.364294" lon="-1.773894"><ele>454</ele><time>2020-08-05T10:21:07Z</time><name>PT3328</name></trkpt>
<trkpt lat="53.364298" lon="-1.773881"><ele>453</ele><time>2020-08-05T10:21:08Z</time><name>PT3329</name></trkpt>
<trkpt lat="53.364305" lon="-1.773870"><ele>453</ele><time>2020-08-05T10:21:09Z</time><name>PT3330</name></trkpt>
<trkpt lat="53.364309" lon="-1.773861"><ele>453</ele><time>2020-08-05T10:21:10Z</time><name>PT3331</name></trkpt>
<trkpt lat="53.364313" lon="-1.773851"><ele>454</ele><time>2020-08-05T10:21:11Z</time><name>PT3332</name></trkpt>
<trkpt lat="53.364316" lon="-1.773838"><ele>453</ele><time>2020-08-05T10:21:12Z</time><name>PT3333</name></trkpt>
<trkpt lat="53.364319" lon="-1.773826"><ele>453</ele><time>2020-08-05T10:21:13Z</time><name>PT3334</name></trkpt>
<trkpt lat="53.364323" lon="-1.773811"><ele>453</ele><time>2020-08-05T10:21:14Z</time><name>PT3335</name></trkpt>
<trkpt lat="53.364325" lon="-1.773796"><ele>453</ele><time>2020-08-05T10:21:15Z</time><name>PT3336</name></trkpt>
<trkpt lat="53.364327" lon="-1.773777"><ele>454</ele><time>2020-08-05T10:21:16Z</time><name>PT3337</name></trkpt>
<trkpt lat="53.364330" lon="-1.773763"><ele>454</ele><time>2020-08-05T10:21:17Z</time><name>PT3338</name></trkpt>
<trkpt lat="53.364335" lon="-1.773746"><ele>455</ele><time>2020-08-05T10:21:18Z</time><name>PT3339</name></trkpt>
<trkpt lat="53.364338" lon="-1.773729"><ele>455</ele><time>2020-08-05T10:21:19Z</time><name>PT3340</name></trkpt>
<trkpt lat="53.364342" lon="-1.773711"><ele>455</ele><time>2020-08-05T10:21:20Z</time><name>PT3341</name></trkpt>
<trkpt lat="53.364344" lon="-1.773697"><ele>455</ele><time>2020-08-05T10:21:21Z</time><name>PT3342</name></trkpt>
<trkpt lat="53.364348" lon="-1.773682"><ele>456</ele><time>2020-08-05T10:21:22Z</time><name>PT3343</name></trkpt>
<trkpt lat="53.364351" lon="-1.773667"><ele>456</ele><time>2020-08-05T10:21:23Z</time><name>PT3344</name></trkpt>
<trkpt lat="53.364352" lon="-1.773652"><ele>456</ele><time>2020-08-05T10:21:24Z</time><name>PT3345</name></trkpt>
<trkpt lat="53.364355" lon="-1.773632"><ele>456</ele><time>2020-08-05T10:21:25Z</time><name>PT3346</name></trkpt>
<trkpt lat="53.364358" lon="-1.773620"><ele>456</ele><time>2020-08-05T10:21:26Z</time><name>PT3347</name></trkpt>
<trkpt lat="53.364363" lon="-1.773612"><ele>456</ele><time>2020-08-05T10:21:27Z</time><name>PT3348</name></trkpt>
<trkpt lat="53.364369" lon="-1.773601"><ele>456</ele><time>2020-08-05T10:21:28Z</time><name>PT3349</name></trkpt>
<trkpt lat="53.364373" lon="-1.773589"><ele>457</ele><time>2020-08-05T10:21:29Z</time><name>PT3350</name></trkpt>
<trkpt lat="53.364376" lon="-1.773575"><ele>457</ele><time>2020-08-05T10:21:30Z</time><name>PT3351</name></trkpt>
<trkpt lat="53.364379" lon="-1.773562"><ele>458</ele><time>2020-08-05T10:21:31Z</time><name>PT3352</name></trkpt>
<trkpt lat="53.364382" lon="-1.773548"><ele>457</ele><time>2020-08-05T10:21:32Z</time><name>PT3353</name></trkpt>
<trkpt lat="53.364387" lon="-1.773531"><ele>458</ele><time>2020-08-05T10:21:33Z</time><name>PT3354</name></trkpt>
<trkpt lat="53.364390" lon="-1.773520"><ele>458</ele><time>2020-08-05T10:21:34Z</time><name>PT3355</name></trkpt>
<trkpt lat="53.364392" lon="-1.773504"><ele>457</ele><time>2020-08-05T10:21:35Z</time><name>PT3356</name></trkpt>
<trkpt lat="53.364398" lon="-1.773490"><ele>458</ele><time>2020-08-05T10:21:36Z</time><name>PT3357</name></trkpt>
<trkpt lat="53.364400" lon="-1.773472"><ele>459</ele><time>2020-08-05T10:21:37Z</time><name>PT3358</name></trkpt>
<trkpt lat="53.364404" lon="-1.773458"><ele>459</ele><time>2020-08-05T10:21:38Z</time><name>PT3359</name></trkpt>
<trkpt lat="53.364405" lon="-1.773447"><ele>459</ele><time>2020-08-05T10:21:39Z</time><name>PT3360</name></trkpt>
<trkpt lat="53.364409" lon="-1.773434"><ele>459</ele><time>2020-08-05T10:21:40Z</time><name>PT3361</name></trkpt>
<trkpt lat="53.364413" lon="-1.773419"><ele>460</ele><time>2020-08-05T10:21:41Z</time><name>PT3362</name></trkpt>
<trkpt lat="53.364419" lon="-1.773400"><ele>461</ele><time>2020-08-05T10:21:42Z</time><name>PT3363</name></trkpt>
<trkpt lat="53.364423" lon="-1.773380"><ele>461</ele><time>2020-08-05T10:21:43Z</time><name>PT3364</name></trkpt>
<trkpt lat="53.364426" lon="-1.773368"><ele>461</ele><time>2020-08-05T10:21:44Z</time><name>PT3365</name></trkpt>
<trkpt lat="53.364429" lon="-1.773351"><ele>461</ele><time>2020-08-05T10:21:45Z</time><name>PT3366</name></trkpt>
<trkpt lat="53.364435" lon="-1.773337"><ele>461</ele><time>2020-08-05T10:21:46Z</time><name>PT3367</name></trkpt>
<trkpt lat="53.364440" lon="-1.773324"><ele>461</ele><time>2020-08-05T10:21:47Z</time><name>PT3368</name></trkpt>
<trkpt lat="53.364443" lon="-1.773315"><ele>461</ele><time>2020-08-05T10:21:48Z</time><name>PT3369</name></trkpt>
<trkpt lat="53.364447" lon="-1.773306"><ele>461</ele><time>2020-08-05T10:21:49Z</time><name>PT3370</name></trkpt>
<trkpt lat="53.364453" lon="-1.773292"><ele>461</ele><time>2020-08-05T10:21:50Z</time><name>PT3371</name></trkpt>
<trkpt lat="53.364459" lon="-1.773277"><ele>461</ele><time>2020-08-05T10:21:51Z</time><name>PT3372</name></trkpt>
<trkpt lat="53.364465" lon="-1.773262"><ele>461</ele><time>2020-08-05T10:21:52Z</time><name>PT3373</name></trkpt>
<trkpt lat="53.364472" lon="-1.773247"><ele>461</ele><time>2020-08-05T10:21:53Z</time><name>PT3374</name></trkpt>
<trkpt lat="53.364474" lon="-1.773231"><ele>462</ele><time>2020-08-05T10:21:54Z</time><name>PT3375</name></trkpt>
<trkpt lat="53.364477" lon="-1.773215"><ele>462</ele><time>2020-08-05T10:21:55Z</time><name>PT3376</name></trkpt>
<trkpt lat="53.364483" lon="-1.773202"><ele>462</ele><time>2020-08-05T10:21:56Z</time><name>PT3377</name></trkpt>
<trkpt lat="53.364490" lon="-1.773189"><ele>463</ele><time>2020-08-05T10:21:57Z</time><name>PT3378</name></trkpt>
<trkpt lat="53.364498" lon="-1.773174"><ele>463</ele><time>2020-08-05T10:21:58Z</time><name>PT3379</name></trkpt>
<trkpt lat="53.364505" lon="-1.773161"><ele>462</ele><time>2020-08-05T10:21:59Z</time><name>PT3380</name></trkpt>
<trkpt lat="53.364508" lon="-1.773145"><ele>463</ele><time>2020-08-05T10:22:00Z</time><name>PT3381</name></trkpt>
<trkpt lat="53.364513" lon="-1.773131"><ele>463</ele><time>2020-08-05T10:22:01Z</time><name>PT3382</name></trkpt>
<trkpt lat="53.364517" lon="-1.773118"><ele>463</ele><time>2020-08-05T10:22:02Z</time><name>PT3383</name></trkpt>
<trkpt lat="53.364524" lon="-1.773104"><ele>463</ele><time>2020-08-05T10:22:03Z</time><name>PT3384</name></trkpt>
<trkpt lat="53.364530" lon="-1.773094"><ele>464</ele><time>2020-08-05T10:22:04Z</time><name>PT3385</name></trkpt>
<trkpt lat="53.364535" lon="-1.773080"><ele>464</ele><time>2020-08-05T10:22:05Z</time><name>PT3386</name></trkpt>
<trkpt lat="53.364542" lon="-1.773065"><ele>464</ele><time>2020-08-05T10:22:06Z</time><name>PT3387</name></trkpt>
<trkpt lat="53.364546" lon="-1.773055"><ele>464</ele><time>2020-08-05T10:22:07Z</time><name>PT3388</name></trkpt>
<trkpt lat="53.364550" lon="-1.773042"><ele>465</ele><time>2020-08-05T10:22:08Z</time><name>PT3389</name></trkpt>
<trkpt lat="53.364552" lon="-1.773026"><ele>465</ele><time>2020-08-05T10:22:09Z</time><name>PT3390</name></trkpt>
<trkpt lat="53.364557" lon="-1.773007"><ele>465</ele><time>2020-08-05T10:22:10Z</time><name>PT3391</name></trkpt>
<trkpt lat="53.364559" lon="-1.772989"><ele>466</ele><time>2020-08-05T10:22:11Z</time><name>PT3392</name></trkpt>
<trkpt lat="53.364562" lon="-1.772974"><ele>466</ele><time>2020-08-05T10:22:12Z</time><name>PT3393</name></trkpt>
<trkpt lat="53.364568" lon="-1.772961"><ele>466</ele><time>2020-08-05T10:22:13Z</time><name>PT3394</name></trkpt>
<trkpt lat="53.364570" lon="-1.772948"><ele>467</ele><time>2020-08-05T10:22:14Z</time><name>PT3395</name></trkpt>
<trkpt lat="53.364573" lon="-1.772941"><ele>467</ele><time>2020-08-05T10:22:15Z</time><name>PT3396</name></trkpt>
<trkpt lat="53.364577" lon="-1.772929"><ele>467</ele><time>2020-08-05T10:22:16Z</time><name>PT3397</name></trkpt>
<trkpt lat="53.364581" lon="-1.772917"><ele>468</ele><time>2020-08-05T10:22:17Z</time><name>PT3398</name></trkpt>
<trkpt lat="53.364584" lon="-1.772904"><ele>467</ele><time>2020-08-05T10:22:18Z</time><name>PT3399</name></trkpt>
<trkpt lat="53.364586" lon="-1.772891"><ele>468</ele><time>2020-08-05T10:22:19Z</time><name>PT3400</name></trkpt>
<trkpt lat="53.364589" lon="-1.772880"><ele>468</ele><time>2020-08-05T10:22:20Z</time><name>PT3401</name></trkpt>
<trkpt lat="53.364591" lon="-1.772867"><ele>467</ele><time>2020-08-05T10:22:21Z</time><name>PT3402</name></trkpt>
<trkpt lat="53.364594" lon="-1.772856"><ele>467</ele><time>2020-08-05T10:22:22Z</time><name>PT3403</name></trkpt>
<trkpt lat="53.364598" lon="-1.772843"><ele>467</ele><time>2020-08-05T10:22:23Z</time><name>PT3404</name></trkpt>
<trkpt lat="53.364602" lon="-1.772831"><ele>467</ele><time>2020-08-05T10:22:24Z</time><name>PT3405</name></trkpt>
<trkpt lat="53.364606" lon="-1.772822"><ele>468</ele><time>2020-08-05T10:22:25Z</time><name>PT3406</name></trkpt>
<trkpt lat="53.364609" lon="-1.772814"><ele>468</ele><time>2020-08-05T10:22:26Z</time><name>PT3407</name></trkpt>
<trkpt lat="53.364615" lon="-1.772800"><ele>469</ele><time>2020-08-05T10:22:27Z</time><name>PT3408</name></trkpt>
<trkpt lat="53.364624" lon="-1.772790"><ele>469</ele><time>2020-08-05T10:22:28Z</time><name>PT3409</name></trkpt>
<trkpt lat="53.364629" lon="-1.772785"><ele>469</ele><time>2020-08-05T10:22:29Z</time><name>PT3410</name></trkpt>
<trkpt lat="53.364635" lon="-1.772777"><ele>469</ele><time>2020-08-05T10:22:30Z</time><name>PT3411</name></trkpt>
<trkpt lat="53.364640" lon="-1.772769"><ele>469</ele><time>2020-08-05T10:22:31Z</time><name>PT3412</name></trkpt>
<trkpt lat="53.364645" lon="-1.772757"><ele>469</ele><time>2020-08-05T10:22:32Z</time><name>PT3413</name></trkpt>
<trkpt lat="53.364652" lon="-1.772744"><ele>469</ele><time>2020-08-05T10:22:33Z</time><name>PT3414</name></trkpt>
<trkpt lat="53.364661" lon="-1.772729"><ele>469</ele><time>2020-08-05T10:22:34Z</time><name>PT3415</name></trkpt>
<trkpt lat="53.364665" lon="-1.772714"><ele>469</ele><time>2020-08-05T10:22:35Z</time><name>PT3416</name></trkpt>
<trkpt lat="53.364669" lon="-1.772699"><ele>469</ele><time>2020-08-05T10:22:36Z</time><name>PT3417</name></trkpt>
<trkpt lat="53.364674" lon="-1.772681"><ele>469</ele><time>2020-08-05T10:22:37Z</time><name>PT3418</name></trkpt>
<trkpt lat="53.364680" lon="-1.772664"><ele>470</ele><time>2020-08-05T10:22:38Z</time><name>PT3419</name></trkpt>
<trkpt lat="53.364686" lon="-1.772648"><ele>470</ele><time>2020-08-05T10:22:39Z</time><name>PT3420</name></trkpt>
<trkpt lat="53.364691" lon="-1.772633"><ele>471</ele><time>2020-08-05T10:22:40Z</time><name>PT3421</name></trkpt>
<trkpt lat="53.364696" lon="-1.772616"><ele>471</ele><time>2020-08-05T10:22:41Z</time><name>PT3422</name></trkpt>
<trkpt lat="53.364701" lon="-1.772603"><ele>471</ele><time>2020-08-05T10:22:42Z</time><name>PT3423</name></trkpt>
<trkpt lat="53.364706" lon="-1.772587"><ele>471</ele><time>2020-08-05T10:22:43Z</time><name>PT3424</name></trkpt>
<trkpt lat="53.364712" lon="-1.772572"><ele>471</ele><time>2020-08-05T10:22:44Z</time><name>PT3425</name></trkpt>
<trkpt lat="53.364718" lon="-1.772554"><ele>471</ele><time>2020-08-05T10:22:45Z</time><name>PT3426</name></trkpt>
<trkpt lat="53.364724" lon="-1.772541"><ele>471</ele><time>2020-08-05T10:22:46Z</time><name>PT3427</name></trkpt>
<trkpt lat="53.364729" lon="-1.772527"><ele>471</ele><time>2020-08-05T10:22:47Z</time><name>PT3428</name></trkpt>
<trkpt lat="53.364733" lon="-1.772515"><ele>471</ele><time>2020-08-05T10:22:48Z</time><name>PT3429</name></trkpt>
<trkpt lat="53.364737" lon="-1.772498"><ele>472</ele><time>2020-08-05T10:22:49Z</time><name>PT3430</name></trkpt>
<trkpt lat="53.364740" lon="-1.772480"><ele>472</ele><time>2020-08-05T10:22:50Z</time><name>PT3431</name></trkpt>
<trkpt lat="53.364745" lon="-1.772461"><ele>473</ele><time>2020-08-05T10:22:51Z</time><name>PT3432</name></trkpt>
<trkpt lat="53.364747" lon="-1.772443"><ele>473</ele><time>2020-08-05T10:22:52Z</time><name>PT3433</name></trkpt>
<trkpt lat="53.364748" lon="-1.772429"><ele>474</ele><time>2020-08-05T10:22:53Z</time><name>PT3434</name></trkpt>
<trkpt lat="53.364748" lon="-1.772415"><ele>474</ele><time>2020-08-05T10:22:54Z</time><name>PT3435</name></trkpt>
<trkpt lat="53.364747" lon="-1.772399"><ele>473</ele><time>2020-08-05T10:22:55Z</time><name>PT3436</name></trkpt>
<trkpt lat="53.364745" lon="-1.772381"><ele>473</ele><time>2020-08-05T10:22:56Z</time><name>PT3437</name></trkpt>
<trkpt lat="53.364747" lon="-1.772360"><ele>472</ele><time>2020-08-05T10:22:57Z</time><name>PT3438</name></trkpt>
<trkpt lat="53.364751" lon="-1.772340"><ele>472</ele><time>2020-08-05T10:22:58Z</time><name>PT3439</name></trkpt>
<trkpt lat="53.364753" lon="-1.772318"><ele>472</ele><time>2020-08-05T10:22:59Z</time><name>PT3440</name></trkpt>
<trkpt lat="53.364756" lon="-1.772298"><ele>472</ele><time>2020-08-05T10:23:00Z</time><name>PT3441</name></trkpt>
<trkpt lat="53.364759" lon="-1.772282"><ele>473</ele><time>2020-08-05T10:23:01Z</time><name>PT3442</name></trkpt>
<trkpt lat="53.364760" lon="-1.772267"><ele>473</ele><time>2020-08-05T10:23:02Z</time><name>PT3443</name></trkpt>
<trkpt lat="53.364765" lon="-1.772247"><ele>473</ele><time>2020-08-05T10:23:03Z</time><name>PT3444</name></trkpt>
<trkpt lat="53.364768" lon="-1.772229"><ele>473</ele><time>2020-08-05T10:23:04Z</time><name>PT3445</name></trkpt>
<trkpt lat="53.364769" lon="-1.772210"><ele>473</ele><time>2020-08-05T10:23:05Z</time><name>PT3446</name></trkpt>
<trkpt lat="53.364770" lon="-1.772189"><ele>473</ele><time>2020-08-05T10:23:06Z</time><name>PT3447</name></trkpt>
<trkpt lat="53.364773" lon="-1.772172"><ele>473</ele><time>2020-08-05T10:23:07Z</time><name>PT3448</name></trkpt>
<trkpt lat="53.364776" lon="-1.772156"><ele>473</ele><time>2020-08-05T10:23:08Z</time><name>PT3449</name></trkpt>
<trkpt lat="53.364776" lon="-1.772141"><ele>474</ele><time>2020-08-05T10:23:09Z</time><name>PT3450</name></trkpt>
<trkpt lat="53.364775" lon="-1.772125"><ele>474</ele><time>2020-08-05T10:23:10Z</time><name>PT3451</name></trkpt>
<trkpt lat="53.364774" lon="-1.772106"><ele>474</ele><time>2020-08-05T10:23:11Z</time><name>PT3452</name></trkpt>
<trkpt lat="53.364775" lon="-1.772089"><ele>474</ele><time>2020-08-05T10:23:12Z</time><name>PT3453</name></trkpt>
<trkpt lat="53.364775" lon="-1.772070"><ele>474</ele><time>2020-08-05T10:23:13Z</time><name>PT3454</name></trkpt>
<trkpt lat="53.364776" lon="-1.772052"><ele>474</ele><time>2020-08-05T10:23:14Z</time><name>PT3455</name></trkpt>
<trkpt lat="53.364774" lon="-1.772034"><ele>474</ele><time>2020-08-05T10:23:15Z</time><name>PT3456</name></trkpt>
<trkpt lat="53.364777" lon="-1.772020"><ele>474</ele><time>2020-08-05T10:23:16Z</time><name>PT3457</name></trkpt>
<trkpt lat="53.364779" lon="-1.772000"><ele>474</ele><time>2020-08-05T10:23:17Z</time><name>PT3458</name></trkpt>
<trkpt lat="53.364782" lon="-1.771980"><ele>475</ele><time>2020-08-05T10:23:18Z</time><name>PT3459</name></trkpt>
<trkpt lat="53.364784" lon="-1.771963"><ele>475</ele><time>2020-08-05T10:23:19Z</time><name>PT3460</name></trkpt>
<trkpt lat="53.364785" lon="-1.771943"><ele>476</ele><time>2020-08-05T10:23:20Z</time><name>PT3461</name></trkpt>
<trkpt lat="53.364789" lon="-1.771924"><ele>476</ele><time>2020-08-05T10:23:21Z</time><name>PT3462</name></trkpt>
<trkpt lat="53.364794" lon="-1.771911"><ele>476</ele><time>2020-08-05T10:23:22Z</time><name>PT3463</name></trkpt>
<trkpt lat="53.364796" lon="-1.771896"><ele>476</ele><time>2020-08-05T10:23:23Z</time><name>PT3464</name></trkpt>
<trkpt lat="53.364799" lon="-1.771875"><ele>476</ele><time>2020-08-05T10:23:24Z</time><name>PT3465</name></trkpt>
<trkpt lat="53.364801" lon="-1.771856"><ele>477</ele><time>2020-08-05T10:23:25Z</time><name>PT3466</name></trkpt>
<trkpt lat="53.364804" lon="-1.771833"><ele>477</ele><time>2020-08-05T10:23:26Z</time><name>PT3467</name></trkpt>
<trkpt lat="53.364808" lon="-1.771819"><ele>478</ele><time>2020-08-05T10:23:27Z</time><name>PT3468</name></trkpt>
<trkpt lat="53.364809" lon="-1.771802"><ele>478</ele><time>2020-08-05T10:23:28Z</time><name>PT3469</name></trkpt>
<trkpt lat="53.364810" lon="-1.771786"><ele>478</ele><time>2020-08-05T10:23:29Z</time><name>PT3470</name></trkpt>
<trkpt lat="53.364812" lon="-1.771770"><ele>478</ele><time>2020-08-05T10:23:30Z</time><name>PT3471</name></trkpt>
<trkpt lat="53.364813" lon="-1.771748"><ele>477</ele><time>2020-08-05T10:23:31Z</time><name>PT3472</name></trkpt>
<trkpt lat="53.364813" lon="-1.771724"><ele>477</ele><time>2020-08-05T10:23:32Z</time><name>PT3473</name></trkpt>
<trkpt lat="53.364812" lon="-1.771703"><ele>477</ele><time>2020-08-05T10:23:33Z</time><name>PT3474</name></trkpt>
<trkpt lat="53.364810" lon="-1.771676"><ele>477</ele><time>2020-08-05T10:23:34Z</time><name>PT3475</name></trkpt>
<trkpt lat="53.364811" lon="-1.771652"><ele>477</ele><time>2020-08-05T10:23:35Z</time><name>PT3476</name></trkpt>
<trkpt lat="53.364811" lon="-1.771630"><ele>477</ele><time>2020-08-05T10:23:36Z</time><name>PT3477</name></trkpt>
<trkpt lat="53.364811" lon="-1.771605"><ele>477</ele><time>2020-08-05T10:23:37Z</time><name>PT3478</name></trkpt>
<trkpt lat="53.364811" lon="-1.771584"><ele>477</ele><time>2020-08-05T10:23:38Z</time><name>PT3479</name></trkpt>
<trkpt lat="53.364811" lon="-1.771565"><ele>477</ele><time>2020-08-05T10:23:39Z</time><name>PT3480</name></trkpt>
<trkpt lat="53.364811" lon="-1.771540"><ele>477</ele><time>2020-08-05T10:23:40Z</time><name>PT3481</name></trkpt>
<trkpt lat="53.364815" lon="-1.771525"><ele>477</ele><time>2020-08-05T10:23:41Z</time><name>PT3482</name></trkpt>
<trkpt lat="53.364818" lon="-1.771505"><ele>477</ele><time>2020-08-05T10:23:42Z</time><name>PT3483</name></trkpt>
<trkpt lat="53.364823" lon="-1.771494"><ele>477</ele><time>2020-08-05T10:23:43Z</time><name>PT3484</name></trkpt>
<trkpt lat="53.364824" lon="-1.771484"><ele>477</ele><time>2020-08-05T10:23:44Z</time><name>PT3485</name></trkpt>
<trkpt lat="53.364825" lon="-1.771477"><ele>478</ele><time>2020-08-05T10:23:45Z</time><name>PT3486</name></trkpt>
<trkpt lat="53.364825" lon="-1.771474"><ele>477</ele><time>2020-08-05T10:23:46Z</time><name>PT3487</name></trkpt>
<trkpt lat="53.364824" lon="-1.771469"><ele>477</ele><time>2020-08-05T10:23:47Z</time><name>PT3488</name></trkpt>
<trkpt lat="53.364821" lon="-1.771466"><ele>477</ele><time>2020-08-05T10:23:48Z</time><name>PT3489</name></trkpt>
<trkpt lat="53.364822" lon="-1.771463"><ele>476</ele><time>2020-08-05T10:23:49Z</time><name>PT3490</name></trkpt>
<trkpt lat="53.364821" lon="-1.771464"><ele>476</ele><time>2020-08-05T10:23:50Z</time><name>PT3491</name></trkpt>
<trkpt lat="53.364821" lon="-1.771463"><ele>475</ele><time>2020-08-05T10:23:51Z</time><name>PT3492</name></trkpt>
<trkpt lat="53.364823" lon="-1.771461"><ele>476</ele><time>2020-08-05T10:23:52Z</time><name>PT3493</name></trkpt>
<trkpt lat="53.364823" lon="-1.771460"><ele>476</ele><time>2020-08-05T10:23:53Z</time><name>PT3494</name></trkpt>
<trkpt lat="53.364825" lon="-1.771446"><ele>476</ele><time>2020-08-05T10:24:04Z</time><name>PT3495</name></trkpt>
<trkpt lat="53.364831" lon="-1.771430"><ele>476</ele><time>2020-08-05T10:24:05Z</time><name>PT3496</name></trkpt>
<trkpt lat="53.364836" lon="-1.771410"><ele>476</ele><time>2020-08-05T10:24:06Z</time><name>PT3497</name></trkpt>
<trkpt lat="53.364841" lon="-1.771396"><ele>476</ele><time>2020-08-05T10:24:07Z</time><name>PT3498</name></trkpt>
<trkpt lat="53.364842" lon="-1.771385"><ele>476</ele><time>2020-08-05T10:24:08Z</time><name>PT3499</name></trkpt>
<trkpt lat="53.364840" lon="-1.771370"><ele>476</ele><time>2020-08-05T10:24:09Z</time><name>PT3500</name></trkpt>
<trkpt lat="53.364839" lon="-1.771348"><ele>476</ele><time>2020-08-05T10:24:10Z</time><name>PT3501</name></trkpt>
<trkpt lat="53.364832" lon="-1.771337"><ele>476</ele><time>2020-08-05T10:24:11Z</time><name>PT3502</name></trkpt>
<trkpt lat="53.364823" lon="-1.771333"><ele>475</ele><time>2020-08-05T10:24:12Z</time><name>PT3503</name></trkpt>
<trkpt lat="53.364818" lon="-1.771323"><ele>475</ele><time>2020-08-05T10:24:13Z</time><name>PT3504</name></trkpt>
<trkpt lat="53.364813" lon="-1.771315"><ele>475</ele><time>2020-08-05T10:24:14Z</time><name>PT3505</name></trkpt>
<trkpt lat="53.364806" lon="-1.771304"><ele>475</ele><time>2020-08-05T10:24:15Z</time><name>PT3506</name></trkpt>
<trkpt lat="53.364800" lon="-1.771293"><ele>475</ele><time>2020-08-05T10:24:16Z</time><name>PT3507</name></trkpt>
<trkpt lat="53.364792" lon="-1.771281"><ele>475</ele><time>2020-08-05T10:24:17Z</time><name>PT3508</name></trkpt>
<trkpt lat="53.364785" lon="-1.771265"><ele>475</ele><time>2020-08-05T10:24:18Z</time><name>PT3509</name></trkpt>
<trkpt lat="53.364780" lon="-1.771249"><ele>474</ele><time>2020-08-05T10:24:19Z</time><name>PT3510</name></trkpt>
<trkpt lat="53.364775" lon="-1.771231"><ele>474</ele><time>2020-08-05T10:24:20Z</time><name>PT3511</name></trkpt>
<trkpt lat="53.364772" lon="-1.771216"><ele>474</ele><time>2020-08-05T10:24:21Z</time><name>PT3512</name></trkpt>
<trkpt lat="53.364769" lon="-1.771205"><ele>474</ele><time>2020-08-05T10:24:22Z</time><name>PT3513</name></trkpt>
<trkpt lat="53.364764" lon="-1.771196"><ele>473</ele><time>2020-08-05T10:24:23Z</time><name>PT3514</name></trkpt>
<trkpt lat="53.364761" lon="-1.771183"><ele>473</ele><time>2020-08-05T10:24:24Z</time><name>PT3515</name></trkpt>
<trkpt lat="53.364758" lon="-1.771172"><ele>473</ele><time>2020-08-05T10:24:25Z</time><name>PT3516</name></trkpt>
<trkpt lat="53.364757" lon="-1.771162"><ele>473</ele><time>2020-08-05T10:24:26Z</time><name>PT3517</name></trkpt>
<trkpt lat="53.364753" lon="-1.771154"><ele>473</ele><time>2020-08-05T10:24:27Z</time><name>PT3518</name></trkpt>
<trkpt lat="53.364749" lon="-1.771149"><ele>473</ele><time>2020-08-05T10:24:28Z</time><name>PT3519</name></trkpt>
<trkpt lat="53.364746" lon="-1.771141"><ele>473</ele><time>2020-08-05T10:24:29Z</time><name>PT3520</name></trkpt>
<trkpt lat="53.364743" lon="-1.771132"><ele>472</ele><time>2020-08-05T10:24:30Z</time><name>PT3521</name></trkpt>
<trkpt lat="53.364741" lon="-1.771119"><ele>472</ele><time>2020-08-05T10:24:31Z</time><name>PT3522</name></trkpt>
<trkpt lat="53.364739" lon="-1.771098"><ele>472</ele><time>2020-08-05T10:24:32Z</time><name>PT3523</name></trkpt>
<trkpt lat="53.364735" lon="-1.771077"><ele>472</ele><time>2020-08-05T10:24:33Z</time><name>PT3524</name></trkpt>
<trkpt lat="53.364729" lon="-1.771059"><ele>472</ele><time>2020-08-05T10:24:34Z</time><name>PT3525</name></trkpt>
<trkpt lat="53.364722" lon="-1.771045"><ele>471</ele><time>2020-08-05T10:24:35Z</time><name>PT3526</name></trkpt>
<trkpt lat="53.364716" lon="-1.771030"><ele>471</ele><time>2020-08-05T10:24:36Z</time><name>PT3527</name></trkpt>
<trkpt lat="53.364712" lon="-1.771017"><ele>470</ele><time>2020-08-05T10:24:37Z</time><name>PT3528</name></trkpt>
<trkpt lat="53.364704" lon="-1.771002"><ele>470</ele><time>2020-08-05T10:24:38Z</time><name>PT3529</name></trkpt>
<trkpt lat="53.364698" lon="-1.770990"><ele>470</ele><time>2020-08-05T10:24:39Z</time><name>PT3530</name></trkpt>
<trkpt lat="53.364693" lon="-1.770974"><ele>470</ele><time>2020-08-05T10:24:40Z</time><name>PT3531</name></trkpt>
<trkpt lat="53.364686" lon="-1.770951"><ele>469</ele><time>2020-08-05T10:24:41Z</time><name>PT3532</name></trkpt>
<trkpt lat="53.364681" lon="-1.770934"><ele>469</ele><time>2020-08-05T10:24:42Z</time><name>PT3533</name></trkpt>
<trkpt lat="53.364676" lon="-1.770922"><ele>469</ele><time>2020-08-05T10:24:43Z</time><name>PT3534</name></trkpt>
<trkpt lat="53.364669" lon="-1.770907"><ele>469</ele><time>2020-08-05T10:24:44Z</time><name>PT3535</name></trkpt>
<trkpt lat="53.364661" lon="-1.770891"><ele>469</ele><time>2020-08-05T10:24:45Z</time><name>PT3536</name></trkpt>
<trkpt lat="53.364653" lon="-1.770876"><ele>469</ele><time>2020-08-05T10:24:46Z</time><name>PT3537</name></trkpt>
<trkpt lat="53.364646" lon="-1.770858"><ele>469</ele><time>2020-08-05T10:24:47Z</time><name>PT3538</name></trkpt>
<trkpt lat="53.364641" lon="-1.770844"><ele>469</ele><time>2020-08-05T10:24:48Z</time><name>PT3539</name></trkpt>
<trkpt lat="53.364639" lon="-1.770832"><ele>469</ele><time>2020-08-05T10:24:49Z</time><name>PT3540</name></trkpt>
<trkpt lat="53.364636" lon="-1.770821"><ele>469</ele><time>2020-08-05T10:24:50Z</time><name>PT3541</name></trkpt>
<trkpt lat="53.364633" lon="-1.770808"><ele>468</ele><time>2020-08-05T10:24:51Z</time><name>PT3542</name></trkpt>
<trkpt lat="53.364629" lon="-1.770792"><ele>468</ele><time>2020-08-05T10:24:52Z</time><name>PT3543</name></trkpt>
<trkpt lat="53.364625" lon="-1.770780"><ele>468</ele><time>2020-08-05T10:24:53Z</time><name>PT3544</name></trkpt>
<trkpt lat="53.364621" lon="-1.770760"><ele>469</ele><time>2020-08-05T10:24:54Z</time><name>PT3545</name></trkpt>
<trkpt lat="53.364613" lon="-1.770744"><ele>469</ele><time>2020-08-05T10:24:55Z</time><name>PT3546</name></trkpt>
<trkpt lat="53.364606" lon="-1.770728"><ele>469</ele><time>2020-08-05T10:24:56Z</time><name>PT3547</name></trkpt>
<trkpt lat="53.364599" lon="-1.770715"><ele>469</ele><time>2020-08-05T10:24:57Z</time><name>PT3548</name></trkpt>
<trkpt lat="53.364593" lon="-1.770701"><ele>469</ele><time>2020-08-05T10:24:58Z</time><name>PT3549</name></trkpt>
<trkpt lat="53.364587" lon="-1.770684"><ele>469</ele><time>2020-08-05T10:24:59Z</time><name>PT3550</name></trkpt>
<trkpt lat="53.364584" lon="-1.770671"><ele>469</ele><time>2020-08-05T10:25:00Z</time><name>PT3551</name></trkpt>
<trkpt lat="53.364578" lon="-1.770654"><ele>470</ele><time>2020-08-05T10:25:01Z</time><name>PT3552</name></trkpt>
<trkpt lat="53.364573" lon="-1.770638"><ele>470</ele><time>2020-08-05T10:25:02Z</time><name>PT3553</name></trkpt>
<trkpt lat="53.364566" lon="-1.770624"><ele>470</ele><time>2020-08-05T10:25:03Z</time><name>PT3554</name></trkpt>
<trkpt lat="53.364560" lon="-1.770609"><ele>469</ele><time>2020-08-05T10:25:04Z</time><name>PT3555</name></trkpt>
<trkpt lat="53.364555" lon="-1.770593"><ele>470</ele><time>2020-08-05T10:25:05Z</time><name>PT3556</name></trkpt>
<trkpt lat="53.364549" lon="-1.770575"><ele>469</ele><time>2020-08-05T10:25:06Z</time><name>PT3557</name></trkpt>
<trkpt lat="53.364542" lon="-1.770558"><ele>469</ele><time>2020-08-05T10:25:07Z</time><name>PT3558</name></trkpt>
<trkpt lat="53.364536" lon="-1.770543"><ele>469</ele><time>2020-08-05T10:25:08Z</time><name>PT3559</name></trkpt>
<trkpt lat="53.364530" lon="-1.770528"><ele>468</ele><time>2020-08-05T10:25:09Z</time><name>PT3560</name></trkpt>
<trkpt lat="53.364524" lon="-1.770514"><ele>468</ele><time>2020-08-05T10:25:10Z</time><name>PT3561</name></trkpt>
<trkpt lat="53.364522" lon="-1.770499"><ele>468</ele><time>2020-08-05T10:25:11Z</time><name>PT3562</name></trkpt>
<trkpt lat="53.364522" lon="-1.770485"><ele>467</ele><time>2020-08-05T10:25:12Z</time><name>PT3563</name></trkpt>
<trkpt lat="53.364519" lon="-1.770475"><ele>467</ele><time>2020-08-05T10:25:13Z</time><name>PT3564</name></trkpt>
<trkpt lat="53.364514" lon="-1.770462"><ele>467</ele><time>2020-08-05T10:25:14Z</time><name>PT3565</name></trkpt>
<trkpt lat="53.364509" lon="-1.770445"><ele>467</ele><time>2020-08-05T10:25:15Z</time><name>PT3566</name></trkpt>
<trkpt lat="53.364504" lon="-1.770430"><ele>467</ele><time>2020-08-05T10:25:16Z</time><name>PT3567</name></trkpt>
<trkpt lat="53.364502" lon="-1.770415"><ele>466</ele><time>2020-08-05T10:25:17Z</time><name>PT3568</name></trkpt>
<trkpt lat="53.364501" lon="-1.770395"><ele>467</ele><time>2020-08-05T10:25:18Z</time><name>PT3569</name></trkpt>
<trkpt lat="53.364498" lon="-1.770379"><ele>466</ele><time>2020-08-05T10:25:19Z</time><name>PT3570</name></trkpt>
<trkpt lat="53.364493" lon="-1.770364"><ele>466</ele><time>2020-08-05T10:25:20Z</time><name>PT3571</name></trkpt>
<trkpt lat="53.364489" lon="-1.770352"><ele>466</ele><time>2020-08-05T10:25:21Z</time><name>PT3572</name></trkpt>
<trkpt lat="53.364486" lon="-1.770341"><ele>466</ele><time>2020-08-05T10:25:22Z</time><name>PT3573</name></trkpt>
<trkpt lat="53.364483" lon="-1.770331"><ele>466</ele><time>2020-08-05T10:25:23Z</time><name>PT3574</name></trkpt>
<trkpt lat="53.364478" lon="-1.770314"><ele>466</ele><time>2020-08-05T10:25:24Z</time><name>PT3575</name></trkpt>
<trkpt lat="53.364474" lon="-1.770301"><ele>466</ele><time>2020-08-05T10:25:25Z</time><name>PT3576</name></trkpt>
<trkpt lat="53.364468" lon="-1.770286"><ele>465</ele><time>2020-08-05T10:25:26Z</time><name>PT3577</name></trkpt>
<trkpt lat="53.364461" lon="-1.770273"><ele>465</ele><time>2020-08-05T10:25:27Z</time><name>PT3578</name></trkpt>
<trkpt lat="53.364455" lon="-1.770261"><ele>465</ele><time>2020-08-05T10:25:28Z</time><name>PT3579</name></trkpt>
<trkpt lat="53.364451" lon="-1.770246"><ele>465</ele><time>2020-08-05T10:25:29Z</time><name>PT3580</name></trkpt>
<trkpt lat="53.364447" lon="-1.770233"><ele>465</ele><time>2020-08-05T10:25:30Z</time><name>PT3581</name></trkpt>
<trkpt lat="53.364444" lon="-1.770222"><ele>464</ele><time>2020-08-05T10:25:31Z</time><name>PT3582</name></trkpt>
<trkpt lat="53.364441" lon="-1.770212"><ele>464</ele><time>2020-08-05T10:25:32Z</time><name>PT3583</name></trkpt>
<trkpt lat="53.364438" lon="-1.770203"><ele>463</ele><time>2020-08-05T10:25:33Z</time><name>PT3584</name></trkpt>
<trkpt lat="53.364437" lon="-1.770193"><ele>463</ele><time>2020-08-05T10:25:34Z</time><name>PT3585</name></trkpt>
<trkpt lat="53.364431" lon="-1.770179"><ele>463</ele><time>2020-08-05T10:25:35Z</time><name>PT3586</name></trkpt>
<trkpt lat="53.364425" lon="-1.770165"><ele>463</ele><time>2020-08-05T10:25:36Z</time><name>PT3587</name></trkpt>
<trkpt lat="53.364421" lon="-1.770152"><ele>462</ele><time>2020-08-05T10:25:37Z</time><name>PT3588</name></trkpt>
<trkpt lat="53.364421" lon="-1.770149"><ele>461</ele><time>2020-08-05T10:25:38Z</time><name>PT3589</name></trkpt>
<trkpt lat="53.364415" lon="-1.770142"><ele>460</ele><time>2020-08-05T10:25:39Z</time><name>PT3590</name></trkpt>
<trkpt lat="53.364408" lon="-1.770132"><ele>460</ele><time>2020-08-05T10:25:40Z</time><name>PT3591</name></trkpt>
<trkpt lat="53.364402" lon="-1.770120"><ele>460</ele><time>2020-08-05T10:25:41Z</time><name>PT3592</name></trkpt>
<trkpt lat="53.364397" lon="-1.770109"><ele>459</ele><time>2020-08-05T10:25:42Z</time><name>PT3593</name></trkpt>
<trkpt lat="53.364391" lon="-1.770096"><ele>458</ele><time>2020-08-05T10:25:43Z</time><name>PT3594</name></trkpt>
<trkpt lat="53.364381" lon="-1.770083"><ele>458</ele><time>2020-08-05T10:25:44Z</time><name>PT3595</name></trkpt>
<trkpt lat="53.364370" lon="-1.770070"><ele>458</ele><time>2020-08-05T10:25:45Z</time><name>PT3596</name></trkpt>
<trkpt lat="53.364361" lon="-1.770059"><ele>458</ele><time>2020-08-05T10:25:46Z</time><name>PT3597</name></trkpt>
<trkpt lat="53.364352" lon="-1.770048"><ele>458</ele><time>2020-08-05T10:25:47Z</time><name>PT3598</name></trkpt>
<trkpt lat="53.364345" lon="-1.770040"><ele>458</ele><time>2020-08-05T10:25:48Z</time><name>PT3599</name></trkpt>
<trkpt lat="53.364339" lon="-1.770030"><ele>458</ele><time>2020-08-05T10:25:49Z</time><name>PT3600</name></trkpt>
<trkpt lat="53.364334" lon="-1.770023"><ele>457</ele><time>2020-08-05T10:25:50Z</time><name>PT3601</name></trkpt>
<trkpt lat="53.364328" lon="-1.770012"><ele>457</ele><time>2020-08-05T10:25:51Z</time><name>PT3602</name></trkpt>
<trkpt lat="53.364321" lon="-1.770003"><ele>457</ele><time>2020-08-05T10:25:52Z</time><name>PT3603</name></trkpt>
<trkpt lat="53.364315" lon="-1.769993"><ele>457</ele><time>2020-08-05T10:25:53Z</time><name>PT3604</name></trkpt>
<trkpt lat="53.364310" lon="-1.769986"><ele>457</ele><time>2020-08-05T10:25:54Z</time><name>PT3605</name></trkpt>
<trkpt lat="53.364303" lon="-1.769980"><ele>457</ele><time>2020-08-05T10:25:55Z</time><name>PT3606</name></trkpt>
<trkpt lat="53.364297" lon="-1.769976"><ele>457</ele><time>2020-08-05T10:25:56Z</time><name>PT3607</name></trkpt>
<trkpt lat="53.364290" lon="-1.769968"><ele>457</ele><time>2020-08-05T10:25:57Z</time><name>PT3608</name></trkpt>
<trkpt lat="53.364287" lon="-1.769963"><ele>456</ele><time>2020-08-05T10:25:58Z</time><name>PT3609</name></trkpt>
<trkpt lat="53.364282" lon="-1.769956"><ele>456</ele><time>2020-08-05T10:25:59Z</time><name>PT3610</name></trkpt>
<trkpt lat="53.364278" lon="-1.769951"><ele>456</ele><time>2020-08-05T10:26:00Z</time><name>PT3611</name></trkpt>
<trkpt lat="53.364272" lon="-1.769943"><ele>456</ele><time>2020-08-05T10:26:01Z</time><name>PT3612</name></trkpt>
<trkpt lat="53.364268" lon="-1.769940"><ele>455</ele><time>2020-08-05T10:26:02Z</time><name>PT3613</name></trkpt>
<trkpt lat="53.364261" lon="-1.769936"><ele>455</ele><time>2020-08-05T10:26:03Z</time><name>PT3614</name></trkpt>
<trkpt lat="53.364253" lon="-1.769931"><ele>455</ele><time>2020-08-05T10:26:04Z</time><name>PT3615</name></trkpt>
<trkpt lat="53.364247" lon="-1.769928"><ele>455</ele><time>2020-08-05T10:26:05Z</time><name>PT3616</name></trkpt>
<trkpt lat="53.364238" lon="-1.769923"><ele>454</ele><time>2020-08-05T10:26:06Z</time><name>PT3617</name></trkpt>
<trkpt lat="53.364232" lon="-1.769920"><ele>454</ele><time>2020-08-05T10:26:07Z</time><name>PT3618</name></trkpt>
<trkpt lat="53.364226" lon="-1.769916"><ele>453</ele><time>2020-08-05T10:26:08Z</time><name>PT3619</name></trkpt>
<trkpt lat="53.364219" lon="-1.769910"><ele>453</ele><time>2020-08-05T10:26:09Z</time><name>PT3620</name></trkpt>
<trkpt lat="53.364214" lon="-1.769904"><ele>453</ele><time>2020-08-05T10:26:10Z</time><name>PT3621</name></trkpt>
<trkpt lat="53.364210" lon="-1.769896"><ele>453</ele><time>2020-08-05T10:26:11Z</time><name>PT3622</name></trkpt>
<trkpt lat="53.364205" lon="-1.769889"><ele>453</ele><time>2020-08-05T10:26:12Z</time><name>PT3623</name></trkpt>
<trkpt lat="53.364201" lon="-1.769883"><ele>453</ele><time>2020-08-05T10:26:13Z</time><name>PT3624</name></trkpt>
<trkpt lat="53.364196" lon="-1.769879"><ele>453</ele><time>2020-08-05T10:26:14Z</time><name>PT3625</name></trkpt>
<trkpt lat="53.364189" lon="-1.769872"><ele>452</ele><time>2020-08-05T10:26:15Z</time><name>PT3626</name></trkpt>
<trkpt lat="53.364183" lon="-1.769864"><ele>452</ele><time>2020-08-05T10:26:16Z</time><name>PT3627</name></trkpt>
<trkpt lat="53.364178" lon="-1.769857"><ele>452</ele><time>2020-08-05T10:26:17Z</time><name>PT3628</name></trkpt>
<trkpt lat="53.364171" lon="-1.769850"><ele>452</ele><time>2020-08-05T10:26:18Z</time><name>PT3629</name></trkpt>
<trkpt lat="53.364165" lon="-1.769842"><ele>452</ele><time>2020-08-05T10:26:19Z</time><name>PT3630</name></trkpt>
<trkpt lat="53.364156" lon="-1.769835"><ele>451</ele><time>2020-08-05T10:26:20Z</time><name>PT3631</name></trkpt>
<trkpt lat="53.364148" lon="-1.769828"><ele>451</ele><time>2020-08-05T10:26:21Z</time><name>PT3632</name></trkpt>
<trkpt lat="53.364141" lon="-1.769822"><ele>451</ele><time>2020-08-05T10:26:22Z</time><name>PT3633</name></trkpt>
<trkpt lat="53.364135" lon="-1.769814"><ele>451</ele><time>2020-08-05T10:26:23Z</time><name>PT3634</name></trkpt>
<trkpt lat="53.364128" lon="-1.769807"><ele>451</ele><time>2020-08-05T10:26:24Z</time><name>PT3635</name></trkpt>
<trkpt lat="53.364120" lon="-1.769803"><ele>451</ele><time>2020-08-05T10:26:25Z</time><name>PT3636</name></trkpt>
<trkpt lat="53.364113" lon="-1.769798"><ele>451</ele><time>2020-08-05T10:26:26Z</time><name>PT3637</name></trkpt>
<trkpt lat="53.364107" lon="-1.769795"><ele>450</ele><time>2020-08-05T10:26:27Z</time><name>PT3638</name></trkpt>
<trkpt lat="53.364100" lon="-1.769794"><ele>450</ele><time>2020-08-05T10:26:28Z</time><name>PT3639</name></trkpt>
<trkpt lat="53.364093" lon="-1.769791"><ele>449</ele><time>2020-08-05T10:26:29Z</time><name>PT3640</name></trkpt>
<trkpt lat="53.364088" lon="-1.769787"><ele>449</ele><time>2020-08-05T10:26:30Z</time><name>PT3641</name></trkpt>
<trkpt lat="53.364081" lon="-1.769781"><ele>449</ele><time>2020-08-05T10:26:31Z</time><name>PT3642</name></trkpt>
<trkpt lat="53.364074" lon="-1.769780"><ele>448</ele><time>2020-08-05T10:26:32Z</time><name>PT3643</name></trkpt>
<trkpt lat="53.364069" lon="-1.769776"><ele>448</ele><time>2020-08-05T10:26:33Z</time><name>PT3644</name></trkpt>
<trkpt lat="53.364063" lon="-1.769771"><ele>448</ele><time>2020-08-05T10:26:34Z</time><name>PT3645</name></trkpt>
<trkpt lat="53.364055" lon="-1.769764"><ele>447</ele><time>2020-08-05T10:26:35Z</time><name>PT3646</name></trkpt>
<trkpt lat="53.364047" lon="-1.769755"><ele>447</ele><time>2020-08-05T10:26:36Z</time><name>PT3647</name></trkpt>
<trkpt lat="53.364042" lon="-1.769747"><ele>447</ele><time>2020-08-05T10:26:37Z</time><name>PT3648</name></trkpt>
<trkpt lat="53.364038" lon="-1.769739"><ele>447</ele><time>2020-08-05T10:26:38Z</time><name>PT3649</name></trkpt>
<trkpt lat="53.364033" lon="-1.769736"><ele>446</ele><time>2020-08-05T10:26:39Z</time><name>PT3650</name></trkpt>
<trkpt lat="53.364027" lon="-1.769733"><ele>446</ele><time>2020-08-05T10:26:40Z</time><name>PT3651</name></trkpt>
<trkpt lat="53.364022" lon="-1.769729"><ele>446</ele><time>2020-08-05T10:26:41Z</time><name>PT3652</name></trkpt>
<trkpt lat="53.364019" lon="-1.769723"><ele>446</ele><time>2020-08-05T10:26:42Z</time><name>PT3653</name></trkpt>
<trkpt lat="53.364013" lon="-1.769716"><ele>445</ele><time>2020-08-05T10:26:43Z</time><name>PT3654</name></trkpt>
<trkpt lat="53.364008" lon="-1.769709"><ele>445</ele><time>2020-08-05T10:26:44Z</time><name>PT3655</name></trkpt>
<trkpt lat="53.364005" lon="-1.769704"><ele>445</ele><time>2020-08-05T10:26:45Z</time><name>PT3656</name></trkpt>
<trkpt lat="53.364000" lon="-1.769699"><ele>445</ele><time>2020-08-05T10:26:46Z</time><name>PT3657</name></trkpt>
<trkpt lat="53.363995" lon="-1.769692"><ele>444</ele><time>2020-08-05T10:26:47Z</time><name>PT3658</name></trkpt>
<trkpt lat="53.363989" lon="-1.769680"><ele>444</ele><time>2020-08-05T10:26:48Z</time><name>PT3659</name></trkpt>
<trkpt lat="53.363983" lon="-1.769675"><ele>443</ele><time>2020-08-05T10:26:49Z</time><name>PT3660</name></trkpt>
<trkpt lat="53.363978" lon="-1.769666"><ele>443</ele><time>2020-08-05T10:26:50Z</time><name>PT3661</name></trkpt>
<trkpt lat="53.363972" lon="-1.769652"><ele>443</ele><time>2020-08-05T10:26:51Z</time><name>PT3662</name></trkpt>
<trkpt lat="53.363969" lon="-1.769637"><ele>443</ele><time>2020-08-05T10:26:52Z</time><name>PT3663</name></trkpt>
<trkpt lat="53.363963" lon="-1.769624"><ele>443</ele><time>2020-08-05T10:26:53Z</time><name>PT3664</name></trkpt>
<trkpt lat="53.363959" lon="-1.769615"><ele>443</ele><time>2020-08-05T10:26:54Z</time><name>PT3665</name></trkpt>
<trkpt lat="53.363955" lon="-1.769607"><ele>443</ele><time>2020-08-05T10:26:55Z</time><name>PT3666</name></trkpt>
<trkpt lat="53.363949" lon="-1.769602"><ele>443</ele><time>2020-08-05T10:26:56Z</time><name>PT3667</name></trkpt>
<trkpt lat="53.363940" lon="-1.769597"><ele>442</ele><time>2020-08-05T10:26:57Z</time><name>PT3668</name></trkpt>
<trkpt lat="53.363934" lon="-1.769592"><ele>442</ele><time>2020-08-05T10:26:58Z</time><name>PT3669</name></trkpt>
<trkpt lat="53.363931" lon="-1.769585"><ele>442</ele><time>2020-08-05T10:26:59Z</time><name>PT3670</name></trkpt>
<trkpt lat="53.363924" lon="-1.769579"><ele>442</ele><time>2020-08-05T10:27:00Z</time><name>PT3671</name></trkpt>
<trkpt lat="53.363920" lon="-1.769575"><ele>442</ele><time>2020-08-05T10:27:01Z</time><name>PT3672</name></trkpt>
<trkpt lat="53.363913" lon="-1.769565"><ele>441</ele><time>2020-08-05T10:27:02Z</time><name>PT3673</name></trkpt>
<trkpt lat="53.363905" lon="-1.769556"><ele>441</ele><time>2020-08-05T10:27:03Z</time><name>PT3674</name></trkpt>
<trkpt lat="53.363898" lon="-1.769549"><ele>441</ele><time>2020-08-05T10:27:04Z</time><name>PT3675</name></trkpt>
<trkpt lat="53.363894" lon="-1.769542"><ele>441</ele><time>2020-08-05T10:27:05Z</time><name>PT3676</name></trkpt>
<trkpt lat="53.363889" lon="-1.769533"><ele>441</ele><time>2020-08-05T10:27:06Z</time><name>PT3677</name></trkpt>
<trkpt lat="53.363885" lon="-1.769524"><ele>440</ele><time>2020-08-05T10:27:07Z</time><name>PT3678</name></trkpt>
<trkpt lat="53.363881" lon="-1.769517"><ele>440</ele><time>2020-08-05T10:27:08Z</time><name>PT3679</name></trkpt>
<trkpt lat="53.363878" lon="-1.769512"><ele>440</ele><time>2020-08-05T10:27:09Z</time><name>PT3680</name></trkpt>
<trkpt lat="53.363872" lon="-1.769505"><ele>440</ele><time>2020-08-05T10:27:10Z</time><name>PT3681</name></trkpt>
<trkpt lat="53.363864" lon="-1.769499"><ele>440</ele><time>2020-08-05T10:27:11Z</time><name>PT3682</name></trkpt>
<trkpt lat="53.363855" lon="-1.769495"><ele>440</ele><time>2020-08-05T10:27:12Z</time><name>PT3683</name></trkpt>
<trkpt lat="53.363851" lon="-1.769490"><ele>439</ele><time>2020-08-05T10:27:13Z</time><name>PT3684</name></trkpt>
<trkpt lat="53.363846" lon="-1.769481"><ele>439</ele><time>2020-08-05T10:27:14Z</time><name>PT3685</name></trkpt>
<trkpt lat="53.363840" lon="-1.769475"><ele>439</ele><time>2020-08-05T10:27:15Z</time><name>PT3686</name></trkpt>
<trkpt lat="53.363834" lon="-1.769466"><ele>439</ele><time>2020-08-05T10:27:16Z</time><name>PT3687</name></trkpt>
<trkpt lat="53.363828" lon="-1.769465"><ele>439</ele><time>2020-08-05T10:27:17Z</time><name>PT3688</name></trkpt>
<trkpt lat="53.363823" lon="-1.769457"><ele>439</ele><time>2020-08-05T10:27:18Z</time><name>PT3689</name></trkpt>
<trkpt lat="53.363815" lon="-1.769447"><ele>438</ele><time>2020-08-05T10:27:19Z</time><name>PT3690</name></trkpt>
<trkpt lat="53.363809" lon="-1.769438"><ele>438</ele><time>2020-08-05T10:27:20Z</time><name>PT3691</name></trkpt>
<trkpt lat="53.363805" lon="-1.769431"><ele>438</ele><time>2020-08-05T10:27:21Z</time><name>PT3692</name></trkpt>
<trkpt lat="53.363800" lon="-1.769424"><ele>438</ele><time>2020-08-05T10:27:22Z</time><name>PT3693</name></trkpt>
<trkpt lat="53.363795" lon="-1.769418"><ele>437</ele><time>2020-08-05T10:27:23Z</time><name>PT3694</name></trkpt>
<trkpt lat="53.363789" lon="-1.769411"><ele>437</ele><time>2020-08-05T10:27:24Z</time><name>PT3695</name></trkpt>
<trkpt lat="53.363783" lon="-1.769404"><ele>437</ele><time>2020-08-05T10:27:25Z</time><name>PT3696</name></trkpt>
<trkpt lat="53.363779" lon="-1.769393"><ele>437</ele><time>2020-08-05T10:27:26Z</time><name>PT3697</name></trkpt>
<trkpt lat="53.363774" lon="-1.769385"><ele>436</ele><time>2020-08-05T10:27:27Z</time><name>PT3698</name></trkpt>
<trkpt lat="53.363768" lon="-1.769377"><ele>436</ele><time>2020-08-05T10:27:28Z</time><name>PT3699</name></trkpt>
<trkpt lat="53.363763" lon="-1.769372"><ele>436</ele><time>2020-08-05T10:27:29Z</time><name>PT3700</name></trkpt>
<trkpt lat="53.363758" lon="-1.769369"><ele>435</ele><time>2020-08-05T10:27:30Z</time><name>PT3701</name></trkpt>
<trkpt lat="53.363751" lon="-1.769362"><ele>435</ele><time>2020-08-05T10:27:31Z</time><name>PT3702</name></trkpt>
<trkpt lat="53.363744" lon="-1.769354"><ele>435</ele><time>2020-08-05T10:27:32Z</time><name>PT3703</name></trkpt>
<trkpt lat="53.363740" lon="-1.769345"><ele>435</ele><time>2020-08-05T10:27:33Z</time><name>PT3704</name></trkpt>
<trkpt lat="53.363736" lon="-1.769335"><ele>435</ele><time>2020-08-05T10:27:34Z</time><name>PT3705</name></trkpt>
<trkpt lat="53.363729" lon="-1.769325"><ele>434</ele><time>2020-08-05T10:27:35Z</time><name>PT3706</name></trkpt>
<trkpt lat="53.363722" lon="-1.769315"><ele>434</ele><time>2020-08-05T10:27:36Z</time><name>PT3707</name></trkpt>
<trkpt lat="53.363715" lon="-1.769309"><ele>434</ele><time>2020-08-05T10:27:37Z</time><name>PT3708</name></trkpt>
<trkpt lat="53.363708" lon="-1.769303"><ele>434</ele><time>2020-08-05T10:27:38Z</time><name>PT3709</name></trkpt>
<trkpt lat="53.363701" lon="-1.769295"><ele>433</ele><time>2020-08-05T10:27:39Z</time><name>PT3710</name></trkpt>
<trkpt lat="53.363695" lon="-1.769287"><ele>433</ele><time>2020-08-05T10:27:40Z</time><name>PT3711</name></trkpt>
<trkpt lat="53.363691" lon="-1.769277"><ele>433</ele><time>2020-08-05T10:27:41Z</time><name>PT3712</name></trkpt>
<trkpt lat="53.363686" lon="-1.769271"><ele>432</ele><time>2020-08-05T10:27:42Z</time><name>PT3713</name></trkpt>
<trkpt lat="53.363676" lon="-1.769260"><ele>432</ele><time>2020-08-05T10:27:43Z</time><name>PT3714</name></trkpt>
<trkpt lat="53.363669" lon="-1.769251"><ele>431</ele><time>2020-08-05T10:27:44Z</time><name>PT3715</name></trkpt>
<trkpt lat="53.363662" lon="-1.769237"><ele>431</ele><time>2020-08-05T10:27:45Z</time><name>PT3716</name></trkpt>
<trkpt lat="53.363654" lon="-1.769226"><ele>431</ele><time>2020-08-05T10:27:46Z</time><name>PT3717</name></trkpt>
<trkpt lat="53.363647" lon="-1.769219"><ele>431</ele><time>2020-08-05T10:27:47Z</time><name>PT3718</name></trkpt>
<trkpt lat="53.363639" lon="-1.769217"><ele>430</ele><time>2020-08-05T10:27:48Z</time><name>PT3719</name></trkpt>
<trkpt lat="53.363633" lon="-1.769215"><ele>430</ele><time>2020-08-05T10:27:49Z</time><name>PT3720</name></trkpt>
<trkpt lat="53.363629" lon="-1.769212"><ele>430</ele><time>2020-08-05T10:27:50Z</time><name>PT3721</name></trkpt>
<trkpt lat="53.363625" lon="-1.769206"><ele>430</ele><time>2020-08-05T10:27:51Z</time><name>PT3722</name></trkpt>
<trkpt lat="53.363618" lon="-1.769203"><ele>429</ele><time>2020-08-05T10:27:52Z</time><name>PT3723</name></trkpt>
<trkpt lat="53.363610" lon="-1.769200"><ele>429</ele><time>2020-08-05T10:27:53Z</time><name>PT3724</name></trkpt>
<trkpt lat="53.363607" lon="-1.769196"><ele>429</ele><time>2020-08-05T10:27:54Z</time><name>PT3725</name></trkpt>
<trkpt lat="53.363603" lon="-1.769192"><ele>429</ele><time>2020-08-05T10:27:55Z</time><name>PT3726</name></trkpt>
<trkpt lat="53.363597" lon="-1.769187"><ele>429</ele><time>2020-08-05T10:27:56Z</time><name>PT3727</name></trkpt>
<trkpt lat="53.363590" lon="-1.769183"><ele>429</ele><time>2020-08-05T10:27:57Z</time><name>PT3728</name></trkpt>
<trkpt lat="53.363582" lon="-1.769183"><ele>428</ele><time>2020-08-05T10:27:58Z</time><name>PT3729</name></trkpt>
<trkpt lat="53.363575" lon="-1.769180"><ele>428</ele><time>2020-08-05T10:27:59Z</time><name>PT3730</name></trkpt>
<trkpt lat="53.363567" lon="-1.769179"><ele>428</ele><time>2020-08-05T10:28:00Z</time><name>PT3731</name></trkpt>
<trkpt lat="53.363560" lon="-1.769177"><ele>428</ele><time>2020-08-05T10:28:01Z</time><name>PT3732</name></trkpt>
<trkpt lat="53.363552" lon="-1.769177"><ele>428</ele><time>2020-08-05T10:28:02Z</time><name>PT3733</name></trkpt>
<trkpt lat="53.363544" lon="-1.769172"><ele>427</ele><time>2020-08-05T10:28:03Z</time><name>PT3734</name></trkpt>
<trkpt lat="53.363535" lon="-1.769165"><ele>427</ele><time>2020-08-05T10:28:04Z</time><name>PT3735</name></trkpt>
<trkpt lat="53.363528" lon="-1.769160"><ele>427</ele><time>2020-08-05T10:28:05Z</time><name>PT3736</name></trkpt>
<trkpt lat="53.363523" lon="-1.769155"><ele>426</ele><time>2020-08-05T10:28:06Z</time><name>PT3737</name></trkpt>
<trkpt lat="53.363516" lon="-1.769150"><ele>426</ele><time>2020-08-05T10:28:07Z</time><name>PT3738</name></trkpt>
<trkpt lat="53.363510" lon="-1.769149"><ele>426</ele><time>2020-08-05T10:28:08Z</time><name>PT3739</name></trkpt>
<trkpt lat="53.363505" lon="-1.769147"><ele>426</ele><time>2020-08-05T10:28:09Z</time><name>PT3740</name></trkpt>
<trkpt lat="53.363498" lon="-1.769146"><ele>426</ele><time>2020-08-05T10:28:10Z</time><name>PT3741</name></trkpt>
<trkpt lat="53.363492" lon="-1.769146"><ele>425</ele><time>2020-08-05T10:28:11Z</time><name>PT3742</name></trkpt>
<trkpt lat="53.363485" lon="-1.769143"><ele>425</ele><time>2020-08-05T10:28:12Z</time><name>PT3743</name></trkpt>
<trkpt lat="53.363479" lon="-1.769140"><ele>425</ele><time>2020-08-05T10:28:13Z</time><name>PT3744</name></trkpt>
<trkpt lat="53.363472" lon="-1.769139"><ele>425</ele><time>2020-08-05T10:28:14Z</time><name>PT3745</name></trkpt>
<trkpt lat="53.363463" lon="-1.769143"><ele>424</ele><time>2020-08-05T10:28:15Z</time><name>PT3746</name></trkpt>
<trkpt lat="53.363451" lon="-1.769145"><ele>424</ele><time>2020-08-05T10:28:16Z</time><name>PT3747</name></trkpt>
<trkpt lat="53.363441" lon="-1.769147"><ele>424</ele><time>2020-08-05T10:28:17Z</time><name>PT3748</name></trkpt>
<trkpt lat="53.363433" lon="-1.769148"><ele>424</ele><time>2020-08-05T10:28:18Z</time><name>PT3749</name></trkpt>
<trkpt lat="53.363425" lon="-1.769147"><ele>424</ele><time>2020-08-05T10:28:19Z</time><name>PT3750</name></trkpt>
<trkpt lat="53.363419" lon="-1.769148"><ele>424</ele><time>2020-08-05T10:28:20Z</time><name>PT3751</name></trkpt>
<trkpt lat="53.363413" lon="-1.769149"><ele>423</ele><time>2020-08-05T10:28:21Z</time><name>PT3752</name></trkpt>
<trkpt lat="53.363404" lon="-1.769150"><ele>423</ele><time>2020-08-05T10:28:22Z</time><name>PT3753</name></trkpt>
<trkpt lat="53.363398" lon="-1.769151"><ele>422</ele><time>2020-08-05T10:28:23Z</time><name>PT3754</name></trkpt>
<trkpt lat="53.363392" lon="-1.769152"><ele>423</ele><time>2020-08-05T10:28:24Z</time><name>PT3755</name></trkpt>
<trkpt lat="53.363384" lon="-1.769154"><ele>422</ele><time>2020-08-05T10:28:25Z</time><name>PT3756</name></trkpt>
<trkpt lat="53.363376" lon="-1.769153"><ele>421</ele><time>2020-08-05T10:28:26Z</time><name>PT3757</name></trkpt>
<trkpt lat="53.363367" lon="-1.769152"><ele>422</ele><time>2020-08-05T10:28:27Z</time><name>PT3758</name></trkpt>
<trkpt lat="53.363358" lon="-1.769153"><ele>422</ele><time>2020-08-05T10:28:28Z</time><name>PT3759</name></trkpt>
<trkpt lat="53.363350" lon="-1.769153"><ele>422</ele><time>2020-08-05T10:28:29Z</time><name>PT3760</name></trkpt>
<trkpt lat="53.363342" lon="-1.769153"><ele>421</ele><time>2020-08-05T10:28:30Z</time><name>PT3761</name></trkpt>
<trkpt lat="53.363335" lon="-1.769152"><ele>421</ele><time>2020-08-05T10:28:31Z</time><name>PT3762</name></trkpt>
<trkpt lat="53.363328" lon="-1.769155"><ele>421</ele><time>2020-08-05T10:28:32Z</time><name>PT3763</name></trkpt>
<trkpt lat="53.363322" lon="-1.769158"><ele>421</ele><time>2020-08-05T10:28:33Z</time><name>PT3764</name></trkpt>
<trkpt lat="53.363314" lon="-1.769160"><ele>421</ele><time>2020-08-05T10:28:34Z</time><name>PT3765</name></trkpt>
<trkpt lat="53.363306" lon="-1.769161"><ele>421</ele><time>2020-08-05T10:28:35Z</time><name>PT3766</name></trkpt>
<trkpt lat="53.363297" lon="-1.769161"><ele>420</ele><time>2020-08-05T10:28:36Z</time><name>PT3767</name></trkpt>
<trkpt lat="53.363289" lon="-1.769157"><ele>420</ele><time>2020-08-05T10:28:37Z</time><name>PT3768</name></trkpt>
<trkpt lat="53.363282" lon="-1.769153"><ele>420</ele><time>2020-08-05T10:28:38Z</time><name>PT3769</name></trkpt>
<trkpt lat="53.363273" lon="-1.769153"><ele>420</ele><time>2020-08-05T10:28:39Z</time><name>PT3770</name></trkpt>
<trkpt lat="53.363265" lon="-1.769156"><ele>420</ele><time>2020-08-05T10:28:40Z</time><name>PT3771</name></trkpt>
<trkpt lat="53.363256" lon="-1.769160"><ele>419</ele><time>2020-08-05T10:28:41Z</time><name>PT3772</name></trkpt>
<trkpt lat="53.363252" lon="-1.769162"><ele>419</ele><time>2020-08-05T10:28:42Z</time><name>PT3773</name></trkpt>
<trkpt lat="53.363249" lon="-1.769160"><ele>418</ele><time>2020-08-05T10:28:43Z</time><name>PT3774</name></trkpt>
<trkpt lat="53.363245" lon="-1.769160"><ele>418</ele><time>2020-08-05T10:28:44Z</time><name>PT3775</name></trkpt>
<trkpt lat="53.363243" lon="-1.769159"><ele>418</ele><time>2020-08-05T10:28:45Z</time><name>PT3776</name></trkpt>
<trkpt lat="53.363240" lon="-1.769156"><ele>418</ele><time>2020-08-05T10:28:46Z</time><name>PT3777</name></trkpt>
<trkpt lat="53.363236" lon="-1.769146"><ele>418</ele><time>2020-08-05T10:28:51Z</time><name>PT3778</name></trkpt>
<trkpt lat="53.363223" lon="-1.769136"><ele>418</ele><time>2020-08-05T10:28:52Z</time><name>PT3779</name></trkpt>
<trkpt lat="53.363212" lon="-1.769134"><ele>417</ele><time>2020-08-05T10:28:53Z</time><name>PT3780</name></trkpt>
<trkpt lat="53.363202" lon="-1.769134"><ele>417</ele><time>2020-08-05T10:28:54Z</time><name>PT3781</name></trkpt>
<trkpt lat="53.363193" lon="-1.769131"><ele>417</ele><time>2020-08-05T10:28:55Z</time><name>PT3782</name></trkpt>
<trkpt lat="53.363184" lon="-1.769128"><ele>417</ele><time>2020-08-05T10:28:56Z</time><name>PT3783</name></trkpt>
<trkpt lat="53.363174" lon="-1.769123"><ele>416</ele><time>2020-08-05T10:28:57Z</time><name>PT3784</name></trkpt>
<trkpt lat="53.363167" lon="-1.769122"><ele>416</ele><time>2020-08-05T10:28:58Z</time><name>PT3785</name></trkpt>
<trkpt lat="53.363161" lon="-1.769120"><ele>416</ele><time>2020-08-05T10:28:59Z</time><name>PT3786</name></trkpt>
<trkpt lat="53.363156" lon="-1.769118"><ele>416</ele><time>2020-08-05T10:29:00Z</time><name>PT3787</name></trkpt>
<trkpt lat="53.363152" lon="-1.769115"><ele>416</ele><time>2020-08-05T10:29:01Z</time><name>PT3788</name></trkpt>
<trkpt lat="53.363146" lon="-1.769112"><ele>415</ele><time>2020-08-05T10:29:02Z</time><name>PT3789</name></trkpt>
<trkpt lat="53.363140" lon="-1.769107"><ele>415</ele><time>2020-08-05T10:29:03Z</time><name>PT3790</name></trkpt>
<trkpt lat="53.363132" lon="-1.769101"><ele>415</ele><time>2020-08-05T10:29:04Z</time><name>PT3791</name></trkpt>
<trkpt lat="53.363123" lon="-1.769096"><ele>414</ele><time>2020-08-05T10:29:05Z</time><name>PT3792</name></trkpt>
<trkpt lat="53.363114" lon="-1.769094"><ele>414</ele><time>2020-08-05T10:29:06Z</time><name>PT3793</name></trkpt>
<trkpt lat="53.363104" lon="-1.769089"><ele>414</ele><time>2020-08-05T10:29:07Z</time><name>PT3794</name></trkpt>
<trkpt lat="53.363093" lon="-1.769087"><ele>414</ele><time>2020-08-05T10:29:08Z</time><name>PT3795</name></trkpt>
<trkpt lat="53.363084" lon="-1.769088"><ele>414</ele><time>2020-08-05T10:29:09Z</time><name>PT3796</name></trkpt>
<trkpt lat="53.363072" lon="-1.769089"><ele>414</ele><time>2020-08-05T10:29:10Z</time><name>PT3797</name></trkpt>
<trkpt lat="53.363062" lon="-1.769085"><ele>414</ele><time>2020-08-05T10:29:11Z</time><name>PT3798</name></trkpt>
<trkpt lat="53.363052" lon="-1.769076"><ele>414</ele><time>2020-08-05T10:29:12Z</time><name>PT3799</name></trkpt>
<trkpt lat="53.363041" lon="-1.769067"><ele>414</ele><time>2020-08-05T10:29:13Z</time><name>PT3800</name></trkpt>
<trkpt lat="53.363030" lon="-1.769059"><ele>414</ele><time>2020-08-05T10:29:14Z</time><name>PT3801</name></trkpt>
<trkpt lat="53.363018" lon="-1.769054"><ele>414</ele><time>2020-08-05T10:29:15Z</time><name>PT3802</name></trkpt>
<trkpt lat="53.363006" lon="-1.769049"><ele>414</ele><time>2020-08-05T10:29:16Z</time><name>PT3803</name></trkpt>
<trkpt lat="53.362993" lon="-1.769047"><ele>414</ele><time>2020-08-05T10:29:17Z</time><name>PT3804</name></trkpt>
<trkpt lat="53.362980" lon="-1.769045"><ele>413</ele><time>2020-08-05T10:29:18Z</time><name>PT3805</name></trkpt>
<trkpt lat="53.362968" lon="-1.769043"><ele>413</ele><time>2020-08-05T10:29:19Z</time><name>PT3806</name></trkpt>
<trkpt lat="53.362955" lon="-1.769039"><ele>413</ele><time>2020-08-05T10:29:20Z</time><name>PT3807</name></trkpt>
<trkpt lat="53.362943" lon="-1.769035"><ele>413</ele><time>2020-08-05T10:29:21Z</time><name>PT3808</name></trkpt>
<trkpt lat="53.362930" lon="-1.769029"><ele>412</ele><time>2020-08-05T10:29:22Z</time><name>PT3809</name></trkpt>
<trkpt lat="53.362918" lon="-1.769027"><ele>412</ele><time>2020-08-05T10:29:23Z</time><name>PT3810</name></trkpt>
<trkpt lat="53.362906" lon="-1.769025"><ele>412</ele><time>2020-08-05T10:29:24Z</time><name>PT3811</name></trkpt>
<trkpt lat="53.362893" lon="-1.769021"><ele>412</ele><time>2020-08-05T10:29:25Z</time><name>PT3812</name></trkpt>
<trkpt lat="53.362881" lon="-1.769013"><ele>411</ele><time>2020-08-05T10:29:26Z</time><name>PT3813</name></trkpt>
<trkpt lat="53.362870" lon="-1.769006"><ele>411</ele><time>2020-08-05T10:29:27Z</time><name>PT3814</name></trkpt>
<trkpt lat="53.362860" lon="-1.768997"><ele>411</ele><time>2020-08-05T10:29:28Z</time><name>PT3815</name></trkpt>
<trkpt lat="53.362849" lon="-1.768989"><ele>410</ele><time>2020-08-05T10:29:29Z</time><name>PT3816</name></trkpt>
<trkpt lat="53.362836" lon="-1.768982"><ele>410</ele><time>2020-08-05T10:29:30Z</time><name>PT3817</name></trkpt>
<trkpt lat="53.362825" lon="-1.768976"><ele>410</ele><time>2020-08-05T10:29:31Z</time><name>PT3818</name></trkpt>
<trkpt lat="53.362814" lon="-1.768972"><ele>409</ele><time>2020-08-05T10:29:32Z</time><name>PT3819</name></trkpt>
<trkpt lat="53.362804" lon="-1.768968"><ele>409</ele><time>2020-08-05T10:29:33Z</time><name>PT3820</name></trkpt>
<trkpt lat="53.362793" lon="-1.768958"><ele>409</ele><time>2020-08-05T10:29:34Z</time><name>PT3821</name></trkpt>
<trkpt lat="53.362783" lon="-1.768949"><ele>408</ele><time>2020-08-05T10:29:35Z</time><name>PT3822</name></trkpt>
<trkpt lat="53.362773" lon="-1.768939"><ele>408</ele><time>2020-08-05T10:29:36Z</time><name>PT3823</name></trkpt>
<trkpt lat="53.362764" lon="-1.768934"><ele>408</ele><time>2020-08-05T10:29:37Z</time><name>PT3824</name></trkpt>
<trkpt lat="53.362753" lon="-1.768930"><ele>408</ele><time>2020-08-05T10:29:38Z</time><name>PT3825</name></trkpt>
<trkpt lat="53.362741" lon="-1.768931"><ele>408</ele><time>2020-08-05T10:29:39Z</time><name>PT3826</name></trkpt>
<trkpt lat="53.362726" lon="-1.768930"><ele>408</ele><time>2020-08-05T10:29:40Z</time><name>PT3827</name></trkpt>
<trkpt lat="53.362715" lon="-1.768930"><ele>408</ele><time>2020-08-05T10:29:41Z</time><name>PT3828</name></trkpt>
<trkpt lat="53.362703" lon="-1.768933"><ele>408</ele><time>2020-08-05T10:29:42Z</time><name>PT3829</name></trkpt>
<trkpt lat="53.362696" lon="-1.768931"><ele>408</ele><time>2020-08-05T10:29:43Z</time><name>PT3830</name></trkpt>
<trkpt lat="53.362691" lon="-1.768930"><ele>408</ele><time>2020-08-05T10:29:44Z</time><name>PT3831</name></trkpt>
<trkpt lat="53.362688" lon="-1.768926"><ele>408</ele><time>2020-08-05T10:29:45Z</time><name>PT3832</name></trkpt>
<trkpt lat="53.362684" lon="-1.768922"><ele>408</ele><time>2020-08-05T10:29:46Z</time><name>PT3833</name></trkpt>
<trkpt lat="53.362682" lon="-1.768921"><ele>408</ele><time>2020-08-05T10:29:47Z</time><name>PT3834</name></trkpt>
<trkpt lat="53.362681" lon="-1.768921"><ele>408</ele><time>2020-08-05T10:29:48Z</time><name>PT3835</name></trkpt>
<trkpt lat="53.362677" lon="-1.768919"><ele>409</ele><time>2020-08-05T10:29:49Z</time><name>PT3836</name></trkpt>
<trkpt lat="53.362673" lon="-1.768917"><ele>409</ele><time>2020-08-05T10:29:50Z</time><name>PT3837</name></trkpt>
<trkpt lat="53.362670" lon="-1.768916"><ele>409</ele><time>2020-08-05T10:29:51Z</time><name>PT3838</name></trkpt>
<trkpt lat="53.362666" lon="-1.768915"><ele>409</ele><time>2020-08-05T10:29:52Z</time><name>PT3839</name></trkpt>
<trkpt lat="53.362659" lon="-1.768910"><ele>408</ele><time>2020-08-05T10:29:53Z</time><name>PT3840</name></trkpt>
<trkpt lat="53.362650" lon="-1.768901"><ele>408</ele><time>2020-08-05T10:29:54Z</time><name>PT3841</name></trkpt>
<trkpt lat="53.362638" lon="-1.768892"><ele>407</ele><time>2020-08-05T10:29:55Z</time><name>PT3842</name></trkpt>
<trkpt lat="53.362626" lon="-1.768875"><ele>406</ele><time>2020-08-05T10:29:56Z</time><name>PT3843</name></trkpt>
<trkpt lat="53.362617" lon="-1.768856"><ele>406</ele><time>2020-08-05T10:29:57Z</time><name>PT3844</name></trkpt>
<trkpt lat="53.362610" lon="-1.768835"><ele>407</ele><time>2020-08-05T10:29:58Z</time><name>PT3845</name></trkpt>
<trkpt lat="53.362603" lon="-1.768816"><ele>407</ele><time>2020-08-05T10:29:59Z</time><name>PT3846</name></trkpt>
<trkpt lat="53.362592" lon="-1.768799"><ele>406</ele><time>2020-08-05T10:30:00Z</time><name>PT3847</name></trkpt>
<trkpt lat="53.362584" lon="-1.768780"><ele>406</ele><time>2020-08-05T10:30:01Z</time><name>PT3848</name></trkpt>
<trkpt lat="53.362577" lon="-1.768763"><ele>406</ele><time>2020-08-05T10:30:02Z</time><name>PT3849</name></trkpt>
<trkpt lat="53.362568" lon="-1.768747"><ele>406</ele><time>2020-08-05T10:30:03Z</time><name>PT3850</name></trkpt>
<trkpt lat="53.362558" lon="-1.768731"><ele>405</ele><time>2020-08-05T10:30:04Z</time><name>PT3851</name></trkpt>
<trkpt lat="53.362547" lon="-1.768716"><ele>405</ele><time>2020-08-05T10:30:05Z</time><name>PT3852</name></trkpt>
<trkpt lat="53.362539" lon="-1.768702"><ele>405</ele><time>2020-08-05T10:30:06Z</time><name>PT3853</name></trkpt>
<trkpt lat="53.362532" lon="-1.768689"><ele>404</ele><time>2020-08-05T10:30:07Z</time><name>PT3854</name></trkpt>
<trkpt lat="53.362524" lon="-1.768675"><ele>404</ele><time>2020-08-05T10:30:08Z</time><name>PT3855</name></trkpt>
<trkpt lat="53.362516" lon="-1.768659"><ele>404</ele><time>2020-08-05T10:30:09Z</time><name>PT3856</name></trkpt>
<trkpt lat="53.362505" lon="-1.768645"><ele>403</ele><time>2020-08-05T10:30:10Z</time><name>PT3857</name></trkpt>
<trkpt lat="53.362495" lon="-1.768631"><ele>403</ele><time>2020-08-05T10:30:11Z</time><name>PT3858</name></trkpt>
<trkpt lat="53.362488" lon="-1.768620"><ele>403</ele><time>2020-08-05T10:30:12Z</time><name>PT3859</name></trkpt>
<trkpt lat="53.362480" lon="-1.768608"><ele>403</ele><time>2020-08-05T10:30:13Z</time><name>PT3860</name></trkpt>
<trkpt lat="53.362476" lon="-1.768599"><ele>402</ele><time>2020-08-05T10:30:14Z</time><name>PT3861</name></trkpt>
<trkpt lat="53.362466" lon="-1.768586"><ele>402</ele><time>2020-08-05T10:30:15Z</time><name>PT3862</name></trkpt>
<trkpt lat="53.362454" lon="-1.768575"><ele>402</ele><time>2020-08-05T10:30:16Z</time><name>PT3863</name></trkpt>
<trkpt lat="53.362447" lon="-1.768568"><ele>401</ele><time>2020-08-05T10:30:17Z</time><name>PT3864</name></trkpt>
<trkpt lat="53.362441" lon="-1.768554"><ele>401</ele><time>2020-08-05T10:30:18Z</time><name>PT3865</name></trkpt>
<trkpt lat="53.362433" lon="-1.768543"><ele>401</ele><time>2020-08-05T10:30:19Z</time><name>PT3866</name></trkpt>
<trkpt lat="53.362423" lon="-1.768535"><ele>401</ele><time>2020-08-05T10:30:20Z</time><name>PT3867</name></trkpt>
<trkpt lat="53.362410" lon="-1.768525"><ele>400</ele><time>2020-08-05T10:30:21Z</time><name>PT3868</name></trkpt>
<trkpt lat="53.362399" lon="-1.768511"><ele>400</ele><time>2020-08-05T10:30:22Z</time><name>PT3869</name></trkpt>
<trkpt lat="53.362388" lon="-1.768497"><ele>400</ele><time>2020-08-05T10:30:23Z</time><name>PT3870</name></trkpt>
<trkpt lat="53.362379" lon="-1.768484"><ele>400</ele><time>2020-08-05T10:30:24Z</time><name>PT3871</name></trkpt>
<trkpt lat="53.362368" lon="-1.768474"><ele>400</ele><time>2020-08-05T10:30:25Z</time><name>PT3872</name></trkpt>
<trkpt lat="53.362359" lon="-1.768464"><ele>400</ele><time>2020-08-05T10:30:26Z</time><name>PT3873</name></trkpt>
<trkpt lat="53.362351" lon="-1.768453"><ele>400</ele><time>2020-08-05T10:30:27Z</time><name>PT3874</name></trkpt>
<trkpt lat="53.362341" lon="-1.768443"><ele>399</ele><time>2020-08-05T10:30:28Z</time><name>PT3875</name></trkpt>
<trkpt lat="53.362329" lon="-1.768434"><ele>399</ele><time>2020-08-05T10:30:29Z</time><name>PT3876</name></trkpt>
<trkpt lat="53.362319" lon="-1.768425"><ele>400</ele><time>2020-08-05T10:30:30Z</time><name>PT3877</name></trkpt>
<trkpt lat="53.362309" lon="-1.768412"><ele>400</ele><time>2020-08-05T10:30:31Z</time><name>PT3878</name></trkpt>
<trkpt lat="53.362300" lon="-1.768398"><ele>399</ele><time>2020-08-05T10:30:32Z</time><name>PT3879</name></trkpt>
<trkpt lat="53.362290" lon="-1.768386"><ele>399</ele><time>2020-08-05T10:30:33Z</time><name>PT3880</name></trkpt>
<trkpt lat="53.362280" lon="-1.768372"><ele>399</ele><time>2020-08-05T10:30:34Z</time><name>PT3881</name></trkpt>
<trkpt lat="53.362274" lon="-1.768359"><ele>399</ele><time>2020-08-05T10:30:35Z</time><name>PT3882</name></trkpt>
<trkpt lat="53.362265" lon="-1.768346"><ele>399</ele><time>2020-08-05T10:30:36Z</time><name>PT3883</name></trkpt>
<trkpt lat="53.362254" lon="-1.768336"><ele>399</ele><time>2020-08-05T10:30:37Z</time><name>PT3884</name></trkpt>
<trkpt lat="53.362243" lon="-1.768317"><ele>399</ele><time>2020-08-05T10:30:38Z</time><name>PT3885</name></trkpt>
<trkpt lat="53.362232" lon="-1.768300"><ele>399</ele><time>2020-08-05T10:30:39Z</time><name>PT3886</name></trkpt>
<trkpt lat="53.362223" lon="-1.768286"><ele>399</ele><time>2020-08-05T10:30:40Z</time><name>PT3887</name></trkpt>
<trkpt lat="53.362215" lon="-1.768271"><ele>399</ele><time>2020-08-05T10:30:41Z</time><name>PT3888</name></trkpt>
<trkpt lat="53.362208" lon="-1.768255"><ele>398</ele><time>2020-08-05T10:30:42Z</time><name>PT3889</name></trkpt>
<trkpt lat="53.362200" lon="-1.768239"><ele>398</ele><time>2020-08-05T10:30:43Z</time><name>PT3890</name></trkpt>
<trkpt lat="53.362194" lon="-1.768224"><ele>398</ele><time>2020-08-05T10:30:44Z</time><name>PT3891</name></trkpt>
<trkpt lat="53.362186" lon="-1.768210"><ele>398</ele><time>2020-08-05T10:30:45Z</time><name>PT3892</name></trkpt>
<trkpt lat="53.362176" lon="-1.768197"><ele>398</ele><time>2020-08-05T10:30:46Z</time><name>PT3893</name></trkpt>
<trkpt lat="53.362166" lon="-1.768179"><ele>398</ele><time>2020-08-05T10:30:47Z</time><name>PT3894</name></trkpt>
<trkpt lat="53.362157" lon="-1.768161"><ele>398</ele><time>2020-08-05T10:30:48Z</time><name>PT3895</name></trkpt>
<trkpt lat="53.362150" lon="-1.768144"><ele>398</ele><time>2020-08-05T10:30:49Z</time><name>PT3896</name></trkpt>
<trkpt lat="53.362142" lon="-1.768129"><ele>398</ele><time>2020-08-05T10:30:50Z</time><name>PT3897</name></trkpt>
<trkpt lat="53.362133" lon="-1.768111"><ele>398</ele><time>2020-08-05T10:30:51Z</time><name>PT3898</name></trkpt>
<trkpt lat="53.362124" lon="-1.768096"><ele>398</ele><time>2020-08-05T10:30:52Z</time><name>PT3899</name></trkpt>
<trkpt lat="53.362122" lon="-1.768099"><ele>398</ele><time>2020-08-05T10:30:53Z</time><name>PT3900</name></trkpt>
<trkpt lat="53.362115" lon="-1.768090"><ele>398</ele><time>2020-08-05T10:30:54Z</time><name>PT3901</name></trkpt>
<trkpt lat="53.362106" lon="-1.768075"><ele>398</ele><time>2020-08-05T10:30:55Z</time><name>PT3902</name></trkpt>
<trkpt lat="53.362098" lon="-1.768056"><ele>398</ele><time>2020-08-05T10:30:56Z</time><name>PT3903</name></trkpt>
<trkpt lat="53.362087" lon="-1.768037"><ele>398</ele><time>2020-08-05T10:30:57Z</time><name>PT3904</name></trkpt>
<trkpt lat="53.362075" lon="-1.768020"><ele>397</ele><time>2020-08-05T10:30:58Z</time><name>PT3905</name></trkpt>
<trkpt lat="53.362065" lon="-1.768000"><ele>396</ele><time>2020-08-05T10:30:59Z</time><name>PT3906</name></trkpt>
<trkpt lat="53.362055" lon="-1.767986"><ele>396</ele><time>2020-08-05T10:31:00Z</time><name>PT3907</name></trkpt>
<trkpt lat="53.362044" lon="-1.767973"><ele>396</ele><time>2020-08-05T10:31:01Z</time><name>PT3908</name></trkpt>
<trkpt lat="53.362034" lon="-1.767956"><ele>396</ele><time>2020-08-05T10:31:02Z</time><name>PT3909</name></trkpt>
<trkpt lat="53.362026" lon="-1.767941"><ele>396</ele><time>2020-08-05T10:31:03Z</time><name>PT3910</name></trkpt>
<trkpt lat="53.362018" lon="-1.767928"><ele>396</ele><time>2020-08-05T10:31:04Z</time><name>PT3911</name></trkpt>
<trkpt lat="53.362008" lon="-1.767913"><ele>396</ele><time>2020-08-05T10:31:05Z</time><name>PT3912</name></trkpt>
<trkpt lat="53.361999" lon="-1.767896"><ele>396</ele><time>2020-08-05T10:31:06Z</time><name>PT3913</name></trkpt>
<trkpt lat="53.361989" lon="-1.767882"><ele>396</ele><time>2020-08-05T10:31:07Z</time><name>PT3914</name></trkpt>
<trkpt lat="53.361981" lon="-1.767871"><ele>396</ele><time>2020-08-05T10:31:08Z</time><name>PT3915</name></trkpt>
<trkpt lat="53.361973" lon="-1.767857"><ele>396</ele><time>2020-08-05T10:31:09Z</time><name>PT3916</name></trkpt>
<trkpt lat="53.361965" lon="-1.767844"><ele>396</ele><time>2020-08-05T10:31:10Z</time><name>PT3917</name></trkpt>
<trkpt lat="53.361956" lon="-1.767828"><ele>396</ele><time>2020-08-05T10:31:11Z</time><name>PT3918</name></trkpt>
<trkpt lat="53.361949" lon="-1.767811"><ele>396</ele><time>2020-08-05T10:31:12Z</time><name>PT3919</name></trkpt>
<trkpt lat="53.361942" lon="-1.767795"><ele>396</ele><time>2020-08-05T10:31:13Z</time><name>PT3920</name></trkpt>
<trkpt lat="53.361931" lon="-1.767773"><ele>395</ele><time>2020-08-05T10:31:14Z</time><name>PT3921</name></trkpt>
<trkpt lat="53.361922" lon="-1.767754"><ele>394</ele><time>2020-08-05T10:31:15Z</time><name>PT3922</name></trkpt>
<trkpt lat="53.361916" lon="-1.767741"><ele>394</ele><time>2020-08-05T10:31:16Z</time><name>PT3923</name></trkpt>
<trkpt lat="53.361909" lon="-1.767726"><ele>394</ele><time>2020-08-05T10:31:17Z</time><name>PT3924</name></trkpt>
<trkpt lat="53.361900" lon="-1.767708"><ele>393</ele><time>2020-08-05T10:31:18Z</time><name>PT3925</name></trkpt>
<trkpt lat="53.361893" lon="-1.767693"><ele>392</ele><time>2020-08-05T10:31:19Z</time><name>PT3926</name></trkpt>
<trkpt lat="53.361886" lon="-1.767679"><ele>392</ele><time>2020-08-05T10:31:20Z</time><name>PT3927</name></trkpt>
<trkpt lat="53.361879" lon="-1.767663"><ele>391</ele><time>2020-08-05T10:31:21Z</time><name>PT3928</name></trkpt>
<trkpt lat="53.361872" lon="-1.767649"><ele>391</ele><time>2020-08-05T10:31:22Z</time><name>PT3929</name></trkpt>
<trkpt lat="53.361867" lon="-1.767636"><ele>391</ele><time>2020-08-05T10:31:23Z</time><name>PT3930</name></trkpt>
<trkpt lat="53.361861" lon="-1.767616"><ele>391</ele><time>2020-08-05T10:31:24Z</time><name>PT3931</name></trkpt>
<trkpt lat="53.361852" lon="-1.767603"><ele>391</ele><time>2020-08-05T10:31:25Z</time><name>PT3932</name></trkpt>
<trkpt lat="53.361843" lon="-1.767588"><ele>391</ele><time>2020-08-05T10:31:26Z</time><name>PT3933</name></trkpt>
<trkpt lat="53.361834" lon="-1.767574"><ele>391</ele><time>2020-08-05T10:31:27Z</time><name>PT3934</name></trkpt>
<trkpt lat="53.361825" lon="-1.767555"><ele>390</ele><time>2020-08-05T10:31:28Z</time><name>PT3935</name></trkpt>
<trkpt lat="53.361817" lon="-1.767539"><ele>390</ele><time>2020-08-05T10:31:29Z</time><name>PT3936</name></trkpt>
<trkpt lat="53.361806" lon="-1.767526"><ele>389</ele><time>2020-08-05T10:31:30Z</time><name>PT3937</name></trkpt>
<trkpt lat="53.361795" lon="-1.767504"><ele>389</ele><time>2020-08-05T10:31:31Z</time><name>PT3938</name></trkpt>
<trkpt lat="53.361785" lon="-1.767485"><ele>388</ele><time>2020-08-05T10:31:32Z</time><name>PT3939</name></trkpt>
<trkpt lat="53.361778" lon="-1.767469"><ele>388</ele><time>2020-08-05T10:31:33Z</time><name>PT3940</name></trkpt>
<trkpt lat="53.361768" lon="-1.767452"><ele>388</ele><time>2020-08-05T10:31:34Z</time><name>PT3941</name></trkpt>
<trkpt lat="53.361759" lon="-1.767442"><ele>389</ele><time>2020-08-05T10:31:35Z</time><name>PT3942</name></trkpt>
<trkpt lat="53.361749" lon="-1.767428"><ele>389</ele><time>2020-08-05T10:31:36Z</time><name>PT3943</name></trkpt>
<trkpt lat="53.361739" lon="-1.767414"><ele>389</ele><time>2020-08-05T10:31:37Z</time><name>PT3944</name></trkpt>
<trkpt lat="53.361732" lon="-1.767397"><ele>389</ele><time>2020-08-05T10:31:38Z</time><name>PT3945</name></trkpt>
<trkpt lat="53.361724" lon="-1.767377"><ele>388</ele><time>2020-08-05T10:31:39Z</time><name>PT3946</name></trkpt>
<trkpt lat="53.361714" lon="-1.767361"><ele>388</ele><time>2020-08-05T10:31:40Z</time><name>PT3947</name></trkpt>
<trkpt lat="53.361705" lon="-1.767346"><ele>388</ele><time>2020-08-05T10:31:41Z</time><name>PT3948</name></trkpt>
<trkpt lat="53.361696" lon="-1.767333"><ele>387</ele><time>2020-08-05T10:31:42Z</time><name>PT3949</name></trkpt>
<trkpt lat="53.361686" lon="-1.767316"><ele>388</ele><time>2020-08-05T10:31:43Z</time><name>PT3950</name></trkpt>
<trkpt lat="53.361677" lon="-1.767299"><ele>388</ele><time>2020-08-05T10:31:44Z</time><name>PT3951</name></trkpt>
<trkpt lat="53.361669" lon="-1.767282"><ele>388</ele><time>2020-08-05T10:31:45Z</time><name>PT3952</name></trkpt>
<trkpt lat="53.361662" lon="-1.767271"><ele>388</ele><time>2020-08-05T10:31:46Z</time><name>PT3953</name></trkpt>
<trkpt lat="53.361654" lon="-1.767255"><ele>388</ele><time>2020-08-05T10:31:47Z</time><name>PT3954</name></trkpt>
<trkpt lat="53.361645" lon="-1.767242"><ele>388</ele><time>2020-08-05T10:31:48Z</time><name>PT3955</name></trkpt>
<trkpt lat="53.361637" lon="-1.767232"><ele>387</ele><time>2020-08-05T10:31:49Z</time><name>PT3956</name></trkpt>
<trkpt lat="53.361631" lon="-1.767220"><ele>387</ele><time>2020-08-05T10:31:50Z</time><name>PT3957</name></trkpt>
<trkpt lat="53.361625" lon="-1.767211"><ele>387</ele><time>2020-08-05T10:31:51Z</time><name>PT3958</name></trkpt>
<trkpt lat="53.361619" lon="-1.767197"><ele>387</ele><time>2020-08-05T10:31:52Z</time><name>PT3959</name></trkpt>
<trkpt lat="53.361616" lon="-1.767186"><ele>386</ele><time>2020-08-05T10:31:53Z</time><name>PT3960</name></trkpt>
<trkpt lat="53.361609" lon="-1.767173"><ele>386</ele><time>2020-08-05T10:31:54Z</time><name>PT3961</name></trkpt>
<trkpt lat="53.361601" lon="-1.767156"><ele>386</ele><time>2020-08-05T10:31:55Z</time><name>PT3962</name></trkpt>
<trkpt lat="53.361594" lon="-1.767139"><ele>386</ele><time>2020-08-05T10:31:56Z</time><name>PT3963</name></trkpt>
<trkpt lat="53.361588" lon="-1.767124"><ele>386</ele><time>2020-08-05T10:31:57Z</time><name>PT3964</name></trkpt>
<trkpt lat="53.361584" lon="-1.767109"><ele>386</ele><time>2020-08-05T10:31:58Z</time><name>PT3965</name></trkpt>
<trkpt lat="53.361580" lon="-1.767094"><ele>385</ele><time>2020-08-05T10:31:59Z</time><name>PT3966</name></trkpt>
<trkpt lat="53.361574" lon="-1.767075"><ele>385</ele><time>2020-08-05T10:32:00Z</time><name>PT3967</name></trkpt>
<trkpt lat="53.361570" lon="-1.767054"><ele>385</ele><time>2020-08-05T10:32:01Z</time><name>PT3968</name></trkpt>
<trkpt lat="53.361564" lon="-1.767039"><ele>385</ele><time>2020-08-05T10:32:02Z</time><name>PT3969</name></trkpt>
<trkpt lat="53.361557" lon="-1.767023"><ele>385</ele><time>2020-08-05T10:32:03Z</time><name>PT3970</name></trkpt>
<trkpt lat="53.361550" lon="-1.767009"><ele>384</ele><time>2020-08-05T10:32:04Z</time><name>PT3971</name></trkpt>
<trkpt lat="53.361545" lon="-1.766992"><ele>384</ele><time>2020-08-05T10:32:05Z</time><name>PT3972</name></trkpt>
<trkpt lat="53.361543" lon="-1.766974"><ele>384</ele><time>2020-08-05T10:32:06Z</time><name>PT3973</name></trkpt>
<trkpt lat="53.361536" lon="-1.766954"><ele>384</ele><time>2020-08-05T10:32:07Z</time><name>PT3974</name></trkpt>
<trkpt lat="53.361530" lon="-1.766935"><ele>384</ele><time>2020-08-05T10:32:08Z</time><name>PT3975</name></trkpt>
<trkpt lat="53.361524" lon="-1.766917"><ele>384</ele><time>2020-08-05T10:32:09Z</time><name>PT3976</name></trkpt>
<trkpt lat="53.361517" lon="-1.766902"><ele>384</ele><time>2020-08-05T10:32:10Z</time><name>PT3977</name></trkpt>
<trkpt lat="53.361508" lon="-1.766885"><ele>384</ele><time>2020-08-05T10:32:11Z</time><name>PT3978</name></trkpt>
<trkpt lat="53.361496" lon="-1.766869"><ele>383</ele><time>2020-08-05T10:32:12Z</time><name>PT3979</name></trkpt>
<trkpt lat="53.361485" lon="-1.766854"><ele>383</ele><time>2020-08-05T10:32:13Z</time><name>PT3980</name></trkpt>
<trkpt lat="53.361478" lon="-1.766841"><ele>383</ele><time>2020-08-05T10:32:14Z</time><name>PT3981</name></trkpt>
<trkpt lat="53.361472" lon="-1.766824"><ele>383</ele><time>2020-08-05T10:32:15Z</time><name>PT3982</name></trkpt>
<trkpt lat="53.361464" lon="-1.766809"><ele>383</ele><time>2020-08-05T10:32:16Z</time><name>PT3983</name></trkpt>
<trkpt lat="53.361456" lon="-1.766792"><ele>383</ele><time>2020-08-05T10:32:17Z</time><name>PT3984</name></trkpt>
<trkpt lat="53.361447" lon="-1.766778"><ele>384</ele><time>2020-08-05T10:32:18Z</time><name>PT3985</name></trkpt>
<trkpt lat="53.361433" lon="-1.766762"><ele>384</ele><time>2020-08-05T10:32:19Z</time><name>PT3986</name></trkpt>
<trkpt lat="53.361422" lon="-1.766747"><ele>383</ele><time>2020-08-05T10:32:20Z</time><name>PT3987</name></trkpt>
<trkpt lat="53.361415" lon="-1.766731"><ele>383</ele><time>2020-08-05T10:32:21Z</time><name>PT3988</name></trkpt>
<trkpt lat="53.361409" lon="-1.766713"><ele>383</ele><time>2020-08-05T10:32:22Z</time><name>PT3989</name></trkpt>
<trkpt lat="53.361400" lon="-1.766693"><ele>383</ele><time>2020-08-05T10:32:23Z</time><name>PT3990</name></trkpt>
<trkpt lat="53.361394" lon="-1.766680"><ele>383</ele><time>2020-08-05T10:32:24Z</time><name>PT3991</name></trkpt>
<trkpt lat="53.361387" lon="-1.766667"><ele>383</ele><time>2020-08-05T10:32:25Z</time><name>PT3992</name></trkpt>
<trkpt lat="53.361379" lon="-1.766650"><ele>382</ele><time>2020-08-05T10:32:26Z</time><name>PT3993</name></trkpt>
<trkpt lat="53.361372" lon="-1.766632"><ele>382</ele><time>2020-08-05T10:32:27Z</time><name>PT3994</name></trkpt>
<trkpt lat="53.361365" lon="-1.766613"><ele>382</ele><time>2020-08-05T10:32:28Z</time><name>PT3995</name></trkpt>
<trkpt lat="53.361357" lon="-1.766589"><ele>382</ele><time>2020-08-05T10:32:29Z</time><name>PT3996</name></trkpt>
<trkpt lat="53.361348" lon="-1.766566"><ele>382</ele><time>2020-08-05T10:32:30Z</time><name>PT3997</name></trkpt>
<trkpt lat="53.361343" lon="-1.766551"><ele>382</ele><time>2020-08-05T10:32:31Z</time><name>PT3998</name></trkpt>
<trkpt lat="53.361339" lon="-1.766539"><ele>381</ele><time>2020-08-05T10:32:32Z</time><name>PT3999</name></trkpt>
<trkpt lat="53.361333" lon="-1.766525"><ele>381</ele><time>2020-08-05T10:32:33Z</time><name>PT4000</name></trkpt>
<trkpt lat="53.361325" lon="-1.766507"><ele>381</ele><time>2020-08-05T10:32:34Z</time><name>PT4001</name></trkpt>
<trkpt lat="53.361316" lon="-1.766493"><ele>381</ele><time>2020-08-05T10:32:35Z</time><name>PT4002</name></trkpt>
<trkpt lat="53.361309" lon="-1.766478"><ele>381</ele><time>2020-08-05T10:32:36Z</time><name>PT4003</name></trkpt>
<trkpt lat="53.361301" lon="-1.766462"><ele>381</ele><time>2020-08-05T10:32:37Z</time><name>PT4004</name></trkpt>
<trkpt lat="53.361292" lon="-1.766442"><ele>380</ele><time>2020-08-05T10:32:38Z</time><name>PT4005</name></trkpt>
<trkpt lat="53.361285" lon="-1.766423"><ele>380</ele><time>2020-08-05T10:32:39Z</time><name>PT4006</name></trkpt>
<trkpt lat="53.361278" lon="-1.766408"><ele>380</ele><time>2020-08-05T10:32:40Z</time><name>PT4007</name></trkpt>
<trkpt lat="53.361270" lon="-1.766392"><ele>380</ele><time>2020-08-05T10:32:41Z</time><name>PT4008</name></trkpt>
<trkpt lat="53.361262" lon="-1.766379"><ele>379</ele><time>2020-08-05T10:32:42Z</time><name>PT4009</name></trkpt>
<trkpt lat="53.361255" lon="-1.766364"><ele>379</ele><time>2020-08-05T10:32:43Z</time><name>PT4010</name></trkpt>
<trkpt lat="53.361250" lon="-1.766349"><ele>380</ele><time>2020-08-05T10:32:44Z</time><name>PT4011</name></trkpt>
<trkpt lat="53.361244" lon="-1.766331"><ele>380</ele><time>2020-08-05T10:32:45Z</time><name>PT4012</name></trkpt>
<trkpt lat="53.361238" lon="-1.766318"><ele>379</ele><time>2020-08-05T10:32:46Z</time><name>PT4013</name></trkpt>
<trkpt lat="53.361230" lon="-1.766306"><ele>379</ele><time>2020-08-05T10:32:47Z</time><name>PT4014</name></trkpt>
<trkpt lat="53.361219" lon="-1.766287"><ele>379</ele><time>2020-08-05T10:32:48Z</time><name>PT4015</name></trkpt>
<trkpt lat="53.361210" lon="-1.766269"><ele>379</ele><time>2020-08-05T10:32:49Z</time><name>PT4016</name></trkpt>
<trkpt lat="53.361202" lon="-1.766248"><ele>378</ele><time>2020-08-05T10:32:50Z</time><name>PT4017</name></trkpt>
<trkpt lat="53.361191" lon="-1.766222"><ele>378</ele><time>2020-08-05T10:32:51Z</time><name>PT4018</name></trkpt>
<trkpt lat="53.361181" lon="-1.766198"><ele>378</ele><time>2020-08-05T10:32:52Z</time><name>PT4019</name></trkpt>
<trkpt lat="53.361172" lon="-1.766176"><ele>378</ele><time>2020-08-05T10:32:53Z</time><name>PT4020</name></trkpt>
<trkpt lat="53.361165" lon="-1.766161"><ele>377</ele><time>2020-08-05T10:32:54Z</time><name>PT4021</name></trkpt>
<trkpt lat="53.361157" lon="-1.766142"><ele>377</ele><time>2020-08-05T10:32:55Z</time><name>PT4022</name></trkpt>
<trkpt lat="53.361153" lon="-1.766126"><ele>377</ele><time>2020-08-05T10:32:56Z</time><name>PT4023</name></trkpt>
<trkpt lat="53.361146" lon="-1.766109"><ele>377</ele><time>2020-08-05T10:32:57Z</time><name>PT4024</name></trkpt>
<trkpt lat="53.361138" lon="-1.766096"><ele>376</ele><time>2020-08-05T10:32:58Z</time><name>PT4025</name></trkpt>
<trkpt lat="53.361129" lon="-1.766076"><ele>376</ele><time>2020-08-05T10:32:59Z</time><name>PT4026</name></trkpt>
<trkpt lat="53.361123" lon="-1.766060"><ele>376</ele><time>2020-08-05T10:33:00Z</time><name>PT4027</name></trkpt>
<trkpt lat="53.361115" lon="-1.766047"><ele>376</ele><time>2020-08-05T10:33:01Z</time><name>PT4028</name></trkpt>
<trkpt lat="53.361108" lon="-1.766033"><ele>376</ele><time>2020-08-05T10:33:02Z</time><name>PT4029</name></trkpt>
<trkpt lat="53.361101" lon="-1.766017"><ele>376</ele><time>2020-08-05T10:33:03Z</time><name>PT4030</name></trkpt>
<trkpt lat="53.361095" lon="-1.766000"><ele>377</ele><time>2020-08-05T10:33:04Z</time><name>PT4031</name></trkpt>
<trkpt lat="53.361089" lon="-1.765986"><ele>376</ele><time>2020-08-05T10:33:05Z</time><name>PT4032</name></trkpt>
<trkpt lat="53.361082" lon="-1.765968"><ele>376</ele><time>2020-08-05T10:33:06Z</time><name>PT4033</name></trkpt>
<trkpt lat="53.361076" lon="-1.765950"><ele>376</ele><time>2020-08-05T10:33:07Z</time><name>PT4034</name></trkpt>
<trkpt lat="53.361070" lon="-1.765931"><ele>376</ele><time>2020-08-05T10:33:08Z</time><name>PT4035</name></trkpt>
<trkpt lat="53.361062" lon="-1.765914"><ele>376</ele><time>2020-08-05T10:33:09Z</time><name>PT4036</name></trkpt>
<trkpt lat="53.361053" lon="-1.765899"><ele>376</ele><time>2020-08-05T10:33:10Z</time><name>PT4037</name></trkpt>
<trkpt lat="53.361044" lon="-1.765880"><ele>376</ele><time>2020-08-05T10:33:11Z</time><name>PT4038</name></trkpt>
<trkpt lat="53.361035" lon="-1.765862"><ele>376</ele><time>2020-08-05T10:33:12Z</time><name>PT4039</name></trkpt>
<trkpt lat="53.361028" lon="-1.765841"><ele>376</ele><time>2020-08-05T10:33:13Z</time><name>PT4040</name></trkpt>
<trkpt lat="53.361021" lon="-1.765821"><ele>375</ele><time>2020-08-05T10:33:14Z</time><name>PT4041</name></trkpt>
<trkpt lat="53.361015" lon="-1.765803"><ele>375</ele><time>2020-08-05T10:33:15Z</time><name>PT4042</name></trkpt>
<trkpt lat="53.361009" lon="-1.765787"><ele>375</ele><time>2020-08-05T10:33:16Z</time><name>PT4043</name></trkpt>
<trkpt lat="53.361002" lon="-1.765769"><ele>375</ele><time>2020-08-05T10:33:17Z</time><name>PT4044</name></trkpt>
<trkpt lat="53.360997" lon="-1.765754"><ele>375</ele><time>2020-08-05T10:33:18Z</time><name>PT4045</name></trkpt>
<trkpt lat="53.360992" lon="-1.765737"><ele>375</ele><time>2020-08-05T10:33:19Z</time><name>PT4046</name></trkpt>
<trkpt lat="53.360986" lon="-1.765716"><ele>375</ele><time>2020-08-05T10:33:20Z</time><name>PT4047</name></trkpt>
<trkpt lat="53.360977" lon="-1.765693"><ele>374</ele><time>2020-08-05T10:33:21Z</time><name>PT4048</name></trkpt>
<trkpt lat="53.360970" lon="-1.765672"><ele>374</ele><time>2020-08-05T10:33:22Z</time><name>PT4049</name></trkpt>
<trkpt lat="53.360961" lon="-1.765650"><ele>374</ele><time>2020-08-05T10:33:23Z</time><name>PT4050</name></trkpt>
<trkpt lat="53.360954" lon="-1.765632"><ele>373</ele><time>2020-08-05T10:33:24Z</time><name>PT4051</name></trkpt>
<trkpt lat="53.360946" lon="-1.765614"><ele>373</ele><time>2020-08-05T10:33:25Z</time><name>PT4052</name></trkpt>
<trkpt lat="53.360939" lon="-1.765596"><ele>373</ele><time>2020-08-05T10:33:26Z</time><name>PT4053</name></trkpt>
<trkpt lat="53.360934" lon="-1.765578"><ele>372</ele><time>2020-08-05T10:33:27Z</time><name>PT4054</name></trkpt>
<trkpt lat="53.360929" lon="-1.765562"><ele>372</ele><time>2020-08-05T10:33:28Z</time><name>PT4055</name></trkpt>
<trkpt lat="53.360922" lon="-1.765548"><ele>372</ele><time>2020-08-05T10:33:29Z</time><name>PT4056</name></trkpt>
<trkpt lat="53.360916" lon="-1.765533"><ele>372</ele><time>2020-08-05T10:33:30Z</time><name>PT4057</name></trkpt>
<trkpt lat="53.360906" lon="-1.765514"><ele>373</ele><time>2020-08-05T10:33:31Z</time><name>PT4058</name></trkpt>
<trkpt lat="53.360898" lon="-1.765499"><ele>372</ele><time>2020-08-05T10:33:32Z</time><name>PT4059</name></trkpt>
<trkpt lat="53.360891" lon="-1.765485"><ele>372</ele><time>2020-08-05T10:33:33Z</time><name>PT4060</name></trkpt>
<trkpt lat="53.360886" lon="-1.765470"><ele>372</ele><time>2020-08-05T10:33:34Z</time><name>PT4061</name></trkpt>
<trkpt lat="53.360881" lon="-1.765452"><ele>372</ele><time>2020-08-05T10:33:35Z</time><name>PT4062</name></trkpt>
<trkpt lat="53.360875" lon="-1.765432"><ele>373</ele><time>2020-08-05T10:33:36Z</time><name>PT4063</name></trkpt>
<trkpt lat="53.360867" lon="-1.765415"><ele>373</ele><time>2020-08-05T10:33:37Z</time><name>PT4064</name></trkpt>
<trkpt lat="53.360861" lon="-1.765398"><ele>373</ele><time>2020-08-05T10:33:38Z</time><name>PT4065</name></trkpt>
<trkpt lat="53.360855" lon="-1.765381"><ele>373</ele><time>2020-08-05T10:33:39Z</time><name>PT4066</name></trkpt>
<trkpt lat="53.360851" lon="-1.765361"><ele>373</ele><time>2020-08-05T10:33:40Z</time><name>PT4067</name></trkpt>
<trkpt lat="53.360844" lon="-1.765339"><ele>373</ele><time>2020-08-05T10:33:41Z</time><name>PT4068</name></trkpt>
<trkpt lat="53.360838" lon="-1.765326"><ele>373</ele><time>2020-08-05T10:33:42Z</time><name>PT4069</name></trkpt>
<trkpt lat="53.360831" lon="-1.765316"><ele>373</ele><time>2020-08-05T10:33:43Z</time><name>PT4070</name></trkpt>
<trkpt lat="53.360821" lon="-1.765298"><ele>373</ele><time>2020-08-05T10:33:44Z</time><name>PT4071</name></trkpt>
<trkpt lat="53.360815" lon="-1.765284"><ele>373</ele><time>2020-08-05T10:33:45Z</time><name>PT4072</name></trkpt>
<trkpt lat="53.360808" lon="-1.765267"><ele>373</ele><time>2020-08-05T10:33:46Z</time><name>PT4073</name></trkpt>
<trkpt lat="53.360802" lon="-1.765250"><ele>373</ele><time>2020-08-05T10:33:47Z</time><name>PT4074</name></trkpt>
<trkpt lat="53.360796" lon="-1.765234"><ele>373</ele><time>2020-08-05T10:33:48Z</time><name>PT4075</name></trkpt>
<trkpt lat="53.360789" lon="-1.765216"><ele>373</ele><time>2020-08-05T10:33:49Z</time><name>PT4076</name></trkpt>
<trkpt lat="53.360779" lon="-1.765192"><ele>372</ele><time>2020-08-05T10:33:50Z</time><name>PT4077</name></trkpt>
<trkpt lat="53.360771" lon="-1.765174"><ele>372</ele><time>2020-08-05T10:33:51Z</time><name>PT4078</name></trkpt>
<trkpt lat="53.360765" lon="-1.765158"><ele>372</ele><time>2020-08-05T10:33:52Z</time><name>PT4079</name></trkpt>
<trkpt lat="53.360758" lon="-1.765140"><ele>372</ele><time>2020-08-05T10:33:53Z</time><name>PT4080</name></trkpt>
<trkpt lat="53.360753" lon="-1.765121"><ele>372</ele><time>2020-08-05T10:33:54Z</time><name>PT4081</name></trkpt>
<trkpt lat="53.360746" lon="-1.765102"><ele>372</ele><time>2020-08-05T10:33:55Z</time><name>PT4082</name></trkpt>
<trkpt lat="53.360739" lon="-1.765084"><ele>372</ele><time>2020-08-05T10:33:56Z</time><name>PT4083</name></trkpt>
<trkpt lat="53.360736" lon="-1.765066"><ele>372</ele><time>2020-08-05T10:33:57Z</time><name>PT4084</name></trkpt>
<trkpt lat="53.360729" lon="-1.765046"><ele>372</ele><time>2020-08-05T10:33:58Z</time><name>PT4085</name></trkpt>
<trkpt lat="53.360724" lon="-1.765029"><ele>371</ele><time>2020-08-05T10:33:59Z</time><name>PT4086</name></trkpt>
<trkpt lat="53.360720" lon="-1.765010"><ele>371</ele><time>2020-08-05T10:34:00Z</time><name>PT4087</name></trkpt>
<trkpt lat="53.360714" lon="-1.764987"><ele>371</ele><time>2020-08-05T10:34:01Z</time><name>PT4088</name></trkpt>
<trkpt lat="53.360707" lon="-1.764968"><ele>371</ele><time>2020-08-05T10:34:02Z</time><name>PT4089</name></trkpt>
<trkpt lat="53.360701" lon="-1.764955"><ele>371</ele><time>2020-08-05T10:34:03Z</time><name>PT4090</name></trkpt>
<trkpt lat="53.360693" lon="-1.764938"><ele>371</ele><time>2020-08-05T10:34:04Z</time><name>PT4091</name></trkpt>
<trkpt lat="53.360686" lon="-1.764919"><ele>371</ele><time>2020-08-05T10:34:05Z</time><name>PT4092</name></trkpt>
<trkpt lat="53.360680" lon="-1.764901"><ele>371</ele><time>2020-08-05T10:34:06Z</time><name>PT4093</name></trkpt>
<trkpt lat="53.360676" lon="-1.764884"><ele>371</ele><time>2020-08-05T10:34:07Z</time><name>PT4094</name></trkpt>
<trkpt lat="53.360670" lon="-1.764863"><ele>371</ele><time>2020-08-05T10:34:08Z</time><name>PT4095</name></trkpt>
<trkpt lat="53.360665" lon="-1.764848"><ele>371</ele><time>2020-08-05T10:34:09Z</time><name>PT4096</name></trkpt>
<trkpt lat="53.360661" lon="-1.764831"><ele>371</ele><time>2020-08-05T10:34:10Z</time><name>PT4097</name></trkpt>
<trkpt lat="53.360655" lon="-1.764811"><ele>371</ele><time>2020-08-05T10:34:11Z</time><name>PT4098</name></trkpt>
<trkpt lat="53.360649" lon="-1.764790"><ele>370</ele><time>2020-08-05T10:34:12Z</time><name>PT4099</name></trkpt>
<trkpt lat="53.360644" lon="-1.764774"><ele>370</ele><time>2020-08-05T10:34:13Z</time><name>PT4100</name></trkpt>
<trkpt lat="53.360640" lon="-1.764758"><ele>370</ele><time>2020-08-05T10:34:14Z</time><name>PT4101</name></trkpt>
<trkpt lat="53.360634" lon="-1.764739"><ele>370</ele><time>2020-08-05T10:34:15Z</time><name>PT4102</name></trkpt>
<trkpt lat="53.360629" lon="-1.764723"><ele>370</ele><time>2020-08-05T10:34:16Z</time><name>PT4103</name></trkpt>
<trkpt lat="53.360621" lon="-1.764705"><ele>370</ele><time>2020-08-05T10:34:17Z</time><name>PT4104</name></trkpt>
<trkpt lat="53.360614" lon="-1.764687"><ele>370</ele><time>2020-08-05T10:34:18Z</time><name>PT4105</name></trkpt>
<trkpt lat="53.360607" lon="-1.764670"><ele>370</ele><time>2020-08-05T10:34:19Z</time><name>PT4106</name></trkpt>
<trkpt lat="53.360603" lon="-1.764656"><ele>370</ele><time>2020-08-05T10:34:20Z</time><name>PT4107</name></trkpt>
<trkpt lat="53.360599" lon="-1.764640"><ele>370</ele><time>2020-08-05T10:34:21Z</time><name>PT4108</name></trkpt>
<trkpt lat="53.360594" lon="-1.764626"><ele>370</ele><time>2020-08-05T10:34:22Z</time><name>PT4109</name></trkpt>
<trkpt lat="53.360587" lon="-1.764611"><ele>370</ele><time>2020-08-05T10:34:23Z</time><name>PT4110</name></trkpt>
<trkpt lat="53.360582" lon="-1.764597"><ele>370</ele><time>2020-08-05T10:34:24Z</time><name>PT4111</name></trkpt>
<trkpt lat="53.360576" lon="-1.764580"><ele>369</ele><time>2020-08-05T10:34:25Z</time><name>PT4112</name></trkpt>
<trkpt lat="53.360571" lon="-1.764563"><ele>369</ele><time>2020-08-05T10:34:26Z</time><name>PT4113</name></trkpt>
<trkpt lat="53.360568" lon="-1.764547"><ele>369</ele><time>2020-08-05T10:34:27Z</time><name>PT4114</name></trkpt>
<trkpt lat="53.360566" lon="-1.764531"><ele>369</ele><time>2020-08-05T10:34:28Z</time><name>PT4115</name></trkpt>
<trkpt lat="53.360562" lon="-1.764515"><ele>368</ele><time>2020-08-05T10:34:29Z</time><name>PT4116</name></trkpt>
<trkpt lat="53.360556" lon="-1.764497"><ele>367</ele><time>2020-08-05T10:34:30Z</time><name>PT4117</name></trkpt>
<trkpt lat="53.360551" lon="-1.764481"><ele>367</ele><time>2020-08-05T10:34:31Z</time><name>PT4118</name></trkpt>
<trkpt lat="53.360546" lon="-1.764465"><ele>366</ele><time>2020-08-05T10:34:32Z</time><name>PT4119</name></trkpt>
<trkpt lat="53.360540" lon="-1.764450"><ele>366</ele><time>2020-08-05T10:34:33Z</time><name>PT4120</name></trkpt>
<trkpt lat="53.360537" lon="-1.764434"><ele>366</ele><time>2020-08-05T10:34:34Z</time><name>PT4121</name></trkpt>
<trkpt lat="53.360535" lon="-1.764417"><ele>366</ele><time>2020-08-05T10:34:35Z</time><name>PT4122</name></trkpt>
<trkpt lat="53.360531" lon="-1.764397"><ele>365</ele><time>2020-08-05T10:34:36Z</time><name>PT4123</name></trkpt>
<trkpt lat="53.360525" lon="-1.764382"><ele>365</ele><time>2020-08-05T10:34:37Z</time><name>PT4124</name></trkpt>
<trkpt lat="53.360519" lon="-1.764370"><ele>365</ele><time>2020-08-05T10:34:38Z</time><name>PT4125</name></trkpt>
<trkpt lat="53.360513" lon="-1.764353"><ele>365</ele><time>2020-08-05T10:34:39Z</time><name>PT4126</name></trkpt>
<trkpt lat="53.360507" lon="-1.764333"><ele>365</ele><time>2020-08-05T10:34:40Z</time><name>PT4127</name></trkpt>
<trkpt lat="53.360503" lon="-1.764317"><ele>364</ele><time>2020-08-05T10:34:41Z</time><name>PT4128</name></trkpt>
<trkpt lat="53.360500" lon="-1.764300"><ele>364</ele><time>2020-08-05T10:34:42Z</time><name>PT4129</name></trkpt>
<trkpt lat="53.360496" lon="-1.764280"><ele>364</ele><time>2020-08-05T10:34:43Z</time><name>PT4130</name></trkpt>
<trkpt lat="53.360491" lon="-1.764263"><ele>365</ele><time>2020-08-05T10:34:44Z</time><name>PT4131</name></trkpt>
<trkpt lat="53.360485" lon="-1.764243"><ele>364</ele><time>2020-08-05T10:34:45Z</time><name>PT4132</name></trkpt>
<trkpt lat="53.360479" lon="-1.764227"><ele>364</ele><time>2020-08-05T10:34:46Z</time><name>PT4133</name></trkpt>
<trkpt lat="53.360472" lon="-1.764210"><ele>364</ele><time>2020-08-05T10:34:47Z</time><name>PT4134</name></trkpt>
<trkpt lat="53.360466" lon="-1.764192"><ele>364</ele><time>2020-08-05T10:34:48Z</time><name>PT4135</name></trkpt>
<trkpt lat="53.360461" lon="-1.764174"><ele>364</ele><time>2020-08-05T10:34:49Z</time><name>PT4136</name></trkpt>
<trkpt lat="53.360457" lon="-1.764156"><ele>364</ele><time>2020-08-05T10:34:50Z</time><name>PT4137</name></trkpt>
<trkpt lat="53.360452" lon="-1.764133"><ele>363</ele><time>2020-08-05T10:34:51Z</time><name>PT4138</name></trkpt>
<trkpt lat="53.360446" lon="-1.764110"><ele>363</ele><time>2020-08-05T10:34:52Z</time><name>PT4139</name></trkpt>
<trkpt lat="53.360440" lon="-1.764091"><ele>362</ele><time>2020-08-05T10:34:53Z</time><name>PT4140</name></trkpt>
<trkpt lat="53.360433" lon="-1.764073"><ele>362</ele><time>2020-08-05T10:34:54Z</time><name>PT4141</name></trkpt>
<trkpt lat="53.360425" lon="-1.764058"><ele>363</ele><time>2020-08-05T10:34:55Z</time><name>PT4142</name></trkpt>
<trkpt lat="53.360422" lon="-1.764042"><ele>363</ele><time>2020-08-05T10:34:56Z</time><name>PT4143</name></trkpt>
<trkpt lat="53.360418" lon="-1.764024"><ele>363</ele><time>2020-08-05T10:34:57Z</time><name>PT4144</name></trkpt>
<trkpt lat="53.360414" lon="-1.764005"><ele>362</ele><time>2020-08-05T10:34:58Z</time><name>PT4145</name></trkpt>
<trkpt lat="53.360410" lon="-1.763986"><ele>362</ele><time>2020-08-05T10:34:59Z</time><name>PT4146</name></trkpt>
<trkpt lat="53.360407" lon="-1.763971"><ele>362</ele><time>2020-08-05T10:35:00Z</time><name>PT4147</name></trkpt>
<trkpt lat="53.360403" lon="-1.763954"><ele>361</ele><time>2020-08-05T10:35:01Z</time><name>PT4148</name></trkpt>
<trkpt lat="53.360398" lon="-1.763934"><ele>361</ele><time>2020-08-05T10:35:02Z</time><name>PT4149</name></trkpt>
<trkpt lat="53.360393" lon="-1.763916"><ele>361</ele><time>2020-08-05T10:35:03Z</time><name>PT4150</name></trkpt>
<trkpt lat="53.360389" lon="-1.763904"><ele>360</ele><time>2020-08-05T10:35:04Z</time><name>PT4151</name></trkpt>
<trkpt lat="53.360387" lon="-1.763889"><ele>360</ele><time>2020-08-05T10:35:05Z</time><name>PT4152</name></trkpt>
<trkpt lat="53.360382" lon="-1.763871"><ele>360</ele><time>2020-08-05T10:35:06Z</time><name>PT4153</name></trkpt>
<trkpt lat="53.360379" lon="-1.763852"><ele>359</ele><time>2020-08-05T10:35:07Z</time><name>PT4154</name></trkpt>
<trkpt lat="53.360375" lon="-1.763837"><ele>359</ele><time>2020-08-05T10:35:08Z</time><name>PT4155</name></trkpt>
<trkpt lat="53.360373" lon="-1.763824"><ele>359</ele><time>2020-08-05T10:35:09Z</time><name>PT4156</name></trkpt>
<trkpt lat="53.360368" lon="-1.763805"><ele>360</ele><time>2020-08-05T10:35:10Z</time><name>PT4157</name></trkpt>
<trkpt lat="53.360364" lon="-1.763782"><ele>359</ele><time>2020-08-05T10:35:11Z</time><name>PT4158</name></trkpt>
<trkpt lat="53.360362" lon="-1.763765"><ele>359</ele><time>2020-08-05T10:35:12Z</time><name>PT4159</name></trkpt>
<trkpt lat="53.360359" lon="-1.763746"><ele>359</ele><time>2020-08-05T10:35:13Z</time><name>PT4160</name></trkpt>
<trkpt lat="53.360356" lon="-1.763728"><ele>359</ele><time>2020-08-05T10:35:14Z</time><name>PT4161</name></trkpt>
<trkpt lat="53.360352" lon="-1.763708"><ele>358</ele><time>2020-08-05T10:35:15Z</time><name>PT4162</name></trkpt>
<trkpt lat="53.360348" lon="-1.763688"><ele>358</ele><time>2020-08-05T10:35:16Z</time><name>PT4163</name></trkpt>
<trkpt lat="53.360344" lon="-1.763670"><ele>358</ele><time>2020-08-05T10:35:17Z</time><name>PT4164</name></trkpt>
<trkpt lat="53.360337" lon="-1.763645"><ele>358</ele><time>2020-08-05T10:35:18Z</time><name>PT4165</name></trkpt>
<trkpt lat="53.360335" lon="-1.763626"><ele>357</ele><time>2020-08-05T10:35:19Z</time><name>PT4166</name></trkpt>
<trkpt lat="53.360332" lon="-1.763610"><ele>357</ele><time>2020-08-05T10:35:20Z</time><name>PT4167</name></trkpt>
<trkpt lat="53.360331" lon="-1.763593"><ele>357</ele><time>2020-08-05T10:35:21Z</time><name>PT4168</name></trkpt>
<trkpt lat="53.360331" lon="-1.763577"><ele>357</ele><time>2020-08-05T10:35:22Z</time><name>PT4169</name></trkpt>
<trkpt lat="53.360330" lon="-1.763558"><ele>357</ele><time>2020-08-05T10:35:23Z</time><name>PT4170</name></trkpt>
<trkpt lat="53.360325" lon="-1.763536"><ele>357</ele><time>2020-08-05T10:35:24Z</time><name>PT4171</name></trkpt>
<trkpt lat="53.360320" lon="-1.763517"><ele>357</ele><time>2020-08-05T10:35:25Z</time><name>PT4172</name></trkpt>
<trkpt lat="53.360315" lon="-1.763499"><ele>357</ele><time>2020-08-05T10:35:26Z</time><name>PT4173</name></trkpt>
<trkpt lat="53.360311" lon="-1.763482"><ele>356</ele><time>2020-08-05T10:35:27Z</time><name>PT4174</name></trkpt>
<trkpt lat="53.360310" lon="-1.763465"><ele>356</ele><time>2020-08-05T10:35:28Z</time><name>PT4175</name></trkpt>
<trkpt lat="53.360309" lon="-1.763450"><ele>356</ele><time>2020-08-05T10:35:29Z</time><name>PT4176</name></trkpt>
<trkpt lat="53.360310" lon="-1.763437"><ele>356</ele><time>2020-08-05T10:35:30Z</time><name>PT4177</name></trkpt>
<trkpt lat="53.360309" lon="-1.763423"><ele>355</ele><time>2020-08-05T10:35:31Z</time><name>PT4178</name></trkpt>
<trkpt lat="53.360305" lon="-1.763408"><ele>355</ele><time>2020-08-05T10:35:32Z</time><name>PT4179</name></trkpt>
<trkpt lat="53.360300" lon="-1.763392"><ele>355</ele><time>2020-08-05T10:35:33Z</time><name>PT4180</name></trkpt>
<trkpt lat="53.360296" lon="-1.763380"><ele>355</ele><time>2020-08-05T10:35:34Z</time><name>PT4181</name></trkpt>
<trkpt lat="53.360294" lon="-1.763365"><ele>355</ele><time>2020-08-05T10:35:35Z</time><name>PT4182</name></trkpt>
<trkpt lat="53.360289" lon="-1.763349"><ele>355</ele><time>2020-08-05T10:35:36Z</time><name>PT4183</name></trkpt>
<trkpt lat="53.360286" lon="-1.763330"><ele>355</ele><time>2020-08-05T10:35:37Z</time><name>PT4184</name></trkpt>
<trkpt lat="53.360285" lon="-1.763315"><ele>355</ele><time>2020-08-05T10:35:38Z</time><name>PT4185</name></trkpt>
<trkpt lat="53.360281" lon="-1.763299"><ele>355</ele><time>2020-08-05T10:35:39Z</time><name>PT4186</name></trkpt>
<trkpt lat="53.360276" lon="-1.763281"><ele>354</ele><time>2020-08-05T10:35:40Z</time><name>PT4187</name></trkpt>
<trkpt lat="53.360273" lon="-1.763262"><ele>354</ele><time>2020-08-05T10:35:41Z</time><name>PT4188</name></trkpt>
<trkpt lat="53.360271" lon="-1.763246"><ele>354</ele><time>2020-08-05T10:35:42Z</time><name>PT4189</name></trkpt>
<trkpt lat="53.360268" lon="-1.763231"><ele>354</ele><time>2020-08-05T10:35:43Z</time><name>PT4190</name></trkpt>
<trkpt lat="53.360267" lon="-1.763213"><ele>354</ele><time>2020-08-05T10:35:44Z</time><name>PT4191</name></trkpt>
<trkpt lat="53.360264" lon="-1.763193"><ele>354</ele><time>2020-08-05T10:35:45Z</time><name>PT4192</name></trkpt>
<trkpt lat="53.360257" lon="-1.763172"><ele>353</ele><time>2020-08-05T10:35:46Z</time><name>PT4193</name></trkpt>
<trkpt lat="53.360250" lon="-1.763152"><ele>353</ele><time>2020-08-05T10:35:47Z</time><name>PT4194</name></trkpt>
<trkpt lat="53.360245" lon="-1.763131"><ele>352</ele><time>2020-08-05T10:35:48Z</time><name>PT4195</name></trkpt>
<trkpt lat="53.360242" lon="-1.763109"><ele>352</ele><time>2020-08-05T10:35:49Z</time><name>PT4196</name></trkpt>
<trkpt lat="53.360239" lon="-1.763094"><ele>352</ele><time>2020-08-05T10:35:50Z</time><name>PT4197</name></trkpt>
<trkpt lat="53.360236" lon="-1.763076"><ele>351</ele><time>2020-08-05T10:35:51Z</time><name>PT4198</name></trkpt>
<trkpt lat="53.360233" lon="-1.763056"><ele>351</ele><time>2020-08-05T10:35:52Z</time><name>PT4199</name></trkpt>
<trkpt lat="53.360230" lon="-1.763039"><ele>350</ele><time>2020-08-05T10:35:53Z</time><name>PT4200</name></trkpt>
<trkpt lat="53.360227" lon="-1.763022"><ele>350</ele><time>2020-08-05T10:35:54Z</time><name>PT4201</name></trkpt>
<trkpt lat="53.360224" lon="-1.763004"><ele>350</ele><time>2020-08-05T10:35:55Z</time><name>PT4202</name></trkpt>
<trkpt lat="53.360222" lon="-1.762989"><ele>350</ele><time>2020-08-05T10:35:56Z</time><name>PT4203</name></trkpt>
<trkpt lat="53.360221" lon="-1.762971"><ele>350</ele><time>2020-08-05T10:35:57Z</time><name>PT4204</name></trkpt>
<trkpt lat="53.360220" lon="-1.762955"><ele>350</ele><time>2020-08-05T10:35:58Z</time><name>PT4205</name></trkpt>
<trkpt lat="53.360219" lon="-1.762937"><ele>350</ele><time>2020-08-05T10:35:59Z</time><name>PT4206</name></trkpt>
<trkpt lat="53.360218" lon="-1.762924"><ele>349</ele><time>2020-08-05T10:36:00Z</time><name>PT4207</name></trkpt>
<trkpt lat="53.360216" lon="-1.762908"><ele>350</ele><time>2020-08-05T10:36:01Z</time><name>PT4208</name></trkpt>
<trkpt lat="53.360211" lon="-1.762888"><ele>349</ele><time>2020-08-05T10:36:02Z</time><name>PT4209</name></trkpt>
<trkpt lat="53.360208" lon="-1.762869"><ele>349</ele><time>2020-08-05T10:36:03Z</time><name>PT4210</name></trkpt>
<trkpt lat="53.360205" lon="-1.762851"><ele>349</ele><time>2020-08-05T10:36:04Z</time><name>PT4211</name></trkpt>
<trkpt lat="53.360203" lon="-1.762835"><ele>348</ele><time>2020-08-05T10:36:05Z</time><name>PT4212</name></trkpt>
<trkpt lat="53.360201" lon="-1.762820"><ele>348</ele><time>2020-08-05T10:36:06Z</time><name>PT4213</name></trkpt>
<trkpt lat="53.360198" lon="-1.762804"><ele>348</ele><time>2020-08-05T10:36:07Z</time><name>PT4214</name></trkpt>
<trkpt lat="53.360198" lon="-1.762787"><ele>347</ele><time>2020-08-05T10:36:08Z</time><name>PT4215</name></trkpt>
<trkpt lat="53.360197" lon="-1.762769"><ele>347</ele><time>2020-08-05T10:36:09Z</time><name>PT4216</name></trkpt>
<trkpt lat="53.360193" lon="-1.762750"><ele>347</ele><time>2020-08-05T10:36:10Z</time><name>PT4217</name></trkpt>
<trkpt lat="53.360187" lon="-1.762730"><ele>347</ele><time>2020-08-05T10:36:11Z</time><name>PT4218</name></trkpt>
<trkpt lat="53.360181" lon="-1.762712"><ele>348</ele><time>2020-08-05T10:36:12Z</time><name>PT4219</name></trkpt>
<trkpt lat="53.360175" lon="-1.762693"><ele>347</ele><time>2020-08-05T10:36:13Z</time><name>PT4220</name></trkpt>
<trkpt lat="53.360171" lon="-1.762674"><ele>347</ele><time>2020-08-05T10:36:14Z</time><name>PT4221</name></trkpt>
<trkpt lat="53.360169" lon="-1.762658"><ele>347</ele><time>2020-08-05T10:36:15Z</time><name>PT4222</name></trkpt>
<trkpt lat="53.360169" lon="-1.762645"><ele>347</ele><time>2020-08-05T10:36:16Z</time><name>PT4223</name></trkpt>
<trkpt lat="53.360168" lon="-1.762629"><ele>347</ele><time>2020-08-05T10:36:17Z</time><name>PT4224</name></trkpt>
<trkpt lat="53.360167" lon="-1.762613"><ele>346</ele><time>2020-08-05T10:36:18Z</time><name>PT4225</name></trkpt>
<trkpt lat="53.360167" lon="-1.762595"><ele>346</ele><time>2020-08-05T10:36:19Z</time><name>PT4226</name></trkpt>
<trkpt lat="53.360165" lon="-1.762577"><ele>346</ele><time>2020-08-05T10:36:20Z</time><name>PT4227</name></trkpt>
<trkpt lat="53.360161" lon="-1.762561"><ele>346</ele><time>2020-08-05T10:36:21Z</time><name>PT4228</name></trkpt>
<trkpt lat="53.360157" lon="-1.762542"><ele>346</ele><time>2020-08-05T10:36:22Z</time><name>PT4229</name></trkpt>
<trkpt lat="53.360154" lon="-1.762521"><ele>345</ele><time>2020-08-05T10:36:23Z</time><name>PT4230</name></trkpt>
<trkpt lat="53.360154" lon="-1.762504"><ele>345</ele><time>2020-08-05T10:36:24Z</time><name>PT4231</name></trkpt>
<trkpt lat="53.360154" lon="-1.762485"><ele>344</ele><time>2020-08-05T10:36:25Z</time><name>PT4232</name></trkpt>
<trkpt lat="53.360155" lon="-1.762474"><ele>345</ele><time>2020-08-05T10:36:26Z</time><name>PT4233</name></trkpt>
<trkpt lat="53.360152" lon="-1.762459"><ele>344</ele><time>2020-08-05T10:36:27Z</time><name>PT4234</name></trkpt>
<trkpt lat="53.360148" lon="-1.762442"><ele>344</ele><time>2020-08-05T10:36:28Z</time><name>PT4235</name></trkpt>
<trkpt lat="53.360146" lon="-1.762426"><ele>344</ele><time>2020-08-05T10:36:29Z</time><name>PT4236</name></trkpt>
<trkpt lat="53.360145" lon="-1.762408"><ele>343</ele><time>2020-08-05T10:36:30Z</time><name>PT4237</name></trkpt>
<trkpt lat="53.360143" lon="-1.762392"><ele>343</ele><time>2020-08-05T10:36:31Z</time><name>PT4238</name></trkpt>
<trkpt lat="53.360141" lon="-1.762376"><ele>343</ele><time>2020-08-05T10:36:32Z</time><name>PT4239</name></trkpt>
<trkpt lat="53.360136" lon="-1.762360"><ele>343</ele><time>2020-08-05T10:36:33Z</time><name>PT4240</name></trkpt>
<trkpt lat="53.360133" lon="-1.762343"><ele>342</ele><time>2020-08-05T10:36:34Z</time><name>PT4241</name></trkpt>
<trkpt lat="53.360131" lon="-1.762325"><ele>342</ele><time>2020-08-05T10:36:35Z</time><name>PT4242</name></trkpt>
<trkpt lat="53.360130" lon="-1.762309"><ele>342</ele><time>2020-08-05T10:36:36Z</time><name>PT4243</name></trkpt>
<trkpt lat="53.360128" lon="-1.762296"><ele>341</ele><time>2020-08-05T10:36:37Z</time><name>PT4244</name></trkpt>
<trkpt lat="53.360127" lon="-1.762280"><ele>341</ele><time>2020-08-05T10:36:38Z</time><name>PT4245</name></trkpt>
<trkpt lat="53.360126" lon="-1.762263"><ele>341</ele><time>2020-08-05T10:36:39Z</time><name>PT4246</name></trkpt>
<trkpt lat="53.360121" lon="-1.762244"><ele>341</ele><time>2020-08-05T10:36:40Z</time><name>PT4247</name></trkpt>
<trkpt lat="53.360116" lon="-1.762226"><ele>340</ele><time>2020-08-05T10:36:41Z</time><name>PT4248</name></trkpt>
<trkpt lat="53.360114" lon="-1.762210"><ele>339</ele><time>2020-08-05T10:36:42Z</time><name>PT4249</name></trkpt>
<trkpt lat="53.360110" lon="-1.762197"><ele>339</ele><time>2020-08-05T10:36:43Z</time><name>PT4250</name></trkpt>
<trkpt lat="53.360105" lon="-1.762182"><ele>338</ele><time>2020-08-05T10:36:44Z</time><name>PT4251</name></trkpt>
<trkpt lat="53.360099" lon="-1.762165"><ele>338</ele><time>2020-08-05T10:36:45Z</time><name>PT4252</name></trkpt>
<trkpt lat="53.360093" lon="-1.762155"><ele>337</ele><time>2020-08-05T10:36:46Z</time><name>PT4253</name></trkpt>
<trkpt lat="53.360090" lon="-1.762143"><ele>337</ele><time>2020-08-05T10:36:47Z</time><name>PT4254</name></trkpt>
<trkpt lat="53.360087" lon="-1.762132"><ele>337</ele><time>2020-08-05T10:36:48Z</time><name>PT4255</name></trkpt>
<trkpt lat="53.360085" lon="-1.762116"><ele>337</ele><time>2020-08-05T10:36:49Z</time><name>PT4256</name></trkpt>
<trkpt lat="53.360081" lon="-1.762102"><ele>336</ele><time>2020-08-05T10:36:50Z</time><name>PT4257</name></trkpt>
<trkpt lat="53.360076" lon="-1.762090"><ele>336</ele><time>2020-08-05T10:36:51Z</time><name>PT4258</name></trkpt>
<trkpt lat="53.360071" lon="-1.762078"><ele>335</ele><time>2020-08-05T10:36:52Z</time><name>PT4259</name></trkpt>
<trkpt lat="53.360067" lon="-1.762065"><ele>335</ele><time>2020-08-05T10:36:53Z</time><name>PT4260</name></trkpt>
<trkpt lat="53.360063" lon="-1.762057"><ele>335</ele><time>2020-08-05T10:36:54Z</time><name>PT4261</name></trkpt>
<trkpt lat="53.360061" lon="-1.762045"><ele>335</ele><time>2020-08-05T10:36:55Z</time><name>PT4262</name></trkpt>
<trkpt lat="53.360060" lon="-1.762031"><ele>335</ele><time>2020-08-05T10:36:56Z</time><name>PT4263</name></trkpt>
<trkpt lat="53.360059" lon="-1.762019"><ele>334</ele><time>2020-08-05T10:36:57Z</time><name>PT4264</name></trkpt>
<trkpt lat="53.360060" lon="-1.762007"><ele>334</ele><time>2020-08-05T10:36:58Z</time><name>PT4265</name></trkpt>
<trkpt lat="53.360060" lon="-1.761994"><ele>334</ele><time>2020-08-05T10:36:59Z</time><name>PT4266</name></trkpt>
<trkpt lat="53.360060" lon="-1.761983"><ele>334</ele><time>2020-08-05T10:37:00Z</time><name>PT4267</name></trkpt>
<trkpt lat="53.360058" lon="-1.761973"><ele>334</ele><time>2020-08-05T10:37:01Z</time><name>PT4268</name></trkpt>
<trkpt lat="53.360054" lon="-1.761965"><ele>333</ele><time>2020-08-05T10:37:02Z</time><name>PT4269</name></trkpt>
<trkpt lat="53.360050" lon="-1.761955"><ele>333</ele><time>2020-08-05T10:37:03Z</time><name>PT4270</name></trkpt>
<trkpt lat="53.360047" lon="-1.761946"><ele>333</ele><time>2020-08-05T10:37:04Z</time><name>PT4271</name></trkpt>
<trkpt lat="53.360044" lon="-1.761932"><ele>333</ele><time>2020-08-05T10:37:05Z</time><name>PT4272</name></trkpt>
<trkpt lat="53.360043" lon="-1.761919"><ele>333</ele><time>2020-08-05T10:37:06Z</time><name>PT4273</name></trkpt>
<trkpt lat="53.360041" lon="-1.761903"><ele>332</ele><time>2020-08-05T10:37:07Z</time><name>PT4274</name></trkpt>
<trkpt lat="53.360041" lon="-1.761890"><ele>332</ele><time>2020-08-05T10:37:08Z</time><name>PT4275</name></trkpt>
<trkpt lat="53.360042" lon="-1.761880"><ele>331</ele><time>2020-08-05T10:37:09Z</time><name>PT4276</name></trkpt>
<trkpt lat="53.360043" lon="-1.761868"><ele>331</ele><time>2020-08-05T10:37:10Z</time><name>PT4277</name></trkpt>
<trkpt lat="53.360042" lon="-1.761854"><ele>331</ele><time>2020-08-05T10:37:11Z</time><name>PT4278</name></trkpt>
<trkpt lat="53.360040" lon="-1.761838"><ele>331</ele><time>2020-08-05T10:37:12Z</time><name>PT4279</name></trkpt>
<trkpt lat="53.360040" lon="-1.761824"><ele>331</ele><time>2020-08-05T10:37:13Z</time><name>PT4280</name></trkpt>
<trkpt lat="53.360041" lon="-1.761810"><ele>331</ele><time>2020-08-05T10:37:14Z</time><name>PT4281</name></trkpt>
<trkpt lat="53.360040" lon="-1.761796"><ele>331</ele><time>2020-08-05T10:37:15Z</time><name>PT4282</name></trkpt>
<trkpt lat="53.360040" lon="-1.761783"><ele>330</ele><time>2020-08-05T10:37:16Z</time><name>PT4283</name></trkpt>
<trkpt lat="53.360037" lon="-1.761770"><ele>330</ele><time>2020-08-05T10:37:17Z</time><name>PT4284</name></trkpt>
<trkpt lat="53.360031" lon="-1.761755"><ele>330</ele><time>2020-08-05T10:37:18Z</time><name>PT4285</name></trkpt>
<trkpt lat="53.360027" lon="-1.761742"><ele>330</ele><time>2020-08-05T10:37:19Z</time><name>PT4286</name></trkpt>
<trkpt lat="53.360023" lon="-1.761728"><ele>329</ele><time>2020-08-05T10:37:20Z</time><name>PT4287</name></trkpt>
<trkpt lat="53.360021" lon="-1.761713"><ele>329</ele><time>2020-08-05T10:37:21Z</time><name>PT4288</name></trkpt>
<trkpt lat="53.360021" lon="-1.761696"><ele>329</ele><time>2020-08-05T10:37:22Z</time><name>PT4289</name></trkpt>
<trkpt lat="53.360021" lon="-1.761683"><ele>329</ele><time>2020-08-05T10:37:23Z</time><name>PT4290</name></trkpt>
<trkpt lat="53.360019" lon="-1.761668"><ele>330</ele><time>2020-08-05T10:37:24Z</time><name>PT4291</name></trkpt>
<trkpt lat="53.360020" lon="-1.761655"><ele>330</ele><time>2020-08-05T10:37:25Z</time><name>PT4292</name></trkpt>
<trkpt lat="53.360020" lon="-1.761641"><ele>329</ele><time>2020-08-05T10:37:26Z</time><name>PT4293</name></trkpt>
<trkpt lat="53.360020" lon="-1.761628"><ele>329</ele><time>2020-08-05T10:37:27Z</time><name>PT4294</name></trkpt>
<trkpt lat="53.360019" lon="-1.761616"><ele>329</ele><time>2020-08-05T10:37:28Z</time><name>PT4295</name></trkpt>
<trkpt lat="53.360018" lon="-1.761599"><ele>329</ele><time>2020-08-05T10:37:29Z</time><name>PT4296</name></trkpt>
<trkpt lat="53.360017" lon="-1.761586"><ele>328</ele><time>2020-08-05T10:37:30Z</time><name>PT4297</name></trkpt>
<trkpt lat="53.360015" lon="-1.761571"><ele>328</ele><time>2020-08-05T10:37:31Z</time><name>PT4298</name></trkpt>
<trkpt lat="53.360013" lon="-1.761558"><ele>327</ele><time>2020-08-05T10:37:32Z</time><name>PT4299</name></trkpt>
<trkpt lat="53.360011" lon="-1.761546"><ele>327</ele><time>2020-08-05T10:37:33Z</time><name>PT4300</name></trkpt>
<trkpt lat="53.360008" lon="-1.761535"><ele>327</ele><time>2020-08-05T10:37:34Z</time><name>PT4301</name></trkpt>
<trkpt lat="53.360007" lon="-1.761524"><ele>327</ele><time>2020-08-05T10:37:35Z</time><name>PT4302</name></trkpt>
<trkpt lat="53.360004" lon="-1.761511"><ele>327</ele><time>2020-08-05T10:37:36Z</time><name>PT4303</name></trkpt>
<trkpt lat="53.360005" lon="-1.761503"><ele>327</ele><time>2020-08-05T10:37:37Z</time><name>PT4304</name></trkpt>
<trkpt lat="53.360005" lon="-1.761493"><ele>326</ele><time>2020-08-05T10:37:38Z</time><name>PT4305</name></trkpt>
<trkpt lat="53.360003" lon="-1.761481"><ele>326</ele><time>2020-08-05T10:37:39Z</time><name>PT4306</name></trkpt>
<trkpt lat="53.359999" lon="-1.761469"><ele>326</ele><time>2020-08-05T10:37:40Z</time><name>PT4307</name></trkpt>
<trkpt lat="53.359997" lon="-1.761457"><ele>326</ele><time>2020-08-05T10:37:41Z</time><name>PT4308</name></trkpt>
<trkpt lat="53.359995" lon="-1.761443"><ele>325</ele><time>2020-08-05T10:37:42Z</time><name>PT4309</name></trkpt>
<trkpt lat="53.359993" lon="-1.761428"><ele>325</ele><time>2020-08-05T10:37:43Z</time><name>PT4310</name></trkpt>
<trkpt lat="53.359991" lon="-1.761411"><ele>324</ele><time>2020-08-05T10:37:44Z</time><name>PT4311</name></trkpt>
<trkpt lat="53.359989" lon="-1.761394"><ele>324</ele><time>2020-08-05T10:37:45Z</time><name>PT4312</name></trkpt>
<trkpt lat="53.359988" lon="-1.761377"><ele>323</ele><time>2020-08-05T10:37:46Z</time><name>PT4313</name></trkpt>
<trkpt lat="53.359988" lon="-1.761363"><ele>323</ele><time>2020-08-05T10:37:47Z</time><name>PT4314</name></trkpt>
<trkpt lat="53.359987" lon="-1.761348"><ele>323</ele><time>2020-08-05T10:37:48Z</time><name>PT4315</name></trkpt>
<trkpt lat="53.359988" lon="-1.761339"><ele>323</ele><time>2020-08-05T10:37:49Z</time><name>PT4316</name></trkpt>
<trkpt lat="53.359988" lon="-1.761327"><ele>323</ele><time>2020-08-05T10:37:50Z</time><name>PT4317</name></trkpt>
<trkpt lat="53.359987" lon="-1.761313"><ele>323</ele><time>2020-08-05T10:37:51Z</time><name>PT4318</name></trkpt>
<trkpt lat="53.359986" lon="-1.761301"><ele>322</ele><time>2020-08-05T10:37:52Z</time><name>PT4319</name></trkpt>
<trkpt lat="53.359985" lon="-1.761289"><ele>322</ele><time>2020-08-05T10:37:53Z</time><name>PT4320</name></trkpt>
<trkpt lat="53.359986" lon="-1.761278"><ele>322</ele><time>2020-08-05T10:37:54Z</time><name>PT4321</name></trkpt>
<trkpt lat="53.359985" lon="-1.761265"><ele>321</ele><time>2020-08-05T10:37:55Z</time><name>PT4322</name></trkpt>
<trkpt lat="53.359983" lon="-1.761251"><ele>321</ele><time>2020-08-05T10:37:56Z</time><name>PT4323</name></trkpt>
<trkpt lat="53.359980" lon="-1.761234"><ele>320</ele><time>2020-08-05T10:37:57Z</time><name>PT4324</name></trkpt>
<trkpt lat="53.359979" lon="-1.761222"><ele>320</ele><time>2020-08-05T10:37:58Z</time><name>PT4325</name></trkpt>
<trkpt lat="53.359977" lon="-1.761210"><ele>320</ele><time>2020-08-05T10:37:59Z</time><name>PT4326</name></trkpt>
<trkpt lat="53.359975" lon="-1.761201"><ele>320</ele><time>2020-08-05T10:38:00Z</time><name>PT4327</name></trkpt>
<trkpt lat="53.359974" lon="-1.761192"><ele>320</ele><time>2020-08-05T10:38:01Z</time><name>PT4328</name></trkpt>
<trkpt lat="53.359976" lon="-1.761181"><ele>320</ele><time>2020-08-05T10:38:02Z</time><name>PT4329</name></trkpt>
<trkpt lat="53.359977" lon="-1.761168"><ele>320</ele><time>2020-08-05T10:38:03Z</time><name>PT4330</name></trkpt>
<trkpt lat="53.359976" lon="-1.761159"><ele>320</ele><time>2020-08-05T10:38:04Z</time><name>PT4331</name></trkpt>
<trkpt lat="53.359976" lon="-1.761149"><ele>320</ele><time>2020-08-05T10:38:05Z</time><name>PT4332</name></trkpt>
<trkpt lat="53.359973" lon="-1.761137"><ele>319</ele><time>2020-08-05T10:38:06Z</time><name>PT4333</name></trkpt>
<trkpt lat="53.359971" lon="-1.761125"><ele>319</ele><time>2020-08-05T10:38:07Z</time><name>PT4334</name></trkpt>
<trkpt lat="53.359971" lon="-1.761114"><ele>319</ele><time>2020-08-05T10:38:08Z</time><name>PT4335</name></trkpt>
<trkpt lat="53.359968" lon="-1.761097"><ele>318</ele><time>2020-08-05T10:38:09Z</time><name>PT4336</name></trkpt>
<trkpt lat="53.359965" lon="-1.761085"><ele>318</ele><time>2020-08-05T10:38:10Z</time><name>PT4337</name></trkpt>
<trkpt lat="53.359962" lon="-1.761067"><ele>318</ele><time>2020-08-05T10:38:11Z</time><name>PT4338</name></trkpt>
<trkpt lat="53.359958" lon="-1.761051"><ele>317</ele><time>2020-08-05T10:38:12Z</time><name>PT4339</name></trkpt>
<trkpt lat="53.359956" lon="-1.761036"><ele>317</ele><time>2020-08-05T10:38:13Z</time><name>PT4340</name></trkpt>
<trkpt lat="53.359953" lon="-1.761018"><ele>317</ele><time>2020-08-05T10:38:14Z</time><name>PT4341</name></trkpt>
<trkpt lat="53.359953" lon="-1.761002"><ele>317</ele><time>2020-08-05T10:38:15Z</time><name>PT4342</name></trkpt>
<trkpt lat="53.359953" lon="-1.760986"><ele>316</ele><time>2020-08-05T10:38:16Z</time><name>PT4343</name></trkpt>
<trkpt lat="53.359952" lon="-1.760974"><ele>316</ele><time>2020-08-05T10:38:17Z</time><name>PT4344</name></trkpt>
<trkpt lat="53.359951" lon="-1.760961"><ele>316</ele><time>2020-08-05T10:38:18Z</time><name>PT4345</name></trkpt>
<trkpt lat="53.359948" lon="-1.760951"><ele>316</ele><time>2020-08-05T10:38:19Z</time><name>PT4346</name></trkpt>
<trkpt lat="53.359946" lon="-1.760941"><ele>315</ele><time>2020-08-05T10:38:20Z</time><name>PT4347</name></trkpt>
<trkpt lat="53.359945" lon="-1.760932"><ele>315</ele><time>2020-08-05T10:38:21Z</time><name>PT4348</name></trkpt>
<trkpt lat="53.359947" lon="-1.760920"><ele>315</ele><time>2020-08-05T10:38:22Z</time><name>PT4349</name></trkpt>
<trkpt lat="53.359950" lon="-1.760909"><ele>315</ele><time>2020-08-05T10:38:23Z</time><name>PT4350</name></trkpt>
<trkpt lat="53.359954" lon="-1.760899"><ele>315</ele><time>2020-08-05T10:38:24Z</time><name>PT4351</name></trkpt>
<trkpt lat="53.359956" lon="-1.760887"><ele>315</ele><time>2020-08-05T10:38:25Z</time><name>PT4352</name></trkpt>
<trkpt lat="53.359956" lon="-1.760873"><ele>314</ele><time>2020-08-05T10:38:26Z</time><name>PT4353</name></trkpt>
<trkpt lat="53.359959" lon="-1.760861"><ele>314</ele><time>2020-08-05T10:38:27Z</time><name>PT4354</name></trkpt>
<trkpt lat="53.359960" lon="-1.760851"><ele>313</ele><time>2020-08-05T10:38:28Z</time><name>PT4355</name></trkpt>
<trkpt lat="53.359961" lon="-1.760840"><ele>313</ele><time>2020-08-05T10:38:29Z</time><name>PT4356</name></trkpt>
<trkpt lat="53.359961" lon="-1.760824"><ele>313</ele><time>2020-08-05T10:38:30Z</time><name>PT4357</name></trkpt>
<trkpt lat="53.359959" lon="-1.760810"><ele>312</ele><time>2020-08-05T10:38:31Z</time><name>PT4358</name></trkpt>
<trkpt lat="53.359961" lon="-1.760799"><ele>312</ele><time>2020-08-05T10:38:32Z</time><name>PT4359</name></trkpt>
<trkpt lat="53.359962" lon="-1.760785"><ele>312</ele><time>2020-08-05T10:38:33Z</time><name>PT4360</name></trkpt>
<trkpt lat="53.359963" lon="-1.760768"><ele>312</ele><time>2020-08-05T10:38:34Z</time><name>PT4361</name></trkpt>
<trkpt lat="53.359961" lon="-1.760755"><ele>311</ele><time>2020-08-05T10:38:35Z</time><name>PT4362</name></trkpt>
<trkpt lat="53.359962" lon="-1.760744"><ele>312</ele><time>2020-08-05T10:38:36Z</time><name>PT4363</name></trkpt>
<trkpt lat="53.359960" lon="-1.760732"><ele>311</ele><time>2020-08-05T10:38:37Z</time><name>PT4364</name></trkpt>
<trkpt lat="53.359958" lon="-1.760719"><ele>311</ele><time>2020-08-05T10:38:38Z</time><name>PT4365</name></trkpt>
<trkpt lat="53.359957" lon="-1.760703"><ele>311</ele><time>2020-08-05T10:38:39Z</time><name>PT4366</name></trkpt>
<trkpt lat="53.359956" lon="-1.760684"><ele>311</ele><time>2020-08-05T10:38:40Z</time><name>PT4367</name></trkpt>
<trkpt lat="53.359955" lon="-1.760673"><ele>310</ele><time>2020-08-05T10:38:41Z</time><name>PT4368</name></trkpt>
<trkpt lat="53.359957" lon="-1.760661"><ele>310</ele><time>2020-08-05T10:38:42Z</time><name>PT4369</name></trkpt>
<trkpt lat="53.359956" lon="-1.760646"><ele>310</ele><time>2020-08-05T10:38:43Z</time><name>PT4370</name></trkpt>
<trkpt lat="53.359955" lon="-1.760629"><ele>310</ele><time>2020-08-05T10:38:44Z</time><name>PT4371</name></trkpt>
<trkpt lat="53.359952" lon="-1.760614"><ele>309</ele><time>2020-08-05T10:38:45Z</time><name>PT4372</name></trkpt>
<trkpt lat="53.359947" lon="-1.760595"><ele>309</ele><time>2020-08-05T10:38:46Z</time><name>PT4373</name></trkpt>
<trkpt lat="53.359942" lon="-1.760577"><ele>309</ele><time>2020-08-05T10:38:47Z</time><name>PT4374</name></trkpt>
<trkpt lat="53.359942" lon="-1.760564"><ele>309</ele><time>2020-08-05T10:38:48Z</time><name>PT4375</name></trkpt>
<trkpt lat="53.359943" lon="-1.760552"><ele>310</ele><time>2020-08-05T10:38:49Z</time><name>PT4376</name></trkpt>
<trkpt lat="53.359944" lon="-1.760544"><ele>309</ele><time>2020-08-05T10:38:50Z</time><name>PT4377</name></trkpt>
<trkpt lat="53.359945" lon="-1.760531"><ele>309</ele><time>2020-08-05T10:38:51Z</time><name>PT4378</name></trkpt>
<trkpt lat="53.359946" lon="-1.760516"><ele>309</ele><time>2020-08-05T10:38:52Z</time><name>PT4379</name></trkpt>
<trkpt lat="53.359945" lon="-1.760500"><ele>308</ele><time>2020-08-05T10:38:53Z</time><name>PT4380</name></trkpt>
<trkpt lat="53.359945" lon="-1.760482"><ele>308</ele><time>2020-08-05T10:38:54Z</time><name>PT4381</name></trkpt>
<trkpt lat="53.359945" lon="-1.760464"><ele>308</ele><time>2020-08-05T10:38:55Z</time><name>PT4382</name></trkpt>
<trkpt lat="53.359947" lon="-1.760447"><ele>308</ele><time>2020-08-05T10:38:56Z</time><name>PT4383</name></trkpt>
<trkpt lat="53.359946" lon="-1.760432"><ele>307</ele><time>2020-08-05T10:38:57Z</time><name>PT4384</name></trkpt>
<trkpt lat="53.359945" lon="-1.760415"><ele>306</ele><time>2020-08-05T10:38:58Z</time><name>PT4385</name></trkpt>
<trkpt lat="53.359946" lon="-1.760402"><ele>306</ele><time>2020-08-05T10:38:59Z</time><name>PT4386</name></trkpt>
<trkpt lat="53.359942" lon="-1.760386"><ele>306</ele><time>2020-08-05T10:39:00Z</time><name>PT4387</name></trkpt>
<trkpt lat="53.359936" lon="-1.760373"><ele>306</ele><time>2020-08-05T10:39:01Z</time><name>PT4388</name></trkpt>
<trkpt lat="53.359933" lon="-1.760363"><ele>306</ele><time>2020-08-05T10:39:02Z</time><name>PT4389</name></trkpt>
<trkpt lat="53.359934" lon="-1.760351"><ele>306</ele><time>2020-08-05T10:39:03Z</time><name>PT4390</name></trkpt>
<trkpt lat="53.359934" lon="-1.760336"><ele>306</ele><time>2020-08-05T10:39:04Z</time><name>PT4391</name></trkpt>
<trkpt lat="53.359936" lon="-1.760325"><ele>306</ele><time>2020-08-05T10:39:05Z</time><name>PT4392</name></trkpt>
<trkpt lat="53.359938" lon="-1.760312"><ele>305</ele><time>2020-08-05T10:39:06Z</time><name>PT4393</name></trkpt>
<trkpt lat="53.359939" lon="-1.760300"><ele>305</ele><time>2020-08-05T10:39:07Z</time><name>PT4394</name></trkpt>
<trkpt lat="53.359937" lon="-1.760286"><ele>304</ele><time>2020-08-05T10:39:08Z</time><name>PT4395</name></trkpt>
<trkpt lat="53.359935" lon="-1.760269"><ele>304</ele><time>2020-08-05T10:39:09Z</time><name>PT4396</name></trkpt>
<trkpt lat="53.359934" lon="-1.760251"><ele>303</ele><time>2020-08-05T10:39:10Z</time><name>PT4397</name></trkpt>
<trkpt lat="53.359931" lon="-1.760234"><ele>303</ele><time>2020-08-05T10:39:11Z</time><name>PT4398</name></trkpt>
<trkpt lat="53.359927" lon="-1.760217"><ele>303</ele><time>2020-08-05T10:39:12Z</time><name>PT4399</name></trkpt>
<trkpt lat="53.359923" lon="-1.760199"><ele>303</ele><time>2020-08-05T10:39:13Z</time><name>PT4400</name></trkpt>
<trkpt lat="53.359922" lon="-1.760185"><ele>303</ele><time>2020-08-05T10:39:14Z</time><name>PT4401</name></trkpt>
<trkpt lat="53.359923" lon="-1.760168"><ele>302</ele><time>2020-08-05T10:39:15Z</time><name>PT4402</name></trkpt>
<trkpt lat="53.359923" lon="-1.760149"><ele>303</ele><time>2020-08-05T10:39:16Z</time><name>PT4403</name></trkpt>
<trkpt lat="53.359921" lon="-1.760129"><ele>302</ele><time>2020-08-05T10:39:17Z</time><name>PT4404</name></trkpt>
<trkpt lat="53.359921" lon="-1.760107"><ele>302</ele><time>2020-08-05T10:39:18Z</time><name>PT4405</name></trkpt>
<trkpt lat="53.359921" lon="-1.760092"><ele>302</ele><time>2020-08-05T10:39:19Z</time><name>PT4406</name></trkpt>
<trkpt lat="53.359918" lon="-1.760073"><ele>301</ele><time>2020-08-05T10:39:20Z</time><name>PT4407</name></trkpt>
<trkpt lat="53.359916" lon="-1.760053"><ele>301</ele><time>2020-08-05T10:39:21Z</time><name>PT4408</name></trkpt>
<trkpt lat="53.359913" lon="-1.760033"><ele>301</ele><time>2020-08-05T10:39:22Z</time><name>PT4409</name></trkpt>
<trkpt lat="53.359910" lon="-1.760013"><ele>301</ele><time>2020-08-05T10:39:23Z</time><name>PT4410</name></trkpt>
<trkpt lat="53.359910" lon="-1.759992"><ele>301</ele><time>2020-08-05T10:39:24Z</time><name>PT4411</name></trkpt>
<trkpt lat="53.359910" lon="-1.759976"><ele>300</ele><time>2020-08-05T10:39:25Z</time><name>PT4412</name></trkpt>
<trkpt lat="53.359911" lon="-1.759959"><ele>300</ele><time>2020-08-05T10:39:26Z</time><name>PT4413</name></trkpt>
<trkpt lat="53.359911" lon="-1.759940"><ele>300</ele><time>2020-08-05T10:39:27Z</time><name>PT4414</name></trkpt>
<trkpt lat="53.359910" lon="-1.759921"><ele>300</ele><time>2020-08-05T10:39:28Z</time><name>PT4415</name></trkpt>
<trkpt lat="53.359907" lon="-1.759904"><ele>300</ele><time>2020-08-05T10:39:29Z</time><name>PT4416</name></trkpt>
<trkpt lat="53.359906" lon="-1.759888"><ele>300</ele><time>2020-08-05T10:39:30Z</time><name>PT4417</name></trkpt>
<trkpt lat="53.359906" lon="-1.759873"><ele>300</ele><time>2020-08-05T10:39:31Z</time><name>PT4418</name></trkpt>
<trkpt lat="53.359905" lon="-1.759855"><ele>300</ele><time>2020-08-05T10:39:32Z</time><name>PT4419</name></trkpt>
<trkpt lat="53.359904" lon="-1.759837"><ele>299</ele><time>2020-08-05T10:39:33Z</time><name>PT4420</name></trkpt>
<trkpt lat="53.359904" lon="-1.759818"><ele>299</ele><time>2020-08-05T10:39:34Z</time><name>PT4421</name></trkpt>
<trkpt lat="53.359905" lon="-1.759800"><ele>299</ele><time>2020-08-05T10:39:35Z</time><name>PT4422</name></trkpt>
<trkpt lat="53.359905" lon="-1.759781"><ele>299</ele><time>2020-08-05T10:39:36Z</time><name>PT4423</name></trkpt>
<trkpt lat="53.359904" lon="-1.759763"><ele>299</ele><time>2020-08-05T10:39:37Z</time><name>PT4424</name></trkpt>
<trkpt lat="53.359903" lon="-1.759746"><ele>299</ele><time>2020-08-05T10:39:38Z</time><name>PT4425</name></trkpt>
<trkpt lat="53.359902" lon="-1.759730"><ele>298</ele><time>2020-08-05T10:39:39Z</time><name>PT4426</name></trkpt>
<trkpt lat="53.359904" lon="-1.759714"><ele>298</ele><time>2020-08-05T10:39:40Z</time><name>PT4427</name></trkpt>
<trkpt lat="53.359905" lon="-1.759698"><ele>298</ele><time>2020-08-05T10:39:41Z</time><name>PT4428</name></trkpt>
<trkpt lat="53.359904" lon="-1.759682"><ele>298</ele><time>2020-08-05T10:39:42Z</time><name>PT4429</name></trkpt>
<trkpt lat="53.359902" lon="-1.759667"><ele>298</ele><time>2020-08-05T10:39:43Z</time><name>PT4430</name></trkpt>
<trkpt lat="53.359899" lon="-1.759654"><ele>298</ele><time>2020-08-05T10:39:44Z</time><name>PT4431</name></trkpt>
<trkpt lat="53.359894" lon="-1.759643"><ele>298</ele><time>2020-08-05T10:39:45Z</time><name>PT4432</name></trkpt>
<trkpt lat="53.359889" lon="-1.759638"><ele>297</ele><time>2020-08-05T10:39:46Z</time><name>PT4433</name></trkpt>
<trkpt lat="53.359883" lon="-1.759632"><ele>297</ele><time>2020-08-05T10:39:47Z</time><name>PT4434</name></trkpt>
<trkpt lat="53.359880" lon="-1.759622"><ele>297</ele><time>2020-08-05T10:39:48Z</time><name>PT4435</name></trkpt>
<trkpt lat="53.359880" lon="-1.759615"><ele>297</ele><time>2020-08-05T10:39:49Z</time><name>PT4436</name></trkpt>
<trkpt lat="53.359883" lon="-1.759601"><ele>297</ele><time>2020-08-05T10:39:50Z</time><name>PT4437</name></trkpt>
<trkpt lat="53.359887" lon="-1.759581"><ele>297</ele><time>2020-08-05T10:39:51Z</time><name>PT4438</name></trkpt>
<trkpt lat="53.359892" lon="-1.759564"><ele>297</ele><time>2020-08-05T10:39:52Z</time><name>PT4439</name></trkpt>
<trkpt lat="53.359898" lon="-1.759546"><ele>297</ele><time>2020-08-05T10:39:53Z</time><name>PT4440</name></trkpt>
<trkpt lat="53.359906" lon="-1.759529"><ele>297</ele><time>2020-08-05T10:39:54Z</time><name>PT4441</name></trkpt>
<trkpt lat="53.359910" lon="-1.759512"><ele>296</ele><time>2020-08-05T10:39:55Z</time><name>PT4442</name></trkpt>
<trkpt lat="53.359914" lon="-1.759492"><ele>296</ele><time>2020-08-05T10:39:56Z</time><name>PT4443</name></trkpt>
<trkpt lat="53.359918" lon="-1.759477"><ele>295</ele><time>2020-08-05T10:39:57Z</time><name>PT4444</name></trkpt>
<trkpt lat="53.359923" lon="-1.759470"><ele>295</ele><time>2020-08-05T10:39:58Z</time><name>PT4445</name></trkpt>
<trkpt lat="53.359926" lon="-1.759468"><ele>295</ele><time>2020-08-05T10:39:59Z</time><name>PT4446</name></trkpt>
<trkpt lat="53.359927" lon="-1.759470"><ele>295</ele><time>2020-08-05T10:40:00Z</time><name>PT4447</name></trkpt>
<trkpt lat="53.359929" lon="-1.759469"><ele>294</ele><time>2020-08-05T10:40:01Z</time><name>PT4448</name></trkpt>
<trkpt lat="53.359931" lon="-1.759463"><ele>295</ele><time>2020-08-05T10:40:02Z</time><name>PT4449</name></trkpt>
<trkpt lat="53.359933" lon="-1.759457"><ele>294</ele><time>2020-08-05T10:40:03Z</time><name>PT4450</name></trkpt>
<trkpt lat="53.359937" lon="-1.759445"><ele>294</ele><time>2020-08-05T10:40:04Z</time><name>PT4451</name></trkpt>
<trkpt lat="53.359938" lon="-1.759440"><ele>293</ele><time>2020-08-05T10:40:05Z</time><name>PT4452</name></trkpt>
<trkpt lat="53.359941" lon="-1.759428"><ele>292</ele><time>2020-08-05T10:40:06Z</time><name>PT4453</name></trkpt>
<trkpt lat="53.359940" lon="-1.759414"><ele>292</ele><time>2020-08-05T10:40:07Z</time><name>PT4454</name></trkpt>
<trkpt lat="53.359942" lon="-1.759398"><ele>291</ele><time>2020-08-05T10:40:08Z</time><name>PT4455</name></trkpt>
<trkpt lat="53.359945" lon="-1.759387"><ele>291</ele><time>2020-08-05T10:40:09Z</time><name>PT4456</name></trkpt>
<trkpt lat="53.359949" lon="-1.759375"><ele>291</ele><time>2020-08-05T10:40:10Z</time><name>PT4457</name></trkpt>
<trkpt lat="53.359953" lon="-1.759362"><ele>291</ele><time>2020-08-05T10:40:11Z</time><name>PT4458</name></trkpt>
<trkpt lat="53.359957" lon="-1.759352"><ele>291</ele><time>2020-08-05T10:40:12Z</time><name>PT4459</name></trkpt>
<trkpt lat="53.359962" lon="-1.759341"><ele>290</ele><time>2020-08-05T10:40:13Z</time><name>PT4460</name></trkpt>
<trkpt lat="53.359965" lon="-1.759331"><ele>290</ele><time>2020-08-05T10:40:14Z</time><name>PT4461</name></trkpt>
<trkpt lat="53.359968" lon="-1.759319"><ele>290</ele><time>2020-08-05T10:40:15Z</time><name>PT4462</name></trkpt>
<trkpt lat="53.359970" lon="-1.759309"><ele>290</ele><time>2020-08-05T10:40:16Z</time><name>PT4463</name></trkpt>
<trkpt lat="53.359973" lon="-1.759295"><ele>290</ele><time>2020-08-05T10:40:17Z</time><name>PT4464</name></trkpt>
<trkpt lat="53.359976" lon="-1.759286"><ele>290</ele><time>2020-08-05T10:40:18Z</time><name>PT4465</name></trkpt>
<trkpt lat="53.359983" lon="-1.759277"><ele>290</ele><time>2020-08-05T10:40:19Z</time><name>PT4466</name></trkpt>
<trkpt lat="53.359991" lon="-1.759266"><ele>290</ele><time>2020-08-05T10:40:20Z</time><name>PT4467</name></trkpt>
<trkpt lat="53.359997" lon="-1.759256"><ele>291</ele><time>2020-08-05T10:40:21Z</time><name>PT4468</name></trkpt>
<trkpt lat="53.360003" lon="-1.759245"><ele>291</ele><time>2020-08-05T10:40:22Z</time><name>PT4469</name></trkpt>
<trkpt lat="53.360010" lon="-1.759232"><ele>292</ele><time>2020-08-05T10:40:23Z</time><name>PT4470</name></trkpt>
<trkpt lat="53.360012" lon="-1.759225"><ele>291</ele><time>2020-08-05T10:40:24Z</time><name>PT4471</name></trkpt>
<trkpt lat="53.360012" lon="-1.759218"><ele>291</ele><time>2020-08-05T10:40:25Z</time><name>PT4472</name></trkpt>
<trkpt lat="53.360012" lon="-1.759209"><ele>291</ele><time>2020-08-05T10:40:26Z</time><name>PT4473</name></trkpt>
<trkpt lat="53.360010" lon="-1.759199"><ele>290</ele><time>2020-08-05T10:40:27Z</time><name>PT4474</name></trkpt>
<trkpt lat="53.360010" lon="-1.759188"><ele>290</ele><time>2020-08-05T10:40:28Z</time><name>PT4475</name></trkpt>
<trkpt lat="53.360012" lon="-1.759180"><ele>290</ele><time>2020-08-05T10:40:29Z</time><name>PT4476</name></trkpt>
<trkpt lat="53.360014" lon="-1.759169"><ele>290</ele><time>2020-08-05T10:40:30Z</time><name>PT4477</name></trkpt>
<trkpt lat="53.360014" lon="-1.759159"><ele>289</ele><time>2020-08-05T10:40:31Z</time><name>PT4478</name></trkpt>
<trkpt lat="53.360013" lon="-1.759148"><ele>289</ele><time>2020-08-05T10:40:32Z</time><name>PT4479</name></trkpt>
<trkpt lat="53.360011" lon="-1.759140"><ele>289</ele><time>2020-08-05T10:40:33Z</time><name>PT4480</name></trkpt>
<trkpt lat="53.360009" lon="-1.759128"><ele>288</ele><time>2020-08-05T10:40:34Z</time><name>PT4481</name></trkpt>
<trkpt lat="53.360007" lon="-1.759112"><ele>288</ele><time>2020-08-05T10:40:35Z</time><name>PT4482</name></trkpt>
<trkpt lat="53.360003" lon="-1.759095"><ele>288</ele><time>2020-08-05T10:40:36Z</time><name>PT4483</name></trkpt>
<trkpt lat="53.360002" lon="-1.759082"><ele>288</ele><time>2020-08-05T10:40:37Z</time><name>PT4484</name></trkpt>
<trkpt lat="53.360000" lon="-1.759071"><ele>287</ele><time>2020-08-05T10:40:38Z</time><name>PT4485</name></trkpt>
<trkpt lat="53.360000" lon="-1.759051"><ele>287</ele><time>2020-08-05T10:40:39Z</time><name>PT4486</name></trkpt>
<trkpt lat="53.360001" lon="-1.759030"><ele>287</ele><time>2020-08-05T10:40:40Z</time><name>PT4487</name></trkpt>
<trkpt lat="53.360002" lon="-1.759014"><ele>286</ele><time>2020-08-05T10:40:41Z</time><name>PT4488</name></trkpt>
<trkpt lat="53.360003" lon="-1.758999"><ele>286</ele><time>2020-08-05T10:40:42Z</time><name>PT4489</name></trkpt>
<trkpt lat="53.360004" lon="-1.758988"><ele>286</ele><time>2020-08-05T10:40:43Z</time><name>PT4490</name></trkpt>
<trkpt lat="53.360005" lon="-1.758976"><ele>286</ele><time>2020-08-05T10:40:44Z</time><name>PT4491</name></trkpt>
<trkpt lat="53.360007" lon="-1.758961"><ele>286</ele><time>2020-08-05T10:40:45Z</time><name>PT4492</name></trkpt>
<trkpt lat="53.360009" lon="-1.758944"><ele>285</ele><time>2020-08-05T10:40:46Z</time><name>PT4493</name></trkpt>
<trkpt lat="53.360011" lon="-1.758928"><ele>285</ele><time>2020-08-05T10:40:47Z</time><name>PT4494</name></trkpt>
<trkpt lat="53.360011" lon="-1.758912"><ele>285</ele><time>2020-08-05T10:40:48Z</time><name>PT4495</name></trkpt>
<trkpt lat="53.360011" lon="-1.758897"><ele>285</ele><time>2020-08-05T10:40:49Z</time><name>PT4496</name></trkpt>
<trkpt lat="53.360009" lon="-1.758889"><ele>285</ele><time>2020-08-05T10:40:50Z</time><name>PT4497</name></trkpt>
<trkpt lat="53.360005" lon="-1.758880"><ele>285</ele><time>2020-08-05T10:40:51Z</time><name>PT4498</name></trkpt>
<trkpt lat="53.360000" lon="-1.758868"><ele>285</ele><time>2020-08-05T10:40:52Z</time><name>PT4499</name></trkpt>
<trkpt lat="53.359995" lon="-1.758861"><ele>284</ele><time>2020-08-05T10:40:53Z</time><name>PT4500</name></trkpt>
<trkpt lat="53.359987" lon="-1.758854"><ele>283</ele><time>2020-08-05T10:40:54Z</time><name>PT4501</name></trkpt>
<trkpt lat="53.359981" lon="-1.758839"><ele>283</ele><time>2020-08-05T10:40:55Z</time><name>PT4502</name></trkpt>
<trkpt lat="53.359978" lon="-1.758821"><ele>282</ele><time>2020-08-05T10:40:56Z</time><name>PT4503</name></trkpt>
<trkpt lat="53.359974" lon="-1.758807"><ele>282</ele><time>2020-08-05T10:40:57Z</time><name>PT4504</name></trkpt>
<trkpt lat="53.359973" lon="-1.758794"><ele>282</ele><time>2020-08-05T10:40:58Z</time><name>PT4505</name></trkpt>
<trkpt lat="53.359973" lon="-1.758780"><ele>282</ele><time>2020-08-05T10:40:59Z</time><name>PT4506</name></trkpt>
<trkpt lat="53.359973" lon="-1.758765"><ele>281</ele><time>2020-08-05T10:41:00Z</time><name>PT4507</name></trkpt>
<trkpt lat="53.359973" lon="-1.758748"><ele>281</ele><time>2020-08-05T10:41:01Z</time><name>PT4508</name></trkpt>
<trkpt lat="53.359972" lon="-1.758737"><ele>281</ele><time>2020-08-05T10:41:02Z</time><name>PT4509</name></trkpt>
<trkpt lat="53.359969" lon="-1.758726"><ele>281</ele><time>2020-08-05T10:41:03Z</time><name>PT4510</name></trkpt>
<trkpt lat="53.359966" lon="-1.758711"><ele>281</ele><time>2020-08-05T10:41:04Z</time><name>PT4511</name></trkpt>
<trkpt lat="53.359963" lon="-1.758698"><ele>281</ele><time>2020-08-05T10:41:05Z</time><name>PT4512</name></trkpt>
<trkpt lat="53.359963" lon="-1.758692"><ele>280</ele><time>2020-08-05T10:41:06Z</time><name>PT4513</name></trkpt>
<trkpt lat="53.359962" lon="-1.758678"><ele>280</ele><time>2020-08-05T10:41:07Z</time><name>PT4514</name></trkpt>
<trkpt lat="53.359959" lon="-1.758668"><ele>280</ele><time>2020-08-05T10:41:08Z</time><name>PT4515</name></trkpt>
<trkpt lat="53.359957" lon="-1.758659"><ele>280</ele><time>2020-08-05T10:41:09Z</time><name>PT4516</name></trkpt>
<trkpt lat="53.359956" lon="-1.758646"><ele>280</ele><time>2020-08-05T10:41:10Z</time><name>PT4517</name></trkpt>
<trkpt lat="53.359957" lon="-1.758633"><ele>280</ele><time>2020-08-05T10:41:11Z</time><name>PT4518</name></trkpt>
<trkpt lat="53.359959" lon="-1.758617"><ele>279</ele><time>2020-08-05T10:41:12Z</time><name>PT4519</name></trkpt>
<trkpt lat="53.359961" lon="-1.758602"><ele>279</ele><time>2020-08-05T10:41:13Z</time><name>PT4520</name></trkpt>
<trkpt lat="53.359963" lon="-1.758591"><ele>279</ele><time>2020-08-05T10:41:14Z</time><name>PT4521</name></trkpt>
<trkpt lat="53.359963" lon="-1.758578"><ele>279</ele><time>2020-08-05T10:41:15Z</time><name>PT4522</name></trkpt>
<trkpt lat="53.359965" lon="-1.758563"><ele>279</ele><time>2020-08-05T10:41:16Z</time><name>PT4523</name></trkpt>
<trkpt lat="53.359968" lon="-1.758547"><ele>278</ele><time>2020-08-05T10:41:17Z</time><name>PT4524</name></trkpt>
<trkpt lat="53.359967" lon="-1.758532"><ele>278</ele><time>2020-08-05T10:41:18Z</time><name>PT4525</name></trkpt>
<trkpt lat="53.359966" lon="-1.758519"><ele>279</ele><time>2020-08-05T10:41:19Z</time><name>PT4526</name></trkpt>
<trkpt lat="53.359963" lon="-1.758501"><ele>278</ele><time>2020-08-05T10:41:20Z</time><name>PT4527</name></trkpt>
<trkpt lat="53.359961" lon="-1.758483"><ele>278</ele><time>2020-08-05T10:41:21Z</time><name>PT4528</name></trkpt>
<trkpt lat="53.359959" lon="-1.758467"><ele>278</ele><time>2020-08-05T10:41:22Z</time><name>PT4529</name></trkpt>
<trkpt lat="53.359958" lon="-1.758451"><ele>277</ele><time>2020-08-05T10:41:23Z</time><name>PT4530</name></trkpt>
<trkpt lat="53.359958" lon="-1.758438"><ele>277</ele><time>2020-08-05T10:41:24Z</time><name>PT4531</name></trkpt>
<trkpt lat="53.359958" lon="-1.758432"><ele>277</ele><time>2020-08-05T10:41:25Z</time><name>PT4532</name></trkpt>
<trkpt lat="53.359957" lon="-1.758423"><ele>277</ele><time>2020-08-05T10:41:26Z</time><name>PT4533</name></trkpt>
<trkpt lat="53.359955" lon="-1.758412"><ele>277</ele><time>2020-08-05T10:41:27Z</time><name>PT4534</name></trkpt>
<trkpt lat="53.359952" lon="-1.758398"><ele>277</ele><time>2020-08-05T10:41:28Z</time><name>PT4535</name></trkpt>
<trkpt lat="53.359949" lon="-1.758390"><ele>277</ele><time>2020-08-05T10:41:29Z</time><name>PT4536</name></trkpt>
<trkpt lat="53.359948" lon="-1.758377"><ele>278</ele><time>2020-08-05T10:41:30Z</time><name>PT4537</name></trkpt>
<trkpt lat="53.359943" lon="-1.758366"><ele>276</ele><time>2020-08-05T10:41:31Z</time><name>PT4538</name></trkpt>
<trkpt lat="53.359943" lon="-1.758349"><ele>276</ele><time>2020-08-05T10:41:32Z</time><name>PT4539</name></trkpt>
<trkpt lat="53.359942" lon="-1.758336"><ele>276</ele><time>2020-08-05T10:41:33Z</time><name>PT4540</name></trkpt>
<trkpt lat="53.359944" lon="-1.758321"><ele>276</ele><time>2020-08-05T10:41:34Z</time><name>PT4541</name></trkpt>
<trkpt lat="53.359948" lon="-1.758304"><ele>276</ele><time>2020-08-05T10:41:35Z</time><name>PT4542</name></trkpt>
<trkpt lat="53.359950" lon="-1.758287"><ele>276</ele><time>2020-08-05T10:41:36Z</time><name>PT4543</name></trkpt>
<trkpt lat="53.359950" lon="-1.758274"><ele>275</ele><time>2020-08-05T10:41:37Z</time><name>PT4544</name></trkpt>
<trkpt lat="53.359949" lon="-1.758263"><ele>275</ele><time>2020-08-05T10:41:38Z</time><name>PT4545</name></trkpt>
<trkpt lat="53.359949" lon="-1.758250"><ele>275</ele><time>2020-08-05T10:41:39Z</time><name>PT4546</name></trkpt>
<trkpt lat="53.359948" lon="-1.758232"><ele>275</ele><time>2020-08-05T10:41:40Z</time><name>PT4547</name></trkpt>
<trkpt lat="53.359946" lon="-1.758213"><ele>274</ele><time>2020-08-05T10:41:41Z</time><name>PT4548</name></trkpt>
<trkpt lat="53.359952" lon="-1.758198"><ele>274</ele><time>2020-08-05T10:41:42Z</time><name>PT4549</name></trkpt>
<trkpt lat="53.359950" lon="-1.758188"><ele>272</ele><time>2020-08-05T10:41:43Z</time><name>PT4550</name></trkpt>
<trkpt lat="53.359951" lon="-1.758174"><ele>272</ele><time>2020-08-05T10:41:44Z</time><name>PT4551</name></trkpt>
<trkpt lat="53.359947" lon="-1.758161"><ele>271</ele><time>2020-08-05T10:41:45Z</time><name>PT4552</name></trkpt>
<trkpt lat="53.359946" lon="-1.758145"><ele>270</ele><time>2020-08-05T10:41:46Z</time><name>PT4553</name></trkpt>
<trkpt lat="53.359944" lon="-1.758125"><ele>270</ele><time>2020-08-05T10:41:47Z</time><name>PT4554</name></trkpt>
<trkpt lat="53.359944" lon="-1.758105"><ele>270</ele><time>2020-08-05T10:41:48Z</time><name>PT4555</name></trkpt>
<trkpt lat="53.359940" lon="-1.758093"><ele>270</ele><time>2020-08-05T10:41:49Z</time><name>PT4556</name></trkpt>
<trkpt lat="53.359939" lon="-1.758080"><ele>269</ele><time>2020-08-05T10:41:50Z</time><name>PT4557</name></trkpt>
<trkpt lat="53.359938" lon="-1.758066"><ele>269</ele><time>2020-08-05T10:41:51Z</time><name>PT4558</name></trkpt>
<trkpt lat="53.359937" lon="-1.758051"><ele>269</ele><time>2020-08-05T10:41:52Z</time><name>PT4559</name></trkpt>
<trkpt lat="53.359938" lon="-1.758030"><ele>269</ele><time>2020-08-05T10:41:53Z</time><name>PT4560</name></trkpt>
<trkpt lat="53.359942" lon="-1.758006"><ele>269</ele><time>2020-08-05T10:41:54Z</time><name>PT4561</name></trkpt>
<trkpt lat="53.359942" lon="-1.757989"><ele>269</ele><time>2020-08-05T10:41:55Z</time><name>PT4562</name></trkpt>
<trkpt lat="53.359939" lon="-1.757971"><ele>269</ele><time>2020-08-05T10:41:56Z</time><name>PT4563</name></trkpt>
<trkpt lat="53.359934" lon="-1.757948"><ele>268</ele><time>2020-08-05T10:41:57Z</time><name>PT4564</name></trkpt>
<trkpt lat="53.359925" lon="-1.757931"><ele>268</ele><time>2020-08-05T10:41:58Z</time><name>PT4565</name></trkpt>
<trkpt lat="53.359921" lon="-1.757914"><ele>268</ele><time>2020-08-05T10:41:59Z</time><name>PT4566</name></trkpt>
<trkpt lat="53.359915" lon="-1.757901"><ele>268</ele><time>2020-08-05T10:42:00Z</time><name>PT4567</name></trkpt>
<trkpt lat="53.359911" lon="-1.757887"><ele>268</ele><time>2020-08-05T10:42:01Z</time><name>PT4568</name></trkpt>
<trkpt lat="53.359908" lon="-1.757869"><ele>268</ele><time>2020-08-05T10:42:02Z</time><name>PT4569</name></trkpt>
<trkpt lat="53.359906" lon="-1.757850"><ele>267</ele><time>2020-08-05T10:42:03Z</time><name>PT4570</name></trkpt>
<trkpt lat="53.359904" lon="-1.757830"><ele>267</ele><time>2020-08-05T10:42:04Z</time><name>PT4571</name></trkpt>
<trkpt lat="53.359902" lon="-1.757816"><ele>266</ele><time>2020-08-05T10:42:05Z</time><name>PT4572</name></trkpt>
<trkpt lat="53.359900" lon="-1.757808"><ele>266</ele><time>2020-08-05T10:42:06Z</time><name>PT4573</name></trkpt>
<trkpt lat="53.359896" lon="-1.757794"><ele>265</ele><time>2020-08-05T10:42:07Z</time><name>PT4574</name></trkpt>
<trkpt lat="53.359892" lon="-1.757776"><ele>265</ele><time>2020-08-05T10:42:08Z</time><name>PT4575</name></trkpt>
<trkpt lat="53.359891" lon="-1.757758"><ele>265</ele><time>2020-08-05T10:42:09Z</time><name>PT4576</name></trkpt>
<trkpt lat="53.359890" lon="-1.757738"><ele>265</ele><time>2020-08-05T10:42:10Z</time><name>PT4577</name></trkpt>
<trkpt lat="53.359887" lon="-1.757715"><ele>264</ele><time>2020-08-05T10:42:11Z</time><name>PT4578</name></trkpt>
<trkpt lat="53.359886" lon="-1.757691"><ele>265</ele><time>2020-08-05T10:42:12Z</time><name>PT4579</name></trkpt>
<trkpt lat="53.359884" lon="-1.757670"><ele>264</ele><time>2020-08-05T10:42:13Z</time><name>PT4580</name></trkpt>
<trkpt lat="53.359885" lon="-1.757648"><ele>264</ele><time>2020-08-05T10:42:14Z</time><name>PT4581</name></trkpt>
<trkpt lat="53.359889" lon="-1.757631"><ele>264</ele><time>2020-08-05T10:42:15Z</time><name>PT4582</name></trkpt>
<trkpt lat="53.359891" lon="-1.757610"><ele>264</ele><time>2020-08-05T10:42:16Z</time><name>PT4583</name></trkpt>
<trkpt lat="53.359889" lon="-1.757596"><ele>263</ele><time>2020-08-05T10:42:17Z</time><name>PT4584</name></trkpt>
<trkpt lat="53.359888" lon="-1.757581"><ele>263</ele><time>2020-08-05T10:42:18Z</time><name>PT4585</name></trkpt>
<trkpt lat="53.359886" lon="-1.757560"><ele>262</ele><time>2020-08-05T10:42:19Z</time><name>PT4586</name></trkpt>
<trkpt lat="53.359885" lon="-1.757534"><ele>262</ele><time>2020-08-05T10:42:20Z</time><name>PT4587</name></trkpt>
<trkpt lat="53.359883" lon="-1.757513"><ele>262</ele><time>2020-08-05T10:42:21Z</time><name>PT4588</name></trkpt>
<trkpt lat="53.359882" lon="-1.757489"><ele>262</ele><time>2020-08-05T10:42:22Z</time><name>PT4589</name></trkpt>
<trkpt lat="53.359879" lon="-1.757466"><ele>262</ele><time>2020-08-05T10:42:23Z</time><name>PT4590</name></trkpt>
<trkpt lat="53.359879" lon="-1.757443"><ele>262</ele><time>2020-08-05T10:42:24Z</time><name>PT4591</name></trkpt>
<trkpt lat="53.359878" lon="-1.757425"><ele>262</ele><time>2020-08-05T10:42:25Z</time><name>PT4592</name></trkpt>
<trkpt lat="53.359878" lon="-1.757407"><ele>262</ele><time>2020-08-05T10:42:26Z</time><name>PT4593</name></trkpt>
<trkpt lat="53.359877" lon="-1.757392"><ele>261</ele><time>2020-08-05T10:42:27Z</time><name>PT4594</name></trkpt>
<trkpt lat="53.359875" lon="-1.757379"><ele>261</ele><time>2020-08-05T10:42:28Z</time><name>PT4595</name></trkpt>
<trkpt lat="53.359870" lon="-1.757364"><ele>261</ele><time>2020-08-05T10:42:29Z</time><name>PT4596</name></trkpt>
<trkpt lat="53.359868" lon="-1.757350"><ele>260</ele><time>2020-08-05T10:42:30Z</time><name>PT4597</name></trkpt>
<trkpt lat="53.359866" lon="-1.757339"><ele>260</ele><time>2020-08-05T10:42:31Z</time><name>PT4598</name></trkpt>
<trkpt lat="53.359864" lon="-1.757327"><ele>260</ele><time>2020-08-05T10:42:32Z</time><name>PT4599</name></trkpt>
<trkpt lat="53.359861" lon="-1.757314"><ele>260</ele><time>2020-08-05T10:42:33Z</time><name>PT4600</name></trkpt>
<trkpt lat="53.359856" lon="-1.757294"><ele>259</ele><time>2020-08-05T10:42:34Z</time><name>PT4601</name></trkpt>
<trkpt lat="53.359852" lon="-1.757279"><ele>259</ele><time>2020-08-05T10:42:35Z</time><name>PT4602</name></trkpt>
<trkpt lat="53.359849" lon="-1.757263"><ele>259</ele><time>2020-08-05T10:42:36Z</time><name>PT4603</name></trkpt>
<trkpt lat="53.359844" lon="-1.757251"><ele>258</ele><time>2020-08-05T10:42:37Z</time><name>PT4604</name></trkpt>
<trkpt lat="53.359844" lon="-1.757238"><ele>259</ele><time>2020-08-05T10:42:38Z</time><name>PT4605</name></trkpt>
<trkpt lat="53.359843" lon="-1.757214"><ele>258</ele><time>2020-08-05T10:42:39Z</time><name>PT4606</name></trkpt>
<trkpt lat="53.359842" lon="-1.757193"><ele>258</ele><time>2020-08-05T10:42:40Z</time><name>PT4607</name></trkpt>
<trkpt lat="53.359843" lon="-1.757170"><ele>259</ele><time>2020-08-05T10:42:41Z</time><name>PT4608</name></trkpt>
<trkpt lat="53.359844" lon="-1.757152"><ele>259</ele><time>2020-08-05T10:42:42Z</time><name>PT4609</name></trkpt>
<trkpt lat="53.359845" lon="-1.757139"><ele>258</ele><time>2020-08-05T10:42:43Z</time><name>PT4610</name></trkpt>
<trkpt lat="53.359843" lon="-1.757126"><ele>258</ele><time>2020-08-05T10:42:44Z</time><name>PT4611</name></trkpt>
<trkpt lat="53.359841" lon="-1.757111"><ele>258</ele><time>2020-08-05T10:42:45Z</time><name>PT4612</name></trkpt>
<trkpt lat="53.359841" lon="-1.757099"><ele>258</ele><time>2020-08-05T10:42:46Z</time><name>PT4613</name></trkpt>
<trkpt lat="53.359836" lon="-1.757086"><ele>257</ele><time>2020-08-05T10:42:47Z</time><name>PT4614</name></trkpt>
<trkpt lat="53.359834" lon="-1.757077"><ele>257</ele><time>2020-08-05T10:42:48Z</time><name>PT4615</name></trkpt>
<trkpt lat="53.359832" lon="-1.757060"><ele>257</ele><time>2020-08-05T10:42:49Z</time><name>PT4616</name></trkpt>
<trkpt lat="53.359829" lon="-1.757044"><ele>257</ele><time>2020-08-05T10:42:50Z</time><name>PT4617</name></trkpt>
<trkpt lat="53.359825" lon="-1.757027"><ele>257</ele><time>2020-08-05T10:42:51Z</time><name>PT4618</name></trkpt>
<trkpt lat="53.359823" lon="-1.757011"><ele>257</ele><time>2020-08-05T10:42:52Z</time><name>PT4619</name></trkpt>
<trkpt lat="53.359825" lon="-1.756995"><ele>257</ele><time>2020-08-05T10:42:53Z</time><name>PT4620</name></trkpt>
<trkpt lat="53.359826" lon="-1.756977"><ele>256</ele><time>2020-08-05T10:42:54Z</time><name>PT4621</name></trkpt>
<trkpt lat="53.359823" lon="-1.756960"><ele>256</ele><time>2020-08-05T10:42:55Z</time><name>PT4622</name></trkpt>
<trkpt lat="53.359820" lon="-1.756943"><ele>256</ele><time>2020-08-05T10:42:56Z</time><name>PT4623</name></trkpt>
<trkpt lat="53.359817" lon="-1.756929"><ele>256</ele><time>2020-08-05T10:42:57Z</time><name>PT4624</name></trkpt>
<trkpt lat="53.359814" lon="-1.756912"><ele>256</ele><time>2020-08-05T10:42:58Z</time><name>PT4625</name></trkpt>
<trkpt lat="53.359807" lon="-1.756900"><ele>255</ele><time>2020-08-05T10:42:59Z</time><name>PT4626</name></trkpt>
<trkpt lat="53.359802" lon="-1.756893"><ele>255</ele><time>2020-08-05T10:43:00Z</time><name>PT4627</name></trkpt>
<trkpt lat="53.359794" lon="-1.756886"><ele>255</ele><time>2020-08-05T10:43:01Z</time><name>PT4628</name></trkpt>
<trkpt lat="53.359789" lon="-1.756882"><ele>255</ele><time>2020-08-05T10:43:02Z</time><name>PT4629</name></trkpt>
<trkpt lat="53.359784" lon="-1.756874"><ele>255</ele><time>2020-08-05T10:43:03Z</time><name>PT4630</name></trkpt>
<trkpt lat="53.359778" lon="-1.756864"><ele>254</ele><time>2020-08-05T10:43:04Z</time><name>PT4631</name></trkpt>
<trkpt lat="53.359772" lon="-1.756857"><ele>254</ele><time>2020-08-05T10:43:05Z</time><name>PT4632</name></trkpt>
<trkpt lat="53.359764" lon="-1.756848"><ele>254</ele><time>2020-08-05T10:43:06Z</time><name>PT4633</name></trkpt>
<trkpt lat="53.359758" lon="-1.756844"><ele>253</ele><time>2020-08-05T10:43:07Z</time><name>PT4634</name></trkpt>
<trkpt lat="53.359754" lon="-1.756840"><ele>253</ele><time>2020-08-05T10:43:08Z</time><name>PT4635</name></trkpt>
<trkpt lat="53.359752" lon="-1.756835"><ele>253</ele><time>2020-08-05T10:43:09Z</time><name>PT4636</name></trkpt>
<trkpt lat="53.359748" lon="-1.756838"><ele>252</ele><time>2020-08-05T10:43:10Z</time><name>PT4637</name></trkpt>
<trkpt lat="53.359747" lon="-1.756833"><ele>253</ele><time>2020-08-05T10:43:11Z</time><name>PT4638</name></trkpt>
<trkpt lat="53.359746" lon="-1.756829"><ele>253</ele><time>2020-08-05T10:43:12Z</time><name>PT4639</name></trkpt>
<trkpt lat="53.359746" lon="-1.756825"><ele>253</ele><time>2020-08-05T10:43:13Z</time><name>PT4640</name></trkpt>
<trkpt lat="53.359740" lon="-1.756813"><ele>253</ele><time>2020-08-05T10:43:14Z</time><name>PT4641</name></trkpt>
<trkpt lat="53.359735" lon="-1.756804"><ele>253</ele><time>2020-08-05T10:43:15Z</time><name>PT4642</name></trkpt>
<trkpt lat="53.359732" lon="-1.756795"><ele>253</ele><time>2020-08-05T10:43:16Z</time><name>PT4643</name></trkpt>
<trkpt lat="53.359729" lon="-1.756785"><ele>254</ele><time>2020-08-05T10:43:17Z</time><name>PT4644</name></trkpt>
<trkpt lat="53.359722" lon="-1.756775"><ele>254</ele><time>2020-08-05T10:43:18Z</time><name>PT4645</name></trkpt>
<trkpt lat="53.359716" lon="-1.756762"><ele>254</ele><time>2020-08-05T10:43:19Z</time><name>PT4646</name></trkpt>
<trkpt lat="53.359712" lon="-1.756754"><ele>254</ele><time>2020-08-05T10:43:20Z</time><name>PT4647</name></trkpt>
<trkpt lat="53.359710" lon="-1.756748"><ele>254</ele><time>2020-08-05T10:43:21Z</time><name>PT4648</name></trkpt>
<trkpt lat="53.359710" lon="-1.756737"><ele>254</ele><time>2020-08-05T10:43:22Z</time><name>PT4649</name></trkpt>
<trkpt lat="53.359706" lon="-1.756724"><ele>254</ele><time>2020-08-05T10:43:23Z</time><name>PT4650</name></trkpt>
<trkpt lat="53.359704" lon="-1.756709"><ele>254</ele><time>2020-08-05T10:43:24Z</time><name>PT4651</name></trkpt>
<trkpt lat="53.359704" lon="-1.756705"><ele>254</ele><time>2020-08-05T10:43:25Z</time><name>PT4652</name></trkpt>
<trkpt lat="53.359704" lon="-1.756696"><ele>254</ele><time>2020-08-05T10:43:26Z</time><name>PT4653</name></trkpt>
<trkpt lat="53.359705" lon="-1.756687"><ele>254</ele><time>2020-08-05T10:43:27Z</time><name>PT4654</name></trkpt>
<trkpt lat="53.359707" lon="-1.756673"><ele>254</ele><time>2020-08-05T10:43:28Z</time><name>PT4655</name></trkpt>
<trkpt lat="53.359707" lon="-1.756662"><ele>253</ele><time>2020-08-05T10:43:31Z</time><name>PT4656</name></trkpt>
<trkpt lat="53.359699" lon="-1.756640"><ele>253</ele><time>2020-08-05T10:43:32Z</time><name>PT4657</name></trkpt>
<trkpt lat="53.359695" lon="-1.756611"><ele>253</ele><time>2020-08-05T10:43:33Z</time><name>PT4658</name></trkpt>
<trkpt lat="53.359694" lon="-1.756586"><ele>254</ele><time>2020-08-05T10:43:34Z</time><name>PT4659</name></trkpt>
<trkpt lat="53.359693" lon="-1.756566"><ele>253</ele><time>2020-08-05T10:43:35Z</time><name>PT4660</name></trkpt>
<trkpt lat="53.359690" lon="-1.756551"><ele>253</ele><time>2020-08-05T10:43:36Z</time><name>PT4661</name></trkpt>
<trkpt lat="53.359687" lon="-1.756545"><ele>252</ele><time>2020-08-05T10:43:37Z</time><name>PT4662</name></trkpt>
<trkpt lat="53.359685" lon="-1.756536"><ele>252</ele><time>2020-08-05T10:43:38Z</time><name>PT4663</name></trkpt>
<trkpt lat="53.359682" lon="-1.756525"><ele>252</ele><time>2020-08-05T10:43:39Z</time><name>PT4664</name></trkpt>
<trkpt lat="53.359683" lon="-1.756508"><ele>252</ele><time>2020-08-05T10:43:40Z</time><name>PT4665</name></trkpt>
<trkpt lat="53.359683" lon="-1.756499"><ele>251</ele><time>2020-08-05T10:43:41Z</time><name>PT4666</name></trkpt>
<trkpt lat="53.359679" lon="-1.756488"><ele>251</ele><time>2020-08-05T10:43:43Z</time><name>PT4667</name></trkpt>
<trkpt lat="53.359668" lon="-1.756482"><ele>250</ele><time>2020-08-05T10:43:44Z</time><name>PT4668</name></trkpt>
<trkpt lat="53.359655" lon="-1.756461"><ele>248</ele><time>2020-08-05T10:43:45Z</time><name>PT4669</name></trkpt>
<trkpt lat="53.359652" lon="-1.756448"><ele>248</ele><time>2020-08-05T10:43:46Z</time><name>PT4670</name></trkpt>
<trkpt lat="53.359651" lon="-1.756432"><ele>247</ele><time>2020-08-05T10:43:47Z</time><name>PT4671</name></trkpt>
<trkpt lat="53.359649" lon="-1.756422"><ele>247</ele><time>2020-08-05T10:43:48Z</time><name>PT4672</name></trkpt>
<trkpt lat="53.359645" lon="-1.756410"><ele>246</ele><time>2020-08-05T10:43:49Z</time><name>PT4673</name></trkpt>
<trkpt lat="53.359645" lon="-1.756395"><ele>246</ele><time>2020-08-05T10:43:50Z</time><name>PT4674</name></trkpt>
<trkpt lat="53.359643" lon="-1.756377"><ele>246</ele><time>2020-08-05T10:43:51Z</time><name>PT4675</name></trkpt>
<trkpt lat="53.359639" lon="-1.756363"><ele>246</ele><time>2020-08-05T10:43:52Z</time><name>PT4676</name></trkpt>
<trkpt lat="53.359633" lon="-1.756353"><ele>246</ele><time>2020-08-05T10:43:53Z</time><name>PT4677</name></trkpt>
<trkpt lat="53.359628" lon="-1.756335"><ele>246</ele><time>2020-08-05T10:43:54Z</time><name>PT4678</name></trkpt>
<trkpt lat="53.359629" lon="-1.756314"><ele>247</ele><time>2020-08-05T10:43:55Z</time><name>PT4679</name></trkpt>
<trkpt lat="53.359628" lon="-1.756301"><ele>247</ele><time>2020-08-05T10:43:56Z</time><name>PT4680</name></trkpt>
<trkpt lat="53.359627" lon="-1.756288"><ele>247</ele><time>2020-08-05T10:43:57Z</time><name>PT4681</name></trkpt>
<trkpt lat="53.359623" lon="-1.756279"><ele>247</ele><time>2020-08-05T10:43:58Z</time><name>PT4682</name></trkpt>
<trkpt lat="53.359620" lon="-1.756272"><ele>247</ele><time>2020-08-05T10:43:59Z</time><name>PT4683</name></trkpt>
<trkpt lat="53.359619" lon="-1.756259"><ele>247</ele><time>2020-08-05T10:44:00Z</time><name>PT4684</name></trkpt>
<trkpt lat="53.359618" lon="-1.756251"><ele>247</ele><time>2020-08-05T10:44:01Z</time><name>PT4685</name></trkpt>
<trkpt lat="53.359616" lon="-1.756242"><ele>247</ele><time>2020-08-05T10:44:02Z</time><name>PT4686</name></trkpt>
<trkpt lat="53.359613" lon="-1.756232"><ele>247</ele><time>2020-08-05T10:44:03Z</time><name>PT4687</name></trkpt>
<trkpt lat="53.359611" lon="-1.756220"><ele>247</ele><time>2020-08-05T10:44:04Z</time><name>PT4688</name></trkpt>
<trkpt lat="53.359611" lon="-1.756213"><ele>246</ele><time>2020-08-05T10:44:05Z</time><name>PT4689</name></trkpt>
<trkpt lat="53.359607" lon="-1.756198"><ele>246</ele><time>2020-08-05T10:44:06Z</time><name>PT4690</name></trkpt>
<trkpt lat="53.359605" lon="-1.756186"><ele>245</ele><time>2020-08-05T10:44:07Z</time><name>PT4691</name></trkpt>
<trkpt lat="53.359603" lon="-1.756176"><ele>245</ele><time>2020-08-05T10:44:08Z</time><name>PT4692</name></trkpt>
<trkpt lat="53.359600" lon="-1.756163"><ele>246</ele><time>2020-08-05T10:44:09Z</time><name>PT4693</name></trkpt>
<trkpt lat="53.359595" lon="-1.756146"><ele>246</ele><time>2020-08-05T10:44:10Z</time><name>PT4694</name></trkpt>
<trkpt lat="53.359592" lon="-1.756126"><ele>247</ele><time>2020-08-05T10:44:11Z</time><name>PT4695</name></trkpt>
<trkpt lat="53.359588" lon="-1.756109"><ele>246</ele><time>2020-08-05T10:44:12Z</time><name>PT4696</name></trkpt>
<trkpt lat="53.359584" lon="-1.756095"><ele>246</ele><time>2020-08-05T10:44:13Z</time><name>PT4697</name></trkpt>
<trkpt lat="53.359582" lon="-1.756084"><ele>246</ele><time>2020-08-05T10:44:14Z</time><name>PT4698</name></trkpt>
<trkpt lat="53.359579" lon="-1.756075"><ele>245</ele><time>2020-08-05T10:44:15Z</time><name>PT4699</name></trkpt>
<trkpt lat="53.359576" lon="-1.756064"><ele>243</ele><time>2020-08-05T10:44:16Z</time><name>PT4700</name></trkpt>
<trkpt lat="53.359574" lon="-1.756053"><ele>243</ele><time>2020-08-05T10:44:17Z</time><name>PT4701</name></trkpt>
<trkpt lat="53.359575" lon="-1.756044"><ele>242</ele><time>2020-08-05T10:44:18Z</time><name>PT4702</name></trkpt>
<trkpt lat="53.359574" lon="-1.756036"><ele>242</ele><time>2020-08-05T10:44:19Z</time><name>PT4703</name></trkpt>
<trkpt lat="53.359572" lon="-1.756029"><ele>242</ele><time>2020-08-05T10:44:20Z</time><name>PT4704</name></trkpt>
<trkpt lat="53.359570" lon="-1.756020"><ele>242</ele><time>2020-08-05T10:44:21Z</time><name>PT4705</name></trkpt>
<trkpt lat="53.359569" lon="-1.756009"><ele>242</ele><time>2020-08-05T10:44:22Z</time><name>PT4706</name></trkpt>
<trkpt lat="53.359567" lon="-1.755996"><ele>241</ele><time>2020-08-05T10:44:28Z</time><name>PT4707</name></trkpt>
<trkpt lat="53.359564" lon="-1.755976"><ele>241</ele><time>2020-08-05T10:44:29Z</time><name>PT4708</name></trkpt>
<trkpt lat="53.359560" lon="-1.755962"><ele>240</ele><time>2020-08-05T10:44:30Z</time><name>PT4709</name></trkpt>
<trkpt lat="53.359555" lon="-1.755945"><ele>240</ele><time>2020-08-05T10:44:31Z</time><name>PT4710</name></trkpt>
<trkpt lat="53.359551" lon="-1.755929"><ele>240</ele><time>2020-08-05T10:44:32Z</time><name>PT4711</name></trkpt>
<trkpt lat="53.359546" lon="-1.755899"><ele>239</ele><time>2020-08-05T10:44:33Z</time><name>PT4712</name></trkpt>
<trkpt lat="53.359540" lon="-1.755875"><ele>238</ele><time>2020-08-05T10:44:34Z</time><name>PT4713</name></trkpt>
<trkpt lat="53.359537" lon="-1.755849"><ele>238</ele><time>2020-08-05T10:44:35Z</time><name>PT4714</name></trkpt>
<trkpt lat="53.359518" lon="-1.755832"><ele>237</ele><time>2020-08-05T10:44:36Z</time><name>PT4715</name></trkpt>
<trkpt lat="53.359510" lon="-1.755817"><ele>236</ele><time>2020-08-05T10:44:37Z</time><name>PT4716</name></trkpt>
<trkpt lat="53.359503" lon="-1.755799"><ele>236</ele><time>2020-08-05T10:44:38Z</time><name>PT4717</name></trkpt>
<trkpt lat="53.359496" lon="-1.755781"><ele>236</ele><time>2020-08-05T10:44:39Z</time><name>PT4718</name></trkpt>
<trkpt lat="53.359493" lon="-1.755772"><ele>236</ele><time>2020-08-05T10:44:40Z</time><name>PT4719</name></trkpt>
<trkpt lat="53.359486" lon="-1.755753"><ele>235</ele><time>2020-08-05T10:44:41Z</time><name>PT4720</name></trkpt>
<trkpt lat="53.359479" lon="-1.755748"><ele>234</ele><time>2020-08-05T10:44:42Z</time><name>PT4721</name></trkpt>
<trkpt lat="53.359472" lon="-1.755742"><ele>234</ele><time>2020-08-05T10:44:43Z</time><name>PT4722</name></trkpt>
<trkpt lat="53.359459" lon="-1.755732"><ele>235</ele><time>2020-08-05T10:44:44Z</time><name>PT4723</name></trkpt>
<trkpt lat="53.359455" lon="-1.755725"><ele>234</ele><time>2020-08-05T10:44:45Z</time><name>PT4724</name></trkpt>
<trkpt lat="53.359453" lon="-1.755717"><ele>234</ele><time>2020-08-05T10:44:46Z</time><name>PT4725</name></trkpt>
<trkpt lat="53.359446" lon="-1.755713"><ele>233</ele><time>2020-08-05T10:44:47Z</time><name>PT4726</name></trkpt>
<trkpt lat="53.359440" lon="-1.755708"><ele>233</ele><time>2020-08-05T10:44:48Z</time><name>PT4727</name></trkpt>
<trkpt lat="53.359433" lon="-1.755701"><ele>233</ele><time>2020-08-05T10:44:49Z</time><name>PT4728</name></trkpt>
<trkpt lat="53.359424" lon="-1.755695"><ele>233</ele><time>2020-08-05T10:44:50Z</time><name>PT4729</name></trkpt>
<trkpt lat="53.359418" lon="-1.755681"><ele>233</ele><time>2020-08-05T10:44:51Z</time><name>PT4730</name></trkpt>
<trkpt lat="53.359411" lon="-1.755669"><ele>233</ele><time>2020-08-05T10:44:52Z</time><name>PT4731</name></trkpt>
<trkpt lat="53.359405" lon="-1.755658"><ele>233</ele><time>2020-08-05T10:44:53Z</time><name>PT4732</name></trkpt>
<trkpt lat="53.359397" lon="-1.755649"><ele>233</ele><time>2020-08-05T10:44:54Z</time><name>PT4733</name></trkpt>
<trkpt lat="53.359387" lon="-1.755654"><ele>231</ele><time>2020-08-05T10:44:55Z</time><name>PT4734</name></trkpt>
<trkpt lat="53.359379" lon="-1.755646"><ele>230</ele><time>2020-08-05T10:44:56Z</time><name>PT4735</name></trkpt>
<trkpt lat="53.359369" lon="-1.755636"><ele>229</ele><time>2020-08-05T10:44:57Z</time><name>PT4736</name></trkpt>
<trkpt lat="53.359360" lon="-1.755630"><ele>229</ele><time>2020-08-05T10:44:58Z</time><name>PT4737</name></trkpt>
<trkpt lat="53.359352" lon="-1.755627"><ele>228</ele><time>2020-08-05T10:44:59Z</time><name>PT4738</name></trkpt>
<trkpt lat="53.359342" lon="-1.755617"><ele>227</ele><time>2020-08-05T10:45:00Z</time><name>PT4739</name></trkpt>
<trkpt lat="53.359336" lon="-1.755609"><ele>227</ele><time>2020-08-05T10:45:01Z</time><name>PT4740</name></trkpt>
<trkpt lat="53.359329" lon="-1.755605"><ele>228</ele><time>2020-08-05T10:45:02Z</time><name>PT4741</name></trkpt>
<trkpt lat="53.359322" lon="-1.755603"><ele>227</ele><time>2020-08-05T10:45:03Z</time><name>PT4742</name></trkpt>
<trkpt lat="53.359312" lon="-1.755592"><ele>227</ele><time>2020-08-05T10:45:04Z</time><name>PT4743</name></trkpt>
<trkpt lat="53.359301" lon="-1.755588"><ele>227</ele><time>2020-08-05T10:45:05Z</time><name>PT4744</name></trkpt>
<trkpt lat="53.359293" lon="-1.755580"><ele>227</ele><time>2020-08-05T10:45:06Z</time><name>PT4745</name></trkpt>
<trkpt lat="53.359288" lon="-1.755571"><ele>227</ele><time>2020-08-05T10:45:07Z</time><name>PT4746</name></trkpt>
<trkpt lat="53.359282" lon="-1.755557"><ele>227</ele><time>2020-08-05T10:45:08Z</time><name>PT4747</name></trkpt>
<trkpt lat="53.359277" lon="-1.755547"><ele>228</ele><time>2020-08-05T10:45:09Z</time><name>PT4748</name></trkpt>
<trkpt lat="53.359269" lon="-1.755537"><ele>227</ele><time>2020-08-05T10:45:10Z</time><name>PT4749</name></trkpt>
<trkpt lat="53.359259" lon="-1.755529"><ele>226</ele><time>2020-08-05T10:45:11Z</time><name>PT4750</name></trkpt>
<trkpt lat="53.359254" lon="-1.755513"><ele>227</ele><time>2020-08-05T10:45:12Z</time><name>PT4751</name></trkpt>
<trkpt lat="53.359241" lon="-1.755510"><ele>224</ele><time>2020-08-05T10:45:13Z</time><name>PT4752</name></trkpt>
<trkpt lat="53.359232" lon="-1.755503"><ele>223</ele><time>2020-08-05T10:45:14Z</time><name>PT4753</name></trkpt>
<trkpt lat="53.359225" lon="-1.755503"><ele>222</ele><time>2020-08-05T10:45:15Z</time><name>PT4754</name></trkpt>
<trkpt lat="53.359217" lon="-1.755502"><ele>223</ele><time>2020-08-05T10:45:16Z</time><name>PT4755</name></trkpt>
<trkpt lat="53.359204" lon="-1.755501"><ele>222</ele><time>2020-08-05T10:45:17Z</time><name>PT4756</name></trkpt>
<trkpt lat="53.359197" lon="-1.755499"><ele>222</ele><time>2020-08-05T10:45:18Z</time><name>PT4757</name></trkpt>
<trkpt lat="53.359196" lon="-1.755495"><ele>223</ele><time>2020-08-05T10:45:19Z</time><name>PT4758</name></trkpt>
<trkpt lat="53.359186" lon="-1.755497"><ele>222</ele><time>2020-08-05T10:45:20Z</time><name>PT4759</name></trkpt>
<trkpt lat="53.359179" lon="-1.755497"><ele>222</ele><time>2020-08-05T10:45:21Z</time><name>PT4760</name></trkpt>
<trkpt lat="53.359168" lon="-1.755500"><ele>222</ele><time>2020-08-05T10:45:22Z</time><name>PT4761</name></trkpt>
<trkpt lat="53.359160" lon="-1.755498"><ele>221</ele><time>2020-08-05T10:45:23Z</time><name>PT4762</name></trkpt>
<trkpt lat="53.359152" lon="-1.755501"><ele>221</ele><time>2020-08-05T10:45:24Z</time><name>PT4763</name></trkpt>
<trkpt lat="53.359142" lon="-1.755495"><ele>220</ele><time>2020-08-05T10:45:25Z</time><name>PT4764</name></trkpt>
<trkpt lat="53.359132" lon="-1.755490"><ele>220</ele><time>2020-08-05T10:45:26Z</time><name>PT4765</name></trkpt>
<trkpt lat="53.359125" lon="-1.755493"><ele>220</ele><time>2020-08-05T10:45:27Z</time><name>PT4766</name></trkpt>
<trkpt lat="53.359121" lon="-1.755488"><ele>220</ele><time>2020-08-05T10:45:28Z</time><name>PT4767</name></trkpt>
<trkpt lat="53.359114" lon="-1.755480"><ele>220</ele><time>2020-08-05T10:45:29Z</time><name>PT4768</name></trkpt>
<trkpt lat="53.359111" lon="-1.755472"><ele>221</ele><time>2020-08-05T10:45:30Z</time><name>PT4769</name></trkpt>
<trkpt lat="53.359106" lon="-1.755476"><ele>221</ele><time>2020-08-05T10:45:31Z</time><name>PT4770</name></trkpt>
<trkpt lat="53.359100" lon="-1.755477"><ele>220</ele><time>2020-08-05T10:45:32Z</time><name>PT4771</name></trkpt>
<trkpt lat="53.359093" lon="-1.755473"><ele>221</ele><time>2020-08-05T10:45:33Z</time><name>PT4772</name></trkpt>
<trkpt lat="53.359084" lon="-1.755467"><ele>221</ele><time>2020-08-05T10:45:34Z</time><name>PT4773</name></trkpt>
<trkpt lat="53.359075" lon="-1.755456"><ele>223</ele><time>2020-08-05T10:45:35Z</time><name>PT4774</name></trkpt>
<trkpt lat="53.359065" lon="-1.755450"><ele>223</ele><time>2020-08-05T10:45:36Z</time><name>PT4775</name></trkpt>
<trkpt lat="53.359057" lon="-1.755439"><ele>223</ele><time>2020-08-05T10:45:37Z</time><name>PT4776</name></trkpt>
<trkpt lat="53.359050" lon="-1.755439"><ele>222</ele><time>2020-08-05T10:45:38Z</time><name>PT4777</name></trkpt>
<trkpt lat="53.359037" lon="-1.755447"><ele>220</ele><time>2020-08-05T10:45:39Z</time><name>PT4778</name></trkpt>
<trkpt lat="53.359025" lon="-1.755458"><ele>218</ele><time>2020-08-05T10:45:40Z</time><name>PT4779</name></trkpt>
<trkpt lat="53.359016" lon="-1.755465"><ele>217</ele><time>2020-08-05T10:45:41Z</time><name>PT4780</name></trkpt>
<trkpt lat="53.359007" lon="-1.755461"><ele>216</ele><time>2020-08-05T10:45:42Z</time><name>PT4781</name></trkpt>
<trkpt lat="53.358992" lon="-1.755456"><ele>215</ele><time>2020-08-05T10:45:43Z</time><name>PT4782</name></trkpt>
<trkpt lat="53.358981" lon="-1.755452"><ele>214</ele><time>2020-08-05T10:45:44Z</time><name>PT4783</name></trkpt>
<trkpt lat="53.358973" lon="-1.755446"><ele>215</ele><time>2020-08-05T10:45:45Z</time><name>PT4784</name></trkpt>
<trkpt lat="53.358958" lon="-1.755435"><ele>215</ele><time>2020-08-05T10:45:46Z</time><name>PT4785</name></trkpt>
<trkpt lat="53.358950" lon="-1.755420"><ele>215</ele><time>2020-08-05T10:45:47Z</time><name>PT4786</name></trkpt>
<trkpt lat="53.358940" lon="-1.755406"><ele>215</ele><time>2020-08-05T10:45:48Z</time><name>PT4787</name></trkpt>
<trkpt lat="53.358926" lon="-1.755400"><ele>216</ele><time>2020-08-05T10:45:49Z</time><name>PT4788</name></trkpt>
<trkpt lat="53.358916" lon="-1.755383"><ele>216</ele><time>2020-08-05T10:45:50Z</time><name>PT4789</name></trkpt>
<trkpt lat="53.358911" lon="-1.755364"><ele>217</ele><time>2020-08-05T10:45:51Z</time><name>PT4790</name></trkpt>
<trkpt lat="53.358902" lon="-1.755349"><ele>217</ele><time>2020-08-05T10:45:52Z</time><name>PT4791</name></trkpt>
<trkpt lat="53.358896" lon="-1.755340"><ele>218</ele><time>2020-08-05T10:45:53Z</time><name>PT4792</name></trkpt>
<trkpt lat="53.358883" lon="-1.755325"><ele>218</ele><time>2020-08-05T10:45:54Z</time><name>PT4793</name></trkpt>
<trkpt lat="53.358870" lon="-1.755324"><ele>218</ele><time>2020-08-05T10:45:55Z</time><name>PT4794</name></trkpt>
<trkpt lat="53.358856" lon="-1.755288"><ele>219</ele><time>2020-08-05T10:45:56Z</time><name>PT4795</name></trkpt>
<trkpt lat="53.358849" lon="-1.755274"><ele>220</ele><time>2020-08-05T10:45:57Z</time><name>PT4796</name></trkpt>
<trkpt lat="53.358842" lon="-1.755270"><ele>220</ele><time>2020-08-05T10:45:58Z</time><name>PT4797</name></trkpt>
<trkpt lat="53.358830" lon="-1.755259"><ele>219</ele><time>2020-08-05T10:45:59Z</time><name>PT4798</name></trkpt>
<trkpt lat="53.358814" lon="-1.755253"><ele>220</ele><time>2020-08-05T10:46:00Z</time><name>PT4799</name></trkpt>
<trkpt lat="53.358804" lon="-1.755253"><ele>221</ele><time>2020-08-05T10:46:01Z</time><name>PT4800</name></trkpt>
<trkpt lat="53.358795" lon="-1.755252"><ele>221</ele><time>2020-08-05T10:46:02Z</time><name>PT4801</name></trkpt>
<trkpt lat="53.358784" lon="-1.755247"><ele>220</ele><time>2020-08-05T10:46:03Z</time><name>PT4802</name></trkpt>
<trkpt lat="53.358774" lon="-1.755238"><ele>220</ele><time>2020-08-05T10:46:04Z</time><name>PT4803</name></trkpt>
<trkpt lat="53.358770" lon="-1.755231"><ele>220</ele><time>2020-08-05T10:46:05Z</time><name>PT4804</name></trkpt>
<trkpt lat="53.358767" lon="-1.755228"><ele>220</ele><time>2020-08-05T10:46:06Z</time><name>PT4805</name></trkpt>
<trkpt lat="53.358759" lon="-1.755224"><ele>219</ele><time>2020-08-05T10:46:07Z</time><name>PT4806</name></trkpt>
<trkpt lat="53.358747" lon="-1.755206"><ele>220</ele><time>2020-08-05T10:46:08Z</time><name>PT4807</name></trkpt>
<trkpt lat="53.358739" lon="-1.755198"><ele>220</ele><time>2020-08-05T10:46:09Z</time><name>PT4808</name></trkpt>
<trkpt lat="53.358726" lon="-1.755196"><ele>220</ele><time>2020-08-05T10:46:10Z</time><name>PT4809</name></trkpt>
<trkpt lat="53.358719" lon="-1.755182"><ele>221</ele><time>2020-08-05T10:46:11Z</time><name>PT4810</name></trkpt>
<trkpt lat="53.358713" lon="-1.755179"><ele>221</ele><time>2020-08-05T10:46:12Z</time><name>PT4811</name></trkpt>
<trkpt lat="53.358708" lon="-1.755178"><ele>220</ele><time>2020-08-05T10:46:13Z</time><name>PT4812</name></trkpt>
<trkpt lat="53.358702" lon="-1.755169"><ele>221</ele><time>2020-08-05T10:46:14Z</time><name>PT4813</name></trkpt>
<trkpt lat="53.358693" lon="-1.755152"><ele>220</ele><time>2020-08-05T10:46:15Z</time><name>PT4814</name></trkpt>
<trkpt lat="53.358685" lon="-1.755136"><ele>220</ele><time>2020-08-05T10:46:16Z</time><name>PT4815</name></trkpt>
<trkpt lat="53.358678" lon="-1.755124"><ele>221</ele><time>2020-08-05T10:46:17Z</time><name>PT4816</name></trkpt>
<trkpt lat="53.358668" lon="-1.755114"><ele>221</ele><time>2020-08-05T10:46:18Z</time><name>PT4817</name></trkpt>
<trkpt lat="53.358661" lon="-1.755101"><ele>220</ele><time>2020-08-05T10:46:19Z</time><name>PT4818</name></trkpt>
<trkpt lat="53.358655" lon="-1.755082"><ele>221</ele><time>2020-08-05T10:46:20Z</time><name>PT4819</name></trkpt>
<trkpt lat="53.358649" lon="-1.755063"><ele>221</ele><time>2020-08-05T10:46:21Z</time><name>PT4820</name></trkpt>
<trkpt lat="53.358642" lon="-1.755048"><ele>220</ele><time>2020-08-05T10:46:22Z</time><name>PT4821</name></trkpt>
<trkpt lat="53.358641" lon="-1.755030"><ele>220</ele><time>2020-08-05T10:46:23Z</time><name>PT4822</name></trkpt>
<trkpt lat="53.358637" lon="-1.755015"><ele>219</ele><time>2020-08-05T10:46:24Z</time><name>PT4823</name></trkpt>
<trkpt lat="53.358633" lon="-1.755006"><ele>219</ele><time>2020-08-05T10:46:25Z</time><name>PT4824</name></trkpt>
<trkpt lat="53.358627" lon="-1.754993"><ele>219</ele><time>2020-08-05T10:46:26Z</time><name>PT4825</name></trkpt>
<trkpt lat="53.358621" lon="-1.754985"><ele>219</ele><time>2020-08-05T10:46:27Z</time><name>PT4826</name></trkpt>
<trkpt lat="53.358612" lon="-1.754974"><ele>219</ele><time>2020-08-05T10:46:28Z</time><name>PT4827</name></trkpt>
<trkpt lat="53.358608" lon="-1.754954"><ele>220</ele><time>2020-08-05T10:46:29Z</time><name>PT4828</name></trkpt>
<trkpt lat="53.358602" lon="-1.754946"><ele>220</ele><time>2020-08-05T10:46:30Z</time><name>PT4829</name></trkpt>
<trkpt lat="53.358596" lon="-1.754931"><ele>220</ele><time>2020-08-05T10:46:31Z</time><name>PT4830</name></trkpt>
<trkpt lat="53.358594" lon="-1.754916"><ele>220</ele><time>2020-08-05T10:46:32Z</time><name>PT4831</name></trkpt>
<trkpt lat="53.358586" lon="-1.754892"><ele>220</ele><time>2020-08-05T10:46:33Z</time><name>PT4832</name></trkpt>
<trkpt lat="53.358582" lon="-1.754874"><ele>220</ele><time>2020-08-05T10:46:34Z</time><name>PT4833</name></trkpt>
<trkpt lat="53.358576" lon="-1.754861"><ele>220</ele><time>2020-08-05T10:46:35Z</time><name>PT4834</name></trkpt>
<trkpt lat="53.358572" lon="-1.754852"><ele>220</ele><time>2020-08-05T10:46:36Z</time><name>PT4835</name></trkpt>
<trkpt lat="53.358569" lon="-1.754847"><ele>219</ele><time>2020-08-05T10:46:37Z</time><name>PT4836</name></trkpt>
<trkpt lat="53.358566" lon="-1.754846"><ele>219</ele><time>2020-08-05T10:46:41Z</time><name>PT4837</name></trkpt>
<trkpt lat="53.358562" lon="-1.754830"><ele>218</ele><time>2020-08-05T10:46:42Z</time><name>PT4838</name></trkpt>
<trkpt lat="53.358557" lon="-1.754813"><ele>217</ele><time>2020-08-05T10:46:43Z</time><name>PT4839</name></trkpt>
<trkpt lat="53.358554" lon="-1.754792"><ele>216</ele><time>2020-08-05T10:46:44Z</time><name>PT4840</name></trkpt>
<trkpt lat="53.358548" lon="-1.754776"><ele>216</ele><time>2020-08-05T10:46:45Z</time><name>PT4841</name></trkpt>
<trkpt lat="53.358545" lon="-1.754758"><ele>215</ele><time>2020-08-05T10:46:46Z</time><name>PT4842</name></trkpt>
<trkpt lat="53.358537" lon="-1.754740"><ele>214</ele><time>2020-08-05T10:46:47Z</time><name>PT4843</name></trkpt>
<trkpt lat="53.358528" lon="-1.754724"><ele>213</ele><time>2020-08-05T10:46:48Z</time><name>PT4844</name></trkpt>
<trkpt lat="53.358522" lon="-1.754708"><ele>213</ele><time>2020-08-05T10:46:49Z</time><name>PT4845</name></trkpt>
<trkpt lat="53.358515" lon="-1.754690"><ele>214</ele><time>2020-08-05T10:46:50Z</time><name>PT4846</name></trkpt>
<trkpt lat="53.358506" lon="-1.754672"><ele>214</ele><time>2020-08-05T10:46:51Z</time><name>PT4847</name></trkpt>
<trkpt lat="53.358497" lon="-1.754645"><ele>213</ele><time>2020-08-05T10:46:52Z</time><name>PT4848</name></trkpt>
<trkpt lat="53.358494" lon="-1.754632"><ele>213</ele><time>2020-08-05T10:46:53Z</time><name>PT4849</name></trkpt>
<trkpt lat="53.358490" lon="-1.754618"><ele>213</ele><time>2020-08-05T10:46:54Z</time><name>PT4850</name></trkpt>
<trkpt lat="53.358484" lon="-1.754606"><ele>213</ele><time>2020-08-05T10:46:55Z</time><name>PT4851</name></trkpt>
<trkpt lat="53.358478" lon="-1.754595"><ele>213</ele><time>2020-08-05T10:46:59Z</time><name>PT4852</name></trkpt>
<trkpt lat="53.358474" lon="-1.754575"><ele>212</ele><time>2020-08-05T10:47:00Z</time><name>PT4853</name></trkpt>
<trkpt lat="53.358467" lon="-1.754554"><ele>212</ele><time>2020-08-05T10:47:01Z</time><name>PT4854</name></trkpt>
<trkpt lat="53.358461" lon="-1.754535"><ele>211</ele><time>2020-08-05T10:47:02Z</time><name>PT4855</name></trkpt>
<trkpt lat="53.358458" lon="-1.754517"><ele>211</ele><time>2020-08-05T10:47:03Z</time><name>PT4856</name></trkpt>
<trkpt lat="53.358456" lon="-1.754501"><ele>211</ele><time>2020-08-05T10:47:04Z</time><name>PT4857</name></trkpt>
<trkpt lat="53.358453" lon="-1.754482"><ele>211</ele><time>2020-08-05T10:47:05Z</time><name>PT4858</name></trkpt>
<trkpt lat="53.358449" lon="-1.754460"><ele>210</ele><time>2020-08-05T10:47:06Z</time><name>PT4859</name></trkpt>
<trkpt lat="53.358447" lon="-1.754451"><ele>210</ele><time>2020-08-05T10:47:07Z</time><name>PT4860</name></trkpt>
<trkpt lat="53.358442" lon="-1.754446"><ele>209</ele><time>2020-08-05T10:47:08Z</time><name>PT4861</name></trkpt>
<trkpt lat="53.358440" lon="-1.754430"><ele>209</ele><time>2020-08-05T10:47:09Z</time><name>PT4862</name></trkpt>
<trkpt lat="53.358433" lon="-1.754418"><ele>209</ele><time>2020-08-05T10:47:10Z</time><name>PT4863</name></trkpt>
<trkpt lat="53.358432" lon="-1.754409"><ele>208</ele><time>2020-08-05T10:47:11Z</time><name>PT4864</name></trkpt>
<trkpt lat="53.358415" lon="-1.754387"><ele>207</ele><time>2020-08-05T10:47:12Z</time><name>PT4865</name></trkpt>
<trkpt lat="53.358407" lon="-1.754375"><ele>205</ele><time>2020-08-05T10:47:13Z</time><name>PT4866</name></trkpt>
<trkpt lat="53.358405" lon="-1.754363"><ele>204</ele><time>2020-08-05T10:47:14Z</time><name>PT4867</name></trkpt>
<trkpt lat="53.358398" lon="-1.754347"><ele>203</ele><time>2020-08-05T10:47:15Z</time><name>PT4868</name></trkpt>
<trkpt lat="53.358396" lon="-1.754338"><ele>203</ele><time>2020-08-05T10:47:16Z</time><name>PT4869</name></trkpt>
<trkpt lat="53.358391" lon="-1.754326"><ele>202</ele><time>2020-08-05T10:47:17Z</time><name>PT4870</name></trkpt>
<trkpt lat="53.358384" lon="-1.754323"><ele>201</ele><time>2020-08-05T10:47:18Z</time><name>PT4871</name></trkpt>
<trkpt lat="53.358379" lon="-1.754318"><ele>200</ele><time>2020-08-05T10:47:19Z</time><name>PT4872</name></trkpt>
<trkpt lat="53.358374" lon="-1.754307"><ele>199</ele><time>2020-08-05T10:47:20Z</time><name>PT4873</name></trkpt>
<trkpt lat="53.358368" lon="-1.754301"><ele>199</ele><time>2020-08-05T10:47:21Z</time><name>PT4874</name></trkpt>
<trkpt lat="53.358364" lon="-1.754290"><ele>199</ele><time>2020-08-05T10:47:22Z</time><name>PT4875</name></trkpt>
<trkpt lat="53.358364" lon="-1.754281"><ele>199</ele><time>2020-08-05T10:47:23Z</time><name>PT4876</name></trkpt>
<trkpt lat="53.358365" lon="-1.754262"><ele>202</ele><time>2020-08-05T10:47:24Z</time><name>PT4877</name></trkpt>
<trkpt lat="53.358363" lon="-1.754251"><ele>202</ele><time>2020-08-05T10:47:25Z</time><name>PT4878</name></trkpt>
<trkpt lat="53.358364" lon="-1.754246"><ele>203</ele><time>2020-08-05T10:47:26Z</time><name>PT4879</name></trkpt>
<trkpt lat="53.358366" lon="-1.754236"><ele>204</ele><time>2020-08-05T10:47:27Z</time><name>PT4880</name></trkpt>
<trkpt lat="53.358364" lon="-1.754218"><ele>204</ele><time>2020-08-05T10:47:28Z</time><name>PT4881</name></trkpt>
<trkpt lat="53.358360" lon="-1.754209"><ele>205</ele><time>2020-08-05T10:47:29Z</time><name>PT4882</name></trkpt>
<trkpt lat="53.358356" lon="-1.754195"><ele>205</ele><time>2020-08-05T10:47:30Z</time><name>PT4883</name></trkpt>
<trkpt lat="53.358349" lon="-1.754186"><ele>205</ele><time>2020-08-05T10:47:31Z</time><name>PT4884</name></trkpt>
<trkpt lat="53.358343" lon="-1.754176"><ele>205</ele><time>2020-08-05T10:47:32Z</time><name>PT4885</name></trkpt>
<trkpt lat="53.358335" lon="-1.754171"><ele>205</ele><time>2020-08-05T10:47:33Z</time><name>PT4886</name></trkpt>
<trkpt lat="53.358335" lon="-1.754166"><ele>205</ele><time>2020-08-05T10:47:34Z</time><name>PT4887</name></trkpt>
<trkpt lat="53.358335" lon="-1.754154"><ele>205</ele><time>2020-08-05T10:47:35Z</time><name>PT4888</name></trkpt>
<trkpt lat="53.358333" lon="-1.754148"><ele>205</ele><time>2020-08-05T10:47:36Z</time><name>PT4889</name></trkpt>
<trkpt lat="53.358330" lon="-1.754138"><ele>205</ele><time>2020-08-05T10:47:37Z</time><name>PT4890</name></trkpt>
<trkpt lat="53.358322" lon="-1.754128"><ele>205</ele><time>2020-08-05T10:47:38Z</time><name>PT4891</name></trkpt>
<trkpt lat="53.358319" lon="-1.754117"><ele>204</ele><time>2020-08-05T10:47:39Z</time><name>PT4892</name></trkpt>
<trkpt lat="53.358315" lon="-1.754107"><ele>204</ele><time>2020-08-05T10:47:40Z</time><name>PT4893</name></trkpt>
<trkpt lat="53.358312" lon="-1.754093"><ele>204</ele><time>2020-08-05T10:47:41Z</time><name>PT4894</name></trkpt>
<trkpt lat="53.358308" lon="-1.754085"><ele>204</ele><time>2020-08-05T10:47:42Z</time><name>PT4895</name></trkpt>
<trkpt lat="53.358308" lon="-1.754075"><ele>204</ele><time>2020-08-05T10:47:43Z</time><name>PT4896</name></trkpt>
<trkpt lat="53.358307" lon="-1.754072"><ele>204</ele><time>2020-08-05T10:47:44Z</time><name>PT4897</name></trkpt>
<trkpt lat="53.358306" lon="-1.754055"><ele>204</ele><time>2020-08-05T10:47:45Z</time><name>PT4898</name></trkpt>
<trkpt lat="53.358304" lon="-1.754050"><ele>204</ele><time>2020-08-05T10:47:46Z</time><name>PT4899</name></trkpt>
<trkpt lat="53.358303" lon="-1.754044"><ele>204</ele><time>2020-08-05T10:47:47Z</time><name>PT4900</name></trkpt>
<trkpt lat="53.358299" lon="-1.754018"><ele>202</ele><time>2020-08-05T10:47:56Z</time><name>PT4901</name></trkpt>
<trkpt lat="53.358280" lon="-1.754000"><ele>201</ele><time>2020-08-05T10:47:57Z</time><name>PT4902</name></trkpt>
<trkpt lat="53.358273" lon="-1.753973"><ele>200</ele><time>2020-08-05T10:47:58Z</time><name>PT4903</name></trkpt>
<trkpt lat="53.358263" lon="-1.753940"><ele>200</ele><time>2020-08-05T10:47:59Z</time><name>PT4904</name></trkpt>
<trkpt lat="53.358258" lon="-1.753918"><ele>199</ele><time>2020-08-05T10:48:00Z</time><name>PT4905</name></trkpt>
<trkpt lat="53.358248" lon="-1.753890"><ele>199</ele><time>2020-08-05T10:48:01Z</time><name>PT4906</name></trkpt>
<trkpt lat="53.358242" lon="-1.753869"><ele>198</ele><time>2020-08-05T10:48:02Z</time><name>PT4907</name></trkpt>
<trkpt lat="53.358229" lon="-1.753839"><ele>198</ele><time>2020-08-05T10:48:03Z</time><name>PT4908</name></trkpt>
<trkpt lat="53.358217" lon="-1.753803"><ele>198</ele><time>2020-08-05T10:48:04Z</time><name>PT4909</name></trkpt>
<trkpt lat="53.358203" lon="-1.753780"><ele>198</ele><time>2020-08-05T10:48:05Z</time><name>PT4910</name></trkpt>
<trkpt lat="53.358193" lon="-1.753754"><ele>198</ele><time>2020-08-05T10:48:06Z</time><name>PT4911</name></trkpt>
<trkpt lat="53.358176" lon="-1.753724"><ele>198</ele><time>2020-08-05T10:48:07Z</time><name>PT4912</name></trkpt>
<trkpt lat="53.358172" lon="-1.753710"><ele>198</ele><time>2020-08-05T10:48:08Z</time><name>PT4913</name></trkpt>
<trkpt lat="53.358170" lon="-1.753699"><ele>198</ele><time>2020-08-05T10:48:09Z</time><name>PT4914</name></trkpt>
<trkpt lat="53.358168" lon="-1.753692"><ele>196</ele><time>2020-08-05T10:48:10Z</time><name>PT4915</name></trkpt>
<trkpt lat="53.358167" lon="-1.753666"><ele>196</ele><time>2020-08-05T10:48:11Z</time><name>PT4916</name></trkpt>
<trkpt lat="53.358161" lon="-1.753648"><ele>196</ele><time>2020-08-05T10:48:12Z</time><name>PT4917</name></trkpt>
<trkpt lat="53.358159" lon="-1.753632"><ele>195</ele><time>2020-08-05T10:48:13Z</time><name>PT4918</name></trkpt>
<trkpt lat="53.358158" lon="-1.753615"><ele>196</ele><time>2020-08-05T10:48:14Z</time><name>PT4919</name></trkpt>
<trkpt lat="53.358151" lon="-1.753605"><ele>196</ele><time>2020-08-05T10:48:15Z</time><name>PT4920</name></trkpt>
<trkpt lat="53.358150" lon="-1.753591"><ele>196</ele><time>2020-08-05T10:48:16Z</time><name>PT4921</name></trkpt>
<trkpt lat="53.358149" lon="-1.753582"><ele>195</ele><time>2020-08-05T10:48:17Z</time><name>PT4922</name></trkpt>
<trkpt lat="53.358143" lon="-1.753576"><ele>194</ele><time>2020-08-05T10:48:18Z</time><name>PT4923</name></trkpt>
<trkpt lat="53.358138" lon="-1.753564"><ele>194</ele><time>2020-08-05T10:48:19Z</time><name>PT4924</name></trkpt>
<trkpt lat="53.358139" lon="-1.753556"><ele>194</ele><time>2020-08-05T10:48:20Z</time><name>PT4925</name></trkpt>
<trkpt lat="53.358137" lon="-1.753545"><ele>194</ele><time>2020-08-05T10:48:21Z</time><name>PT4926</name></trkpt>
<trkpt lat="53.358142" lon="-1.753532"><ele>194</ele><time>2020-08-05T10:48:22Z</time><name>PT4927</name></trkpt>
<trkpt lat="53.358147" lon="-1.753512"><ele>194</ele><time>2020-08-05T10:48:23Z</time><name>PT4928</name></trkpt>
<trkpt lat="53.358154" lon="-1.753492"><ele>195</ele><time>2020-08-05T10:48:24Z</time><name>PT4929</name></trkpt>
<trkpt lat="53.358159" lon="-1.753478"><ele>195</ele><time>2020-08-05T10:48:25Z</time><name>PT4930</name></trkpt>
<trkpt lat="53.358160" lon="-1.753462"><ele>196</ele><time>2020-08-05T10:48:26Z</time><name>PT4931</name></trkpt>
<trkpt lat="53.358159" lon="-1.753450"><ele>196</ele><time>2020-08-05T10:48:27Z</time><name>PT4932</name></trkpt>
<trkpt lat="53.358161" lon="-1.753441"><ele>196</ele><time>2020-08-05T10:48:28Z</time><name>PT4933</name></trkpt>
<trkpt lat="53.358163" lon="-1.753433"><ele>196</ele><time>2020-08-05T10:48:29Z</time><name>PT4934</name></trkpt>
<trkpt lat="53.358162" lon="-1.753425"><ele>197</ele><time>2020-08-05T10:48:30Z</time><name>PT4935</name></trkpt>
<trkpt lat="53.358170" lon="-1.753426"><ele>195</ele><time>2020-08-05T10:48:32Z</time><name>PT4936</name></trkpt>
<trkpt lat="53.358179" lon="-1.753406"><ele>195</ele><time>2020-08-05T10:48:33Z</time><name>PT4937</name></trkpt>
<trkpt lat="53.358181" lon="-1.753390"><ele>194</ele><time>2020-08-05T10:48:34Z</time><name>PT4938</name></trkpt>
<trkpt lat="53.358174" lon="-1.753355"><ele>194</ele><time>2020-08-05T10:48:35Z</time><name>PT4939</name></trkpt>
<trkpt lat="53.358174" lon="-1.753339"><ele>194</ele><time>2020-08-05T10:48:36Z</time><name>PT4940</name></trkpt>
<trkpt lat="53.358176" lon="-1.753325"><ele>193</ele><time>2020-08-05T10:48:37Z</time><name>PT4941</name></trkpt>
<trkpt lat="53.358179" lon="-1.753319"><ele>193</ele><time>2020-08-05T10:48:38Z</time><name>PT4942</name></trkpt>
<trkpt lat="53.358182" lon="-1.753313"><ele>194</ele><time>2020-08-05T10:48:39Z</time><name>PT4943</name></trkpt>
<trkpt lat="53.358188" lon="-1.753310"><ele>194</ele><time>2020-08-05T10:48:40Z</time><name>PT4944</name></trkpt>
<trkpt lat="53.358194" lon="-1.753308"><ele>194</ele><time>2020-08-05T10:48:41Z</time><name>PT4945</name></trkpt>
<trkpt lat="53.358201" lon="-1.753303"><ele>194</ele><time>2020-08-05T10:48:42Z</time><name>PT4946</name></trkpt>
<trkpt lat="53.358205" lon="-1.753302"><ele>194</ele><time>2020-08-05T10:48:43Z</time><name>PT4947</name></trkpt>
<trkpt lat="53.358210" lon="-1.753299"><ele>194</ele><time>2020-08-05T10:48:44Z</time><name>PT4948</name></trkpt>
<trkpt lat="53.358219" lon="-1.753300"><ele>195</ele><time>2020-08-05T10:48:45Z</time><name>PT4949</name></trkpt>
<trkpt lat="53.358230" lon="-1.753300"><ele>196</ele><time>2020-08-05T10:48:46Z</time><name>PT4950</name></trkpt>
<trkpt lat="53.358242" lon="-1.753301"><ele>197</ele><time>2020-08-05T10:48:47Z</time><name>PT4951</name></trkpt>
<trkpt lat="53.358248" lon="-1.753299"><ele>197</ele><time>2020-08-05T10:48:48Z</time><name>PT4952</name></trkpt>
<trkpt lat="53.358255" lon="-1.753293"><ele>197</ele><time>2020-08-05T10:48:49Z</time><name>PT4953</name></trkpt>
<trkpt lat="53.358260" lon="-1.753288"><ele>197</ele><time>2020-08-05T10:48:50Z</time><name>PT4954</name></trkpt>
<trkpt lat="53.358269" lon="-1.753266"><ele>198</ele><time>2020-08-05T10:48:52Z</time><name>PT4955</name></trkpt>
<trkpt lat="53.358273" lon="-1.753256"><ele>197</ele><time>2020-08-05T10:48:53Z</time><name>PT4956</name></trkpt>
<trkpt lat="53.358281" lon="-1.753241"><ele>197</ele><time>2020-08-05T10:48:54Z</time><name>PT4957</name></trkpt>
<trkpt lat="53.358288" lon="-1.753226"><ele>197</ele><time>2020-08-05T10:48:55Z</time><name>PT4958</name></trkpt>
<trkpt lat="53.358301" lon="-1.753199"><ele>197</ele><time>2020-08-05T10:48:56Z</time><name>PT4959</name></trkpt>
<trkpt lat="53.358312" lon="-1.753189"><ele>196</ele><time>2020-08-05T10:48:57Z</time><name>PT4960</name></trkpt>
<trkpt lat="53.358317" lon="-1.753177"><ele>197</ele><time>2020-08-05T10:48:58Z</time><name>PT4961</name></trkpt>
<trkpt lat="53.358331" lon="-1.753166"><ele>197</ele><time>2020-08-05T10:48:59Z</time><name>PT4962</name></trkpt>
<trkpt lat="53.358335" lon="-1.753153"><ele>197</ele><time>2020-08-05T10:49:00Z</time><name>PT4963</name></trkpt>
<trkpt lat="53.358339" lon="-1.753136"><ele>198</ele><time>2020-08-05T10:49:01Z</time><name>PT4964</name></trkpt>
<trkpt lat="53.358341" lon="-1.753126"><ele>197</ele><time>2020-08-05T10:49:02Z</time><name>PT4965</name></trkpt>
<trkpt lat="53.358343" lon="-1.753115"><ele>197</ele><time>2020-08-05T10:49:03Z</time><name>PT4966</name></trkpt>
<trkpt lat="53.358345" lon="-1.753103"><ele>197</ele><time>2020-08-05T10:49:04Z</time><name>PT4967</name></trkpt>
<trkpt lat="53.358347" lon="-1.753090"><ele>197</ele><time>2020-08-05T10:49:05Z</time><name>PT4968</name></trkpt>
<trkpt lat="53.358348" lon="-1.753076"><ele>197</ele><time>2020-08-05T10:49:06Z</time><name>PT4969</name></trkpt>
<trkpt lat="53.358347" lon="-1.753061"><ele>197</ele><time>2020-08-05T10:49:09Z</time><name>PT4970</name></trkpt>
<trkpt lat="53.358333" lon="-1.753021"><ele>197</ele><time>2020-08-05T10:49:10Z</time><name>PT4971</name></trkpt>
<trkpt lat="53.358332" lon="-1.753002"><ele>196</ele><time>2020-08-05T10:49:11Z</time><name>PT4972</name></trkpt>
<trkpt lat="53.358329" lon="-1.752988"><ele>195</ele><time>2020-08-05T10:49:12Z</time><name>PT4973</name></trkpt>
<trkpt lat="53.358323" lon="-1.752965"><ele>195</ele><time>2020-08-05T10:49:13Z</time><name>PT4974</name></trkpt>
<trkpt lat="53.358318" lon="-1.752953"><ele>194</ele><time>2020-08-05T10:49:14Z</time><name>PT4975</name></trkpt>
<trkpt lat="53.358316" lon="-1.752932"><ele>194</ele><time>2020-08-05T10:49:15Z</time><name>PT4976</name></trkpt>
<trkpt lat="53.358312" lon="-1.752908"><ele>194</ele><time>2020-08-05T10:49:16Z</time><name>PT4977</name></trkpt>
<trkpt lat="53.358309" lon="-1.752889"><ele>194</ele><time>2020-08-05T10:49:17Z</time><name>PT4978</name></trkpt>
<trkpt lat="53.358311" lon="-1.752869"><ele>194</ele><time>2020-08-05T10:49:18Z</time><name>PT4979</name></trkpt>
<trkpt lat="53.358311" lon="-1.752847"><ele>194</ele><time>2020-08-05T10:49:19Z</time><name>PT4980</name></trkpt>
<trkpt lat="53.358314" lon="-1.752830"><ele>193</ele><time>2020-08-05T10:49:20Z</time><name>PT4981</name></trkpt>
<trkpt lat="53.358312" lon="-1.752817"><ele>193</ele><time>2020-08-05T10:49:21Z</time><name>PT4982</name></trkpt>
<trkpt lat="53.358314" lon="-1.752801"><ele>194</ele><time>2020-08-05T10:49:22Z</time><name>PT4983</name></trkpt>
<trkpt lat="53.358314" lon="-1.752781"><ele>193</ele><time>2020-08-05T10:49:23Z</time><name>PT4984</name></trkpt>
<trkpt lat="53.358311" lon="-1.752762"><ele>193</ele><time>2020-08-05T10:49:24Z</time><name>PT4985</name></trkpt>
<trkpt lat="53.358313" lon="-1.752745"><ele>193</ele><time>2020-08-05T10:49:25Z</time><name>PT4986</name></trkpt>
<trkpt lat="53.358308" lon="-1.752736"><ele>192</ele><time>2020-08-05T10:49:26Z</time><name>PT4987</name></trkpt>
<trkpt lat="53.358302" lon="-1.752724"><ele>192</ele><time>2020-08-05T10:49:27Z</time><name>PT4988</name></trkpt>
<trkpt lat="53.358297" lon="-1.752712"><ele>191</ele><time>2020-08-05T10:49:28Z</time><name>PT4989</name></trkpt>
<trkpt lat="53.358291" lon="-1.752705"><ele>191</ele><time>2020-08-05T10:49:29Z</time><name>PT4990</name></trkpt>
<trkpt lat="53.358290" lon="-1.752687"><ele>191</ele><time>2020-08-05T10:49:30Z</time><name>PT4991</name></trkpt>
<trkpt lat="53.358289" lon="-1.752671"><ele>191</ele><time>2020-08-05T10:49:31Z</time><name>PT4992</name></trkpt>
<trkpt lat="53.358286" lon="-1.752649"><ele>192</ele><time>2020-08-05T10:49:32Z</time><name>PT4993</name></trkpt>
<trkpt lat="53.358288" lon="-1.752627"><ele>193</ele><time>2020-08-05T10:49:33Z</time><name>PT4994</name></trkpt>
<trkpt lat="53.358285" lon="-1.752606"><ele>193</ele><time>2020-08-05T10:49:34Z</time><name>PT4995</name></trkpt>
<trkpt lat="53.358281" lon="-1.752584"><ele>192</ele><time>2020-08-05T10:49:35Z</time><name>PT4996</name></trkpt>
<trkpt lat="53.358276" lon="-1.752565"><ele>192</ele><time>2020-08-05T10:49:36Z</time><name>PT4997</name></trkpt>
<trkpt lat="53.358271" lon="-1.752550"><ele>191</ele><time>2020-08-05T10:49:37Z</time><name>PT4998</name></trkpt>
<trkpt lat="53.358267" lon="-1.752534"><ele>190</ele><time>2020-08-05T10:49:38Z</time><name>PT4999</name></trkpt>
<trkpt lat="53.358264" lon="-1.752511"><ele>191</ele><time>2020-08-05T10:49:39Z</time><name>PT5000</name></trkpt>
<trkpt lat="53.358263" lon="-1.752487"><ele>191</ele><time>2020-08-05T10:49:40Z</time><name>PT5001</name></trkpt>
<trkpt lat="53.358258" lon="-1.752473"><ele>189</ele><time>2020-08-05T10:49:41Z</time><name>PT5002</name></trkpt>
<trkpt lat="53.358254" lon="-1.752459"><ele>190</ele><time>2020-08-05T10:49:42Z</time><name>PT5003</name></trkpt>
<trkpt lat="53.358247" lon="-1.752452"><ele>189</ele><time>2020-08-05T10:49:43Z</time><name>PT5004</name></trkpt>
<trkpt lat="53.358244" lon="-1.752443"><ele>188</ele><time>2020-08-05T10:49:44Z</time><name>PT5005</name></trkpt>
<trkpt lat="53.358234" lon="-1.752428"><ele>187</ele><time>2020-08-05T10:49:45Z</time><name>PT5006</name></trkpt>
<trkpt lat="53.358230" lon="-1.752411"><ele>187</ele><time>2020-08-05T10:49:46Z</time><name>PT5007</name></trkpt>
<trkpt lat="53.358229" lon="-1.752401"><ele>187</ele><time>2020-08-05T10:49:47Z</time><name>PT5008</name></trkpt>
<trkpt lat="53.358225" lon="-1.752386"><ele>187</ele><time>2020-08-05T10:49:48Z</time><name>PT5009</name></trkpt>
<trkpt lat="53.358224" lon="-1.752378"><ele>186</ele><time>2020-08-05T10:49:49Z</time><name>PT5010</name></trkpt>
<trkpt lat="53.358222" lon="-1.752365"><ele>186</ele><time>2020-08-05T10:49:50Z</time><name>PT5011</name></trkpt>
<trkpt lat="53.358220" lon="-1.752352"><ele>186</ele><time>2020-08-05T10:49:51Z</time><name>PT5012</name></trkpt>
<trkpt lat="53.358214" lon="-1.752346"><ele>185</ele><time>2020-08-05T10:49:52Z</time><name>PT5013</name></trkpt>
<trkpt lat="53.358209" lon="-1.752334"><ele>185</ele><time>2020-08-05T10:49:53Z</time><name>PT5014</name></trkpt>
<trkpt lat="53.358205" lon="-1.752327"><ele>185</ele><time>2020-08-05T10:49:54Z</time><name>PT5015</name></trkpt>
<trkpt lat="53.358203" lon="-1.752319"><ele>185</ele><time>2020-08-05T10:49:55Z</time><name>PT5016</name></trkpt>
<trkpt lat="53.358202" lon="-1.752310"><ele>185</ele><time>2020-08-05T10:49:56Z</time><name>PT5017</name></trkpt>
<trkpt lat="53.358197" lon="-1.752302"><ele>184</ele><time>2020-08-05T10:49:57Z</time><name>PT5018</name></trkpt>
<trkpt lat="53.358192" lon="-1.752292"><ele>185</ele><time>2020-08-05T10:49:58Z</time><name>PT5019</name></trkpt>
<trkpt lat="53.358185" lon="-1.752283"><ele>185</ele><time>2020-08-05T10:49:59Z</time><name>PT5020</name></trkpt>
<trkpt lat="53.358177" lon="-1.752273"><ele>185</ele><time>2020-08-05T10:50:00Z</time><name>PT5021</name></trkpt>
<trkpt lat="53.358168" lon="-1.752263"><ele>183</ele><time>2020-08-05T10:50:01Z</time><name>PT5022</name></trkpt>
<trkpt lat="53.358162" lon="-1.752255"><ele>182</ele><time>2020-08-05T10:50:02Z</time><name>PT5023</name></trkpt>
<trkpt lat="53.358156" lon="-1.752246"><ele>182</ele><time>2020-08-05T10:50:03Z</time><name>PT5024</name></trkpt>
<trkpt lat="53.358149" lon="-1.752240"><ele>180</ele><time>2020-08-05T10:50:04Z</time><name>PT5025</name></trkpt>
<trkpt lat="53.358139" lon="-1.752234"><ele>180</ele><time>2020-08-05T10:50:05Z</time><name>PT5026</name></trkpt>
<trkpt lat="53.358133" lon="-1.752225"><ele>181</ele><time>2020-08-05T10:50:06Z</time><name>PT5027</name></trkpt>
<trkpt lat="53.358127" lon="-1.752214"><ele>181</ele><time>2020-08-05T10:50:07Z</time><name>PT5028</name></trkpt>
<trkpt lat="53.358118" lon="-1.752195"><ele>181</ele><time>2020-08-05T10:50:08Z</time><name>PT5029</name></trkpt>
<trkpt lat="53.358111" lon="-1.752181"><ele>181</ele><time>2020-08-05T10:50:09Z</time><name>PT5030</name></trkpt>
<trkpt lat="53.358105" lon="-1.752171"><ele>181</ele><time>2020-08-05T10:50:10Z</time><name>PT5031</name></trkpt>
<trkpt lat="53.358097" lon="-1.752163"><ele>181</ele><time>2020-08-05T10:50:11Z</time><name>PT5032</name></trkpt>
<trkpt lat="53.358085" lon="-1.752160"><ele>179</ele><time>2020-08-05T10:50:12Z</time><name>PT5033</name></trkpt>
<trkpt lat="53.358065" lon="-1.752153"><ele>177</ele><time>2020-08-05T10:50:13Z</time><name>PT5034</name></trkpt>
<trkpt lat="53.358050" lon="-1.752140"><ele>176</ele><time>2020-08-05T10:50:14Z</time><name>PT5035</name></trkpt>
<trkpt lat="53.358041" lon="-1.752120"><ele>177</ele><time>2020-08-05T10:50:15Z</time><name>PT5036</name></trkpt>
<trkpt lat="53.358032" lon="-1.752101"><ele>178</ele><time>2020-08-05T10:50:16Z</time><name>PT5037</name></trkpt>
<trkpt lat="53.358025" lon="-1.752099"><ele>178</ele><time>2020-08-05T10:50:17Z</time><name>PT5038</name></trkpt>
<trkpt lat="53.358022" lon="-1.752097"><ele>178</ele><time>2020-08-05T10:50:18Z</time><name>PT5039</name></trkpt>
<trkpt lat="53.358014" lon="-1.752088"><ele>178</ele><time>2020-08-05T10:50:19Z</time><name>PT5040</name></trkpt>
<trkpt lat="53.358004" lon="-1.752077"><ele>176</ele><time>2020-08-05T10:50:20Z</time><name>PT5041</name></trkpt>
<trkpt lat="53.358001" lon="-1.752063"><ele>176</ele><time>2020-08-05T10:50:21Z</time><name>PT5042</name></trkpt>
<trkpt lat="53.357992" lon="-1.752047"><ele>175</ele><time>2020-08-05T10:50:22Z</time><name>PT5043</name></trkpt>
<trkpt lat="53.357983" lon="-1.752038"><ele>173</ele><time>2020-08-05T10:50:23Z</time><name>PT5044</name></trkpt>
<trkpt lat="53.357981" lon="-1.752033"><ele>172</ele><time>2020-08-05T10:50:24Z</time><name>PT5045</name></trkpt>
<trkpt lat="53.357972" lon="-1.752001"><ele>174</ele><time>2020-08-05T10:50:25Z</time><name>PT5046</name></trkpt>
<trkpt lat="53.357957" lon="-1.751972"><ele>177</ele><time>2020-08-05T10:50:26Z</time><name>PT5047</name></trkpt>
<trkpt lat="53.357944" lon="-1.751963"><ele>177</ele><time>2020-08-05T10:50:27Z</time><name>PT5048</name></trkpt>
<trkpt lat="53.357930" lon="-1.751949"><ele>177</ele><time>2020-08-05T10:50:28Z</time><name>PT5049</name></trkpt>
<trkpt lat="53.357915" lon="-1.751927"><ele>178</ele><time>2020-08-05T10:50:29Z</time><name>PT5050</name></trkpt>
<trkpt lat="53.357906" lon="-1.751915"><ele>178</ele><time>2020-08-05T10:50:30Z</time><name>PT5051</name></trkpt>
<trkpt lat="53.357900" lon="-1.751894"><ele>179</ele><time>2020-08-05T10:50:31Z</time><name>PT5052</name></trkpt>
<trkpt lat="53.357892" lon="-1.751870"><ele>180</ele><time>2020-08-05T10:50:32Z</time><name>PT5053</name></trkpt>
<trkpt lat="53.357882" lon="-1.751859"><ele>181</ele><time>2020-08-05T10:50:33Z</time><name>PT5054</name></trkpt>
<trkpt lat="53.357874" lon="-1.751844"><ele>182</ele><time>2020-08-05T10:50:34Z</time><name>PT5055</name></trkpt>
<trkpt lat="53.357861" lon="-1.751825"><ele>183</ele><time>2020-08-05T10:50:35Z</time><name>PT5056</name></trkpt>
<trkpt lat="53.357850" lon="-1.751815"><ele>183</ele><time>2020-08-05T10:50:36Z</time><name>PT5057</name></trkpt>
<trkpt lat="53.357841" lon="-1.751802"><ele>183</ele><time>2020-08-05T10:50:37Z</time><name>PT5058</name></trkpt>
<trkpt lat="53.357840" lon="-1.751793"><ele>183</ele><time>2020-08-05T10:50:38Z</time><name>PT5059</name></trkpt>
<trkpt lat="53.357837" lon="-1.751790"><ele>183</ele><time>2020-08-05T10:50:39Z</time><name>PT5060</name></trkpt>
<trkpt lat="53.357836" lon="-1.751791"><ele>183</ele><time>2020-08-05T10:50:40Z</time><name>PT5061</name></trkpt>
<trkpt lat="53.357830" lon="-1.751771"><ele>183</ele><time>2020-08-05T10:50:46Z</time><name>PT5062</name></trkpt>
<trkpt lat="53.357812" lon="-1.751739"><ele>184</ele><time>2020-08-05T10:50:47Z</time><name>PT5063</name></trkpt>
<trkpt lat="53.357800" lon="-1.751722"><ele>184</ele><time>2020-08-05T10:50:48Z</time><name>PT5064</name></trkpt>
<trkpt lat="53.357790" lon="-1.751702"><ele>183</ele><time>2020-08-05T10:50:49Z</time><name>PT5065</name></trkpt>
<trkpt lat="53.357780" lon="-1.751688"><ele>184</ele><time>2020-08-05T10:50:50Z</time><name>PT5066</name></trkpt>
<trkpt lat="53.357768" lon="-1.751665"><ele>184</ele><time>2020-08-05T10:50:51Z</time><name>PT5067</name></trkpt>
<trkpt lat="53.357757" lon="-1.751645"><ele>185</ele><time>2020-08-05T10:50:52Z</time><name>PT5068</name></trkpt>
<trkpt lat="53.357747" lon="-1.751627"><ele>184</ele><time>2020-08-05T10:50:53Z</time><name>PT5069</name></trkpt>
<trkpt lat="53.357738" lon="-1.751616"><ele>183</ele><time>2020-08-05T10:50:54Z</time><name>PT5070</name></trkpt>
<trkpt lat="53.357731" lon="-1.751607"><ele>182</ele><time>2020-08-05T10:50:55Z</time><name>PT5071</name></trkpt>
<trkpt lat="53.357724" lon="-1.751593"><ele>181</ele><time>2020-08-05T10:50:56Z</time><name>PT5072</name></trkpt>
<trkpt lat="53.357716" lon="-1.751573"><ele>181</ele><time>2020-08-05T10:50:57Z</time><name>PT5073</name></trkpt>
<trkpt lat="53.357706" lon="-1.751561"><ele>182</ele><time>2020-08-05T10:50:58Z</time><name>PT5074</name></trkpt>
<trkpt lat="53.357695" lon="-1.751546"><ele>182</ele><time>2020-08-05T10:50:59Z</time><name>PT5075</name></trkpt>
<trkpt lat="53.357689" lon="-1.751526"><ele>183</ele><time>2020-08-05T10:51:00Z</time><name>PT5076</name></trkpt>
<trkpt lat="53.357682" lon="-1.751510"><ele>183</ele><time>2020-08-05T10:51:01Z</time><name>PT5077</name></trkpt>
<trkpt lat="53.357672" lon="-1.751489"><ele>183</ele><time>2020-08-05T10:51:02Z</time><name>PT5078</name></trkpt>
<trkpt lat="53.357665" lon="-1.751476"><ele>182</ele><time>2020-08-05T10:51:03Z</time><name>PT5079</name></trkpt>
<trkpt lat="53.357666" lon="-1.751463"><ele>182</ele><time>2020-08-05T10:51:04Z</time><name>PT5080</name></trkpt>
<trkpt lat="53.357661" lon="-1.751446"><ele>182</ele><time>2020-08-05T10:51:05Z</time><name>PT5081</name></trkpt>
<trkpt lat="53.357655" lon="-1.751429"><ele>182</ele><time>2020-08-05T10:51:06Z</time><name>PT5082</name></trkpt>
<trkpt lat="53.357649" lon="-1.751414"><ele>182</ele><time>2020-08-05T10:51:07Z</time><name>PT5083</name></trkpt>
<trkpt lat="53.357644" lon="-1.751401"><ele>181</ele><time>2020-08-05T10:51:08Z</time><name>PT5084</name></trkpt>
<trkpt lat="53.357637" lon="-1.751380"><ele>181</ele><time>2020-08-05T10:51:09Z</time><name>PT5085</name></trkpt>
<trkpt lat="53.357633" lon="-1.751362"><ele>180</ele><time>2020-08-05T10:51:10Z</time><name>PT5086</name></trkpt>
<trkpt lat="53.357623" lon="-1.751348"><ele>180</ele><time>2020-08-05T10:51:11Z</time><name>PT5087</name></trkpt>
<trkpt lat="53.357617" lon="-1.751338"><ele>180</ele><time>2020-08-05T10:51:12Z</time><name>PT5088</name></trkpt>
<trkpt lat="53.357610" lon="-1.751329"><ele>181</ele><time>2020-08-05T10:51:13Z</time><name>PT5089</name></trkpt>
<trkpt lat="53.357604" lon="-1.751314"><ele>181</ele><time>2020-08-05T10:51:14Z</time><name>PT5090</name></trkpt>
<trkpt lat="53.357601" lon="-1.751297"><ele>181</ele><time>2020-08-05T10:51:15Z</time><name>PT5091</name></trkpt>
<trkpt lat="53.357594" lon="-1.751281"><ele>181</ele><time>2020-08-05T10:51:16Z</time><name>PT5092</name></trkpt>
<trkpt lat="53.357589" lon="-1.751264"><ele>181</ele><time>2020-08-05T10:51:17Z</time><name>PT5093</name></trkpt>
<trkpt lat="53.357584" lon="-1.751253"><ele>180</ele><time>2020-08-05T10:51:18Z</time><name>PT5094</name></trkpt>
<trkpt lat="53.357576" lon="-1.751233"><ele>180</ele><time>2020-08-05T10:51:19Z</time><name>PT5095</name></trkpt>
<trkpt lat="53.357570" lon="-1.751211"><ele>181</ele><time>2020-08-05T10:51:20Z</time><name>PT5096</name></trkpt>
<trkpt lat="53.357570" lon="-1.751190"><ele>183</ele><time>2020-08-05T10:51:21Z</time><name>PT5097</name></trkpt>
<trkpt lat="53.357568" lon="-1.751170"><ele>183</ele><time>2020-08-05T10:51:22Z</time><name>PT5098</name></trkpt>
<trkpt lat="53.357567" lon="-1.751152"><ele>183</ele><time>2020-08-05T10:51:23Z</time><name>PT5099</name></trkpt>
<trkpt lat="53.357563" lon="-1.751133"><ele>182</ele><time>2020-08-05T10:51:24Z</time><name>PT5100</name></trkpt>
<trkpt lat="53.357556" lon="-1.751115"><ele>181</ele><time>2020-08-05T10:51:25Z</time><name>PT5101</name></trkpt>
<trkpt lat="53.357548" lon="-1.751091"><ele>178</ele><time>2020-08-05T10:51:26Z</time><name>PT5102</name></trkpt>
<trkpt lat="53.357543" lon="-1.751073"><ele>176</ele><time>2020-08-05T10:51:27Z</time><name>PT5103</name></trkpt>
<trkpt lat="53.357539" lon="-1.751059"><ele>176</ele><time>2020-08-05T10:51:28Z</time><name>PT5104</name></trkpt>
<trkpt lat="53.357536" lon="-1.751052"><ele>175</ele><time>2020-08-05T10:51:29Z</time><name>PT5105</name></trkpt>
<trkpt lat="53.357536" lon="-1.751033"><ele>176</ele><time>2020-08-05T10:51:30Z</time><name>PT5106</name></trkpt>
<trkpt lat="53.357535" lon="-1.751001"><ele>176</ele><time>2020-08-05T10:51:31Z</time><name>PT5107</name></trkpt>
<trkpt lat="53.357533" lon="-1.750983"><ele>175</ele><time>2020-08-05T10:51:32Z</time><name>PT5108</name></trkpt>
<trkpt lat="53.357530" lon="-1.750959"><ele>175</ele><time>2020-08-05T10:51:33Z</time><name>PT5109</name></trkpt>
<trkpt lat="53.357529" lon="-1.750941"><ele>175</ele><time>2020-08-05T10:51:34Z</time><name>PT5110</name></trkpt>
<trkpt lat="53.357524" lon="-1.750919"><ele>175</ele><time>2020-08-05T10:51:35Z</time><name>PT5111</name></trkpt>
<trkpt lat="53.357518" lon="-1.750902"><ele>175</ele><time>2020-08-05T10:51:36Z</time><name>PT5112</name></trkpt>
<trkpt lat="53.357510" lon="-1.750887"><ele>175</ele><time>2020-08-05T10:51:37Z</time><name>PT5113</name></trkpt>
<trkpt lat="53.357505" lon="-1.750867"><ele>176</ele><time>2020-08-05T10:51:38Z</time><name>PT5114</name></trkpt>
<trkpt lat="53.357504" lon="-1.750852"><ele>176</ele><time>2020-08-05T10:51:39Z</time><name>PT5115</name></trkpt>
<trkpt lat="53.357498" lon="-1.750844"><ele>175</ele><time>2020-08-05T10:51:40Z</time><name>PT5116</name></trkpt>
<trkpt lat="53.357497" lon="-1.750833"><ele>175</ele><time>2020-08-05T10:51:41Z</time><name>PT5117</name></trkpt>
<trkpt lat="53.357490" lon="-1.750817"><ele>174</ele><time>2020-08-05T10:51:42Z</time><name>PT5118</name></trkpt>
<trkpt lat="53.357481" lon="-1.750800"><ele>172</ele><time>2020-08-05T10:51:43Z</time><name>PT5119</name></trkpt>
<trkpt lat="53.357474" lon="-1.750782"><ele>171</ele><time>2020-08-05T10:51:44Z</time><name>PT5120</name></trkpt>
<trkpt lat="53.357470" lon="-1.750769"><ele>170</ele><time>2020-08-05T10:51:45Z</time><name>PT5121</name></trkpt>
<trkpt lat="53.357465" lon="-1.750735"><ele>172</ele><time>2020-08-05T10:51:46Z</time><name>PT5122</name></trkpt>
<trkpt lat="53.357461" lon="-1.750718"><ele>173</ele><time>2020-08-05T10:51:47Z</time><name>PT5123</name></trkpt>
<trkpt lat="53.357456" lon="-1.750701"><ele>174</ele><time>2020-08-05T10:51:48Z</time><name>PT5124</name></trkpt>
<trkpt lat="53.357440" lon="-1.750664"><ele>179</ele><time>2020-08-05T10:51:49Z</time><name>PT5125</name></trkpt>
<trkpt lat="53.357438" lon="-1.750659"><ele>179</ele><time>2020-08-05T10:51:50Z</time><name>PT5126</name></trkpt>
<trkpt lat="53.357436" lon="-1.750645"><ele>178</ele><time>2020-08-05T10:51:51Z</time><name>PT5127</name></trkpt>
<trkpt lat="53.357432" lon="-1.750635"><ele>178</ele><time>2020-08-05T10:51:52Z</time><name>PT5128</name></trkpt>
<trkpt lat="53.357427" lon="-1.750616"><ele>177</ele><time>2020-08-05T10:51:53Z</time><name>PT5129</name></trkpt>
<trkpt lat="53.357424" lon="-1.750600"><ele>176</ele><time>2020-08-05T10:51:54Z</time><name>PT5130</name></trkpt>
<trkpt lat="53.357420" lon="-1.750595"><ele>175</ele><time>2020-08-05T10:51:55Z</time><name>PT5131</name></trkpt>
<trkpt lat="53.357417" lon="-1.750587"><ele>174</ele><time>2020-08-05T10:51:56Z</time><name>PT5132</name></trkpt>
<trkpt lat="53.357412" lon="-1.750573"><ele>174</ele><time>2020-08-05T10:51:57Z</time><name>PT5133</name></trkpt>
<trkpt lat="53.357404" lon="-1.750552"><ele>175</ele><time>2020-08-05T10:51:58Z</time><name>PT5134</name></trkpt>
<trkpt lat="53.357395" lon="-1.750541"><ele>174</ele><time>2020-08-05T10:51:59Z</time><name>PT5135</name></trkpt>
<trkpt lat="53.357389" lon="-1.750530"><ele>173</ele><time>2020-08-05T10:52:00Z</time><name>PT5136</name></trkpt>
<trkpt lat="53.357382" lon="-1.750513"><ele>173</ele><time>2020-08-05T10:52:01Z</time><name>PT5137</name></trkpt>
<trkpt lat="53.357374" lon="-1.750497"><ele>173</ele><time>2020-08-05T10:52:02Z</time><name>PT5138</name></trkpt>
<trkpt lat="53.357365" lon="-1.750482"><ele>173</ele><time>2020-08-05T10:52:03Z</time><name>PT5139</name></trkpt>
<trkpt lat="53.357358" lon="-1.750461"><ele>173</ele><time>2020-08-05T10:52:04Z</time><name>PT5140</name></trkpt>
<trkpt lat="53.357351" lon="-1.750451"><ele>173</ele><time>2020-08-05T10:52:05Z</time><name>PT5141</name></trkpt>
<trkpt lat="53.357343" lon="-1.750445"><ele>172</ele><time>2020-08-05T10:52:06Z</time><name>PT5142</name></trkpt>
<trkpt lat="53.357336" lon="-1.750428"><ele>172</ele><time>2020-08-05T10:52:07Z</time><name>PT5143</name></trkpt>
<trkpt lat="53.357327" lon="-1.750417"><ele>171</ele><time>2020-08-05T10:52:08Z</time><name>PT5144</name></trkpt>
<trkpt lat="53.357320" lon="-1.750402"><ele>171</ele><time>2020-08-05T10:52:09Z</time><name>PT5145</name></trkpt>
<trkpt lat="53.357311" lon="-1.750382"><ele>171</ele><time>2020-08-05T10:52:10Z</time><name>PT5146</name></trkpt>
<trkpt lat="53.357306" lon="-1.750363"><ele>172</ele><time>2020-08-05T10:52:11Z</time><name>PT5147</name></trkpt>
<trkpt lat="53.357300" lon="-1.750349"><ele>172</ele><time>2020-08-05T10:52:12Z</time><name>PT5148</name></trkpt>
<trkpt lat="53.357294" lon="-1.750331"><ele>171</ele><time>2020-08-05T10:52:13Z</time><name>PT5149</name></trkpt>
<trkpt lat="53.357287" lon="-1.750317"><ele>170</ele><time>2020-08-05T10:52:14Z</time><name>PT5150</name></trkpt>
<trkpt lat="53.357280" lon="-1.750299"><ele>171</ele><time>2020-08-05T10:52:15Z</time><name>PT5151</name></trkpt>
<trkpt lat="53.357273" lon="-1.750285"><ele>170</ele><time>2020-08-05T10:52:16Z</time><name>PT5152</name></trkpt>
<trkpt lat="53.357266" lon="-1.750262"><ele>171</ele><time>2020-08-05T10:52:17Z</time><name>PT5153</name></trkpt>
<trkpt lat="53.357254" lon="-1.750239"><ele>173</ele><time>2020-08-05T10:52:18Z</time><name>PT5154</name></trkpt>
<trkpt lat="53.357246" lon="-1.750224"><ele>173</ele><time>2020-08-05T10:52:19Z</time><name>PT5155</name></trkpt>
<trkpt lat="53.357238" lon="-1.750212"><ele>174</ele><time>2020-08-05T10:52:20Z</time><name>PT5156</name></trkpt>
<trkpt lat="53.357231" lon="-1.750188"><ele>174</ele><time>2020-08-05T10:52:21Z</time><name>PT5157</name></trkpt>
<trkpt lat="53.357220" lon="-1.750164"><ele>175</ele><time>2020-08-05T10:52:22Z</time><name>PT5158</name></trkpt>
<trkpt lat="53.357209" lon="-1.750148"><ele>175</ele><time>2020-08-05T10:52:23Z</time><name>PT5159</name></trkpt>
<trkpt lat="53.357200" lon="-1.750116"><ele>177</ele><time>2020-08-05T10:52:24Z</time><name>PT5160</name></trkpt>
<trkpt lat="53.357188" lon="-1.750092"><ele>178</ele><time>2020-08-05T10:52:25Z</time><name>PT5161</name></trkpt>
<trkpt lat="53.357180" lon="-1.750072"><ele>178</ele><time>2020-08-05T10:52:26Z</time><name>PT5162</name></trkpt>
<trkpt lat="53.357174" lon="-1.750055"><ele>177</ele><time>2020-08-05T10:52:27Z</time><name>PT5163</name></trkpt>
<trkpt lat="53.357168" lon="-1.750036"><ele>176</ele><time>2020-08-05T10:52:28Z</time><name>PT5164</name></trkpt>
<trkpt lat="53.357157" lon="-1.750015"><ele>175</ele><time>2020-08-05T10:52:29Z</time><name>PT5165</name></trkpt>
<trkpt lat="53.357148" lon="-1.750000"><ele>174</ele><time>2020-08-05T10:52:30Z</time><name>PT5166</name></trkpt>
<trkpt lat="53.357140" lon="-1.749985"><ele>174</ele><time>2020-08-05T10:52:31Z</time><name>PT5167</name></trkpt>
<trkpt lat="53.357136" lon="-1.749960"><ele>175</ele><time>2020-08-05T10:52:32Z</time><name>PT5168</name></trkpt>
<trkpt lat="53.357133" lon="-1.749940"><ele>175</ele><time>2020-08-05T10:52:33Z</time><name>PT5169</name></trkpt>
<trkpt lat="53.357129" lon="-1.749919"><ele>176</ele><time>2020-08-05T10:52:34Z</time><name>PT5170</name></trkpt>
<trkpt lat="53.357124" lon="-1.749902"><ele>176</ele><time>2020-08-05T10:52:35Z</time><name>PT5171</name></trkpt>
<trkpt lat="53.357115" lon="-1.749878"><ele>175</ele><time>2020-08-05T10:52:36Z</time><name>PT5172</name></trkpt>
<trkpt lat="53.357107" lon="-1.749856"><ele>174</ele><time>2020-08-05T10:52:37Z</time><name>PT5173</name></trkpt>
<trkpt lat="53.357097" lon="-1.749841"><ele>173</ele><time>2020-08-05T10:52:38Z</time><name>PT5174</name></trkpt>
<trkpt lat="53.357092" lon="-1.749827"><ele>173</ele><time>2020-08-05T10:52:39Z</time><name>PT5175</name></trkpt>
<trkpt lat="53.357087" lon="-1.749815"><ele>173</ele><time>2020-08-05T10:52:40Z</time><name>PT5176</name></trkpt>
<trkpt lat="53.357087" lon="-1.749805"><ele>173</ele><time>2020-08-05T10:52:41Z</time><name>PT5177</name></trkpt>
<trkpt lat="53.357091" lon="-1.749795"><ele>173</ele><time>2020-08-05T10:52:42Z</time><name>PT5178</name></trkpt>
<trkpt lat="53.357096" lon="-1.749785"><ele>173</ele><time>2020-08-05T10:52:43Z</time><name>PT5179</name></trkpt>
<trkpt lat="53.357100" lon="-1.749785"><ele>174</ele><time>2020-08-05T10:52:44Z</time><name>PT5180</name></trkpt>
<trkpt lat="53.357102" lon="-1.749780"><ele>174</ele><time>2020-08-05T10:52:45Z</time><name>PT5181</name></trkpt>
<trkpt lat="53.357102" lon="-1.749775"><ele>175</ele><time>2020-08-05T10:52:46Z</time><name>PT5182</name></trkpt>
<trkpt lat="53.357102" lon="-1.749765"><ele>175</ele><time>2020-08-05T10:52:47Z</time><name>PT5183</name></trkpt>
<trkpt lat="53.357102" lon="-1.749746"><ele>175</ele><time>2020-08-05T10:52:51Z</time><name>PT5184</name></trkpt>
<trkpt lat="53.357107" lon="-1.749740"><ele>175</ele><time>2020-08-05T10:52:52Z</time><name>PT5185</name></trkpt>
<trkpt lat="53.357107" lon="-1.749738"><ele>175</ele><time>2020-08-05T10:52:53Z</time><name>PT5186</name></trkpt>
<trkpt lat="53.357098" lon="-1.749726"><ele>175</ele><time>2020-08-05T10:52:54Z</time><name>PT5187</name></trkpt>
<trkpt lat="53.357095" lon="-1.749713"><ele>175</ele><time>2020-08-05T10:52:55Z</time><name>PT5188</name></trkpt>
<trkpt lat="53.357094" lon="-1.749689"><ele>174</ele><time>2020-08-05T10:52:56Z</time><name>PT5189</name></trkpt>
<trkpt lat="53.357085" lon="-1.749668"><ele>173</ele><time>2020-08-05T10:52:57Z</time><name>PT5190</name></trkpt>
<trkpt lat="53.357076" lon="-1.749650"><ele>172</ele><time>2020-08-05T10:52:58Z</time><name>PT5191</name></trkpt>
<trkpt lat="53.357071" lon="-1.749638"><ele>171</ele><time>2020-08-05T10:52:59Z</time><name>PT5192</name></trkpt>
<trkpt lat="53.357064" lon="-1.749623"><ele>170</ele><time>2020-08-05T10:53:00Z</time><name>PT5193</name></trkpt>
<trkpt lat="53.357051" lon="-1.749605"><ele>171</ele><time>2020-08-05T10:53:01Z</time><name>PT5194</name></trkpt>
<trkpt lat="53.357050" lon="-1.749596"><ele>171</ele><time>2020-08-05T10:53:02Z</time><name>PT5195</name></trkpt>
<trkpt lat="53.357049" lon="-1.749585"><ele>170</ele><time>2020-08-05T10:53:03Z</time><name>PT5196</name></trkpt>
<trkpt lat="53.357038" lon="-1.749573"><ele>171</ele><time>2020-08-05T10:53:04Z</time><name>PT5197</name></trkpt>
<trkpt lat="53.357033" lon="-1.749548"><ele>171</ele><time>2020-08-05T10:53:05Z</time><name>PT5198</name></trkpt>
<trkpt lat="53.357028" lon="-1.749531"><ele>171</ele><time>2020-08-05T10:53:06Z</time><name>PT5199</name></trkpt>
<trkpt lat="53.357021" lon="-1.749512"><ele>171</ele><time>2020-08-05T10:53:07Z</time><name>PT5200</name></trkpt>
<trkpt lat="53.357014" lon="-1.749489"><ele>171</ele><time>2020-08-05T10:53:08Z</time><name>PT5201</name></trkpt>
<trkpt lat="53.357003" lon="-1.749477"><ele>172</ele><time>2020-08-05T10:53:09Z</time><name>PT5202</name></trkpt>
<trkpt lat="53.357000" lon="-1.749467"><ele>171</ele><time>2020-08-05T10:53:10Z</time><name>PT5203</name></trkpt>
<trkpt lat="53.356995" lon="-1.749458"><ele>171</ele><time>2020-08-05T10:53:11Z</time><name>PT5204</name></trkpt>
<trkpt lat="53.356992" lon="-1.749449"><ele>171</ele><time>2020-08-05T10:53:12Z</time><name>PT5205</name></trkpt>
<trkpt lat="53.356988" lon="-1.749433"><ele>170</ele><time>2020-08-05T10:53:13Z</time><name>PT5206</name></trkpt>
<trkpt lat="53.356984" lon="-1.749421"><ele>170</ele><time>2020-08-05T10:53:14Z</time><name>PT5207</name></trkpt>
<trkpt lat="53.356973" lon="-1.749409"><ele>171</ele><time>2020-08-05T10:53:15Z</time><name>PT5208</name></trkpt>
<trkpt lat="53.356961" lon="-1.749394"><ele>170</ele><time>2020-08-05T10:53:16Z</time><name>PT5209</name></trkpt>
<trkpt lat="53.356954" lon="-1.749386"><ele>168</ele><time>2020-08-05T10:53:17Z</time><name>PT5210</name></trkpt>
<trkpt lat="53.356950" lon="-1.749377"><ele>167</ele><time>2020-08-05T10:53:18Z</time><name>PT5211</name></trkpt>
<trkpt lat="53.356946" lon="-1.749363"><ele>167</ele><time>2020-08-05T10:53:19Z</time><name>PT5212</name></trkpt>
<trkpt lat="53.356941" lon="-1.749356"><ele>165</ele><time>2020-08-05T10:53:20Z</time><name>PT5213</name></trkpt>
<trkpt lat="53.356938" lon="-1.749349"><ele>164</ele><time>2020-08-05T10:53:21Z</time><name>PT5214</name></trkpt>
<trkpt lat="53.356935" lon="-1.749337"><ele>163</ele><time>2020-08-05T10:53:22Z</time><name>PT5215</name></trkpt>
<trkpt lat="53.356928" lon="-1.749327"><ele>162</ele><time>2020-08-05T10:53:23Z</time><name>PT5216</name></trkpt>
<trkpt lat="53.356922" lon="-1.749318"><ele>162</ele><time>2020-08-05T10:53:24Z</time><name>PT5217</name></trkpt>
<trkpt lat="53.356915" lon="-1.749307"><ele>162</ele><time>2020-08-05T10:53:25Z</time><name>PT5218</name></trkpt>
<trkpt lat="53.356911" lon="-1.749292"><ele>162</ele><time>2020-08-05T10:53:26Z</time><name>PT5219</name></trkpt>
<trkpt lat="53.356917" lon="-1.749268"><ele>163</ele><time>2020-08-05T10:53:27Z</time><name>PT5220</name></trkpt>
<trkpt lat="53.356920" lon="-1.749243"><ele>163</ele><time>2020-08-05T10:53:28Z</time><name>PT5221</name></trkpt>
<trkpt lat="53.356923" lon="-1.749225"><ele>163</ele><time>2020-08-05T10:53:29Z</time><name>PT5222</name></trkpt>
<trkpt lat="53.356927" lon="-1.749202"><ele>163</ele><time>2020-08-05T10:53:30Z</time><name>PT5223</name></trkpt>
<trkpt lat="53.356930" lon="-1.749179"><ele>165</ele><time>2020-08-05T10:53:31Z</time><name>PT5224</name></trkpt>
<trkpt lat="53.356934" lon="-1.749172"><ele>165</ele><time>2020-08-05T10:53:32Z</time><name>PT5225</name></trkpt>
<trkpt lat="53.356942" lon="-1.749169"><ele>163</ele><time>2020-08-05T10:53:33Z</time><name>PT5226</name></trkpt>
<trkpt lat="53.356947" lon="-1.749160"><ele>163</ele><time>2020-08-05T10:53:34Z</time><name>PT5227</name></trkpt>
<trkpt lat="53.356956" lon="-1.749144"><ele>163</ele><time>2020-08-05T10:53:35Z</time><name>PT5228</name></trkpt>
<trkpt lat="53.356962" lon="-1.749134"><ele>163</ele><time>2020-08-05T10:53:36Z</time><name>PT5229</name></trkpt>
<trkpt lat="53.356970" lon="-1.749126"><ele>162</ele><time>2020-08-05T10:53:37Z</time><name>PT5230</name></trkpt>
<trkpt lat="53.356978" lon="-1.749117"><ele>162</ele><time>2020-08-05T10:53:38Z</time><name>PT5231</name></trkpt>
<trkpt lat="53.356985" lon="-1.749114"><ele>162</ele><time>2020-08-05T10:53:39Z</time><name>PT5232</name></trkpt>
<trkpt lat="53.356992" lon="-1.749111"><ele>163</ele><time>2020-08-05T10:53:40Z</time><name>PT5233</name></trkpt>
<trkpt lat="53.357002" lon="-1.749101"><ele>165</ele><time>2020-08-05T10:53:41Z</time><name>PT5234</name></trkpt>
<trkpt lat="53.357014" lon="-1.749099"><ele>165</ele><time>2020-08-05T10:53:42Z</time><name>PT5235</name></trkpt>
<trkpt lat="53.357020" lon="-1.749093"><ele>166</ele><time>2020-08-05T10:53:43Z</time><name>PT5236</name></trkpt>
<trkpt lat="53.357026" lon="-1.749085"><ele>166</ele><time>2020-08-05T10:53:44Z</time><name>PT5237</name></trkpt>
<trkpt lat="53.357035" lon="-1.749085"><ele>166</ele><time>2020-08-05T10:53:45Z</time><name>PT5238</name></trkpt>
<trkpt lat="53.357051" lon="-1.749091"><ele>168</ele><time>2020-08-05T10:53:46Z</time><name>PT5239</name></trkpt>
<trkpt lat="53.357064" lon="-1.749100"><ele>167</ele><time>2020-08-05T10:53:47Z</time><name>PT5240</name></trkpt>
<trkpt lat="53.357073" lon="-1.749103"><ele>166</ele><time>2020-08-05T10:53:48Z</time><name>PT5241</name></trkpt>
<trkpt lat="53.357087" lon="-1.749104"><ele>167</ele><time>2020-08-05T10:53:49Z</time><name>PT5242</name></trkpt>
<trkpt lat="53.357095" lon="-1.749105"><ele>168</ele><time>2020-08-05T10:53:50Z</time><name>PT5243</name></trkpt>
<trkpt lat="53.357101" lon="-1.749110"><ele>167</ele><time>2020-08-05T10:53:51Z</time><name>PT5244</name></trkpt>
<trkpt lat="53.357108" lon="-1.749113"><ele>166</ele><time>2020-08-05T10:53:52Z</time><name>PT5245</name></trkpt>
<trkpt lat="53.357118" lon="-1.749120"><ele>166</ele><time>2020-08-05T10:53:53Z</time><name>PT5246</name></trkpt>
<trkpt lat="53.357126" lon="-1.749126"><ele>166</ele><time>2020-08-05T10:53:54Z</time><name>PT5247</name></trkpt>
<trkpt lat="53.357134" lon="-1.749130"><ele>166</ele><time>2020-08-05T10:53:55Z</time><name>PT5248</name></trkpt>
<trkpt lat="53.357138" lon="-1.749139"><ele>165</ele><time>2020-08-05T10:53:56Z</time><name>PT5249</name></trkpt>
<trkpt lat="53.357142" lon="-1.749150"><ele>165</ele><time>2020-08-05T10:53:57Z</time><name>PT5250</name></trkpt>
<trkpt lat="53.357150" lon="-1.749158"><ele>164</ele><time>2020-08-05T10:53:58Z</time><name>PT5251</name></trkpt>
<trkpt lat="53.357160" lon="-1.749164"><ele>164</ele><time>2020-08-05T10:53:59Z</time><name>PT5252</name></trkpt>
<trkpt lat="53.357174" lon="-1.749176"><ele>165</ele><time>2020-08-05T10:54:00Z</time><name>PT5253</name></trkpt>
<trkpt lat="53.357183" lon="-1.749188"><ele>163</ele><time>2020-08-05T10:54:01Z</time><name>PT5254</name></trkpt>
<trkpt lat="53.357194" lon="-1.749197"><ele>163</ele><time>2020-08-05T10:54:02Z</time><name>PT5255</name></trkpt>
<trkpt lat="53.357211" lon="-1.749202"><ele>164</ele><time>2020-08-05T10:54:03Z</time><name>PT5256</name></trkpt>
<trkpt lat="53.357226" lon="-1.749207"><ele>166</ele><time>2020-08-05T10:54:04Z</time><name>PT5257</name></trkpt>
<trkpt lat="53.357235" lon="-1.749215"><ele>166</ele><time>2020-08-05T10:54:05Z</time><name>PT5258</name></trkpt>
<trkpt lat="53.357243" lon="-1.749219"><ele>165</ele><time>2020-08-05T10:54:06Z</time><name>PT5259</name></trkpt>
<trkpt lat="53.357258" lon="-1.749221"><ele>165</ele><time>2020-08-05T10:54:07Z</time><name>PT5260</name></trkpt>
<trkpt lat="53.357272" lon="-1.749225"><ele>166</ele><time>2020-08-05T10:54:08Z</time><name>PT5261</name></trkpt>
<trkpt lat="53.357289" lon="-1.749227"><ele>167</ele><time>2020-08-05T10:54:09Z</time><name>PT5262</name></trkpt>
<trkpt lat="53.357297" lon="-1.749224"><ele>167</ele><time>2020-08-05T10:54:10Z</time><name>PT5263</name></trkpt>
<trkpt lat="53.357305" lon="-1.749225"><ele>166</ele><time>2020-08-05T10:54:11Z</time><name>PT5264</name></trkpt>
<trkpt lat="53.357322" lon="-1.749223"><ele>167</ele><time>2020-08-05T10:54:12Z</time><name>PT5265</name></trkpt>
<trkpt lat="53.357332" lon="-1.749217"><ele>167</ele><time>2020-08-05T10:54:13Z</time><name>PT5266</name></trkpt>
<trkpt lat="53.357341" lon="-1.749208"><ele>167</ele><time>2020-08-05T10:54:14Z</time><name>PT5267</name></trkpt>
<trkpt lat="53.357349" lon="-1.749205"><ele>167</ele><time>2020-08-05T10:54:15Z</time><name>PT5268</name></trkpt>
<trkpt lat="53.357359" lon="-1.749202"><ele>167</ele><time>2020-08-05T10:54:16Z</time><name>PT5269</name></trkpt>
<trkpt lat="53.357366" lon="-1.749198"><ele>166</ele><time>2020-08-05T10:54:17Z</time><name>PT5270</name></trkpt>
<trkpt lat="53.357370" lon="-1.749192"><ele>165</ele><time>2020-08-05T10:54:18Z</time><name>PT5271</name></trkpt>
<trkpt lat="53.357382" lon="-1.749184"><ele>166</ele><time>2020-08-05T10:54:19Z</time><name>PT5272</name></trkpt>
<trkpt lat="53.357392" lon="-1.749178"><ele>165</ele><time>2020-08-05T10:54:20Z</time><name>PT5273</name></trkpt>
<trkpt lat="53.357403" lon="-1.749170"><ele>165</ele><time>2020-08-05T10:54:21Z</time><name>PT5274</name></trkpt>
<trkpt lat="53.357418" lon="-1.749166"><ele>166</ele><time>2020-08-05T10:54:22Z</time><name>PT5275</name></trkpt>
<trkpt lat="53.357432" lon="-1.749163"><ele>167</ele><time>2020-08-05T10:54:23Z</time><name>PT5276</name></trkpt>
<trkpt lat="53.357441" lon="-1.749159"><ele>166</ele><time>2020-08-05T10:54:24Z</time><name>PT5277</name></trkpt>
<trkpt lat="53.357447" lon="-1.749149"><ele>167</ele><time>2020-08-05T10:54:25Z</time><name>PT5278</name></trkpt>
<trkpt lat="53.357459" lon="-1.749142"><ele>167</ele><time>2020-08-05T10:54:26Z</time><name>PT5279</name></trkpt>
<trkpt lat="53.357473" lon="-1.749137"><ele>168</ele><time>2020-08-05T10:54:27Z</time><name>PT5280</name></trkpt>
<trkpt lat="53.357488" lon="-1.749135"><ele>168</ele><time>2020-08-05T10:54:28Z</time><name>PT5281</name></trkpt>
<trkpt lat="53.357500" lon="-1.749127"><ele>168</ele><time>2020-08-05T10:54:29Z</time><name>PT5282</name></trkpt>
<trkpt lat="53.357520" lon="-1.749108"><ele>170</ele><time>2020-08-05T10:54:30Z</time><name>PT5283</name></trkpt>
<trkpt lat="53.357528" lon="-1.749102"><ele>170</ele><time>2020-08-05T10:54:31Z</time><name>PT5284</name></trkpt>
<trkpt lat="53.357540" lon="-1.749089"><ele>170</ele><time>2020-08-05T10:54:32Z</time><name>PT5285</name></trkpt>
<trkpt lat="53.357555" lon="-1.749081"><ele>170</ele><time>2020-08-05T10:54:33Z</time><name>PT5286</name></trkpt>
<trkpt lat="53.357572" lon="-1.749069"><ele>170</ele><time>2020-08-05T10:54:34Z</time><name>PT5287</name></trkpt>
<trkpt lat="53.357585" lon="-1.749057"><ele>170</ele><time>2020-08-05T10:54:35Z</time><name>PT5288</name></trkpt>
<trkpt lat="53.357598" lon="-1.749042"><ele>170</ele><time>2020-08-05T10:54:36Z</time><name>PT5289</name></trkpt>
<trkpt lat="53.357605" lon="-1.749034"><ele>171</ele><time>2020-08-05T10:54:37Z</time><name>PT5290</name></trkpt>
<trkpt lat="53.357610" lon="-1.749028"><ele>170</ele><time>2020-08-05T10:54:38Z</time><name>PT5291</name></trkpt>
<trkpt lat="53.357622" lon="-1.749022"><ele>170</ele><time>2020-08-05T10:54:39Z</time><name>PT5292</name></trkpt>
<trkpt lat="53.357638" lon="-1.749010"><ele>170</ele><time>2020-08-05T10:54:40Z</time><name>PT5293</name></trkpt>
<trkpt lat="53.357649" lon="-1.749001"><ele>170</ele><time>2020-08-05T10:54:41Z</time><name>PT5294</name></trkpt>
<trkpt lat="53.357660" lon="-1.748994"><ele>171</ele><time>2020-08-05T10:54:42Z</time><name>PT5295</name></trkpt>
<trkpt lat="53.357672" lon="-1.748978"><ele>171</ele><time>2020-08-05T10:54:43Z</time><name>PT5296</name></trkpt>
<trkpt lat="53.357690" lon="-1.748967"><ele>171</ele><time>2020-08-05T10:54:44Z</time><name>PT5297</name></trkpt>
<trkpt lat="53.357705" lon="-1.748957"><ele>172</ele><time>2020-08-05T10:54:45Z</time><name>PT5298</name></trkpt>
<trkpt lat="53.357723" lon="-1.748943"><ele>173</ele><time>2020-08-05T10:54:46Z</time><name>PT5299</name></trkpt>
<trkpt lat="53.357735" lon="-1.748935"><ele>174</ele><time>2020-08-05T10:54:47Z</time><name>PT5300</name></trkpt>
<trkpt lat="53.357746" lon="-1.748924"><ele>174</ele><time>2020-08-05T10:54:48Z</time><name>PT5301</name></trkpt>
<trkpt lat="53.357752" lon="-1.748913"><ele>174</ele><time>2020-08-05T10:54:49Z</time><name>PT5302</name></trkpt>
<trkpt lat="53.357763" lon="-1.748901"><ele>176</ele><time>2020-08-05T10:54:50Z</time><name>PT5303</name></trkpt>
<trkpt lat="53.357769" lon="-1.748895"><ele>175</ele><time>2020-08-05T10:54:51Z</time><name>PT5304</name></trkpt>
<trkpt lat="53.357782" lon="-1.748879"><ele>176</ele><time>2020-08-05T10:54:52Z</time><name>PT5305</name></trkpt>
<trkpt lat="53.357804" lon="-1.748856"><ele>177</ele><time>2020-08-05T10:54:53Z</time><name>PT5306</name></trkpt>
<trkpt lat="53.357817" lon="-1.748845"><ele>178</ele><time>2020-08-05T10:54:54Z</time><name>PT5307</name></trkpt>
<trkpt lat="53.357827" lon="-1.748839"><ele>176</ele><time>2020-08-05T10:54:55Z</time><name>PT5308</name></trkpt>
<trkpt lat="53.357836" lon="-1.748827"><ele>176</ele><time>2020-08-05T10:54:56Z</time><name>PT5309</name></trkpt>
<trkpt lat="53.357848" lon="-1.748819"><ele>178</ele><time>2020-08-05T10:54:57Z</time><name>PT5310</name></trkpt>
<trkpt lat="53.357860" lon="-1.748817"><ele>178</ele><time>2020-08-05T10:54:58Z</time><name>PT5311</name></trkpt>
<trkpt lat="53.357868" lon="-1.748816"><ele>177</ele><time>2020-08-05T10:54:59Z</time><name>PT5312</name></trkpt>
<trkpt lat="53.357874" lon="-1.748809"><ele>177</ele><time>2020-08-05T10:55:00Z</time><name>PT5313</name></trkpt>
<trkpt lat="53.357884" lon="-1.748808"><ele>177</ele><time>2020-08-05T10:55:01Z</time><name>PT5314</name></trkpt>
<trkpt lat="53.357895" lon="-1.748804"><ele>178</ele><time>2020-08-05T10:55:02Z</time><name>PT5315</name></trkpt>
<trkpt lat="53.357903" lon="-1.748799"><ele>177</ele><time>2020-08-05T10:55:03Z</time><name>PT5316</name></trkpt>
<trkpt lat="53.357913" lon="-1.748799"><ele>176</ele><time>2020-08-05T10:55:04Z</time><name>PT5317</name></trkpt>
<trkpt lat="53.357919" lon="-1.748796"><ele>175</ele><time>2020-08-05T10:55:05Z</time><name>PT5318</name></trkpt>
<trkpt lat="53.357930" lon="-1.748790"><ele>175</ele><time>2020-08-05T10:55:06Z</time><name>PT5319</name></trkpt>
<trkpt lat="53.357940" lon="-1.748783"><ele>175</ele><time>2020-08-05T10:55:07Z</time><name>PT5320</name></trkpt>
<trkpt lat="53.357956" lon="-1.748778"><ele>175</ele><time>2020-08-05T10:55:08Z</time><name>PT5321</name></trkpt>
<trkpt lat="53.357966" lon="-1.748777"><ele>174</ele><time>2020-08-05T10:55:09Z</time><name>PT5322</name></trkpt>
<trkpt lat="53.357974" lon="-1.748774"><ele>173</ele><time>2020-08-05T10:55:10Z</time><name>PT5323</name></trkpt>
<trkpt lat="53.357979" lon="-1.748769"><ele>173</ele><time>2020-08-05T10:55:11Z</time><name>PT5324</name></trkpt>
<trkpt lat="53.357986" lon="-1.748762"><ele>173</ele><time>2020-08-05T10:55:12Z</time><name>PT5325</name></trkpt>
<trkpt lat="53.357995" lon="-1.748755"><ele>172</ele><time>2020-08-05T10:55:13Z</time><name>PT5326</name></trkpt>
<trkpt lat="53.358004" lon="-1.748751"><ele>171</ele><time>2020-08-05T10:55:14Z</time><name>PT5327</name></trkpt>
<trkpt lat="53.358014" lon="-1.748749"><ele>171</ele><time>2020-08-05T10:55:15Z</time><name>PT5328</name></trkpt>
<trkpt lat="53.358027" lon="-1.748745"><ele>170</ele><time>2020-08-05T10:55:16Z</time><name>PT5329</name></trkpt>
<trkpt lat="53.358036" lon="-1.748733"><ele>171</ele><time>2020-08-05T10:55:17Z</time><name>PT5330</name></trkpt>
<trkpt lat="53.358047" lon="-1.748724"><ele>170</ele><time>2020-08-05T10:55:18Z</time><name>PT5331</name></trkpt>
<trkpt lat="53.358058" lon="-1.748711"><ele>171</ele><time>2020-08-05T10:55:19Z</time><name>PT5332</name></trkpt>
<trkpt lat="53.358064" lon="-1.748702"><ele>171</ele><time>2020-08-05T10:55:20Z</time><name>PT5333</name></trkpt>
<trkpt lat="53.358069" lon="-1.748700"><ele>169</ele><time>2020-08-05T10:55:21Z</time><name>PT5334</name></trkpt>
<trkpt lat="53.358081" lon="-1.748690"><ele>170</ele><time>2020-08-05T10:55:22Z</time><name>PT5335</name></trkpt>
<trkpt lat="53.358095" lon="-1.748684"><ele>171</ele><time>2020-08-05T10:55:23Z</time><name>PT5336</name></trkpt>
<trkpt lat="53.358102" lon="-1.748676"><ele>170</ele><time>2020-08-05T10:55:24Z</time><name>PT5337</name></trkpt>
<trkpt lat="53.358114" lon="-1.748667"><ele>170</ele><time>2020-08-05T10:55:25Z</time><name>PT5338</name></trkpt>
<trkpt lat="53.358121" lon="-1.748663"><ele>170</ele><time>2020-08-05T10:55:26Z</time><name>PT5339</name></trkpt>
<trkpt lat="53.358129" lon="-1.748656"><ele>169</ele><time>2020-08-05T10:55:27Z</time><name>PT5340</name></trkpt>
<trkpt lat="53.358135" lon="-1.748650"><ele>168</ele><time>2020-08-05T10:55:28Z</time><name>PT5341</name></trkpt>
<trkpt lat="53.358144" lon="-1.748643"><ele>168</ele><time>2020-08-05T10:55:29Z</time><name>PT5342</name></trkpt>
<trkpt lat="53.358153" lon="-1.748634"><ele>169</ele><time>2020-08-05T10:55:30Z</time><name>PT5343</name></trkpt>
<trkpt lat="53.358163" lon="-1.748628"><ele>168</ele><time>2020-08-05T10:55:31Z</time><name>PT5344</name></trkpt>
<trkpt lat="53.358173" lon="-1.748627"><ele>167</ele><time>2020-08-05T10:55:32Z</time><name>PT5345</name></trkpt>
<trkpt lat="53.358182" lon="-1.748623"><ele>166</ele><time>2020-08-05T10:55:33Z</time><name>PT5346</name></trkpt>
<trkpt lat="53.358192" lon="-1.748615"><ele>165</ele><time>2020-08-05T10:55:34Z</time><name>PT5347</name></trkpt>
<trkpt lat="53.358204" lon="-1.748608"><ele>166</ele><time>2020-08-05T10:55:35Z</time><name>PT5348</name></trkpt>
<trkpt lat="53.358220" lon="-1.748600"><ele>166</ele><time>2020-08-05T10:55:36Z</time><name>PT5349</name></trkpt>
<trkpt lat="53.358233" lon="-1.748599"><ele>167</ele><time>2020-08-05T10:55:37Z</time><name>PT5350</name></trkpt>
<trkpt lat="53.358256" lon="-1.748601"><ele>168</ele><time>2020-08-05T10:55:38Z</time><name>PT5351</name></trkpt>
<trkpt lat="53.358271" lon="-1.748595"><ele>169</ele><time>2020-08-05T10:55:39Z</time><name>PT5352</name></trkpt>
<trkpt lat="53.358287" lon="-1.748592"><ele>170</ele><time>2020-08-05T10:55:40Z</time><name>PT5353</name></trkpt>
<trkpt lat="53.358302" lon="-1.748583"><ele>170</ele><time>2020-08-05T10:55:41Z</time><name>PT5354</name></trkpt>
<trkpt lat="53.358322" lon="-1.748574"><ele>172</ele><time>2020-08-05T10:55:42Z</time><name>PT5355</name></trkpt>
<trkpt lat="53.358334" lon="-1.748571"><ele>172</ele><time>2020-08-05T10:55:43Z</time><name>PT5356</name></trkpt>
<trkpt lat="53.358348" lon="-1.748566"><ele>173</ele><time>2020-08-05T10:55:44Z</time><name>PT5357</name></trkpt>
<trkpt lat="53.358363" lon="-1.748557"><ele>173</ele><time>2020-08-05T10:55:45Z</time><name>PT5358</name></trkpt>
<trkpt lat="53.358372" lon="-1.748546"><ele>173</ele><time>2020-08-05T10:55:46Z</time><name>PT5359</name></trkpt>
<trkpt lat="53.358388" lon="-1.748536"><ele>174</ele><time>2020-08-05T10:55:47Z</time><name>PT5360</name></trkpt>
<trkpt lat="53.358402" lon="-1.748529"><ele>174</ele><time>2020-08-05T10:55:48Z</time><name>PT5361</name></trkpt>
<trkpt lat="53.358419" lon="-1.748521"><ele>175</ele><time>2020-08-05T10:55:49Z</time><name>PT5362</name></trkpt>
<trkpt lat="53.358436" lon="-1.748513"><ele>175</ele><time>2020-08-05T10:55:50Z</time><name>PT5363</name></trkpt>
<trkpt lat="53.358449" lon="-1.748505"><ele>175</ele><time>2020-08-05T10:55:51Z</time><name>PT5364</name></trkpt>
<trkpt lat="53.358462" lon="-1.748499"><ele>176</ele><time>2020-08-05T10:55:52Z</time><name>PT5365</name></trkpt>
<trkpt lat="53.358473" lon="-1.748498"><ele>176</ele><time>2020-08-05T10:55:53Z</time><name>PT5366</name></trkpt>
<trkpt lat="53.358483" lon="-1.748497"><ele>176</ele><time>2020-08-05T10:55:54Z</time><name>PT5367</name></trkpt>
<trkpt lat="53.358492" lon="-1.748495"><ele>176</ele><time>2020-08-05T10:55:55Z</time><name>PT5368</name></trkpt>
<trkpt lat="53.358499" lon="-1.748487"><ele>176</ele><time>2020-08-05T10:55:56Z</time><name>PT5369</name></trkpt>
<trkpt lat="53.358507" lon="-1.748479"><ele>176</ele><time>2020-08-05T10:55:57Z</time><name>PT5370</name></trkpt>
<trkpt lat="53.358525" lon="-1.748470"><ele>177</ele><time>2020-08-05T10:55:58Z</time><name>PT5371</name></trkpt>
<trkpt lat="53.358536" lon="-1.748459"><ele>176</ele><time>2020-08-05T10:55:59Z</time><name>PT5372</name></trkpt>
<trkpt lat="53.358549" lon="-1.748448"><ele>177</ele><time>2020-08-05T10:56:00Z</time><name>PT5373</name></trkpt>
<trkpt lat="53.358558" lon="-1.748443"><ele>177</ele><time>2020-08-05T10:56:01Z</time><name>PT5374</name></trkpt>
<trkpt lat="53.358566" lon="-1.748440"><ele>176</ele><time>2020-08-05T10:56:02Z</time><name>PT5375</name></trkpt>
<trkpt lat="53.358575" lon="-1.748437"><ele>175</ele><time>2020-08-05T10:56:03Z</time><name>PT5376</name></trkpt>
<trkpt lat="53.358584" lon="-1.748431"><ele>174</ele><time>2020-08-05T10:56:04Z</time><name>PT5377</name></trkpt>
<trkpt lat="53.358594" lon="-1.748427"><ele>174</ele><time>2020-08-05T10:56:05Z</time><name>PT5378</name></trkpt>
<trkpt lat="53.358605" lon="-1.748420"><ele>174</ele><time>2020-08-05T10:56:06Z</time><name>PT5379</name></trkpt>
<trkpt lat="53.358610" lon="-1.748416"><ele>173</ele><time>2020-08-05T10:56:07Z</time><name>PT5380</name></trkpt>
<trkpt lat="53.358619" lon="-1.748411"><ele>173</ele><time>2020-08-05T10:56:08Z</time><name>PT5381</name></trkpt>
<trkpt lat="53.358628" lon="-1.748403"><ele>173</ele><time>2020-08-05T10:56:09Z</time><name>PT5382</name></trkpt>
<trkpt lat="53.358636" lon="-1.748395"><ele>173</ele><time>2020-08-05T10:56:10Z</time><name>PT5383</name></trkpt>
<trkpt lat="53.358645" lon="-1.748382"><ele>173</ele><time>2020-08-05T10:56:11Z</time><name>PT5384</name></trkpt>
<trkpt lat="53.358655" lon="-1.748376"><ele>172</ele><time>2020-08-05T10:56:12Z</time><name>PT5385</name></trkpt>
<trkpt lat="53.358667" lon="-1.748368"><ele>172</ele><time>2020-08-05T10:56:13Z</time><name>PT5386</name></trkpt>
<trkpt lat="53.358680" lon="-1.748363"><ele>173</ele><time>2020-08-05T10:56:14Z</time><name>PT5387</name></trkpt>
<trkpt lat="53.358692" lon="-1.748355"><ele>173</ele><time>2020-08-05T10:56:15Z</time><name>PT5388</name></trkpt>
<trkpt lat="53.358705" lon="-1.748347"><ele>173</ele><time>2020-08-05T10:56:16Z</time><name>PT5389</name></trkpt>
<trkpt lat="53.358714" lon="-1.748339"><ele>174</ele><time>2020-08-05T10:56:17Z</time><name>PT5390</name></trkpt>
<trkpt lat="53.358720" lon="-1.748333"><ele>174</ele><time>2020-08-05T10:56:18Z</time><name>PT5391</name></trkpt>
<trkpt lat="53.358728" lon="-1.748323"><ele>175</ele><time>2020-08-05T10:56:19Z</time><name>PT5392</name></trkpt>
<trkpt lat="53.358738" lon="-1.748314"><ele>175</ele><time>2020-08-05T10:56:20Z</time><name>PT5393</name></trkpt>
<trkpt lat="53.358742" lon="-1.748302"><ele>176</ele><time>2020-08-05T10:56:21Z</time><name>PT5394</name></trkpt>
<trkpt lat="53.358747" lon="-1.748293"><ele>176</ele><time>2020-08-05T10:56:22Z</time><name>PT5395</name></trkpt>
<trkpt lat="53.358757" lon="-1.748277"><ele>177</ele><time>2020-08-05T10:56:23Z</time><name>PT5396</name></trkpt>
<trkpt lat="53.358766" lon="-1.748264"><ele>177</ele><time>2020-08-05T10:56:24Z</time><name>PT5397</name></trkpt>
<trkpt lat="53.358764" lon="-1.748258"><ele>175</ele><time>2020-08-05T10:56:25Z</time><name>PT5398</name></trkpt>
<trkpt lat="53.358767" lon="-1.748250"><ele>175</ele><time>2020-08-05T10:56:26Z</time><name>PT5399</name></trkpt>
<trkpt lat="53.358770" lon="-1.748239"><ele>174</ele><time>2020-08-05T10:56:27Z</time><name>PT5400</name></trkpt>
<trkpt lat="53.358780" lon="-1.748224"><ele>174</ele><time>2020-08-05T10:56:28Z</time><name>PT5401</name></trkpt>
<trkpt lat="53.358787" lon="-1.748206"><ele>174</ele><time>2020-08-05T10:56:29Z</time><name>PT5402</name></trkpt>
<trkpt lat="53.358796" lon="-1.748189"><ele>173</ele><time>2020-08-05T10:56:30Z</time><name>PT5403</name></trkpt>
<trkpt lat="53.358811" lon="-1.748176"><ele>173</ele><time>2020-08-05T10:56:31Z</time><name>PT5404</name></trkpt>
<trkpt lat="53.358819" lon="-1.748162"><ele>172</ele><time>2020-08-05T10:56:32Z</time><name>PT5405</name></trkpt>
<trkpt lat="53.358826" lon="-1.748152"><ele>172</ele><time>2020-08-05T10:56:33Z</time><name>PT5406</name></trkpt>
<trkpt lat="53.358837" lon="-1.748140"><ele>172</ele><time>2020-08-05T10:56:34Z</time><name>PT5407</name></trkpt>
<trkpt lat="53.358843" lon="-1.748132"><ele>171</ele><time>2020-08-05T10:56:35Z</time><name>PT5408</name></trkpt>
<trkpt lat="53.358850" lon="-1.748121"><ele>171</ele><time>2020-08-05T10:56:36Z</time><name>PT5409</name></trkpt>
<trkpt lat="53.358866" lon="-1.748106"><ele>173</ele><time>2020-08-05T10:56:37Z</time><name>PT5410</name></trkpt>
<trkpt lat="53.358870" lon="-1.748093"><ele>174</ele><time>2020-08-05T10:56:38Z</time><name>PT5411</name></trkpt>
<trkpt lat="53.358877" lon="-1.748076"><ele>174</ele><time>2020-08-05T10:56:39Z</time><name>PT5412</name></trkpt>
<trkpt lat="53.358884" lon="-1.748061"><ele>175</ele><time>2020-08-05T10:56:40Z</time><name>PT5413</name></trkpt>
<trkpt lat="53.358889" lon="-1.748057"><ele>175</ele><time>2020-08-05T10:56:41Z</time><name>PT5414</name></trkpt>
<trkpt lat="53.358905" lon="-1.748044"><ele>176</ele><time>2020-08-05T10:56:42Z</time><name>PT5415</name></trkpt>
<trkpt lat="53.358913" lon="-1.748029"><ele>177</ele><time>2020-08-05T10:56:43Z</time><name>PT5416</name></trkpt>
<trkpt lat="53.358916" lon="-1.748013"><ele>178</ele><time>2020-08-05T10:56:44Z</time><name>PT5417</name></trkpt>
<trkpt lat="53.358920" lon="-1.748001"><ele>178</ele><time>2020-08-05T10:56:45Z</time><name>PT5418</name></trkpt>
<trkpt lat="53.358933" lon="-1.747989"><ele>178</ele><time>2020-08-05T10:56:46Z</time><name>PT5419</name></trkpt>
<trkpt lat="53.358941" lon="-1.747982"><ele>178</ele><time>2020-08-05T10:56:47Z</time><name>PT5420</name></trkpt>
<trkpt lat="53.358957" lon="-1.747976"><ele>179</ele><time>2020-08-05T10:56:48Z</time><name>PT5421</name></trkpt>
<trkpt lat="53.358964" lon="-1.747965"><ele>178</ele><time>2020-08-05T10:56:49Z</time><name>PT5422</name></trkpt>
<trkpt lat="53.358973" lon="-1.747946"><ele>177</ele><time>2020-08-05T10:56:50Z</time><name>PT5423</name></trkpt>
<trkpt lat="53.358985" lon="-1.747927"><ele>177</ele><time>2020-08-05T10:56:51Z</time><name>PT5424</name></trkpt>
<trkpt lat="53.358992" lon="-1.747911"><ele>176</ele><time>2020-08-05T10:56:52Z</time><name>PT5425</name></trkpt>
<trkpt lat="53.359000" lon="-1.747896"><ele>175</ele><time>2020-08-05T10:56:53Z</time><name>PT5426</name></trkpt>
<trkpt lat="53.359010" lon="-1.747880"><ele>175</ele><time>2020-08-05T10:56:54Z</time><name>PT5427</name></trkpt>
<trkpt lat="53.359021" lon="-1.747862"><ele>175</ele><time>2020-08-05T10:56:55Z</time><name>PT5428</name></trkpt>
<trkpt lat="53.359034" lon="-1.747847"><ele>175</ele><time>2020-08-05T10:56:56Z</time><name>PT5429</name></trkpt>
<trkpt lat="53.359045" lon="-1.747829"><ele>176</ele><time>2020-08-05T10:56:57Z</time><name>PT5430</name></trkpt>
<trkpt lat="53.359055" lon="-1.747812"><ele>177</ele><time>2020-08-05T10:56:58Z</time><name>PT5431</name></trkpt>
<trkpt lat="53.359072" lon="-1.747797"><ele>179</ele><time>2020-08-05T10:56:59Z</time><name>PT5432</name></trkpt>
<trkpt lat="53.359078" lon="-1.747785"><ele>179</ele><time>2020-08-05T10:57:00Z</time><name>PT5433</name></trkpt>
<trkpt lat="53.359083" lon="-1.747768"><ele>179</ele><time>2020-08-05T10:57:01Z</time><name>PT5434</name></trkpt>
<trkpt lat="53.359084" lon="-1.747748"><ele>178</ele><time>2020-08-05T10:57:02Z</time><name>PT5435</name></trkpt>
<trkpt lat="53.359096" lon="-1.747724"><ele>180</ele><time>2020-08-05T10:57:03Z</time><name>PT5436</name></trkpt>
<trkpt lat="53.359103" lon="-1.747703"><ele>182</ele><time>2020-08-05T10:57:04Z</time><name>PT5437</name></trkpt>
<trkpt lat="53.359104" lon="-1.747689"><ele>181</ele><time>2020-08-05T10:57:05Z</time><name>PT5438</name></trkpt>
<trkpt lat="53.359110" lon="-1.747677"><ele>181</ele><time>2020-08-05T10:57:06Z</time><name>PT5439</name></trkpt>
<trkpt lat="53.359117" lon="-1.747663"><ele>181</ele><time>2020-08-05T10:57:07Z</time><name>PT5440</name></trkpt>
<trkpt lat="53.359128" lon="-1.747649"><ele>182</ele><time>2020-08-05T10:57:08Z</time><name>PT5441</name></trkpt>
<trkpt lat="53.359133" lon="-1.747631"><ele>181</ele><time>2020-08-05T10:57:09Z</time><name>PT5442</name></trkpt>
<trkpt lat="53.359149" lon="-1.747612"><ele>182</ele><time>2020-08-05T10:57:10Z</time><name>PT5443</name></trkpt>
<trkpt lat="53.359160" lon="-1.747601"><ele>182</ele><time>2020-08-05T10:57:11Z</time><name>PT5444</name></trkpt>
<trkpt lat="53.359172" lon="-1.747588"><ele>183</ele><time>2020-08-05T10:57:12Z</time><name>PT5445</name></trkpt>
<trkpt lat="53.359181" lon="-1.747573"><ele>183</ele><time>2020-08-05T10:57:13Z</time><name>PT5446</name></trkpt>
<trkpt lat="53.359195" lon="-1.747559"><ele>184</ele><time>2020-08-05T10:57:14Z</time><name>PT5447</name></trkpt>
<trkpt lat="53.359210" lon="-1.747547"><ele>186</ele><time>2020-08-05T10:57:15Z</time><name>PT5448</name></trkpt>
<trkpt lat="53.359218" lon="-1.747537"><ele>186</ele><time>2020-08-05T10:57:16Z</time><name>PT5449</name></trkpt>
<trkpt lat="53.359229" lon="-1.747527"><ele>187</ele><time>2020-08-05T10:57:17Z</time><name>PT5450</name></trkpt>
<trkpt lat="53.359233" lon="-1.747515"><ele>187</ele><time>2020-08-05T10:57:18Z</time><name>PT5451</name></trkpt>
<trkpt lat="53.359238" lon="-1.747500"><ele>186</ele><time>2020-08-05T10:57:19Z</time><name>PT5452</name></trkpt>
<trkpt lat="53.359241" lon="-1.747487"><ele>187</ele><time>2020-08-05T10:57:20Z</time><name>PT5453</name></trkpt>
<trkpt lat="53.359251" lon="-1.747473"><ele>186</ele><time>2020-08-05T10:57:21Z</time><name>PT5454</name></trkpt>
<trkpt lat="53.359257" lon="-1.747461"><ele>186</ele><time>2020-08-05T10:57:22Z</time><name>PT5455</name></trkpt>
<trkpt lat="53.359267" lon="-1.747450"><ele>186</ele><time>2020-08-05T10:57:23Z</time><name>PT5456</name></trkpt>
<trkpt lat="53.359275" lon="-1.747444"><ele>186</ele><time>2020-08-05T10:57:24Z</time><name>PT5457</name></trkpt>
<trkpt lat="53.359279" lon="-1.747431"><ele>185</ele><time>2020-08-05T10:57:25Z</time><name>PT5458</name></trkpt>
<trkpt lat="53.359286" lon="-1.747415"><ele>185</ele><time>2020-08-05T10:57:26Z</time><name>PT5459</name></trkpt>
<trkpt lat="53.359294" lon="-1.747394"><ele>186</ele><time>2020-08-05T10:57:27Z</time><name>PT5460</name></trkpt>
<trkpt lat="53.359302" lon="-1.747375"><ele>186</ele><time>2020-08-05T10:57:28Z</time><name>PT5461</name></trkpt>
<trkpt lat="53.359309" lon="-1.747361"><ele>186</ele><time>2020-08-05T10:57:29Z</time><name>PT5462</name></trkpt>
<trkpt lat="53.359307" lon="-1.747348"><ele>186</ele><time>2020-08-05T10:57:30Z</time><name>PT5463</name></trkpt>
<trkpt lat="53.359316" lon="-1.747334"><ele>185</ele><time>2020-08-05T10:57:31Z</time><name>PT5464</name></trkpt>
<trkpt lat="53.359321" lon="-1.747321"><ele>184</ele><time>2020-08-05T10:57:32Z</time><name>PT5465</name></trkpt>
<trkpt lat="53.359329" lon="-1.747307"><ele>184</ele><time>2020-08-05T10:57:33Z</time><name>PT5466</name></trkpt>
<trkpt lat="53.359345" lon="-1.747296"><ele>185</ele><time>2020-08-05T10:57:34Z</time><name>PT5467</name></trkpt>
<trkpt lat="53.359358" lon="-1.747288"><ele>185</ele><time>2020-08-05T10:57:35Z</time><name>PT5468</name></trkpt>
<trkpt lat="53.359365" lon="-1.747281"><ele>183</ele><time>2020-08-05T10:57:36Z</time><name>PT5469</name></trkpt>
<trkpt lat="53.359375" lon="-1.747265"><ele>183</ele><time>2020-08-05T10:57:37Z</time><name>PT5470</name></trkpt>
<trkpt lat="53.359384" lon="-1.747252"><ele>184</ele><time>2020-08-05T10:57:38Z</time><name>PT5471</name></trkpt>
<trkpt lat="53.359392" lon="-1.747236"><ele>183</ele><time>2020-08-05T10:57:39Z</time><name>PT5472</name></trkpt>
<trkpt lat="53.359402" lon="-1.747220"><ele>182</ele><time>2020-08-05T10:57:40Z</time><name>PT5473</name></trkpt>
<trkpt lat="53.359422" lon="-1.747211"><ele>182</ele><time>2020-08-05T10:57:41Z</time><name>PT5474</name></trkpt>
<trkpt lat="53.359433" lon="-1.747194"><ele>184</ele><time>2020-08-05T10:57:42Z</time><name>PT5475</name></trkpt>
<trkpt lat="53.359441" lon="-1.747175"><ele>185</ele><time>2020-08-05T10:57:43Z</time><name>PT5476</name></trkpt>
<trkpt lat="53.359450" lon="-1.747159"><ele>185</ele><time>2020-08-05T10:57:44Z</time><name>PT5477</name></trkpt>
<trkpt lat="53.359459" lon="-1.747140"><ele>185</ele><time>2020-08-05T10:57:45Z</time><name>PT5478</name></trkpt>
<trkpt lat="53.359477" lon="-1.747130"><ele>184</ele><time>2020-08-05T10:57:46Z</time><name>PT5479</name></trkpt>
<trkpt lat="53.359489" lon="-1.747114"><ele>185</ele><time>2020-08-05T10:57:47Z</time><name>PT5480</name></trkpt>
<trkpt lat="53.359499" lon="-1.747095"><ele>185</ele><time>2020-08-05T10:57:48Z</time><name>PT5481</name></trkpt>
<trkpt lat="53.359506" lon="-1.747080"><ele>184</ele><time>2020-08-05T10:57:49Z</time><name>PT5482</name></trkpt>
<trkpt lat="53.359510" lon="-1.747064"><ele>185</ele><time>2020-08-05T10:57:50Z</time><name>PT5483</name></trkpt>
<trkpt lat="53.359516" lon="-1.747050"><ele>185</ele><time>2020-08-05T10:57:51Z</time><name>PT5484</name></trkpt>
<trkpt lat="53.359527" lon="-1.747037"><ele>186</ele><time>2020-08-05T10:57:52Z</time><name>PT5485</name></trkpt>
<trkpt lat="53.359538" lon="-1.747024"><ele>185</ele><time>2020-08-05T10:57:53Z</time><name>PT5486</name></trkpt>
<trkpt lat="53.359548" lon="-1.747009"><ele>186</ele><time>2020-08-05T10:57:54Z</time><name>PT5487</name></trkpt>
<trkpt lat="53.359556" lon="-1.746993"><ele>186</ele><time>2020-08-05T10:57:55Z</time><name>PT5488</name></trkpt>
<trkpt lat="53.359562" lon="-1.746981"><ele>187</ele><time>2020-08-05T10:57:56Z</time><name>PT5489</name></trkpt>
<trkpt lat="53.359570" lon="-1.746971"><ele>188</ele><time>2020-08-05T10:57:57Z</time><name>PT5490</name></trkpt>
<trkpt lat="53.359579" lon="-1.746963"><ele>188</ele><time>2020-08-05T10:57:58Z</time><name>PT5491</name></trkpt>
<trkpt lat="53.359589" lon="-1.746952"><ele>188</ele><time>2020-08-05T10:57:59Z</time><name>PT5492</name></trkpt>
<trkpt lat="53.359599" lon="-1.746941"><ele>187</ele><time>2020-08-05T10:58:00Z</time><name>PT5493</name></trkpt>
<trkpt lat="53.359605" lon="-1.746931"><ele>187</ele><time>2020-08-05T10:58:01Z</time><name>PT5494</name></trkpt>
<trkpt lat="53.359612" lon="-1.746920"><ele>187</ele><time>2020-08-05T10:58:02Z</time><name>PT5495</name></trkpt>
<trkpt lat="53.359621" lon="-1.746910"><ele>187</ele><time>2020-08-05T10:58:03Z</time><name>PT5496</name></trkpt>
<trkpt lat="53.359627" lon="-1.746901"><ele>186</ele><time>2020-08-05T10:58:04Z</time><name>PT5497</name></trkpt>
<trkpt lat="53.359634" lon="-1.746894"><ele>186</ele><time>2020-08-05T10:58:05Z</time><name>PT5498</name></trkpt>
<trkpt lat="53.359643" lon="-1.746883"><ele>186</ele><time>2020-08-05T10:58:06Z</time><name>PT5499</name></trkpt>
<trkpt lat="53.359652" lon="-1.746872"><ele>185</ele><time>2020-08-05T10:58:07Z</time><name>PT5500</name></trkpt>
<trkpt lat="53.359665" lon="-1.746861"><ele>184</ele><time>2020-08-05T10:58:08Z</time><name>PT5501</name></trkpt>
<trkpt lat="53.359678" lon="-1.746848"><ele>185</ele><time>2020-08-05T10:58:09Z</time><name>PT5502</name></trkpt>
<trkpt lat="53.359690" lon="-1.746833"><ele>185</ele><time>2020-08-05T10:58:10Z</time><name>PT5503</name></trkpt>
<trkpt lat="53.359701" lon="-1.746821"><ele>185</ele><time>2020-08-05T10:58:11Z</time><name>PT5504</name></trkpt>
<trkpt lat="53.359710" lon="-1.746813"><ele>185</ele><time>2020-08-05T10:58:12Z</time><name>PT5505</name></trkpt>
<trkpt lat="53.359720" lon="-1.746797"><ele>186</ele><time>2020-08-05T10:58:13Z</time><name>PT5506</name></trkpt>
<trkpt lat="53.359724" lon="-1.746778"><ele>186</ele><time>2020-08-05T10:58:14Z</time><name>PT5507</name></trkpt>
<trkpt lat="53.359733" lon="-1.746767"><ele>186</ele><time>2020-08-05T10:58:15Z</time><name>PT5508</name></trkpt>
<trkpt lat="53.359739" lon="-1.746757"><ele>186</ele><time>2020-08-05T10:58:16Z</time><name>PT5509</name></trkpt>
<trkpt lat="53.359744" lon="-1.746751"><ele>185</ele><time>2020-08-05T10:58:17Z</time><name>PT5510</name></trkpt>
<trkpt lat="53.359760" lon="-1.746754"><ele>186</ele><time>2020-08-05T10:58:18Z</time><name>PT5511</name></trkpt>
<trkpt lat="53.359776" lon="-1.746746"><ele>185</ele><time>2020-08-05T10:58:19Z</time><name>PT5512</name></trkpt>
<trkpt lat="53.359789" lon="-1.746736"><ele>185</ele><time>2020-08-05T10:58:20Z</time><name>PT5513</name></trkpt>
<trkpt lat="53.359799" lon="-1.746716"><ele>185</ele><time>2020-08-05T10:58:21Z</time><name>PT5514</name></trkpt>
<trkpt lat="53.359808" lon="-1.746695"><ele>186</ele><time>2020-08-05T10:58:22Z</time><name>PT5515</name></trkpt>
<trkpt lat="53.359812" lon="-1.746683"><ele>185</ele><time>2020-08-05T10:58:23Z</time><name>PT5516</name></trkpt>
<trkpt lat="53.359813" lon="-1.746670"><ele>185</ele><time>2020-08-05T10:58:24Z</time><name>PT5517</name></trkpt>
<trkpt lat="53.359826" lon="-1.746643"><ele>187</ele><time>2020-08-05T10:58:25Z</time><name>PT5518</name></trkpt>
<trkpt lat="53.359833" lon="-1.746617"><ele>188</ele><time>2020-08-05T10:58:26Z</time><name>PT5519</name></trkpt>
<trkpt lat="53.359834" lon="-1.746594"><ele>189</ele><time>2020-08-05T10:58:27Z</time><name>PT5520</name></trkpt>
<trkpt lat="53.359848" lon="-1.746572"><ele>189</ele><time>2020-08-05T10:58:28Z</time><name>PT5521</name></trkpt>
<trkpt lat="53.359846" lon="-1.746558"><ele>190</ele><time>2020-08-05T10:58:29Z</time><name>PT5522</name></trkpt>
<trkpt lat="53.359856" lon="-1.746547"><ele>190</ele><time>2020-08-05T10:58:30Z</time><name>PT5523</name></trkpt>
<trkpt lat="53.359862" lon="-1.746534"><ele>190</ele><time>2020-08-05T10:58:31Z</time><name>PT5524</name></trkpt>
<trkpt lat="53.359871" lon="-1.746513"><ele>190</ele><time>2020-08-05T10:58:32Z</time><name>PT5525</name></trkpt>
<trkpt lat="53.359886" lon="-1.746488"><ele>191</ele><time>2020-08-05T10:58:33Z</time><name>PT5526</name></trkpt>
<trkpt lat="53.359898" lon="-1.746467"><ele>192</ele><time>2020-08-05T10:58:34Z</time><name>PT5527</name></trkpt>
<trkpt lat="53.359907" lon="-1.746458"><ele>192</ele><time>2020-08-05T10:58:35Z</time><name>PT5528</name></trkpt>
<trkpt lat="53.359917" lon="-1.746446"><ele>191</ele><time>2020-08-05T10:58:36Z</time><name>PT5529</name></trkpt>
<trkpt lat="53.359929" lon="-1.746435"><ele>190</ele><time>2020-08-05T10:58:37Z</time><name>PT5530</name></trkpt>
<trkpt lat="53.359940" lon="-1.746426"><ele>191</ele><time>2020-08-05T10:58:38Z</time><name>PT5531</name></trkpt>
<trkpt lat="53.359946" lon="-1.746417"><ele>190</ele><time>2020-08-05T10:58:39Z</time><name>PT5532</name></trkpt>
<trkpt lat="53.359955" lon="-1.746404"><ele>190</ele><time>2020-08-05T10:58:40Z</time><name>PT5533</name></trkpt>
<trkpt lat="53.359964" lon="-1.746398"><ele>190</ele><time>2020-08-05T10:58:41Z</time><name>PT5534</name></trkpt>
<trkpt lat="53.359976" lon="-1.746384"><ele>190</ele><time>2020-08-05T10:58:42Z</time><name>PT5535</name></trkpt>
<trkpt lat="53.359985" lon="-1.746371"><ele>190</ele><time>2020-08-05T10:58:43Z</time><name>PT5536</name></trkpt>
<trkpt lat="53.359996" lon="-1.746359"><ele>189</ele><time>2020-08-05T10:58:44Z</time><name>PT5537</name></trkpt>
<trkpt lat="53.360005" lon="-1.746346"><ele>189</ele><time>2020-08-05T10:58:45Z</time><name>PT5538</name></trkpt>
<trkpt lat="53.360017" lon="-1.746333"><ele>189</ele><time>2020-08-05T10:58:46Z</time><name>PT5539</name></trkpt>
<trkpt lat="53.360031" lon="-1.746327"><ele>190</ele><time>2020-08-05T10:58:47Z</time><name>PT5540</name></trkpt>
<trkpt lat="53.360043" lon="-1.746322"><ele>188</ele><time>2020-08-05T10:58:48Z</time><name>PT5541</name></trkpt>
<trkpt lat="53.360052" lon="-1.746310"><ele>188</ele><time>2020-08-05T10:58:49Z</time><name>PT5542</name></trkpt>
<trkpt lat="53.360058" lon="-1.746284"><ele>188</ele><time>2020-08-05T10:58:50Z</time><name>PT5543</name></trkpt>
<trkpt lat="53.360070" lon="-1.746265"><ele>188</ele><time>2020-08-05T10:58:51Z</time><name>PT5544</name></trkpt>
<trkpt lat="53.360080" lon="-1.746250"><ele>188</ele><time>2020-08-05T10:58:52Z</time><name>PT5545</name></trkpt>
<trkpt lat="53.360090" lon="-1.746242"><ele>188</ele><time>2020-08-05T10:58:53Z</time><name>PT5546</name></trkpt>
<trkpt lat="53.360100" lon="-1.746227"><ele>188</ele><time>2020-08-05T10:58:54Z</time><name>PT5547</name></trkpt>
<trkpt lat="53.360112" lon="-1.746216"><ele>189</ele><time>2020-08-05T10:58:55Z</time><name>PT5548</name></trkpt>
<trkpt lat="53.360122" lon="-1.746202"><ele>190</ele><time>2020-08-05T10:58:56Z</time><name>PT5549</name></trkpt>
<trkpt lat="53.360135" lon="-1.746184"><ele>191</ele><time>2020-08-05T10:58:57Z</time><name>PT5550</name></trkpt>
<trkpt lat="53.360147" lon="-1.746177"><ele>192</ele><time>2020-08-05T10:58:58Z</time><name>PT5551</name></trkpt>
<trkpt lat="53.360162" lon="-1.746167"><ele>192</ele><time>2020-08-05T10:58:59Z</time><name>PT5552</name></trkpt>
<trkpt lat="53.360171" lon="-1.746168"><ele>191</ele><time>2020-08-05T10:59:00Z</time><name>PT5553</name></trkpt>
<trkpt lat="53.360185" lon="-1.746161"><ele>192</ele><time>2020-08-05T10:59:01Z</time><name>PT5554</name></trkpt>
<trkpt lat="53.360196" lon="-1.746148"><ele>191</ele><time>2020-08-05T10:59:02Z</time><name>PT5555</name></trkpt>
<trkpt lat="53.360207" lon="-1.746137"><ele>192</ele><time>2020-08-05T10:59:03Z</time><name>PT5556</name></trkpt>
<trkpt lat="53.360218" lon="-1.746127"><ele>193</ele><time>2020-08-05T10:59:04Z</time><name>PT5557</name></trkpt>
<trkpt lat="53.360223" lon="-1.746112"><ele>192</ele><time>2020-08-05T10:59:05Z</time><name>PT5558</name></trkpt>
<trkpt lat="53.360229" lon="-1.746090"><ele>192</ele><time>2020-08-05T10:59:06Z</time><name>PT5559</name></trkpt>
<trkpt lat="53.360237" lon="-1.746076"><ele>192</ele><time>2020-08-05T10:59:07Z</time><name>PT5560</name></trkpt>
<trkpt lat="53.360242" lon="-1.746057"><ele>193</ele><time>2020-08-05T10:59:08Z</time><name>PT5561</name></trkpt>
<trkpt lat="53.360250" lon="-1.746041"><ele>193</ele><time>2020-08-05T10:59:09Z</time><name>PT5562</name></trkpt>
<trkpt lat="53.360256" lon="-1.746032"><ele>193</ele><time>2020-08-05T10:59:10Z</time><name>PT5563</name></trkpt>
<trkpt lat="53.360259" lon="-1.746025"><ele>193</ele><time>2020-08-05T10:59:11Z</time><name>PT5564</name></trkpt>
<trkpt lat="53.360266" lon="-1.746023"><ele>193</ele><time>2020-08-05T10:59:12Z</time><name>PT5565</name></trkpt>
<trkpt lat="53.360272" lon="-1.746007"><ele>193</ele><time>2020-08-05T10:59:13Z</time><name>PT5566</name></trkpt>
<trkpt lat="53.360276" lon="-1.745993"><ele>193</ele><time>2020-08-05T10:59:14Z</time><name>PT5567</name></trkpt>
<trkpt lat="53.360281" lon="-1.745984"><ele>193</ele><time>2020-08-05T10:59:15Z</time><name>PT5568</name></trkpt>
<trkpt lat="53.360293" lon="-1.745959"><ele>192</ele><time>2020-08-05T10:59:19Z</time><name>PT5569</name></trkpt>
<trkpt lat="53.360307" lon="-1.745925"><ele>191</ele><time>2020-08-05T10:59:20Z</time><name>PT5570</name></trkpt>
<trkpt lat="53.360315" lon="-1.745890"><ele>191</ele><time>2020-08-05T10:59:21Z</time><name>PT5571</name></trkpt>
<trkpt lat="53.360327" lon="-1.745866"><ele>191</ele><time>2020-08-05T10:59:22Z</time><name>PT5572</name></trkpt>
<trkpt lat="53.360335" lon="-1.745837"><ele>191</ele><time>2020-08-05T10:59:23Z</time><name>PT5573</name></trkpt>
<trkpt lat="53.360341" lon="-1.745800"><ele>191</ele><time>2020-08-05T10:59:24Z</time><name>PT5574</name></trkpt>
<trkpt lat="53.360345" lon="-1.745773"><ele>192</ele><time>2020-08-05T10:59:25Z</time><name>PT5575</name></trkpt>
<trkpt lat="53.360353" lon="-1.745747"><ele>192</ele><time>2020-08-05T10:59:26Z</time><name>PT5576</name></trkpt>
<trkpt lat="53.360359" lon="-1.745728"><ele>192</ele><time>2020-08-05T10:59:27Z</time><name>PT5577</name></trkpt>
<trkpt lat="53.360365" lon="-1.745702"><ele>191</ele><time>2020-08-05T10:59:28Z</time><name>PT5578</name></trkpt>
<trkpt lat="53.360369" lon="-1.745674"><ele>192</ele><time>2020-08-05T10:59:29Z</time><name>PT5579</name></trkpt>
<trkpt lat="53.360369" lon="-1.745649"><ele>192</ele><time>2020-08-05T10:59:30Z</time><name>PT5580</name></trkpt>
<trkpt lat="53.360371" lon="-1.745622"><ele>192</ele><time>2020-08-05T10:59:31Z</time><name>PT5581</name></trkpt>
<trkpt lat="53.360371" lon="-1.745595"><ele>192</ele><time>2020-08-05T10:59:32Z</time><name>PT5582</name></trkpt>
<trkpt lat="53.360373" lon="-1.745571"><ele>193</ele><time>2020-08-05T10:59:33Z</time><name>PT5583</name></trkpt>
<trkpt lat="53.360372" lon="-1.745546"><ele>193</ele><time>2020-08-05T10:59:34Z</time><name>PT5584</name></trkpt>
<trkpt lat="53.360374" lon="-1.745522"><ele>193</ele><time>2020-08-05T10:59:35Z</time><name>PT5585</name></trkpt>
<trkpt lat="53.360378" lon="-1.745502"><ele>193</ele><time>2020-08-05T10:59:36Z</time><name>PT5586</name></trkpt>
<trkpt lat="53.360381" lon="-1.745483"><ele>193</ele><time>2020-08-05T10:59:37Z</time><name>PT5587</name></trkpt>
<trkpt lat="53.360385" lon="-1.745471"><ele>194</ele><time>2020-08-05T10:59:38Z</time><name>PT5588</name></trkpt>
<trkpt lat="53.360387" lon="-1.745455"><ele>194</ele><time>2020-08-05T10:59:39Z</time><name>PT5589</name></trkpt>
<trkpt lat="53.360389" lon="-1.745434"><ele>194</ele><time>2020-08-05T10:59:40Z</time><name>PT5590</name></trkpt>
<trkpt lat="53.360391" lon="-1.745412"><ele>195</ele><time>2020-08-05T10:59:41Z</time><name>PT5591</name></trkpt>
<trkpt lat="53.360393" lon="-1.745399"><ele>195</ele><time>2020-08-05T10:59:42Z</time><name>PT5592</name></trkpt>
<trkpt lat="53.360396" lon="-1.745385"><ele>195</ele><time>2020-08-05T10:59:43Z</time><name>PT5593</name></trkpt>
<trkpt lat="53.360400" lon="-1.745368"><ele>196</ele><time>2020-08-05T10:59:44Z</time><name>PT5594</name></trkpt>
<trkpt lat="53.360407" lon="-1.745356"><ele>196</ele><time>2020-08-05T10:59:45Z</time><name>PT5595</name></trkpt>
<trkpt lat="53.360410" lon="-1.745338"><ele>196</ele><time>2020-08-05T10:59:46Z</time><name>PT5596</name></trkpt>
<trkpt lat="53.360412" lon="-1.745320"><ele>197</ele><time>2020-08-05T10:59:47Z</time><name>PT5597</name></trkpt>
<trkpt lat="53.360415" lon="-1.745308"><ele>197</ele><time>2020-08-05T10:59:48Z</time><name>PT5598</name></trkpt>
<trkpt lat="53.360417" lon="-1.745296"><ele>197</ele><time>2020-08-05T10:59:49Z</time><name>PT5599</name></trkpt>
<trkpt lat="53.360422" lon="-1.745267"><ele>197</ele><time>2020-08-05T10:59:56Z</time><name>PT5600</name></trkpt>
<trkpt lat="53.360425" lon="-1.745237"><ele>197</ele><time>2020-08-05T10:59:57Z</time><name>PT5601</name></trkpt>
<trkpt lat="53.360433" lon="-1.745200"><ele>197</ele><time>2020-08-05T10:59:58Z</time><name>PT5602</name></trkpt>
<trkpt lat="53.360437" lon="-1.745163"><ele>198</ele><time>2020-08-05T10:59:59Z</time><name>PT5603</name></trkpt>
<trkpt lat="53.360442" lon="-1.745141"><ele>198</ele><time>2020-08-05T11:00:00Z</time><name>PT5604</name></trkpt>
<trkpt lat="53.360445" lon="-1.745112"><ele>198</ele><time>2020-08-05T11:00:01Z</time><name>PT5605</name></trkpt>
<trkpt lat="53.360453" lon="-1.745090"><ele>199</ele><time>2020-08-05T11:00:02Z</time><name>PT5606</name></trkpt>
<trkpt lat="53.360459" lon="-1.745068"><ele>199</ele><time>2020-08-05T11:00:03Z</time><name>PT5607</name></trkpt>
<trkpt lat="53.360462" lon="-1.745044"><ele>199</ele><time>2020-08-05T11:00:04Z</time><name>PT5608</name></trkpt>
<trkpt lat="53.360468" lon="-1.745023"><ele>200</ele><time>2020-08-05T11:00:05Z</time><name>PT5609</name></trkpt>
<trkpt lat="53.360473" lon="-1.745008"><ele>200</ele><time>2020-08-05T11:00:06Z</time><name>PT5610</name></trkpt>
<trkpt lat="53.360475" lon="-1.744997"><ele>200</ele><time>2020-08-05T11:00:07Z</time><name>PT5611</name></trkpt>
<trkpt lat="53.360476" lon="-1.744978"><ele>201</ele><time>2020-08-05T11:00:08Z</time><name>PT5612</name></trkpt>
<trkpt lat="53.360480" lon="-1.744963"><ele>201</ele><time>2020-08-05T11:00:09Z</time><name>PT5613</name></trkpt>
<trkpt lat="53.360484" lon="-1.744943"><ele>201</ele><time>2020-08-05T11:00:10Z</time><name>PT5614</name></trkpt>
<trkpt lat="53.360487" lon="-1.744930"><ele>201</ele><time>2020-08-05T11:00:11Z</time><name>PT5615</name></trkpt>
<trkpt lat="53.360492" lon="-1.744912"><ele>201</ele><time>2020-08-05T11:00:12Z</time><name>PT5616</name></trkpt>
<trkpt lat="53.360496" lon="-1.744901"><ele>202</ele><time>2020-08-05T11:00:13Z</time><name>PT5617</name></trkpt>
<trkpt lat="53.360496" lon="-1.744884"><ele>201</ele><time>2020-08-05T11:00:14Z</time><name>PT5618</name></trkpt>
<trkpt lat="53.360500" lon="-1.744870"><ele>201</ele><time>2020-08-05T11:00:15Z</time><name>PT5619</name></trkpt>
<trkpt lat="53.360503" lon="-1.744853"><ele>202</ele><time>2020-08-05T11:00:16Z</time><name>PT5620</name></trkpt>
<trkpt lat="53.360506" lon="-1.744832"><ele>202</ele><time>2020-08-05T11:00:17Z</time><name>PT5621</name></trkpt>
<trkpt lat="53.360512" lon="-1.744815"><ele>202</ele><time>2020-08-05T11:00:18Z</time><name>PT5622</name></trkpt>
<trkpt lat="53.360524" lon="-1.744797"><ele>202</ele><time>2020-08-05T11:00:19Z</time><name>PT5623</name></trkpt>
<trkpt lat="53.360532" lon="-1.744778"><ele>203</ele><time>2020-08-05T11:00:20Z</time><name>PT5624</name></trkpt>
<trkpt lat="53.360539" lon="-1.744756"><ele>203</ele><time>2020-08-05T11:00:21Z</time><name>PT5625</name></trkpt>
<trkpt lat="53.360546" lon="-1.744739"><ele>204</ele><time>2020-08-05T11:00:22Z</time><name>PT5626</name></trkpt>
<trkpt lat="53.360551" lon="-1.744725"><ele>205</ele><time>2020-08-05T11:00:23Z</time><name>PT5627</name></trkpt>
<trkpt lat="53.360557" lon="-1.744716"><ele>205</ele><time>2020-08-05T11:00:24Z</time><name>PT5628</name></trkpt>
<trkpt lat="53.360563" lon="-1.744707"><ele>206</ele><time>2020-08-05T11:00:25Z</time><name>PT5629</name></trkpt>
<trkpt lat="53.360569" lon="-1.744699"><ele>206</ele><time>2020-08-05T11:00:26Z</time><name>PT5630</name></trkpt>
<trkpt lat="53.360571" lon="-1.744694"><ele>206</ele><time>2020-08-05T11:00:27Z</time><name>PT5631</name></trkpt>
<trkpt lat="53.360581" lon="-1.744689"><ele>207</ele><time>2020-08-05T11:00:28Z</time><name>PT5632</name></trkpt>
<trkpt lat="53.360589" lon="-1.744687"><ele>207</ele><time>2020-08-05T11:00:29Z</time><name>PT5633</name></trkpt>
<trkpt lat="53.360598" lon="-1.744685"><ele>207</ele><time>2020-08-05T11:00:30Z</time><name>PT5634</name></trkpt>
<trkpt lat="53.360602" lon="-1.744677"><ele>208</ele><time>2020-08-05T11:00:31Z</time><name>PT5635</name></trkpt>
<trkpt lat="53.360605" lon="-1.744672"><ele>208</ele><time>2020-08-05T11:00:32Z</time><name>PT5636</name></trkpt>
<trkpt lat="53.360613" lon="-1.744668"><ele>208</ele><time>2020-08-05T11:00:33Z</time><name>PT5637</name></trkpt>
<trkpt lat="53.360617" lon="-1.744668"><ele>208</ele><time>2020-08-05T11:00:34Z</time><name>PT5638</name></trkpt>
<trkpt lat="53.360621" lon="-1.744664"><ele>208</ele><time>2020-08-05T11:00:35Z</time><name>PT5639</name></trkpt>
<trkpt lat="53.360625" lon="-1.744653"><ele>207</ele><time>2020-08-05T11:00:41Z</time><name>PT5640</name></trkpt>
<trkpt lat="53.360640" lon="-1.744649"><ele>206</ele><time>2020-08-05T11:00:42Z</time><name>PT5641</name></trkpt>
<trkpt lat="53.360650" lon="-1.744649"><ele>206</ele><time>2020-08-05T11:00:43Z</time><name>PT5642</name></trkpt>
<trkpt lat="53.360659" lon="-1.744648"><ele>206</ele><time>2020-08-05T11:00:44Z</time><name>PT5643</name></trkpt>
<trkpt lat="53.360675" lon="-1.744646"><ele>206</ele><time>2020-08-05T11:00:45Z</time><name>PT5644</name></trkpt>
<trkpt lat="53.360691" lon="-1.744643"><ele>206</ele><time>2020-08-05T11:00:46Z</time><name>PT5645</name></trkpt>
<trkpt lat="53.360706" lon="-1.744641"><ele>205</ele><time>2020-08-05T11:00:47Z</time><name>PT5646</name></trkpt>
<trkpt lat="53.360725" lon="-1.744637"><ele>206</ele><time>2020-08-05T11:00:48Z</time><name>PT5647</name></trkpt>
<trkpt lat="53.360735" lon="-1.744637"><ele>206</ele><time>2020-08-05T11:00:49Z</time><name>PT5648</name></trkpt>
<trkpt lat="53.360751" lon="-1.744636"><ele>206</ele><time>2020-08-05T11:00:50Z</time><name>PT5649</name></trkpt>
<trkpt lat="53.360757" lon="-1.744646"><ele>206</ele><time>2020-08-05T11:00:51Z</time><name>PT5650</name></trkpt>
<trkpt lat="53.360762" lon="-1.744646"><ele>206</ele><time>2020-08-05T11:00:52Z</time><name>PT5651</name></trkpt>
<trkpt lat="53.360770" lon="-1.744650"><ele>206</ele><time>2020-08-05T11:00:53Z</time><name>PT5652</name></trkpt>
<trkpt lat="53.360781" lon="-1.744658"><ele>206</ele><time>2020-08-05T11:00:54Z</time><name>PT5653</name></trkpt>
<trkpt lat="53.360791" lon="-1.744658"><ele>206</ele><time>2020-08-05T11:00:55Z</time><name>PT5654</name></trkpt>
<trkpt lat="53.360796" lon="-1.744657"><ele>206</ele><time>2020-08-05T11:00:56Z</time><name>PT5655</name></trkpt>
<trkpt lat="53.360802" lon="-1.744653"><ele>206</ele><time>2020-08-05T11:00:57Z</time><name>PT5656</name></trkpt>
<trkpt lat="53.360804" lon="-1.744645"><ele>206</ele><time>2020-08-05T11:00:58Z</time><name>PT5657</name></trkpt>
<trkpt lat="53.360819" lon="-1.744651"><ele>205</ele><time>2020-08-05T11:01:06Z</time><name>PT5658</name></trkpt>
<trkpt lat="53.360840" lon="-1.744655"><ele>205</ele><time>2020-08-05T11:01:07Z</time><name>PT5659</name></trkpt>
<trkpt lat="53.360850" lon="-1.744660"><ele>205</ele><time>2020-08-05T11:01:08Z</time><name>PT5660</name></trkpt>
<trkpt lat="53.360865" lon="-1.744656"><ele>205</ele><time>2020-08-05T11:01:09Z</time><name>PT5661</name></trkpt>
<trkpt lat="53.360882" lon="-1.744657"><ele>204</ele><time>2020-08-05T11:01:10Z</time><name>PT5662</name></trkpt>
<trkpt lat="53.360890" lon="-1.744655"><ele>204</ele><time>2020-08-05T11:01:11Z</time><name>PT5663</name></trkpt>
<trkpt lat="53.360908" lon="-1.744653"><ele>204</ele><time>2020-08-05T11:01:12Z</time><name>PT5664</name></trkpt>
<trkpt lat="53.360916" lon="-1.744650"><ele>205</ele><time>2020-08-05T11:01:13Z</time><name>PT5665</name></trkpt>
<trkpt lat="53.360929" lon="-1.744653"><ele>205</ele><time>2020-08-05T11:01:14Z</time><name>PT5666</name></trkpt>
<trkpt lat="53.360947" lon="-1.744655"><ele>204</ele><time>2020-08-05T11:01:15Z</time><name>PT5667</name></trkpt>
<trkpt lat="53.360965" lon="-1.744654"><ele>204</ele><time>2020-08-05T11:01:16Z</time><name>PT5668</name></trkpt>
<trkpt lat="53.360982" lon="-1.744654"><ele>205</ele><time>2020-08-05T11:01:17Z</time><name>PT5669</name></trkpt>
<trkpt lat="53.361000" lon="-1.744655"><ele>205</ele><time>2020-08-05T11:01:18Z</time><name>PT5670</name></trkpt>
<trkpt lat="53.361016" lon="-1.744652"><ele>205</ele><time>2020-08-05T11:01:19Z</time><name>PT5671</name></trkpt>
<trkpt lat="53.361029" lon="-1.744653"><ele>205</ele><time>2020-08-05T11:01:20Z</time><name>PT5672</name></trkpt>
<trkpt lat="53.361039" lon="-1.744653"><ele>205</ele><time>2020-08-05T11:01:21Z</time><name>PT5673</name></trkpt>
<trkpt lat="53.361056" lon="-1.744660"><ele>205</ele><time>2020-08-05T11:01:22Z</time><name>PT5674</name></trkpt>
<trkpt lat="53.361067" lon="-1.744666"><ele>205</ele><time>2020-08-05T11:01:23Z</time><name>PT5675</name></trkpt>
<trkpt lat="53.361082" lon="-1.744667"><ele>206</ele><time>2020-08-05T11:01:24Z</time><name>PT5676</name></trkpt>
<trkpt lat="53.361100" lon="-1.744662"><ele>206</ele><time>2020-08-05T11:01:25Z</time><name>PT5677</name></trkpt>
<trkpt lat="53.361112" lon="-1.744664"><ele>205</ele><time>2020-08-05T11:01:26Z</time><name>PT5678</name></trkpt>
<trkpt lat="53.361126" lon="-1.744667"><ele>205</ele><time>2020-08-05T11:01:27Z</time><name>PT5679</name></trkpt>
<trkpt lat="53.361144" lon="-1.744670"><ele>206</ele><time>2020-08-05T11:01:28Z</time><name>PT5680</name></trkpt>
<trkpt lat="53.361164" lon="-1.744674"><ele>206</ele><time>2020-08-05T11:01:29Z</time><name>PT5681</name></trkpt>
<trkpt lat="53.361181" lon="-1.744675"><ele>206</ele><time>2020-08-05T11:01:30Z</time><name>PT5682</name></trkpt>
<trkpt lat="53.361194" lon="-1.744675"><ele>206</ele><time>2020-08-05T11:01:31Z</time><name>PT5683</name></trkpt>
<trkpt lat="53.361205" lon="-1.744675"><ele>206</ele><time>2020-08-05T11:01:32Z</time><name>PT5684</name></trkpt>
<trkpt lat="53.361222" lon="-1.744671"><ele>206</ele><time>2020-08-05T11:01:33Z</time><name>PT5685</name></trkpt>
<trkpt lat="53.361245" lon="-1.744667"><ele>206</ele><time>2020-08-05T11:01:34Z</time><name>PT5686</name></trkpt>
<trkpt lat="53.361259" lon="-1.744664"><ele>206</ele><time>2020-08-05T11:01:35Z</time><name>PT5687</name></trkpt>
<trkpt lat="53.361265" lon="-1.744665"><ele>206</ele><time>2020-08-05T11:01:36Z</time><name>PT5688</name></trkpt>
<trkpt lat="53.361272" lon="-1.744664"><ele>206</ele><time>2020-08-05T11:01:37Z</time><name>PT5689</name></trkpt>
<trkpt lat="53.361281" lon="-1.744662"><ele>206</ele><time>2020-08-05T11:01:38Z</time><name>PT5690</name></trkpt>
<trkpt lat="53.361297" lon="-1.744662"><ele>206</ele><time>2020-08-05T11:01:53Z</time><name>PT5691</name></trkpt>
<trkpt lat="53.361317" lon="-1.744658"><ele>206</ele><time>2020-08-05T11:01:54Z</time><name>PT5692</name></trkpt>
<trkpt lat="53.361336" lon="-1.744678"><ele>207</ele><time>2020-08-05T11:01:55Z</time><name>PT5693</name></trkpt>
<trkpt lat="53.361353" lon="-1.744677"><ele>207</ele><time>2020-08-05T11:01:56Z</time><name>PT5694</name></trkpt>
<trkpt lat="53.361369" lon="-1.744679"><ele>207</ele><time>2020-08-05T11:01:57Z</time><name>PT5695</name></trkpt>
<trkpt lat="53.361382" lon="-1.744675"><ele>206</ele><time>2020-08-05T11:01:58Z</time><name>PT5696</name></trkpt>
<trkpt lat="53.361396" lon="-1.744673"><ele>206</ele><time>2020-08-05T11:01:59Z</time><name>PT5697</name></trkpt>
<trkpt lat="53.361417" lon="-1.744680"><ele>206</ele><time>2020-08-05T11:02:00Z</time><name>PT5698</name></trkpt>
<trkpt lat="53.361428" lon="-1.744679"><ele>205</ele><time>2020-08-05T11:02:01Z</time><name>PT5699</name></trkpt>
<trkpt lat="53.361438" lon="-1.744685"><ele>205</ele><time>2020-08-05T11:02:02Z</time><name>PT5700</name></trkpt>
<trkpt lat="53.361456" lon="-1.744694"><ele>205</ele><time>2020-08-05T11:02:03Z</time><name>PT5701</name></trkpt>
<trkpt lat="53.361467" lon="-1.744698"><ele>205</ele><time>2020-08-05T11:02:04Z</time><name>PT5702</name></trkpt>
<trkpt lat="53.361477" lon="-1.744695"><ele>204</ele><time>2020-08-05T11:02:05Z</time><name>PT5703</name></trkpt>
<trkpt lat="53.361487" lon="-1.744698"><ele>205</ele><time>2020-08-05T11:02:06Z</time><name>PT5704</name></trkpt>
<trkpt lat="53.361501" lon="-1.744701"><ele>205</ele><time>2020-08-05T11:02:07Z</time><name>PT5705</name></trkpt>
<trkpt lat="53.361512" lon="-1.744700"><ele>205</ele><time>2020-08-05T11:02:08Z</time><name>PT5706</name></trkpt>
<trkpt lat="53.361532" lon="-1.744694"><ele>204</ele><time>2020-08-05T11:02:10Z</time><name>PT5707</name></trkpt>
<trkpt lat="53.361555" lon="-1.744685"><ele>204</ele><time>2020-08-05T11:02:11Z</time><name>PT5708</name></trkpt>
<trkpt lat="53.361568" lon="-1.744686"><ele>204</ele><time>2020-08-05T11:02:12Z</time><name>PT5709</name></trkpt>
<trkpt lat="53.361585" lon="-1.744707"><ele>203</ele><time>2020-08-05T11:02:13Z</time><name>PT5710</name></trkpt>
<trkpt lat="53.361597" lon="-1.744714"><ele>203</ele><time>2020-08-05T11:02:14Z</time><name>PT5711</name></trkpt>
<trkpt lat="53.361612" lon="-1.744715"><ele>203</ele><time>2020-08-05T11:02:15Z</time><name>PT5712</name></trkpt>
<trkpt lat="53.361633" lon="-1.744717"><ele>203</ele><time>2020-08-05T11:02:16Z</time><name>PT5713</name></trkpt>
<trkpt lat="53.361650" lon="-1.744719"><ele>202</ele><time>2020-08-05T11:02:17Z</time><name>PT5714</name></trkpt>
<trkpt lat="53.361661" lon="-1.744719"><ele>202</ele><time>2020-08-05T11:02:18Z</time><name>PT5715</name></trkpt>
<trkpt lat="53.361682" lon="-1.744718"><ele>202</ele><time>2020-08-05T11:02:19Z</time><name>PT5716</name></trkpt>
<trkpt lat="53.361695" lon="-1.744717"><ele>202</ele><time>2020-08-05T11:02:20Z</time><name>PT5717</name></trkpt>
<trkpt lat="53.361711" lon="-1.744720"><ele>201</ele><time>2020-08-05T11:02:21Z</time><name>PT5718</name></trkpt>
<trkpt lat="53.361721" lon="-1.744721"><ele>201</ele><time>2020-08-05T11:02:22Z</time><name>PT5719</name></trkpt>
<trkpt lat="53.361733" lon="-1.744719"><ele>201</ele><time>2020-08-05T11:02:23Z</time><name>PT5720</name></trkpt>
<trkpt lat="53.361761" lon="-1.744723"><ele>201</ele><time>2020-08-05T11:02:24Z</time><name>PT5721</name></trkpt>
<trkpt lat="53.361784" lon="-1.744724"><ele>201</ele><time>2020-08-05T11:02:25Z</time><name>PT5722</name></trkpt>
<trkpt lat="53.361801" lon="-1.744725"><ele>201</ele><time>2020-08-05T11:02:26Z</time><name>PT5723</name></trkpt>
<trkpt lat="53.361826" lon="-1.744728"><ele>201</ele><time>2020-08-05T11:02:27Z</time><name>PT5724</name></trkpt>
<trkpt lat="53.361845" lon="-1.744729"><ele>201</ele><time>2020-08-05T11:02:28Z</time><name>PT5725</name></trkpt>
<trkpt lat="53.361862" lon="-1.744734"><ele>202</ele><time>2020-08-05T11:02:29Z</time><name>PT5726</name></trkpt>
<trkpt lat="53.361882" lon="-1.744740"><ele>203</ele><time>2020-08-05T11:02:30Z</time><name>PT5727</name></trkpt>
<trkpt lat="53.361895" lon="-1.744744"><ele>203</ele><time>2020-08-05T11:02:31Z</time><name>PT5728</name></trkpt>
<trkpt lat="53.361905" lon="-1.744750"><ele>203</ele><time>2020-08-05T11:02:32Z</time><name>PT5729</name></trkpt>
<trkpt lat="53.361915" lon="-1.744756"><ele>203</ele><time>2020-08-05T11:02:33Z</time><name>PT5730</name></trkpt>
<trkpt lat="53.361928" lon="-1.744753"><ele>204</ele><time>2020-08-05T11:02:34Z</time><name>PT5731</name></trkpt>
<trkpt lat="53.361938" lon="-1.744755"><ele>204</ele><time>2020-08-05T11:02:35Z</time><name>PT5732</name></trkpt>
<trkpt lat="53.361942" lon="-1.744757"><ele>204</ele><time>2020-08-05T11:02:36Z</time><name>PT5733</name></trkpt>
<trkpt lat="53.361954" lon="-1.744756"><ele>205</ele><time>2020-08-05T11:02:37Z</time><name>PT5734</name></trkpt>
<trkpt lat="53.361963" lon="-1.744756"><ele>205</ele><time>2020-08-05T11:02:38Z</time><name>PT5735</name></trkpt>
<trkpt lat="53.361977" lon="-1.744758"><ele>205</ele><time>2020-08-05T11:02:39Z</time><name>PT5736</name></trkpt>
<trkpt lat="53.361990" lon="-1.744757"><ele>204</ele><time>2020-08-05T11:02:40Z</time><name>PT5737</name></trkpt>
<trkpt lat="53.361997" lon="-1.744759"><ele>204</ele><time>2020-08-05T11:02:41Z</time><name>PT5738</name></trkpt>
<trkpt lat="53.362013" lon="-1.744756"><ele>204</ele><time>2020-08-05T11:02:42Z</time><name>PT5739</name></trkpt>
<trkpt lat="53.362029" lon="-1.744757"><ele>204</ele><time>2020-08-05T11:02:43Z</time><name>PT5740</name></trkpt>
<trkpt lat="53.362041" lon="-1.744753"><ele>204</ele><time>2020-08-05T11:02:44Z</time><name>PT5741</name></trkpt>
<trkpt lat="53.362054" lon="-1.744753"><ele>204</ele><time>2020-08-05T11:02:45Z</time><name>PT5742</name></trkpt>
<trkpt lat="53.362066" lon="-1.744752"><ele>205</ele><time>2020-08-05T11:02:46Z</time><name>PT5743</name></trkpt>
<trkpt lat="53.362078" lon="-1.744748"><ele>204</ele><time>2020-08-05T11:02:47Z</time><name>PT5744</name></trkpt>
<trkpt lat="53.362091" lon="-1.744742"><ele>204</ele><time>2020-08-05T11:02:48Z</time><name>PT5745</name></trkpt>
<trkpt lat="53.362102" lon="-1.744743"><ele>205</ele><time>2020-08-05T11:02:49Z</time><name>PT5746</name></trkpt>
<trkpt lat="53.362107" lon="-1.744738"><ele>206</ele><time>2020-08-05T11:02:50Z</time><name>PT5747</name></trkpt>
<trkpt lat="53.362117" lon="-1.744734"><ele>206</ele><time>2020-08-05T11:02:51Z</time><name>PT5748</name></trkpt>
<trkpt lat="53.362131" lon="-1.744737"><ele>206</ele><time>2020-08-05T11:02:52Z</time><name>PT5749</name></trkpt>
<trkpt lat="53.362139" lon="-1.744738"><ele>206</ele><time>2020-08-05T11:02:53Z</time><name>PT5750</name></trkpt>
<trkpt lat="53.362143" lon="-1.744731"><ele>206</ele><time>2020-08-05T11:02:54Z</time><name>PT5751</name></trkpt>
<trkpt lat="53.362154" lon="-1.744729"><ele>206</ele><time>2020-08-05T11:02:55Z</time><name>PT5752</name></trkpt>
<trkpt lat="53.362164" lon="-1.744725"><ele>206</ele><time>2020-08-05T11:02:56Z</time><name>PT5753</name></trkpt>
<trkpt lat="53.362170" lon="-1.744729"><ele>206</ele><time>2020-08-05T11:02:57Z</time><name>PT5754</name></trkpt>
<trkpt lat="53.362177" lon="-1.744724"><ele>207</ele><time>2020-08-05T11:02:58Z</time><name>PT5755</name></trkpt>
<trkpt lat="53.362186" lon="-1.744726"><ele>206</ele><time>2020-08-05T11:02:59Z</time><name>PT5756</name></trkpt>
<trkpt lat="53.362205" lon="-1.744723"><ele>207</ele><time>2020-08-05T11:03:00Z</time><name>PT5757</name></trkpt>
<trkpt lat="53.362225" lon="-1.744724"><ele>207</ele><time>2020-08-05T11:03:01Z</time><name>PT5758</name></trkpt>
<trkpt lat="53.362237" lon="-1.744724"><ele>207</ele><time>2020-08-05T11:03:02Z</time><name>PT5759</name></trkpt>
<trkpt lat="53.362257" lon="-1.744723"><ele>207</ele><time>2020-08-05T11:03:03Z</time><name>PT5760</name></trkpt>
<trkpt lat="53.362267" lon="-1.744722"><ele>207</ele><time>2020-08-05T11:03:04Z</time><name>PT5761</name></trkpt>
<trkpt lat="53.362280" lon="-1.744721"><ele>207</ele><time>2020-08-05T11:03:05Z</time><name>PT5762</name></trkpt>
<trkpt lat="53.362293" lon="-1.744724"><ele>207</ele><time>2020-08-05T11:03:06Z</time><name>PT5763</name></trkpt>
<trkpt lat="53.362308" lon="-1.744727"><ele>207</ele><time>2020-08-05T11:03:07Z</time><name>PT5764</name></trkpt>
<trkpt lat="53.362325" lon="-1.744726"><ele>208</ele><time>2020-08-05T11:03:08Z</time><name>PT5765</name></trkpt>
<trkpt lat="53.362345" lon="-1.744731"><ele>208</ele><time>2020-08-05T11:03:09Z</time><name>PT5766</name></trkpt>
<trkpt lat="53.362358" lon="-1.744732"><ele>208</ele><time>2020-08-05T11:03:10Z</time><name>PT5767</name></trkpt>
<trkpt lat="53.362369" lon="-1.744735"><ele>208</ele><time>2020-08-05T11:03:11Z</time><name>PT5768</name></trkpt>
<trkpt lat="53.362371" lon="-1.744735"><ele>209</ele><time>2020-08-05T11:03:12Z</time><name>PT5769</name></trkpt>
<trkpt lat="53.362380" lon="-1.744738"><ele>210</ele><time>2020-08-05T11:03:13Z</time><name>PT5770</name></trkpt>
<trkpt lat="53.362387" lon="-1.744738"><ele>210</ele><time>2020-08-05T11:03:14Z</time><name>PT5771</name></trkpt>
<trkpt lat="53.362400" lon="-1.744738"><ele>210</ele><time>2020-08-05T11:03:15Z</time><name>PT5772</name></trkpt>
<trkpt lat="53.362414" lon="-1.744741"><ele>211</ele><time>2020-08-05T11:03:16Z</time><name>PT5773</name></trkpt>
<trkpt lat="53.362431" lon="-1.744741"><ele>211</ele><time>2020-08-05T11:03:17Z</time><name>PT5774</name></trkpt>
<trkpt lat="53.362439" lon="-1.744742"><ele>212</ele><time>2020-08-05T11:03:18Z</time><name>PT5775</name></trkpt>
<trkpt lat="53.362449" lon="-1.744746"><ele>212</ele><time>2020-08-05T11:03:19Z</time><name>PT5776</name></trkpt>
<trkpt lat="53.362455" lon="-1.744742"><ele>212</ele><time>2020-08-05T11:03:20Z</time><name>PT5777</name></trkpt>
<trkpt lat="53.362464" lon="-1.744741"><ele>212</ele><time>2020-08-05T11:03:21Z</time><name>PT5778</name></trkpt>
<trkpt lat="53.362477" lon="-1.744738"><ele>212</ele><time>2020-08-05T11:03:22Z</time><name>PT5779</name></trkpt>
<trkpt lat="53.362490" lon="-1.744736"><ele>212</ele><time>2020-08-05T11:03:23Z</time><name>PT5780</name></trkpt>
<trkpt lat="53.362505" lon="-1.744731"><ele>213</ele><time>2020-08-05T11:03:24Z</time><name>PT5781</name></trkpt>
<trkpt lat="53.362517" lon="-1.744729"><ele>213</ele><time>2020-08-05T11:03:25Z</time><name>PT5782</name></trkpt>
<trkpt lat="53.362530" lon="-1.744722"><ele>213</ele><time>2020-08-05T11:03:26Z</time><name>PT5783</name></trkpt>
<trkpt lat="53.362541" lon="-1.744720"><ele>213</ele><time>2020-08-05T11:03:27Z</time><name>PT5784</name></trkpt>
<trkpt lat="53.362554" lon="-1.744718"><ele>213</ele><time>2020-08-05T11:03:28Z</time><name>PT5785</name></trkpt>
<trkpt lat="53.362569" lon="-1.744719"><ele>213</ele><time>2020-08-05T11:03:29Z</time><name>PT5786</name></trkpt>
<trkpt lat="53.362580" lon="-1.744723"><ele>214</ele><time>2020-08-05T11:03:30Z</time><name>PT5787</name></trkpt>
<trkpt lat="53.362598" lon="-1.744726"><ele>214</ele><time>2020-08-05T11:03:31Z</time><name>PT5788</name></trkpt>
<trkpt lat="53.362613" lon="-1.744727"><ele>214</ele><time>2020-08-05T11:03:32Z</time><name>PT5789</name></trkpt>
<trkpt lat="53.362628" lon="-1.744728"><ele>214</ele><time>2020-08-05T11:03:33Z</time><name>PT5790</name></trkpt>
<trkpt lat="53.362640" lon="-1.744725"><ele>214</ele><time>2020-08-05T11:03:34Z</time><name>PT5791</name></trkpt>
<trkpt lat="53.362649" lon="-1.744718"><ele>213</ele><time>2020-08-05T11:03:35Z</time><name>PT5792</name></trkpt>
<trkpt lat="53.362657" lon="-1.744715"><ele>213</ele><time>2020-08-05T11:03:36Z</time><name>PT5793</name></trkpt>
<trkpt lat="53.362678" lon="-1.744717"><ele>214</ele><time>2020-08-05T11:03:37Z</time><name>PT5794</name></trkpt>
<trkpt lat="53.362690" lon="-1.744713"><ele>214</ele><time>2020-08-05T11:03:38Z</time><name>PT5795</name></trkpt>
<trkpt lat="53.362706" lon="-1.744709"><ele>214</ele><time>2020-08-05T11:03:39Z</time><name>PT5796</name></trkpt>
<trkpt lat="53.362719" lon="-1.744702"><ele>214</ele><time>2020-08-05T11:03:40Z</time><name>PT5797</name></trkpt>
<trkpt lat="53.362729" lon="-1.744702"><ele>215</ele><time>2020-08-05T11:03:41Z</time><name>PT5798</name></trkpt>
<trkpt lat="53.362742" lon="-1.744700"><ele>215</ele><time>2020-08-05T11:03:42Z</time><name>PT5799</name></trkpt>
<trkpt lat="53.362765" lon="-1.744704"><ele>215</ele><time>2020-08-05T11:03:43Z</time><name>PT5800</name></trkpt>
<trkpt lat="53.362777" lon="-1.744711"><ele>216</ele><time>2020-08-05T11:03:44Z</time><name>PT5801</name></trkpt>
<trkpt lat="53.362789" lon="-1.744710"><ele>216</ele><time>2020-08-05T11:03:45Z</time><name>PT5802</name></trkpt>
<trkpt lat="53.362791" lon="-1.744710"><ele>216</ele><time>2020-08-05T11:03:46Z</time><name>PT5803</name></trkpt>
<trkpt lat="53.362800" lon="-1.744711"><ele>216</ele><time>2020-08-05T11:03:47Z</time><name>PT5804</name></trkpt>
<trkpt lat="53.362812" lon="-1.744716"><ele>216</ele><time>2020-08-05T11:03:48Z</time><name>PT5805</name></trkpt>
<trkpt lat="53.362838" lon="-1.744712"><ele>217</ele><time>2020-08-05T11:03:49Z</time><name>PT5806</name></trkpt>
<trkpt lat="53.362853" lon="-1.744716"><ele>218</ele><time>2020-08-05T11:03:50Z</time><name>PT5807</name></trkpt>
<trkpt lat="53.362863" lon="-1.744719"><ele>218</ele><time>2020-08-05T11:03:51Z</time><name>PT5808</name></trkpt>
<trkpt lat="53.362875" lon="-1.744714"><ele>217</ele><time>2020-08-05T11:03:52Z</time><name>PT5809</name></trkpt>
<trkpt lat="53.362887" lon="-1.744713"><ele>217</ele><time>2020-08-05T11:03:53Z</time><name>PT5810</name></trkpt>
<trkpt lat="53.362900" lon="-1.744710"><ele>217</ele><time>2020-08-05T11:03:54Z</time><name>PT5811</name></trkpt>
<trkpt lat="53.362916" lon="-1.744706"><ele>217</ele><time>2020-08-05T11:03:55Z</time><name>PT5812</name></trkpt>
<trkpt lat="53.362934" lon="-1.744706"><ele>218</ele><time>2020-08-05T11:03:56Z</time><name>PT5813</name></trkpt>
<trkpt lat="53.362952" lon="-1.744702"><ele>218</ele><time>2020-08-05T11:03:57Z</time><name>PT5814</name></trkpt>
<trkpt lat="53.362974" lon="-1.744699"><ele>218</ele><time>2020-08-05T11:03:58Z</time><name>PT5815</name></trkpt>
<trkpt lat="53.362990" lon="-1.744694"><ele>218</ele><time>2020-08-05T11:03:59Z</time><name>PT5816</name></trkpt>
<trkpt lat="53.363002" lon="-1.744693"><ele>219</ele><time>2020-08-05T11:04:00Z</time><name>PT5817</name></trkpt>
<trkpt lat="53.363017" lon="-1.744696"><ele>218</ele><time>2020-08-05T11:04:01Z</time><name>PT5818</name></trkpt>
<trkpt lat="53.363032" lon="-1.744695"><ele>218</ele><time>2020-08-05T11:04:02Z</time><name>PT5819</name></trkpt>
<trkpt lat="53.363048" lon="-1.744696"><ele>218</ele><time>2020-08-05T11:04:03Z</time><name>PT5820</name></trkpt>
<trkpt lat="53.363057" lon="-1.744695"><ele>218</ele><time>2020-08-05T11:04:04Z</time><name>PT5821</name></trkpt>
<trkpt lat="53.363066" lon="-1.744695"><ele>218</ele><time>2020-08-05T11:04:05Z</time><name>PT5822</name></trkpt>
<trkpt lat="53.363080" lon="-1.744695"><ele>217</ele><time>2020-08-05T11:04:06Z</time><name>PT5823</name></trkpt>
<trkpt lat="53.363095" lon="-1.744702"><ele>217</ele><time>2020-08-05T11:04:07Z</time><name>PT5824</name></trkpt>
<trkpt lat="53.363107" lon="-1.744700"><ele>218</ele><time>2020-08-05T11:04:08Z</time><name>PT5825</name></trkpt>
<trkpt lat="53.363123" lon="-1.744697"><ele>218</ele><time>2020-08-05T11:04:09Z</time><name>PT5826</name></trkpt>
<trkpt lat="53.363138" lon="-1.744698"><ele>218</ele><time>2020-08-05T11:04:10Z</time><name>PT5827</name></trkpt>
<trkpt lat="53.363157" lon="-1.744701"><ele>219</ele><time>2020-08-05T11:04:11Z</time><name>PT5828</name></trkpt>
<trkpt lat="53.363176" lon="-1.744705"><ele>219</ele><time>2020-08-05T11:04:12Z</time><name>PT5829</name></trkpt>
<trkpt lat="53.363184" lon="-1.744707"><ele>219</ele><time>2020-08-05T11:04:13Z</time><name>PT5830</name></trkpt>
<trkpt lat="53.363193" lon="-1.744710"><ele>219</ele><time>2020-08-05T11:04:14Z</time><name>PT5831</name></trkpt>
<trkpt lat="53.363204" lon="-1.744710"><ele>219</ele><time>2020-08-05T11:04:15Z</time><name>PT5832</name></trkpt>
<trkpt lat="53.363222" lon="-1.744711"><ele>219</ele><time>2020-08-05T11:04:16Z</time><name>PT5833</name></trkpt>
<trkpt lat="53.363244" lon="-1.744714"><ele>220</ele><time>2020-08-05T11:04:17Z</time><name>PT5834</name></trkpt>
<trkpt lat="53.363268" lon="-1.744715"><ele>220</ele><time>2020-08-05T11:04:18Z</time><name>PT5835</name></trkpt>
<trkpt lat="53.363278" lon="-1.744716"><ele>221</ele><time>2020-08-05T11:04:19Z</time><name>PT5836</name></trkpt>
<trkpt lat="53.363290" lon="-1.744714"><ele>221</ele><time>2020-08-05T11:04:20Z</time><name>PT5837</name></trkpt>
<trkpt lat="53.363301" lon="-1.744715"><ele>221</ele><time>2020-08-05T11:04:21Z</time><name>PT5838</name></trkpt>
<trkpt lat="53.363317" lon="-1.744704"><ele>221</ele><time>2020-08-05T11:04:22Z</time><name>PT5839</name></trkpt>
<trkpt lat="53.363320" lon="-1.744705"><ele>221</ele><time>2020-08-05T11:04:23Z</time><name>PT5840</name></trkpt>
<trkpt lat="53.363334" lon="-1.744710"><ele>221</ele><time>2020-08-05T11:04:24Z</time><name>PT5841</name></trkpt>
<trkpt lat="53.363349" lon="-1.744707"><ele>221</ele><time>2020-08-05T11:04:25Z</time><name>PT5842</name></trkpt>
<trkpt lat="53.363359" lon="-1.744704"><ele>221</ele><time>2020-08-05T11:04:26Z</time><name>PT5843</name></trkpt>
<trkpt lat="53.363371" lon="-1.744707"><ele>221</ele><time>2020-08-05T11:04:27Z</time><name>PT5844</name></trkpt>
<trkpt lat="53.363393" lon="-1.744707"><ele>221</ele><time>2020-08-05T11:04:28Z</time><name>PT5845</name></trkpt>
<trkpt lat="53.363406" lon="-1.744704"><ele>222</ele><time>2020-08-05T11:04:29Z</time><name>PT5846</name></trkpt>
<trkpt lat="53.363420" lon="-1.744701"><ele>222</ele><time>2020-08-05T11:04:30Z</time><name>PT5847</name></trkpt>
<trkpt lat="53.363433" lon="-1.744696"><ele>222</ele><time>2020-08-05T11:04:31Z</time><name>PT5848</name></trkpt>
<trkpt lat="53.363448" lon="-1.744689"><ele>222</ele><time>2020-08-05T11:04:32Z</time><name>PT5849</name></trkpt>
<trkpt lat="53.363458" lon="-1.744687"><ele>222</ele><time>2020-08-05T11:04:33Z</time><name>PT5850</name></trkpt>
<trkpt lat="53.363467" lon="-1.744684"><ele>223</ele><time>2020-08-05T11:04:34Z</time><name>PT5851</name></trkpt>
<trkpt lat="53.363481" lon="-1.744690"><ele>223</ele><time>2020-08-05T11:04:35Z</time><name>PT5852</name></trkpt>
<trkpt lat="53.363498" lon="-1.744690"><ele>223</ele><time>2020-08-05T11:04:36Z</time><name>PT5853</name></trkpt>
<trkpt lat="53.363506" lon="-1.744692"><ele>223</ele><time>2020-08-05T11:04:37Z</time><name>PT5854</name></trkpt>
<trkpt lat="53.363516" lon="-1.744698"><ele>223</ele><time>2020-08-05T11:04:38Z</time><name>PT5855</name></trkpt>
<trkpt lat="53.363530" lon="-1.744704"><ele>224</ele><time>2020-08-05T11:04:39Z</time><name>PT5856</name></trkpt>
<trkpt lat="53.363545" lon="-1.744710"><ele>224</ele><time>2020-08-05T11:04:40Z</time><name>PT5857</name></trkpt>
<trkpt lat="53.363558" lon="-1.744713"><ele>223</ele><time>2020-08-05T11:04:41Z</time><name>PT5858</name></trkpt>
<trkpt lat="53.363569" lon="-1.744714"><ele>224</ele><time>2020-08-05T11:04:42Z</time><name>PT5859</name></trkpt>
<trkpt lat="53.363583" lon="-1.744715"><ele>224</ele><time>2020-08-05T11:04:43Z</time><name>PT5860</name></trkpt>
<trkpt lat="53.363596" lon="-1.744713"><ele>224</ele><time>2020-08-05T11:04:44Z</time><name>PT5861</name></trkpt>
<trkpt lat="53.363607" lon="-1.744716"><ele>225</ele><time>2020-08-05T11:04:45Z</time><name>PT5862</name></trkpt>
<trkpt lat="53.363620" lon="-1.744714"><ele>225</ele><time>2020-08-05T11:04:46Z</time><name>PT5863</name></trkpt>
<trkpt lat="53.363624" lon="-1.744707"><ele>225</ele><time>2020-08-05T11:04:47Z</time><name>PT5864</name></trkpt>
<trkpt lat="53.363632" lon="-1.744711"><ele>226</ele><time>2020-08-05T11:04:48Z</time><name>PT5865</name></trkpt>
<trkpt lat="53.363647" lon="-1.744716"><ele>226</ele><time>2020-08-05T11:04:49Z</time><name>PT5866</name></trkpt>
<trkpt lat="53.363671" lon="-1.744719"><ele>225</ele><time>2020-08-05T11:04:50Z</time><name>PT5867</name></trkpt>
<trkpt lat="53.363678" lon="-1.744724"><ele>225</ele><time>2020-08-05T11:04:51Z</time><name>PT5868</name></trkpt>
<trkpt lat="53.363691" lon="-1.744724"><ele>225</ele><time>2020-08-05T11:04:52Z</time><name>PT5869</name></trkpt>
<trkpt lat="53.363709" lon="-1.744724"><ele>225</ele><time>2020-08-05T11:04:53Z</time><name>PT5870</name></trkpt>
<trkpt lat="53.363726" lon="-1.744729"><ele>225</ele><time>2020-08-05T11:04:54Z</time><name>PT5871</name></trkpt>
<trkpt lat="53.363736" lon="-1.744734"><ele>225</ele><time>2020-08-05T11:04:55Z</time><name>PT5872</name></trkpt>
<trkpt lat="53.363746" lon="-1.744734"><ele>224</ele><time>2020-08-05T11:04:56Z</time><name>PT5873</name></trkpt>
<trkpt lat="53.363760" lon="-1.744726"><ele>224</ele><time>2020-08-05T11:04:57Z</time><name>PT5874</name></trkpt>
<trkpt lat="53.363771" lon="-1.744731"><ele>224</ele><time>2020-08-05T11:04:58Z</time><name>PT5875</name></trkpt>
<trkpt lat="53.363789" lon="-1.744743"><ele>224</ele><time>2020-08-05T11:04:59Z</time><name>PT5876</name></trkpt>
<trkpt lat="53.363805" lon="-1.744743"><ele>224</ele><time>2020-08-05T11:05:00Z</time><name>PT5877</name></trkpt>
<trkpt lat="53.363818" lon="-1.744740"><ele>224</ele><time>2020-08-05T11:05:01Z</time><name>PT5878</name></trkpt>
<trkpt lat="53.363828" lon="-1.744743"><ele>224</ele><time>2020-08-05T11:05:02Z</time><name>PT5879</name></trkpt>
<trkpt lat="53.363837" lon="-1.744743"><ele>224</ele><time>2020-08-05T11:05:03Z</time><name>PT5880</name></trkpt>
<trkpt lat="53.363849" lon="-1.744740"><ele>224</ele><time>2020-08-05T11:05:04Z</time><name>PT5881</name></trkpt>
<trkpt lat="53.363870" lon="-1.744740"><ele>224</ele><time>2020-08-05T11:05:05Z</time><name>PT5882</name></trkpt>
<trkpt lat="53.363885" lon="-1.744739"><ele>224</ele><time>2020-08-05T11:05:06Z</time><name>PT5883</name></trkpt>
<trkpt lat="53.363897" lon="-1.744741"><ele>224</ele><time>2020-08-05T11:05:07Z</time><name>PT5884</name></trkpt>
<trkpt lat="53.363908" lon="-1.744737"><ele>224</ele><time>2020-08-05T11:05:08Z</time><name>PT5885</name></trkpt>
<trkpt lat="53.363914" lon="-1.744735"><ele>224</ele><time>2020-08-05T11:05:09Z</time><name>PT5886</name></trkpt>
<trkpt lat="53.363924" lon="-1.744741"><ele>225</ele><time>2020-08-05T11:05:10Z</time><name>PT5887</name></trkpt>
<trkpt lat="53.363933" lon="-1.744742"><ele>224</ele><time>2020-08-05T11:05:11Z</time><name>PT5888</name></trkpt>
<trkpt lat="53.363938" lon="-1.744740"><ele>224</ele><time>2020-08-05T11:05:12Z</time><name>PT5889</name></trkpt>
<trkpt lat="53.363948" lon="-1.744737"><ele>224</ele><time>2020-08-05T11:05:13Z</time><name>PT5890</name></trkpt>
<trkpt lat="53.363960" lon="-1.744733"><ele>224</ele><time>2020-08-05T11:05:14Z</time><name>PT5891</name></trkpt>
<trkpt lat="53.363972" lon="-1.744736"><ele>223</ele><time>2020-08-05T11:05:15Z</time><name>PT5892</name></trkpt>
<trkpt lat="53.363984" lon="-1.744737"><ele>223</ele><time>2020-08-05T11:05:16Z</time><name>PT5893</name></trkpt>
<trkpt lat="53.363995" lon="-1.744733"><ele>223</ele><time>2020-08-05T11:05:17Z</time><name>PT5894</name></trkpt>
<trkpt lat="53.364002" lon="-1.744734"><ele>223</ele><time>2020-08-05T11:05:18Z</time><name>PT5895</name></trkpt>
<trkpt lat="53.364007" lon="-1.744735"><ele>223</ele><time>2020-08-05T11:05:19Z</time><name>PT5896</name></trkpt>
<trkpt lat="53.364015" lon="-1.744735"><ele>222</ele><time>2020-08-05T11:05:20Z</time><name>PT5897</name></trkpt>
<trkpt lat="53.364029" lon="-1.744734"><ele>222</ele><time>2020-08-05T11:05:21Z</time><name>PT5898</name></trkpt>
<trkpt lat="53.364043" lon="-1.744730"><ele>223</ele><time>2020-08-05T11:05:22Z</time><name>PT5899</name></trkpt>
<trkpt lat="53.364060" lon="-1.744725"><ele>223</ele><time>2020-08-05T11:05:23Z</time><name>PT5900</name></trkpt>
<trkpt lat="53.364067" lon="-1.744723"><ele>224</ele><time>2020-08-05T11:05:24Z</time><name>PT5901</name></trkpt>
<trkpt lat="53.364074" lon="-1.744720"><ele>224</ele><time>2020-08-05T11:05:25Z</time><name>PT5902</name></trkpt>
<trkpt lat="53.364080" lon="-1.744720"><ele>224</ele><time>2020-08-05T11:05:26Z</time><name>PT5903</name></trkpt>
<trkpt lat="53.364094" lon="-1.744717"><ele>224</ele><time>2020-08-05T11:05:27Z</time><name>PT5904</name></trkpt>
<trkpt lat="53.364103" lon="-1.744717"><ele>224</ele><time>2020-08-05T11:05:28Z</time><name>PT5905</name></trkpt>
<trkpt lat="53.364114" lon="-1.744721"><ele>224</ele><time>2020-08-05T11:05:29Z</time><name>PT5906</name></trkpt>
<trkpt lat="53.364126" lon="-1.744722"><ele>224</ele><time>2020-08-05T11:05:30Z</time><name>PT5907</name></trkpt>
<trkpt lat="53.364134" lon="-1.744720"><ele>223</ele><time>2020-08-05T11:05:31Z</time><name>PT5908</name></trkpt>
<trkpt lat="53.364159" lon="-1.744713"><ele>223</ele><time>2020-08-05T11:05:32Z</time><name>PT5909</name></trkpt>
<trkpt lat="53.364179" lon="-1.744708"><ele>223</ele><time>2020-08-05T11:05:33Z</time><name>PT5910</name></trkpt>
<trkpt lat="53.364196" lon="-1.744710"><ele>223</ele><time>2020-08-05T11:05:34Z</time><name>PT5911</name></trkpt>
<trkpt lat="53.364209" lon="-1.744707"><ele>223</ele><time>2020-08-05T11:05:35Z</time><name>PT5912</name></trkpt>
<trkpt lat="53.364221" lon="-1.744714"><ele>223</ele><time>2020-08-05T11:05:36Z</time><name>PT5913</name></trkpt>
<trkpt lat="53.364231" lon="-1.744715"><ele>223</ele><time>2020-08-05T11:05:37Z</time><name>PT5914</name></trkpt>
<trkpt lat="53.364248" lon="-1.744721"><ele>223</ele><time>2020-08-05T11:05:38Z</time><name>PT5915</name></trkpt>
<trkpt lat="53.364259" lon="-1.744722"><ele>223</ele><time>2020-08-05T11:05:39Z</time><name>PT5916</name></trkpt>
<trkpt lat="53.364266" lon="-1.744722"><ele>223</ele><time>2020-08-05T11:05:40Z</time><name>PT5917</name></trkpt>
<trkpt lat="53.364272" lon="-1.744727"><ele>223</ele><time>2020-08-05T11:05:41Z</time><name>PT5918</name></trkpt>
<trkpt lat="53.364283" lon="-1.744730"><ele>223</ele><time>2020-08-05T11:05:42Z</time><name>PT5919</name></trkpt>
<trkpt lat="53.364294" lon="-1.744732"><ele>222</ele><time>2020-08-05T11:05:43Z</time><name>PT5920</name></trkpt>
<trkpt lat="53.364302" lon="-1.744730"><ele>222</ele><time>2020-08-05T11:05:44Z</time><name>PT5921</name></trkpt>
<trkpt lat="53.364308" lon="-1.744724"><ele>222</ele><time>2020-08-05T11:05:45Z</time><name>PT5922</name></trkpt>
<trkpt lat="53.364325" lon="-1.744717"><ele>222</ele><time>2020-08-05T11:05:46Z</time><name>PT5923</name></trkpt>
<trkpt lat="53.364347" lon="-1.744724"><ele>222</ele><time>2020-08-05T11:05:47Z</time><name>PT5924</name></trkpt>
<trkpt lat="53.364365" lon="-1.744727"><ele>223</ele><time>2020-08-05T11:05:48Z</time><name>PT5925</name></trkpt>
<trkpt lat="53.364372" lon="-1.744726"><ele>223</ele><time>2020-08-05T11:05:49Z</time><name>PT5926</name></trkpt>
<trkpt lat="53.364384" lon="-1.744727"><ele>224</ele><time>2020-08-05T11:05:50Z</time><name>PT5927</name></trkpt>
<trkpt lat="53.364395" lon="-1.744721"><ele>224</ele><time>2020-08-05T11:05:51Z</time><name>PT5928</name></trkpt>
<trkpt lat="53.364405" lon="-1.744717"><ele>224</ele><time>2020-08-05T11:05:52Z</time><name>PT5929</name></trkpt>
<trkpt lat="53.364411" lon="-1.744716"><ele>224</ele><time>2020-08-05T11:05:53Z</time><name>PT5930</name></trkpt>
<trkpt lat="53.364422" lon="-1.744717"><ele>224</ele><time>2020-08-05T11:05:54Z</time><name>PT5931</name></trkpt>
<trkpt lat="53.364433" lon="-1.744722"><ele>224</ele><time>2020-08-05T11:05:55Z</time><name>PT5932</name></trkpt>
<trkpt lat="53.364449" lon="-1.744725"><ele>225</ele><time>2020-08-05T11:05:56Z</time><name>PT5933</name></trkpt>
<trkpt lat="53.364457" lon="-1.744728"><ele>225</ele><time>2020-08-05T11:05:57Z</time><name>PT5934</name></trkpt>
<trkpt lat="53.364470" lon="-1.744733"><ele>225</ele><time>2020-08-05T11:05:58Z</time><name>PT5935</name></trkpt>
<trkpt lat="53.364478" lon="-1.744731"><ele>225</ele><time>2020-08-05T11:05:59Z</time><name>PT5936</name></trkpt>
<trkpt lat="53.364493" lon="-1.744734"><ele>226</ele><time>2020-08-05T11:06:00Z</time><name>PT5937</name></trkpt>
<trkpt lat="53.364506" lon="-1.744735"><ele>227</ele><time>2020-08-05T11:06:01Z</time><name>PT5938</name></trkpt>
<trkpt lat="53.364513" lon="-1.744735"><ele>227</ele><time>2020-08-05T11:06:02Z</time><name>PT5939</name></trkpt>
<trkpt lat="53.364517" lon="-1.744737"><ele>228</ele><time>2020-08-05T11:06:03Z</time><name>PT5940</name></trkpt>
<trkpt lat="53.364520" lon="-1.744740"><ele>228</ele><time>2020-08-05T11:06:04Z</time><name>PT5941</name></trkpt>
<trkpt lat="53.364530" lon="-1.744749"><ele>228</ele><time>2020-08-05T11:06:05Z</time><name>PT5942</name></trkpt>
<trkpt lat="53.364541" lon="-1.744751"><ele>228</ele><time>2020-08-05T11:06:06Z</time><name>PT5943</name></trkpt>
<trkpt lat="53.364543" lon="-1.744754"><ele>228</ele><time>2020-08-05T11:06:07Z</time><name>PT5944</name></trkpt>
<trkpt lat="53.364545" lon="-1.744759"><ele>228</ele><time>2020-08-05T11:06:08Z</time><name>PT5945</name></trkpt>
<trkpt lat="53.364558" lon="-1.744760"><ele>228</ele><time>2020-08-05T11:06:09Z</time><name>PT5946</name></trkpt>
<trkpt lat="53.364568" lon="-1.744767"><ele>228</ele><time>2020-08-05T11:06:10Z</time><name>PT5947</name></trkpt>
<trkpt lat="53.364585" lon="-1.744772"><ele>228</ele><time>2020-08-05T11:06:11Z</time><name>PT5948</name></trkpt>
<trkpt lat="53.364601" lon="-1.744775"><ele>229</ele><time>2020-08-05T11:06:12Z</time><name>PT5949</name></trkpt>
<trkpt lat="53.364617" lon="-1.744779"><ele>229</ele><time>2020-08-05T11:06:13Z</time><name>PT5950</name></trkpt>
<trkpt lat="53.364629" lon="-1.744777"><ele>229</ele><time>2020-08-05T11:06:14Z</time><name>PT5951</name></trkpt>
<trkpt lat="53.364645" lon="-1.744774"><ele>230</ele><time>2020-08-05T11:06:15Z</time><name>PT5952</name></trkpt>
<trkpt lat="53.364655" lon="-1.744779"><ele>230</ele><time>2020-08-05T11:06:16Z</time><name>PT5953</name></trkpt>
<trkpt lat="53.364663" lon="-1.744783"><ele>231</ele><time>2020-08-05T11:06:17Z</time><name>PT5954</name></trkpt>
<trkpt lat="53.364675" lon="-1.744788"><ele>231</ele><time>2020-08-05T11:06:18Z</time><name>PT5955</name></trkpt>
<trkpt lat="53.364682" lon="-1.744792"><ele>231</ele><time>2020-08-05T11:06:19Z</time><name>PT5956</name></trkpt>
<trkpt lat="53.364694" lon="-1.744793"><ele>231</ele><time>2020-08-05T11:06:20Z</time><name>PT5957</name></trkpt>
<trkpt lat="53.364710" lon="-1.744793"><ele>232</ele><time>2020-08-05T11:06:21Z</time><name>PT5958</name></trkpt>
<trkpt lat="53.364739" lon="-1.744794"><ele>234</ele><time>2020-08-05T11:06:22Z</time><name>PT5959</name></trkpt>
<trkpt lat="53.364757" lon="-1.744796"><ele>234</ele><time>2020-08-05T11:06:23Z</time><name>PT5960</name></trkpt>
<trkpt lat="53.364770" lon="-1.744799"><ele>235</ele><time>2020-08-05T11:06:24Z</time><name>PT5961</name></trkpt>
<trkpt lat="53.364777" lon="-1.744809"><ele>234</ele><time>2020-08-05T11:06:25Z</time><name>PT5962</name></trkpt>
<trkpt lat="53.364793" lon="-1.744813"><ele>235</ele><time>2020-08-05T11:06:26Z</time><name>PT5963</name></trkpt>
<trkpt lat="53.364801" lon="-1.744816"><ele>235</ele><time>2020-08-05T11:06:27Z</time><name>PT5964</name></trkpt>
<trkpt lat="53.364816" lon="-1.744816"><ele>236</ele><time>2020-08-05T11:06:28Z</time><name>PT5965</name></trkpt>
<trkpt lat="53.364826" lon="-1.744817"><ele>236</ele><time>2020-08-05T11:06:29Z</time><name>PT5966</name></trkpt>
<trkpt lat="53.364837" lon="-1.744817"><ele>237</ele><time>2020-08-05T11:06:30Z</time><name>PT5967</name></trkpt>
<trkpt lat="53.364841" lon="-1.744812"><ele>237</ele><time>2020-08-05T11:06:31Z</time><name>PT5968</name></trkpt>
<trkpt lat="53.364847" lon="-1.744805"><ele>237</ele><time>2020-08-05T11:06:32Z</time><name>PT5969</name></trkpt>
<trkpt lat="53.364862" lon="-1.744796"><ele>239</ele><time>2020-08-05T11:06:33Z</time><name>PT5970</name></trkpt>
<trkpt lat="53.364864" lon="-1.744810"><ele>238</ele><time>2020-08-05T11:06:38Z</time><name>PT5971</name></trkpt>
<trkpt lat="53.364876" lon="-1.744816"><ele>237</ele><time>2020-08-05T11:06:39Z</time><name>PT5972</name></trkpt>
<trkpt lat="53.364891" lon="-1.744826"><ele>237</ele><time>2020-08-05T11:06:40Z</time><name>PT5973</name></trkpt>
<trkpt lat="53.364910" lon="-1.744840"><ele>237</ele><time>2020-08-05T11:06:41Z</time><name>PT5974</name></trkpt>
<trkpt lat="53.364925" lon="-1.744841"><ele>237</ele><time>2020-08-05T11:06:42Z</time><name>PT5975</name></trkpt>
<trkpt lat="53.364941" lon="-1.744847"><ele>237</ele><time>2020-08-05T11:06:43Z</time><name>PT5976</name></trkpt>
<trkpt lat="53.364957" lon="-1.744860"><ele>237</ele><time>2020-08-05T11:06:44Z</time><name>PT5977</name></trkpt>
<trkpt lat="53.364969" lon="-1.744863"><ele>237</ele><time>2020-08-05T11:06:45Z</time><name>PT5978</name></trkpt>
<trkpt lat="53.364986" lon="-1.744865"><ele>237</ele><time>2020-08-05T11:06:46Z</time><name>PT5979</name></trkpt>
<trkpt lat="53.364999" lon="-1.744865"><ele>237</ele><time>2020-08-05T11:06:47Z</time><name>PT5980</name></trkpt>
<trkpt lat="53.365012" lon="-1.744867"><ele>237</ele><time>2020-08-05T11:06:48Z</time><name>PT5981</name></trkpt>
<trkpt lat="53.365033" lon="-1.744877"><ele>237</ele><time>2020-08-05T11:06:49Z</time><name>PT5982</name></trkpt>
<trkpt lat="53.365047" lon="-1.744887"><ele>237</ele><time>2020-08-05T11:06:50Z</time><name>PT5983</name></trkpt>
<trkpt lat="53.365057" lon="-1.744902"><ele>238</ele><time>2020-08-05T11:06:51Z</time><name>PT5984</name></trkpt>
<trkpt lat="53.365069" lon="-1.744910"><ele>238</ele><time>2020-08-05T11:06:52Z</time><name>PT5985</name></trkpt>
<trkpt lat="53.365085" lon="-1.744916"><ele>237</ele><time>2020-08-05T11:06:53Z</time><name>PT5986</name></trkpt>
<trkpt lat="53.365097" lon="-1.744919"><ele>238</ele><time>2020-08-05T11:06:54Z</time><name>PT5987</name></trkpt>
<trkpt lat="53.365107" lon="-1.744922"><ele>238</ele><time>2020-08-05T11:06:55Z</time><name>PT5988</name></trkpt>
<trkpt lat="53.365112" lon="-1.744927"><ele>237</ele><time>2020-08-05T11:06:56Z</time><name>PT5989</name></trkpt>
<trkpt lat="53.365124" lon="-1.744929"><ele>237</ele><time>2020-08-05T11:06:57Z</time><name>PT5990</name></trkpt>
<trkpt lat="53.365135" lon="-1.744931"><ele>237</ele><time>2020-08-05T11:06:58Z</time><name>PT5991</name></trkpt>
<trkpt lat="53.365150" lon="-1.744944"><ele>238</ele><time>2020-08-05T11:06:59Z</time><name>PT5992</name></trkpt>
<trkpt lat="53.365156" lon="-1.744953"><ele>238</ele><time>2020-08-05T11:07:00Z</time><name>PT5993</name></trkpt>
<trkpt lat="53.365166" lon="-1.744962"><ele>238</ele><time>2020-08-05T11:07:01Z</time><name>PT5994</name></trkpt>
<trkpt lat="53.365174" lon="-1.744965"><ele>239</ele><time>2020-08-05T11:07:02Z</time><name>PT5995</name></trkpt>
<trkpt lat="53.365186" lon="-1.744970"><ele>239</ele><time>2020-08-05T11:07:03Z</time><name>PT5996</name></trkpt>
<trkpt lat="53.365198" lon="-1.744973"><ele>239</ele><time>2020-08-05T11:07:04Z</time><name>PT5997</name></trkpt>
<trkpt lat="53.365208" lon="-1.744975"><ele>239</ele><time>2020-08-05T11:07:05Z</time><name>PT5998</name></trkpt>
<trkpt lat="53.365217" lon="-1.744976"><ele>238</ele><time>2020-08-05T11:07:06Z</time><name>PT5999</name></trkpt>
<trkpt lat="53.365224" lon="-1.744987"><ele>238</ele><time>2020-08-05T11:07:07Z</time><name>PT6000</name></trkpt>
<trkpt lat="53.365237" lon="-1.744988"><ele>238</ele><time>2020-08-05T11:07:08Z</time><name>PT6001</name></trkpt>
<trkpt lat="53.365252" lon="-1.744988"><ele>238</ele><time>2020-08-05T11:07:09Z</time><name>PT6002</name></trkpt>
<trkpt lat="53.365275" lon="-1.744989"><ele>237</ele><time>2020-08-05T11:07:10Z</time><name>PT6003</name></trkpt>
<trkpt lat="53.365293" lon="-1.744992"><ele>236</ele><time>2020-08-05T11:07:11Z</time><name>PT6004</name></trkpt>
<trkpt lat="53.365304" lon="-1.744996"><ele>236</ele><time>2020-08-05T11:07:12Z</time><name>PT6005</name></trkpt>
<trkpt lat="53.365320" lon="-1.744999"><ele>236</ele><time>2020-08-05T11:07:13Z</time><name>PT6006</name></trkpt>
<trkpt lat="53.365335" lon="-1.745000"><ele>235</ele><time>2020-08-05T11:07:14Z</time><name>PT6007</name></trkpt>
<trkpt lat="53.365345" lon="-1.745006"><ele>235</ele><time>2020-08-05T11:07:15Z</time><name>PT6008</name></trkpt>
<trkpt lat="53.365356" lon="-1.745009"><ele>235</ele><time>2020-08-05T11:07:16Z</time><name>PT6009</name></trkpt>
<trkpt lat="53.365370" lon="-1.745013"><ele>234</ele><time>2020-08-05T11:07:17Z</time><name>PT6010</name></trkpt>
<trkpt lat="53.365383" lon="-1.745018"><ele>234</ele><time>2020-08-05T11:07:18Z</time><name>PT6011</name></trkpt>
<trkpt lat="53.365397" lon="-1.745024"><ele>233</ele><time>2020-08-05T11:07:19Z</time><name>PT6012</name></trkpt>
<trkpt lat="53.365409" lon="-1.745025"><ele>234</ele><time>2020-08-05T11:07:20Z</time><name>PT6013</name></trkpt>
<trkpt lat="53.365423" lon="-1.745028"><ele>234</ele><time>2020-08-05T11:07:21Z</time><name>PT6014</name></trkpt>
<trkpt lat="53.365438" lon="-1.745030"><ele>234</ele><time>2020-08-05T11:07:22Z</time><name>PT6015</name></trkpt>
<trkpt lat="53.365447" lon="-1.745034"><ele>234</ele><time>2020-08-05T11:07:23Z</time><name>PT6016</name></trkpt>
<trkpt lat="53.365460" lon="-1.745039"><ele>234</ele><time>2020-08-05T11:07:24Z</time><name>PT6017</name></trkpt>
<trkpt lat="53.365472" lon="-1.745042"><ele>234</ele><time>2020-08-05T11:07:25Z</time><name>PT6018</name></trkpt>
<trkpt lat="53.365483" lon="-1.745043"><ele>234</ele><time>2020-08-05T11:07:26Z</time><name>PT6019</name></trkpt>
<trkpt lat="53.365493" lon="-1.745038"><ele>234</ele><time>2020-08-05T11:07:27Z</time><name>PT6020</name></trkpt>
<trkpt lat="53.365503" lon="-1.745043"><ele>234</ele><time>2020-08-05T11:07:28Z</time><name>PT6021</name></trkpt>
<trkpt lat="53.365511" lon="-1.745047"><ele>234</ele><time>2020-08-05T11:07:29Z</time><name>PT6022</name></trkpt>
<trkpt lat="53.365522" lon="-1.745050"><ele>234</ele><time>2020-08-05T11:07:30Z</time><name>PT6023</name></trkpt>
<trkpt lat="53.365531" lon="-1.745052"><ele>234</ele><time>2020-08-05T11:07:31Z</time><name>PT6024</name></trkpt>
<trkpt lat="53.365539" lon="-1.745057"><ele>234</ele><time>2020-08-05T11:07:32Z</time><name>PT6025</name></trkpt>
<trkpt lat="53.365548" lon="-1.745064"><ele>234</ele><time>2020-08-05T11:07:33Z</time><name>PT6026</name></trkpt>
<trkpt lat="53.365558" lon="-1.745064"><ele>234</ele><time>2020-08-05T11:07:34Z</time><name>PT6027</name></trkpt>
<trkpt lat="53.365566" lon="-1.745069"><ele>234</ele><time>2020-08-05T11:07:35Z</time><name>PT6028</name></trkpt>
<trkpt lat="53.365577" lon="-1.745068"><ele>234</ele><time>2020-08-05T11:07:36Z</time><name>PT6029</name></trkpt>
<trkpt lat="53.365586" lon="-1.745071"><ele>234</ele><time>2020-08-05T11:07:37Z</time><name>PT6030</name></trkpt>
<trkpt lat="53.365595" lon="-1.745074"><ele>233</ele><time>2020-08-05T11:07:38Z</time><name>PT6031</name></trkpt>
<trkpt lat="53.365603" lon="-1.745078"><ele>233</ele><time>2020-08-05T11:07:39Z</time><name>PT6032</name></trkpt>
<trkpt lat="53.365614" lon="-1.745085"><ele>234</ele><time>2020-08-05T11:07:40Z</time><name>PT6033</name></trkpt>
<trkpt lat="53.365626" lon="-1.745095"><ele>234</ele><time>2020-08-05T11:07:41Z</time><name>PT6034</name></trkpt>
<trkpt lat="53.365636" lon="-1.745102"><ele>234</ele><time>2020-08-05T11:07:42Z</time><name>PT6035</name></trkpt>
<trkpt lat="53.365648" lon="-1.745111"><ele>234</ele><time>2020-08-05T11:07:43Z</time><name>PT6036</name></trkpt>
<trkpt lat="53.365657" lon="-1.745114"><ele>235</ele><time>2020-08-05T11:07:44Z</time><name>PT6037</name></trkpt>
<trkpt lat="53.365668" lon="-1.745111"><ele>233</ele><time>2020-08-05T11:07:45Z</time><name>PT6038</name></trkpt>
<trkpt lat="53.365679" lon="-1.745117"><ele>233</ele><time>2020-08-05T11:07:46Z</time><name>PT6039</name></trkpt>
<trkpt lat="53.365688" lon="-1.745122"><ele>233</ele><time>2020-08-05T11:07:47Z</time><name>PT6040</name></trkpt>
<trkpt lat="53.365695" lon="-1.745127"><ele>233</ele><time>2020-08-05T11:07:48Z</time><name>PT6041</name></trkpt>
<trkpt lat="53.365705" lon="-1.745128"><ele>234</ele><time>2020-08-05T11:07:49Z</time><name>PT6042</name></trkpt>
<trkpt lat="53.365713" lon="-1.745132"><ele>234</ele><time>2020-08-05T11:07:50Z</time><name>PT6043</name></trkpt>
<trkpt lat="53.365722" lon="-1.745138"><ele>234</ele><time>2020-08-05T11:07:51Z</time><name>PT6044</name></trkpt>
<trkpt lat="53.365733" lon="-1.745140"><ele>234</ele><time>2020-08-05T11:07:52Z</time><name>PT6045</name></trkpt>
<trkpt lat="53.365744" lon="-1.745144"><ele>234</ele><time>2020-08-05T11:07:53Z</time><name>PT6046</name></trkpt>
<trkpt lat="53.365760" lon="-1.745147"><ele>234</ele><time>2020-08-05T11:07:54Z</time><name>PT6047</name></trkpt>
<trkpt lat="53.365770" lon="-1.745144"><ele>234</ele><time>2020-08-05T11:07:55Z</time><name>PT6048</name></trkpt>
<trkpt lat="53.365782" lon="-1.745151"><ele>234</ele><time>2020-08-05T11:07:56Z</time><name>PT6049</name></trkpt>
<trkpt lat="53.365796" lon="-1.745145"><ele>234</ele><time>2020-08-05T11:07:57Z</time><name>PT6050</name></trkpt>
<trkpt lat="53.365808" lon="-1.745145"><ele>233</ele><time>2020-08-05T11:07:58Z</time><name>PT6051</name></trkpt>
<trkpt lat="53.365818" lon="-1.745148"><ele>234</ele><time>2020-08-05T11:07:59Z</time><name>PT6052</name></trkpt>
<trkpt lat="53.365826" lon="-1.745151"><ele>234</ele><time>2020-08-05T11:08:00Z</time><name>PT6053</name></trkpt>
<trkpt lat="53.365829" lon="-1.745157"><ele>233</ele><time>2020-08-05T11:08:01Z</time><name>PT6054</name></trkpt>
<trkpt lat="53.365836" lon="-1.745163"><ele>234</ele><time>2020-08-05T11:08:02Z</time><name>PT6055</name></trkpt>
<trkpt lat="53.365843" lon="-1.745174"><ele>234</ele><time>2020-08-05T11:08:03Z</time><name>PT6056</name></trkpt>
<trkpt lat="53.365851" lon="-1.745182"><ele>235</ele><time>2020-08-05T11:08:04Z</time><name>PT6057</name></trkpt>
<trkpt lat="53.365857" lon="-1.745187"><ele>235</ele><time>2020-08-05T11:08:05Z</time><name>PT6058</name></trkpt>
<trkpt lat="53.365860" lon="-1.745194"><ele>235</ele><time>2020-08-05T11:08:06Z</time><name>PT6059</name></trkpt>
<trkpt lat="53.365869" lon="-1.745194"><ele>235</ele><time>2020-08-05T11:08:07Z</time><name>PT6060</name></trkpt>
<trkpt lat="53.365881" lon="-1.745193"><ele>235</ele><time>2020-08-05T11:08:08Z</time><name>PT6061</name></trkpt>
<trkpt lat="53.365894" lon="-1.745192"><ele>236</ele><time>2020-08-05T11:08:09Z</time><name>PT6062</name></trkpt>
<trkpt lat="53.365904" lon="-1.745193"><ele>236</ele><time>2020-08-05T11:08:10Z</time><name>PT6063</name></trkpt>
<trkpt lat="53.365914" lon="-1.745193"><ele>236</ele><time>2020-08-05T11:08:11Z</time><name>PT6064</name></trkpt>
<trkpt lat="53.365929" lon="-1.745190"><ele>236</ele><time>2020-08-05T11:08:12Z</time><name>PT6065</name></trkpt>
<trkpt lat="53.365937" lon="-1.745193"><ele>237</ele><time>2020-08-05T11:08:13Z</time><name>PT6066</name></trkpt>
<trkpt lat="53.365951" lon="-1.745192"><ele>238</ele><time>2020-08-05T11:08:14Z</time><name>PT6067</name></trkpt>
<trkpt lat="53.365958" lon="-1.745194"><ele>238</ele><time>2020-08-05T11:08:15Z</time><name>PT6068</name></trkpt>
<trkpt lat="53.365964" lon="-1.745197"><ele>238</ele><time>2020-08-05T11:08:16Z</time><name>PT6069</name></trkpt>
<trkpt lat="53.365974" lon="-1.745200"><ele>239</ele><time>2020-08-05T11:08:17Z</time><name>PT6070</name></trkpt>
<trkpt lat="53.365986" lon="-1.745205"><ele>239</ele><time>2020-08-05T11:08:18Z</time><name>PT6071</name></trkpt>
<trkpt lat="53.365997" lon="-1.745204"><ele>240</ele><time>2020-08-05T11:08:19Z</time><name>PT6072</name></trkpt>
<trkpt lat="53.366011" lon="-1.745200"><ele>241</ele><time>2020-08-05T11:08:20Z</time><name>PT6073</name></trkpt>
<trkpt lat="53.366023" lon="-1.745201"><ele>241</ele><time>2020-08-05T11:08:21Z</time><name>PT6074</name></trkpt>
<trkpt lat="53.366032" lon="-1.745199"><ele>240</ele><time>2020-08-05T11:08:22Z</time><name>PT6075</name></trkpt>
<trkpt lat="53.366042" lon="-1.745200"><ele>240</ele><time>2020-08-05T11:08:23Z</time><name>PT6076</name></trkpt>
<trkpt lat="53.366053" lon="-1.745198"><ele>240</ele><time>2020-08-05T11:08:24Z</time><name>PT6077</name></trkpt>
<trkpt lat="53.366064" lon="-1.745208"><ele>240</ele><time>2020-08-05T11:08:25Z</time><name>PT6078</name></trkpt>
<trkpt lat="53.366071" lon="-1.745211"><ele>240</ele><time>2020-08-05T11:08:26Z</time><name>PT6079</name></trkpt>
<trkpt lat="53.366078" lon="-1.745217"><ele>240</ele><time>2020-08-05T11:08:27Z</time><name>PT6080</name></trkpt>
<trkpt lat="53.366085" lon="-1.745221"><ele>241</ele><time>2020-08-05T11:08:28Z</time><name>PT6081</name></trkpt>
<trkpt lat="53.366095" lon="-1.745224"><ele>240</ele><time>2020-08-05T11:08:29Z</time><name>PT6082</name></trkpt>
<trkpt lat="53.366103" lon="-1.745225"><ele>240</ele><time>2020-08-05T11:08:30Z</time><name>PT6083</name></trkpt>
<trkpt lat="53.366111" lon="-1.745228"><ele>240</ele><time>2020-08-05T11:08:31Z</time><name>PT6084</name></trkpt>
<trkpt lat="53.366125" lon="-1.745235"><ele>240</ele><time>2020-08-05T11:08:32Z</time><name>PT6085</name></trkpt>
<trkpt lat="53.366131" lon="-1.745244"><ele>239</ele><time>2020-08-05T11:08:33Z</time><name>PT6086</name></trkpt>
<trkpt lat="53.366140" lon="-1.745247"><ele>239</ele><time>2020-08-05T11:08:34Z</time><name>PT6087</name></trkpt>
<trkpt lat="53.366151" lon="-1.745254"><ele>238</ele><time>2020-08-05T11:08:35Z</time><name>PT6088</name></trkpt>
<trkpt lat="53.366160" lon="-1.745263"><ele>237</ele><time>2020-08-05T11:08:36Z</time><name>PT6089</name></trkpt>
<trkpt lat="53.366169" lon="-1.745269"><ele>237</ele><time>2020-08-05T11:08:37Z</time><name>PT6090</name></trkpt>
<trkpt lat="53.366175" lon="-1.745276"><ele>238</ele><time>2020-08-05T11:08:38Z</time><name>PT6091</name></trkpt>
<trkpt lat="53.366184" lon="-1.745281"><ele>238</ele><time>2020-08-05T11:08:39Z</time><name>PT6092</name></trkpt>
<trkpt lat="53.366192" lon="-1.745286"><ele>238</ele><time>2020-08-05T11:08:40Z</time><name>PT6093</name></trkpt>
<trkpt lat="53.366200" lon="-1.745287"><ele>238</ele><time>2020-08-05T11:08:41Z</time><name>PT6094</name></trkpt>
<trkpt lat="53.366209" lon="-1.745296"><ele>239</ele><time>2020-08-05T11:08:42Z</time><name>PT6095</name></trkpt>
<trkpt lat="53.366213" lon="-1.745306"><ele>239</ele><time>2020-08-05T11:08:43Z</time><name>PT6096</name></trkpt>
<trkpt lat="53.366221" lon="-1.745318"><ele>239</ele><time>2020-08-05T11:08:44Z</time><name>PT6097</name></trkpt>
<trkpt lat="53.366229" lon="-1.745320"><ele>239</ele><time>2020-08-05T11:08:45Z</time><name>PT6098</name></trkpt>
<trkpt lat="53.366236" lon="-1.745325"><ele>239</ele><time>2020-08-05T11:08:46Z</time><name>PT6099</name></trkpt>
<trkpt lat="53.366243" lon="-1.745329"><ele>238</ele><time>2020-08-05T11:08:47Z</time><name>PT6100</name></trkpt>
<trkpt lat="53.366251" lon="-1.745325"><ele>239</ele><time>2020-08-05T11:08:48Z</time><name>PT6101</name></trkpt>
<trkpt lat="53.366258" lon="-1.745324"><ele>239</ele><time>2020-08-05T11:08:49Z</time><name>PT6102</name></trkpt>
<trkpt lat="53.366263" lon="-1.745326"><ele>239</ele><time>2020-08-05T11:08:50Z</time><name>PT6103</name></trkpt>
<trkpt lat="53.366271" lon="-1.745329"><ele>239</ele><time>2020-08-05T11:08:51Z</time><name>PT6104</name></trkpt>
<trkpt lat="53.366275" lon="-1.745332"><ele>239</ele><time>2020-08-05T11:08:52Z</time><name>PT6105</name></trkpt>
<trkpt lat="53.366283" lon="-1.745335"><ele>239</ele><time>2020-08-05T11:08:53Z</time><name>PT6106</name></trkpt>
<trkpt lat="53.366292" lon="-1.745337"><ele>239</ele><time>2020-08-05T11:08:54Z</time><name>PT6107</name></trkpt>
<trkpt lat="53.366301" lon="-1.745341"><ele>239</ele><time>2020-08-05T11:08:55Z</time><name>PT6108</name></trkpt>
<trkpt lat="53.366311" lon="-1.745343"><ele>240</ele><time>2020-08-05T11:08:56Z</time><name>PT6109</name></trkpt>
<trkpt lat="53.366320" lon="-1.745343"><ele>240</ele><time>2020-08-05T11:08:57Z</time><name>PT6110</name></trkpt>
<trkpt lat="53.366329" lon="-1.745341"><ele>241</ele><time>2020-08-05T11:08:58Z</time><name>PT6111</name></trkpt>
<trkpt lat="53.366338" lon="-1.745345"><ele>241</ele><time>2020-08-05T11:08:59Z</time><name>PT6112</name></trkpt>
<trkpt lat="53.366343" lon="-1.745350"><ele>241</ele><time>2020-08-05T11:09:00Z</time><name>PT6113</name></trkpt>
<trkpt lat="53.366352" lon="-1.745352"><ele>241</ele><time>2020-08-05T11:09:01Z</time><name>PT6114</name></trkpt>
<trkpt lat="53.366361" lon="-1.745353"><ele>241</ele><time>2020-08-05T11:09:02Z</time><name>PT6115</name></trkpt>
<trkpt lat="53.366366" lon="-1.745358"><ele>241</ele><time>2020-08-05T11:09:03Z</time><name>PT6116</name></trkpt>
<trkpt lat="53.366373" lon="-1.745370"><ele>241</ele><time>2020-08-05T11:09:04Z</time><name>PT6117</name></trkpt>
<trkpt lat="53.366383" lon="-1.745371"><ele>241</ele><time>2020-08-05T11:09:05Z</time><name>PT6118</name></trkpt>
<trkpt lat="53.366393" lon="-1.745369"><ele>241</ele><time>2020-08-05T11:09:06Z</time><name>PT6119</name></trkpt>
<trkpt lat="53.366401" lon="-1.745371"><ele>240</ele><time>2020-08-05T11:09:07Z</time><name>PT6120</name></trkpt>
<trkpt lat="53.366405" lon="-1.745374"><ele>239</ele><time>2020-08-05T11:09:08Z</time><name>PT6121</name></trkpt>
<trkpt lat="53.366412" lon="-1.745380"><ele>238</ele><time>2020-08-05T11:09:09Z</time><name>PT6122</name></trkpt>
<trkpt lat="53.366420" lon="-1.745387"><ele>238</ele><time>2020-08-05T11:09:10Z</time><name>PT6123</name></trkpt>
<trkpt lat="53.366428" lon="-1.745394"><ele>238</ele><time>2020-08-05T11:09:11Z</time><name>PT6124</name></trkpt>
<trkpt lat="53.366436" lon="-1.745397"><ele>238</ele><time>2020-08-05T11:09:12Z</time><name>PT6125</name></trkpt>
<trkpt lat="53.366444" lon="-1.745400"><ele>238</ele><time>2020-08-05T11:09:13Z</time><name>PT6126</name></trkpt>
<trkpt lat="53.366452" lon="-1.745405"><ele>238</ele><time>2020-08-05T11:09:14Z</time><name>PT6127</name></trkpt>
<trkpt lat="53.366463" lon="-1.745413"><ele>238</ele><time>2020-08-05T11:09:15Z</time><name>PT6128</name></trkpt>
<trkpt lat="53.366470" lon="-1.745420"><ele>238</ele><time>2020-08-05T11:09:16Z</time><name>PT6129</name></trkpt>
<trkpt lat="53.366476" lon="-1.745423"><ele>238</ele><time>2020-08-05T11:09:17Z</time><name>PT6130</name></trkpt>
<trkpt lat="53.366485" lon="-1.745426"><ele>239</ele><time>2020-08-05T11:09:18Z</time><name>PT6131</name></trkpt>
<trkpt lat="53.366492" lon="-1.745428"><ele>239</ele><time>2020-08-05T11:09:19Z</time><name>PT6132</name></trkpt>
<trkpt lat="53.366501" lon="-1.745429"><ele>239</ele><time>2020-08-05T11:09:20Z</time><name>PT6133</name></trkpt>
<trkpt lat="53.366509" lon="-1.745432"><ele>239</ele><time>2020-08-05T11:09:21Z</time><name>PT6134</name></trkpt>
<trkpt lat="53.366517" lon="-1.745434"><ele>239</ele><time>2020-08-05T11:09:22Z</time><name>PT6135</name></trkpt>
<trkpt lat="53.366525" lon="-1.745432"><ele>240</ele><time>2020-08-05T11:09:23Z</time><name>PT6136</name></trkpt>
<trkpt lat="53.366534" lon="-1.745433"><ele>240</ele><time>2020-08-05T11:09:24Z</time><name>PT6137</name></trkpt>
<trkpt lat="53.366541" lon="-1.745433"><ele>241</ele><time>2020-08-05T11:09:25Z</time><name>PT6138</name></trkpt>
<trkpt lat="53.366550" lon="-1.745430"><ele>241</ele><time>2020-08-05T11:09:26Z</time><name>PT6139</name></trkpt>
<trkpt lat="53.366559" lon="-1.745423"><ele>241</ele><time>2020-08-05T11:09:27Z</time><name>PT6140</name></trkpt>
<trkpt lat="53.366570" lon="-1.745420"><ele>242</ele><time>2020-08-05T11:09:28Z</time><name>PT6141</name></trkpt>
<trkpt lat="53.366575" lon="-1.745419"><ele>241</ele><time>2020-08-05T11:09:29Z</time><name>PT6142</name></trkpt>
<trkpt lat="53.366581" lon="-1.745422"><ele>241</ele><time>2020-08-05T11:09:30Z</time><name>PT6143</name></trkpt>
<trkpt lat="53.366589" lon="-1.745428"><ele>241</ele><time>2020-08-05T11:09:31Z</time><name>PT6144</name></trkpt>
<trkpt lat="53.366595" lon="-1.745426"><ele>241</ele><time>2020-08-05T11:09:32Z</time><name>PT6145</name></trkpt>
<trkpt lat="53.366602" lon="-1.745425"><ele>242</ele><time>2020-08-05T11:09:33Z</time><name>PT6146</name></trkpt>
<trkpt lat="53.366607" lon="-1.745425"><ele>242</ele><time>2020-08-05T11:09:34Z</time><name>PT6147</name></trkpt>
<trkpt lat="53.366614" lon="-1.745425"><ele>242</ele><time>2020-08-05T11:09:35Z</time><name>PT6148</name></trkpt>
<trkpt lat="53.366622" lon="-1.745421"><ele>242</ele><time>2020-08-05T11:09:36Z</time><name>PT6149</name></trkpt>
<trkpt lat="53.366631" lon="-1.745417"><ele>241</ele><time>2020-08-05T11:09:37Z</time><name>PT6150</name></trkpt>
<trkpt lat="53.366640" lon="-1.745412"><ele>241</ele><time>2020-08-05T11:09:38Z</time><name>PT6151</name></trkpt>
<trkpt lat="53.366648" lon="-1.745410"><ele>242</ele><time>2020-08-05T11:09:39Z</time><name>PT6152</name></trkpt>
<trkpt lat="53.366655" lon="-1.745409"><ele>243</ele><time>2020-08-05T11:09:40Z</time><name>PT6153</name></trkpt>
<trkpt lat="53.366660" lon="-1.745407"><ele>243</ele><time>2020-08-05T11:09:41Z</time><name>PT6154</name></trkpt>
<trkpt lat="53.366667" lon="-1.745406"><ele>243</ele><time>2020-08-05T11:09:42Z</time><name>PT6155</name></trkpt>
<trkpt lat="53.366673" lon="-1.745402"><ele>243</ele><time>2020-08-05T11:09:43Z</time><name>PT6156</name></trkpt>
<trkpt lat="53.366681" lon="-1.745405"><ele>243</ele><time>2020-08-05T11:09:44Z</time><name>PT6157</name></trkpt>
<trkpt lat="53.366689" lon="-1.745406"><ele>243</ele><time>2020-08-05T11:09:45Z</time><name>PT6158</name></trkpt>
<trkpt lat="53.366693" lon="-1.745400"><ele>243</ele><time>2020-08-05T11:09:46Z</time><name>PT6159</name></trkpt>
<trkpt lat="53.366697" lon="-1.745394"><ele>243</ele><time>2020-08-05T11:09:47Z</time><name>PT6160</name></trkpt>
<trkpt lat="53.366701" lon="-1.745391"><ele>243</ele><time>2020-08-05T11:09:48Z</time><name>PT6161</name></trkpt>
<trkpt lat="53.366708" lon="-1.745388"><ele>243</ele><time>2020-08-05T11:09:49Z</time><name>PT6162</name></trkpt>
<trkpt lat="53.366715" lon="-1.745388"><ele>243</ele><time>2020-08-05T11:09:50Z</time><name>PT6163</name></trkpt>
<trkpt lat="53.366723" lon="-1.745387"><ele>244</ele><time>2020-08-05T11:09:51Z</time><name>PT6164</name></trkpt>
<trkpt lat="53.366730" lon="-1.745382"><ele>244</ele><time>2020-08-05T11:09:52Z</time><name>PT6165</name></trkpt>
<trkpt lat="53.366743" lon="-1.745380"><ele>244</ele><time>2020-08-05T11:09:53Z</time><name>PT6166</name></trkpt>
<trkpt lat="53.366752" lon="-1.745377"><ele>245</ele><time>2020-08-05T11:09:54Z</time><name>PT6167</name></trkpt>
<trkpt lat="53.366758" lon="-1.745374"><ele>245</ele><time>2020-08-05T11:09:55Z</time><name>PT6168</name></trkpt>
<trkpt lat="53.366766" lon="-1.745372"><ele>245</ele><time>2020-08-05T11:09:56Z</time><name>PT6169</name></trkpt>
<trkpt lat="53.366773" lon="-1.745370"><ele>245</ele><time>2020-08-05T11:09:57Z</time><name>PT6170</name></trkpt>
<trkpt lat="53.366785" lon="-1.745370"><ele>245</ele><time>2020-08-05T11:09:58Z</time><name>PT6171</name></trkpt>
<trkpt lat="53.366797" lon="-1.745372"><ele>245</ele><time>2020-08-05T11:09:59Z</time><name>PT6172</name></trkpt>
<trkpt lat="53.366811" lon="-1.745374"><ele>247</ele><time>2020-08-05T11:10:00Z</time><name>PT6173</name></trkpt>
<trkpt lat="53.366819" lon="-1.745375"><ele>247</ele><time>2020-08-05T11:10:01Z</time><name>PT6174</name></trkpt>
<trkpt lat="53.366830" lon="-1.745372"><ele>248</ele><time>2020-08-05T11:10:02Z</time><name>PT6175</name></trkpt>
<trkpt lat="53.366840" lon="-1.745375"><ele>249</ele><time>2020-08-05T11:10:03Z</time><name>PT6176</name></trkpt>
<trkpt lat="53.366854" lon="-1.745380"><ele>250</ele><time>2020-08-05T11:10:04Z</time><name>PT6177</name></trkpt>
<trkpt lat="53.366866" lon="-1.745381"><ele>250</ele><time>2020-08-05T11:10:05Z</time><name>PT6178</name></trkpt>
<trkpt lat="53.366879" lon="-1.745381"><ele>251</ele><time>2020-08-05T11:10:06Z</time><name>PT6179</name></trkpt>
<trkpt lat="53.366890" lon="-1.745385"><ele>252</ele><time>2020-08-05T11:10:07Z</time><name>PT6180</name></trkpt>
<trkpt lat="53.366902" lon="-1.745386"><ele>252</ele><time>2020-08-05T11:10:08Z</time><name>PT6181</name></trkpt>
<trkpt lat="53.366911" lon="-1.745386"><ele>252</ele><time>2020-08-05T11:10:09Z</time><name>PT6182</name></trkpt>
<trkpt lat="53.366920" lon="-1.745389"><ele>253</ele><time>2020-08-05T11:10:10Z</time><name>PT6183</name></trkpt>
<trkpt lat="53.366930" lon="-1.745392"><ele>253</ele><time>2020-08-05T11:10:11Z</time><name>PT6184</name></trkpt>
<trkpt lat="53.366938" lon="-1.745396"><ele>253</ele><time>2020-08-05T11:10:12Z</time><name>PT6185</name></trkpt>
<trkpt lat="53.366946" lon="-1.745403"><ele>254</ele><time>2020-08-05T11:10:13Z</time><name>PT6186</name></trkpt>
<trkpt lat="53.366954" lon="-1.745407"><ele>254</ele><time>2020-08-05T11:10:14Z</time><name>PT6187</name></trkpt>
<trkpt lat="53.366963" lon="-1.745412"><ele>254</ele><time>2020-08-05T11:10:15Z</time><name>PT6188</name></trkpt>
<trkpt lat="53.366976" lon="-1.745410"><ele>254</ele><time>2020-08-05T11:10:16Z</time><name>PT6189</name></trkpt>
<trkpt lat="53.366986" lon="-1.745416"><ele>255</ele><time>2020-08-05T11:10:17Z</time><name>PT6190</name></trkpt>
<trkpt lat="53.366995" lon="-1.745420"><ele>255</ele><time>2020-08-05T11:10:18Z</time><name>PT6191</name></trkpt>
<trkpt lat="53.367003" lon="-1.745423"><ele>255</ele><time>2020-08-05T11:10:19Z</time><name>PT6192</name></trkpt>
<trkpt lat="53.367012" lon="-1.745424"><ele>255</ele><time>2020-08-05T11:10:20Z</time><name>PT6193</name></trkpt>
<trkpt lat="53.367022" lon="-1.745425"><ele>255</ele><time>2020-08-05T11:10:21Z</time><name>PT6194</name></trkpt>
<trkpt lat="53.367029" lon="-1.745427"><ele>255</ele><time>2020-08-05T11:10:22Z</time><name>PT6195</name></trkpt>
<trkpt lat="53.367038" lon="-1.745431"><ele>255</ele><time>2020-08-05T11:10:23Z</time><name>PT6196</name></trkpt>
<trkpt lat="53.367046" lon="-1.745433"><ele>255</ele><time>2020-08-05T11:10:24Z</time><name>PT6197</name></trkpt>
<trkpt lat="53.367055" lon="-1.745435"><ele>255</ele><time>2020-08-05T11:10:25Z</time><name>PT6198</name></trkpt>
<trkpt lat="53.367062" lon="-1.745440"><ele>254</ele><time>2020-08-05T11:10:26Z</time><name>PT6199</name></trkpt>
<trkpt lat="53.367069" lon="-1.745443"><ele>254</ele><time>2020-08-05T11:10:27Z</time><name>PT6200</name></trkpt>
<trkpt lat="53.367074" lon="-1.745446"><ele>254</ele><time>2020-08-05T11:10:28Z</time><name>PT6201</name></trkpt>
<trkpt lat="53.367080" lon="-1.745449"><ele>253</ele><time>2020-08-05T11:10:29Z</time><name>PT6202</name></trkpt>
<trkpt lat="53.367089" lon="-1.745451"><ele>253</ele><time>2020-08-05T11:10:30Z</time><name>PT6203</name></trkpt>
<trkpt lat="53.367097" lon="-1.745452"><ele>253</ele><time>2020-08-05T11:10:31Z</time><name>PT6204</name></trkpt>
<trkpt lat="53.367106" lon="-1.745458"><ele>254</ele><time>2020-08-05T11:10:32Z</time><name>PT6205</name></trkpt>
<trkpt lat="53.367113" lon="-1.745463"><ele>254</ele><time>2020-08-05T11:10:33Z</time><name>PT6206</name></trkpt>
<trkpt lat="53.367120" lon="-1.745464"><ele>254</ele><time>2020-08-05T11:10:34Z</time><name>PT6207</name></trkpt>
<trkpt lat="53.367129" lon="-1.745466"><ele>254</ele><time>2020-08-05T11:10:35Z</time><name>PT6208</name></trkpt>
<trkpt lat="53.367134" lon="-1.745470"><ele>254</ele><time>2020-08-05T11:10:36Z</time><name>PT6209</name></trkpt>
<trkpt lat="53.367142" lon="-1.745480"><ele>254</ele><time>2020-08-05T11:10:37Z</time><name>PT6210</name></trkpt>
<trkpt lat="53.367149" lon="-1.745479"><ele>254</ele><time>2020-08-05T11:10:38Z</time><name>PT6211</name></trkpt>
<trkpt lat="53.367156" lon="-1.745477"><ele>254</ele><time>2020-08-05T11:10:39Z</time><name>PT6212</name></trkpt>
<trkpt lat="53.367165" lon="-1.745478"><ele>254</ele><time>2020-08-05T11:10:40Z</time><name>PT6213</name></trkpt>
<trkpt lat="53.367175" lon="-1.745476"><ele>254</ele><time>2020-08-05T11:10:41Z</time><name>PT6214</name></trkpt>
<trkpt lat="53.367185" lon="-1.745474"><ele>255</ele><time>2020-08-05T11:10:42Z</time><name>PT6215</name></trkpt>
<trkpt lat="53.367193" lon="-1.745473"><ele>255</ele><time>2020-08-05T11:10:43Z</time><name>PT6216</name></trkpt>
<trkpt lat="53.367202" lon="-1.745470"><ele>255</ele><time>2020-08-05T11:10:44Z</time><name>PT6217</name></trkpt>
<trkpt lat="53.367212" lon="-1.745464"><ele>255</ele><time>2020-08-05T11:10:45Z</time><name>PT6218</name></trkpt>
<trkpt lat="53.367220" lon="-1.745462"><ele>255</ele><time>2020-08-05T11:10:46Z</time><name>PT6219</name></trkpt>
<trkpt lat="53.367229" lon="-1.745460"><ele>256</ele><time>2020-08-05T11:10:47Z</time><name>PT6220</name></trkpt>
<trkpt lat="53.367239" lon="-1.745459"><ele>256</ele><time>2020-08-05T11:10:48Z</time><name>PT6221</name></trkpt>
<trkpt lat="53.367247" lon="-1.745457"><ele>256</ele><time>2020-08-05T11:10:49Z</time><name>PT6222</name></trkpt>
<trkpt lat="53.367257" lon="-1.745455"><ele>256</ele><time>2020-08-05T11:10:50Z</time><name>PT6223</name></trkpt>
<trkpt lat="53.367268" lon="-1.745455"><ele>256</ele><time>2020-08-05T11:10:51Z</time><name>PT6224</name></trkpt>
<trkpt lat="53.367276" lon="-1.745458"><ele>256</ele><time>2020-08-05T11:10:52Z</time><name>PT6225</name></trkpt>
<trkpt lat="53.367284" lon="-1.745458"><ele>256</ele><time>2020-08-05T11:10:53Z</time><name>PT6226</name></trkpt>
<trkpt lat="53.367296" lon="-1.745455"><ele>257</ele><time>2020-08-05T11:10:54Z</time><name>PT6227</name></trkpt>
<trkpt lat="53.367304" lon="-1.745455"><ele>256</ele><time>2020-08-05T11:10:55Z</time><name>PT6228</name></trkpt>
<trkpt lat="53.367311" lon="-1.745451"><ele>256</ele><time>2020-08-05T11:10:56Z</time><name>PT6229</name></trkpt>
<trkpt lat="53.367322" lon="-1.745452"><ele>256</ele><time>2020-08-05T11:10:57Z</time><name>PT6230</name></trkpt>
<trkpt lat="53.367329" lon="-1.745451"><ele>256</ele><time>2020-08-05T11:10:58Z</time><name>PT6231</name></trkpt>
<trkpt lat="53.367335" lon="-1.745450"><ele>256</ele><time>2020-08-05T11:10:59Z</time><name>PT6232</name></trkpt>
<trkpt lat="53.367342" lon="-1.745449"><ele>256</ele><time>2020-08-05T11:11:00Z</time><name>PT6233</name></trkpt>
<trkpt lat="53.367349" lon="-1.745450"><ele>255</ele><time>2020-08-05T11:11:01Z</time><name>PT6234</name></trkpt>
<trkpt lat="53.367358" lon="-1.745455"><ele>255</ele><time>2020-08-05T11:11:02Z</time><name>PT6235</name></trkpt>
<trkpt lat="53.367372" lon="-1.745454"><ele>256</ele><time>2020-08-05T11:11:03Z</time><name>PT6236</name></trkpt>
<trkpt lat="53.367386" lon="-1.745452"><ele>256</ele><time>2020-08-05T11:11:04Z</time><name>PT6237</name></trkpt>
<trkpt lat="53.367394" lon="-1.745453"><ele>257</ele><time>2020-08-05T11:11:05Z</time><name>PT6238</name></trkpt>
<trkpt lat="53.367406" lon="-1.745454"><ele>257</ele><time>2020-08-05T11:11:06Z</time><name>PT6239</name></trkpt>
<trkpt lat="53.367415" lon="-1.745459"><ele>257</ele><time>2020-08-05T11:11:07Z</time><name>PT6240</name></trkpt>
<trkpt lat="53.367430" lon="-1.745456"><ele>258</ele><time>2020-08-05T11:11:08Z</time><name>PT6241</name></trkpt>
<trkpt lat="53.367444" lon="-1.745455"><ele>258</ele><time>2020-08-05T11:11:09Z</time><name>PT6242</name></trkpt>
<trkpt lat="53.367454" lon="-1.745454"><ele>258</ele><time>2020-08-05T11:11:10Z</time><name>PT6243</name></trkpt>
<trkpt lat="53.367467" lon="-1.745451"><ele>259</ele><time>2020-08-05T11:11:11Z</time><name>PT6244</name></trkpt>
<trkpt lat="53.367482" lon="-1.745448"><ele>259</ele><time>2020-08-05T11:11:12Z</time><name>PT6245</name></trkpt>
<trkpt lat="53.367498" lon="-1.745443"><ele>260</ele><time>2020-08-05T11:11:13Z</time><name>PT6246</name></trkpt>
<trkpt lat="53.367509" lon="-1.745442"><ele>260</ele><time>2020-08-05T11:11:14Z</time><name>PT6247</name></trkpt>
<trkpt lat="53.367520" lon="-1.745439"><ele>261</ele><time>2020-08-05T11:11:15Z</time><name>PT6248</name></trkpt>
<trkpt lat="53.367531" lon="-1.745435"><ele>261</ele><time>2020-08-05T11:11:16Z</time><name>PT6249</name></trkpt>
<trkpt lat="53.367540" lon="-1.745428"><ele>262</ele><time>2020-08-05T11:11:17Z</time><name>PT6250</name></trkpt>
<trkpt lat="53.367551" lon="-1.745424"><ele>263</ele><time>2020-08-05T11:11:18Z</time><name>PT6251</name></trkpt>
<trkpt lat="53.367562" lon="-1.745423"><ele>263</ele><time>2020-08-05T11:11:19Z</time><name>PT6252</name></trkpt>
<trkpt lat="53.367570" lon="-1.745424"><ele>264</ele><time>2020-08-05T11:11:20Z</time><name>PT6253</name></trkpt>
<trkpt lat="53.367581" lon="-1.745421"><ele>263</ele><time>2020-08-05T11:11:21Z</time><name>PT6254</name></trkpt>
<trkpt lat="53.367591" lon="-1.745416"><ele>263</ele><time>2020-08-05T11:11:22Z</time><name>PT6255</name></trkpt>
<trkpt lat="53.367611" lon="-1.745402"><ele>266</ele><time>2020-08-05T11:11:23Z</time><name>PT6256</name></trkpt>
<trkpt lat="53.367621" lon="-1.745399"><ele>266</ele><time>2020-08-05T11:11:24Z</time><name>PT6257</name></trkpt>
<trkpt lat="53.367629" lon="-1.745397"><ele>266</ele><time>2020-08-05T11:11:25Z</time><name>PT6258</name></trkpt>
<trkpt lat="53.367640" lon="-1.745404"><ele>267</ele><time>2020-08-05T11:11:26Z</time><name>PT6259</name></trkpt>
<trkpt lat="53.367643" lon="-1.745406"><ele>265</ele><time>2020-08-05T11:11:27Z</time><name>PT6260</name></trkpt>
<trkpt lat="53.367649" lon="-1.745415"><ele>266</ele><time>2020-08-05T11:11:28Z</time><name>PT6261</name></trkpt>
<trkpt lat="53.367658" lon="-1.745421"><ele>268</ele><time>2020-08-05T11:11:29Z</time><name>PT6262</name></trkpt>
<trkpt lat="53.367658" lon="-1.745431"><ele>269</ele><time>2020-08-05T11:11:30Z</time><name>PT6263</name></trkpt>
<trkpt lat="53.367662" lon="-1.745435"><ele>270</ele><time>2020-08-05T11:11:31Z</time><name>PT6264</name></trkpt>
<trkpt lat="53.367662" lon="-1.745442"><ele>270</ele><time>2020-08-05T11:11:32Z</time><name>PT6265</name></trkpt>
<trkpt lat="53.367667" lon="-1.745441"><ele>270</ele><time>2020-08-05T11:11:33Z</time><name>PT6266</name></trkpt>
<trkpt lat="53.367672" lon="-1.745440"><ele>270</ele><time>2020-08-05T11:11:34Z</time><name>PT6267</name></trkpt>
<trkpt lat="53.367673" lon="-1.745441"><ele>271</ele><time>2020-08-05T11:11:35Z</time><name>PT6268</name></trkpt>
<trkpt lat="53.367674" lon="-1.745442"><ele>271</ele><time>2020-08-05T11:11:36Z</time><name>PT6269</name></trkpt>
<trkpt lat="53.367673" lon="-1.745442"><ele>271</ele><time>2020-08-05T11:12:11Z</time><name>PT6270</name></trkpt>
<trkpt lat="53.367673" lon="-1.745440"><ele>271</ele><time>2020-08-05T11:12:12Z</time><name>PT6271</name></trkpt>
<trkpt lat="53.367671" lon="-1.745441"><ele>271</ele><time>2020-08-05T11:12:13Z</time><name>PT6272</name></trkpt>
<trkpt lat="53.367666" lon="-1.745442"><ele>271</ele><time>2020-08-05T11:12:14Z</time><name>PT6273</name></trkpt>
<trkpt lat="53.367672" lon="-1.745445"><ele>271</ele><time>2020-08-05T11:12:15Z</time><name>PT6274</name></trkpt>
<trkpt lat="53.367675" lon="-1.745438"><ele>271</ele><time>2020-08-05T11:12:16Z</time><name>PT6275</name></trkpt>
<trkpt lat="53.367675" lon="-1.745430"><ele>271</ele><time>2020-08-05T11:12:37Z</time><name>PT6276</name></trkpt>
<trkpt lat="53.367679" lon="-1.745416"><ele>271</ele><time>2020-08-05T11:12:38Z</time><name>PT6277</name></trkpt>
<trkpt lat="53.367683" lon="-1.745406"><ele>271</ele><time>2020-08-05T11:12:39Z</time><name>PT6278</name></trkpt>
<trkpt lat="53.367693" lon="-1.745407"><ele>271</ele><time>2020-08-05T11:12:40Z</time><name>PT6279</name></trkpt>
<trkpt lat="53.367704" lon="-1.745409"><ele>271</ele><time>2020-08-05T11:12:41Z</time><name>PT6280</name></trkpt>
<trkpt lat="53.367715" lon="-1.745406"><ele>270</ele><time>2020-08-05T11:12:42Z</time><name>PT6281</name></trkpt>
<trkpt lat="53.367727" lon="-1.745408"><ele>271</ele><time>2020-08-05T11:12:43Z</time><name>PT6282</name></trkpt>
<trkpt lat="53.367739" lon="-1.745409"><ele>271</ele><time>2020-08-05T11:12:44Z</time><name>PT6283</name></trkpt>
<trkpt lat="53.367754" lon="-1.745409"><ele>271</ele><time>2020-08-05T11:12:45Z</time><name>PT6284</name></trkpt>
<trkpt lat="53.367767" lon="-1.745417"><ele>271</ele><time>2020-08-05T11:12:46Z</time><name>PT6285</name></trkpt>
<trkpt lat="53.367782" lon="-1.745419"><ele>272</ele><time>2020-08-05T11:12:47Z</time><name>PT6286</name></trkpt>
<trkpt lat="53.367794" lon="-1.745418"><ele>272</ele><time>2020-08-05T11:12:48Z</time><name>PT6287</name></trkpt>
<trkpt lat="53.367807" lon="-1.745415"><ele>272</ele><time>2020-08-05T11:12:49Z</time><name>PT6288</name></trkpt>
<trkpt lat="53.367816" lon="-1.745415"><ele>272</ele><time>2020-08-05T11:12:50Z</time><name>PT6289</name></trkpt>
<trkpt lat="53.367827" lon="-1.745418"><ele>273</ele><time>2020-08-05T11:12:51Z</time><name>PT6290</name></trkpt>
<trkpt lat="53.367838" lon="-1.745420"><ele>272</ele><time>2020-08-05T11:12:52Z</time><name>PT6291</name></trkpt>
<trkpt lat="53.367847" lon="-1.745423"><ele>272</ele><time>2020-08-05T11:12:53Z</time><name>PT6292</name></trkpt>
<trkpt lat="53.367856" lon="-1.745425"><ele>272</ele><time>2020-08-05T11:12:54Z</time><name>PT6293</name></trkpt>
<trkpt lat="53.367865" lon="-1.745426"><ele>272</ele><time>2020-08-05T11:12:55Z</time><name>PT6294</name></trkpt>
<trkpt lat="53.367874" lon="-1.745425"><ele>272</ele><time>2020-08-05T11:12:56Z</time><name>PT6295</name></trkpt>
<trkpt lat="53.367881" lon="-1.745427"><ele>272</ele><time>2020-08-05T11:12:57Z</time><name>PT6296</name></trkpt>
<trkpt lat="53.367890" lon="-1.745432"><ele>271</ele><time>2020-08-05T11:12:58Z</time><name>PT6297</name></trkpt>
<trkpt lat="53.367899" lon="-1.745436"><ele>271</ele><time>2020-08-05T11:12:59Z</time><name>PT6298</name></trkpt>
<trkpt lat="53.367908" lon="-1.745440"><ele>271</ele><time>2020-08-05T11:13:00Z</time><name>PT6299</name></trkpt>
<trkpt lat="53.367919" lon="-1.745444"><ele>271</ele><time>2020-08-05T11:13:01Z</time><name>PT6300</name></trkpt>
<trkpt lat="53.367932" lon="-1.745446"><ele>272</ele><time>2020-08-05T11:13:02Z</time><name>PT6301</name></trkpt>
<trkpt lat="53.367940" lon="-1.745451"><ele>272</ele><time>2020-08-05T11:13:03Z</time><name>PT6302</name></trkpt>
<trkpt lat="53.367949" lon="-1.745455"><ele>272</ele><time>2020-08-05T11:13:04Z</time><name>PT6303</name></trkpt>
<trkpt lat="53.367956" lon="-1.745459"><ele>271</ele><time>2020-08-05T11:13:05Z</time><name>PT6304</name></trkpt>
<trkpt lat="53.367966" lon="-1.745460"><ele>271</ele><time>2020-08-05T11:13:06Z</time><name>PT6305</name></trkpt>
<trkpt lat="53.367977" lon="-1.745461"><ele>271</ele><time>2020-08-05T11:13:07Z</time><name>PT6306</name></trkpt>
<trkpt lat="53.367989" lon="-1.745460"><ele>271</ele><time>2020-08-05T11:13:08Z</time><name>PT6307</name></trkpt>
<trkpt lat="53.368000" lon="-1.745461"><ele>271</ele><time>2020-08-05T11:13:09Z</time><name>PT6308</name></trkpt>
<trkpt lat="53.368011" lon="-1.745462"><ele>271</ele><time>2020-08-05T11:13:10Z</time><name>PT6309</name></trkpt>
<trkpt lat="53.368021" lon="-1.745468"><ele>270</ele><time>2020-08-05T11:13:11Z</time><name>PT6310</name></trkpt>
<trkpt lat="53.368029" lon="-1.745469"><ele>270</ele><time>2020-08-05T11:13:12Z</time><name>PT6311</name></trkpt>
<trkpt lat="53.368041" lon="-1.745472"><ele>270</ele><time>2020-08-05T11:13:13Z</time><name>PT6312</name></trkpt>
<trkpt lat="53.368050" lon="-1.745476"><ele>270</ele><time>2020-08-05T11:13:14Z</time><name>PT6313</name></trkpt>
<trkpt lat="53.368057" lon="-1.745476"><ele>270</ele><time>2020-08-05T11:13:15Z</time><name>PT6314</name></trkpt>
<trkpt lat="53.368069" lon="-1.745479"><ele>271</ele><time>2020-08-05T11:13:16Z</time><name>PT6315</name></trkpt>
<trkpt lat="53.368078" lon="-1.745483"><ele>271</ele><time>2020-08-05T11:13:17Z</time><name>PT6316</name></trkpt>
<trkpt lat="53.368088" lon="-1.745491"><ele>271</ele><time>2020-08-05T11:13:18Z</time><name>PT6317</name></trkpt>
<trkpt lat="53.368097" lon="-1.745496"><ele>271</ele><time>2020-08-05T11:13:19Z</time><name>PT6318</name></trkpt>
<trkpt lat="53.368105" lon="-1.745497"><ele>271</ele><time>2020-08-05T11:13:20Z</time><name>PT6319</name></trkpt>
<trkpt lat="53.368114" lon="-1.745505"><ele>272</ele><time>2020-08-05T11:13:21Z</time><name>PT6320</name></trkpt>
<trkpt lat="53.368122" lon="-1.745509"><ele>271</ele><time>2020-08-05T11:13:22Z</time><name>PT6321</name></trkpt>
<trkpt lat="53.368130" lon="-1.745515"><ele>271</ele><time>2020-08-05T11:13:23Z</time><name>PT6322</name></trkpt>
<trkpt lat="53.368137" lon="-1.745521"><ele>271</ele><time>2020-08-05T11:13:24Z</time><name>PT6323</name></trkpt>
<trkpt lat="53.368145" lon="-1.745528"><ele>271</ele><time>2020-08-05T11:13:25Z</time><name>PT6324</name></trkpt>
<trkpt lat="53.368154" lon="-1.745535"><ele>271</ele><time>2020-08-05T11:13:26Z</time><name>PT6325</name></trkpt>
<trkpt lat="53.368161" lon="-1.745543"><ele>270</ele><time>2020-08-05T11:13:27Z</time><name>PT6326</name></trkpt>
<trkpt lat="53.368172" lon="-1.745548"><ele>270</ele><time>2020-08-05T11:13:28Z</time><name>PT6327</name></trkpt>
<trkpt lat="53.368182" lon="-1.745552"><ele>270</ele><time>2020-08-05T11:13:29Z</time><name>PT6328</name></trkpt>
<trkpt lat="53.368191" lon="-1.745558"><ele>270</ele><time>2020-08-05T11:13:30Z</time><name>PT6329</name></trkpt>
<trkpt lat="53.368199" lon="-1.745565"><ele>271</ele><time>2020-08-05T11:13:31Z</time><name>PT6330</name></trkpt>
<trkpt lat="53.368209" lon="-1.745571"><ele>272</ele><time>2020-08-05T11:13:32Z</time><name>PT6331</name></trkpt>
<trkpt lat="53.368219" lon="-1.745574"><ele>273</ele><time>2020-08-05T11:13:33Z</time><name>PT6332</name></trkpt>
<trkpt lat="53.368231" lon="-1.745575"><ele>273</ele><time>2020-08-05T11:13:34Z</time><name>PT6333</name></trkpt>
<trkpt lat="53.368238" lon="-1.745580"><ele>274</ele><time>2020-08-05T11:13:35Z</time><name>PT6334</name></trkpt>
<trkpt lat="53.368244" lon="-1.745586"><ele>273</ele><time>2020-08-05T11:13:36Z</time><name>PT6335</name></trkpt>
<trkpt lat="53.368253" lon="-1.745587"><ele>275</ele><time>2020-08-05T11:13:37Z</time><name>PT6336</name></trkpt>
<trkpt lat="53.368259" lon="-1.745593"><ele>274</ele><time>2020-08-05T11:13:38Z</time><name>PT6337</name></trkpt>
<trkpt lat="53.368269" lon="-1.745601"><ele>275</ele><time>2020-08-05T11:13:39Z</time><name>PT6338</name></trkpt>
<trkpt lat="53.368278" lon="-1.745606"><ele>274</ele><time>2020-08-05T11:13:40Z</time><name>PT6339</name></trkpt>
<trkpt lat="53.368286" lon="-1.745615"><ele>275</ele><time>2020-08-05T11:13:41Z</time><name>PT6340</name></trkpt>
<trkpt lat="53.368292" lon="-1.745621"><ele>274</ele><time>2020-08-05T11:13:42Z</time><name>PT6341</name></trkpt>
<trkpt lat="53.368300" lon="-1.745628"><ele>275</ele><time>2020-08-05T11:13:43Z</time><name>PT6342</name></trkpt>
<trkpt lat="53.368309" lon="-1.745635"><ele>276</ele><time>2020-08-05T11:13:44Z</time><name>PT6343</name></trkpt>
<trkpt lat="53.368316" lon="-1.745640"><ele>276</ele><time>2020-08-05T11:13:45Z</time><name>PT6344</name></trkpt>
<trkpt lat="53.368324" lon="-1.745646"><ele>276</ele><time>2020-08-05T11:13:46Z</time><name>PT6345</name></trkpt>
<trkpt lat="53.368334" lon="-1.745644"><ele>277</ele><time>2020-08-05T11:13:47Z</time><name>PT6346</name></trkpt>
<trkpt lat="53.368345" lon="-1.745650"><ele>277</ele><time>2020-08-05T11:13:48Z</time><name>PT6347</name></trkpt>
<trkpt lat="53.368355" lon="-1.745653"><ele>278</ele><time>2020-08-05T11:13:49Z</time><name>PT6348</name></trkpt>
<trkpt lat="53.368362" lon="-1.745663"><ele>278</ele><time>2020-08-05T11:13:50Z</time><name>PT6349</name></trkpt>
<trkpt lat="53.368372" lon="-1.745670"><ele>278</ele><time>2020-08-05T11:13:51Z</time><name>PT6350</name></trkpt>
<trkpt lat="53.368379" lon="-1.745675"><ele>278</ele><time>2020-08-05T11:13:52Z</time><name>PT6351</name></trkpt>
<trkpt lat="53.368389" lon="-1.745680"><ele>279</ele><time>2020-08-05T11:13:53Z</time><name>PT6352</name></trkpt>
<trkpt lat="53.368396" lon="-1.745683"><ele>279</ele><time>2020-08-05T11:13:54Z</time><name>PT6353</name></trkpt>
<trkpt lat="53.368406" lon="-1.745686"><ele>280</ele><time>2020-08-05T11:13:55Z</time><name>PT6354</name></trkpt>
<trkpt lat="53.368415" lon="-1.745691"><ele>280</ele><time>2020-08-05T11:13:56Z</time><name>PT6355</name></trkpt>
<trkpt lat="53.368427" lon="-1.745696"><ele>280</ele><time>2020-08-05T11:13:57Z</time><name>PT6356</name></trkpt>
<trkpt lat="53.368438" lon="-1.745698"><ele>281</ele><time>2020-08-05T11:13:58Z</time><name>PT6357</name></trkpt>
<trkpt lat="53.368447" lon="-1.745697"><ele>281</ele><time>2020-08-05T11:13:59Z</time><name>PT6358</name></trkpt>
<trkpt lat="53.368457" lon="-1.745702"><ele>281</ele><time>2020-08-05T11:14:00Z</time><name>PT6359</name></trkpt>
<trkpt lat="53.368463" lon="-1.745706"><ele>281</ele><time>2020-08-05T11:14:01Z</time><name>PT6360</name></trkpt>
<trkpt lat="53.368472" lon="-1.745710"><ele>281</ele><time>2020-08-05T11:14:02Z</time><name>PT6361</name></trkpt>
<trkpt lat="53.368482" lon="-1.745714"><ele>281</ele><time>2020-08-05T11:14:03Z</time><name>PT6362</name></trkpt>
<trkpt lat="53.368490" lon="-1.745716"><ele>281</ele><time>2020-08-05T11:14:04Z</time><name>PT6363</name></trkpt>
<trkpt lat="53.368499" lon="-1.745717"><ele>282</ele><time>2020-08-05T11:14:05Z</time><name>PT6364</name></trkpt>
<trkpt lat="53.368511" lon="-1.745724"><ele>282</ele><time>2020-08-05T11:14:06Z</time><name>PT6365</name></trkpt>
<trkpt lat="53.368521" lon="-1.745729"><ele>282</ele><time>2020-08-05T11:14:07Z</time><name>PT6366</name></trkpt>
<trkpt lat="53.368531" lon="-1.745734"><ele>282</ele><time>2020-08-05T11:14:08Z</time><name>PT6367</name></trkpt>
<trkpt lat="53.368540" lon="-1.745739"><ele>283</ele><time>2020-08-05T11:14:09Z</time><name>PT6368</name></trkpt>
<trkpt lat="53.368549" lon="-1.745746"><ele>283</ele><time>2020-08-05T11:14:10Z</time><name>PT6369</name></trkpt>
<trkpt lat="53.368556" lon="-1.745752"><ele>283</ele><time>2020-08-05T11:14:11Z</time><name>PT6370</name></trkpt>
<trkpt lat="53.368563" lon="-1.745751"><ele>283</ele><time>2020-08-05T11:14:12Z</time><name>PT6371</name></trkpt>
<trkpt lat="53.368571" lon="-1.745754"><ele>283</ele><time>2020-08-05T11:14:13Z</time><name>PT6372</name></trkpt>
<trkpt lat="53.368582" lon="-1.745762"><ele>283</ele><time>2020-08-05T11:14:14Z</time><name>PT6373</name></trkpt>
<trkpt lat="53.368593" lon="-1.745766"><ele>283</ele><time>2020-08-05T11:14:15Z</time><name>PT6374</name></trkpt>
<trkpt lat="53.368603" lon="-1.745768"><ele>283</ele><time>2020-08-05T11:14:16Z</time><name>PT6375</name></trkpt>
<trkpt lat="53.368612" lon="-1.745772"><ele>283</ele><time>2020-08-05T11:14:17Z</time><name>PT6376</name></trkpt>
<trkpt lat="53.368620" lon="-1.745776"><ele>283</ele><time>2020-08-05T11:14:18Z</time><name>PT6377</name></trkpt>
<trkpt lat="53.368628" lon="-1.745780"><ele>283</ele><time>2020-08-05T11:14:19Z</time><name>PT6378</name></trkpt>
<trkpt lat="53.368640" lon="-1.745789"><ele>283</ele><time>2020-08-05T11:14:20Z</time><name>PT6379</name></trkpt>
<trkpt lat="53.368650" lon="-1.745789"><ele>283</ele><time>2020-08-05T11:14:21Z</time><name>PT6380</name></trkpt>
<trkpt lat="53.368659" lon="-1.745788"><ele>283</ele><time>2020-08-05T11:14:22Z</time><name>PT6381</name></trkpt>
<trkpt lat="53.368671" lon="-1.745791"><ele>283</ele><time>2020-08-05T11:14:23Z</time><name>PT6382</name></trkpt>
<trkpt lat="53.368682" lon="-1.745792"><ele>283</ele><time>2020-08-05T11:14:24Z</time><name>PT6383</name></trkpt>
<trkpt lat="53.368693" lon="-1.745796"><ele>283</ele><time>2020-08-05T11:14:25Z</time><name>PT6384</name></trkpt>
<trkpt lat="53.368703" lon="-1.745803"><ele>283</ele><time>2020-08-05T11:14:26Z</time><name>PT6385</name></trkpt>
<trkpt lat="53.368713" lon="-1.745807"><ele>283</ele><time>2020-08-05T11:14:27Z</time><name>PT6386</name></trkpt>
<trkpt lat="53.368724" lon="-1.745811"><ele>283</ele><time>2020-08-05T11:14:28Z</time><name>PT6387</name></trkpt>
<trkpt lat="53.368735" lon="-1.745810"><ele>283</ele><time>2020-08-05T11:14:29Z</time><name>PT6388</name></trkpt>
<trkpt lat="53.368744" lon="-1.745814"><ele>283</ele><time>2020-08-05T11:14:30Z</time><name>PT6389</name></trkpt>
<trkpt lat="53.368754" lon="-1.745819"><ele>284</ele><time>2020-08-05T11:14:31Z</time><name>PT6390</name></trkpt>
<trkpt lat="53.368765" lon="-1.745823"><ele>284</ele><time>2020-08-05T11:14:32Z</time><name>PT6391</name></trkpt>
<trkpt lat="53.368779" lon="-1.745821"><ele>285</ele><time>2020-08-05T11:14:33Z</time><name>PT6392</name></trkpt>
<trkpt lat="53.368788" lon="-1.745821"><ele>285</ele><time>2020-08-05T11:14:34Z</time><name>PT6393</name></trkpt>
<trkpt lat="53.368796" lon="-1.745823"><ele>285</ele><time>2020-08-05T11:14:35Z</time><name>PT6394</name></trkpt>
<trkpt lat="53.368804" lon="-1.745825"><ele>285</ele><time>2020-08-05T11:14:36Z</time><name>PT6395</name></trkpt>
<trkpt lat="53.368815" lon="-1.745829"><ele>285</ele><time>2020-08-05T11:14:37Z</time><name>PT6396</name></trkpt>
<trkpt lat="53.368829" lon="-1.745830"><ele>285</ele><time>2020-08-05T11:14:38Z</time><name>PT6397</name></trkpt>
<trkpt lat="53.368843" lon="-1.745826"><ele>286</ele><time>2020-08-05T11:14:39Z</time><name>PT6398</name></trkpt>
<trkpt lat="53.368853" lon="-1.745826"><ele>286</ele><time>2020-08-05T11:14:40Z</time><name>PT6399</name></trkpt>
<trkpt lat="53.368866" lon="-1.745832"><ele>285</ele><time>2020-08-05T11:14:41Z</time><name>PT6400</name></trkpt>
<trkpt lat="53.368879" lon="-1.745830"><ele>286</ele><time>2020-08-05T11:14:42Z</time><name>PT6401</name></trkpt>
<trkpt lat="53.368891" lon="-1.745832"><ele>287</ele><time>2020-08-05T11:14:43Z</time><name>PT6402</name></trkpt>
<trkpt lat="53.368902" lon="-1.745833"><ele>287</ele><time>2020-08-05T11:14:44Z</time><name>PT6403</name></trkpt>
<trkpt lat="53.368911" lon="-1.745832"><ele>287</ele><time>2020-08-05T11:14:45Z</time><name>PT6404</name></trkpt>
<trkpt lat="53.368920" lon="-1.745833"><ele>286</ele><time>2020-08-05T11:14:46Z</time><name>PT6405</name></trkpt>
<trkpt lat="53.368930" lon="-1.745836"><ele>287</ele><time>2020-08-05T11:14:47Z</time><name>PT6406</name></trkpt>
<trkpt lat="53.368938" lon="-1.745838"><ele>287</ele><time>2020-08-05T11:14:48Z</time><name>PT6407</name></trkpt>
<trkpt lat="53.368947" lon="-1.745840"><ele>287</ele><time>2020-08-05T11:14:49Z</time><name>PT6408</name></trkpt>
<trkpt lat="53.368956" lon="-1.745845"><ele>286</ele><time>2020-08-05T11:14:50Z</time><name>PT6409</name></trkpt>
<trkpt lat="53.368965" lon="-1.745847"><ele>286</ele><time>2020-08-05T11:14:51Z</time><name>PT6410</name></trkpt>
<trkpt lat="53.368976" lon="-1.745853"><ele>287</ele><time>2020-08-05T11:14:52Z</time><name>PT6411</name></trkpt>
<trkpt lat="53.368987" lon="-1.745855"><ele>287</ele><time>2020-08-05T11:14:53Z</time><name>PT6412</name></trkpt>
<trkpt lat="53.368994" lon="-1.745860"><ele>287</ele><time>2020-08-05T11:14:54Z</time><name>PT6413</name></trkpt>
<trkpt lat="53.369003" lon="-1.745865"><ele>287</ele><time>2020-08-05T11:14:55Z</time><name>PT6414</name></trkpt>
<trkpt lat="53.369009" lon="-1.745869"><ele>287</ele><time>2020-08-05T11:14:56Z</time><name>PT6415</name></trkpt>
<trkpt lat="53.369017" lon="-1.745873"><ele>287</ele><time>2020-08-05T11:14:57Z</time><name>PT6416</name></trkpt>
<trkpt lat="53.369026" lon="-1.745879"><ele>287</ele><time>2020-08-05T11:14:58Z</time><name>PT6417</name></trkpt>
<trkpt lat="53.369036" lon="-1.745884"><ele>287</ele><time>2020-08-05T11:14:59Z</time><name>PT6418</name></trkpt>
<trkpt lat="53.369047" lon="-1.745886"><ele>288</ele><time>2020-08-05T11:15:00Z</time><name>PT6419</name></trkpt>
<trkpt lat="53.369058" lon="-1.745894"><ele>289</ele><time>2020-08-05T11:15:01Z</time><name>PT6420</name></trkpt>
<trkpt lat="53.369066" lon="-1.745899"><ele>289</ele><time>2020-08-05T11:15:02Z</time><name>PT6421</name></trkpt>
<trkpt lat="53.369076" lon="-1.745907"><ele>288</ele><time>2020-08-05T11:15:03Z</time><name>PT6422</name></trkpt>
<trkpt lat="53.369086" lon="-1.745912"><ele>288</ele><time>2020-08-05T11:15:04Z</time><name>PT6423</name></trkpt>
<trkpt lat="53.369100" lon="-1.745916"><ele>289</ele><time>2020-08-05T11:15:05Z</time><name>PT6424</name></trkpt>
<trkpt lat="53.369110" lon="-1.745922"><ele>289</ele><time>2020-08-05T11:15:06Z</time><name>PT6425</name></trkpt>
<trkpt lat="53.369119" lon="-1.745927"><ele>289</ele><time>2020-08-05T11:15:07Z</time><name>PT6426</name></trkpt>
<trkpt lat="53.369131" lon="-1.745930"><ele>290</ele><time>2020-08-05T11:15:08Z</time><name>PT6427</name></trkpt>
<trkpt lat="53.369141" lon="-1.745938"><ele>289</ele><time>2020-08-05T11:15:09Z</time><name>PT6428</name></trkpt>
<trkpt lat="53.369148" lon="-1.745945"><ele>290</ele><time>2020-08-05T11:15:10Z</time><name>PT6429</name></trkpt>
<trkpt lat="53.369160" lon="-1.745946"><ele>291</ele><time>2020-08-05T11:15:11Z</time><name>PT6430</name></trkpt>
<trkpt lat="53.369170" lon="-1.745950"><ele>291</ele><time>2020-08-05T11:15:12Z</time><name>PT6431</name></trkpt>
<trkpt lat="53.369182" lon="-1.745957"><ele>291</ele><time>2020-08-05T11:15:13Z</time><name>PT6432</name></trkpt>
<trkpt lat="53.369194" lon="-1.745960"><ele>291</ele><time>2020-08-05T11:15:14Z</time><name>PT6433</name></trkpt>
<trkpt lat="53.369206" lon="-1.745963"><ele>291</ele><time>2020-08-05T11:15:15Z</time><name>PT6434</name></trkpt>
<trkpt lat="53.369216" lon="-1.745970"><ele>291</ele><time>2020-08-05T11:15:16Z</time><name>PT6435</name></trkpt>
<trkpt lat="53.369226" lon="-1.745977"><ele>291</ele><time>2020-08-05T11:15:17Z</time><name>PT6436</name></trkpt>
<trkpt lat="53.369239" lon="-1.745982"><ele>291</ele><time>2020-08-05T11:15:18Z</time><name>PT6437</name></trkpt>
<trkpt lat="53.369251" lon="-1.745987"><ele>291</ele><time>2020-08-05T11:15:19Z</time><name>PT6438</name></trkpt>
<trkpt lat="53.369262" lon="-1.745989"><ele>292</ele><time>2020-08-05T11:15:20Z</time><name>PT6439</name></trkpt>
<trkpt lat="53.369273" lon="-1.745990"><ele>292</ele><time>2020-08-05T11:15:21Z</time><name>PT6440</name></trkpt>
<trkpt lat="53.369284" lon="-1.745995"><ele>292</ele><time>2020-08-05T11:15:22Z</time><name>PT6441</name></trkpt>
<trkpt lat="53.369300" lon="-1.745997"><ele>293</ele><time>2020-08-05T11:15:23Z</time><name>PT6442</name></trkpt>
<trkpt lat="53.369316" lon="-1.746003"><ele>293</ele><time>2020-08-05T11:15:24Z</time><name>PT6443</name></trkpt>
<trkpt lat="53.369326" lon="-1.746004"><ele>294</ele><time>2020-08-05T11:15:25Z</time><name>PT6444</name></trkpt>
<trkpt lat="53.369336" lon="-1.746007"><ele>294</ele><time>2020-08-05T11:15:26Z</time><name>PT6445</name></trkpt>
<trkpt lat="53.369348" lon="-1.746013"><ele>293</ele><time>2020-08-05T11:15:27Z</time><name>PT6446</name></trkpt>
<trkpt lat="53.369363" lon="-1.746023"><ele>293</ele><time>2020-08-05T11:15:28Z</time><name>PT6447</name></trkpt>
<trkpt lat="53.369373" lon="-1.746030"><ele>293</ele><time>2020-08-05T11:15:29Z</time><name>PT6448</name></trkpt>
<trkpt lat="53.369385" lon="-1.746037"><ele>294</ele><time>2020-08-05T11:15:30Z</time><name>PT6449</name></trkpt>
<trkpt lat="53.369394" lon="-1.746043"><ele>294</ele><time>2020-08-05T11:15:31Z</time><name>PT6450</name></trkpt>
<trkpt lat="53.369404" lon="-1.746048"><ele>294</ele><time>2020-08-05T11:15:32Z</time><name>PT6451</name></trkpt>
<trkpt lat="53.369417" lon="-1.746057"><ele>294</ele><time>2020-08-05T11:15:33Z</time><name>PT6452</name></trkpt>
<trkpt lat="53.369425" lon="-1.746063"><ele>294</ele><time>2020-08-05T11:15:34Z</time><name>PT6453</name></trkpt>
<trkpt lat="53.369438" lon="-1.746069"><ele>293</ele><time>2020-08-05T11:15:35Z</time><name>PT6454</name></trkpt>
<trkpt lat="53.369451" lon="-1.746074"><ele>293</ele><time>2020-08-05T11:15:36Z</time><name>PT6455</name></trkpt>
<trkpt lat="53.369464" lon="-1.746081"><ele>293</ele><time>2020-08-05T11:15:37Z</time><name>PT6456</name></trkpt>
<trkpt lat="53.369478" lon="-1.746087"><ele>293</ele><time>2020-08-05T11:15:38Z</time><name>PT6457</name></trkpt>
<trkpt lat="53.369490" lon="-1.746089"><ele>293</ele><time>2020-08-05T11:15:39Z</time><name>PT6458</name></trkpt>
<trkpt lat="53.369502" lon="-1.746087"><ele>293</ele><time>2020-08-05T11:15:40Z</time><name>PT6459</name></trkpt>
<trkpt lat="53.369512" lon="-1.746090"><ele>293</ele><time>2020-08-05T11:15:41Z</time><name>PT6460</name></trkpt>
<trkpt lat="53.369523" lon="-1.746096"><ele>293</ele><time>2020-08-05T11:15:42Z</time><name>PT6461</name></trkpt>
<trkpt lat="53.369534" lon="-1.746101"><ele>293</ele><time>2020-08-05T11:15:43Z</time><name>PT6462</name></trkpt>
<trkpt lat="53.369545" lon="-1.746104"><ele>293</ele><time>2020-08-05T11:15:44Z</time><name>PT6463</name></trkpt>
<trkpt lat="53.369551" lon="-1.746110"><ele>292</ele><time>2020-08-05T11:15:45Z</time><name>PT6464</name></trkpt>
<trkpt lat="53.369559" lon="-1.746116"><ele>292</ele><time>2020-08-05T11:15:46Z</time><name>PT6465</name></trkpt>
<trkpt lat="53.369572" lon="-1.746119"><ele>292</ele><time>2020-08-05T11:15:47Z</time><name>PT6466</name></trkpt>
<trkpt lat="53.369585" lon="-1.746121"><ele>292</ele><time>2020-08-05T11:15:48Z</time><name>PT6467</name></trkpt>
<trkpt lat="53.369595" lon="-1.746122"><ele>292</ele><time>2020-08-05T11:15:49Z</time><name>PT6468</name></trkpt>
<trkpt lat="53.369608" lon="-1.746123"><ele>292</ele><time>2020-08-05T11:15:50Z</time><name>PT6469</name></trkpt>
<trkpt lat="53.369618" lon="-1.746126"><ele>292</ele><time>2020-08-05T11:15:51Z</time><name>PT6470</name></trkpt>
<trkpt lat="53.369630" lon="-1.746131"><ele>293</ele><time>2020-08-05T11:15:52Z</time><name>PT6471</name></trkpt>
<trkpt lat="53.369640" lon="-1.746137"><ele>293</ele><time>2020-08-05T11:15:53Z</time><name>PT6472</name></trkpt>
<trkpt lat="53.369647" lon="-1.746137"><ele>292</ele><time>2020-08-05T11:15:54Z</time><name>PT6473</name></trkpt>
<trkpt lat="53.369657" lon="-1.746138"><ele>293</ele><time>2020-08-05T11:15:55Z</time><name>PT6474</name></trkpt>
<trkpt lat="53.369666" lon="-1.746138"><ele>292</ele><time>2020-08-05T11:15:56Z</time><name>PT6475</name></trkpt>
<trkpt lat="53.369676" lon="-1.746137"><ele>292</ele><time>2020-08-05T11:15:57Z</time><name>PT6476</name></trkpt>
<trkpt lat="53.369685" lon="-1.746139"><ele>293</ele><time>2020-08-05T11:15:58Z</time><name>PT6477</name></trkpt>
<trkpt lat="53.369694" lon="-1.746145"><ele>293</ele><time>2020-08-05T11:15:59Z</time><name>PT6478</name></trkpt>
<trkpt lat="53.369702" lon="-1.746149"><ele>293</ele><time>2020-08-05T11:16:00Z</time><name>PT6479</name></trkpt>
<trkpt lat="53.369709" lon="-1.746150"><ele>292</ele><time>2020-08-05T11:16:01Z</time><name>PT6480</name></trkpt>
<trkpt lat="53.369720" lon="-1.746148"><ele>292</ele><time>2020-08-05T11:16:02Z</time><name>PT6481</name></trkpt>
<trkpt lat="53.369730" lon="-1.746147"><ele>292</ele><time>2020-08-05T11:16:03Z</time><name>PT6482</name></trkpt>
<trkpt lat="53.369740" lon="-1.746145"><ele>293</ele><time>2020-08-05T11:16:04Z</time><name>PT6483</name></trkpt>
<trkpt lat="53.369749" lon="-1.746144"><ele>293</ele><time>2020-08-05T11:16:05Z</time><name>PT6484</name></trkpt>
<trkpt lat="53.369760" lon="-1.746146"><ele>293</ele><time>2020-08-05T11:16:06Z</time><name>PT6485</name></trkpt>
<trkpt lat="53.369772" lon="-1.746146"><ele>294</ele><time>2020-08-05T11:16:07Z</time><name>PT6486</name></trkpt>
<trkpt lat="53.369781" lon="-1.746144"><ele>294</ele><time>2020-08-05T11:16:08Z</time><name>PT6487</name></trkpt>
<trkpt lat="53.369796" lon="-1.746146"><ele>295</ele><time>2020-08-05T11:16:09Z</time><name>PT6488</name></trkpt>
<trkpt lat="53.369806" lon="-1.746148"><ele>294</ele><time>2020-08-05T11:16:10Z</time><name>PT6489</name></trkpt>
<trkpt lat="53.369817" lon="-1.746148"><ele>294</ele><time>2020-08-05T11:16:11Z</time><name>PT6490</name></trkpt>
<trkpt lat="53.369830" lon="-1.746143"><ele>294</ele><time>2020-08-05T11:16:12Z</time><name>PT6491</name></trkpt>
<trkpt lat="53.369844" lon="-1.746139"><ele>294</ele><time>2020-08-05T11:16:13Z</time><name>PT6492</name></trkpt>
<trkpt lat="53.369853" lon="-1.746136"><ele>294</ele><time>2020-08-05T11:16:14Z</time><name>PT6493</name></trkpt>
<trkpt lat="53.369866" lon="-1.746136"><ele>294</ele><time>2020-08-05T11:16:15Z</time><name>PT6494</name></trkpt>
<trkpt lat="53.369877" lon="-1.746133"><ele>294</ele><time>2020-08-05T11:16:16Z</time><name>PT6495</name></trkpt>
<trkpt lat="53.369888" lon="-1.746129"><ele>294</ele><time>2020-08-05T11:16:17Z</time><name>PT6496</name></trkpt>
<trkpt lat="53.369902" lon="-1.746125"><ele>295</ele><time>2020-08-05T11:16:18Z</time><name>PT6497</name></trkpt>
<trkpt lat="53.369915" lon="-1.746121"><ele>294</ele><time>2020-08-05T11:16:19Z</time><name>PT6498</name></trkpt>
<trkpt lat="53.369927" lon="-1.746116"><ele>295</ele><time>2020-08-05T11:16:20Z</time><name>PT6499</name></trkpt>
<trkpt lat="53.369939" lon="-1.746110"><ele>295</ele><time>2020-08-05T11:16:21Z</time><name>PT6500</name></trkpt>
<trkpt lat="53.369952" lon="-1.746108"><ele>295</ele><time>2020-08-05T11:16:22Z</time><name>PT6501</name></trkpt>
<trkpt lat="53.369961" lon="-1.746108"><ele>295</ele><time>2020-08-05T11:16:23Z</time><name>PT6502</name></trkpt>
<trkpt lat="53.369970" lon="-1.746101"><ele>295</ele><time>2020-08-05T11:16:24Z</time><name>PT6503</name></trkpt>
<trkpt lat="53.369984" lon="-1.746098"><ele>295</ele><time>2020-08-05T11:16:25Z</time><name>PT6504</name></trkpt>
<trkpt lat="53.369995" lon="-1.746097"><ele>295</ele><time>2020-08-05T11:16:26Z</time><name>PT6505</name></trkpt>
<trkpt lat="53.370006" lon="-1.746095"><ele>296</ele><time>2020-08-05T11:16:27Z</time><name>PT6506</name></trkpt>
<trkpt lat="53.370019" lon="-1.746091"><ele>296</ele><time>2020-08-05T11:16:28Z</time><name>PT6507</name></trkpt>
<trkpt lat="53.370029" lon="-1.746089"><ele>296</ele><time>2020-08-05T11:16:29Z</time><name>PT6508</name></trkpt>
<trkpt lat="53.370044" lon="-1.746088"><ele>296</ele><time>2020-08-05T11:16:30Z</time><name>PT6509</name></trkpt>
<trkpt lat="53.370058" lon="-1.746084"><ele>296</ele><time>2020-08-05T11:16:31Z</time><name>PT6510</name></trkpt>
<trkpt lat="53.370068" lon="-1.746077"><ele>296</ele><time>2020-08-05T11:16:32Z</time><name>PT6511</name></trkpt>
<trkpt lat="53.370075" lon="-1.746071"><ele>296</ele><time>2020-08-05T11:16:33Z</time><name>PT6512</name></trkpt>
<trkpt lat="53.370085" lon="-1.746067"><ele>295</ele><time>2020-08-05T11:16:34Z</time><name>PT6513</name></trkpt>
<trkpt lat="53.370098" lon="-1.746061"><ele>295</ele><time>2020-08-05T11:16:35Z</time><name>PT6514</name></trkpt>
<trkpt lat="53.370113" lon="-1.746055"><ele>296</ele><time>2020-08-05T11:16:36Z</time><name>PT6515</name></trkpt>
<trkpt lat="53.370126" lon="-1.746054"><ele>296</ele><time>2020-08-05T11:16:37Z</time><name>PT6516</name></trkpt>
<trkpt lat="53.370137" lon="-1.746052"><ele>296</ele><time>2020-08-05T11:16:38Z</time><name>PT6517</name></trkpt>
<trkpt lat="53.370148" lon="-1.746048"><ele>296</ele><time>2020-08-05T11:16:39Z</time><name>PT6518</name></trkpt>
<trkpt lat="53.370161" lon="-1.746044"><ele>296</ele><time>2020-08-05T11:16:40Z</time><name>PT6519</name></trkpt>
<trkpt lat="53.370171" lon="-1.746040"><ele>296</ele><time>2020-08-05T11:16:41Z</time><name>PT6520</name></trkpt>
<trkpt lat="53.370180" lon="-1.746037"><ele>296</ele><time>2020-08-05T11:16:42Z</time><name>PT6521</name></trkpt>
<trkpt lat="53.370191" lon="-1.746034"><ele>297</ele><time>2020-08-05T11:16:43Z</time><name>PT6522</name></trkpt>
<trkpt lat="53.370201" lon="-1.746032"><ele>297</ele><time>2020-08-05T11:16:44Z</time><name>PT6523</name></trkpt>
<trkpt lat="53.370209" lon="-1.746034"><ele>296</ele><time>2020-08-05T11:16:45Z</time><name>PT6524</name></trkpt>
<trkpt lat="53.370216" lon="-1.746033"><ele>295</ele><time>2020-08-05T11:16:46Z</time><name>PT6525</name></trkpt>
<trkpt lat="53.370227" lon="-1.746027"><ele>295</ele><time>2020-08-05T11:16:47Z</time><name>PT6526</name></trkpt>
<trkpt lat="53.370242" lon="-1.746022"><ele>296</ele><time>2020-08-05T11:16:48Z</time><name>PT6527</name></trkpt>
<trkpt lat="53.370255" lon="-1.746017"><ele>296</ele><time>2020-08-05T11:16:49Z</time><name>PT6528</name></trkpt>
<trkpt lat="53.370266" lon="-1.746017"><ele>296</ele><time>2020-08-05T11:16:50Z</time><name>PT6529</name></trkpt>
<trkpt lat="53.370282" lon="-1.746020"><ele>297</ele><time>2020-08-05T11:16:51Z</time><name>PT6530</name></trkpt>
<trkpt lat="53.370292" lon="-1.746021"><ele>296</ele><time>2020-08-05T11:16:52Z</time><name>PT6531</name></trkpt>
<trkpt lat="53.370300" lon="-1.746026"><ele>296</ele><time>2020-08-05T11:16:53Z</time><name>PT6532</name></trkpt>
<trkpt lat="53.370312" lon="-1.746025"><ele>296</ele><time>2020-08-05T11:16:54Z</time><name>PT6533</name></trkpt>
<trkpt lat="53.370324" lon="-1.746020"><ele>296</ele><time>2020-08-05T11:16:55Z</time><name>PT6534</name></trkpt>
<trkpt lat="53.370337" lon="-1.746019"><ele>296</ele><time>2020-08-05T11:16:56Z</time><name>PT6535</name></trkpt>
<trkpt lat="53.370351" lon="-1.746015"><ele>296</ele><time>2020-08-05T11:16:57Z</time><name>PT6536</name></trkpt>
<trkpt lat="53.370364" lon="-1.746014"><ele>297</ele><time>2020-08-05T11:16:58Z</time><name>PT6537</name></trkpt>
<trkpt lat="53.370375" lon="-1.746016"><ele>297</ele><time>2020-08-05T11:16:59Z</time><name>PT6538</name></trkpt>
<trkpt lat="53.370386" lon="-1.746018"><ele>296</ele><time>2020-08-05T11:17:00Z</time><name>PT6539</name></trkpt>
<trkpt lat="53.370400" lon="-1.746016"><ele>297</ele><time>2020-08-05T11:17:01Z</time><name>PT6540</name></trkpt>
<trkpt lat="53.370409" lon="-1.746013"><ele>297</ele><time>2020-08-05T11:17:02Z</time><name>PT6541</name></trkpt>
<trkpt lat="53.370416" lon="-1.746012"><ele>296</ele><time>2020-08-05T11:17:03Z</time><name>PT6542</name></trkpt>
<trkpt lat="53.370425" lon="-1.746009"><ele>296</ele><time>2020-08-05T11:17:04Z</time><name>PT6543</name></trkpt>
<trkpt lat="53.370436" lon="-1.746009"><ele>295</ele><time>2020-08-05T11:17:05Z</time><name>PT6544</name></trkpt>
<trkpt lat="53.370444" lon="-1.746011"><ele>295</ele><time>2020-08-05T11:17:06Z</time><name>PT6545</name></trkpt>
<trkpt lat="53.370455" lon="-1.746012"><ele>295</ele><time>2020-08-05T11:17:07Z</time><name>PT6546</name></trkpt>
<trkpt lat="53.370468" lon="-1.746014"><ele>296</ele><time>2020-08-05T11:17:08Z</time><name>PT6547</name></trkpt>
<trkpt lat="53.370484" lon="-1.746020"><ele>296</ele><time>2020-08-05T11:17:09Z</time><name>PT6548</name></trkpt>
<trkpt lat="53.370493" lon="-1.746019"><ele>295</ele><time>2020-08-05T11:17:10Z</time><name>PT6549</name></trkpt>
<trkpt lat="53.370499" lon="-1.746019"><ele>296</ele><time>2020-08-05T11:17:11Z</time><name>PT6550</name></trkpt>
<trkpt lat="53.370502" lon="-1.746017"><ele>296</ele><time>2020-08-05T11:17:12Z</time><name>PT6551</name></trkpt>
<trkpt lat="53.370504" lon="-1.746013"><ele>295</ele><time>2020-08-05T11:17:13Z</time><name>PT6552</name></trkpt>
<trkpt lat="53.370505" lon="-1.746017"><ele>295</ele><time>2020-08-05T11:17:16Z</time><name>PT6553</name></trkpt>
<trkpt lat="53.370501" lon="-1.746017"><ele>295</ele><time>2020-08-05T11:17:17Z</time><name>PT6554</name></trkpt>
<trkpt lat="53.370505" lon="-1.746014"><ele>295</ele><time>2020-08-05T11:17:22Z</time><name>PT6555</name></trkpt>
<trkpt lat="53.370517" lon="-1.746020"><ele>295</ele><time>2020-08-05T11:17:23Z</time><name>PT6556</name></trkpt>
<trkpt lat="53.370521" lon="-1.746021"><ele>295</ele><time>2020-08-05T11:17:24Z</time><name>PT6557</name></trkpt>
<trkpt lat="53.370535" lon="-1.746019"><ele>295</ele><time>2020-08-05T11:17:25Z</time><name>PT6558</name></trkpt>
<trkpt lat="53.370551" lon="-1.746011"><ele>295</ele><time>2020-08-05T11:17:26Z</time><name>PT6559</name></trkpt>
<trkpt lat="53.370565" lon="-1.746010"><ele>295</ele><time>2020-08-05T11:17:27Z</time><name>PT6560</name></trkpt>
<trkpt lat="53.370574" lon="-1.746014"><ele>295</ele><time>2020-08-05T11:17:28Z</time><name>PT6561</name></trkpt>
<trkpt lat="53.370586" lon="-1.746015"><ele>295</ele><time>2020-08-05T11:17:29Z</time><name>PT6562</name></trkpt>
<trkpt lat="53.370603" lon="-1.746017"><ele>295</ele><time>2020-08-05T11:17:30Z</time><name>PT6563</name></trkpt>
<trkpt lat="53.370615" lon="-1.746018"><ele>294</ele><time>2020-08-05T11:17:31Z</time><name>PT6564</name></trkpt>
<trkpt lat="53.370628" lon="-1.746018"><ele>295</ele><time>2020-08-05T11:17:32Z</time><name>PT6565</name></trkpt>
<trkpt lat="53.370639" lon="-1.746015"><ele>294</ele><time>2020-08-05T11:17:33Z</time><name>PT6566</name></trkpt>
<trkpt lat="53.370649" lon="-1.746012"><ele>294</ele><time>2020-08-05T11:17:34Z</time><name>PT6567</name></trkpt>
<trkpt lat="53.370665" lon="-1.746011"><ele>294</ele><time>2020-08-05T11:17:35Z</time><name>PT6568</name></trkpt>
<trkpt lat="53.370677" lon="-1.746012"><ele>293</ele><time>2020-08-05T11:17:36Z</time><name>PT6569</name></trkpt>
<trkpt lat="53.370690" lon="-1.746014"><ele>293</ele><time>2020-08-05T11:17:37Z</time><name>PT6570</name></trkpt>
<trkpt lat="53.370702" lon="-1.746014"><ele>293</ele><time>2020-08-05T11:17:38Z</time><name>PT6571</name></trkpt>
<trkpt lat="53.370716" lon="-1.746014"><ele>294</ele><time>2020-08-05T11:17:39Z</time><name>PT6572</name></trkpt>
<trkpt lat="53.370728" lon="-1.746016"><ele>294</ele><time>2020-08-05T11:17:40Z</time><name>PT6573</name></trkpt>
<trkpt lat="53.370740" lon="-1.746013"><ele>294</ele><time>2020-08-05T11:17:41Z</time><name>PT6574</name></trkpt>
<trkpt lat="53.370752" lon="-1.746013"><ele>294</ele><time>2020-08-05T11:17:42Z</time><name>PT6575</name></trkpt>
<trkpt lat="53.370766" lon="-1.746012"><ele>294</ele><time>2020-08-05T11:17:43Z</time><name>PT6576</name></trkpt>
<trkpt lat="53.370779" lon="-1.746013"><ele>294</ele><time>2020-08-05T11:17:44Z</time><name>PT6577</name></trkpt>
<trkpt lat="53.370791" lon="-1.746012"><ele>294</ele><time>2020-08-05T11:17:45Z</time><name>PT6578</name></trkpt>
<trkpt lat="53.370806" lon="-1.746010"><ele>295</ele><time>2020-08-05T11:17:46Z</time><name>PT6579</name></trkpt>
<trkpt lat="53.370818" lon="-1.746014"><ele>294</ele><time>2020-08-05T11:17:47Z</time><name>PT6580</name></trkpt>
<trkpt lat="53.370830" lon="-1.746015"><ele>294</ele><time>2020-08-05T11:17:48Z</time><name>PT6581</name></trkpt>
<trkpt lat="53.370840" lon="-1.746016"><ele>295</ele><time>2020-08-05T11:17:49Z</time><name>PT6582</name></trkpt>
<trkpt lat="53.370852" lon="-1.746016"><ele>294</ele><time>2020-08-05T11:17:50Z</time><name>PT6583</name></trkpt>
<trkpt lat="53.370865" lon="-1.746017"><ele>294</ele><time>2020-08-05T11:17:51Z</time><name>PT6584</name></trkpt>
<trkpt lat="53.370879" lon="-1.746015"><ele>294</ele><time>2020-08-05T11:17:52Z</time><name>PT6585</name></trkpt>
<trkpt lat="53.370891" lon="-1.746015"><ele>294</ele><time>2020-08-05T11:17:53Z</time><name>PT6586</name></trkpt>
<trkpt lat="53.370903" lon="-1.746021"><ele>294</ele><time>2020-08-05T11:17:54Z</time><name>PT6587</name></trkpt>
<trkpt lat="53.370914" lon="-1.746025"><ele>294</ele><time>2020-08-05T11:17:55Z</time><name>PT6588</name></trkpt>
<trkpt lat="53.370929" lon="-1.746033"><ele>294</ele><time>2020-08-05T11:17:56Z</time><name>PT6589</name></trkpt>
<trkpt lat="53.370943" lon="-1.746034"><ele>294</ele><time>2020-08-05T11:17:57Z</time><name>PT6590</name></trkpt>
<trkpt lat="53.370956" lon="-1.746036"><ele>294</ele><time>2020-08-05T11:17:58Z</time><name>PT6591</name></trkpt>
<trkpt lat="53.370971" lon="-1.746038"><ele>294</ele><time>2020-08-05T11:17:59Z</time><name>PT6592</name></trkpt>
<trkpt lat="53.370983" lon="-1.746035"><ele>294</ele><time>2020-08-05T11:18:00Z</time><name>PT6593</name></trkpt>
<trkpt lat="53.370997" lon="-1.746035"><ele>294</ele><time>2020-08-05T11:18:01Z</time><name>PT6594</name></trkpt>
<trkpt lat="53.371009" lon="-1.746034"><ele>294</ele><time>2020-08-05T11:18:02Z</time><name>PT6595</name></trkpt>
<trkpt lat="53.371021" lon="-1.746035"><ele>294</ele><time>2020-08-05T11:18:03Z</time><name>PT6596</name></trkpt>
<trkpt lat="53.371037" lon="-1.746033"><ele>294</ele><time>2020-08-05T11:18:04Z</time><name>PT6597</name></trkpt>
<trkpt lat="53.371052" lon="-1.746033"><ele>294</ele><time>2020-08-05T11:18:05Z</time><name>PT6598</name></trkpt>
<trkpt lat="53.371071" lon="-1.746029"><ele>295</ele><time>2020-08-05T11:18:06Z</time><name>PT6599</name></trkpt>
<trkpt lat="53.371086" lon="-1.746030"><ele>296</ele><time>2020-08-05T11:18:07Z</time><name>PT6600</name></trkpt>
<trkpt lat="53.371099" lon="-1.746033"><ele>296</ele><time>2020-08-05T11:18:08Z</time><name>PT6601</name></trkpt>
<trkpt lat="53.371110" lon="-1.746036"><ele>296</ele><time>2020-08-05T11:18:09Z</time><name>PT6602</name></trkpt>
<trkpt lat="53.371124" lon="-1.746035"><ele>295</ele><time>2020-08-05T11:18:10Z</time><name>PT6603</name></trkpt>
<trkpt lat="53.371136" lon="-1.746034"><ele>295</ele><time>2020-08-05T11:18:11Z</time><name>PT6604</name></trkpt>
<trkpt lat="53.371147" lon="-1.746034"><ele>295</ele><time>2020-08-05T11:18:12Z</time><name>PT6605</name></trkpt>
<trkpt lat="53.371161" lon="-1.746038"><ele>295</ele><time>2020-08-05T11:18:13Z</time><name>PT6606</name></trkpt>
<trkpt lat="53.371175" lon="-1.746042"><ele>295</ele><time>2020-08-05T11:18:14Z</time><name>PT6607</name></trkpt>
<trkpt lat="53.371187" lon="-1.746044"><ele>295</ele><time>2020-08-05T11:18:15Z</time><name>PT6608</name></trkpt>
<trkpt lat="53.371200" lon="-1.746046"><ele>295</ele><time>2020-08-05T11:18:16Z</time><name>PT6609</name></trkpt>
<trkpt lat="53.371214" lon="-1.746047"><ele>294</ele><time>2020-08-05T11:18:17Z</time><name>PT6610</name></trkpt>
<trkpt lat="53.371225" lon="-1.746047"><ele>294</ele><time>2020-08-05T11:18:18Z</time><name>PT6611</name></trkpt>
<trkpt lat="53.371235" lon="-1.746050"><ele>294</ele><time>2020-08-05T11:18:19Z</time><name>PT6612</name></trkpt>
<trkpt lat="53.371250" lon="-1.746050"><ele>295</ele><time>2020-08-05T11:18:20Z</time><name>PT6613</name></trkpt>
<trkpt lat="53.371261" lon="-1.746049"><ele>295</ele><time>2020-08-05T11:18:21Z</time><name>PT6614</name></trkpt>
<trkpt lat="53.371270" lon="-1.746054"><ele>295</ele><time>2020-08-05T11:18:22Z</time><name>PT6615</name></trkpt>
<trkpt lat="53.371283" lon="-1.746058"><ele>295</ele><time>2020-08-05T11:18:23Z</time><name>PT6616</name></trkpt>
<trkpt lat="53.371295" lon="-1.746064"><ele>296</ele><time>2020-08-05T11:18:24Z</time><name>PT6617</name></trkpt>
<trkpt lat="53.371304" lon="-1.746074"><ele>296</ele><time>2020-08-05T11:18:25Z</time><name>PT6618</name></trkpt>
<trkpt lat="53.371315" lon="-1.746086"><ele>296</ele><time>2020-08-05T11:18:26Z</time><name>PT6619</name></trkpt>
<trkpt lat="53.371325" lon="-1.746105"><ele>295</ele><time>2020-08-05T11:18:27Z</time><name>PT6620</name></trkpt>
<trkpt lat="53.371336" lon="-1.746113"><ele>295</ele><time>2020-08-05T11:18:28Z</time><name>PT6621</name></trkpt>
<trkpt lat="53.371351" lon="-1.746119"><ele>295</ele><time>2020-08-05T11:18:29Z</time><name>PT6622</name></trkpt>
<trkpt lat="53.371359" lon="-1.746129"><ele>295</ele><time>2020-08-05T11:18:30Z</time><name>PT6623</name></trkpt>
<trkpt lat="53.371369" lon="-1.746140"><ele>295</ele><time>2020-08-05T11:18:31Z</time><name>PT6624</name></trkpt>
<trkpt lat="53.371378" lon="-1.746151"><ele>295</ele><time>2020-08-05T11:18:32Z</time><name>PT6625</name></trkpt>
<trkpt lat="53.371389" lon="-1.746165"><ele>295</ele><time>2020-08-05T11:18:33Z</time><name>PT6626</name></trkpt>
<trkpt lat="53.371400" lon="-1.746177"><ele>294</ele><time>2020-08-05T11:18:34Z</time><name>PT6627</name></trkpt>
<trkpt lat="53.371410" lon="-1.746186"><ele>294</ele><time>2020-08-05T11:18:35Z</time><name>PT6628</name></trkpt>
<trkpt lat="53.371418" lon="-1.746197"><ele>294</ele><time>2020-08-05T11:18:36Z</time><name>PT6629</name></trkpt>
<trkpt lat="53.371428" lon="-1.746207"><ele>294</ele><time>2020-08-05T11:18:37Z</time><name>PT6630</name></trkpt>
<trkpt lat="53.371438" lon="-1.746217"><ele>294</ele><time>2020-08-05T11:18:38Z</time><name>PT6631</name></trkpt>
<trkpt lat="53.371449" lon="-1.746233"><ele>294</ele><time>2020-08-05T11:18:39Z</time><name>PT6632</name></trkpt>
<trkpt lat="53.371455" lon="-1.746251"><ele>294</ele><time>2020-08-05T11:18:40Z</time><name>PT6633</name></trkpt>
<trkpt lat="53.371464" lon="-1.746267"><ele>293</ele><time>2020-08-05T11:18:41Z</time><name>PT6634</name></trkpt>
<trkpt lat="53.371473" lon="-1.746279"><ele>293</ele><time>2020-08-05T11:18:42Z</time><name>PT6635</name></trkpt>
<trkpt lat="53.371481" lon="-1.746294"><ele>293</ele><time>2020-08-05T11:18:43Z</time><name>PT6636</name></trkpt>
<trkpt lat="53.371490" lon="-1.746304"><ele>293</ele><time>2020-08-05T11:18:44Z</time><name>PT6637</name></trkpt>
<trkpt lat="53.371498" lon="-1.746314"><ele>293</ele><time>2020-08-05T11:18:45Z</time><name>PT6638</name></trkpt>
<trkpt lat="53.371504" lon="-1.746330"><ele>293</ele><time>2020-08-05T11:18:46Z</time><name>PT6639</name></trkpt>
<trkpt lat="53.371511" lon="-1.746346"><ele>293</ele><time>2020-08-05T11:18:47Z</time><name>PT6640</name></trkpt>
<trkpt lat="53.371519" lon="-1.746363"><ele>292</ele><time>2020-08-05T11:18:48Z</time><name>PT6641</name></trkpt>
<trkpt lat="53.371528" lon="-1.746378"><ele>292</ele><time>2020-08-05T11:18:49Z</time><name>PT6642</name></trkpt>
<trkpt lat="53.371536" lon="-1.746392"><ele>292</ele><time>2020-08-05T11:18:50Z</time><name>PT6643</name></trkpt>
<trkpt lat="53.371545" lon="-1.746405"><ele>292</ele><time>2020-08-05T11:18:51Z</time><name>PT6644</name></trkpt>
<trkpt lat="53.371555" lon="-1.746407"><ele>292</ele><time>2020-08-05T11:18:52Z</time><name>PT6645</name></trkpt>
<trkpt lat="53.371564" lon="-1.746420"><ele>292</ele><time>2020-08-05T11:18:53Z</time><name>PT6646</name></trkpt>
<trkpt lat="53.371572" lon="-1.746435"><ele>292</ele><time>2020-08-05T11:18:54Z</time><name>PT6647</name></trkpt>
<trkpt lat="53.371581" lon="-1.746449"><ele>292</ele><time>2020-08-05T11:18:55Z</time><name>PT6648</name></trkpt>
<trkpt lat="53.371590" lon="-1.746458"><ele>292</ele><time>2020-08-05T11:18:56Z</time><name>PT6649</name></trkpt>
<trkpt lat="53.371596" lon="-1.746481"><ele>292</ele><time>2020-08-05T11:18:57Z</time><name>PT6650</name></trkpt>
<trkpt lat="53.371605" lon="-1.746494"><ele>291</ele><time>2020-08-05T11:18:58Z</time><name>PT6651</name></trkpt>
<trkpt lat="53.371613" lon="-1.746500"><ele>291</ele><time>2020-08-05T11:18:59Z</time><name>PT6652</name></trkpt>
<trkpt lat="53.371626" lon="-1.746505"><ele>291</ele><time>2020-08-05T11:19:00Z</time><name>PT6653</name></trkpt>
<trkpt lat="53.371637" lon="-1.746514"><ele>290</ele><time>2020-08-05T11:19:01Z</time><name>PT6654</name></trkpt>
<trkpt lat="53.371644" lon="-1.746522"><ele>290</ele><time>2020-08-05T11:19:02Z</time><name>PT6655</name></trkpt>
<trkpt lat="53.371645" lon="-1.746530"><ele>290</ele><time>2020-08-05T11:19:03Z</time><name>PT6656</name></trkpt>
<trkpt lat="53.371649" lon="-1.746544"><ele>290</ele><time>2020-08-05T11:19:04Z</time><name>PT6657</name></trkpt>
<trkpt lat="53.371658" lon="-1.746555"><ele>290</ele><time>2020-08-05T11:19:05Z</time><name>PT6658</name></trkpt>
<trkpt lat="53.371665" lon="-1.746561"><ele>290</ele><time>2020-08-05T11:19:06Z</time><name>PT6659</name></trkpt>
<trkpt lat="53.371667" lon="-1.746569"><ele>290</ele><time>2020-08-05T11:19:07Z</time><name>PT6660</name></trkpt>
<trkpt lat="53.371671" lon="-1.746578"><ele>290</ele><time>2020-08-05T11:19:08Z</time><name>PT6661</name></trkpt>
<trkpt lat="53.371677" lon="-1.746586"><ele>291</ele><time>2020-08-05T11:19:09Z</time><name>PT6662</name></trkpt>
<trkpt lat="53.371689" lon="-1.746598"><ele>291</ele><time>2020-08-05T11:19:10Z</time><name>PT6663</name></trkpt>
<trkpt lat="53.371700" lon="-1.746619"><ele>291</ele><time>2020-08-05T11:19:11Z</time><name>PT6664</name></trkpt>
<trkpt lat="53.371710" lon="-1.746634"><ele>291</ele><time>2020-08-05T11:19:12Z</time><name>PT6665</name></trkpt>
<trkpt lat="53.371720" lon="-1.746644"><ele>291</ele><time>2020-08-05T11:19:13Z</time><name>PT6666</name></trkpt>
<trkpt lat="53.371730" lon="-1.746655"><ele>292</ele><time>2020-08-05T11:19:14Z</time><name>PT6667</name></trkpt>
<trkpt lat="53.371743" lon="-1.746671"><ele>292</ele><time>2020-08-05T11:19:15Z</time><name>PT6668</name></trkpt>
<trkpt lat="53.371753" lon="-1.746684"><ele>292</ele><time>2020-08-05T11:19:16Z</time><name>PT6669</name></trkpt>
<trkpt lat="53.371764" lon="-1.746696"><ele>292</ele><time>2020-08-05T11:19:17Z</time><name>PT6670</name></trkpt>
<trkpt lat="53.371772" lon="-1.746713"><ele>292</ele><time>2020-08-05T11:19:18Z</time><name>PT6671</name></trkpt>
<trkpt lat="53.371783" lon="-1.746725"><ele>293</ele><time>2020-08-05T11:19:19Z</time><name>PT6672</name></trkpt>
<trkpt lat="53.371792" lon="-1.746738"><ele>293</ele><time>2020-08-05T11:19:20Z</time><name>PT6673</name></trkpt>
<trkpt lat="53.371802" lon="-1.746755"><ele>293</ele><time>2020-08-05T11:19:21Z</time><name>PT6674</name></trkpt>
<trkpt lat="53.371812" lon="-1.746766"><ele>293</ele><time>2020-08-05T11:19:22Z</time><name>PT6675</name></trkpt>
<trkpt lat="53.371821" lon="-1.746775"><ele>293</ele><time>2020-08-05T11:19:23Z</time><name>PT6676</name></trkpt>
<trkpt lat="53.371836" lon="-1.746781"><ele>293</ele><time>2020-08-05T11:19:24Z</time><name>PT6677</name></trkpt>
<trkpt lat="53.371848" lon="-1.746787"><ele>294</ele><time>2020-08-05T11:19:25Z</time><name>PT6678</name></trkpt>
<trkpt lat="53.371856" lon="-1.746803"><ele>294</ele><time>2020-08-05T11:19:26Z</time><name>PT6679</name></trkpt>
<trkpt lat="53.371869" lon="-1.746814"><ele>294</ele><time>2020-08-05T11:19:27Z</time><name>PT6680</name></trkpt>
<trkpt lat="53.371876" lon="-1.746824"><ele>293</ele><time>2020-08-05T11:19:28Z</time><name>PT6681</name></trkpt>
<trkpt lat="53.371884" lon="-1.746838"><ele>294</ele><time>2020-08-05T11:19:29Z</time><name>PT6682</name></trkpt>
<trkpt lat="53.371895" lon="-1.746848"><ele>294</ele><time>2020-08-05T11:19:30Z</time><name>PT6683</name></trkpt>
<trkpt lat="53.371905" lon="-1.746862"><ele>294</ele><time>2020-08-05T11:19:31Z</time><name>PT6684</name></trkpt>
<trkpt lat="53.371914" lon="-1.746874"><ele>294</ele><time>2020-08-05T11:19:32Z</time><name>PT6685</name></trkpt>
<trkpt lat="53.371922" lon="-1.746886"><ele>294</ele><time>2020-08-05T11:19:33Z</time><name>PT6686</name></trkpt>
<trkpt lat="53.371931" lon="-1.746898"><ele>294</ele><time>2020-08-05T11:19:34Z</time><name>PT6687</name></trkpt>
<trkpt lat="53.371939" lon="-1.746908"><ele>294</ele><time>2020-08-05T11:19:35Z</time><name>PT6688</name></trkpt>
<trkpt lat="53.371948" lon="-1.746917"><ele>293</ele><time>2020-08-05T11:19:36Z</time><name>PT6689</name></trkpt>
<trkpt lat="53.371958" lon="-1.746928"><ele>294</ele><time>2020-08-05T11:19:37Z</time><name>PT6690</name></trkpt>
<trkpt lat="53.371970" lon="-1.746941"><ele>294</ele><time>2020-08-05T11:19:38Z</time><name>PT6691</name></trkpt>
<trkpt lat="53.371979" lon="-1.746951"><ele>294</ele><time>2020-08-05T11:19:39Z</time><name>PT6692</name></trkpt>
<trkpt lat="53.371988" lon="-1.746968"><ele>294</ele><time>2020-08-05T11:19:40Z</time><name>PT6693</name></trkpt>
<trkpt lat="53.372000" lon="-1.746976"><ele>294</ele><time>2020-08-05T11:19:41Z</time><name>PT6694</name></trkpt>
<trkpt lat="53.372012" lon="-1.746986"><ele>294</ele><time>2020-08-05T11:19:42Z</time><name>PT6695</name></trkpt>
<trkpt lat="53.372023" lon="-1.746995"><ele>294</ele><time>2020-08-05T11:19:43Z</time><name>PT6696</name></trkpt>
<trkpt lat="53.372033" lon="-1.747002"><ele>294</ele><time>2020-08-05T11:19:44Z</time><name>PT6697</name></trkpt>
<trkpt lat="53.372043" lon="-1.747011"><ele>294</ele><time>2020-08-05T11:19:45Z</time><name>PT6698</name></trkpt>
<trkpt lat="53.372054" lon="-1.747021"><ele>293</ele><time>2020-08-05T11:19:46Z</time><name>PT6699</name></trkpt>
<trkpt lat="53.372064" lon="-1.747030"><ele>293</ele><time>2020-08-05T11:19:47Z</time><name>PT6700</name></trkpt>
<trkpt lat="53.372076" lon="-1.747039"><ele>294</ele><time>2020-08-05T11:19:48Z</time><name>PT6701</name></trkpt>
<trkpt lat="53.372089" lon="-1.747044"><ele>294</ele><time>2020-08-05T11:19:49Z</time><name>PT6702</name></trkpt>
<trkpt lat="53.372101" lon="-1.747049"><ele>294</ele><time>2020-08-05T11:19:50Z</time><name>PT6703</name></trkpt>
<trkpt lat="53.372110" lon="-1.747056"><ele>294</ele><time>2020-08-05T11:19:51Z</time><name>PT6704</name></trkpt>
<trkpt lat="53.372122" lon="-1.747065"><ele>293</ele><time>2020-08-05T11:19:52Z</time><name>PT6705</name></trkpt>
<trkpt lat="53.372134" lon="-1.747072"><ele>293</ele><time>2020-08-05T11:19:53Z</time><name>PT6706</name></trkpt>
<trkpt lat="53.372146" lon="-1.747079"><ele>293</ele><time>2020-08-05T11:19:54Z</time><name>PT6707</name></trkpt>
<trkpt lat="53.372158" lon="-1.747088"><ele>293</ele><time>2020-08-05T11:19:55Z</time><name>PT6708</name></trkpt>
<trkpt lat="53.372168" lon="-1.747096"><ele>292</ele><time>2020-08-05T11:19:56Z</time><name>PT6709</name></trkpt>
<trkpt lat="53.372180" lon="-1.747105"><ele>293</ele><time>2020-08-05T11:19:57Z</time><name>PT6710</name></trkpt>
<trkpt lat="53.372193" lon="-1.747115"><ele>293</ele><time>2020-08-05T11:19:58Z</time><name>PT6711</name></trkpt>
<trkpt lat="53.372207" lon="-1.747124"><ele>293</ele><time>2020-08-05T11:19:59Z</time><name>PT6712</name></trkpt>
<trkpt lat="53.372220" lon="-1.747129"><ele>293</ele><time>2020-08-05T11:20:00Z</time><name>PT6713</name></trkpt>
<trkpt lat="53.372229" lon="-1.747139"><ele>293</ele><time>2020-08-05T11:20:01Z</time><name>PT6714</name></trkpt>
<trkpt lat="53.372240" lon="-1.747147"><ele>293</ele><time>2020-08-05T11:20:02Z</time><name>PT6715</name></trkpt>
<trkpt lat="53.372250" lon="-1.747153"><ele>293</ele><time>2020-08-05T11:20:03Z</time><name>PT6716</name></trkpt>
<trkpt lat="53.372264" lon="-1.747162"><ele>293</ele><time>2020-08-05T11:20:04Z</time><name>PT6717</name></trkpt>
<trkpt lat="53.372275" lon="-1.747172"><ele>293</ele><time>2020-08-05T11:20:05Z</time><name>PT6718</name></trkpt>
<trkpt lat="53.372286" lon="-1.747182"><ele>293</ele><time>2020-08-05T11:20:06Z</time><name>PT6719</name></trkpt>
<trkpt lat="53.372298" lon="-1.747187"><ele>293</ele><time>2020-08-05T11:20:07Z</time><name>PT6720</name></trkpt>
<trkpt lat="53.372310" lon="-1.747191"><ele>293</ele><time>2020-08-05T11:20:08Z</time><name>PT6721</name></trkpt>
<trkpt lat="53.372319" lon="-1.747199"><ele>292</ele><time>2020-08-05T11:20:09Z</time><name>PT6722</name></trkpt>
<trkpt lat="53.372331" lon="-1.747206"><ele>293</ele><time>2020-08-05T11:20:10Z</time><name>PT6723</name></trkpt>
<trkpt lat="53.372341" lon="-1.747217"><ele>293</ele><time>2020-08-05T11:20:11Z</time><name>PT6724</name></trkpt>
<trkpt lat="53.372351" lon="-1.747223"><ele>293</ele><time>2020-08-05T11:20:12Z</time><name>PT6725</name></trkpt>
<trkpt lat="53.372363" lon="-1.747226"><ele>293</ele><time>2020-08-05T11:20:13Z</time><name>PT6726</name></trkpt>
<trkpt lat="53.372376" lon="-1.747232"><ele>293</ele><time>2020-08-05T11:20:14Z</time><name>PT6727</name></trkpt>
<trkpt lat="53.372389" lon="-1.747237"><ele>293</ele><time>2020-08-05T11:20:15Z</time><name>PT6728</name></trkpt>
<trkpt lat="53.372400" lon="-1.747244"><ele>293</ele><time>2020-08-05T11:20:16Z</time><name>PT6729</name></trkpt>
<trkpt lat="53.372410" lon="-1.747254"><ele>293</ele><time>2020-08-05T11:20:17Z</time><name>PT6730</name></trkpt>
<trkpt lat="53.372424" lon="-1.747259"><ele>293</ele><time>2020-08-05T11:20:18Z</time><name>PT6731</name></trkpt>
<trkpt lat="53.372435" lon="-1.747269"><ele>293</ele><time>2020-08-05T11:20:19Z</time><name>PT6732</name></trkpt>
<trkpt lat="53.372450" lon="-1.747273"><ele>294</ele><time>2020-08-05T11:20:20Z</time><name>PT6733</name></trkpt>
<trkpt lat="53.372461" lon="-1.747281"><ele>294</ele><time>2020-08-05T11:20:21Z</time><name>PT6734</name></trkpt>
<trkpt lat="53.372471" lon="-1.747287"><ele>294</ele><time>2020-08-05T11:20:22Z</time><name>PT6735</name></trkpt>
<trkpt lat="53.372481" lon="-1.747295"><ele>294</ele><time>2020-08-05T11:20:23Z</time><name>PT6736</name></trkpt>
<trkpt lat="53.372495" lon="-1.747306"><ele>294</ele><time>2020-08-05T11:20:24Z</time><name>PT6737</name></trkpt>
<trkpt lat="53.372507" lon="-1.747315"><ele>294</ele><time>2020-08-05T11:20:25Z</time><name>PT6738</name></trkpt>
<trkpt lat="53.372518" lon="-1.747323"><ele>293</ele><time>2020-08-05T11:20:26Z</time><name>PT6739</name></trkpt>
<trkpt lat="53.372530" lon="-1.747330"><ele>294</ele><time>2020-08-05T11:20:27Z</time><name>PT6740</name></trkpt>
<trkpt lat="53.372538" lon="-1.747336"><ele>293</ele><time>2020-08-05T11:20:28Z</time><name>PT6741</name></trkpt>
<trkpt lat="53.372549" lon="-1.747342"><ele>293</ele><time>2020-08-05T11:20:29Z</time><name>PT6742</name></trkpt>
<trkpt lat="53.372561" lon="-1.747352"><ele>294</ele><time>2020-08-05T11:20:30Z</time><name>PT6743</name></trkpt>
<trkpt lat="53.372570" lon="-1.747361"><ele>293</ele><time>2020-08-05T11:20:31Z</time><name>PT6744</name></trkpt>
<trkpt lat="53.372579" lon="-1.747367"><ele>293</ele><time>2020-08-05T11:20:32Z</time><name>PT6745</name></trkpt>
<trkpt lat="53.372590" lon="-1.747375"><ele>293</ele><time>2020-08-05T11:20:33Z</time><name>PT6746</name></trkpt>
<trkpt lat="53.372599" lon="-1.747382"><ele>292</ele><time>2020-08-05T11:20:34Z</time><name>PT6747</name></trkpt>
<trkpt lat="53.372609" lon="-1.747388"><ele>292</ele><time>2020-08-05T11:20:35Z</time><name>PT6748</name></trkpt>
<trkpt lat="53.372621" lon="-1.747398"><ele>292</ele><time>2020-08-05T11:20:36Z</time><name>PT6749</name></trkpt>
<trkpt lat="53.372631" lon="-1.747410"><ele>292</ele><time>2020-08-05T11:20:37Z</time><name>PT6750</name></trkpt>
<trkpt lat="53.372641" lon="-1.747424"><ele>292</ele><time>2020-08-05T11:20:38Z</time><name>PT6751</name></trkpt>
<trkpt lat="53.372655" lon="-1.747434"><ele>291</ele><time>2020-08-05T11:20:39Z</time><name>PT6752</name></trkpt>
<trkpt lat="53.372664" lon="-1.747447"><ele>291</ele><time>2020-08-05T11:20:40Z</time><name>PT6753</name></trkpt>
<trkpt lat="53.372676" lon="-1.747461"><ele>291</ele><time>2020-08-05T11:20:41Z</time><name>PT6754</name></trkpt>
<trkpt lat="53.372685" lon="-1.747475"><ele>291</ele><time>2020-08-05T11:20:42Z</time><name>PT6755</name></trkpt>
<trkpt lat="53.372696" lon="-1.747488"><ele>291</ele><time>2020-08-05T11:20:43Z</time><name>PT6756</name></trkpt>
<trkpt lat="53.372708" lon="-1.747504"><ele>291</ele><time>2020-08-05T11:20:44Z</time><name>PT6757</name></trkpt>
<trkpt lat="53.372717" lon="-1.747515"><ele>291</ele><time>2020-08-05T11:20:45Z</time><name>PT6758</name></trkpt>
<trkpt lat="53.372727" lon="-1.747524"><ele>291</ele><time>2020-08-05T11:20:46Z</time><name>PT6759</name></trkpt>
<trkpt lat="53.372739" lon="-1.747538"><ele>291</ele><time>2020-08-05T11:20:47Z</time><name>PT6760</name></trkpt>
<trkpt lat="53.372750" lon="-1.747559"><ele>291</ele><time>2020-08-05T11:20:48Z</time><name>PT6761</name></trkpt>
<trkpt lat="53.372761" lon="-1.747567"><ele>291</ele><time>2020-08-05T11:20:49Z</time><name>PT6762</name></trkpt>
<trkpt lat="53.372770" lon="-1.747577"><ele>292</ele><time>2020-08-05T11:20:50Z</time><name>PT6763</name></trkpt>
<trkpt lat="53.372781" lon="-1.747590"><ele>291</ele><time>2020-08-05T11:20:51Z</time><name>PT6764</name></trkpt>
<trkpt lat="53.372793" lon="-1.747603"><ele>291</ele><time>2020-08-05T11:20:52Z</time><name>PT6765</name></trkpt>
<trkpt lat="53.372803" lon="-1.747615"><ele>291</ele><time>2020-08-05T11:20:53Z</time><name>PT6766</name></trkpt>
<trkpt lat="53.372813" lon="-1.747625"><ele>291</ele><time>2020-08-05T11:20:54Z</time><name>PT6767</name></trkpt>
<trkpt lat="53.372822" lon="-1.747640"><ele>291</ele><time>2020-08-05T11:20:55Z</time><name>PT6768</name></trkpt>
<trkpt lat="53.372833" lon="-1.747653"><ele>291</ele><time>2020-08-05T11:20:56Z</time><name>PT6769</name></trkpt>
<trkpt lat="53.372842" lon="-1.747665"><ele>291</ele><time>2020-08-05T11:20:57Z</time><name>PT6770</name></trkpt>
<trkpt lat="53.372851" lon="-1.747679"><ele>291</ele><time>2020-08-05T11:20:58Z</time><name>PT6771</name></trkpt>
<trkpt lat="53.372860" lon="-1.747689"><ele>290</ele><time>2020-08-05T11:20:59Z</time><name>PT6772</name></trkpt>
<trkpt lat="53.372870" lon="-1.747700"><ele>290</ele><time>2020-08-05T11:21:00Z</time><name>PT6773</name></trkpt>
<trkpt lat="53.372880" lon="-1.747709"><ele>290</ele><time>2020-08-05T11:21:01Z</time><name>PT6774</name></trkpt>
<trkpt lat="53.372891" lon="-1.747716"><ele>290</ele><time>2020-08-05T11:21:02Z</time><name>PT6775</name></trkpt>
<trkpt lat="53.372902" lon="-1.747727"><ele>290</ele><time>2020-08-05T11:21:03Z</time><name>PT6776</name></trkpt>
<trkpt lat="53.372913" lon="-1.747738"><ele>291</ele><time>2020-08-05T11:21:04Z</time><name>PT6777</name></trkpt>
<trkpt lat="53.372924" lon="-1.747749"><ele>291</ele><time>2020-08-05T11:21:05Z</time><name>PT6778</name></trkpt>
<trkpt lat="53.372933" lon="-1.747761"><ele>291</ele><time>2020-08-05T11:21:06Z</time><name>PT6779</name></trkpt>
<trkpt lat="53.372945" lon="-1.747771"><ele>290</ele><time>2020-08-05T11:21:07Z</time><name>PT6780</name></trkpt>
<trkpt lat="53.372956" lon="-1.747783"><ele>290</ele><time>2020-08-05T11:21:08Z</time><name>PT6781</name></trkpt>
<trkpt lat="53.372966" lon="-1.747794"><ele>290</ele><time>2020-08-05T11:21:09Z</time><name>PT6782</name></trkpt>
<trkpt lat="53.372976" lon="-1.747807"><ele>290</ele><time>2020-08-05T11:21:10Z</time><name>PT6783</name></trkpt>
<trkpt lat="53.372990" lon="-1.747817"><ele>290</ele><time>2020-08-05T11:21:11Z</time><name>PT6784</name></trkpt>
<trkpt lat="53.373005" lon="-1.747827"><ele>290</ele><time>2020-08-05T11:21:12Z</time><name>PT6785</name></trkpt>
<trkpt lat="53.373017" lon="-1.747834"><ele>291</ele><time>2020-08-05T11:21:13Z</time><name>PT6786</name></trkpt>
<trkpt lat="53.373027" lon="-1.747844"><ele>291</ele><time>2020-08-05T11:21:14Z</time><name>PT6787</name></trkpt>
<trkpt lat="53.373037" lon="-1.747853"><ele>291</ele><time>2020-08-05T11:21:15Z</time><name>PT6788</name></trkpt>
<trkpt lat="53.373047" lon="-1.747867"><ele>292</ele><time>2020-08-05T11:21:16Z</time><name>PT6789</name></trkpt>
<trkpt lat="53.373057" lon="-1.747879"><ele>292</ele><time>2020-08-05T11:21:17Z</time><name>PT6790</name></trkpt>
<trkpt lat="53.373068" lon="-1.747885"><ele>292</ele><time>2020-08-05T11:21:18Z</time><name>PT6791</name></trkpt>
<trkpt lat="53.373079" lon="-1.747897"><ele>292</ele><time>2020-08-05T11:21:19Z</time><name>PT6792</name></trkpt>
<trkpt lat="53.373090" lon="-1.747908"><ele>292</ele><time>2020-08-05T11:21:20Z</time><name>PT6793</name></trkpt>
<trkpt lat="53.373102" lon="-1.747921"><ele>291</ele><time>2020-08-05T11:21:21Z</time><name>PT6794</name></trkpt>
<trkpt lat="53.373115" lon="-1.747932"><ele>291</ele><time>2020-08-05T11:21:22Z</time><name>PT6795</name></trkpt>
<trkpt lat="53.373124" lon="-1.747945"><ele>291</ele><time>2020-08-05T11:21:23Z</time><name>PT6796</name></trkpt>
<trkpt lat="53.373135" lon="-1.747963"><ele>291</ele><time>2020-08-05T11:21:24Z</time><name>PT6797</name></trkpt>
<trkpt lat="53.373144" lon="-1.747973"><ele>291</ele><time>2020-08-05T11:21:25Z</time><name>PT6798</name></trkpt>
<trkpt lat="53.373154" lon="-1.747984"><ele>291</ele><time>2020-08-05T11:21:26Z</time><name>PT6799</name></trkpt>
<trkpt lat="53.373167" lon="-1.747997"><ele>291</ele><time>2020-08-05T11:21:27Z</time><name>PT6800</name></trkpt>
<trkpt lat="53.373176" lon="-1.748010"><ele>291</ele><time>2020-08-05T11:21:28Z</time><name>PT6801</name></trkpt>
<trkpt lat="53.373186" lon="-1.748024"><ele>291</ele><time>2020-08-05T11:21:29Z</time><name>PT6802</name></trkpt>
<trkpt lat="53.373194" lon="-1.748038"><ele>290</ele><time>2020-08-05T11:21:30Z</time><name>PT6803</name></trkpt>
<trkpt lat="53.373203" lon="-1.748049"><ele>290</ele><time>2020-08-05T11:21:31Z</time><name>PT6804</name></trkpt>
<trkpt lat="53.373211" lon="-1.748063"><ele>290</ele><time>2020-08-05T11:21:32Z</time><name>PT6805</name></trkpt>
<trkpt lat="53.373221" lon="-1.748076"><ele>290</ele><time>2020-08-05T11:21:33Z</time><name>PT6806</name></trkpt>
<trkpt lat="53.373231" lon="-1.748088"><ele>290</ele><time>2020-08-05T11:21:34Z</time><name>PT6807</name></trkpt>
<trkpt lat="53.373242" lon="-1.748102"><ele>290</ele><time>2020-08-05T11:21:35Z</time><name>PT6808</name></trkpt>
<trkpt lat="53.373252" lon="-1.748116"><ele>290</ele><time>2020-08-05T11:21:36Z</time><name>PT6809</name></trkpt>
<trkpt lat="53.373262" lon="-1.748130"><ele>290</ele><time>2020-08-05T11:21:37Z</time><name>PT6810</name></trkpt>
<trkpt lat="53.373272" lon="-1.748142"><ele>290</ele><time>2020-08-05T11:21:38Z</time><name>PT6811</name></trkpt>
<trkpt lat="53.373284" lon="-1.748149"><ele>290</ele><time>2020-08-05T11:21:39Z</time><name>PT6812</name></trkpt>
<trkpt lat="53.373295" lon="-1.748157"><ele>290</ele><time>2020-08-05T11:21:40Z</time><name>PT6813</name></trkpt>
<trkpt lat="53.373305" lon="-1.748169"><ele>290</ele><time>2020-08-05T11:21:41Z</time><name>PT6814</name></trkpt>
<trkpt lat="53.373315" lon="-1.748187"><ele>290</ele><time>2020-08-05T11:21:42Z</time><name>PT6815</name></trkpt>
<trkpt lat="53.373324" lon="-1.748206"><ele>290</ele><time>2020-08-05T11:21:43Z</time><name>PT6816</name></trkpt>
<trkpt lat="53.373336" lon="-1.748220"><ele>290</ele><time>2020-08-05T11:21:44Z</time><name>PT6817</name></trkpt>
<trkpt lat="53.373348" lon="-1.748232"><ele>290</ele><time>2020-08-05T11:21:45Z</time><name>PT6818</name></trkpt>
<trkpt lat="53.373359" lon="-1.748243"><ele>290</ele><time>2020-08-05T11:21:46Z</time><name>PT6819</name></trkpt>
<trkpt lat="53.373368" lon="-1.748255"><ele>290</ele><time>2020-08-05T11:21:47Z</time><name>PT6820</name></trkpt>
<trkpt lat="53.373377" lon="-1.748269"><ele>290</ele><time>2020-08-05T11:21:48Z</time><name>PT6821</name></trkpt>
<trkpt lat="53.373384" lon="-1.748283"><ele>290</ele><time>2020-08-05T11:21:49Z</time><name>PT6822</name></trkpt>
<trkpt lat="53.373395" lon="-1.748295"><ele>290</ele><time>2020-08-05T11:21:50Z</time><name>PT6823</name></trkpt>
<trkpt lat="53.373405" lon="-1.748305"><ele>290</ele><time>2020-08-05T11:21:51Z</time><name>PT6824</name></trkpt>
<trkpt lat="53.373415" lon="-1.748319"><ele>289</ele><time>2020-08-05T11:21:52Z</time><name>PT6825</name></trkpt>
<trkpt lat="53.373426" lon="-1.748332"><ele>289</ele><time>2020-08-05T11:21:53Z</time><name>PT6826</name></trkpt>
<trkpt lat="53.373436" lon="-1.748341"><ele>289</ele><time>2020-08-05T11:21:54Z</time><name>PT6827</name></trkpt>
<trkpt lat="53.373445" lon="-1.748355"><ele>289</ele><time>2020-08-05T11:21:55Z</time><name>PT6828</name></trkpt>
<trkpt lat="53.373455" lon="-1.748369"><ele>289</ele><time>2020-08-05T11:21:56Z</time><name>PT6829</name></trkpt>
<trkpt lat="53.373465" lon="-1.748379"><ele>289</ele><time>2020-08-05T11:21:57Z</time><name>PT6830</name></trkpt>
<trkpt lat="53.373473" lon="-1.748385"><ele>288</ele><time>2020-08-05T11:21:58Z</time><name>PT6831</name></trkpt>
<trkpt lat="53.373483" lon="-1.748395"><ele>288</ele><time>2020-08-05T11:21:59Z</time><name>PT6832</name></trkpt>
<trkpt lat="53.373492" lon="-1.748408"><ele>288</ele><time>2020-08-05T11:22:00Z</time><name>PT6833</name></trkpt>
<trkpt lat="53.373502" lon="-1.748422"><ele>288</ele><time>2020-08-05T11:22:01Z</time><name>PT6834</name></trkpt>
<trkpt lat="53.373512" lon="-1.748433"><ele>288</ele><time>2020-08-05T11:22:02Z</time><name>PT6835</name></trkpt>
<trkpt lat="53.373522" lon="-1.748448"><ele>288</ele><time>2020-08-05T11:22:03Z</time><name>PT6836</name></trkpt>
<trkpt lat="53.373533" lon="-1.748460"><ele>288</ele><time>2020-08-05T11:22:04Z</time><name>PT6837</name></trkpt>
<trkpt lat="53.373545" lon="-1.748474"><ele>288</ele><time>2020-08-05T11:22:05Z</time><name>PT6838</name></trkpt>
<trkpt lat="53.373555" lon="-1.748485"><ele>288</ele><time>2020-08-05T11:22:06Z</time><name>PT6839</name></trkpt>
<trkpt lat="53.373566" lon="-1.748499"><ele>288</ele><time>2020-08-05T11:22:07Z</time><name>PT6840</name></trkpt>
<trkpt lat="53.373577" lon="-1.748511"><ele>288</ele><time>2020-08-05T11:22:08Z</time><name>PT6841</name></trkpt>
<trkpt lat="53.373588" lon="-1.748522"><ele>289</ele><time>2020-08-05T11:22:09Z</time><name>PT6842</name></trkpt>
<trkpt lat="53.373597" lon="-1.748533"><ele>288</ele><time>2020-08-05T11:22:10Z</time><name>PT6843</name></trkpt>
<trkpt lat="53.373607" lon="-1.748544"><ele>288</ele><time>2020-08-05T11:22:11Z</time><name>PT6844</name></trkpt>
<trkpt lat="53.373618" lon="-1.748559"><ele>288</ele><time>2020-08-05T11:22:12Z</time><name>PT6845</name></trkpt>
<trkpt lat="53.373627" lon="-1.748574"><ele>288</ele><time>2020-08-05T11:22:13Z</time><name>PT6846</name></trkpt>
<trkpt lat="53.373637" lon="-1.748587"><ele>288</ele><time>2020-08-05T11:22:14Z</time><name>PT6847</name></trkpt>
<trkpt lat="53.373648" lon="-1.748597"><ele>288</ele><time>2020-08-05T11:22:15Z</time><name>PT6848</name></trkpt>
<trkpt lat="53.373658" lon="-1.748607"><ele>289</ele><time>2020-08-05T11:22:16Z</time><name>PT6849</name></trkpt>
<trkpt lat="53.373670" lon="-1.748615"><ele>289</ele><time>2020-08-05T11:22:17Z</time><name>PT6850</name></trkpt>
<trkpt lat="53.373681" lon="-1.748626"><ele>289</ele><time>2020-08-05T11:22:18Z</time><name>PT6851</name></trkpt>
<trkpt lat="53.373691" lon="-1.748629"><ele>288</ele><time>2020-08-05T11:22:19Z</time><name>PT6852</name></trkpt>
<trkpt lat="53.373700" lon="-1.748640"><ele>288</ele><time>2020-08-05T11:22:20Z</time><name>PT6853</name></trkpt>
<trkpt lat="53.373711" lon="-1.748653"><ele>288</ele><time>2020-08-05T11:22:21Z</time><name>PT6854</name></trkpt>
<trkpt lat="53.373723" lon="-1.748663"><ele>289</ele><time>2020-08-05T11:22:22Z</time><name>PT6855</name></trkpt>
<trkpt lat="53.373735" lon="-1.748679"><ele>289</ele><time>2020-08-05T11:22:23Z</time><name>PT6856</name></trkpt>
<trkpt lat="53.373747" lon="-1.748697"><ele>289</ele><time>2020-08-05T11:22:24Z</time><name>PT6857</name></trkpt>
<trkpt lat="53.373760" lon="-1.748711"><ele>290</ele><time>2020-08-05T11:22:25Z</time><name>PT6858</name></trkpt>
<trkpt lat="53.373771" lon="-1.748725"><ele>289</ele><time>2020-08-05T11:22:26Z</time><name>PT6859</name></trkpt>
<trkpt lat="53.373786" lon="-1.748740"><ele>289</ele><time>2020-08-05T11:22:27Z</time><name>PT6860</name></trkpt>
<trkpt lat="53.373798" lon="-1.748749"><ele>289</ele><time>2020-08-05T11:22:28Z</time><name>PT6861</name></trkpt>
<trkpt lat="53.373810" lon="-1.748763"><ele>289</ele><time>2020-08-05T11:22:29Z</time><name>PT6862</name></trkpt>
<trkpt lat="53.373819" lon="-1.748772"><ele>289</ele><time>2020-08-05T11:22:30Z</time><name>PT6863</name></trkpt>
<trkpt lat="53.373828" lon="-1.748785"><ele>289</ele><time>2020-08-05T11:22:31Z</time><name>PT6864</name></trkpt>
<trkpt lat="53.373842" lon="-1.748797"><ele>289</ele><time>2020-08-05T11:22:32Z</time><name>PT6865</name></trkpt>
<trkpt lat="53.373850" lon="-1.748807"><ele>289</ele><time>2020-08-05T11:22:33Z</time><name>PT6866</name></trkpt>
<trkpt lat="53.373861" lon="-1.748817"><ele>289</ele><time>2020-08-05T11:22:34Z</time><name>PT6867</name></trkpt>
<trkpt lat="53.373872" lon="-1.748827"><ele>289</ele><time>2020-08-05T11:22:35Z</time><name>PT6868</name></trkpt>
<trkpt lat="53.373883" lon="-1.748836"><ele>289</ele><time>2020-08-05T11:22:36Z</time><name>PT6869</name></trkpt>
<trkpt lat="53.373893" lon="-1.748846"><ele>289</ele><time>2020-08-05T11:22:37Z</time><name>PT6870</name></trkpt>
<trkpt lat="53.373904" lon="-1.748858"><ele>288</ele><time>2020-08-05T11:22:38Z</time><name>PT6871</name></trkpt>
<trkpt lat="53.373914" lon="-1.748870"><ele>288</ele><time>2020-08-05T11:22:39Z</time><name>PT6872</name></trkpt>
<trkpt lat="53.373925" lon="-1.748882"><ele>289</ele><time>2020-08-05T11:22:40Z</time><name>PT6873</name></trkpt>
<trkpt lat="53.373935" lon="-1.748890"><ele>289</ele><time>2020-08-05T11:22:41Z</time><name>PT6874</name></trkpt>
<trkpt lat="53.373946" lon="-1.748898"><ele>289</ele><time>2020-08-05T11:22:42Z</time><name>PT6875</name></trkpt>
<trkpt lat="53.373953" lon="-1.748908"><ele>288</ele><time>2020-08-05T11:22:43Z</time><name>PT6876</name></trkpt>
<trkpt lat="53.373961" lon="-1.748925"><ele>288</ele><time>2020-08-05T11:22:44Z</time><name>PT6877</name></trkpt>
<trkpt lat="53.373973" lon="-1.748937"><ele>289</ele><time>2020-08-05T11:22:45Z</time><name>PT6878</name></trkpt>
<trkpt lat="53.373985" lon="-1.748945"><ele>289</ele><time>2020-08-05T11:22:46Z</time><name>PT6879</name></trkpt>
<trkpt lat="53.373999" lon="-1.748958"><ele>288</ele><time>2020-08-05T11:22:47Z</time><name>PT6880</name></trkpt>
<trkpt lat="53.374008" lon="-1.748968"><ele>288</ele><time>2020-08-05T11:22:48Z</time><name>PT6881</name></trkpt>
<trkpt lat="53.374019" lon="-1.748981"><ele>288</ele><time>2020-08-05T11:22:49Z</time><name>PT6882</name></trkpt>
<trkpt lat="53.374030" lon="-1.748995"><ele>288</ele><time>2020-08-05T11:22:50Z</time><name>PT6883</name></trkpt>
<trkpt lat="53.374041" lon="-1.749004"><ele>288</ele><time>2020-08-05T11:22:51Z</time><name>PT6884</name></trkpt>
<trkpt lat="53.374051" lon="-1.749013"><ele>288</ele><time>2020-08-05T11:22:52Z</time><name>PT6885</name></trkpt>
<trkpt lat="53.374061" lon="-1.749024"><ele>288</ele><time>2020-08-05T11:22:53Z</time><name>PT6886</name></trkpt>
<trkpt lat="53.374071" lon="-1.749034"><ele>288</ele><time>2020-08-05T11:22:54Z</time><name>PT6887</name></trkpt>
<trkpt lat="53.374080" lon="-1.749047"><ele>288</ele><time>2020-08-05T11:22:55Z</time><name>PT6888</name></trkpt>
<trkpt lat="53.374090" lon="-1.749059"><ele>288</ele><time>2020-08-05T11:22:56Z</time><name>PT6889</name></trkpt>
<trkpt lat="53.374100" lon="-1.749069"><ele>288</ele><time>2020-08-05T11:22:57Z</time><name>PT6890</name></trkpt>
<trkpt lat="53.374114" lon="-1.749079"><ele>289</ele><time>2020-08-05T11:22:58Z</time><name>PT6891</name></trkpt>
<trkpt lat="53.374124" lon="-1.749092"><ele>289</ele><time>2020-08-05T11:22:59Z</time><name>PT6892</name></trkpt>
<trkpt lat="53.374133" lon="-1.749102"><ele>289</ele><time>2020-08-05T11:23:00Z</time><name>PT6893</name></trkpt>
<trkpt lat="53.374143" lon="-1.749113"><ele>289</ele><time>2020-08-05T11:23:01Z</time><name>PT6894</name></trkpt>
<trkpt lat="53.374153" lon="-1.749126"><ele>289</ele><time>2020-08-05T11:23:02Z</time><name>PT6895</name></trkpt>
<trkpt lat="53.374162" lon="-1.749134"><ele>289</ele><time>2020-08-05T11:23:03Z</time><name>PT6896</name></trkpt>
<trkpt lat="53.374171" lon="-1.749146"><ele>290</ele><time>2020-08-05T11:23:04Z</time><name>PT6897</name></trkpt>
<trkpt lat="53.374180" lon="-1.749158"><ele>290</ele><time>2020-08-05T11:23:05Z</time><name>PT6898</name></trkpt>
<trkpt lat="53.374189" lon="-1.749167"><ele>290</ele><time>2020-08-05T11:23:06Z</time><name>PT6899</name></trkpt>
<trkpt lat="53.374197" lon="-1.749183"><ele>290</ele><time>2020-08-05T11:23:07Z</time><name>PT6900</name></trkpt>
<trkpt lat="53.374208" lon="-1.749198"><ele>290</ele><time>2020-08-05T11:23:08Z</time><name>PT6901</name></trkpt>
<trkpt lat="53.374220" lon="-1.749211"><ele>290</ele><time>2020-08-05T11:23:09Z</time><name>PT6902</name></trkpt>
<trkpt lat="53.374231" lon="-1.749222"><ele>290</ele><time>2020-08-05T11:23:10Z</time><name>PT6903</name></trkpt>
<trkpt lat="53.374239" lon="-1.749233"><ele>289</ele><time>2020-08-05T11:23:11Z</time><name>PT6904</name></trkpt>
<trkpt lat="53.374247" lon="-1.749241"><ele>289</ele><time>2020-08-05T11:23:12Z</time><name>PT6905</name></trkpt>
<trkpt lat="53.374254" lon="-1.749250"><ele>289</ele><time>2020-08-05T11:23:13Z</time><name>PT6906</name></trkpt>
<trkpt lat="53.374268" lon="-1.749254"><ele>289</ele><time>2020-08-05T11:23:14Z</time><name>PT6907</name></trkpt>
<trkpt lat="53.374279" lon="-1.749264"><ele>289</ele><time>2020-08-05T11:23:15Z</time><name>PT6908</name></trkpt>
<trkpt lat="53.374286" lon="-1.749276"><ele>290</ele><time>2020-08-05T11:23:16Z</time><name>PT6909</name></trkpt>
<trkpt lat="53.374295" lon="-1.749289"><ele>290</ele><time>2020-08-05T11:23:17Z</time><name>PT6910</name></trkpt>
<trkpt lat="53.374304" lon="-1.749300"><ele>289</ele><time>2020-08-05T11:23:18Z</time><name>PT6911</name></trkpt>
<trkpt lat="53.374314" lon="-1.749313"><ele>289</ele><time>2020-08-05T11:23:19Z</time><name>PT6912</name></trkpt>
<trkpt lat="53.374326" lon="-1.749323"><ele>289</ele><time>2020-08-05T11:23:20Z</time><name>PT6913</name></trkpt>
<trkpt lat="53.374337" lon="-1.749335"><ele>289</ele><time>2020-08-05T11:23:21Z</time><name>PT6914</name></trkpt>
<trkpt lat="53.374349" lon="-1.749344"><ele>290</ele><time>2020-08-05T11:23:22Z</time><name>PT6915</name></trkpt>
<trkpt lat="53.374358" lon="-1.749365"><ele>289</ele><time>2020-08-05T11:23:23Z</time><name>PT6916</name></trkpt>
<trkpt lat="53.374366" lon="-1.749379"><ele>290</ele><time>2020-08-05T11:23:24Z</time><name>PT6917</name></trkpt>
<trkpt lat="53.374374" lon="-1.749397"><ele>289</ele><time>2020-08-05T11:23:25Z</time><name>PT6918</name></trkpt>
<trkpt lat="53.374385" lon="-1.749410"><ele>290</ele><time>2020-08-05T11:23:26Z</time><name>PT6919</name></trkpt>
<trkpt lat="53.374396" lon="-1.749424"><ele>289</ele><time>2020-08-05T11:23:27Z</time><name>PT6920</name></trkpt>
<trkpt lat="53.374408" lon="-1.749441"><ele>290</ele><time>2020-08-05T11:23:28Z</time><name>PT6921</name></trkpt>
<trkpt lat="53.374418" lon="-1.749454"><ele>290</ele><time>2020-08-05T11:23:29Z</time><name>PT6922</name></trkpt>
<trkpt lat="53.374430" lon="-1.749466"><ele>290</ele><time>2020-08-05T11:23:30Z</time><name>PT6923</name></trkpt>
<trkpt lat="53.374442" lon="-1.749479"><ele>290</ele><time>2020-08-05T11:23:31Z</time><name>PT6924</name></trkpt>
<trkpt lat="53.374448" lon="-1.749492"><ele>290</ele><time>2020-08-05T11:23:32Z</time><name>PT6925</name></trkpt>
<trkpt lat="53.374456" lon="-1.749504"><ele>290</ele><time>2020-08-05T11:23:33Z</time><name>PT6926</name></trkpt>
<trkpt lat="53.374466" lon="-1.749515"><ele>290</ele><time>2020-08-05T11:23:34Z</time><name>PT6927</name></trkpt>
<trkpt lat="53.374476" lon="-1.749526"><ele>290</ele><time>2020-08-05T11:23:35Z</time><name>PT6928</name></trkpt>
<trkpt lat="53.374485" lon="-1.749540"><ele>290</ele><time>2020-08-05T11:23:36Z</time><name>PT6929</name></trkpt>
<trkpt lat="53.374495" lon="-1.749555"><ele>290</ele><time>2020-08-05T11:23:37Z</time><name>PT6930</name></trkpt>
<trkpt lat="53.374506" lon="-1.749568"><ele>290</ele><time>2020-08-05T11:23:38Z</time><name>PT6931</name></trkpt>
<trkpt lat="53.374515" lon="-1.749579"><ele>290</ele><time>2020-08-05T11:23:39Z</time><name>PT6932</name></trkpt>
<trkpt lat="53.374525" lon="-1.749593"><ele>291</ele><time>2020-08-05T11:23:40Z</time><name>PT6933</name></trkpt>
<trkpt lat="53.374537" lon="-1.749605"><ele>291</ele><time>2020-08-05T11:23:41Z</time><name>PT6934</name></trkpt>
<trkpt lat="53.374548" lon="-1.749618"><ele>291</ele><time>2020-08-05T11:23:42Z</time><name>PT6935</name></trkpt>
<trkpt lat="53.374556" lon="-1.749633"><ele>291</ele><time>2020-08-05T11:23:43Z</time><name>PT6936</name></trkpt>
<trkpt lat="53.374568" lon="-1.749650"><ele>291</ele><time>2020-08-05T11:23:44Z</time><name>PT6937</name></trkpt>
<trkpt lat="53.374578" lon="-1.749662"><ele>291</ele><time>2020-08-05T11:23:45Z</time><name>PT6938</name></trkpt>
<trkpt lat="53.374588" lon="-1.749675"><ele>291</ele><time>2020-08-05T11:23:46Z</time><name>PT6939</name></trkpt>
<trkpt lat="53.374597" lon="-1.749687"><ele>291</ele><time>2020-08-05T11:23:47Z</time><name>PT6940</name></trkpt>
<trkpt lat="53.374605" lon="-1.749696"><ele>291</ele><time>2020-08-05T11:23:48Z</time><name>PT6941</name></trkpt>
<trkpt lat="53.374613" lon="-1.749711"><ele>291</ele><time>2020-08-05T11:23:49Z</time><name>PT6942</name></trkpt>
<trkpt lat="53.374623" lon="-1.749723"><ele>291</ele><time>2020-08-05T11:23:50Z</time><name>PT6943</name></trkpt>
<trkpt lat="53.374631" lon="-1.749737"><ele>291</ele><time>2020-08-05T11:23:51Z</time><name>PT6944</name></trkpt>
<trkpt lat="53.374640" lon="-1.749748"><ele>291</ele><time>2020-08-05T11:23:52Z</time><name>PT6945</name></trkpt>
<trkpt lat="53.374649" lon="-1.749760"><ele>291</ele><time>2020-08-05T11:23:53Z</time><name>PT6946</name></trkpt>
<trkpt lat="53.374658" lon="-1.749769"><ele>291</ele><time>2020-08-05T11:23:54Z</time><name>PT6947</name></trkpt>
<trkpt lat="53.374667" lon="-1.749782"><ele>291</ele><time>2020-08-05T11:23:55Z</time><name>PT6948</name></trkpt>
<trkpt lat="53.374677" lon="-1.749799"><ele>290</ele><time>2020-08-05T11:23:56Z</time><name>PT6949</name></trkpt>
<trkpt lat="53.374686" lon="-1.749815"><ele>291</ele><time>2020-08-05T11:23:57Z</time><name>PT6950</name></trkpt>
<trkpt lat="53.374695" lon="-1.749832"><ele>291</ele><time>2020-08-05T11:23:58Z</time><name>PT6951</name></trkpt>
<trkpt lat="53.374704" lon="-1.749850"><ele>291</ele><time>2020-08-05T11:23:59Z</time><name>PT6952</name></trkpt>
<trkpt lat="53.374715" lon="-1.749865"><ele>291</ele><time>2020-08-05T11:24:00Z</time><name>PT6953</name></trkpt>
<trkpt lat="53.374726" lon="-1.749879"><ele>291</ele><time>2020-08-05T11:24:01Z</time><name>PT6954</name></trkpt>
<trkpt lat="53.374735" lon="-1.749894"><ele>291</ele><time>2020-08-05T11:24:02Z</time><name>PT6955</name></trkpt>
<trkpt lat="53.374744" lon="-1.749911"><ele>291</ele><time>2020-08-05T11:24:03Z</time><name>PT6956</name></trkpt>
<trkpt lat="53.374753" lon="-1.749924"><ele>291</ele><time>2020-08-05T11:24:04Z</time><name>PT6957</name></trkpt>
<trkpt lat="53.374765" lon="-1.749935"><ele>291</ele><time>2020-08-05T11:24:05Z</time><name>PT6958</name></trkpt>
<trkpt lat="53.374774" lon="-1.749948"><ele>291</ele><time>2020-08-05T11:24:06Z</time><name>PT6959</name></trkpt>
<trkpt lat="53.374783" lon="-1.749964"><ele>292</ele><time>2020-08-05T11:24:07Z</time><name>PT6960</name></trkpt>
<trkpt lat="53.374794" lon="-1.749983"><ele>292</ele><time>2020-08-05T11:24:08Z</time><name>PT6961</name></trkpt>
<trkpt lat="53.374802" lon="-1.749996"><ele>292</ele><time>2020-08-05T11:24:09Z</time><name>PT6962</name></trkpt>
<trkpt lat="53.374811" lon="-1.750009"><ele>292</ele><time>2020-08-05T11:24:10Z</time><name>PT6963</name></trkpt>
<trkpt lat="53.374818" lon="-1.750028"><ele>293</ele><time>2020-08-05T11:24:11Z</time><name>PT6964</name></trkpt>
<trkpt lat="53.374828" lon="-1.750044"><ele>293</ele><time>2020-08-05T11:24:12Z</time><name>PT6965</name></trkpt>
<trkpt lat="53.374838" lon="-1.750057"><ele>293</ele><time>2020-08-05T11:24:13Z</time><name>PT6966</name></trkpt>
<trkpt lat="53.374846" lon="-1.750070"><ele>293</ele><time>2020-08-05T11:24:14Z</time><name>PT6967</name></trkpt>
<trkpt lat="53.374855" lon="-1.750085"><ele>293</ele><time>2020-08-05T11:24:15Z</time><name>PT6968</name></trkpt>
<trkpt lat="53.374864" lon="-1.750100"><ele>293</ele><time>2020-08-05T11:24:16Z</time><name>PT6969</name></trkpt>
<trkpt lat="53.374872" lon="-1.750117"><ele>293</ele><time>2020-08-05T11:24:17Z</time><name>PT6970</name></trkpt>
<trkpt lat="53.374883" lon="-1.750132"><ele>294</ele><time>2020-08-05T11:24:18Z</time><name>PT6971</name></trkpt>
<trkpt lat="53.374890" lon="-1.750143"><ele>294</ele><time>2020-08-05T11:24:19Z</time><name>PT6972</name></trkpt>
<trkpt lat="53.374899" lon="-1.750159"><ele>293</ele><time>2020-08-05T11:24:20Z</time><name>PT6973</name></trkpt>
<trkpt lat="53.374912" lon="-1.750176"><ele>293</ele><time>2020-08-05T11:24:21Z</time><name>PT6974</name></trkpt>
<trkpt lat="53.374920" lon="-1.750188"><ele>293</ele><time>2020-08-05T11:24:22Z</time><name>PT6975</name></trkpt>
<trkpt lat="53.374928" lon="-1.750200"><ele>293</ele><time>2020-08-05T11:24:23Z</time><name>PT6976</name></trkpt>
<trkpt lat="53.374937" lon="-1.750214"><ele>293</ele><time>2020-08-05T11:24:24Z</time><name>PT6977</name></trkpt>
<trkpt lat="53.374944" lon="-1.750226"><ele>293</ele><time>2020-08-05T11:24:25Z</time><name>PT6978</name></trkpt>
<trkpt lat="53.374954" lon="-1.750244"><ele>293</ele><time>2020-08-05T11:24:26Z</time><name>PT6979</name></trkpt>
<trkpt lat="53.374964" lon="-1.750262"><ele>293</ele><time>2020-08-05T11:24:27Z</time><name>PT6980</name></trkpt>
<trkpt lat="53.374973" lon="-1.750277"><ele>293</ele><time>2020-08-05T11:24:28Z</time><name>PT6981</name></trkpt>
<trkpt lat="53.374982" lon="-1.750291"><ele>293</ele><time>2020-08-05T11:24:29Z</time><name>PT6982</name></trkpt>
<trkpt lat="53.374990" lon="-1.750304"><ele>293</ele><time>2020-08-05T11:24:30Z</time><name>PT6983</name></trkpt>
<trkpt lat="53.374998" lon="-1.750315"><ele>293</ele><time>2020-08-05T11:24:31Z</time><name>PT6984</name></trkpt>
<trkpt lat="53.375007" lon="-1.750327"><ele>293</ele><time>2020-08-05T11:24:32Z</time><name>PT6985</name></trkpt>
<trkpt lat="53.375018" lon="-1.750339"><ele>293</ele><time>2020-08-05T11:24:33Z</time><name>PT6986</name></trkpt>
<trkpt lat="53.375022" lon="-1.750355"><ele>292</ele><time>2020-08-05T11:24:34Z</time><name>PT6987</name></trkpt>
<trkpt lat="53.375033" lon="-1.750371"><ele>292</ele><time>2020-08-05T11:24:35Z</time><name>PT6988</name></trkpt>
<trkpt lat="53.375042" lon="-1.750383"><ele>292</ele><time>2020-08-05T11:24:36Z</time><name>PT6989</name></trkpt>
<trkpt lat="53.375049" lon="-1.750392"><ele>292</ele><time>2020-08-05T11:24:37Z</time><name>PT6990</name></trkpt>
<trkpt lat="53.375060" lon="-1.750406"><ele>292</ele><time>2020-08-05T11:24:38Z</time><name>PT6991</name></trkpt>
<trkpt lat="53.375067" lon="-1.750420"><ele>292</ele><time>2020-08-05T11:24:39Z</time><name>PT6992</name></trkpt>
<trkpt lat="53.375078" lon="-1.750434"><ele>292</ele><time>2020-08-05T11:24:40Z</time><name>PT6993</name></trkpt>
<trkpt lat="53.375092" lon="-1.750447"><ele>292</ele><time>2020-08-05T11:24:41Z</time><name>PT6994</name></trkpt>
<trkpt lat="53.375101" lon="-1.750458"><ele>292</ele><time>2020-08-05T11:24:42Z</time><name>PT6995</name></trkpt>
<trkpt lat="53.375113" lon="-1.750470"><ele>292</ele><time>2020-08-05T11:24:43Z</time><name>PT6996</name></trkpt>
<trkpt lat="53.375123" lon="-1.750480"><ele>292</ele><time>2020-08-05T11:24:44Z</time><name>PT6997</name></trkpt>
<trkpt lat="53.375133" lon="-1.750490"><ele>293</ele><time>2020-08-05T11:24:45Z</time><name>PT6998</name></trkpt>
<trkpt lat="53.375143" lon="-1.750500"><ele>293</ele><time>2020-08-05T11:24:46Z</time><name>PT6999</name></trkpt>
<trkpt lat="53.375154" lon="-1.750507"><ele>293</ele><time>2020-08-05T11:24:47Z</time><name>PT7000</name></trkpt>
<trkpt lat="53.375168" lon="-1.750516"><ele>293</ele><time>2020-08-05T11:24:48Z</time><name>PT7001</name></trkpt>
<trkpt lat="53.375179" lon="-1.750531"><ele>292</ele><time>2020-08-05T11:24:49Z</time><name>PT7002</name></trkpt>
<trkpt lat="53.375192" lon="-1.750541"><ele>293</ele><time>2020-08-05T11:24:50Z</time><name>PT7003</name></trkpt>
<trkpt lat="53.375201" lon="-1.750554"><ele>293</ele><time>2020-08-05T11:24:51Z</time><name>PT7004</name></trkpt>
<trkpt lat="53.375214" lon="-1.750567"><ele>293</ele><time>2020-08-05T11:24:52Z</time><name>PT7005</name></trkpt>
<trkpt lat="53.375222" lon="-1.750577"><ele>293</ele><time>2020-08-05T11:24:53Z</time><name>PT7006</name></trkpt>
<trkpt lat="53.375230" lon="-1.750591"><ele>293</ele><time>2020-08-05T11:24:54Z</time><name>PT7007</name></trkpt>
<trkpt lat="53.375240" lon="-1.750606"><ele>293</ele><time>2020-08-05T11:24:55Z</time><name>PT7008</name></trkpt>
<trkpt lat="53.375250" lon="-1.750619"><ele>293</ele><time>2020-08-05T11:24:56Z</time><name>PT7009</name></trkpt>
<trkpt lat="53.375258" lon="-1.750630"><ele>293</ele><time>2020-08-05T11:24:57Z</time><name>PT7010</name></trkpt>
<trkpt lat="53.375267" lon="-1.750637"><ele>293</ele><time>2020-08-05T11:24:58Z</time><name>PT7011</name></trkpt>
<trkpt lat="53.375277" lon="-1.750647"><ele>293</ele><time>2020-08-05T11:24:59Z</time><name>PT7012</name></trkpt>
<trkpt lat="53.375287" lon="-1.750662"><ele>293</ele><time>2020-08-05T11:25:00Z</time><name>PT7013</name></trkpt>
<trkpt lat="53.375297" lon="-1.750673"><ele>293</ele><time>2020-08-05T11:25:01Z</time><name>PT7014</name></trkpt>
<trkpt lat="53.375305" lon="-1.750687"><ele>293</ele><time>2020-08-05T11:25:02Z</time><name>PT7015</name></trkpt>
<trkpt lat="53.375314" lon="-1.750697"><ele>293</ele><time>2020-08-05T11:25:03Z</time><name>PT7016</name></trkpt>
<trkpt lat="53.375323" lon="-1.750706"><ele>293</ele><time>2020-08-05T11:25:04Z</time><name>PT7017</name></trkpt>
<trkpt lat="53.375329" lon="-1.750717"><ele>292</ele><time>2020-08-05T11:25:05Z</time><name>PT7018</name></trkpt>
<trkpt lat="53.375338" lon="-1.750726"><ele>292</ele><time>2020-08-05T11:25:06Z</time><name>PT7019</name></trkpt>
<trkpt lat="53.375344" lon="-1.750738"><ele>292</ele><time>2020-08-05T11:25:07Z</time><name>PT7020</name></trkpt>
<trkpt lat="53.375352" lon="-1.750750"><ele>292</ele><time>2020-08-05T11:25:08Z</time><name>PT7021</name></trkpt>
<trkpt lat="53.375360" lon="-1.750759"><ele>292</ele><time>2020-08-05T11:25:09Z</time><name>PT7022</name></trkpt>
<trkpt lat="53.375370" lon="-1.750769"><ele>292</ele><time>2020-08-05T11:25:10Z</time><name>PT7023</name></trkpt>
<trkpt lat="53.375378" lon="-1.750777"><ele>292</ele><time>2020-08-05T11:25:11Z</time><name>PT7024</name></trkpt>
<trkpt lat="53.375385" lon="-1.750788"><ele>292</ele><time>2020-08-05T11:25:12Z</time><name>PT7025</name></trkpt>
<trkpt lat="53.375390" lon="-1.750797"><ele>291</ele><time>2020-08-05T11:25:13Z</time><name>PT7026</name></trkpt>
<trkpt lat="53.375398" lon="-1.750803"><ele>291</ele><time>2020-08-05T11:25:14Z</time><name>PT7027</name></trkpt>
<trkpt lat="53.375406" lon="-1.750813"><ele>291</ele><time>2020-08-05T11:25:15Z</time><name>PT7028</name></trkpt>
<trkpt lat="53.375415" lon="-1.750823"><ele>291</ele><time>2020-08-05T11:25:16Z</time><name>PT7029</name></trkpt>
<trkpt lat="53.375423" lon="-1.750838"><ele>291</ele><time>2020-08-05T11:25:17Z</time><name>PT7030</name></trkpt>
<trkpt lat="53.375429" lon="-1.750851"><ele>291</ele><time>2020-08-05T11:25:18Z</time><name>PT7031</name></trkpt>
<trkpt lat="53.375438" lon="-1.750865"><ele>291</ele><time>2020-08-05T11:25:19Z</time><name>PT7032</name></trkpt>
<trkpt lat="53.375447" lon="-1.750877"><ele>292</ele><time>2020-08-05T11:25:20Z</time><name>PT7033</name></trkpt>
<trkpt lat="53.375457" lon="-1.750890"><ele>292</ele><time>2020-08-05T11:25:21Z</time><name>PT7034</name></trkpt>
<trkpt lat="53.375465" lon="-1.750907"><ele>292</ele><time>2020-08-05T11:25:22Z</time><name>PT7035</name></trkpt>
<trkpt lat="53.375476" lon="-1.750922"><ele>293</ele><time>2020-08-05T11:25:23Z</time><name>PT7036</name></trkpt>
<trkpt lat="53.375485" lon="-1.750935"><ele>293</ele><time>2020-08-05T11:25:24Z</time><name>PT7037</name></trkpt>
<trkpt lat="53.375493" lon="-1.750949"><ele>293</ele><time>2020-08-05T11:25:25Z</time><name>PT7038</name></trkpt>
<trkpt lat="53.375500" lon="-1.750962"><ele>293</ele><time>2020-08-05T11:25:26Z</time><name>PT7039</name></trkpt>
<trkpt lat="53.375508" lon="-1.750972"><ele>293</ele><time>2020-08-05T11:25:27Z</time><name>PT7040</name></trkpt>
<trkpt lat="53.375515" lon="-1.750982"><ele>294</ele><time>2020-08-05T11:25:28Z</time><name>PT7041</name></trkpt>
<trkpt lat="53.375520" lon="-1.750990"><ele>293</ele><time>2020-08-05T11:25:29Z</time><name>PT7042</name></trkpt>
<trkpt lat="53.375524" lon="-1.750995"><ele>293</ele><time>2020-08-05T11:25:30Z</time><name>PT7043</name></trkpt>
<trkpt lat="53.375529" lon="-1.751005"><ele>294</ele><time>2020-08-05T11:25:31Z</time><name>PT7044</name></trkpt>
<trkpt lat="53.375534" lon="-1.751022"><ele>294</ele><time>2020-08-05T11:25:32Z</time><name>PT7045</name></trkpt>
<trkpt lat="53.375542" lon="-1.751034"><ele>294</ele><time>2020-08-05T11:25:33Z</time><name>PT7046</name></trkpt>
<trkpt lat="53.375546" lon="-1.751046"><ele>294</ele><time>2020-08-05T11:25:34Z</time><name>PT7047</name></trkpt>
<trkpt lat="53.375553" lon="-1.751062"><ele>294</ele><time>2020-08-05T11:25:35Z</time><name>PT7048</name></trkpt>
<trkpt lat="53.375559" lon="-1.751073"><ele>294</ele><time>2020-08-05T11:25:36Z</time><name>PT7049</name></trkpt>
<trkpt lat="53.375565" lon="-1.751087"><ele>294</ele><time>2020-08-05T11:25:37Z</time><name>PT7050</name></trkpt>
<trkpt lat="53.375570" lon="-1.751100"><ele>294</ele><time>2020-08-05T11:25:38Z</time><name>PT7051</name></trkpt>
<trkpt lat="53.375577" lon="-1.751112"><ele>294</ele><time>2020-08-05T11:25:39Z</time><name>PT7052</name></trkpt>
<trkpt lat="53.375587" lon="-1.751125"><ele>294</ele><time>2020-08-05T11:25:40Z</time><name>PT7053</name></trkpt>
<trkpt lat="53.375595" lon="-1.751137"><ele>295</ele><time>2020-08-05T11:25:41Z</time><name>PT7054</name></trkpt>
<trkpt lat="53.375600" lon="-1.751149"><ele>294</ele><time>2020-08-05T11:25:42Z</time><name>PT7055</name></trkpt>
<trkpt lat="53.375607" lon="-1.751162"><ele>294</ele><time>2020-08-05T11:25:43Z</time><name>PT7056</name></trkpt>
<trkpt lat="53.375619" lon="-1.751171"><ele>294</ele><time>2020-08-05T11:25:44Z</time><name>PT7057</name></trkpt>
<trkpt lat="53.375625" lon="-1.751183"><ele>294</ele><time>2020-08-05T11:25:45Z</time><name>PT7058</name></trkpt>
<trkpt lat="53.375633" lon="-1.751196"><ele>295</ele><time>2020-08-05T11:25:46Z</time><name>PT7059</name></trkpt>
<trkpt lat="53.375639" lon="-1.751209"><ele>295</ele><time>2020-08-05T11:25:47Z</time><name>PT7060</name></trkpt>
<trkpt lat="53.375645" lon="-1.751224"><ele>295</ele><time>2020-08-05T11:25:48Z</time><name>PT7061</name></trkpt>
<trkpt lat="53.375654" lon="-1.751235"><ele>295</ele><time>2020-08-05T11:25:49Z</time><name>PT7062</name></trkpt>
<trkpt lat="53.375658" lon="-1.751248"><ele>295</ele><time>2020-08-05T11:25:50Z</time><name>PT7063</name></trkpt>
<trkpt lat="53.375664" lon="-1.751262"><ele>294</ele><time>2020-08-05T11:25:51Z</time><name>PT7064</name></trkpt>
<trkpt lat="53.375673" lon="-1.751270"><ele>294</ele><time>2020-08-05T11:25:52Z</time><name>PT7065</name></trkpt>
<trkpt lat="53.375680" lon="-1.751281"><ele>295</ele><time>2020-08-05T11:25:53Z</time><name>PT7066</name></trkpt>
<trkpt lat="53.375691" lon="-1.751293"><ele>295</ele><time>2020-08-05T11:25:54Z</time><name>PT7067</name></trkpt>
<trkpt lat="53.375701" lon="-1.751306"><ele>295</ele><time>2020-08-05T11:25:55Z</time><name>PT7068</name></trkpt>
<trkpt lat="53.375708" lon="-1.751321"><ele>296</ele><time>2020-08-05T11:25:56Z</time><name>PT7069</name></trkpt>
<trkpt lat="53.375716" lon="-1.751331"><ele>296</ele><time>2020-08-05T11:25:57Z</time><name>PT7070</name></trkpt>
<trkpt lat="53.375724" lon="-1.751335"><ele>296</ele><time>2020-08-05T11:25:58Z</time><name>PT7071</name></trkpt>
<trkpt lat="53.375733" lon="-1.751343"><ele>296</ele><time>2020-08-05T11:25:59Z</time><name>PT7072</name></trkpt>
<trkpt lat="53.375741" lon="-1.751353"><ele>296</ele><time>2020-08-05T11:26:00Z</time><name>PT7073</name></trkpt>
<trkpt lat="53.375750" lon="-1.751364"><ele>297</ele><time>2020-08-05T11:26:01Z</time><name>PT7074</name></trkpt>
<trkpt lat="53.375758" lon="-1.751378"><ele>297</ele><time>2020-08-05T11:26:02Z</time><name>PT7075</name></trkpt>
<trkpt lat="53.375766" lon="-1.751390"><ele>296</ele><time>2020-08-05T11:26:03Z</time><name>PT7076</name></trkpt>
<trkpt lat="53.375771" lon="-1.751394"><ele>296</ele><time>2020-08-05T11:26:04Z</time><name>PT7077</name></trkpt>
<trkpt lat="53.375776" lon="-1.751405"><ele>296</ele><time>2020-08-05T11:26:05Z</time><name>PT7078</name></trkpt>
<trkpt lat="53.375783" lon="-1.751418"><ele>296</ele><time>2020-08-05T11:26:06Z</time><name>PT7079</name></trkpt>
<trkpt lat="53.375792" lon="-1.751430"><ele>296</ele><time>2020-08-05T11:26:07Z</time><name>PT7080</name></trkpt>
<trkpt lat="53.375802" lon="-1.751442"><ele>297</ele><time>2020-08-05T11:26:08Z</time><name>PT7081</name></trkpt>
<trkpt lat="53.375809" lon="-1.751456"><ele>297</ele><time>2020-08-05T11:26:09Z</time><name>PT7082</name></trkpt>
<trkpt lat="53.375818" lon="-1.751469"><ele>297</ele><time>2020-08-05T11:26:10Z</time><name>PT7083</name></trkpt>
<trkpt lat="53.375827" lon="-1.751479"><ele>297</ele><time>2020-08-05T11:26:11Z</time><name>PT7084</name></trkpt>
<trkpt lat="53.375839" lon="-1.751487"><ele>297</ele><time>2020-08-05T11:26:12Z</time><name>PT7085</name></trkpt>
<trkpt lat="53.375848" lon="-1.751499"><ele>297</ele><time>2020-08-05T11:26:13Z</time><name>PT7086</name></trkpt>
<trkpt lat="53.375855" lon="-1.751512"><ele>297</ele><time>2020-08-05T11:26:14Z</time><name>PT7087</name></trkpt>
<trkpt lat="53.375866" lon="-1.751525"><ele>298</ele><time>2020-08-05T11:26:15Z</time><name>PT7088</name></trkpt>
<trkpt lat="53.375875" lon="-1.751543"><ele>298</ele><time>2020-08-05T11:26:16Z</time><name>PT7089</name></trkpt>
<trkpt lat="53.375883" lon="-1.751553"><ele>298</ele><time>2020-08-05T11:26:17Z</time><name>PT7090</name></trkpt>
<trkpt lat="53.375891" lon="-1.751563"><ele>299</ele><time>2020-08-05T11:26:18Z</time><name>PT7091</name></trkpt>
<trkpt lat="53.375901" lon="-1.751577"><ele>299</ele><time>2020-08-05T11:26:19Z</time><name>PT7092</name></trkpt>
<trkpt lat="53.375904" lon="-1.751594"><ele>299</ele><time>2020-08-05T11:26:20Z</time><name>PT7093</name></trkpt>
<trkpt lat="53.375910" lon="-1.751605"><ele>299</ele><time>2020-08-05T11:26:21Z</time><name>PT7094</name></trkpt>
<trkpt lat="53.375918" lon="-1.751617"><ele>298</ele><time>2020-08-05T11:26:22Z</time><name>PT7095</name></trkpt>
<trkpt lat="53.375927" lon="-1.751626"><ele>298</ele><time>2020-08-05T11:26:23Z</time><name>PT7096</name></trkpt>
<trkpt lat="53.375935" lon="-1.751637"><ele>298</ele><time>2020-08-05T11:26:24Z</time><name>PT7097</name></trkpt>
<trkpt lat="53.375943" lon="-1.751651"><ele>299</ele><time>2020-08-05T11:26:25Z</time><name>PT7098</name></trkpt>
<trkpt lat="53.375951" lon="-1.751666"><ele>299</ele><time>2020-08-05T11:26:26Z</time><name>PT7099</name></trkpt>
<trkpt lat="53.375958" lon="-1.751678"><ele>299</ele><time>2020-08-05T11:26:27Z</time><name>PT7100</name></trkpt>
<trkpt lat="53.375966" lon="-1.751689"><ele>300</ele><time>2020-08-05T11:26:28Z</time><name>PT7101</name></trkpt>
<trkpt lat="53.375975" lon="-1.751704"><ele>300</ele><time>2020-08-05T11:26:29Z</time><name>PT7102</name></trkpt>
<trkpt lat="53.375984" lon="-1.751713"><ele>300</ele><time>2020-08-05T11:26:30Z</time><name>PT7103</name></trkpt>
<trkpt lat="53.375992" lon="-1.751719"><ele>300</ele><time>2020-08-05T11:26:31Z</time><name>PT7104</name></trkpt>
<trkpt lat="53.376001" lon="-1.751730"><ele>300</ele><time>2020-08-05T11:26:32Z</time><name>PT7105</name></trkpt>
<trkpt lat="53.376006" lon="-1.751745"><ele>300</ele><time>2020-08-05T11:26:33Z</time><name>PT7106</name></trkpt>
<trkpt lat="53.376013" lon="-1.751758"><ele>301</ele><time>2020-08-05T11:26:34Z</time><name>PT7107</name></trkpt>
<trkpt lat="53.376020" lon="-1.751768"><ele>301</ele><time>2020-08-05T11:26:35Z</time><name>PT7108</name></trkpt>
<trkpt lat="53.376027" lon="-1.751774"><ele>301</ele><time>2020-08-05T11:26:36Z</time><name>PT7109</name></trkpt>
<trkpt lat="53.376034" lon="-1.751784"><ele>301</ele><time>2020-08-05T11:26:37Z</time><name>PT7110</name></trkpt>
<trkpt lat="53.376042" lon="-1.751800"><ele>302</ele><time>2020-08-05T11:26:38Z</time><name>PT7111</name></trkpt>
<trkpt lat="53.376051" lon="-1.751814"><ele>302</ele><time>2020-08-05T11:26:39Z</time><name>PT7112</name></trkpt>
<trkpt lat="53.376060" lon="-1.751827"><ele>302</ele><time>2020-08-05T11:26:40Z</time><name>PT7113</name></trkpt>
<trkpt lat="53.376068" lon="-1.751837"><ele>302</ele><time>2020-08-05T11:26:41Z</time><name>PT7114</name></trkpt>
<trkpt lat="53.376076" lon="-1.751849"><ele>302</ele><time>2020-08-05T11:26:42Z</time><name>PT7115</name></trkpt>
<trkpt lat="53.376083" lon="-1.751861"><ele>302</ele><time>2020-08-05T11:26:43Z</time><name>PT7116</name></trkpt>
<trkpt lat="53.376090" lon="-1.751876"><ele>301</ele><time>2020-08-05T11:26:44Z</time><name>PT7117</name></trkpt>
<trkpt lat="53.376099" lon="-1.751888"><ele>302</ele><time>2020-08-05T11:26:45Z</time><name>PT7118</name></trkpt>
<trkpt lat="53.376106" lon="-1.751896"><ele>301</ele><time>2020-08-05T11:26:46Z</time><name>PT7119</name></trkpt>
<trkpt lat="53.376111" lon="-1.751912"><ele>301</ele><time>2020-08-05T11:26:47Z</time><name>PT7120</name></trkpt>
<trkpt lat="53.376118" lon="-1.751928"><ele>301</ele><time>2020-08-05T11:26:48Z</time><name>PT7121</name></trkpt>
<trkpt lat="53.376126" lon="-1.751943"><ele>302</ele><time>2020-08-05T11:26:49Z</time><name>PT7122</name></trkpt>
<trkpt lat="53.376136" lon="-1.751955"><ele>302</ele><time>2020-08-05T11:26:50Z</time><name>PT7123</name></trkpt>
<trkpt lat="53.376144" lon="-1.751966"><ele>302</ele><time>2020-08-05T11:26:51Z</time><name>PT7124</name></trkpt>
<trkpt lat="53.376152" lon="-1.751977"><ele>302</ele><time>2020-08-05T11:26:52Z</time><name>PT7125</name></trkpt>
<trkpt lat="53.376161" lon="-1.751992"><ele>302</ele><time>2020-08-05T11:26:53Z</time><name>PT7126</name></trkpt>
<trkpt lat="53.376169" lon="-1.752005"><ele>302</ele><time>2020-08-05T11:26:54Z</time><name>PT7127</name></trkpt>
<trkpt lat="53.376177" lon="-1.752019"><ele>302</ele><time>2020-08-05T11:26:55Z</time><name>PT7128</name></trkpt>
<trkpt lat="53.376185" lon="-1.752033"><ele>302</ele><time>2020-08-05T11:26:56Z</time><name>PT7129</name></trkpt>
<trkpt lat="53.376193" lon="-1.752042"><ele>302</ele><time>2020-08-05T11:26:57Z</time><name>PT7130</name></trkpt>
<trkpt lat="53.376199" lon="-1.752056"><ele>302</ele><time>2020-08-05T11:26:58Z</time><name>PT7131</name></trkpt>
<trkpt lat="53.376206" lon="-1.752068"><ele>302</ele><time>2020-08-05T11:26:59Z</time><name>PT7132</name></trkpt>
<trkpt lat="53.376211" lon="-1.752082"><ele>302</ele><time>2020-08-05T11:27:00Z</time><name>PT7133</name></trkpt>
<trkpt lat="53.376216" lon="-1.752097"><ele>302</ele><time>2020-08-05T11:27:01Z</time><name>PT7134</name></trkpt>
<trkpt lat="53.376224" lon="-1.752111"><ele>302</ele><time>2020-08-05T11:27:02Z</time><name>PT7135</name></trkpt>
<trkpt lat="53.376234" lon="-1.752124"><ele>302</ele><time>2020-08-05T11:27:03Z</time><name>PT7136</name></trkpt>
<trkpt lat="53.376242" lon="-1.752141"><ele>302</ele><time>2020-08-05T11:27:04Z</time><name>PT7137</name></trkpt>
<trkpt lat="53.376251" lon="-1.752155"><ele>302</ele><time>2020-08-05T11:27:05Z</time><name>PT7138</name></trkpt>
<trkpt lat="53.376257" lon="-1.752167"><ele>302</ele><time>2020-08-05T11:27:06Z</time><name>PT7139</name></trkpt>
<trkpt lat="53.376268" lon="-1.752175"><ele>303</ele><time>2020-08-05T11:27:07Z</time><name>PT7140</name></trkpt>
<trkpt lat="53.376277" lon="-1.752183"><ele>303</ele><time>2020-08-05T11:27:08Z</time><name>PT7141</name></trkpt>
<trkpt lat="53.376286" lon="-1.752196"><ele>303</ele><time>2020-08-05T11:27:09Z</time><name>PT7142</name></trkpt>
<trkpt lat="53.376294" lon="-1.752206"><ele>303</ele><time>2020-08-05T11:27:10Z</time><name>PT7143</name></trkpt>
<trkpt lat="53.376302" lon="-1.752215"><ele>303</ele><time>2020-08-05T11:27:11Z</time><name>PT7144</name></trkpt>
<trkpt lat="53.376311" lon="-1.752225"><ele>303</ele><time>2020-08-05T11:27:12Z</time><name>PT7145</name></trkpt>
<trkpt lat="53.376318" lon="-1.752233"><ele>303</ele><time>2020-08-05T11:27:13Z</time><name>PT7146</name></trkpt>
<trkpt lat="53.376326" lon="-1.752241"><ele>304</ele><time>2020-08-05T11:27:14Z</time><name>PT7147</name></trkpt>
<trkpt lat="53.376334" lon="-1.752253"><ele>304</ele><time>2020-08-05T11:27:15Z</time><name>PT7148</name></trkpt>
<trkpt lat="53.376339" lon="-1.752260"><ele>303</ele><time>2020-08-05T11:27:16Z</time><name>PT7149</name></trkpt>
<trkpt lat="53.376345" lon="-1.752263"><ele>304</ele><time>2020-08-05T11:27:17Z</time><name>PT7150</name></trkpt>
<trkpt lat="53.376355" lon="-1.752267"><ele>303</ele><time>2020-08-05T11:27:18Z</time><name>PT7151</name></trkpt>
<trkpt lat="53.376365" lon="-1.752278"><ele>303</ele><time>2020-08-05T11:27:19Z</time><name>PT7152</name></trkpt>
<trkpt lat="53.376371" lon="-1.752290"><ele>304</ele><time>2020-08-05T11:27:20Z</time><name>PT7153</name></trkpt>
<trkpt lat="53.376379" lon="-1.752299"><ele>304</ele><time>2020-08-05T11:27:21Z</time><name>PT7154</name></trkpt>
<trkpt lat="53.376385" lon="-1.752304"><ele>304</ele><time>2020-08-05T11:27:22Z</time><name>PT7155</name></trkpt>
<trkpt lat="53.376391" lon="-1.752316"><ele>305</ele><time>2020-08-05T11:27:23Z</time><name>PT7156</name></trkpt>
<trkpt lat="53.376401" lon="-1.752332"><ele>305</ele><time>2020-08-05T11:27:24Z</time><name>PT7157</name></trkpt>
<trkpt lat="53.376411" lon="-1.752335"><ele>306</ele><time>2020-08-05T11:27:25Z</time><name>PT7158</name></trkpt>
<trkpt lat="53.376420" lon="-1.752341"><ele>305</ele><time>2020-08-05T11:27:26Z</time><name>PT7159</name></trkpt>
<trkpt lat="53.376428" lon="-1.752354"><ele>306</ele><time>2020-08-05T11:27:27Z</time><name>PT7160</name></trkpt>
<trkpt lat="53.376431" lon="-1.752368"><ele>306</ele><time>2020-08-05T11:27:28Z</time><name>PT7161</name></trkpt>
<trkpt lat="53.376438" lon="-1.752380"><ele>306</ele><time>2020-08-05T11:27:29Z</time><name>PT7162</name></trkpt>
<trkpt lat="53.376444" lon="-1.752390"><ele>306</ele><time>2020-08-05T11:27:30Z</time><name>PT7163</name></trkpt>
<trkpt lat="53.376450" lon="-1.752397"><ele>306</ele><time>2020-08-05T11:27:31Z</time><name>PT7164</name></trkpt>
<trkpt lat="53.376457" lon="-1.752405"><ele>306</ele><time>2020-08-05T11:27:32Z</time><name>PT7165</name></trkpt>
<trkpt lat="53.376463" lon="-1.752414"><ele>307</ele><time>2020-08-05T11:27:33Z</time><name>PT7166</name></trkpt>
<trkpt lat="53.376470" lon="-1.752423"><ele>307</ele><time>2020-08-05T11:27:34Z</time><name>PT7167</name></trkpt>
<trkpt lat="53.376479" lon="-1.752435"><ele>307</ele><time>2020-08-05T11:27:35Z</time><name>PT7168</name></trkpt>
<trkpt lat="53.376484" lon="-1.752450"><ele>307</ele><time>2020-08-05T11:27:36Z</time><name>PT7169</name></trkpt>
<trkpt lat="53.376493" lon="-1.752467"><ele>307</ele><time>2020-08-05T11:27:37Z</time><name>PT7170</name></trkpt>
<trkpt lat="53.376502" lon="-1.752477"><ele>308</ele><time>2020-08-05T11:27:38Z</time><name>PT7171</name></trkpt>
<trkpt lat="53.376510" lon="-1.752487"><ele>308</ele><time>2020-08-05T11:27:39Z</time><name>PT7172</name></trkpt>
<trkpt lat="53.376517" lon="-1.752495"><ele>308</ele><time>2020-08-05T11:27:40Z</time><name>PT7173</name></trkpt>
<trkpt lat="53.376522" lon="-1.752512"><ele>308</ele><time>2020-08-05T11:27:41Z</time><name>PT7174</name></trkpt>
<trkpt lat="53.376530" lon="-1.752524"><ele>308</ele><time>2020-08-05T11:27:42Z</time><name>PT7175</name></trkpt>
<trkpt lat="53.376538" lon="-1.752532"><ele>308</ele><time>2020-08-05T11:27:43Z</time><name>PT7176</name></trkpt>
<trkpt lat="53.376548" lon="-1.752543"><ele>308</ele><time>2020-08-05T11:27:44Z</time><name>PT7177</name></trkpt>
<trkpt lat="53.376558" lon="-1.752546"><ele>308</ele><time>2020-08-05T11:27:45Z</time><name>PT7178</name></trkpt>
<trkpt lat="53.376568" lon="-1.752554"><ele>309</ele><time>2020-08-05T11:27:46Z</time><name>PT7179</name></trkpt>
<trkpt lat="53.376576" lon="-1.752565"><ele>309</ele><time>2020-08-05T11:27:47Z</time><name>PT7180</name></trkpt>
<trkpt lat="53.376584" lon="-1.752575"><ele>309</ele><time>2020-08-05T11:27:48Z</time><name>PT7181</name></trkpt>
<trkpt lat="53.376593" lon="-1.752585"><ele>309</ele><time>2020-08-05T11:27:49Z</time><name>PT7182</name></trkpt>
<trkpt lat="53.376603" lon="-1.752594"><ele>309</ele><time>2020-08-05T11:27:50Z</time><name>PT7183</name></trkpt>
<trkpt lat="53.376613" lon="-1.752601"><ele>309</ele><time>2020-08-05T11:27:51Z</time><name>PT7184</name></trkpt>
<trkpt lat="53.376624" lon="-1.752611"><ele>310</ele><time>2020-08-05T11:27:52Z</time><name>PT7185</name></trkpt>
<trkpt lat="53.376633" lon="-1.752625"><ele>310</ele><time>2020-08-05T11:27:53Z</time><name>PT7186</name></trkpt>
<trkpt lat="53.376643" lon="-1.752639"><ele>310</ele><time>2020-08-05T11:27:54Z</time><name>PT7187</name></trkpt>
<trkpt lat="53.376652" lon="-1.752648"><ele>310</ele><time>2020-08-05T11:27:55Z</time><name>PT7188</name></trkpt>
<trkpt lat="53.376660" lon="-1.752659"><ele>310</ele><time>2020-08-05T11:27:56Z</time><name>PT7189</name></trkpt>
<trkpt lat="53.376672" lon="-1.752678"><ele>310</ele><time>2020-08-05T11:27:57Z</time><name>PT7190</name></trkpt>
<trkpt lat="53.376680" lon="-1.752692"><ele>310</ele><time>2020-08-05T11:27:58Z</time><name>PT7191</name></trkpt>
<trkpt lat="53.376691" lon="-1.752702"><ele>311</ele><time>2020-08-05T11:27:59Z</time><name>PT7192</name></trkpt>
<trkpt lat="53.376700" lon="-1.752709"><ele>310</ele><time>2020-08-05T11:28:00Z</time><name>PT7193</name></trkpt>
<trkpt lat="53.376708" lon="-1.752718"><ele>310</ele><time>2020-08-05T11:28:01Z</time><name>PT7194</name></trkpt>
<trkpt lat="53.376717" lon="-1.752727"><ele>310</ele><time>2020-08-05T11:28:02Z</time><name>PT7195</name></trkpt>
<trkpt lat="53.376725" lon="-1.752735"><ele>310</ele><time>2020-08-05T11:28:03Z</time><name>PT7196</name></trkpt>
<trkpt lat="53.376733" lon="-1.752746"><ele>310</ele><time>2020-08-05T11:28:04Z</time><name>PT7197</name></trkpt>
<trkpt lat="53.376741" lon="-1.752755"><ele>310</ele><time>2020-08-05T11:28:05Z</time><name>PT7198</name></trkpt>
<trkpt lat="53.376751" lon="-1.752760"><ele>310</ele><time>2020-08-05T11:28:06Z</time><name>PT7199</name></trkpt>
<trkpt lat="53.376757" lon="-1.752765"><ele>310</ele><time>2020-08-05T11:28:07Z</time><name>PT7200</name></trkpt>
<trkpt lat="53.376766" lon="-1.752774"><ele>310</ele><time>2020-08-05T11:28:08Z</time><name>PT7201</name></trkpt>
<trkpt lat="53.376780" lon="-1.752784"><ele>310</ele><time>2020-08-05T11:28:09Z</time><name>PT7202</name></trkpt>
<trkpt lat="53.376788" lon="-1.752797"><ele>310</ele><time>2020-08-05T11:28:10Z</time><name>PT7203</name></trkpt>
<trkpt lat="53.376797" lon="-1.752807"><ele>310</ele><time>2020-08-05T11:28:11Z</time><name>PT7204</name></trkpt>
<trkpt lat="53.376804" lon="-1.752820"><ele>310</ele><time>2020-08-05T11:28:12Z</time><name>PT7205</name></trkpt>
<trkpt lat="53.376812" lon="-1.752828"><ele>310</ele><time>2020-08-05T11:28:13Z</time><name>PT7206</name></trkpt>
<trkpt lat="53.376821" lon="-1.752841"><ele>310</ele><time>2020-08-05T11:28:14Z</time><name>PT7207</name></trkpt>
<trkpt lat="53.376831" lon="-1.752850"><ele>310</ele><time>2020-08-05T11:28:15Z</time><name>PT7208</name></trkpt>
<trkpt lat="53.376840" lon="-1.752856"><ele>310</ele><time>2020-08-05T11:28:16Z</time><name>PT7209</name></trkpt>
<trkpt lat="53.376849" lon="-1.752866"><ele>310</ele><time>2020-08-05T11:28:17Z</time><name>PT7210</name></trkpt>
<trkpt lat="53.376859" lon="-1.752876"><ele>310</ele><time>2020-08-05T11:28:18Z</time><name>PT7211</name></trkpt>
<trkpt lat="53.376867" lon="-1.752887"><ele>309</ele><time>2020-08-05T11:28:19Z</time><name>PT7212</name></trkpt>
<trkpt lat="53.376878" lon="-1.752896"><ele>309</ele><time>2020-08-05T11:28:20Z</time><name>PT7213</name></trkpt>
<trkpt lat="53.376887" lon="-1.752902"><ele>309</ele><time>2020-08-05T11:28:21Z</time><name>PT7214</name></trkpt>
<trkpt lat="53.376900" lon="-1.752911"><ele>310</ele><time>2020-08-05T11:28:22Z</time><name>PT7215</name></trkpt>
<trkpt lat="53.376908" lon="-1.752923"><ele>310</ele><time>2020-08-05T11:28:23Z</time><name>PT7216</name></trkpt>
<trkpt lat="53.376917" lon="-1.752930"><ele>310</ele><time>2020-08-05T11:28:24Z</time><name>PT7217</name></trkpt>
<trkpt lat="53.376926" lon="-1.752938"><ele>310</ele><time>2020-08-05T11:28:25Z</time><name>PT7218</name></trkpt>
<trkpt lat="53.376935" lon="-1.752947"><ele>311</ele><time>2020-08-05T11:28:26Z</time><name>PT7219</name></trkpt>
<trkpt lat="53.376948" lon="-1.752954"><ele>311</ele><time>2020-08-05T11:28:27Z</time><name>PT7220</name></trkpt>
<trkpt lat="53.376958" lon="-1.752960"><ele>311</ele><time>2020-08-05T11:28:28Z</time><name>PT7221</name></trkpt>
<trkpt lat="53.376969" lon="-1.752969"><ele>311</ele><time>2020-08-05T11:28:29Z</time><name>PT7222</name></trkpt>
<trkpt lat="53.376980" lon="-1.752978"><ele>311</ele><time>2020-08-05T11:28:30Z</time><name>PT7223</name></trkpt>
<trkpt lat="53.376991" lon="-1.752986"><ele>311</ele><time>2020-08-05T11:28:31Z</time><name>PT7224</name></trkpt>
<trkpt lat="53.376999" lon="-1.752998"><ele>310</ele><time>2020-08-05T11:28:32Z</time><name>PT7225</name></trkpt>
<trkpt lat="53.377005" lon="-1.753005"><ele>310</ele><time>2020-08-05T11:28:33Z</time><name>PT7226</name></trkpt>
<trkpt lat="53.377014" lon="-1.753013"><ele>311</ele><time>2020-08-05T11:28:34Z</time><name>PT7227</name></trkpt>
<trkpt lat="53.377022" lon="-1.753024"><ele>311</ele><time>2020-08-05T11:28:35Z</time><name>PT7228</name></trkpt>
<trkpt lat="53.377033" lon="-1.753037"><ele>311</ele><time>2020-08-05T11:28:36Z</time><name>PT7229</name></trkpt>
<trkpt lat="53.377043" lon="-1.753051"><ele>311</ele><time>2020-08-05T11:28:37Z</time><name>PT7230</name></trkpt>
<trkpt lat="53.377051" lon="-1.753064"><ele>311</ele><time>2020-08-05T11:28:38Z</time><name>PT7231</name></trkpt>
<trkpt lat="53.377060" lon="-1.753080"><ele>311</ele><time>2020-08-05T11:28:39Z</time><name>PT7232</name></trkpt>
<trkpt lat="53.377070" lon="-1.753097"><ele>311</ele><time>2020-08-05T11:28:40Z</time><name>PT7233</name></trkpt>
<trkpt lat="53.377081" lon="-1.753106"><ele>311</ele><time>2020-08-05T11:28:41Z</time><name>PT7234</name></trkpt>
<trkpt lat="53.377091" lon="-1.753118"><ele>311</ele><time>2020-08-05T11:28:42Z</time><name>PT7235</name></trkpt>
<trkpt lat="53.377099" lon="-1.753129"><ele>311</ele><time>2020-08-05T11:28:43Z</time><name>PT7236</name></trkpt>
<trkpt lat="53.377107" lon="-1.753141"><ele>311</ele><time>2020-08-05T11:28:44Z</time><name>PT7237</name></trkpt>
<trkpt lat="53.377117" lon="-1.753154"><ele>311</ele><time>2020-08-05T11:28:45Z</time><name>PT7238</name></trkpt>
<trkpt lat="53.377126" lon="-1.753164"><ele>311</ele><time>2020-08-05T11:28:46Z</time><name>PT7239</name></trkpt>
<trkpt lat="53.377134" lon="-1.753177"><ele>312</ele><time>2020-08-05T11:28:47Z</time><name>PT7240</name></trkpt>
<trkpt lat="53.377144" lon="-1.753188"><ele>312</ele><time>2020-08-05T11:28:48Z</time><name>PT7241</name></trkpt>
<trkpt lat="53.377153" lon="-1.753195"><ele>312</ele><time>2020-08-05T11:28:49Z</time><name>PT7242</name></trkpt>
<trkpt lat="53.377165" lon="-1.753201"><ele>312</ele><time>2020-08-05T11:28:50Z</time><name>PT7243</name></trkpt>
<trkpt lat="53.377175" lon="-1.753212"><ele>312</ele><time>2020-08-05T11:28:51Z</time><name>PT7244</name></trkpt>
<trkpt lat="53.377184" lon="-1.753222"><ele>312</ele><time>2020-08-05T11:28:52Z</time><name>PT7245</name></trkpt>
<trkpt lat="53.377194" lon="-1.753228"><ele>312</ele><time>2020-08-05T11:28:53Z</time><name>PT7246</name></trkpt>
<trkpt lat="53.377203" lon="-1.753236"><ele>312</ele><time>2020-08-05T11:28:54Z</time><name>PT7247</name></trkpt>
<trkpt lat="53.377213" lon="-1.753246"><ele>312</ele><time>2020-08-05T11:28:55Z</time><name>PT7248</name></trkpt>
<trkpt lat="53.377223" lon="-1.753255"><ele>312</ele><time>2020-08-05T11:28:56Z</time><name>PT7249</name></trkpt>
<trkpt lat="53.377234" lon="-1.753262"><ele>312</ele><time>2020-08-05T11:28:57Z</time><name>PT7250</name></trkpt>
<trkpt lat="53.377243" lon="-1.753268"><ele>312</ele><time>2020-08-05T11:28:58Z</time><name>PT7251</name></trkpt>
<trkpt lat="53.377255" lon="-1.753278"><ele>313</ele><time>2020-08-05T11:28:59Z</time><name>PT7252</name></trkpt>
<trkpt lat="53.377267" lon="-1.753285"><ele>313</ele><time>2020-08-05T11:29:00Z</time><name>PT7253</name></trkpt>
<trkpt lat="53.377276" lon="-1.753290"><ele>312</ele><time>2020-08-05T11:29:01Z</time><name>PT7254</name></trkpt>
<trkpt lat="53.377285" lon="-1.753298"><ele>312</ele><time>2020-08-05T11:29:02Z</time><name>PT7255</name></trkpt>
<trkpt lat="53.377298" lon="-1.753317"><ele>313</ele><time>2020-08-05T11:29:03Z</time><name>PT7256</name></trkpt>
<trkpt lat="53.377309" lon="-1.753326"><ele>313</ele><time>2020-08-05T11:29:04Z</time><name>PT7257</name></trkpt>
<trkpt lat="53.377320" lon="-1.753333"><ele>313</ele><time>2020-08-05T11:29:05Z</time><name>PT7258</name></trkpt>
<trkpt lat="53.377332" lon="-1.753342"><ele>314</ele><time>2020-08-05T11:29:06Z</time><name>PT7259</name></trkpt>
<trkpt lat="53.377343" lon="-1.753347"><ele>314</ele><time>2020-08-05T11:29:07Z</time><name>PT7260</name></trkpt>
<trkpt lat="53.377352" lon="-1.753354"><ele>314</ele><time>2020-08-05T11:29:08Z</time><name>PT7261</name></trkpt>
<trkpt lat="53.377366" lon="-1.753362"><ele>314</ele><time>2020-08-05T11:29:09Z</time><name>PT7262</name></trkpt>
<trkpt lat="53.377378" lon="-1.753370"><ele>314</ele><time>2020-08-05T11:29:10Z</time><name>PT7263</name></trkpt>
<trkpt lat="53.377388" lon="-1.753380"><ele>315</ele><time>2020-08-05T11:29:11Z</time><name>PT7264</name></trkpt>
<trkpt lat="53.377398" lon="-1.753388"><ele>315</ele><time>2020-08-05T11:29:12Z</time><name>PT7265</name></trkpt>
<trkpt lat="53.377408" lon="-1.753403"><ele>315</ele><time>2020-08-05T11:29:13Z</time><name>PT7266</name></trkpt>
<trkpt lat="53.377417" lon="-1.753411"><ele>315</ele><time>2020-08-05T11:29:14Z</time><name>PT7267</name></trkpt>
<trkpt lat="53.377428" lon="-1.753420"><ele>314</ele><time>2020-08-05T11:29:15Z</time><name>PT7268</name></trkpt>
<trkpt lat="53.377440" lon="-1.753429"><ele>315</ele><time>2020-08-05T11:29:16Z</time><name>PT7269</name></trkpt>
<trkpt lat="53.377450" lon="-1.753432"><ele>315</ele><time>2020-08-05T11:29:17Z</time><name>PT7270</name></trkpt>
<trkpt lat="53.377460" lon="-1.753437"><ele>315</ele><time>2020-08-05T11:29:18Z</time><name>PT7271</name></trkpt>
<trkpt lat="53.377471" lon="-1.753441"><ele>315</ele><time>2020-08-05T11:29:19Z</time><name>PT7272</name></trkpt>
<trkpt lat="53.377481" lon="-1.753446"><ele>314</ele><time>2020-08-05T11:29:20Z</time><name>PT7273</name></trkpt>
<trkpt lat="53.377491" lon="-1.753450"><ele>314</ele><time>2020-08-05T11:29:21Z</time><name>PT7274</name></trkpt>
<trkpt lat="53.377502" lon="-1.753458"><ele>314</ele><time>2020-08-05T11:29:22Z</time><name>PT7275</name></trkpt>
<trkpt lat="53.377514" lon="-1.753468"><ele>314</ele><time>2020-08-05T11:29:23Z</time><name>PT7276</name></trkpt>
<trkpt lat="53.377524" lon="-1.753474"><ele>314</ele><time>2020-08-05T11:29:24Z</time><name>PT7277</name></trkpt>
<trkpt lat="53.377534" lon="-1.753478"><ele>314</ele><time>2020-08-05T11:29:25Z</time><name>PT7278</name></trkpt>
<trkpt lat="53.377545" lon="-1.753482"><ele>314</ele><time>2020-08-05T11:29:26Z</time><name>PT7279</name></trkpt>
<trkpt lat="53.377554" lon="-1.753494"><ele>314</ele><time>2020-08-05T11:29:27Z</time><name>PT7280</name></trkpt>
<trkpt lat="53.377565" lon="-1.753507"><ele>314</ele><time>2020-08-05T11:29:28Z</time><name>PT7281</name></trkpt>
<trkpt lat="53.377577" lon="-1.753515"><ele>314</ele><time>2020-08-05T11:29:29Z</time><name>PT7282</name></trkpt>
<trkpt lat="53.377590" lon="-1.753517"><ele>314</ele><time>2020-08-05T11:29:30Z</time><name>PT7283</name></trkpt>
<trkpt lat="53.377601" lon="-1.753518"><ele>315</ele><time>2020-08-05T11:29:31Z</time><name>PT7284</name></trkpt>
<trkpt lat="53.377611" lon="-1.753527"><ele>315</ele><time>2020-08-05T11:29:32Z</time><name>PT7285</name></trkpt>
<trkpt lat="53.377625" lon="-1.753540"><ele>315</ele><time>2020-08-05T11:29:33Z</time><name>PT7286</name></trkpt>
<trkpt lat="53.377640" lon="-1.753544"><ele>315</ele><time>2020-08-05T11:29:34Z</time><name>PT7287</name></trkpt>
<trkpt lat="53.377652" lon="-1.753547"><ele>316</ele><time>2020-08-05T11:29:35Z</time><name>PT7288</name></trkpt>
<trkpt lat="53.377664" lon="-1.753554"><ele>316</ele><time>2020-08-05T11:29:36Z</time><name>PT7289</name></trkpt>
<trkpt lat="53.377674" lon="-1.753561"><ele>316</ele><time>2020-08-05T11:29:37Z</time><name>PT7290</name></trkpt>
<trkpt lat="53.377686" lon="-1.753573"><ele>316</ele><time>2020-08-05T11:29:38Z</time><name>PT7291</name></trkpt>
<trkpt lat="53.377697" lon="-1.753585"><ele>316</ele><time>2020-08-05T11:29:39Z</time><name>PT7292</name></trkpt>
<trkpt lat="53.377708" lon="-1.753595"><ele>316</ele><time>2020-08-05T11:29:40Z</time><name>PT7293</name></trkpt>
<trkpt lat="53.377717" lon="-1.753607"><ele>316</ele><time>2020-08-05T11:29:41Z</time><name>PT7294</name></trkpt>
<trkpt lat="53.377728" lon="-1.753615"><ele>316</ele><time>2020-08-05T11:29:42Z</time><name>PT7295</name></trkpt>
<trkpt lat="53.377738" lon="-1.753622"><ele>316</ele><time>2020-08-05T11:29:43Z</time><name>PT7296</name></trkpt>
<trkpt lat="53.377749" lon="-1.753636"><ele>317</ele><time>2020-08-05T11:29:44Z</time><name>PT7297</name></trkpt>
<trkpt lat="53.377761" lon="-1.753648"><ele>317</ele><time>2020-08-05T11:29:45Z</time><name>PT7298</name></trkpt>
<trkpt lat="53.377772" lon="-1.753663"><ele>317</ele><time>2020-08-05T11:29:46Z</time><name>PT7299</name></trkpt>
<trkpt lat="53.377784" lon="-1.753674"><ele>318</ele><time>2020-08-05T11:29:47Z</time><name>PT7300</name></trkpt>
<trkpt lat="53.377793" lon="-1.753685"><ele>318</ele><time>2020-08-05T11:29:48Z</time><name>PT7301</name></trkpt>
<trkpt lat="53.377801" lon="-1.753696"><ele>319</ele><time>2020-08-05T11:29:49Z</time><name>PT7302</name></trkpt>
<trkpt lat="53.377811" lon="-1.753709"><ele>319</ele><time>2020-08-05T11:29:50Z</time><name>PT7303</name></trkpt>
<trkpt lat="53.377819" lon="-1.753721"><ele>319</ele><time>2020-08-05T11:29:51Z</time><name>PT7304</name></trkpt>
<trkpt lat="53.377829" lon="-1.753733"><ele>319</ele><time>2020-08-05T11:29:52Z</time><name>PT7305</name></trkpt>
<trkpt lat="53.377839" lon="-1.753746"><ele>319</ele><time>2020-08-05T11:29:53Z</time><name>PT7306</name></trkpt>
<trkpt lat="53.377847" lon="-1.753758"><ele>319</ele><time>2020-08-05T11:29:54Z</time><name>PT7307</name></trkpt>
<trkpt lat="53.377855" lon="-1.753771"><ele>319</ele><time>2020-08-05T11:29:55Z</time><name>PT7308</name></trkpt>
<trkpt lat="53.377864" lon="-1.753786"><ele>319</ele><time>2020-08-05T11:29:56Z</time><name>PT7309</name></trkpt>
<trkpt lat="53.377873" lon="-1.753797"><ele>319</ele><time>2020-08-05T11:29:57Z</time><name>PT7310</name></trkpt>
<trkpt lat="53.377881" lon="-1.753810"><ele>319</ele><time>2020-08-05T11:29:58Z</time><name>PT7311</name></trkpt>
<trkpt lat="53.377889" lon="-1.753830"><ele>320</ele><time>2020-08-05T11:29:59Z</time><name>PT7312</name></trkpt>
<trkpt lat="53.377897" lon="-1.753841"><ele>320</ele><time>2020-08-05T11:30:00Z</time><name>PT7313</name></trkpt>
<trkpt lat="53.377904" lon="-1.753856"><ele>320</ele><time>2020-08-05T11:30:01Z</time><name>PT7314</name></trkpt>
<trkpt lat="53.377913" lon="-1.753869"><ele>320</ele><time>2020-08-05T11:30:02Z</time><name>PT7315</name></trkpt>
<trkpt lat="53.377921" lon="-1.753881"><ele>320</ele><time>2020-08-05T11:30:03Z</time><name>PT7316</name></trkpt>
<trkpt lat="53.377930" lon="-1.753890"><ele>320</ele><time>2020-08-05T11:30:04Z</time><name>PT7317</name></trkpt>
<trkpt lat="53.377939" lon="-1.753900"><ele>320</ele><time>2020-08-05T11:30:05Z</time><name>PT7318</name></trkpt>
<trkpt lat="53.377949" lon="-1.753909"><ele>320</ele><time>2020-08-05T11:30:06Z</time><name>PT7319</name></trkpt>
<trkpt lat="53.377957" lon="-1.753923"><ele>319</ele><time>2020-08-05T11:30:07Z</time><name>PT7320</name></trkpt>
<trkpt lat="53.377965" lon="-1.753936"><ele>319</ele><time>2020-08-05T11:30:08Z</time><name>PT7321</name></trkpt>
<trkpt lat="53.377972" lon="-1.753948"><ele>319</ele><time>2020-08-05T11:30:09Z</time><name>PT7322</name></trkpt>
<trkpt lat="53.377978" lon="-1.753960"><ele>319</ele><time>2020-08-05T11:30:10Z</time><name>PT7323</name></trkpt>
<trkpt lat="53.377982" lon="-1.753963"><ele>319</ele><time>2020-08-05T11:30:11Z</time><name>PT7324</name></trkpt>
<trkpt lat="53.377985" lon="-1.753968"><ele>320</ele><time>2020-08-05T11:30:12Z</time><name>PT7325</name></trkpt>
<trkpt lat="53.377985" lon="-1.753973"><ele>319</ele><time>2020-08-05T11:30:13Z</time><name>PT7326</name></trkpt>
<trkpt lat="53.377989" lon="-1.753980"><ele>318</ele><time>2020-08-05T11:30:14Z</time><name>PT7327</name></trkpt>
<trkpt lat="53.377993" lon="-1.753983"><ele>318</ele><time>2020-08-05T11:30:15Z</time><name>PT7328</name></trkpt>
<trkpt lat="53.378000" lon="-1.753987"><ele>318</ele><time>2020-08-05T11:30:16Z</time><name>PT7329</name></trkpt>
<trkpt lat="53.378010" lon="-1.754000"><ele>318</ele><time>2020-08-05T11:30:17Z</time><name>PT7330</name></trkpt>
<trkpt lat="53.378020" lon="-1.754007"><ele>319</ele><time>2020-08-05T11:30:18Z</time><name>PT7331</name></trkpt>
<trkpt lat="53.378026" lon="-1.754011"><ele>319</ele><time>2020-08-05T11:30:19Z</time><name>PT7332</name></trkpt>
<trkpt lat="53.378030" lon="-1.754011"><ele>319</ele><time>2020-08-05T11:30:20Z</time><name>PT7333</name></trkpt>
<trkpt lat="53.378030" lon="-1.754010"><ele>319</ele><time>2020-08-05T11:30:21Z</time><name>PT7334</name></trkpt>
<trkpt lat="53.378029" lon="-1.754011"><ele>319</ele><time>2020-08-05T11:30:22Z</time><name>PT7335</name></trkpt>
<trkpt lat="53.378028" lon="-1.754012"><ele>319</ele><time>2020-08-05T11:30:23Z</time><name>PT7336</name></trkpt>
<trkpt lat="53.378032" lon="-1.754015"><ele>319</ele><time>2020-08-05T11:30:25Z</time><name>PT7337</name></trkpt>
<trkpt lat="53.378039" lon="-1.754018"><ele>319</ele><time>2020-08-05T11:30:26Z</time><name>PT7338</name></trkpt>
<trkpt lat="53.378049" lon="-1.754026"><ele>319</ele><time>2020-08-05T11:30:27Z</time><name>PT7339</name></trkpt>
<trkpt lat="53.378059" lon="-1.754030"><ele>319</ele><time>2020-08-05T11:30:28Z</time><name>PT7340</name></trkpt>
<trkpt lat="53.378073" lon="-1.754044"><ele>319</ele><time>2020-08-05T11:30:29Z</time><name>PT7341</name></trkpt>
<trkpt lat="53.378087" lon="-1.754049"><ele>319</ele><time>2020-08-05T11:30:30Z</time><name>PT7342</name></trkpt>
<trkpt lat="53.378101" lon="-1.754052"><ele>319</ele><time>2020-08-05T11:30:31Z</time><name>PT7343</name></trkpt>
<trkpt lat="53.378112" lon="-1.754054"><ele>319</ele><time>2020-08-05T11:30:32Z</time><name>PT7344</name></trkpt>
<trkpt lat="53.378123" lon="-1.754063"><ele>319</ele><time>2020-08-05T11:30:33Z</time><name>PT7345</name></trkpt>
<trkpt lat="53.378134" lon="-1.754067"><ele>319</ele><time>2020-08-05T11:30:34Z</time><name>PT7346</name></trkpt>
<trkpt lat="53.378145" lon="-1.754069"><ele>319</ele><time>2020-08-05T11:30:35Z</time><name>PT7347</name></trkpt>
<trkpt lat="53.378155" lon="-1.754074"><ele>319</ele><time>2020-08-05T11:30:36Z</time><name>PT7348</name></trkpt>
<trkpt lat="53.378165" lon="-1.754080"><ele>319</ele><time>2020-08-05T11:30:37Z</time><name>PT7349</name></trkpt>
<trkpt lat="53.378182" lon="-1.754081"><ele>319</ele><time>2020-08-05T11:30:38Z</time><name>PT7350</name></trkpt>
<trkpt lat="53.378193" lon="-1.754087"><ele>319</ele><time>2020-08-05T11:30:39Z</time><name>PT7351</name></trkpt>
<trkpt lat="53.378204" lon="-1.754096"><ele>319</ele><time>2020-08-05T11:30:40Z</time><name>PT7352</name></trkpt>
<trkpt lat="53.378213" lon="-1.754101"><ele>319</ele><time>2020-08-05T11:30:41Z</time><name>PT7353</name></trkpt>
<trkpt lat="53.378220" lon="-1.754110"><ele>319</ele><time>2020-08-05T11:30:42Z</time><name>PT7354</name></trkpt>
<trkpt lat="53.378230" lon="-1.754118"><ele>319</ele><time>2020-08-05T11:30:43Z</time><name>PT7355</name></trkpt>
<trkpt lat="53.378241" lon="-1.754125"><ele>320</ele><time>2020-08-05T11:30:44Z</time><name>PT7356</name></trkpt>
<trkpt lat="53.378251" lon="-1.754131"><ele>320</ele><time>2020-08-05T11:30:45Z</time><name>PT7357</name></trkpt>
<trkpt lat="53.378263" lon="-1.754141"><ele>320</ele><time>2020-08-05T11:30:46Z</time><name>PT7358</name></trkpt>
<trkpt lat="53.378274" lon="-1.754151"><ele>320</ele><time>2020-08-05T11:30:47Z</time><name>PT7359</name></trkpt>
<trkpt lat="53.378285" lon="-1.754160"><ele>321</ele><time>2020-08-05T11:30:48Z</time><name>PT7360</name></trkpt>
<trkpt lat="53.378293" lon="-1.754166"><ele>321</ele><time>2020-08-05T11:30:49Z</time><name>PT7361</name></trkpt>
<trkpt lat="53.378302" lon="-1.754172"><ele>321</ele><time>2020-08-05T11:30:50Z</time><name>PT7362</name></trkpt>
<trkpt lat="53.378310" lon="-1.754178"><ele>322</ele><time>2020-08-05T11:30:51Z</time><name>PT7363</name></trkpt>
<trkpt lat="53.378323" lon="-1.754185"><ele>322</ele><time>2020-08-05T11:30:52Z</time><name>PT7364</name></trkpt>
<trkpt lat="53.378335" lon="-1.754194"><ele>322</ele><time>2020-08-05T11:30:53Z</time><name>PT7365</name></trkpt>
<trkpt lat="53.378342" lon="-1.754205"><ele>322</ele><time>2020-08-05T11:30:54Z</time><name>PT7366</name></trkpt>
<trkpt lat="53.378352" lon="-1.754214"><ele>322</ele><time>2020-08-05T11:30:55Z</time><name>PT7367</name></trkpt>
<trkpt lat="53.378361" lon="-1.754222"><ele>322</ele><time>2020-08-05T11:30:56Z</time><name>PT7368</name></trkpt>
<trkpt lat="53.378371" lon="-1.754229"><ele>322</ele><time>2020-08-05T11:30:57Z</time><name>PT7369</name></trkpt>
<trkpt lat="53.378380" lon="-1.754230"><ele>321</ele><time>2020-08-05T11:30:58Z</time><name>PT7370</name></trkpt>
<trkpt lat="53.378393" lon="-1.754238"><ele>322</ele><time>2020-08-05T11:30:59Z</time><name>PT7371</name></trkpt>
<trkpt lat="53.378404" lon="-1.754249"><ele>322</ele><time>2020-08-05T11:31:00Z</time><name>PT7372</name></trkpt>
<trkpt lat="53.378415" lon="-1.754261"><ele>322</ele><time>2020-08-05T11:31:01Z</time><name>PT7373</name></trkpt>
<trkpt lat="53.378428" lon="-1.754273"><ele>323</ele><time>2020-08-05T11:31:02Z</time><name>PT7374</name></trkpt>
<trkpt lat="53.378440" lon="-1.754283"><ele>323</ele><time>2020-08-05T11:31:03Z</time><name>PT7375</name></trkpt>
<trkpt lat="53.378449" lon="-1.754290"><ele>323</ele><time>2020-08-05T11:31:04Z</time><name>PT7376</name></trkpt>
<trkpt lat="53.378460" lon="-1.754294"><ele>323</ele><time>2020-08-05T11:31:05Z</time><name>PT7377</name></trkpt>
<trkpt lat="53.378469" lon="-1.754297"><ele>322</ele><time>2020-08-05T11:31:06Z</time><name>PT7378</name></trkpt>
<trkpt lat="53.378477" lon="-1.754305"><ele>322</ele><time>2020-08-05T11:31:07Z</time><name>PT7379</name></trkpt>
<trkpt lat="53.378487" lon="-1.754315"><ele>322</ele><time>2020-08-05T11:31:08Z</time><name>PT7380</name></trkpt>
<trkpt lat="53.378503" lon="-1.754329"><ele>323</ele><time>2020-08-05T11:31:09Z</time><name>PT7381</name></trkpt>
<trkpt lat="53.378514" lon="-1.754336"><ele>323</ele><time>2020-08-05T11:31:10Z</time><name>PT7382</name></trkpt>
<trkpt lat="53.378523" lon="-1.754346"><ele>323</ele><time>2020-08-05T11:31:11Z</time><name>PT7383</name></trkpt>
<trkpt lat="53.378532" lon="-1.754356"><ele>323</ele><time>2020-08-05T11:31:12Z</time><name>PT7384</name></trkpt>
<trkpt lat="53.378541" lon="-1.754365"><ele>323</ele><time>2020-08-05T11:31:13Z</time><name>PT7385</name></trkpt>
<trkpt lat="53.378549" lon="-1.754375"><ele>323</ele><time>2020-08-05T11:31:14Z</time><name>PT7386</name></trkpt>
<trkpt lat="53.378560" lon="-1.754386"><ele>323</ele><time>2020-08-05T11:31:15Z</time><name>PT7387</name></trkpt>
<trkpt lat="53.378571" lon="-1.754392"><ele>323</ele><time>2020-08-05T11:31:16Z</time><name>PT7388</name></trkpt>
<trkpt lat="53.378580" lon="-1.754399"><ele>323</ele><time>2020-08-05T11:31:17Z</time><name>PT7389</name></trkpt>
<trkpt lat="53.378591" lon="-1.754406"><ele>323</ele><time>2020-08-05T11:31:18Z</time><name>PT7390</name></trkpt>
<trkpt lat="53.378598" lon="-1.754411"><ele>322</ele><time>2020-08-05T11:31:19Z</time><name>PT7391</name></trkpt>
<trkpt lat="53.378610" lon="-1.754420"><ele>323</ele><time>2020-08-05T11:31:19Z</time><name>PT7392</name></trkpt>
<trkpt lat="53.378619" lon="-1.754425"><ele>322</ele><time>2020-08-05T11:31:21Z</time><name>PT7393</name></trkpt>
<trkpt lat="53.378629" lon="-1.754432"><ele>323</ele><time>2020-08-05T11:31:22Z</time><name>PT7394</name></trkpt>
<trkpt lat="53.378640" lon="-1.754440"><ele>323</ele><time>2020-08-05T11:31:23Z</time><name>PT7395</name></trkpt>
<trkpt lat="53.378651" lon="-1.754449"><ele>323</ele><time>2020-08-05T11:31:24Z</time><name>PT7396</name></trkpt>
<trkpt lat="53.378665" lon="-1.754457"><ele>323</ele><time>2020-08-05T11:31:25Z</time><name>PT7397</name></trkpt>
<trkpt lat="53.378675" lon="-1.754463"><ele>323</ele><time>2020-08-05T11:31:26Z</time><name>PT7398</name></trkpt>
<trkpt lat="53.378684" lon="-1.754470"><ele>324</ele><time>2020-08-05T11:31:27Z</time><name>PT7399</name></trkpt>
<trkpt lat="53.378695" lon="-1.754480"><ele>323</ele><time>2020-08-05T11:31:28Z</time><name>PT7400</name></trkpt>
<trkpt lat="53.378706" lon="-1.754492"><ele>324</ele><time>2020-08-05T11:31:29Z</time><name>PT7401</name></trkpt>
<trkpt lat="53.378716" lon="-1.754500"><ele>324</ele><time>2020-08-05T11:31:30Z</time><name>PT7402</name></trkpt>
<trkpt lat="53.378727" lon="-1.754509"><ele>324</ele><time>2020-08-05T11:31:31Z</time><name>PT7403</name></trkpt>
<trkpt lat="53.378738" lon="-1.754519"><ele>324</ele><time>2020-08-05T11:31:32Z</time><name>PT7404</name></trkpt>
<trkpt lat="53.378747" lon="-1.754528"><ele>324</ele><time>2020-08-05T11:31:33Z</time><name>PT7405</name></trkpt>
<trkpt lat="53.378754" lon="-1.754537"><ele>324</ele><time>2020-08-05T11:31:34Z</time><name>PT7406</name></trkpt>
<trkpt lat="53.378764" lon="-1.754547"><ele>323</ele><time>2020-08-05T11:31:35Z</time><name>PT7407</name></trkpt>
<trkpt lat="53.378777" lon="-1.754558"><ele>323</ele><time>2020-08-05T11:31:36Z</time><name>PT7408</name></trkpt>
<trkpt lat="53.378787" lon="-1.754565"><ele>323</ele><time>2020-08-05T11:31:37Z</time><name>PT7409</name></trkpt>
<trkpt lat="53.378796" lon="-1.754571"><ele>324</ele><time>2020-08-05T11:31:38Z</time><name>PT7410</name></trkpt>
<trkpt lat="53.378806" lon="-1.754579"><ele>323</ele><time>2020-08-05T11:31:39Z</time><name>PT7411</name></trkpt>
<trkpt lat="53.378818" lon="-1.754590"><ele>324</ele><time>2020-08-05T11:31:40Z</time><name>PT7412</name></trkpt>
<trkpt lat="53.378827" lon="-1.754598"><ele>324</ele><time>2020-08-05T11:31:41Z</time><name>PT7413</name></trkpt>
<trkpt lat="53.378836" lon="-1.754607"><ele>324</ele><time>2020-08-05T11:31:42Z</time><name>PT7414</name></trkpt>
<trkpt lat="53.378846" lon="-1.754619"><ele>324</ele><time>2020-08-05T11:31:43Z</time><name>PT7415</name></trkpt>
<trkpt lat="53.378854" lon="-1.754629"><ele>324</ele><time>2020-08-05T11:31:44Z</time><name>PT7416</name></trkpt>
<trkpt lat="53.378864" lon="-1.754636"><ele>324</ele><time>2020-08-05T11:31:45Z</time><name>PT7417</name></trkpt>
<trkpt lat="53.378874" lon="-1.754641"><ele>325</ele><time>2020-08-05T11:31:46Z</time><name>PT7418</name></trkpt>
<trkpt lat="53.378887" lon="-1.754646"><ele>325</ele><time>2020-08-05T11:31:47Z</time><name>PT7419</name></trkpt>
<trkpt lat="53.378896" lon="-1.754651"><ele>325</ele><time>2020-08-05T11:31:48Z</time><name>PT7420</name></trkpt>
<trkpt lat="53.378907" lon="-1.754659"><ele>325</ele><time>2020-08-05T11:31:49Z</time><name>PT7421</name></trkpt>
<trkpt lat="53.378918" lon="-1.754665"><ele>325</ele><time>2020-08-05T11:31:50Z</time><name>PT7422</name></trkpt>
<trkpt lat="53.378927" lon="-1.754676"><ele>325</ele><time>2020-08-05T11:31:51Z</time><name>PT7423</name></trkpt>
<trkpt lat="53.378934" lon="-1.754686"><ele>325</ele><time>2020-08-05T11:31:52Z</time><name>PT7424</name></trkpt>
<trkpt lat="53.378943" lon="-1.754694"><ele>325</ele><time>2020-08-05T11:31:53Z</time><name>PT7425</name></trkpt>
<trkpt lat="53.378950" lon="-1.754699"><ele>325</ele><time>2020-08-05T11:31:54Z</time><name>PT7426</name></trkpt>
<trkpt lat="53.378959" lon="-1.754706"><ele>326</ele><time>2020-08-05T11:31:55Z</time><name>PT7427</name></trkpt>
<trkpt lat="53.378969" lon="-1.754715"><ele>326</ele><time>2020-08-05T11:31:56Z</time><name>PT7428</name></trkpt>
<trkpt lat="53.378978" lon="-1.754723"><ele>326</ele><time>2020-08-05T11:31:57Z</time><name>PT7429</name></trkpt>
<trkpt lat="53.378988" lon="-1.754733"><ele>326</ele><time>2020-08-05T11:31:58Z</time><name>PT7430</name></trkpt>
<trkpt lat="53.378996" lon="-1.754739"><ele>326</ele><time>2020-08-05T11:31:59Z</time><name>PT7431</name></trkpt>
<trkpt lat="53.379003" lon="-1.754742"><ele>327</ele><time>2020-08-05T11:32:00Z</time><name>PT7432</name></trkpt>
<trkpt lat="53.379009" lon="-1.754748"><ele>327</ele><time>2020-08-05T11:32:01Z</time><name>PT7433</name></trkpt>
<trkpt lat="53.379011" lon="-1.754750"><ele>326</ele><time>2020-08-05T11:32:02Z</time><name>PT7434</name></trkpt>
<trkpt lat="53.379012" lon="-1.754751"><ele>326</ele><time>2020-08-05T11:32:03Z</time><name>PT7435</name></trkpt>
<trkpt lat="53.379017" lon="-1.754751"><ele>327</ele><time>2020-08-05T11:32:04Z</time><name>PT7436</name></trkpt>
<trkpt lat="53.379018" lon="-1.754752"><ele>327</ele><time>2020-08-05T11:32:05Z</time><name>PT7437</name></trkpt>
<trkpt lat="53.379019" lon="-1.754753"><ele>327</ele><time>2020-08-05T11:32:06Z</time><name>PT7438</name></trkpt>
<trkpt lat="53.379020" lon="-1.754753"><ele>327</ele><time>2020-08-05T11:32:07Z</time><name>PT7439</name></trkpt>
<trkpt lat="53.379033" lon="-1.754762"><ele>327</ele><time>2020-08-05T11:32:13Z</time><name>PT7440</name></trkpt>
<trkpt lat="53.379042" lon="-1.754767"><ele>327</ele><time>2020-08-05T11:32:14Z</time><name>PT7441</name></trkpt>
<trkpt lat="53.379053" lon="-1.754773"><ele>327</ele><time>2020-08-05T11:32:15Z</time><name>PT7442</name></trkpt>
<trkpt lat="53.379064" lon="-1.754779"><ele>327</ele><time>2020-08-05T11:32:16Z</time><name>PT7443</name></trkpt>
<trkpt lat="53.379076" lon="-1.754793"><ele>327</ele><time>2020-08-05T11:32:17Z</time><name>PT7444</name></trkpt>
<trkpt lat="53.379088" lon="-1.754801"><ele>326</ele><time>2020-08-05T11:32:18Z</time><name>PT7445</name></trkpt>
<trkpt lat="53.379098" lon="-1.754811"><ele>326</ele><time>2020-08-05T11:32:19Z</time><name>PT7446</name></trkpt>
<trkpt lat="53.379111" lon="-1.754822"><ele>326</ele><time>2020-08-05T11:32:20Z</time><name>PT7447</name></trkpt>
<trkpt lat="53.379125" lon="-1.754828"><ele>327</ele><time>2020-08-05T11:32:21Z</time><name>PT7448</name></trkpt>
<trkpt lat="53.379132" lon="-1.754840"><ele>327</ele><time>2020-08-05T11:32:22Z</time><name>PT7449</name></trkpt>
<trkpt lat="53.379141" lon="-1.754848"><ele>328</ele><time>2020-08-05T11:32:23Z</time><name>PT7450</name></trkpt>
<trkpt lat="53.379148" lon="-1.754858"><ele>328</ele><time>2020-08-05T11:32:24Z</time><name>PT7451</name></trkpt>
<trkpt lat="53.379156" lon="-1.754871"><ele>328</ele><time>2020-08-05T11:32:25Z</time><name>PT7452</name></trkpt>
<trkpt lat="53.379160" lon="-1.754879"><ele>328</ele><time>2020-08-05T11:32:26Z</time><name>PT7453</name></trkpt>
<trkpt lat="53.379157" lon="-1.754884"><ele>328</ele><time>2020-08-05T11:32:27Z</time><name>PT7454</name></trkpt>
<trkpt lat="53.379157" lon="-1.754886"><ele>328</ele><time>2020-08-05T11:32:28Z</time><name>PT7455</name></trkpt>
<trkpt lat="53.379164" lon="-1.754896"><ele>328</ele><time>2020-08-05T11:32:29Z</time><name>PT7456</name></trkpt>
<trkpt lat="53.379172" lon="-1.754899"><ele>328</ele><time>2020-08-05T11:32:30Z</time><name>PT7457</name></trkpt>
<trkpt lat="53.379183" lon="-1.754910"><ele>328</ele><time>2020-08-05T11:32:31Z</time><name>PT7458</name></trkpt>
<trkpt lat="53.379193" lon="-1.754921"><ele>328</ele><time>2020-08-05T11:32:32Z</time><name>PT7459</name></trkpt>
<trkpt lat="53.379202" lon="-1.754926"><ele>329</ele><time>2020-08-05T11:32:33Z</time><name>PT7460</name></trkpt>
<trkpt lat="53.379209" lon="-1.754934"><ele>329</ele><time>2020-08-05T11:32:34Z</time><name>PT7461</name></trkpt>
<trkpt lat="53.379215" lon="-1.754941"><ele>329</ele><time>2020-08-05T11:32:35Z</time><name>PT7462</name></trkpt>
<trkpt lat="53.379224" lon="-1.754948"><ele>329</ele><time>2020-08-05T11:32:36Z</time><name>PT7463</name></trkpt>
<trkpt lat="53.379235" lon="-1.754954"><ele>329</ele><time>2020-08-05T11:32:37Z</time><name>PT7464</name></trkpt>
<trkpt lat="53.379242" lon="-1.754959"><ele>329</ele><time>2020-08-05T11:32:38Z</time><name>PT7465</name></trkpt>
<trkpt lat="53.379251" lon="-1.754966"><ele>329</ele><time>2020-08-05T11:32:39Z</time><name>PT7466</name></trkpt>
<trkpt lat="53.379259" lon="-1.754973"><ele>330</ele><time>2020-08-05T11:32:40Z</time><name>PT7467</name></trkpt>
<trkpt lat="53.379266" lon="-1.754983"><ele>330</ele><time>2020-08-05T11:32:41Z</time><name>PT7468</name></trkpt>
<trkpt lat="53.379275" lon="-1.754990"><ele>330</ele><time>2020-08-05T11:32:42Z</time><name>PT7469</name></trkpt>
<trkpt lat="53.379284" lon="-1.755000"><ele>330</ele><time>2020-08-05T11:32:43Z</time><name>PT7470</name></trkpt>
<trkpt lat="53.379291" lon="-1.755010"><ele>330</ele><time>2020-08-05T11:32:44Z</time><name>PT7471</name></trkpt>
<trkpt lat="53.379299" lon="-1.755017"><ele>330</ele><time>2020-08-05T11:32:45Z</time><name>PT7472</name></trkpt>
<trkpt lat="53.379310" lon="-1.755024"><ele>329</ele><time>2020-08-05T11:32:46Z</time><name>PT7473</name></trkpt>
<trkpt lat="53.379320" lon="-1.755032"><ele>329</ele><time>2020-08-05T11:32:47Z</time><name>PT7474</name></trkpt>
<trkpt lat="53.379336" lon="-1.755040"><ele>329</ele><time>2020-08-05T11:32:48Z</time><name>PT7475</name></trkpt>
<trkpt lat="53.379345" lon="-1.755049"><ele>329</ele><time>2020-08-05T11:32:49Z</time><name>PT7476</name></trkpt>
<trkpt lat="53.379354" lon="-1.755058"><ele>329</ele><time>2020-08-05T11:32:50Z</time><name>PT7477</name></trkpt>
<trkpt lat="53.379365" lon="-1.755062"><ele>328</ele><time>2020-08-05T11:32:51Z</time><name>PT7478</name></trkpt>
<trkpt lat="53.379374" lon="-1.755065"><ele>328</ele><time>2020-08-05T11:32:52Z</time><name>PT7479</name></trkpt>
<trkpt lat="53.379385" lon="-1.755071"><ele>327</ele><time>2020-08-05T11:32:53Z</time><name>PT7480</name></trkpt>
<trkpt lat="53.379396" lon="-1.755084"><ele>328</ele><time>2020-08-05T11:32:54Z</time><name>PT7481</name></trkpt>
<trkpt lat="53.379407" lon="-1.755095"><ele>328</ele><time>2020-08-05T11:32:55Z</time><name>PT7482</name></trkpt>
<trkpt lat="53.379415" lon="-1.755100"><ele>328</ele><time>2020-08-05T11:32:56Z</time><name>PT7483</name></trkpt>
<trkpt lat="53.379424" lon="-1.755108"><ele>328</ele><time>2020-08-05T11:32:57Z</time><name>PT7484</name></trkpt>
<trkpt lat="53.379435" lon="-1.755113"><ele>327</ele><time>2020-08-05T11:32:58Z</time><name>PT7485</name></trkpt>
<trkpt lat="53.379439" lon="-1.755123"><ele>327</ele><time>2020-08-05T11:32:59Z</time><name>PT7486</name></trkpt>
<trkpt lat="53.379447" lon="-1.755132"><ele>327</ele><time>2020-08-05T11:33:00Z</time><name>PT7487</name></trkpt>
<trkpt lat="53.379451" lon="-1.755138"><ele>327</ele><time>2020-08-05T11:33:01Z</time><name>PT7488</name></trkpt>
<trkpt lat="53.379455" lon="-1.755141"><ele>327</ele><time>2020-08-05T11:33:02Z</time><name>PT7489</name></trkpt>
<trkpt lat="53.379466" lon="-1.755151"><ele>327</ele><time>2020-08-05T11:33:03Z</time><name>PT7490</name></trkpt>
<trkpt lat="53.379476" lon="-1.755161"><ele>327</ele><time>2020-08-05T11:33:04Z</time><name>PT7491</name></trkpt>
<trkpt lat="53.379487" lon="-1.755170"><ele>327</ele><time>2020-08-05T11:33:05Z</time><name>PT7492</name></trkpt>
<trkpt lat="53.379498" lon="-1.755180"><ele>327</ele><time>2020-08-05T11:33:06Z</time><name>PT7493</name></trkpt>
<trkpt lat="53.379508" lon="-1.755195"><ele>327</ele><time>2020-08-05T11:33:07Z</time><name>PT7494</name></trkpt>
<trkpt lat="53.379516" lon="-1.755206"><ele>327</ele><time>2020-08-05T11:33:08Z</time><name>PT7495</name></trkpt>
<trkpt lat="53.379524" lon="-1.755213"><ele>327</ele><time>2020-08-05T11:33:09Z</time><name>PT7496</name></trkpt>
<trkpt lat="53.379537" lon="-1.755222"><ele>327</ele><time>2020-08-05T11:33:10Z</time><name>PT7497</name></trkpt>
<trkpt lat="53.379549" lon="-1.755231"><ele>327</ele><time>2020-08-05T11:33:11Z</time><name>PT7498</name></trkpt>
<trkpt lat="53.379558" lon="-1.755241"><ele>327</ele><time>2020-08-05T11:33:12Z</time><name>PT7499</name></trkpt>
<trkpt lat="53.379571" lon="-1.755246"><ele>328</ele><time>2020-08-05T11:33:13Z</time><name>PT7500</name></trkpt>
<trkpt lat="53.379583" lon="-1.755248"><ele>328</ele><time>2020-08-05T11:33:14Z</time><name>PT7501</name></trkpt>
<trkpt lat="53.379594" lon="-1.755256"><ele>329</ele><time>2020-08-05T11:33:15Z</time><name>PT7502</name></trkpt>
<trkpt lat="53.379606" lon="-1.755268"><ele>329</ele><time>2020-08-05T11:33:16Z</time><name>PT7503</name></trkpt>
<trkpt lat="53.379613" lon="-1.755275"><ele>328</ele><time>2020-08-05T11:33:17Z</time><name>PT7504</name></trkpt>
<trkpt lat="53.379623" lon="-1.755284"><ele>329</ele><time>2020-08-05T11:33:18Z</time><name>PT7505</name></trkpt>
<trkpt lat="53.379631" lon="-1.755291"><ele>329</ele><time>2020-08-05T11:33:19Z</time><name>PT7506</name></trkpt>
<trkpt lat="53.379638" lon="-1.755297"><ele>329</ele><time>2020-08-05T11:33:20Z</time><name>PT7507</name></trkpt>
<trkpt lat="53.379645" lon="-1.755308"><ele>329</ele><time>2020-08-05T11:33:21Z</time><name>PT7508</name></trkpt>
<trkpt lat="53.379656" lon="-1.755316"><ele>329</ele><time>2020-08-05T11:33:22Z</time><name>PT7509</name></trkpt>
<trkpt lat="53.379669" lon="-1.755323"><ele>329</ele><time>2020-08-05T11:33:23Z</time><name>PT7510</name></trkpt>
<trkpt lat="53.379680" lon="-1.755330"><ele>329</ele><time>2020-08-05T11:33:24Z</time><name>PT7511</name></trkpt>
<trkpt lat="53.379692" lon="-1.755340"><ele>329</ele><time>2020-08-05T11:33:25Z</time><name>PT7512</name></trkpt>
<trkpt lat="53.379702" lon="-1.755352"><ele>329</ele><time>2020-08-05T11:33:26Z</time><name>PT7513</name></trkpt>
<trkpt lat="53.379715" lon="-1.755364"><ele>329</ele><time>2020-08-05T11:33:27Z</time><name>PT7514</name></trkpt>
<trkpt lat="53.379723" lon="-1.755372"><ele>328</ele><time>2020-08-05T11:33:28Z</time><name>PT7515</name></trkpt>
<trkpt lat="53.379734" lon="-1.755383"><ele>328</ele><time>2020-08-05T11:33:29Z</time><name>PT7516</name></trkpt>
<trkpt lat="53.379744" lon="-1.755388"><ele>328</ele><time>2020-08-05T11:33:30Z</time><name>PT7517</name></trkpt>
<trkpt lat="53.379749" lon="-1.755394"><ele>328</ele><time>2020-08-05T11:33:31Z</time><name>PT7518</name></trkpt>
<trkpt lat="53.379759" lon="-1.755403"><ele>328</ele><time>2020-08-05T11:33:32Z</time><name>PT7519</name></trkpt>
<trkpt lat="53.379768" lon="-1.755413"><ele>328</ele><time>2020-08-05T11:33:33Z</time><name>PT7520</name></trkpt>
<trkpt lat="53.379780" lon="-1.755424"><ele>329</ele><time>2020-08-05T11:33:34Z</time><name>PT7521</name></trkpt>
<trkpt lat="53.379790" lon="-1.755434"><ele>328</ele><time>2020-08-05T11:33:35Z</time><name>PT7522</name></trkpt>
<trkpt lat="53.379800" lon="-1.755446"><ele>328</ele><time>2020-08-05T11:33:36Z</time><name>PT7523</name></trkpt>
<trkpt lat="53.379812" lon="-1.755457"><ele>328</ele><time>2020-08-05T11:33:37Z</time><name>PT7524</name></trkpt>
<trkpt lat="53.379823" lon="-1.755468"><ele>329</ele><time>2020-08-05T11:33:37Z</time><name>PT7525</name></trkpt>
<trkpt lat="53.379833" lon="-1.755476"><ele>329</ele><time>2020-08-05T11:33:39Z</time><name>PT7526</name></trkpt>
<trkpt lat="53.379844" lon="-1.755483"><ele>328</ele><time>2020-08-05T11:33:40Z</time><name>PT7527</name></trkpt>
<trkpt lat="53.379853" lon="-1.755490"><ele>328</ele><time>2020-08-05T11:33:41Z</time><name>PT7528</name></trkpt>
<trkpt lat="53.379861" lon="-1.755498"><ele>328</ele><time>2020-08-05T11:33:42Z</time><name>PT7529</name></trkpt>
<trkpt lat="53.379874" lon="-1.755509"><ele>328</ele><time>2020-08-05T11:33:43Z</time><name>PT7530</name></trkpt>
<trkpt lat="53.379884" lon="-1.755523"><ele>328</ele><time>2020-08-05T11:33:44Z</time><name>PT7531</name></trkpt>
<trkpt lat="53.379895" lon="-1.755539"><ele>328</ele><time>2020-08-05T11:33:45Z</time><name>PT7532</name></trkpt>
<trkpt lat="53.379906" lon="-1.755553"><ele>328</ele><time>2020-08-05T11:33:46Z</time><name>PT7533</name></trkpt>
<trkpt lat="53.379918" lon="-1.755564"><ele>328</ele><time>2020-08-05T11:33:47Z</time><name>PT7534</name></trkpt>
<trkpt lat="53.379930" lon="-1.755573"><ele>328</ele><time>2020-08-05T11:33:48Z</time><name>PT7535</name></trkpt>
<trkpt lat="53.379943" lon="-1.755584"><ele>328</ele><time>2020-08-05T11:33:49Z</time><name>PT7536</name></trkpt>
<trkpt lat="53.379955" lon="-1.755593"><ele>328</ele><time>2020-08-05T11:33:50Z</time><name>PT7537</name></trkpt>
<trkpt lat="53.379965" lon="-1.755601"><ele>328</ele><time>2020-08-05T11:33:51Z</time><name>PT7538</name></trkpt>
<trkpt lat="53.379974" lon="-1.755614"><ele>328</ele><time>2020-08-05T11:33:52Z</time><name>PT7539</name></trkpt>
<trkpt lat="53.379987" lon="-1.755626"><ele>328</ele><time>2020-08-05T11:33:53Z</time><name>PT7540</name></trkpt>
<trkpt lat="53.379999" lon="-1.755636"><ele>328</ele><time>2020-08-05T11:33:54Z</time><name>PT7541</name></trkpt>
<trkpt lat="53.380009" lon="-1.755646"><ele>327</ele><time>2020-08-05T11:33:55Z</time><name>PT7542</name></trkpt>
<trkpt lat="53.380019" lon="-1.755659"><ele>327</ele><time>2020-08-05T11:33:56Z</time><name>PT7543</name></trkpt>
<trkpt lat="53.380030" lon="-1.755670"><ele>327</ele><time>2020-08-05T11:33:57Z</time><name>PT7544</name></trkpt>
<trkpt lat="53.380040" lon="-1.755681"><ele>327</ele><time>2020-08-05T11:33:58Z</time><name>PT7545</name></trkpt>
<trkpt lat="53.380050" lon="-1.755693"><ele>327</ele><time>2020-08-05T11:33:59Z</time><name>PT7546</name></trkpt>
<trkpt lat="53.380062" lon="-1.755706"><ele>328</ele><time>2020-08-05T11:34:00Z</time><name>PT7547</name></trkpt>
<trkpt lat="53.380075" lon="-1.755718"><ele>328</ele><time>2020-08-05T11:34:01Z</time><name>PT7548</name></trkpt>
<trkpt lat="53.380083" lon="-1.755727"><ele>328</ele><time>2020-08-05T11:34:02Z</time><name>PT7549</name></trkpt>
<trkpt lat="53.380092" lon="-1.755736"><ele>328</ele><time>2020-08-05T11:34:03Z</time><name>PT7550</name></trkpt>
<trkpt lat="53.380103" lon="-1.755743"><ele>328</ele><time>2020-08-05T11:34:04Z</time><name>PT7551</name></trkpt>
<trkpt lat="53.380113" lon="-1.755757"><ele>328</ele><time>2020-08-05T11:34:05Z</time><name>PT7552</name></trkpt>
<trkpt lat="53.380124" lon="-1.755771"><ele>329</ele><time>2020-08-05T11:34:06Z</time><name>PT7553</name></trkpt>
<trkpt lat="53.380139" lon="-1.755785"><ele>329</ele><time>2020-08-05T11:34:07Z</time><name>PT7554</name></trkpt>
<trkpt lat="53.380151" lon="-1.755794"><ele>329</ele><time>2020-08-05T11:34:08Z</time><name>PT7555</name></trkpt>
<trkpt lat="53.380162" lon="-1.755803"><ele>329</ele><time>2020-08-05T11:34:09Z</time><name>PT7556</name></trkpt>
<trkpt lat="53.380171" lon="-1.755809"><ele>329</ele><time>2020-08-05T11:34:10Z</time><name>PT7557</name></trkpt>
<trkpt lat="53.380178" lon="-1.755819"><ele>329</ele><time>2020-08-05T11:34:11Z</time><name>PT7558</name></trkpt>
<trkpt lat="53.380188" lon="-1.755828"><ele>329</ele><time>2020-08-05T11:34:12Z</time><name>PT7559</name></trkpt>
<trkpt lat="53.380201" lon="-1.755842"><ele>329</ele><time>2020-08-05T11:34:13Z</time><name>PT7560</name></trkpt>
<trkpt lat="53.380213" lon="-1.755860"><ele>329</ele><time>2020-08-05T11:34:14Z</time><name>PT7561</name></trkpt>
<trkpt lat="53.380223" lon="-1.755872"><ele>329</ele><time>2020-08-05T11:34:15Z</time><name>PT7562</name></trkpt>
<trkpt lat="53.380233" lon="-1.755884"><ele>328</ele><time>2020-08-05T11:34:16Z</time><name>PT7563</name></trkpt>
<trkpt lat="53.380246" lon="-1.755894"><ele>330</ele><time>2020-08-05T11:34:17Z</time><name>PT7564</name></trkpt>
<trkpt lat="53.380258" lon="-1.755904"><ele>330</ele><time>2020-08-05T11:34:18Z</time><name>PT7565</name></trkpt>
<trkpt lat="53.380269" lon="-1.755914"><ele>329</ele><time>2020-08-05T11:34:19Z</time><name>PT7566</name></trkpt>
<trkpt lat="53.380279" lon="-1.755925"><ele>329</ele><time>2020-08-05T11:34:20Z</time><name>PT7567</name></trkpt>
<trkpt lat="53.380290" lon="-1.755932"><ele>329</ele><time>2020-08-05T11:34:21Z</time><name>PT7568</name></trkpt>
<trkpt lat="53.380300" lon="-1.755942"><ele>330</ele><time>2020-08-05T11:34:22Z</time><name>PT7569</name></trkpt>
<trkpt lat="53.380308" lon="-1.755953"><ele>329</ele><time>2020-08-05T11:34:23Z</time><name>PT7570</name></trkpt>
<trkpt lat="53.380317" lon="-1.755962"><ele>329</ele><time>2020-08-05T11:34:24Z</time><name>PT7571</name></trkpt>
<trkpt lat="53.380329" lon="-1.755973"><ele>328</ele><time>2020-08-05T11:34:25Z</time><name>PT7572</name></trkpt>
<trkpt lat="53.380340" lon="-1.755981"><ele>328</ele><time>2020-08-05T11:34:26Z</time><name>PT7573</name></trkpt>
<trkpt lat="53.380349" lon="-1.755989"><ele>328</ele><time>2020-08-05T11:34:27Z</time><name>PT7574</name></trkpt>
<trkpt lat="53.380361" lon="-1.755996"><ele>328</ele><time>2020-08-05T11:34:28Z</time><name>PT7575</name></trkpt>
<trkpt lat="53.380373" lon="-1.756008"><ele>328</ele><time>2020-08-05T11:34:29Z</time><name>PT7576</name></trkpt>
<trkpt lat="53.380388" lon="-1.756021"><ele>328</ele><time>2020-08-05T11:34:30Z</time><name>PT7577</name></trkpt>
<trkpt lat="53.380400" lon="-1.756033"><ele>327</ele><time>2020-08-05T11:34:31Z</time><name>PT7578</name></trkpt>
<trkpt lat="53.380414" lon="-1.756045"><ele>328</ele><time>2020-08-05T11:34:32Z</time><name>PT7579</name></trkpt>
<trkpt lat="53.380424" lon="-1.756056"><ele>328</ele><time>2020-08-05T11:34:33Z</time><name>PT7580</name></trkpt>
<trkpt lat="53.380436" lon="-1.756068"><ele>328</ele><time>2020-08-05T11:34:34Z</time><name>PT7581</name></trkpt>
<trkpt lat="53.380446" lon="-1.756079"><ele>327</ele><time>2020-08-05T11:34:35Z</time><name>PT7582</name></trkpt>
<trkpt lat="53.380456" lon="-1.756091"><ele>328</ele><time>2020-08-05T11:34:36Z</time><name>PT7583</name></trkpt>
<trkpt lat="53.380468" lon="-1.756103"><ele>328</ele><time>2020-08-05T11:34:37Z</time><name>PT7584</name></trkpt>
<trkpt lat="53.380479" lon="-1.756114"><ele>328</ele><time>2020-08-05T11:34:38Z</time><name>PT7585</name></trkpt>
<trkpt lat="53.380491" lon="-1.756123"><ele>328</ele><time>2020-08-05T11:34:39Z</time><name>PT7586</name></trkpt>
<trkpt lat="53.380502" lon="-1.756130"><ele>327</ele><time>2020-08-05T11:34:40Z</time><name>PT7587</name></trkpt>
<trkpt lat="53.380510" lon="-1.756134"><ele>327</ele><time>2020-08-05T11:34:41Z</time><name>PT7588</name></trkpt>
<trkpt lat="53.380521" lon="-1.756143"><ele>326</ele><time>2020-08-05T11:34:42Z</time><name>PT7589</name></trkpt>
<trkpt lat="53.380529" lon="-1.756151"><ele>326</ele><time>2020-08-05T11:34:43Z</time><name>PT7590</name></trkpt>
<trkpt lat="53.380540" lon="-1.756158"><ele>326</ele><time>2020-08-05T11:34:44Z</time><name>PT7591</name></trkpt>
<trkpt lat="53.380553" lon="-1.756172"><ele>326</ele><time>2020-08-05T11:34:45Z</time><name>PT7592</name></trkpt>
<trkpt lat="53.380565" lon="-1.756181"><ele>326</ele><time>2020-08-05T11:34:46Z</time><name>PT7593</name></trkpt>
<trkpt lat="53.380577" lon="-1.756191"><ele>326</ele><time>2020-08-05T11:34:47Z</time><name>PT7594</name></trkpt>
<trkpt lat="53.380588" lon="-1.756198"><ele>327</ele><time>2020-08-05T11:34:48Z</time><name>PT7595</name></trkpt>
<trkpt lat="53.380600" lon="-1.756208"><ele>327</ele><time>2020-08-05T11:34:49Z</time><name>PT7596</name></trkpt>
<trkpt lat="53.380611" lon="-1.756219"><ele>327</ele><time>2020-08-05T11:34:50Z</time><name>PT7597</name></trkpt>
<trkpt lat="53.380621" lon="-1.756230"><ele>327</ele><time>2020-08-05T11:34:51Z</time><name>PT7598</name></trkpt>
<trkpt lat="53.380632" lon="-1.756242"><ele>327</ele><time>2020-08-05T11:34:52Z</time><name>PT7599</name></trkpt>
<trkpt lat="53.380645" lon="-1.756253"><ele>326</ele><time>2020-08-05T11:34:53Z</time><name>PT7600</name></trkpt>
<trkpt lat="53.380657" lon="-1.756266"><ele>326</ele><time>2020-08-05T11:34:54Z</time><name>PT7601</name></trkpt>
<trkpt lat="53.380667" lon="-1.756276"><ele>326</ele><time>2020-08-05T11:34:55Z</time><name>PT7602</name></trkpt>
<trkpt lat="53.380679" lon="-1.756289"><ele>326</ele><time>2020-08-05T11:34:56Z</time><name>PT7603</name></trkpt>
<trkpt lat="53.380688" lon="-1.756299"><ele>326</ele><time>2020-08-05T11:34:57Z</time><name>PT7604</name></trkpt>
<trkpt lat="53.380696" lon="-1.756311"><ele>326</ele><time>2020-08-05T11:34:58Z</time><name>PT7605</name></trkpt>
<trkpt lat="53.380708" lon="-1.756323"><ele>326</ele><time>2020-08-05T11:34:59Z</time><name>PT7606</name></trkpt>
<trkpt lat="53.380720" lon="-1.756335"><ele>326</ele><time>2020-08-05T11:35:00Z</time><name>PT7607</name></trkpt>
<trkpt lat="53.380734" lon="-1.756347"><ele>327</ele><time>2020-08-05T11:35:01Z</time><name>PT7608</name></trkpt>
<trkpt lat="53.380738" lon="-1.756359"><ele>327</ele><time>2020-08-05T11:35:02Z</time><name>PT7609</name></trkpt>
<trkpt lat="53.380745" lon="-1.756367"><ele>327</ele><time>2020-08-05T11:35:03Z</time><name>PT7610</name></trkpt>
<trkpt lat="53.380753" lon="-1.756374"><ele>328</ele><time>2020-08-05T11:35:04Z</time><name>PT7611</name></trkpt>
<trkpt lat="53.380764" lon="-1.756386"><ele>327</ele><time>2020-08-05T11:35:05Z</time><name>PT7612</name></trkpt>
<trkpt lat="53.380775" lon="-1.756397"><ele>327</ele><time>2020-08-05T11:35:06Z</time><name>PT7613</name></trkpt>
<trkpt lat="53.380783" lon="-1.756405"><ele>327</ele><time>2020-08-05T11:35:07Z</time><name>PT7614</name></trkpt>
<trkpt lat="53.380795" lon="-1.756416"><ele>327</ele><time>2020-08-05T11:35:08Z</time><name>PT7615</name></trkpt>
<trkpt lat="53.380808" lon="-1.756429"><ele>327</ele><time>2020-08-05T11:35:09Z</time><name>PT7616</name></trkpt>
<trkpt lat="53.380818" lon="-1.756439"><ele>327</ele><time>2020-08-05T11:35:10Z</time><name>PT7617</name></trkpt>
<trkpt lat="53.380831" lon="-1.756451"><ele>327</ele><time>2020-08-05T11:35:11Z</time><name>PT7618</name></trkpt>
<trkpt lat="53.380845" lon="-1.756463"><ele>328</ele><time>2020-08-05T11:35:12Z</time><name>PT7619</name></trkpt>
<trkpt lat="53.380859" lon="-1.756475"><ele>328</ele><time>2020-08-05T11:35:13Z</time><name>PT7620</name></trkpt>
<trkpt lat="53.380870" lon="-1.756484"><ele>327</ele><time>2020-08-05T11:35:14Z</time><name>PT7621</name></trkpt>
<trkpt lat="53.380886" lon="-1.756492"><ele>327</ele><time>2020-08-05T11:35:15Z</time><name>PT7622</name></trkpt>
<trkpt lat="53.380900" lon="-1.756503"><ele>327</ele><time>2020-08-05T11:35:16Z</time><name>PT7623</name></trkpt>
<trkpt lat="53.380911" lon="-1.756514"><ele>327</ele><time>2020-08-05T11:35:17Z</time><name>PT7624</name></trkpt>
<trkpt lat="53.380922" lon="-1.756527"><ele>328</ele><time>2020-08-05T11:35:18Z</time><name>PT7625</name></trkpt>
<trkpt lat="53.380930" lon="-1.756540"><ele>327</ele><time>2020-08-05T11:35:19Z</time><name>PT7626</name></trkpt>
<trkpt lat="53.380942" lon="-1.756555"><ele>326</ele><time>2020-08-05T11:35:20Z</time><name>PT7627</name></trkpt>
<trkpt lat="53.380955" lon="-1.756564"><ele>326</ele><time>2020-08-05T11:35:21Z</time><name>PT7628</name></trkpt>
<trkpt lat="53.380966" lon="-1.756572"><ele>327</ele><time>2020-08-05T11:35:22Z</time><name>PT7629</name></trkpt>
<trkpt lat="53.380975" lon="-1.756585"><ele>326</ele><time>2020-08-05T11:35:23Z</time><name>PT7630</name></trkpt>
<trkpt lat="53.380984" lon="-1.756595"><ele>326</ele><time>2020-08-05T11:35:24Z</time><name>PT7631</name></trkpt>
<trkpt lat="53.380996" lon="-1.756608"><ele>326</ele><time>2020-08-05T11:35:25Z</time><name>PT7632</name></trkpt>
<trkpt lat="53.381009" lon="-1.756621"><ele>327</ele><time>2020-08-05T11:35:26Z</time><name>PT7633</name></trkpt>
<trkpt lat="53.381020" lon="-1.756632"><ele>327</ele><time>2020-08-05T11:35:27Z</time><name>PT7634</name></trkpt>
<trkpt lat="53.381031" lon="-1.756643"><ele>327</ele><time>2020-08-05T11:35:28Z</time><name>PT7635</name></trkpt>
<trkpt lat="53.381041" lon="-1.756655"><ele>327</ele><time>2020-08-05T11:35:29Z</time><name>PT7636</name></trkpt>
<trkpt lat="53.381053" lon="-1.756669"><ele>328</ele><time>2020-08-05T11:35:30Z</time><name>PT7637</name></trkpt>
<trkpt lat="53.381062" lon="-1.756684"><ele>327</ele><time>2020-08-05T11:35:31Z</time><name>PT7638</name></trkpt>
<trkpt lat="53.381071" lon="-1.756696"><ele>327</ele><time>2020-08-05T11:35:32Z</time><name>PT7639</name></trkpt>
<trkpt lat="53.381081" lon="-1.756708"><ele>327</ele><time>2020-08-05T11:35:33Z</time><name>PT7640</name></trkpt>
<trkpt lat="53.381091" lon="-1.756718"><ele>327</ele><time>2020-08-05T11:35:34Z</time><name>PT7641</name></trkpt>
<trkpt lat="53.381104" lon="-1.756726"><ele>327</ele><time>2020-08-05T11:35:34Z</time><name>PT7642</name></trkpt>
<trkpt lat="53.381113" lon="-1.756731"><ele>327</ele><time>2020-08-05T11:35:36Z</time><name>PT7643</name></trkpt>
<trkpt lat="53.381123" lon="-1.756739"><ele>326</ele><time>2020-08-05T11:35:37Z</time><name>PT7644</name></trkpt>
<trkpt lat="53.381135" lon="-1.756751"><ele>326</ele><time>2020-08-05T11:35:37Z</time><name>PT7645</name></trkpt>
<trkpt lat="53.381147" lon="-1.756761"><ele>325</ele><time>2020-08-05T11:35:39Z</time><name>PT7646</name></trkpt>
<trkpt lat="53.381156" lon="-1.756771"><ele>326</ele><time>2020-08-05T11:35:40Z</time><name>PT7647</name></trkpt>
<trkpt lat="53.381168" lon="-1.756786"><ele>326</ele><time>2020-08-05T11:35:41Z</time><name>PT7648</name></trkpt>
<trkpt lat="53.381179" lon="-1.756803"><ele>326</ele><time>2020-08-05T11:35:42Z</time><name>PT7649</name></trkpt>
<trkpt lat="53.381191" lon="-1.756824"><ele>326</ele><time>2020-08-05T11:35:43Z</time><name>PT7650</name></trkpt>
<trkpt lat="53.381201" lon="-1.756844"><ele>327</ele><time>2020-08-05T11:35:44Z</time><name>PT7651</name></trkpt>
<trkpt lat="53.381212" lon="-1.756861"><ele>327</ele><time>2020-08-05T11:35:45Z</time><name>PT7652</name></trkpt>
<trkpt lat="53.381222" lon="-1.756873"><ele>327</ele><time>2020-08-05T11:35:46Z</time><name>PT7653</name></trkpt>
<trkpt lat="53.381232" lon="-1.756883"><ele>327</ele><time>2020-08-05T11:35:47Z</time><name>PT7654</name></trkpt>
<trkpt lat="53.381242" lon="-1.756896"><ele>326</ele><time>2020-08-05T11:35:48Z</time><name>PT7655</name></trkpt>
<trkpt lat="53.381254" lon="-1.756910"><ele>326</ele><time>2020-08-05T11:35:49Z</time><name>PT7656</name></trkpt>
<trkpt lat="53.381265" lon="-1.756922"><ele>326</ele><time>2020-08-05T11:35:50Z</time><name>PT7657</name></trkpt>
<trkpt lat="53.381277" lon="-1.756931"><ele>326</ele><time>2020-08-05T11:35:51Z</time><name>PT7658</name></trkpt>
<trkpt lat="53.381288" lon="-1.756941"><ele>326</ele><time>2020-08-05T11:35:52Z</time><name>PT7659</name></trkpt>
<trkpt lat="53.381301" lon="-1.756956"><ele>326</ele><time>2020-08-05T11:35:53Z</time><name>PT7660</name></trkpt>
<trkpt lat="53.381311" lon="-1.756963"><ele>326</ele><time>2020-08-05T11:35:54Z</time><name>PT7661</name></trkpt>
<trkpt lat="53.381325" lon="-1.756967"><ele>326</ele><time>2020-08-05T11:35:55Z</time><name>PT7662</name></trkpt>
<trkpt lat="53.381342" lon="-1.756982"><ele>324</ele><time>2020-08-05T11:35:56Z</time><name>PT7663</name></trkpt>
<trkpt lat="53.381361" lon="-1.756989"><ele>325</ele><time>2020-08-05T11:35:57Z</time><name>PT7664</name></trkpt>
<trkpt lat="53.381371" lon="-1.756992"><ele>325</ele><time>2020-08-05T11:35:58Z</time><name>PT7665</name></trkpt>
<trkpt lat="53.381385" lon="-1.756991"><ele>325</ele><time>2020-08-05T11:35:59Z</time><name>PT7666</name></trkpt>
<trkpt lat="53.381397" lon="-1.756994"><ele>325</ele><time>2020-08-05T11:36:00Z</time><name>PT7667</name></trkpt>
<trkpt lat="53.381407" lon="-1.757001"><ele>326</ele><time>2020-08-05T11:36:01Z</time><name>PT7668</name></trkpt>
<trkpt lat="53.381418" lon="-1.757012"><ele>326</ele><time>2020-08-05T11:36:02Z</time><name>PT7669</name></trkpt>
<trkpt lat="53.381430" lon="-1.757024"><ele>326</ele><time>2020-08-05T11:36:03Z</time><name>PT7670</name></trkpt>
<trkpt lat="53.381440" lon="-1.757033"><ele>326</ele><time>2020-08-05T11:36:04Z</time><name>PT7671</name></trkpt>
<trkpt lat="53.381452" lon="-1.757046"><ele>327</ele><time>2020-08-05T11:36:05Z</time><name>PT7672</name></trkpt>
<trkpt lat="53.381464" lon="-1.757055"><ele>326</ele><time>2020-08-05T11:36:06Z</time><name>PT7673</name></trkpt>
<trkpt lat="53.381477" lon="-1.757061"><ele>327</ele><time>2020-08-05T11:36:07Z</time><name>PT7674</name></trkpt>
<trkpt lat="53.381486" lon="-1.757071"><ele>327</ele><time>2020-08-05T11:36:08Z</time><name>PT7675</name></trkpt>
<trkpt lat="53.381498" lon="-1.757074"><ele>327</ele><time>2020-08-05T11:36:09Z</time><name>PT7676</name></trkpt>
<trkpt lat="53.381512" lon="-1.757076"><ele>328</ele><time>2020-08-05T11:36:10Z</time><name>PT7677</name></trkpt>
<trkpt lat="53.381524" lon="-1.757082"><ele>328</ele><time>2020-08-05T11:36:11Z</time><name>PT7678</name></trkpt>
<trkpt lat="53.381534" lon="-1.757091"><ele>327</ele><time>2020-08-05T11:36:12Z</time><name>PT7679</name></trkpt>
<trkpt lat="53.381543" lon="-1.757100"><ele>326</ele><time>2020-08-05T11:36:13Z</time><name>PT7680</name></trkpt>
<trkpt lat="53.381551" lon="-1.757107"><ele>326</ele><time>2020-08-05T11:36:14Z</time><name>PT7681</name></trkpt>
<trkpt lat="53.381563" lon="-1.757118"><ele>326</ele><time>2020-08-05T11:36:15Z</time><name>PT7682</name></trkpt>
<trkpt lat="53.381573" lon="-1.757130"><ele>326</ele><time>2020-08-05T11:36:16Z</time><name>PT7683</name></trkpt>
<trkpt lat="53.381582" lon="-1.757141"><ele>326</ele><time>2020-08-05T11:36:17Z</time><name>PT7684</name></trkpt>
<trkpt lat="53.381591" lon="-1.757153"><ele>325</ele><time>2020-08-05T11:36:18Z</time><name>PT7685</name></trkpt>
<trkpt lat="53.381599" lon="-1.757166"><ele>325</ele><time>2020-08-05T11:36:19Z</time><name>PT7686</name></trkpt>
<trkpt lat="53.381606" lon="-1.757176"><ele>325</ele><time>2020-08-05T11:36:20Z</time><name>PT7687</name></trkpt>
<trkpt lat="53.381615" lon="-1.757192"><ele>325</ele><time>2020-08-05T11:36:21Z</time><name>PT7688</name></trkpt>
<trkpt lat="53.381627" lon="-1.757204"><ele>325</ele><time>2020-08-05T11:36:22Z</time><name>PT7689</name></trkpt>
<trkpt lat="53.381638" lon="-1.757215"><ele>325</ele><time>2020-08-05T11:36:23Z</time><name>PT7690</name></trkpt>
<trkpt lat="53.381651" lon="-1.757220"><ele>325</ele><time>2020-08-05T11:36:24Z</time><name>PT7691</name></trkpt>
<trkpt lat="53.381664" lon="-1.757226"><ele>325</ele><time>2020-08-05T11:36:25Z</time><name>PT7692</name></trkpt>
<trkpt lat="53.381676" lon="-1.757237"><ele>325</ele><time>2020-08-05T11:36:26Z</time><name>PT7693</name></trkpt>
<trkpt lat="53.381688" lon="-1.757247"><ele>326</ele><time>2020-08-05T11:36:27Z</time><name>PT7694</name></trkpt>
<trkpt lat="53.381702" lon="-1.757259"><ele>326</ele><time>2020-08-05T11:36:28Z</time><name>PT7695</name></trkpt>
<trkpt lat="53.381713" lon="-1.757268"><ele>326</ele><time>2020-08-05T11:36:29Z</time><name>PT7696</name></trkpt>
<trkpt lat="53.381726" lon="-1.757278"><ele>326</ele><time>2020-08-05T11:36:30Z</time><name>PT7697</name></trkpt>
<trkpt lat="53.381743" lon="-1.757285"><ele>326</ele><time>2020-08-05T11:36:31Z</time><name>PT7698</name></trkpt>
<trkpt lat="53.381753" lon="-1.757290"><ele>326</ele><time>2020-08-05T11:36:32Z</time><name>PT7699</name></trkpt>
<trkpt lat="53.381761" lon="-1.757300"><ele>326</ele><time>2020-08-05T11:36:33Z</time><name>PT7700</name></trkpt>
<trkpt lat="53.381767" lon="-1.757313"><ele>326</ele><time>2020-08-05T11:36:34Z</time><name>PT7701</name></trkpt>
<trkpt lat="53.381777" lon="-1.757329"><ele>325</ele><time>2020-08-05T11:36:35Z</time><name>PT7702</name></trkpt>
<trkpt lat="53.381784" lon="-1.757341"><ele>325</ele><time>2020-08-05T11:36:36Z</time><name>PT7703</name></trkpt>
<trkpt lat="53.381792" lon="-1.757356"><ele>325</ele><time>2020-08-05T11:36:37Z</time><name>PT7704</name></trkpt>
<trkpt lat="53.381801" lon="-1.757369"><ele>324</ele><time>2020-08-05T11:36:38Z</time><name>PT7705</name></trkpt>
<trkpt lat="53.381813" lon="-1.757380"><ele>324</ele><time>2020-08-05T11:36:39Z</time><name>PT7706</name></trkpt>
<trkpt lat="53.381822" lon="-1.757388"><ele>324</ele><time>2020-08-05T11:36:40Z</time><name>PT7707</name></trkpt>
<trkpt lat="53.381835" lon="-1.757400"><ele>324</ele><time>2020-08-05T11:36:41Z</time><name>PT7708</name></trkpt>
<trkpt lat="53.381846" lon="-1.757411"><ele>324</ele><time>2020-08-05T11:36:42Z</time><name>PT7709</name></trkpt>
<trkpt lat="53.381859" lon="-1.757416"><ele>325</ele><time>2020-08-05T11:36:43Z</time><name>PT7710</name></trkpt>
<trkpt lat="53.381870" lon="-1.757424"><ele>325</ele><time>2020-08-05T11:36:44Z</time><name>PT7711</name></trkpt>
<trkpt lat="53.381880" lon="-1.757440"><ele>325</ele><time>2020-08-05T11:36:45Z</time><name>PT7712</name></trkpt>
<trkpt lat="53.381890" lon="-1.757444"><ele>325</ele><time>2020-08-05T11:36:46Z</time><name>PT7713</name></trkpt>
<trkpt lat="53.381900" lon="-1.757449"><ele>325</ele><time>2020-08-05T11:36:47Z</time><name>PT7714</name></trkpt>
<trkpt lat="53.381910" lon="-1.757458"><ele>325</ele><time>2020-08-05T11:36:48Z</time><name>PT7715</name></trkpt>
<trkpt lat="53.381917" lon="-1.757472"><ele>324</ele><time>2020-08-05T11:36:49Z</time><name>PT7716</name></trkpt>
<trkpt lat="53.381926" lon="-1.757485"><ele>324</ele><time>2020-08-05T11:36:49Z</time><name>PT7717</name></trkpt>
<trkpt lat="53.381936" lon="-1.757497"><ele>324</ele><time>2020-08-05T11:36:51Z</time><name>PT7718</name></trkpt>
<trkpt lat="53.381942" lon="-1.757514"><ele>325</ele><time>2020-08-05T11:36:52Z</time><name>PT7719</name></trkpt>
<trkpt lat="53.381950" lon="-1.757528"><ele>324</ele><time>2020-08-05T11:36:53Z</time><name>PT7720</name></trkpt>
<trkpt lat="53.381960" lon="-1.757534"><ele>324</ele><time>2020-08-05T11:36:54Z</time><name>PT7721</name></trkpt>
<trkpt lat="53.381971" lon="-1.757545"><ele>325</ele><time>2020-08-05T11:36:55Z</time><name>PT7722</name></trkpt>
<trkpt lat="53.381981" lon="-1.757560"><ele>325</ele><time>2020-08-05T11:36:56Z</time><name>PT7723</name></trkpt>
<trkpt lat="53.381990" lon="-1.757571"><ele>324</ele><time>2020-08-05T11:36:57Z</time><name>PT7724</name></trkpt>
<trkpt lat="53.381997" lon="-1.757582"><ele>324</ele><time>2020-08-05T11:36:58Z</time><name>PT7725</name></trkpt>
<trkpt lat="53.382005" lon="-1.757592"><ele>324</ele><time>2020-08-05T11:36:59Z</time><name>PT7726</name></trkpt>
<trkpt lat="53.382012" lon="-1.757611"><ele>323</ele><time>2020-08-05T11:37:00Z</time><name>PT7727</name></trkpt>
<trkpt lat="53.382019" lon="-1.757631"><ele>323</ele><time>2020-08-05T11:37:01Z</time><name>PT7728</name></trkpt>
<trkpt lat="53.382026" lon="-1.757647"><ele>323</ele><time>2020-08-05T11:37:02Z</time><name>PT7729</name></trkpt>
<trkpt lat="53.382037" lon="-1.757664"><ele>323</ele><time>2020-08-05T11:37:03Z</time><name>PT7730</name></trkpt>
<trkpt lat="53.382050" lon="-1.757680"><ele>324</ele><time>2020-08-05T11:37:04Z</time><name>PT7731</name></trkpt>
<trkpt lat="53.382059" lon="-1.757688"><ele>324</ele><time>2020-08-05T11:37:05Z</time><name>PT7732</name></trkpt>
<trkpt lat="53.382072" lon="-1.757701"><ele>324</ele><time>2020-08-05T11:37:06Z</time><name>PT7733</name></trkpt>
<trkpt lat="53.382086" lon="-1.757707"><ele>325</ele><time>2020-08-05T11:37:07Z</time><name>PT7734</name></trkpt>
<trkpt lat="53.382096" lon="-1.757714"><ele>324</ele><time>2020-08-05T11:37:08Z</time><name>PT7735</name></trkpt>
<trkpt lat="53.382108" lon="-1.757724"><ele>325</ele><time>2020-08-05T11:37:09Z</time><name>PT7736</name></trkpt>
<trkpt lat="53.382118" lon="-1.757733"><ele>325</ele><time>2020-08-05T11:37:10Z</time><name>PT7737</name></trkpt>
<trkpt lat="53.382127" lon="-1.757748"><ele>325</ele><time>2020-08-05T11:37:11Z</time><name>PT7738</name></trkpt>
<trkpt lat="53.382137" lon="-1.757758"><ele>324</ele><time>2020-08-05T11:37:12Z</time><name>PT7739</name></trkpt>
<trkpt lat="53.382146" lon="-1.757765"><ele>325</ele><time>2020-08-05T11:37:13Z</time><name>PT7740</name></trkpt>
<trkpt lat="53.382157" lon="-1.757775"><ele>325</ele><time>2020-08-05T11:37:14Z</time><name>PT7741</name></trkpt>
<trkpt lat="53.382168" lon="-1.757781"><ele>324</ele><time>2020-08-05T11:37:15Z</time><name>PT7742</name></trkpt>
<trkpt lat="53.382178" lon="-1.757791"><ele>324</ele><time>2020-08-05T11:37:16Z</time><name>PT7743</name></trkpt>
<trkpt lat="53.382187" lon="-1.757805"><ele>325</ele><time>2020-08-05T11:37:17Z</time><name>PT7744</name></trkpt>
<trkpt lat="53.382196" lon="-1.757819"><ele>324</ele><time>2020-08-05T11:37:18Z</time><name>PT7745</name></trkpt>
<trkpt lat="53.382203" lon="-1.757830"><ele>324</ele><time>2020-08-05T11:37:19Z</time><name>PT7746</name></trkpt>
<trkpt lat="53.382213" lon="-1.757841"><ele>324</ele><time>2020-08-05T11:37:20Z</time><name>PT7747</name></trkpt>
<trkpt lat="53.382222" lon="-1.757849"><ele>324</ele><time>2020-08-05T11:37:21Z</time><name>PT7748</name></trkpt>
<trkpt lat="53.382231" lon="-1.757861"><ele>324</ele><time>2020-08-05T11:37:22Z</time><name>PT7749</name></trkpt>
<trkpt lat="53.382239" lon="-1.757871"><ele>324</ele><time>2020-08-05T11:37:23Z</time><name>PT7750</name></trkpt>
<trkpt lat="53.382250" lon="-1.757886"><ele>325</ele><time>2020-08-05T11:37:24Z</time><name>PT7751</name></trkpt>
<trkpt lat="53.382264" lon="-1.757889"><ele>325</ele><time>2020-08-05T11:37:25Z</time><name>PT7752</name></trkpt>
<trkpt lat="53.382275" lon="-1.757893"><ele>325</ele><time>2020-08-05T11:37:26Z</time><name>PT7753</name></trkpt>
<trkpt lat="53.382285" lon="-1.757907"><ele>325</ele><time>2020-08-05T11:37:27Z</time><name>PT7754</name></trkpt>
<trkpt lat="53.382296" lon="-1.757928"><ele>325</ele><time>2020-08-05T11:37:28Z</time><name>PT7755</name></trkpt>
<trkpt lat="53.382306" lon="-1.757937"><ele>325</ele><time>2020-08-05T11:37:29Z</time><name>PT7756</name></trkpt>
<trkpt lat="53.382317" lon="-1.757947"><ele>325</ele><time>2020-08-05T11:37:30Z</time><name>PT7757</name></trkpt>
<trkpt lat="53.382323" lon="-1.757964"><ele>325</ele><time>2020-08-05T11:37:31Z</time><name>PT7758</name></trkpt>
<trkpt lat="53.382332" lon="-1.757980"><ele>325</ele><time>2020-08-05T11:37:32Z</time><name>PT7759</name></trkpt>
<trkpt lat="53.382340" lon="-1.757992"><ele>325</ele><time>2020-08-05T11:37:33Z</time><name>PT7760</name></trkpt>
<trkpt lat="53.382351" lon="-1.757997"><ele>325</ele><time>2020-08-05T11:37:34Z</time><name>PT7761</name></trkpt>
<trkpt lat="53.382365" lon="-1.758006"><ele>325</ele><time>2020-08-05T11:37:35Z</time><name>PT7762</name></trkpt>
<trkpt lat="53.382375" lon="-1.758013"><ele>325</ele><time>2020-08-05T11:37:36Z</time><name>PT7763</name></trkpt>
<trkpt lat="53.382381" lon="-1.758025"><ele>325</ele><time>2020-08-05T11:37:37Z</time><name>PT7764</name></trkpt>
<trkpt lat="53.382389" lon="-1.758044"><ele>326</ele><time>2020-08-05T11:37:38Z</time><name>PT7765</name></trkpt>
<trkpt lat="53.382399" lon="-1.758058"><ele>326</ele><time>2020-08-05T11:37:39Z</time><name>PT7766</name></trkpt>
<trkpt lat="53.382404" lon="-1.758067"><ele>326</ele><time>2020-08-05T11:37:40Z</time><name>PT7767</name></trkpt>
<trkpt lat="53.382413" lon="-1.758083"><ele>326</ele><time>2020-08-05T11:37:41Z</time><name>PT7768</name></trkpt>
<trkpt lat="53.382425" lon="-1.758099"><ele>327</ele><time>2020-08-05T11:37:42Z</time><name>PT7769</name></trkpt>
<trkpt lat="53.382433" lon="-1.758112"><ele>327</ele><time>2020-08-05T11:37:43Z</time><name>PT7770</name></trkpt>
<trkpt lat="53.382441" lon="-1.758124"><ele>327</ele><time>2020-08-05T11:37:44Z</time><name>PT7771</name></trkpt>
<trkpt lat="53.382451" lon="-1.758136"><ele>327</ele><time>2020-08-05T11:37:45Z</time><name>PT7772</name></trkpt>
<trkpt lat="53.382461" lon="-1.758147"><ele>327</ele><time>2020-08-05T11:37:46Z</time><name>PT7773</name></trkpt>
<trkpt lat="53.382471" lon="-1.758156"><ele>327</ele><time>2020-08-05T11:37:47Z</time><name>PT7774</name></trkpt>
<trkpt lat="53.382482" lon="-1.758163"><ele>328</ele><time>2020-08-05T11:37:48Z</time><name>PT7775</name></trkpt>
<trkpt lat="53.382491" lon="-1.758173"><ele>328</ele><time>2020-08-05T11:37:49Z</time><name>PT7776</name></trkpt>
<trkpt lat="53.382500" lon="-1.758176"><ele>328</ele><time>2020-08-05T11:37:50Z</time><name>PT7777</name></trkpt>
<trkpt lat="53.382509" lon="-1.758189"><ele>328</ele><time>2020-08-05T11:37:51Z</time><name>PT7778</name></trkpt>
<trkpt lat="53.382519" lon="-1.758202"><ele>327</ele><time>2020-08-05T11:37:52Z</time><name>PT7779</name></trkpt>
<trkpt lat="53.382530" lon="-1.758211"><ele>327</ele><time>2020-08-05T11:37:53Z</time><name>PT7780</name></trkpt>
<trkpt lat="53.382541" lon="-1.758221"><ele>327</ele><time>2020-08-05T11:37:54Z</time><name>PT7781</name></trkpt>
<trkpt lat="53.382549" lon="-1.758231"><ele>327</ele><time>2020-08-05T11:37:55Z</time><name>PT7782</name></trkpt>
<trkpt lat="53.382559" lon="-1.758237"><ele>327</ele><time>2020-08-05T11:37:56Z</time><name>PT7783</name></trkpt>
<trkpt lat="53.382568" lon="-1.758249"><ele>327</ele><time>2020-08-05T11:37:57Z</time><name>PT7784</name></trkpt>
<trkpt lat="53.382577" lon="-1.758256"><ele>327</ele><time>2020-08-05T11:37:58Z</time><name>PT7785</name></trkpt>
<trkpt lat="53.382586" lon="-1.758265"><ele>327</ele><time>2020-08-05T11:37:59Z</time><name>PT7786</name></trkpt>
<trkpt lat="53.382599" lon="-1.758273"><ele>328</ele><time>2020-08-05T11:38:00Z</time><name>PT7787</name></trkpt>
<trkpt lat="53.382615" lon="-1.758270"><ele>327</ele><time>2020-08-05T11:38:01Z</time><name>PT7788</name></trkpt>
<trkpt lat="53.382628" lon="-1.758274"><ele>327</ele><time>2020-08-05T11:38:02Z</time><name>PT7789</name></trkpt>
<trkpt lat="53.382638" lon="-1.758284"><ele>327</ele><time>2020-08-05T11:38:03Z</time><name>PT7790</name></trkpt>
<trkpt lat="53.382649" lon="-1.758302"><ele>328</ele><time>2020-08-05T11:38:04Z</time><name>PT7791</name></trkpt>
<trkpt lat="53.382658" lon="-1.758311"><ele>328</ele><time>2020-08-05T11:38:05Z</time><name>PT7792</name></trkpt>
<trkpt lat="53.382665" lon="-1.758327"><ele>327</ele><time>2020-08-05T11:38:06Z</time><name>PT7793</name></trkpt>
<trkpt lat="53.382676" lon="-1.758341"><ele>327</ele><time>2020-08-05T11:38:07Z</time><name>PT7794</name></trkpt>
<trkpt lat="53.382686" lon="-1.758352"><ele>327</ele><time>2020-08-05T11:38:07Z</time><name>PT7795</name></trkpt>
<trkpt lat="53.382696" lon="-1.758368"><ele>327</ele><time>2020-08-05T11:38:09Z</time><name>PT7796</name></trkpt>
<trkpt lat="53.382707" lon="-1.758384"><ele>328</ele><time>2020-08-05T11:38:10Z</time><name>PT7797</name></trkpt>
<trkpt lat="53.382717" lon="-1.758390"><ele>328</ele><time>2020-08-05T11:38:11Z</time><name>PT7798</name></trkpt>
<trkpt lat="53.382727" lon="-1.758399"><ele>328</ele><time>2020-08-05T11:38:12Z</time><name>PT7799</name></trkpt>
<trkpt lat="53.382734" lon="-1.758415"><ele>328</ele><time>2020-08-05T11:38:13Z</time><name>PT7800</name></trkpt>
<trkpt lat="53.382747" lon="-1.758425"><ele>328</ele><time>2020-08-05T11:38:14Z</time><name>PT7801</name></trkpt>
<trkpt lat="53.382760" lon="-1.758440"><ele>328</ele><time>2020-08-05T11:38:15Z</time><name>PT7802</name></trkpt>
<trkpt lat="53.382772" lon="-1.758455"><ele>328</ele><time>2020-08-05T11:38:16Z</time><name>PT7803</name></trkpt>
<trkpt lat="53.382781" lon="-1.758472"><ele>329</ele><time>2020-08-05T11:38:17Z</time><name>PT7804</name></trkpt>
<trkpt lat="53.382792" lon="-1.758491"><ele>327</ele><time>2020-08-05T11:38:18Z</time><name>PT7805</name></trkpt>
<trkpt lat="53.382802" lon="-1.758504"><ele>327</ele><time>2020-08-05T11:38:19Z</time><name>PT7806</name></trkpt>
<trkpt lat="53.382809" lon="-1.758520"><ele>327</ele><time>2020-08-05T11:38:20Z</time><name>PT7807</name></trkpt>
<trkpt lat="53.382815" lon="-1.758534"><ele>327</ele><time>2020-08-05T11:38:21Z</time><name>PT7808</name></trkpt>
<trkpt lat="53.382825" lon="-1.758544"><ele>327</ele><time>2020-08-05T11:38:22Z</time><name>PT7809</name></trkpt>
<trkpt lat="53.382836" lon="-1.758556"><ele>326</ele><time>2020-08-05T11:38:23Z</time><name>PT7810</name></trkpt>
<trkpt lat="53.382845" lon="-1.758566"><ele>326</ele><time>2020-08-05T11:38:24Z</time><name>PT7811</name></trkpt>
<trkpt lat="53.382853" lon="-1.758590"><ele>326</ele><time>2020-08-05T11:38:25Z</time><name>PT7812</name></trkpt>
<trkpt lat="53.382864" lon="-1.758609"><ele>326</ele><time>2020-08-05T11:38:26Z</time><name>PT7813</name></trkpt>
<trkpt lat="53.382875" lon="-1.758622"><ele>326</ele><time>2020-08-05T11:38:27Z</time><name>PT7814</name></trkpt>
<trkpt lat="53.382885" lon="-1.758637"><ele>326</ele><time>2020-08-05T11:38:28Z</time><name>PT7815</name></trkpt>
<trkpt lat="53.382896" lon="-1.758650"><ele>327</ele><time>2020-08-05T11:38:29Z</time><name>PT7816</name></trkpt>
<trkpt lat="53.382905" lon="-1.758664"><ele>326</ele><time>2020-08-05T11:38:30Z</time><name>PT7817</name></trkpt>
<trkpt lat="53.382915" lon="-1.758677"><ele>327</ele><time>2020-08-05T11:38:31Z</time><name>PT7818</name></trkpt>
<trkpt lat="53.382924" lon="-1.758695"><ele>327</ele><time>2020-08-05T11:38:32Z</time><name>PT7819</name></trkpt>
<trkpt lat="53.382931" lon="-1.758710"><ele>328</ele><time>2020-08-05T11:38:33Z</time><name>PT7820</name></trkpt>
<trkpt lat="53.382939" lon="-1.758722"><ele>328</ele><time>2020-08-05T11:38:34Z</time><name>PT7821</name></trkpt>
<trkpt lat="53.382948" lon="-1.758734"><ele>328</ele><time>2020-08-05T11:38:35Z</time><name>PT7822</name></trkpt>
<trkpt lat="53.382956" lon="-1.758743"><ele>328</ele><time>2020-08-05T11:38:36Z</time><name>PT7823</name></trkpt>
<trkpt lat="53.382963" lon="-1.758753"><ele>327</ele><time>2020-08-05T11:38:37Z</time><name>PT7824</name></trkpt>
<trkpt lat="53.382971" lon="-1.758771"><ele>327</ele><time>2020-08-05T11:38:38Z</time><name>PT7825</name></trkpt>
<trkpt lat="53.382981" lon="-1.758784"><ele>327</ele><time>2020-08-05T11:38:39Z</time><name>PT7826</name></trkpt>
<trkpt lat="53.382989" lon="-1.758798"><ele>327</ele><time>2020-08-05T11:38:40Z</time><name>PT7827</name></trkpt>
<trkpt lat="53.382997" lon="-1.758806"><ele>327</ele><time>2020-08-05T11:38:41Z</time><name>PT7828</name></trkpt>
<trkpt lat="53.383007" lon="-1.758817"><ele>327</ele><time>2020-08-05T11:38:42Z</time><name>PT7829</name></trkpt>
<trkpt lat="53.383017" lon="-1.758826"><ele>327</ele><time>2020-08-05T11:38:43Z</time><name>PT7830</name></trkpt>
<trkpt lat="53.383030" lon="-1.758838"><ele>327</ele><time>2020-08-05T11:38:44Z</time><name>PT7831</name></trkpt>
<trkpt lat="53.383042" lon="-1.758850"><ele>327</ele><time>2020-08-05T11:38:45Z</time><name>PT7832</name></trkpt>
<trkpt lat="53.383054" lon="-1.758863"><ele>327</ele><time>2020-08-05T11:38:46Z</time><name>PT7833</name></trkpt>
<trkpt lat="53.383066" lon="-1.758875"><ele>328</ele><time>2020-08-05T11:38:47Z</time><name>PT7834</name></trkpt>
<trkpt lat="53.383077" lon="-1.758887"><ele>328</ele><time>2020-08-05T11:38:48Z</time><name>PT7835</name></trkpt>
<trkpt lat="53.383089" lon="-1.758905"><ele>328</ele><time>2020-08-05T11:38:49Z</time><name>PT7836</name></trkpt>
<trkpt lat="53.383101" lon="-1.758921"><ele>329</ele><time>2020-08-05T11:38:50Z</time><name>PT7837</name></trkpt>
<trkpt lat="53.383111" lon="-1.758942"><ele>329</ele><time>2020-08-05T11:38:51Z</time><name>PT7838</name></trkpt>
<trkpt lat="53.383120" lon="-1.758957"><ele>328</ele><time>2020-08-05T11:38:52Z</time><name>PT7839</name></trkpt>
<trkpt lat="53.383131" lon="-1.758968"><ele>328</ele><time>2020-08-05T11:38:53Z</time><name>PT7840</name></trkpt>
<trkpt lat="53.383144" lon="-1.758981"><ele>327</ele><time>2020-08-05T11:38:54Z</time><name>PT7841</name></trkpt>
<trkpt lat="53.383156" lon="-1.758995"><ele>327</ele><time>2020-08-05T11:38:55Z</time><name>PT7842</name></trkpt>
<trkpt lat="53.383168" lon="-1.759003"><ele>327</ele><time>2020-08-05T11:38:56Z</time><name>PT7843</name></trkpt>
<trkpt lat="53.383178" lon="-1.759019"><ele>327</ele><time>2020-08-05T11:38:57Z</time><name>PT7844</name></trkpt>
<trkpt lat="53.383191" lon="-1.759033"><ele>327</ele><time>2020-08-05T11:38:58Z</time><name>PT7845</name></trkpt>
<trkpt lat="53.383201" lon="-1.759047"><ele>327</ele><time>2020-08-05T11:38:59Z</time><name>PT7846</name></trkpt>
<trkpt lat="53.383212" lon="-1.759065"><ele>328</ele><time>2020-08-05T11:39:00Z</time><name>PT7847</name></trkpt>
<trkpt lat="53.383223" lon="-1.759078"><ele>328</ele><time>2020-08-05T11:39:01Z</time><name>PT7848</name></trkpt>
<trkpt lat="53.383233" lon="-1.759090"><ele>328</ele><time>2020-08-05T11:39:02Z</time><name>PT7849</name></trkpt>
<trkpt lat="53.383244" lon="-1.759100"><ele>328</ele><time>2020-08-05T11:39:03Z</time><name>PT7850</name></trkpt>
<trkpt lat="53.383257" lon="-1.759116"><ele>329</ele><time>2020-08-05T11:39:04Z</time><name>PT7851</name></trkpt>
<trkpt lat="53.383269" lon="-1.759130"><ele>329</ele><time>2020-08-05T11:39:05Z</time><name>PT7852</name></trkpt>
<trkpt lat="53.383279" lon="-1.759142"><ele>328</ele><time>2020-08-05T11:39:06Z</time><name>PT7853</name></trkpt>
<trkpt lat="53.383289" lon="-1.759154"><ele>328</ele><time>2020-08-05T11:39:07Z</time><name>PT7854</name></trkpt>
<trkpt lat="53.383297" lon="-1.759169"><ele>328</ele><time>2020-08-05T11:39:07Z</time><name>PT7855</name></trkpt>
<trkpt lat="53.383307" lon="-1.759183"><ele>328</ele><time>2020-08-05T11:39:09Z</time><name>PT7856</name></trkpt>
<trkpt lat="53.383319" lon="-1.759200"><ele>329</ele><time>2020-08-05T11:39:10Z</time><name>PT7857</name></trkpt>
<trkpt lat="53.383331" lon="-1.759219"><ele>329</ele><time>2020-08-05T11:39:11Z</time><name>PT7858</name></trkpt>
<trkpt lat="53.383342" lon="-1.759233"><ele>329</ele><time>2020-08-05T11:39:12Z</time><name>PT7859</name></trkpt>
<trkpt lat="53.383354" lon="-1.759245"><ele>329</ele><time>2020-08-05T11:39:13Z</time><name>PT7860</name></trkpt>
<trkpt lat="53.383368" lon="-1.759259"><ele>330</ele><time>2020-08-05T11:39:13Z</time><name>PT7861</name></trkpt>
<trkpt lat="53.383376" lon="-1.759272"><ele>330</ele><time>2020-08-05T11:39:15Z</time><name>PT7862</name></trkpt>
<trkpt lat="53.383384" lon="-1.759285"><ele>330</ele><time>2020-08-05T11:39:16Z</time><name>PT7863</name></trkpt>
<trkpt lat="53.383393" lon="-1.759303"><ele>331</ele><time>2020-08-05T11:39:17Z</time><name>PT7864</name></trkpt>
<trkpt lat="53.383401" lon="-1.759322"><ele>331</ele><time>2020-08-05T11:39:18Z</time><name>PT7865</name></trkpt>
<trkpt lat="53.383408" lon="-1.759337"><ele>331</ele><time>2020-08-05T11:39:19Z</time><name>PT7866</name></trkpt>
<trkpt lat="53.383416" lon="-1.759349"><ele>331</ele><time>2020-08-05T11:39:20Z</time><name>PT7867</name></trkpt>
<trkpt lat="53.383425" lon="-1.759360"><ele>331</ele><time>2020-08-05T11:39:21Z</time><name>PT7868</name></trkpt>
<trkpt lat="53.383435" lon="-1.759368"><ele>331</ele><time>2020-08-05T11:39:22Z</time><name>PT7869</name></trkpt>
<trkpt lat="53.383444" lon="-1.759378"><ele>331</ele><time>2020-08-05T11:39:23Z</time><name>PT7870</name></trkpt>
<trkpt lat="53.383454" lon="-1.759398"><ele>332</ele><time>2020-08-05T11:39:24Z</time><name>PT7871</name></trkpt>
<trkpt lat="53.383463" lon="-1.759416"><ele>332</ele><time>2020-08-05T11:39:25Z</time><name>PT7872</name></trkpt>
<trkpt lat="53.383471" lon="-1.759429"><ele>332</ele><time>2020-08-05T11:39:26Z</time><name>PT7873</name></trkpt>
<trkpt lat="53.383481" lon="-1.759442"><ele>332</ele><time>2020-08-05T11:39:27Z</time><name>PT7874</name></trkpt>
<trkpt lat="53.383491" lon="-1.759457"><ele>332</ele><time>2020-08-05T11:39:28Z</time><name>PT7875</name></trkpt>
<trkpt lat="53.383501" lon="-1.759466"><ele>333</ele><time>2020-08-05T11:39:29Z</time><name>PT7876</name></trkpt>
<trkpt lat="53.383510" lon="-1.759481"><ele>333</ele><time>2020-08-05T11:39:30Z</time><name>PT7877</name></trkpt>
<trkpt lat="53.383514" lon="-1.759503"><ele>331</ele><time>2020-08-05T11:39:31Z</time><name>PT7878</name></trkpt>
<trkpt lat="53.383521" lon="-1.759521"><ele>331</ele><time>2020-08-05T11:39:32Z</time><name>PT7879</name></trkpt>
<trkpt lat="53.383525" lon="-1.759525"><ele>330</ele><time>2020-08-05T11:39:33Z</time><name>PT7880</name></trkpt>
<trkpt lat="53.383527" lon="-1.759534"><ele>330</ele><time>2020-08-05T11:39:34Z</time><name>PT7881</name></trkpt>
<trkpt lat="53.383527" lon="-1.759535"><ele>330</ele><time>2020-08-05T11:39:35Z</time><name>PT7882</name></trkpt>
<trkpt lat="53.383529" lon="-1.759532"><ele>329</ele><time>2020-08-05T11:39:36Z</time><name>PT7883</name></trkpt>
<trkpt lat="53.383536" lon="-1.759534"><ele>329</ele><time>2020-08-05T11:39:37Z</time><name>PT7884</name></trkpt>
<trkpt lat="53.383550" lon="-1.759541"><ele>329</ele><time>2020-08-05T11:39:38Z</time><name>PT7885</name></trkpt>
<trkpt lat="53.383561" lon="-1.759546"><ele>330</ele><time>2020-08-05T11:39:39Z</time><name>PT7886</name></trkpt>
<trkpt lat="53.383570" lon="-1.759552"><ele>330</ele><time>2020-08-05T11:39:40Z</time><name>PT7887</name></trkpt>
<trkpt lat="53.383578" lon="-1.759565"><ele>329</ele><time>2020-08-05T11:39:41Z</time><name>PT7888</name></trkpt>
<trkpt lat="53.383590" lon="-1.759575"><ele>330</ele><time>2020-08-05T11:39:42Z</time><name>PT7889</name></trkpt>
<trkpt lat="53.383602" lon="-1.759585"><ele>330</ele><time>2020-08-05T11:39:43Z</time><name>PT7890</name></trkpt>
<trkpt lat="53.383613" lon="-1.759589"><ele>330</ele><time>2020-08-05T11:39:43Z</time><name>PT7891</name></trkpt>
<trkpt lat="53.383622" lon="-1.759596"><ele>330</ele><time>2020-08-05T11:39:45Z</time><name>PT7892</name></trkpt>
<trkpt lat="53.383632" lon="-1.759606"><ele>330</ele><time>2020-08-05T11:39:46Z</time><name>PT7893</name></trkpt>
<trkpt lat="53.383641" lon="-1.759611"><ele>330</ele><time>2020-08-05T11:39:46Z</time><name>PT7894</name></trkpt>
<trkpt lat="53.383650" lon="-1.759616"><ele>330</ele><time>2020-08-05T11:39:48Z</time><name>PT7895</name></trkpt>
<trkpt lat="53.383659" lon="-1.759619"><ele>330</ele><time>2020-08-05T11:39:49Z</time><name>PT7896</name></trkpt>
<trkpt lat="53.383670" lon="-1.759623"><ele>330</ele><time>2020-08-05T11:39:50Z</time><name>PT7897</name></trkpt>
<trkpt lat="53.383678" lon="-1.759628"><ele>330</ele><time>2020-08-05T11:39:51Z</time><name>PT7898</name></trkpt>
<trkpt lat="53.383690" lon="-1.759633"><ele>330</ele><time>2020-08-05T11:39:52Z</time><name>PT7899</name></trkpt>
<trkpt lat="53.383703" lon="-1.759636"><ele>330</ele><time>2020-08-05T11:39:53Z</time><name>PT7900</name></trkpt>
<trkpt lat="53.383715" lon="-1.759642"><ele>331</ele><time>2020-08-05T11:39:54Z</time><name>PT7901</name></trkpt>
<trkpt lat="53.383729" lon="-1.759647"><ele>331</ele><time>2020-08-05T11:39:55Z</time><name>PT7902</name></trkpt>
<trkpt lat="53.383741" lon="-1.759648"><ele>331</ele><time>2020-08-05T11:39:56Z</time><name>PT7903</name></trkpt>
<trkpt lat="53.383752" lon="-1.759645"><ele>331</ele><time>2020-08-05T11:39:57Z</time><name>PT7904</name></trkpt>
<trkpt lat="53.383764" lon="-1.759644"><ele>331</ele><time>2020-08-05T11:39:58Z</time><name>PT7905</name></trkpt>
<trkpt lat="53.383775" lon="-1.759648"><ele>332</ele><time>2020-08-05T11:39:59Z</time><name>PT7906</name></trkpt>
<trkpt lat="53.383784" lon="-1.759656"><ele>332</ele><time>2020-08-05T11:40:00Z</time><name>PT7907</name></trkpt>
<trkpt lat="53.383794" lon="-1.759661"><ele>331</ele><time>2020-08-05T11:40:01Z</time><name>PT7908</name></trkpt>
<trkpt lat="53.383805" lon="-1.759668"><ele>332</ele><time>2020-08-05T11:40:02Z</time><name>PT7909</name></trkpt>
<trkpt lat="53.383817" lon="-1.759670"><ele>332</ele><time>2020-08-05T11:40:03Z</time><name>PT7910</name></trkpt>
<trkpt lat="53.383826" lon="-1.759676"><ele>332</ele><time>2020-08-05T11:40:04Z</time><name>PT7911</name></trkpt>
<trkpt lat="53.383837" lon="-1.759691"><ele>333</ele><time>2020-08-05T11:40:05Z</time><name>PT7912</name></trkpt>
<trkpt lat="53.383846" lon="-1.759706"><ele>332</ele><time>2020-08-05T11:40:06Z</time><name>PT7913</name></trkpt>
<trkpt lat="53.383855" lon="-1.759715"><ele>332</ele><time>2020-08-05T11:40:07Z</time><name>PT7914</name></trkpt>
<trkpt lat="53.383867" lon="-1.759729"><ele>333</ele><time>2020-08-05T11:40:08Z</time><name>PT7915</name></trkpt>
<trkpt lat="53.383878" lon="-1.759742"><ele>333</ele><time>2020-08-05T11:40:09Z</time><name>PT7916</name></trkpt>
<trkpt lat="53.383888" lon="-1.759754"><ele>333</ele><time>2020-08-05T11:40:10Z</time><name>PT7917</name></trkpt>
<trkpt lat="53.383896" lon="-1.759764"><ele>332</ele><time>2020-08-05T11:40:11Z</time><name>PT7918</name></trkpt>
<trkpt lat="53.383905" lon="-1.759774"><ele>333</ele><time>2020-08-05T11:40:12Z</time><name>PT7919</name></trkpt>
<trkpt lat="53.383914" lon="-1.759784"><ele>332</ele><time>2020-08-05T11:40:13Z</time><name>PT7920</name></trkpt>
<trkpt lat="53.383922" lon="-1.759790"><ele>333</ele><time>2020-08-05T11:40:14Z</time><name>PT7921</name></trkpt>
<trkpt lat="53.383932" lon="-1.759802"><ele>333</ele><time>2020-08-05T11:40:15Z</time><name>PT7922</name></trkpt>
<trkpt lat="53.383939" lon="-1.759815"><ele>331</ele><time>2020-08-05T11:40:16Z</time><name>PT7923</name></trkpt>
<trkpt lat="53.383946" lon="-1.759827"><ele>332</ele><time>2020-08-05T11:40:17Z</time><name>PT7924</name></trkpt>
<trkpt lat="53.383955" lon="-1.759844"><ele>332</ele><time>2020-08-05T11:40:18Z</time><name>PT7925</name></trkpt>
<trkpt lat="53.383964" lon="-1.759857"><ele>332</ele><time>2020-08-05T11:40:19Z</time><name>PT7926</name></trkpt>
<trkpt lat="53.383972" lon="-1.759875"><ele>332</ele><time>2020-08-05T11:40:20Z</time><name>PT7927</name></trkpt>
<trkpt lat="53.383983" lon="-1.759887"><ele>331</ele><time>2020-08-05T11:40:21Z</time><name>PT7928</name></trkpt>
<trkpt lat="53.383993" lon="-1.759899"><ele>332</ele><time>2020-08-05T11:40:22Z</time><name>PT7929</name></trkpt>
<trkpt lat="53.384003" lon="-1.759906"><ele>332</ele><time>2020-08-05T11:40:23Z</time><name>PT7930</name></trkpt>
<trkpt lat="53.384010" lon="-1.759915"><ele>332</ele><time>2020-08-05T11:40:24Z</time><name>PT7931</name></trkpt>
<trkpt lat="53.384018" lon="-1.759923"><ele>332</ele><time>2020-08-05T11:40:25Z</time><name>PT7932</name></trkpt>
<trkpt lat="53.384026" lon="-1.759932"><ele>332</ele><time>2020-08-05T11:40:26Z</time><name>PT7933</name></trkpt>
<trkpt lat="53.384034" lon="-1.759938"><ele>331</ele><time>2020-08-05T11:40:27Z</time><name>PT7934</name></trkpt>
<trkpt lat="53.384046" lon="-1.759948"><ele>331</ele><time>2020-08-05T11:40:28Z</time><name>PT7935</name></trkpt>
<trkpt lat="53.384055" lon="-1.759958"><ele>331</ele><time>2020-08-05T11:40:29Z</time><name>PT7936</name></trkpt>
<trkpt lat="53.384068" lon="-1.759972"><ele>332</ele><time>2020-08-05T11:40:30Z</time><name>PT7937</name></trkpt>
<trkpt lat="53.384078" lon="-1.759986"><ele>332</ele><time>2020-08-05T11:40:31Z</time><name>PT7938</name></trkpt>
<trkpt lat="53.384089" lon="-1.759998"><ele>332</ele><time>2020-08-05T11:40:32Z</time><name>PT7939</name></trkpt>
<trkpt lat="53.384101" lon="-1.760008"><ele>332</ele><time>2020-08-05T11:40:33Z</time><name>PT7940</name></trkpt>
<trkpt lat="53.384113" lon="-1.760018"><ele>332</ele><time>2020-08-05T11:40:34Z</time><name>PT7941</name></trkpt>
<trkpt lat="53.384122" lon="-1.760027"><ele>332</ele><time>2020-08-05T11:40:35Z</time><name>PT7942</name></trkpt>
<trkpt lat="53.384129" lon="-1.760035"><ele>332</ele><time>2020-08-05T11:40:36Z</time><name>PT7943</name></trkpt>
<trkpt lat="53.384138" lon="-1.760040"><ele>331</ele><time>2020-08-05T11:40:37Z</time><name>PT7944</name></trkpt>
<trkpt lat="53.384147" lon="-1.760049"><ele>331</ele><time>2020-08-05T11:40:38Z</time><name>PT7945</name></trkpt>
<trkpt lat="53.384154" lon="-1.760056"><ele>331</ele><time>2020-08-05T11:40:39Z</time><name>PT7946</name></trkpt>
<trkpt lat="53.384163" lon="-1.760066"><ele>331</ele><time>2020-08-05T11:40:40Z</time><name>PT7947</name></trkpt>
<trkpt lat="53.384172" lon="-1.760078"><ele>331</ele><time>2020-08-05T11:40:41Z</time><name>PT7948</name></trkpt>
<trkpt lat="53.384180" lon="-1.760088"><ele>331</ele><time>2020-08-05T11:40:42Z</time><name>PT7949</name></trkpt>
<trkpt lat="53.384190" lon="-1.760095"><ele>331</ele><time>2020-08-05T11:40:43Z</time><name>PT7950</name></trkpt>
<trkpt lat="53.384204" lon="-1.760103"><ele>332</ele><time>2020-08-05T11:40:44Z</time><name>PT7951</name></trkpt>
<trkpt lat="53.384217" lon="-1.760107"><ele>332</ele><time>2020-08-05T11:40:45Z</time><name>PT7952</name></trkpt>
<trkpt lat="53.384229" lon="-1.760118"><ele>333</ele><time>2020-08-05T11:40:46Z</time><name>PT7953</name></trkpt>
<trkpt lat="53.384240" lon="-1.760130"><ele>334</ele><time>2020-08-05T11:40:47Z</time><name>PT7954</name></trkpt>
<trkpt lat="53.384251" lon="-1.760139"><ele>334</ele><time>2020-08-05T11:40:48Z</time><name>PT7955</name></trkpt>
<trkpt lat="53.384259" lon="-1.760145"><ele>333</ele><time>2020-08-05T11:40:49Z</time><name>PT7956</name></trkpt>
<trkpt lat="53.384264" lon="-1.760152"><ele>333</ele><time>2020-08-05T11:40:50Z</time><name>PT7957</name></trkpt>
<trkpt lat="53.384272" lon="-1.760163"><ele>334</ele><time>2020-08-05T11:40:51Z</time><name>PT7958</name></trkpt>
<trkpt lat="53.384281" lon="-1.760174"><ele>334</ele><time>2020-08-05T11:40:52Z</time><name>PT7959</name></trkpt>
<trkpt lat="53.384288" lon="-1.760182"><ele>334</ele><time>2020-08-05T11:40:53Z</time><name>PT7960</name></trkpt>
<trkpt lat="53.384297" lon="-1.760191"><ele>334</ele><time>2020-08-05T11:40:54Z</time><name>PT7961</name></trkpt>
<trkpt lat="53.384304" lon="-1.760198"><ele>333</ele><time>2020-08-05T11:40:55Z</time><name>PT7962</name></trkpt>
<trkpt lat="53.384313" lon="-1.760208"><ele>333</ele><time>2020-08-05T11:40:56Z</time><name>PT7963</name></trkpt>
<trkpt lat="53.384324" lon="-1.760220"><ele>334</ele><time>2020-08-05T11:40:57Z</time><name>PT7964</name></trkpt>
<trkpt lat="53.384339" lon="-1.760230"><ele>334</ele><time>2020-08-05T11:40:58Z</time><name>PT7965</name></trkpt>
<trkpt lat="53.384350" lon="-1.760243"><ele>334</ele><time>2020-08-05T11:40:59Z</time><name>PT7966</name></trkpt>
<trkpt lat="53.384359" lon="-1.760252"><ele>334</ele><time>2020-08-05T11:41:00Z</time><name>PT7967</name></trkpt>
<trkpt lat="53.384370" lon="-1.760260"><ele>334</ele><time>2020-08-05T11:41:01Z</time><name>PT7968</name></trkpt>
<trkpt lat="53.384378" lon="-1.760272"><ele>334</ele><time>2020-08-05T11:41:01Z</time><name>PT7969</name></trkpt>
<trkpt lat="53.384385" lon="-1.760286"><ele>335</ele><time>2020-08-05T11:41:03Z</time><name>PT7970</name></trkpt>
<trkpt lat="53.384392" lon="-1.760301"><ele>334</ele><time>2020-08-05T11:41:04Z</time><name>PT7971</name></trkpt>
<trkpt lat="53.384403" lon="-1.760312"><ele>335</ele><time>2020-08-05T11:41:05Z</time><name>PT7972</name></trkpt>
<trkpt lat="53.384408" lon="-1.760318"><ele>334</ele><time>2020-08-05T11:41:06Z</time><name>PT7973</name></trkpt>
<trkpt lat="53.384417" lon="-1.760327"><ele>334</ele><time>2020-08-05T11:41:07Z</time><name>PT7974</name></trkpt>
<trkpt lat="53.384424" lon="-1.760337"><ele>334</ele><time>2020-08-05T11:41:08Z</time><name>PT7975</name></trkpt>
<trkpt lat="53.384433" lon="-1.760346"><ele>333</ele><time>2020-08-05T11:41:09Z</time><name>PT7976</name></trkpt>
<trkpt lat="53.384445" lon="-1.760357"><ele>334</ele><time>2020-08-05T11:41:10Z</time><name>PT7977</name></trkpt>
<trkpt lat="53.384453" lon="-1.760368"><ele>334</ele><time>2020-08-05T11:41:11Z</time><name>PT7978</name></trkpt>
<trkpt lat="53.384461" lon="-1.760373"><ele>334</ele><time>2020-08-05T11:41:12Z</time><name>PT7979</name></trkpt>
<trkpt lat="53.384467" lon="-1.760379"><ele>333</ele><time>2020-08-05T11:41:13Z</time><name>PT7980</name></trkpt>
<trkpt lat="53.384477" lon="-1.760387"><ele>333</ele><time>2020-08-05T11:41:14Z</time><name>PT7981</name></trkpt>
<trkpt lat="53.384488" lon="-1.760393"><ele>333</ele><time>2020-08-05T11:41:15Z</time><name>PT7982</name></trkpt>
<trkpt lat="53.384499" lon="-1.760401"><ele>334</ele><time>2020-08-05T11:41:16Z</time><name>PT7983</name></trkpt>
<trkpt lat="53.384511" lon="-1.760411"><ele>334</ele><time>2020-08-05T11:41:16Z</time><name>PT7984</name></trkpt>
<trkpt lat="53.384520" lon="-1.760424"><ele>334</ele><time>2020-08-05T11:41:18Z</time><name>PT7985</name></trkpt>
<trkpt lat="53.384531" lon="-1.760436"><ele>335</ele><time>2020-08-05T11:41:19Z</time><name>PT7986</name></trkpt>
<trkpt lat="53.384542" lon="-1.760448"><ele>335</ele><time>2020-08-05T11:41:20Z</time><name>PT7987</name></trkpt>
<trkpt lat="53.384554" lon="-1.760462"><ele>335</ele><time>2020-08-05T11:41:21Z</time><name>PT7988</name></trkpt>
<trkpt lat="53.384563" lon="-1.760470"><ele>335</ele><time>2020-08-05T11:41:22Z</time><name>PT7989</name></trkpt>
<trkpt lat="53.384570" lon="-1.760478"><ele>335</ele><time>2020-08-05T11:41:22Z</time><name>PT7990</name></trkpt>
<trkpt lat="53.384580" lon="-1.760490"><ele>335</ele><time>2020-08-05T11:41:24Z</time><name>PT7991</name></trkpt>
<trkpt lat="53.384591" lon="-1.760500"><ele>335</ele><time>2020-08-05T11:41:25Z</time><name>PT7992</name></trkpt>
<trkpt lat="53.384602" lon="-1.760511"><ele>335</ele><time>2020-08-05T11:41:25Z</time><name>PT7993</name></trkpt>
<trkpt lat="53.384611" lon="-1.760522"><ele>335</ele><time>2020-08-05T11:41:27Z</time><name>PT7994</name></trkpt>
<trkpt lat="53.384621" lon="-1.760531"><ele>335</ele><time>2020-08-05T11:41:28Z</time><name>PT7995</name></trkpt>
<trkpt lat="53.384630" lon="-1.760538"><ele>335</ele><time>2020-08-05T11:41:29Z</time><name>PT7996</name></trkpt>
<trkpt lat="53.384639" lon="-1.760548"><ele>335</ele><time>2020-08-05T11:41:30Z</time><name>PT7997</name></trkpt>
<trkpt lat="53.384649" lon="-1.760554"><ele>335</ele><time>2020-08-05T11:41:31Z</time><name>PT7998</name></trkpt>
<trkpt lat="53.384658" lon="-1.760560"><ele>335</ele><time>2020-08-05T11:41:32Z</time><name>PT7999</name></trkpt>
<trkpt lat="53.384670" lon="-1.760568"><ele>336</ele><time>2020-08-05T11:41:33Z</time><name>PT8000</name></trkpt>
<trkpt lat="53.384683" lon="-1.760576"><ele>337</ele><time>2020-08-05T11:41:34Z</time><name>PT8001</name></trkpt>
<trkpt lat="53.384694" lon="-1.760587"><ele>337</ele><time>2020-08-05T11:41:35Z</time><name>PT8002</name></trkpt>
<trkpt lat="53.384705" lon="-1.760593"><ele>337</ele><time>2020-08-05T11:41:36Z</time><name>PT8003</name></trkpt>
<trkpt lat="53.384714" lon="-1.760596"><ele>337</ele><time>2020-08-05T11:41:37Z</time><name>PT8004</name></trkpt>
<trkpt lat="53.384726" lon="-1.760605"><ele>338</ele><time>2020-08-05T11:41:38Z</time><name>PT8005</name></trkpt>
<trkpt lat="53.384736" lon="-1.760612"><ele>338</ele><time>2020-08-05T11:41:39Z</time><name>PT8006</name></trkpt>
<trkpt lat="53.384746" lon="-1.760623"><ele>339</ele><time>2020-08-05T11:41:40Z</time><name>PT8007</name></trkpt>
<trkpt lat="53.384754" lon="-1.760630"><ele>339</ele><time>2020-08-05T11:41:40Z</time><name>PT8008</name></trkpt>
<trkpt lat="53.384762" lon="-1.760639"><ele>340</ele><time>2020-08-05T11:41:42Z</time><name>PT8009</name></trkpt>
<trkpt lat="53.384776" lon="-1.760651"><ele>340</ele><time>2020-08-05T11:41:43Z</time><name>PT8010</name></trkpt>
<trkpt lat="53.384782" lon="-1.760660"><ele>340</ele><time>2020-08-05T11:41:44Z</time><name>PT8011</name></trkpt>
<trkpt lat="53.384789" lon="-1.760669"><ele>340</ele><time>2020-08-05T11:41:45Z</time><name>PT8012</name></trkpt>
<trkpt lat="53.384801" lon="-1.760676"><ele>340</ele><time>2020-08-05T11:41:46Z</time><name>PT8013</name></trkpt>
<trkpt lat="53.384811" lon="-1.760681"><ele>341</ele><time>2020-08-05T11:41:47Z</time><name>PT8014</name></trkpt>
<trkpt lat="53.384820" lon="-1.760686"><ele>341</ele><time>2020-08-05T11:41:48Z</time><name>PT8015</name></trkpt>
<trkpt lat="53.384830" lon="-1.760697"><ele>341</ele><time>2020-08-05T11:41:49Z</time><name>PT8016</name></trkpt>
<trkpt lat="53.384836" lon="-1.760708"><ele>341</ele><time>2020-08-05T11:41:50Z</time><name>PT8017</name></trkpt>
<trkpt lat="53.384845" lon="-1.760717"><ele>341</ele><time>2020-08-05T11:41:51Z</time><name>PT8018</name></trkpt>
<trkpt lat="53.384853" lon="-1.760725"><ele>341</ele><time>2020-08-05T11:41:52Z</time><name>PT8019</name></trkpt>
<trkpt lat="53.384860" lon="-1.760734"><ele>341</ele><time>2020-08-05T11:41:53Z</time><name>PT8020</name></trkpt>
<trkpt lat="53.384869" lon="-1.760742"><ele>341</ele><time>2020-08-05T11:41:54Z</time><name>PT8021</name></trkpt>
<trkpt lat="53.384878" lon="-1.760746"><ele>341</ele><time>2020-08-05T11:41:55Z</time><name>PT8022</name></trkpt>
<trkpt lat="53.384887" lon="-1.760752"><ele>341</ele><time>2020-08-05T11:41:56Z</time><name>PT8023</name></trkpt>
<trkpt lat="53.384895" lon="-1.760759"><ele>341</ele><time>2020-08-05T11:41:57Z</time><name>PT8024</name></trkpt>
<trkpt lat="53.384902" lon="-1.760766"><ele>341</ele><time>2020-08-05T11:41:58Z</time><name>PT8025</name></trkpt>
<trkpt lat="53.384909" lon="-1.760775"><ele>341</ele><time>2020-08-05T11:41:59Z</time><name>PT8026</name></trkpt>
<trkpt lat="53.384918" lon="-1.760782"><ele>341</ele><time>2020-08-05T11:42:00Z</time><name>PT8027</name></trkpt>
<trkpt lat="53.384929" lon="-1.760793"><ele>342</ele><time>2020-08-05T11:42:01Z</time><name>PT8028</name></trkpt>
<trkpt lat="53.384936" lon="-1.760801"><ele>342</ele><time>2020-08-05T11:42:01Z</time><name>PT8029</name></trkpt>
<trkpt lat="53.384945" lon="-1.760812"><ele>342</ele><time>2020-08-05T11:42:03Z</time><name>PT8030</name></trkpt>
<trkpt lat="53.384956" lon="-1.760821"><ele>342</ele><time>2020-08-05T11:42:04Z</time><name>PT8031</name></trkpt>
<trkpt lat="53.384969" lon="-1.760830"><ele>343</ele><time>2020-08-05T11:42:05Z</time><name>PT8032</name></trkpt>
<trkpt lat="53.384979" lon="-1.760839"><ele>343</ele><time>2020-08-05T11:42:06Z</time><name>PT8033</name></trkpt>
<trkpt lat="53.384988" lon="-1.760845"><ele>344</ele><time>2020-08-05T11:42:07Z</time><name>PT8034</name></trkpt>
<trkpt lat="53.384996" lon="-1.760852"><ele>343</ele><time>2020-08-05T11:42:08Z</time><name>PT8035</name></trkpt>
<trkpt lat="53.385003" lon="-1.760860"><ele>343</ele><time>2020-08-05T11:42:09Z</time><name>PT8036</name></trkpt>
<trkpt lat="53.385010" lon="-1.760869"><ele>343</ele><time>2020-08-05T11:42:10Z</time><name>PT8037</name></trkpt>
<trkpt lat="53.385018" lon="-1.760879"><ele>343</ele><time>2020-08-05T11:42:10Z</time><name>PT8038</name></trkpt>
<trkpt lat="53.385029" lon="-1.760889"><ele>343</ele><time>2020-08-05T11:42:12Z</time><name>PT8039</name></trkpt>
<trkpt lat="53.385041" lon="-1.760898"><ele>343</ele><time>2020-08-05T11:42:13Z</time><name>PT8040</name></trkpt>
<trkpt lat="53.385050" lon="-1.760906"><ele>343</ele><time>2020-08-05T11:42:14Z</time><name>PT8041</name></trkpt>
<trkpt lat="53.385058" lon="-1.760919"><ele>343</ele><time>2020-08-05T11:42:15Z</time><name>PT8042</name></trkpt>
<trkpt lat="53.385070" lon="-1.760930"><ele>344</ele><time>2020-08-05T11:42:16Z</time><name>PT8043</name></trkpt>
<trkpt lat="53.385079" lon="-1.760937"><ele>344</ele><time>2020-08-05T11:42:17Z</time><name>PT8044</name></trkpt>
<trkpt lat="53.385087" lon="-1.760942"><ele>344</ele><time>2020-08-05T11:42:18Z</time><name>PT8045</name></trkpt>
<trkpt lat="53.385095" lon="-1.760950"><ele>344</ele><time>2020-08-05T11:42:19Z</time><name>PT8046</name></trkpt>
<trkpt lat="53.385102" lon="-1.760958"><ele>344</ele><time>2020-08-05T11:42:20Z</time><name>PT8047</name></trkpt>
<trkpt lat="53.385111" lon="-1.760968"><ele>343</ele><time>2020-08-05T11:42:21Z</time><name>PT8048</name></trkpt>
<trkpt lat="53.385120" lon="-1.760980"><ele>343</ele><time>2020-08-05T11:42:22Z</time><name>PT8049</name></trkpt>
<trkpt lat="53.385129" lon="-1.760988"><ele>343</ele><time>2020-08-05T11:42:23Z</time><name>PT8050</name></trkpt>
<trkpt lat="53.385139" lon="-1.760997"><ele>344</ele><time>2020-08-05T11:42:24Z</time><name>PT8051</name></trkpt>
<trkpt lat="53.385147" lon="-1.761006"><ele>343</ele><time>2020-08-05T11:42:25Z</time><name>PT8052</name></trkpt>
<trkpt lat="53.385155" lon="-1.761014"><ele>344</ele><time>2020-08-05T11:42:26Z</time><name>PT8053</name></trkpt>
<trkpt lat="53.385164" lon="-1.761031"><ele>345</ele><time>2020-08-05T11:42:27Z</time><name>PT8054</name></trkpt>
<trkpt lat="53.385173" lon="-1.761040"><ele>345</ele><time>2020-08-05T11:42:28Z</time><name>PT8055</name></trkpt>
<trkpt lat="53.385180" lon="-1.761052"><ele>345</ele><time>2020-08-05T11:42:29Z</time><name>PT8056</name></trkpt>
<trkpt lat="53.385187" lon="-1.761061"><ele>345</ele><time>2020-08-05T11:42:30Z</time><name>PT8057</name></trkpt>
<trkpt lat="53.385195" lon="-1.761066"><ele>345</ele><time>2020-08-05T11:42:31Z</time><name>PT8058</name></trkpt>
<trkpt lat="53.385204" lon="-1.761075"><ele>345</ele><time>2020-08-05T11:42:32Z</time><name>PT8059</name></trkpt>
<trkpt lat="53.385213" lon="-1.761090"><ele>346</ele><time>2020-08-05T11:42:33Z</time><name>PT8060</name></trkpt>
<trkpt lat="53.385220" lon="-1.761099"><ele>345</ele><time>2020-08-05T11:42:34Z</time><name>PT8061</name></trkpt>
<trkpt lat="53.385230" lon="-1.761109"><ele>345</ele><time>2020-08-05T11:42:35Z</time><name>PT8062</name></trkpt>
<trkpt lat="53.385236" lon="-1.761122"><ele>345</ele><time>2020-08-05T11:42:36Z</time><name>PT8063</name></trkpt>
<trkpt lat="53.385246" lon="-1.761136"><ele>346</ele><time>2020-08-05T11:42:37Z</time><name>PT8064</name></trkpt>
<trkpt lat="53.385256" lon="-1.761148"><ele>346</ele><time>2020-08-05T11:42:38Z</time><name>PT8065</name></trkpt>
<trkpt lat="53.385263" lon="-1.761157"><ele>346</ele><time>2020-08-05T11:42:39Z</time><name>PT8066</name></trkpt>
<trkpt lat="53.385274" lon="-1.761170"><ele>346</ele><time>2020-08-05T11:42:40Z</time><name>PT8067</name></trkpt>
<trkpt lat="53.385285" lon="-1.761184"><ele>346</ele><time>2020-08-05T11:42:41Z</time><name>PT8068</name></trkpt>
<trkpt lat="53.385296" lon="-1.761199"><ele>346</ele><time>2020-08-05T11:42:42Z</time><name>PT8069</name></trkpt>
<trkpt lat="53.385307" lon="-1.761208"><ele>347</ele><time>2020-08-05T11:42:43Z</time><name>PT8070</name></trkpt>
<trkpt lat="53.385315" lon="-1.761219"><ele>347</ele><time>2020-08-05T11:42:44Z</time><name>PT8071</name></trkpt>
<trkpt lat="53.385323" lon="-1.761228"><ele>346</ele><time>2020-08-05T11:42:45Z</time><name>PT8072</name></trkpt>
<trkpt lat="53.385331" lon="-1.761238"><ele>346</ele><time>2020-08-05T11:42:46Z</time><name>PT8073</name></trkpt>
<trkpt lat="53.385338" lon="-1.761249"><ele>346</ele><time>2020-08-05T11:42:47Z</time><name>PT8074</name></trkpt>
<trkpt lat="53.385343" lon="-1.761256"><ele>345</ele><time>2020-08-05T11:42:48Z</time><name>PT8075</name></trkpt>
<trkpt lat="53.385349" lon="-1.761267"><ele>345</ele><time>2020-08-05T11:42:49Z</time><name>PT8076</name></trkpt>
<trkpt lat="53.385356" lon="-1.761274"><ele>345</ele><time>2020-08-05T11:42:50Z</time><name>PT8077</name></trkpt>
<trkpt lat="53.385366" lon="-1.761287"><ele>345</ele><time>2020-08-05T11:42:51Z</time><name>PT8078</name></trkpt>
<trkpt lat="53.385374" lon="-1.761303"><ele>345</ele><time>2020-08-05T11:42:52Z</time><name>PT8079</name></trkpt>
<trkpt lat="53.385379" lon="-1.761313"><ele>346</ele><time>2020-08-05T11:42:52Z</time><name>PT8080</name></trkpt>
<trkpt lat="53.385383" lon="-1.761321"><ele>346</ele><time>2020-08-05T11:42:54Z</time><name>PT8081</name></trkpt>
<trkpt lat="53.385385" lon="-1.761332"><ele>346</ele><time>2020-08-05T11:42:55Z</time><name>PT8082</name></trkpt>
<trkpt lat="53.385387" lon="-1.761337"><ele>346</ele><time>2020-08-05T11:42:56Z</time><name>PT8083</name></trkpt>
<trkpt lat="53.385388" lon="-1.761338"><ele>347</ele><time>2020-08-05T11:42:57Z</time><name>PT8084</name></trkpt>
<trkpt lat="53.385393" lon="-1.761346"><ele>347</ele><time>2020-08-05T11:42:58Z</time><name>PT8085</name></trkpt>
<trkpt lat="53.385398" lon="-1.761354"><ele>348</ele><time>2020-08-05T11:42:58Z</time><name>PT8086</name></trkpt>
<trkpt lat="53.385399" lon="-1.761354"><ele>347</ele><time>2020-08-05T11:43:00Z</time><name>PT8087</name></trkpt>
<trkpt lat="53.385397" lon="-1.761355"><ele>347</ele><time>2020-08-05T11:43:01Z</time><name>PT8088</name></trkpt>
<trkpt lat="53.385399" lon="-1.761362"><ele>347</ele><time>2020-08-05T11:43:02Z</time><name>PT8089</name></trkpt>
<trkpt lat="53.385402" lon="-1.761371"><ele>347</ele><time>2020-08-05T11:43:03Z</time><name>PT8090</name></trkpt>
<trkpt lat="53.385403" lon="-1.761383"><ele>347</ele><time>2020-08-05T11:43:04Z</time><name>PT8091</name></trkpt>
<trkpt lat="53.385400" lon="-1.761388"><ele>347</ele><time>2020-08-05T11:43:05Z</time><name>PT8092</name></trkpt>
<trkpt lat="53.385399" lon="-1.761387"><ele>347</ele><time>2020-08-05T11:43:06Z</time><name>PT8093</name></trkpt>
<trkpt lat="53.385399" lon="-1.761385"><ele>347</ele><time>2020-08-05T11:43:07Z</time><name>PT8094</name></trkpt>
<trkpt lat="53.385394" lon="-1.761389"><ele>346</ele><time>2020-08-05T11:43:08Z</time><name>PT8095</name></trkpt>
<trkpt lat="53.385386" lon="-1.761392"><ele>346</ele><time>2020-08-05T11:43:09Z</time><name>PT8096</name></trkpt>
<trkpt lat="53.385384" lon="-1.761393"><ele>346</ele><time>2020-08-05T11:43:10Z</time><name>PT8097</name></trkpt>
<trkpt lat="53.385384" lon="-1.761395"><ele>346</ele><time>2020-08-05T11:43:11Z</time><name>PT8098</name></trkpt>
<trkpt lat="53.385383" lon="-1.761400"><ele>346</ele><time>2020-08-05T11:43:12Z</time><name>PT8099</name></trkpt>
<trkpt lat="53.385381" lon="-1.761404"><ele>345</ele><time>2020-08-05T11:43:13Z</time><name>PT8100</name></trkpt>
<trkpt lat="53.385373" lon="-1.761413"><ele>345</ele><time>2020-08-05T11:43:14Z</time><name>PT8101</name></trkpt>
<trkpt lat="53.385365" lon="-1.761426"><ele>345</ele><time>2020-08-05T11:43:15Z</time><name>PT8102</name></trkpt>
<trkpt lat="53.385354" lon="-1.761439"><ele>344</ele><time>2020-08-05T11:43:16Z</time><name>PT8103</name></trkpt>
<trkpt lat="53.385346" lon="-1.761450"><ele>344</ele><time>2020-08-05T11:43:17Z</time><name>PT8104</name></trkpt>
<trkpt lat="53.385336" lon="-1.761458"><ele>344</ele><time>2020-08-05T11:43:18Z</time><name>PT8105</name></trkpt>
<trkpt lat="53.385326" lon="-1.761466"><ele>344</ele><time>2020-08-05T11:43:19Z</time><name>PT8106</name></trkpt>
<trkpt lat="53.385318" lon="-1.761474"><ele>343</ele><time>2020-08-05T11:43:20Z</time><name>PT8107</name></trkpt>
<trkpt lat="53.385308" lon="-1.761483"><ele>343</ele><time>2020-08-05T11:43:21Z</time><name>PT8108</name></trkpt>
<trkpt lat="53.385299" lon="-1.761494"><ele>343</ele><time>2020-08-05T11:43:22Z</time><name>PT8109</name></trkpt>
<trkpt lat="53.385289" lon="-1.761503"><ele>342</ele><time>2020-08-05T11:43:23Z</time><name>PT8110</name></trkpt>
<trkpt lat="53.385279" lon="-1.761513"><ele>342</ele><time>2020-08-05T11:43:24Z</time><name>PT8111</name></trkpt>
<trkpt lat="53.385271" lon="-1.761527"><ele>343</ele><time>2020-08-05T11:43:25Z</time><name>PT8112</name></trkpt>
<trkpt lat="53.385262" lon="-1.761540"><ele>342</ele><time>2020-08-05T11:43:26Z</time><name>PT8113</name></trkpt>
<trkpt lat="53.385254" lon="-1.761556"><ele>342</ele><time>2020-08-05T11:43:27Z</time><name>PT8114</name></trkpt>
<trkpt lat="53.385247" lon="-1.761571"><ele>343</ele><time>2020-08-05T11:43:28Z</time><name>PT8115</name></trkpt>
<trkpt lat="53.385238" lon="-1.761584"><ele>343</ele><time>2020-08-05T11:43:29Z</time><name>PT8116</name></trkpt>
<trkpt lat="53.385230" lon="-1.761596"><ele>344</ele><time>2020-08-05T11:43:30Z</time><name>PT8117</name></trkpt>
<trkpt lat="53.385220" lon="-1.761607"><ele>344</ele><time>2020-08-05T11:43:31Z</time><name>PT8118</name></trkpt>
<trkpt lat="53.385211" lon="-1.761620"><ele>344</ele><time>2020-08-05T11:43:32Z</time><name>PT8119</name></trkpt>
<trkpt lat="53.385202" lon="-1.761630"><ele>344</ele><time>2020-08-05T11:43:33Z</time><name>PT8120</name></trkpt>
<trkpt lat="53.385191" lon="-1.761641"><ele>343</ele><time>2020-08-05T11:43:34Z</time><name>PT8121</name></trkpt>
<trkpt lat="53.385182" lon="-1.761653"><ele>343</ele><time>2020-08-05T11:43:35Z</time><name>PT8122</name></trkpt>
<trkpt lat="53.385173" lon="-1.761663"><ele>343</ele><time>2020-08-05T11:43:36Z</time><name>PT8123</name></trkpt>
<trkpt lat="53.385161" lon="-1.761671"><ele>342</ele><time>2020-08-05T11:43:37Z</time><name>PT8124</name></trkpt>
<trkpt lat="53.385149" lon="-1.761678"><ele>342</ele><time>2020-08-05T11:43:38Z</time><name>PT8125</name></trkpt>
<trkpt lat="53.385138" lon="-1.761688"><ele>342</ele><time>2020-08-05T11:43:39Z</time><name>PT8126</name></trkpt>
<trkpt lat="53.385130" lon="-1.761700"><ele>342</ele><time>2020-08-05T11:43:40Z</time><name>PT8127</name></trkpt>
<trkpt lat="53.385120" lon="-1.761710"><ele>342</ele><time>2020-08-05T11:43:41Z</time><name>PT8128</name></trkpt>
<trkpt lat="53.385110" lon="-1.761716"><ele>342</ele><time>2020-08-05T11:43:42Z</time><name>PT8129</name></trkpt>
<trkpt lat="53.385098" lon="-1.761723"><ele>342</ele><time>2020-08-05T11:43:43Z</time><name>PT8130</name></trkpt>
<trkpt lat="53.385088" lon="-1.761732"><ele>342</ele><time>2020-08-05T11:43:44Z</time><name>PT8131</name></trkpt>
<trkpt lat="53.385080" lon="-1.761744"><ele>342</ele><time>2020-08-05T11:43:45Z</time><name>PT8132</name></trkpt>
<trkpt lat="53.385069" lon="-1.761756"><ele>342</ele><time>2020-08-05T11:43:46Z</time><name>PT8133</name></trkpt>
<trkpt lat="53.385063" lon="-1.761770"><ele>342</ele><time>2020-08-05T11:43:47Z</time><name>PT8134</name></trkpt>
<trkpt lat="53.385047" lon="-1.761783"><ele>340</ele><time>2020-08-05T11:43:48Z</time><name>PT8135</name></trkpt>
<trkpt lat="53.385039" lon="-1.761797"><ele>340</ele><time>2020-08-05T11:43:49Z</time><name>PT8136</name></trkpt>
<trkpt lat="53.385033" lon="-1.761810"><ele>341</ele><time>2020-08-05T11:43:50Z</time><name>PT8137</name></trkpt>
<trkpt lat="53.385022" lon="-1.761819"><ele>340</ele><time>2020-08-05T11:43:51Z</time><name>PT8138</name></trkpt>
<trkpt lat="53.385016" lon="-1.761825"><ele>340</ele><time>2020-08-05T11:43:52Z</time><name>PT8139</name></trkpt>
<trkpt lat="53.385012" lon="-1.761827"><ele>340</ele><time>2020-08-05T11:43:52Z</time><name>PT8140</name></trkpt>
<trkpt lat="53.385012" lon="-1.761829"><ele>340</ele><time>2020-08-05T11:43:54Z</time><name>PT8141</name></trkpt>
<trkpt lat="53.385012" lon="-1.761829"><ele>340</ele><time>2020-08-05T11:43:55Z</time><name>PT8142</name></trkpt>
<trkpt lat="53.385012" lon="-1.761830"><ele>340</ele><time>2020-08-05T11:43:56Z</time><name>PT8143</name></trkpt>
<trkpt lat="53.385009" lon="-1.761843"><ele>340</ele><time>2020-08-05T11:44:15Z</time><name>PT8144</name></trkpt>
<trkpt lat="53.384999" lon="-1.761857"><ele>340</ele><time>2020-08-05T11:44:16Z</time><name>PT8145</name></trkpt>
<trkpt lat="53.384989" lon="-1.761870"><ele>341</ele><time>2020-08-05T11:44:17Z</time><name>PT8146</name></trkpt>
<trkpt lat="53.384976" lon="-1.761881"><ele>341</ele><time>2020-08-05T11:44:18Z</time><name>PT8147</name></trkpt>
<trkpt lat="53.384967" lon="-1.761895"><ele>341</ele><time>2020-08-05T11:44:19Z</time><name>PT8148</name></trkpt>
<trkpt lat="53.384957" lon="-1.761909"><ele>340</ele><time>2020-08-05T11:44:20Z</time><name>PT8149</name></trkpt>
<trkpt lat="53.384948" lon="-1.761920"><ele>340</ele><time>2020-08-05T11:44:21Z</time><name>PT8150</name></trkpt>
<trkpt lat="53.384939" lon="-1.761932"><ele>340</ele><time>2020-08-05T11:44:22Z</time><name>PT8151</name></trkpt>
<trkpt lat="53.384931" lon="-1.761943"><ele>340</ele><time>2020-08-05T11:44:23Z</time><name>PT8152</name></trkpt>
<trkpt lat="53.384925" lon="-1.761952"><ele>340</ele><time>2020-08-05T11:44:24Z</time><name>PT8153</name></trkpt>
<trkpt lat="53.384916" lon="-1.761963"><ele>339</ele><time>2020-08-05T11:44:25Z</time><name>PT8154</name></trkpt>
<trkpt lat="53.384907" lon="-1.761972"><ele>339</ele><time>2020-08-05T11:44:26Z</time><name>PT8155</name></trkpt>
<trkpt lat="53.384900" lon="-1.761981"><ele>339</ele><time>2020-08-05T11:44:27Z</time><name>PT8156</name></trkpt>
<trkpt lat="53.384891" lon="-1.761992"><ele>339</ele><time>2020-08-05T11:44:28Z</time><name>PT8157</name></trkpt>
<trkpt lat="53.384884" lon="-1.762004"><ele>339</ele><time>2020-08-05T11:44:29Z</time><name>PT8158</name></trkpt>
<trkpt lat="53.384877" lon="-1.762019"><ele>339</ele><time>2020-08-05T11:44:30Z</time><name>PT8159</name></trkpt>
<trkpt lat="53.384869" lon="-1.762029"><ele>338</ele><time>2020-08-05T11:44:31Z</time><name>PT8160</name></trkpt>
<trkpt lat="53.384859" lon="-1.762038"><ele>338</ele><time>2020-08-05T11:44:31Z</time><name>PT8161</name></trkpt>
<trkpt lat="53.384851" lon="-1.762046"><ele>338</ele><time>2020-08-05T11:44:33Z</time><name>PT8162</name></trkpt>
<trkpt lat="53.384843" lon="-1.762053"><ele>338</ele><time>2020-08-05T11:44:34Z</time><name>PT8163</name></trkpt>
<trkpt lat="53.384831" lon="-1.762059"><ele>338</ele><time>2020-08-05T11:44:35Z</time><name>PT8164</name></trkpt>
<trkpt lat="53.384820" lon="-1.762070"><ele>338</ele><time>2020-08-05T11:44:36Z</time><name>PT8165</name></trkpt>
<trkpt lat="53.384813" lon="-1.762079"><ele>338</ele><time>2020-08-05T11:44:37Z</time><name>PT8166</name></trkpt>
<trkpt lat="53.384806" lon="-1.762091"><ele>337</ele><time>2020-08-05T11:44:38Z</time><name>PT8167</name></trkpt>
<trkpt lat="53.384797" lon="-1.762105"><ele>337</ele><time>2020-08-05T11:44:39Z</time><name>PT8168</name></trkpt>
<trkpt lat="53.384788" lon="-1.762116"><ele>337</ele><time>2020-08-05T11:44:40Z</time><name>PT8169</name></trkpt>
<trkpt lat="53.384779" lon="-1.762128"><ele>337</ele><time>2020-08-05T11:44:41Z</time><name>PT8170</name></trkpt>
<trkpt lat="53.384770" lon="-1.762140"><ele>336</ele><time>2020-08-05T11:44:42Z</time><name>PT8171</name></trkpt>
<trkpt lat="53.384759" lon="-1.762154"><ele>336</ele><time>2020-08-05T11:44:43Z</time><name>PT8172</name></trkpt>
<trkpt lat="53.384751" lon="-1.762172"><ele>336</ele><time>2020-08-05T11:44:44Z</time><name>PT8173</name></trkpt>
<trkpt lat="53.384742" lon="-1.762187"><ele>336</ele><time>2020-08-05T11:44:45Z</time><name>PT8174</name></trkpt>
<trkpt lat="53.384729" lon="-1.762198"><ele>336</ele><time>2020-08-05T11:44:46Z</time><name>PT8175</name></trkpt>
<trkpt lat="53.384720" lon="-1.762212"><ele>336</ele><time>2020-08-05T11:44:47Z</time><name>PT8176</name></trkpt>
<trkpt lat="53.384711" lon="-1.762225"><ele>335</ele><time>2020-08-05T11:44:48Z</time><name>PT8177</name></trkpt>
<trkpt lat="53.384701" lon="-1.762237"><ele>335</ele><time>2020-08-05T11:44:49Z</time><name>PT8178</name></trkpt>
<trkpt lat="53.384694" lon="-1.762254"><ele>335</ele><time>2020-08-05T11:44:50Z</time><name>PT8179</name></trkpt>
<trkpt lat="53.384682" lon="-1.762267"><ele>334</ele><time>2020-08-05T11:44:51Z</time><name>PT8180</name></trkpt>
<trkpt lat="53.384673" lon="-1.762279"><ele>334</ele><time>2020-08-05T11:44:52Z</time><name>PT8181</name></trkpt>
<trkpt lat="53.384664" lon="-1.762293"><ele>334</ele><time>2020-08-05T11:44:53Z</time><name>PT8182</name></trkpt>
<trkpt lat="53.384655" lon="-1.762308"><ele>333</ele><time>2020-08-05T11:44:54Z</time><name>PT8183</name></trkpt>
<trkpt lat="53.384646" lon="-1.762320"><ele>332</ele><time>2020-08-05T11:44:55Z</time><name>PT8184</name></trkpt>
<trkpt lat="53.384637" lon="-1.762332"><ele>333</ele><time>2020-08-05T11:44:56Z</time><name>PT8185</name></trkpt>
<trkpt lat="53.384628" lon="-1.762346"><ele>333</ele><time>2020-08-05T11:44:57Z</time><name>PT8186</name></trkpt>
<trkpt lat="53.384619" lon="-1.762366"><ele>333</ele><time>2020-08-05T11:44:58Z</time><name>PT8187</name></trkpt>
<trkpt lat="53.384610" lon="-1.762379"><ele>333</ele><time>2020-08-05T11:44:59Z</time><name>PT8188</name></trkpt>
<trkpt lat="53.384601" lon="-1.762395"><ele>333</ele><time>2020-08-05T11:45:00Z</time><name>PT8189</name></trkpt>
<trkpt lat="53.384594" lon="-1.762409"><ele>333</ele><time>2020-08-05T11:45:01Z</time><name>PT8190</name></trkpt>
<trkpt lat="53.384587" lon="-1.762426"><ele>332</ele><time>2020-08-05T11:45:02Z</time><name>PT8191</name></trkpt>
<trkpt lat="53.384579" lon="-1.762437"><ele>332</ele><time>2020-08-05T11:45:03Z</time><name>PT8192</name></trkpt>
<trkpt lat="53.384571" lon="-1.762450"><ele>332</ele><time>2020-08-05T11:45:04Z</time><name>PT8193</name></trkpt>
<trkpt lat="53.384562" lon="-1.762463"><ele>332</ele><time>2020-08-05T11:45:05Z</time><name>PT8194</name></trkpt>
<trkpt lat="53.384552" lon="-1.762471"><ele>332</ele><time>2020-08-05T11:45:06Z</time><name>PT8195</name></trkpt>
<trkpt lat="53.384543" lon="-1.762483"><ele>332</ele><time>2020-08-05T11:45:07Z</time><name>PT8196</name></trkpt>
<trkpt lat="53.384535" lon="-1.762499"><ele>333</ele><time>2020-08-05T11:45:08Z</time><name>PT8197</name></trkpt>
<trkpt lat="53.384527" lon="-1.762515"><ele>333</ele><time>2020-08-05T11:45:09Z</time><name>PT8198</name></trkpt>
<trkpt lat="53.384517" lon="-1.762532"><ele>333</ele><time>2020-08-05T11:45:10Z</time><name>PT8199</name></trkpt>
<trkpt lat="53.384509" lon="-1.762544"><ele>333</ele><time>2020-08-05T11:45:11Z</time><name>PT8200</name></trkpt>
<trkpt lat="53.384499" lon="-1.762559"><ele>333</ele><time>2020-08-05T11:45:12Z</time><name>PT8201</name></trkpt>
<trkpt lat="53.384490" lon="-1.762572"><ele>333</ele><time>2020-08-05T11:45:13Z</time><name>PT8202</name></trkpt>
<trkpt lat="53.384481" lon="-1.762587"><ele>332</ele><time>2020-08-05T11:45:14Z</time><name>PT8203</name></trkpt>
<trkpt lat="53.384471" lon="-1.762603"><ele>332</ele><time>2020-08-05T11:45:15Z</time><name>PT8204</name></trkpt>
<trkpt lat="53.384464" lon="-1.762618"><ele>332</ele><time>2020-08-05T11:45:16Z</time><name>PT8205</name></trkpt>
<trkpt lat="53.384458" lon="-1.762629"><ele>332</ele><time>2020-08-05T11:45:17Z</time><name>PT8206</name></trkpt>
<trkpt lat="53.384451" lon="-1.762638"><ele>332</ele><time>2020-08-05T11:45:18Z</time><name>PT8207</name></trkpt>
<trkpt lat="53.384440" lon="-1.762646"><ele>331</ele><time>2020-08-05T11:45:19Z</time><name>PT8208</name></trkpt>
<trkpt lat="53.384432" lon="-1.762657"><ele>331</ele><time>2020-08-05T11:45:20Z</time><name>PT8209</name></trkpt>
<trkpt lat="53.384427" lon="-1.762672"><ele>331</ele><time>2020-08-05T11:45:21Z</time><name>PT8210</name></trkpt>
<trkpt lat="53.384419" lon="-1.762681"><ele>330</ele><time>2020-08-05T11:45:22Z</time><name>PT8211</name></trkpt>
<trkpt lat="53.384410" lon="-1.762685"><ele>330</ele><time>2020-08-05T11:45:23Z</time><name>PT8212</name></trkpt>
<trkpt lat="53.384400" lon="-1.762691"><ele>330</ele><time>2020-08-05T11:45:24Z</time><name>PT8213</name></trkpt>
<trkpt lat="53.384392" lon="-1.762698"><ele>330</ele><time>2020-08-05T11:45:25Z</time><name>PT8214</name></trkpt>
<trkpt lat="53.384385" lon="-1.762698"><ele>330</ele><time>2020-08-05T11:45:26Z</time><name>PT8215</name></trkpt>
<trkpt lat="53.384381" lon="-1.762700"><ele>330</ele><time>2020-08-05T11:45:27Z</time><name>PT8216</name></trkpt>
<trkpt lat="53.384383" lon="-1.762703"><ele>329</ele><time>2020-08-05T11:45:28Z</time><name>PT8217</name></trkpt>
<trkpt lat="53.384379" lon="-1.762704"><ele>329</ele><time>2020-08-05T11:45:29Z</time><name>PT8218</name></trkpt>
<trkpt lat="53.384378" lon="-1.762704"><ele>330</ele><time>2020-08-05T11:45:30Z</time><name>PT8219</name></trkpt>
<trkpt lat="53.384375" lon="-1.762705"><ele>329</ele><time>2020-08-05T11:45:31Z</time><name>PT8220</name></trkpt>
<trkpt lat="53.384371" lon="-1.762708"><ele>329</ele><time>2020-08-05T11:45:32Z</time><name>PT8221</name></trkpt>
<trkpt lat="53.384364" lon="-1.762718"><ele>330</ele><time>2020-08-05T11:45:33Z</time><name>PT8222</name></trkpt>
<trkpt lat="53.384357" lon="-1.762734"><ele>330</ele><time>2020-08-05T11:45:34Z</time><name>PT8223</name></trkpt>
<trkpt lat="53.384354" lon="-1.762751"><ele>329</ele><time>2020-08-05T11:45:34Z</time><name>PT8224</name></trkpt>
<trkpt lat="53.384349" lon="-1.762769"><ele>329</ele><time>2020-08-05T11:45:36Z</time><name>PT8225</name></trkpt>
<trkpt lat="53.384346" lon="-1.762791"><ele>329</ele><time>2020-08-05T11:45:37Z</time><name>PT8226</name></trkpt>
<trkpt lat="53.384340" lon="-1.762804"><ele>329</ele><time>2020-08-05T11:45:37Z</time><name>PT8227</name></trkpt>
<trkpt lat="53.384330" lon="-1.762816"><ele>329</ele><time>2020-08-05T11:45:39Z</time><name>PT8228</name></trkpt>
<trkpt lat="53.384321" lon="-1.762827"><ele>328</ele><time>2020-08-05T11:45:40Z</time><name>PT8229</name></trkpt>
<trkpt lat="53.384314" lon="-1.762837"><ele>328</ele><time>2020-08-05T11:45:41Z</time><name>PT8230</name></trkpt>
<trkpt lat="53.384305" lon="-1.762855"><ele>328</ele><time>2020-08-05T11:45:42Z</time><name>PT8231</name></trkpt>
<trkpt lat="53.384296" lon="-1.762872"><ele>328</ele><time>2020-08-05T11:45:43Z</time><name>PT8232</name></trkpt>
<trkpt lat="53.384285" lon="-1.762885"><ele>327</ele><time>2020-08-05T11:45:43Z</time><name>PT8233</name></trkpt>
<trkpt lat="53.384275" lon="-1.762901"><ele>326</ele><time>2020-08-05T11:45:45Z</time><name>PT8234</name></trkpt>
<trkpt lat="53.384268" lon="-1.762915"><ele>326</ele><time>2020-08-05T11:45:46Z</time><name>PT8235</name></trkpt>
<trkpt lat="53.384257" lon="-1.762927"><ele>326</ele><time>2020-08-05T11:45:46Z</time><name>PT8236</name></trkpt>
<trkpt lat="53.384251" lon="-1.762938"><ele>325</ele><time>2020-08-05T11:45:48Z</time><name>PT8237</name></trkpt>
<trkpt lat="53.384243" lon="-1.762948"><ele>325</ele><time>2020-08-05T11:45:49Z</time><name>PT8238</name></trkpt>
<trkpt lat="53.384235" lon="-1.762963"><ele>325</ele><time>2020-08-05T11:45:50Z</time><name>PT8239</name></trkpt>
<trkpt lat="53.384229" lon="-1.762979"><ele>326</ele><time>2020-08-05T11:45:51Z</time><name>PT8240</name></trkpt>
<trkpt lat="53.384218" lon="-1.762994"><ele>326</ele><time>2020-08-05T11:45:52Z</time><name>PT8241</name></trkpt>
<trkpt lat="53.384210" lon="-1.763010"><ele>326</ele><time>2020-08-05T11:45:53Z</time><name>PT8242</name></trkpt>
<trkpt lat="53.384206" lon="-1.763025"><ele>326</ele><time>2020-08-05T11:45:54Z</time><name>PT8243</name></trkpt>
<trkpt lat="53.384199" lon="-1.763038"><ele>325</ele><time>2020-08-05T11:45:55Z</time><name>PT8244</name></trkpt>
<trkpt lat="53.384191" lon="-1.763049"><ele>325</ele><time>2020-08-05T11:45:56Z</time><name>PT8245</name></trkpt>
<trkpt lat="53.384184" lon="-1.763063"><ele>325</ele><time>2020-08-05T11:45:57Z</time><name>PT8246</name></trkpt>
<trkpt lat="53.384178" lon="-1.763075"><ele>325</ele><time>2020-08-05T11:45:58Z</time><name>PT8247</name></trkpt>
<trkpt lat="53.384171" lon="-1.763090"><ele>325</ele><time>2020-08-05T11:45:59Z</time><name>PT8248</name></trkpt>
<trkpt lat="53.384164" lon="-1.763110"><ele>324</ele><time>2020-08-05T11:46:00Z</time><name>PT8249</name></trkpt>
<trkpt lat="53.384157" lon="-1.763122"><ele>324</ele><time>2020-08-05T11:46:01Z</time><name>PT8250</name></trkpt>
<trkpt lat="53.384152" lon="-1.763132"><ele>324</ele><time>2020-08-05T11:46:02Z</time><name>PT8251</name></trkpt>
<trkpt lat="53.384145" lon="-1.763142"><ele>324</ele><time>2020-08-05T11:46:03Z</time><name>PT8252</name></trkpt>
<trkpt lat="53.384140" lon="-1.763154"><ele>324</ele><time>2020-08-05T11:46:04Z</time><name>PT8253</name></trkpt>
<trkpt lat="53.384134" lon="-1.763165"><ele>324</ele><time>2020-08-05T11:46:05Z</time><name>PT8254</name></trkpt>
<trkpt lat="53.384126" lon="-1.763177"><ele>324</ele><time>2020-08-05T11:46:06Z</time><name>PT8255</name></trkpt>
<trkpt lat="53.384118" lon="-1.763188"><ele>323</ele><time>2020-08-05T11:46:07Z</time><name>PT8256</name></trkpt>
<trkpt lat="53.384110" lon="-1.763199"><ele>323</ele><time>2020-08-05T11:46:08Z</time><name>PT8257</name></trkpt>
<trkpt lat="53.384106" lon="-1.763209"><ele>323</ele><time>2020-08-05T11:46:09Z</time><name>PT8258</name></trkpt>
<trkpt lat="53.384099" lon="-1.763226"><ele>323</ele><time>2020-08-05T11:46:10Z</time><name>PT8259</name></trkpt>
<trkpt lat="53.384091" lon="-1.763248"><ele>323</ele><time>2020-08-05T11:46:11Z</time><name>PT8260</name></trkpt>
<trkpt lat="53.384083" lon="-1.763268"><ele>323</ele><time>2020-08-05T11:46:12Z</time><name>PT8261</name></trkpt>
<trkpt lat="53.384075" lon="-1.763284"><ele>323</ele><time>2020-08-05T11:46:13Z</time><name>PT8262</name></trkpt>
<trkpt lat="53.384065" lon="-1.763294"><ele>322</ele><time>2020-08-05T11:46:14Z</time><name>PT8263</name></trkpt>
<trkpt lat="53.384057" lon="-1.763307"><ele>322</ele><time>2020-08-05T11:46:15Z</time><name>PT8264</name></trkpt>
<trkpt lat="53.384047" lon="-1.763321"><ele>322</ele><time>2020-08-05T11:46:16Z</time><name>PT8265</name></trkpt>
<trkpt lat="53.384038" lon="-1.763333"><ele>322</ele><time>2020-08-05T11:46:17Z</time><name>PT8266</name></trkpt>
<trkpt lat="53.384029" lon="-1.763349"><ele>321</ele><time>2020-08-05T11:46:18Z</time><name>PT8267</name></trkpt>
<trkpt lat="53.384020" lon="-1.763366"><ele>321</ele><time>2020-08-05T11:46:19Z</time><name>PT8268</name></trkpt>
<trkpt lat="53.384011" lon="-1.763382"><ele>321</ele><time>2020-08-05T11:46:20Z</time><name>PT8269</name></trkpt>
<trkpt lat="53.384002" lon="-1.763396"><ele>321</ele><time>2020-08-05T11:46:21Z</time><name>PT8270</name></trkpt>
<trkpt lat="53.383993" lon="-1.763410"><ele>321</ele><time>2020-08-05T11:46:22Z</time><name>PT8271</name></trkpt>
<trkpt lat="53.383983" lon="-1.763425"><ele>320</ele><time>2020-08-05T11:46:23Z</time><name>PT8272</name></trkpt>
<trkpt lat="53.383976" lon="-1.763440"><ele>320</ele><time>2020-08-05T11:46:24Z</time><name>PT8273</name></trkpt>
<trkpt lat="53.383969" lon="-1.763455"><ele>320</ele><time>2020-08-05T11:46:25Z</time><name>PT8274</name></trkpt>
<trkpt lat="53.383961" lon="-1.763474"><ele>320</ele><time>2020-08-05T11:46:25Z</time><name>PT8275</name></trkpt>
<trkpt lat="53.383954" lon="-1.763488"><ele>320</ele><time>2020-08-05T11:46:27Z</time><name>PT8276</name></trkpt>
<trkpt lat="53.383947" lon="-1.763497"><ele>320</ele><time>2020-08-05T11:46:28Z</time><name>PT8277</name></trkpt>
<trkpt lat="53.383941" lon="-1.763512"><ele>320</ele><time>2020-08-05T11:46:29Z</time><name>PT8278</name></trkpt>
<trkpt lat="53.383932" lon="-1.763525"><ele>320</ele><time>2020-08-05T11:46:30Z</time><name>PT8279</name></trkpt>
<trkpt lat="53.383925" lon="-1.763543"><ele>320</ele><time>2020-08-05T11:46:31Z</time><name>PT8280</name></trkpt>
<trkpt lat="53.383915" lon="-1.763558"><ele>320</ele><time>2020-08-05T11:46:32Z</time><name>PT8281</name></trkpt>
<trkpt lat="53.383908" lon="-1.763572"><ele>320</ele><time>2020-08-05T11:46:33Z</time><name>PT8282</name></trkpt>
<trkpt lat="53.383904" lon="-1.763593"><ele>320</ele><time>2020-08-05T11:46:34Z</time><name>PT8283</name></trkpt>
<trkpt lat="53.383901" lon="-1.763610"><ele>320</ele><time>2020-08-05T11:46:35Z</time><name>PT8284</name></trkpt>
<trkpt lat="53.383899" lon="-1.763627"><ele>319</ele><time>2020-08-05T11:46:36Z</time><name>PT8285</name></trkpt>
<trkpt lat="53.383895" lon="-1.763640"><ele>319</ele><time>2020-08-05T11:46:37Z</time><name>PT8286</name></trkpt>
<trkpt lat="53.383888" lon="-1.763653"><ele>319</ele><time>2020-08-05T11:46:37Z</time><name>PT8287</name></trkpt>
<trkpt lat="53.383882" lon="-1.763663"><ele>318</ele><time>2020-08-05T11:46:39Z</time><name>PT8288</name></trkpt>
<trkpt lat="53.383878" lon="-1.763672"><ele>318</ele><time>2020-08-05T11:46:40Z</time><name>PT8289</name></trkpt>
<trkpt lat="53.383874" lon="-1.763685"><ele>318</ele><time>2020-08-05T11:46:41Z</time><name>PT8290</name></trkpt>
<trkpt lat="53.383867" lon="-1.763700"><ele>318</ele><time>2020-08-05T11:46:42Z</time><name>PT8291</name></trkpt>
<trkpt lat="53.383859" lon="-1.763714"><ele>318</ele><time>2020-08-05T11:46:43Z</time><name>PT8292</name></trkpt>
<trkpt lat="53.383855" lon="-1.763731"><ele>318</ele><time>2020-08-05T11:46:44Z</time><name>PT8293</name></trkpt>
<trkpt lat="53.383850" lon="-1.763749"><ele>318</ele><time>2020-08-05T11:46:45Z</time><name>PT8294</name></trkpt>
<trkpt lat="53.383845" lon="-1.763769"><ele>318</ele><time>2020-08-05T11:46:46Z</time><name>PT8295</name></trkpt>
<trkpt lat="53.383839" lon="-1.763788"><ele>318</ele><time>2020-08-05T11:46:46Z</time><name>PT8296</name></trkpt>
<trkpt lat="53.383830" lon="-1.763805"><ele>319</ele><time>2020-08-05T11:46:48Z</time><name>PT8297</name></trkpt>
<trkpt lat="53.383824" lon="-1.763820"><ele>318</ele><time>2020-08-05T11:46:49Z</time><name>PT8298</name></trkpt>
<trkpt lat="53.383819" lon="-1.763836"><ele>318</ele><time>2020-08-05T11:46:50Z</time><name>PT8299</name></trkpt>
<trkpt lat="53.383814" lon="-1.763850"><ele>318</ele><time>2020-08-05T11:46:51Z</time><name>PT8300</name></trkpt>
<trkpt lat="53.383809" lon="-1.763867"><ele>318</ele><time>2020-08-05T11:46:52Z</time><name>PT8301</name></trkpt>
<trkpt lat="53.383801" lon="-1.763882"><ele>317</ele><time>2020-08-05T11:46:53Z</time><name>PT8302</name></trkpt>
<trkpt lat="53.383796" lon="-1.763898"><ele>317</ele><time>2020-08-05T11:46:54Z</time><name>PT8303</name></trkpt>
<trkpt lat="53.383790" lon="-1.763917"><ele>317</ele><time>2020-08-05T11:46:55Z</time><name>PT8304</name></trkpt>
<trkpt lat="53.383783" lon="-1.763930"><ele>316</ele><time>2020-08-05T11:46:56Z</time><name>PT8305</name></trkpt>
<trkpt lat="53.383780" lon="-1.763943"><ele>317</ele><time>2020-08-05T11:46:57Z</time><name>PT8306</name></trkpt>
<trkpt lat="53.383776" lon="-1.763961"><ele>317</ele><time>2020-08-05T11:46:58Z</time><name>PT8307</name></trkpt>
<trkpt lat="53.383769" lon="-1.763980"><ele>317</ele><time>2020-08-05T11:46:59Z</time><name>PT8308</name></trkpt>
<trkpt lat="53.383761" lon="-1.763997"><ele>316</ele><time>2020-08-05T11:47:00Z</time><name>PT8309</name></trkpt>
<trkpt lat="53.383757" lon="-1.764021"><ele>317</ele><time>2020-08-05T11:47:01Z</time><name>PT8310</name></trkpt>
<trkpt lat="53.383750" lon="-1.764041"><ele>317</ele><time>2020-08-05T11:47:01Z</time><name>PT8311</name></trkpt>
<trkpt lat="53.383743" lon="-1.764058"><ele>316</ele><time>2020-08-05T11:47:03Z</time><name>PT8312</name></trkpt>
<trkpt lat="53.383735" lon="-1.764072"><ele>316</ele><time>2020-08-05T11:47:04Z</time><name>PT8313</name></trkpt>
<trkpt lat="53.383729" lon="-1.764088"><ele>316</ele><time>2020-08-05T11:47:04Z</time><name>PT8314</name></trkpt>
<trkpt lat="53.383721" lon="-1.764103"><ele>316</ele><time>2020-08-05T11:47:06Z</time><name>PT8315</name></trkpt>
<trkpt lat="53.383713" lon="-1.764116"><ele>315</ele><time>2020-08-05T11:47:07Z</time><name>PT8316</name></trkpt>
<trkpt lat="53.383705" lon="-1.764133"><ele>315</ele><time>2020-08-05T11:47:07Z</time><name>PT8317</name></trkpt>
<trkpt lat="53.383698" lon="-1.764150"><ele>315</ele><time>2020-08-05T11:47:09Z</time><name>PT8318</name></trkpt>
<trkpt lat="53.383689" lon="-1.764168"><ele>315</ele><time>2020-08-05T11:47:10Z</time><name>PT8319</name></trkpt>
<trkpt lat="53.383681" lon="-1.764183"><ele>315</ele><time>2020-08-05T11:47:10Z</time><name>PT8320</name></trkpt>
<trkpt lat="53.383674" lon="-1.764198"><ele>315</ele><time>2020-08-05T11:47:12Z</time><name>PT8321</name></trkpt>
<trkpt lat="53.383666" lon="-1.764212"><ele>315</ele><time>2020-08-05T11:47:13Z</time><name>PT8322</name></trkpt>
<trkpt lat="53.383657" lon="-1.764225"><ele>314</ele><time>2020-08-05T11:47:13Z</time><name>PT8323</name></trkpt>
<trkpt lat="53.383649" lon="-1.764239"><ele>314</ele><time>2020-08-05T11:47:15Z</time><name>PT8324</name></trkpt>
<trkpt lat="53.383641" lon="-1.764260"><ele>314</ele><time>2020-08-05T11:47:16Z</time><name>PT8325</name></trkpt>
<trkpt lat="53.383636" lon="-1.764274"><ele>313</ele><time>2020-08-05T11:47:17Z</time><name>PT8326</name></trkpt>
<trkpt lat="53.383630" lon="-1.764292"><ele>314</ele><time>2020-08-05T11:47:18Z</time><name>PT8327</name></trkpt>
<trkpt lat="53.383622" lon="-1.764307"><ele>313</ele><time>2020-08-05T11:47:19Z</time><name>PT8328</name></trkpt>
<trkpt lat="53.383613" lon="-1.764321"><ele>313</ele><time>2020-08-05T11:47:20Z</time><name>PT8329</name></trkpt>
<trkpt lat="53.383606" lon="-1.764336"><ele>313</ele><time>2020-08-05T11:47:21Z</time><name>PT8330</name></trkpt>
<trkpt lat="53.383598" lon="-1.764352"><ele>313</ele><time>2020-08-05T11:47:22Z</time><name>PT8331</name></trkpt>
<trkpt lat="53.383590" lon="-1.764372"><ele>313</ele><time>2020-08-05T11:47:23Z</time><name>PT8332</name></trkpt>
<trkpt lat="53.383585" lon="-1.764387"><ele>313</ele><time>2020-08-05T11:47:24Z</time><name>PT8333</name></trkpt>
<trkpt lat="53.383577" lon="-1.764407"><ele>313</ele><time>2020-08-05T11:47:25Z</time><name>PT8334</name></trkpt>
<trkpt lat="53.383569" lon="-1.764424"><ele>313</ele><time>2020-08-05T11:47:26Z</time><name>PT8335</name></trkpt>
<trkpt lat="53.383561" lon="-1.764441"><ele>313</ele><time>2020-08-05T11:47:27Z</time><name>PT8336</name></trkpt>
<trkpt lat="53.383555" lon="-1.764454"><ele>313</ele><time>2020-08-05T11:47:28Z</time><name>PT8337</name></trkpt>
<trkpt lat="53.383548" lon="-1.764467"><ele>313</ele><time>2020-08-05T11:47:29Z</time><name>PT8338</name></trkpt>
<trkpt lat="53.383540" lon="-1.764482"><ele>313</ele><time>2020-08-05T11:47:30Z</time><name>PT8339</name></trkpt>
<trkpt lat="53.383532" lon="-1.764499"><ele>313</ele><time>2020-08-05T11:47:31Z</time><name>PT8340</name></trkpt>
<trkpt lat="53.383525" lon="-1.764518"><ele>312</ele><time>2020-08-05T11:47:32Z</time><name>PT8341</name></trkpt>
<trkpt lat="53.383518" lon="-1.764529"><ele>312</ele><time>2020-08-05T11:47:33Z</time><name>PT8342</name></trkpt>
<trkpt lat="53.383511" lon="-1.764543"><ele>311</ele><time>2020-08-05T11:47:34Z</time><name>PT8343</name></trkpt>
<trkpt lat="53.383507" lon="-1.764557"><ele>311</ele><time>2020-08-05T11:47:35Z</time><name>PT8344</name></trkpt>
<trkpt lat="53.383498" lon="-1.764575"><ele>311</ele><time>2020-08-05T11:47:36Z</time><name>PT8345</name></trkpt>
<trkpt lat="53.383490" lon="-1.764590"><ele>310</ele><time>2020-08-05T11:47:37Z</time><name>PT8346</name></trkpt>
<trkpt lat="53.383481" lon="-1.764606"><ele>310</ele><time>2020-08-05T11:47:38Z</time><name>PT8347</name></trkpt>
<trkpt lat="53.383471" lon="-1.764615"><ele>310</ele><time>2020-08-05T11:47:39Z</time><name>PT8348</name></trkpt>
<trkpt lat="53.383462" lon="-1.764633"><ele>310</ele><time>2020-08-05T11:47:40Z</time><name>PT8349</name></trkpt>
<trkpt lat="53.383455" lon="-1.764653"><ele>310</ele><time>2020-08-05T11:47:41Z</time><name>PT8350</name></trkpt>
<trkpt lat="53.383449" lon="-1.764672"><ele>310</ele><time>2020-08-05T11:47:42Z</time><name>PT8351</name></trkpt>
<trkpt lat="53.383442" lon="-1.764687"><ele>310</ele><time>2020-08-05T11:47:43Z</time><name>PT8352</name></trkpt>
<trkpt lat="53.383434" lon="-1.764707"><ele>310</ele><time>2020-08-05T11:47:44Z</time><name>PT8353</name></trkpt>
<trkpt lat="53.383426" lon="-1.764722"><ele>310</ele><time>2020-08-05T11:47:45Z</time><name>PT8354</name></trkpt>
<trkpt lat="53.383419" lon="-1.764739"><ele>309</ele><time>2020-08-05T11:47:46Z</time><name>PT8355</name></trkpt>
<trkpt lat="53.383412" lon="-1.764758"><ele>309</ele><time>2020-08-05T11:47:47Z</time><name>PT8356</name></trkpt>
<trkpt lat="53.383402" lon="-1.764775"><ele>309</ele><time>2020-08-05T11:47:48Z</time><name>PT8357</name></trkpt>
<trkpt lat="53.383396" lon="-1.764790"><ele>309</ele><time>2020-08-05T11:47:49Z</time><name>PT8358</name></trkpt>
<trkpt lat="53.383392" lon="-1.764802"><ele>309</ele><time>2020-08-05T11:47:50Z</time><name>PT8359</name></trkpt>
<trkpt lat="53.383389" lon="-1.764816"><ele>309</ele><time>2020-08-05T11:47:51Z</time><name>PT8360</name></trkpt>
<trkpt lat="53.383385" lon="-1.764827"><ele>309</ele><time>2020-08-05T11:47:52Z</time><name>PT8361</name></trkpt>
<trkpt lat="53.383380" lon="-1.764839"><ele>308</ele><time>2020-08-05T11:47:52Z</time><name>PT8362</name></trkpt>
<trkpt lat="53.383374" lon="-1.764854"><ele>308</ele><time>2020-08-05T11:47:54Z</time><name>PT8363</name></trkpt>
<trkpt lat="53.383368" lon="-1.764867"><ele>308</ele><time>2020-08-05T11:47:55Z</time><name>PT8364</name></trkpt>
<trkpt lat="53.383361" lon="-1.764880"><ele>308</ele><time>2020-08-05T11:47:56Z</time><name>PT8365</name></trkpt>
<trkpt lat="53.383354" lon="-1.764895"><ele>307</ele><time>2020-08-05T11:47:57Z</time><name>PT8366</name></trkpt>
<trkpt lat="53.383349" lon="-1.764914"><ele>307</ele><time>2020-08-05T11:47:58Z</time><name>PT8367</name></trkpt>
<trkpt lat="53.383344" lon="-1.764932"><ele>307</ele><time>2020-08-05T11:47:58Z</time><name>PT8368</name></trkpt>
<trkpt lat="53.383340" lon="-1.764955"><ele>307</ele><time>2020-08-05T11:48:00Z</time><name>PT8369</name></trkpt>
<trkpt lat="53.383335" lon="-1.764975"><ele>307</ele><time>2020-08-05T11:48:01Z</time><name>PT8370</name></trkpt>
<trkpt lat="53.383331" lon="-1.764994"><ele>307</ele><time>2020-08-05T11:48:01Z</time><name>PT8371</name></trkpt>
<trkpt lat="53.383329" lon="-1.765012"><ele>306</ele><time>2020-08-05T11:48:03Z</time><name>PT8372</name></trkpt>
<trkpt lat="53.383329" lon="-1.765031"><ele>306</ele><time>2020-08-05T11:48:04Z</time><name>PT8373</name></trkpt>
<trkpt lat="53.383325" lon="-1.765046"><ele>306</ele><time>2020-08-05T11:48:04Z</time><name>PT8374</name></trkpt>
<trkpt lat="53.383321" lon="-1.765063"><ele>305</ele><time>2020-08-05T11:48:06Z</time><name>PT8375</name></trkpt>
<trkpt lat="53.383319" lon="-1.765084"><ele>305</ele><time>2020-08-05T11:48:07Z</time><name>PT8376</name></trkpt>
<trkpt lat="53.383318" lon="-1.765105"><ele>305</ele><time>2020-08-05T11:48:07Z</time><name>PT8377</name></trkpt>
<trkpt lat="53.383317" lon="-1.765126"><ele>305</ele><time>2020-08-05T11:48:09Z</time><name>PT8378</name></trkpt>
<trkpt lat="53.383310" lon="-1.765148"><ele>305</ele><time>2020-08-05T11:48:10Z</time><name>PT8379</name></trkpt>
<trkpt lat="53.383300" lon="-1.765167"><ele>305</ele><time>2020-08-05T11:48:11Z</time><name>PT8380</name></trkpt>
<trkpt lat="53.383290" lon="-1.765181"><ele>304</ele><time>2020-08-05T11:48:12Z</time><name>PT8381</name></trkpt>
<trkpt lat="53.383283" lon="-1.765196"><ele>304</ele><time>2020-08-05T11:48:13Z</time><name>PT8382</name></trkpt>
<trkpt lat="53.383273" lon="-1.765209"><ele>304</ele><time>2020-08-05T11:48:13Z</time><name>PT8383</name></trkpt>
<trkpt lat="53.383260" lon="-1.765219"><ele>303</ele><time>2020-08-05T11:48:15Z</time><name>PT8384</name></trkpt>
<trkpt lat="53.383250" lon="-1.765228"><ele>303</ele><time>2020-08-05T11:48:16Z</time><name>PT8385</name></trkpt>
<trkpt lat="53.383239" lon="-1.765241"><ele>303</ele><time>2020-08-05T11:48:17Z</time><name>PT8386</name></trkpt>
<trkpt lat="53.383229" lon="-1.765256"><ele>303</ele><time>2020-08-05T11:48:18Z</time><name>PT8387</name></trkpt>
<trkpt lat="53.383221" lon="-1.765275"><ele>303</ele><time>2020-08-05T11:48:19Z</time><name>PT8388</name></trkpt>
<trkpt lat="53.383211" lon="-1.765300"><ele>303</ele><time>2020-08-05T11:48:20Z</time><name>PT8389</name></trkpt>
<trkpt lat="53.383203" lon="-1.765316"><ele>303</ele><time>2020-08-05T11:48:21Z</time><name>PT8390</name></trkpt>
<trkpt lat="53.383194" lon="-1.765329"><ele>303</ele><time>2020-08-05T11:48:22Z</time><name>PT8391</name></trkpt>
<trkpt lat="53.383181" lon="-1.765343"><ele>303</ele><time>2020-08-05T11:48:22Z</time><name>PT8392</name></trkpt>
<trkpt lat="53.383171" lon="-1.765360"><ele>303</ele><time>2020-08-05T11:48:24Z</time><name>PT8393</name></trkpt>
<trkpt lat="53.383161" lon="-1.765377"><ele>303</ele><time>2020-08-05T11:48:25Z</time><name>PT8394</name></trkpt>
<trkpt lat="53.383153" lon="-1.765394"><ele>303</ele><time>2020-08-05T11:48:26Z</time><name>PT8395</name></trkpt>
<trkpt lat="53.383149" lon="-1.765409"><ele>303</ele><time>2020-08-05T11:48:27Z</time><name>PT8396</name></trkpt>
<trkpt lat="53.383141" lon="-1.765430"><ele>303</ele><time>2020-08-05T11:48:28Z</time><name>PT8397</name></trkpt>
<trkpt lat="53.383133" lon="-1.765448"><ele>303</ele><time>2020-08-05T11:48:29Z</time><name>PT8398</name></trkpt>
<trkpt lat="53.383124" lon="-1.765464"><ele>302</ele><time>2020-08-05T11:48:30Z</time><name>PT8399</name></trkpt>
<trkpt lat="53.383116" lon="-1.765481"><ele>302</ele><time>2020-08-05T11:48:31Z</time><name>PT8400</name></trkpt>
<trkpt lat="53.383107" lon="-1.765497"><ele>302</ele><time>2020-08-05T11:48:32Z</time><name>PT8401</name></trkpt>
<trkpt lat="53.383098" lon="-1.765521"><ele>303</ele><time>2020-08-05T11:48:33Z</time><name>PT8402</name></trkpt>
<trkpt lat="53.383092" lon="-1.765542"><ele>303</ele><time>2020-08-05T11:48:34Z</time><name>PT8403</name></trkpt>
<trkpt lat="53.383085" lon="-1.765563"><ele>303</ele><time>2020-08-05T11:48:35Z</time><name>PT8404</name></trkpt>
<trkpt lat="53.383078" lon="-1.765580"><ele>303</ele><time>2020-08-05T11:48:36Z</time><name>PT8405</name></trkpt>
<trkpt lat="53.383070" lon="-1.765596"><ele>303</ele><time>2020-08-05T11:48:37Z</time><name>PT8406</name></trkpt>
<trkpt lat="53.383063" lon="-1.765608"><ele>302</ele><time>2020-08-05T11:48:38Z</time><name>PT8407</name></trkpt>
<trkpt lat="53.383052" lon="-1.765624"><ele>302</ele><time>2020-08-05T11:48:39Z</time><name>PT8408</name></trkpt>
<trkpt lat="53.383040" lon="-1.765647"><ele>302</ele><time>2020-08-05T11:48:40Z</time><name>PT8409</name></trkpt>
<trkpt lat="53.383034" lon="-1.765671"><ele>302</ele><time>2020-08-05T11:48:41Z</time><name>PT8410</name></trkpt>
<trkpt lat="53.383027" lon="-1.765692"><ele>303</ele><time>2020-08-05T11:48:42Z</time><name>PT8411</name></trkpt>
<trkpt lat="53.383018" lon="-1.765711"><ele>303</ele><time>2020-08-05T11:48:43Z</time><name>PT8412</name></trkpt>
<trkpt lat="53.383011" lon="-1.765728"><ele>303</ele><time>2020-08-05T11:48:43Z</time><name>PT8413</name></trkpt>
<trkpt lat="53.383008" lon="-1.765742"><ele>302</ele><time>2020-08-05T11:48:45Z</time><name>PT8414</name></trkpt>
<trkpt lat="53.383001" lon="-1.765761"><ele>302</ele><time>2020-08-05T11:48:46Z</time><name>PT8415</name></trkpt>
<trkpt lat="53.382995" lon="-1.765777"><ele>302</ele><time>2020-08-05T11:48:47Z</time><name>PT8416</name></trkpt>
<trkpt lat="53.382992" lon="-1.765794"><ele>302</ele><time>2020-08-05T11:48:48Z</time><name>PT8417</name></trkpt>
<trkpt lat="53.382985" lon="-1.765807"><ele>302</ele><time>2020-08-05T11:48:49Z</time><name>PT8418</name></trkpt>
<trkpt lat="53.382980" lon="-1.765812"><ele>302</ele><time>2020-08-05T11:48:50Z</time><name>PT8419</name></trkpt>
<trkpt lat="53.382977" lon="-1.765814"><ele>302</ele><time>2020-08-05T11:48:51Z</time><name>PT8420</name></trkpt>
<trkpt lat="53.382975" lon="-1.765815"><ele>303</ele><time>2020-08-05T11:48:52Z</time><name>PT8421</name></trkpt>
<trkpt lat="53.382977" lon="-1.765819"><ele>303</ele><time>2020-08-05T11:48:52Z</time><name>PT8422</name></trkpt>
<trkpt lat="53.382977" lon="-1.765822"><ele>303</ele><time>2020-08-05T11:48:54Z</time><name>PT8423</name></trkpt>
<trkpt lat="53.382972" lon="-1.765833"><ele>303</ele><time>2020-08-05T11:49:01Z</time><name>PT8424</name></trkpt>
<trkpt lat="53.382967" lon="-1.765848"><ele>303</ele><time>2020-08-05T11:49:01Z</time><name>PT8425</name></trkpt>
<trkpt lat="53.382963" lon="-1.765859"><ele>303</ele><time>2020-08-05T11:49:03Z</time><name>PT8426</name></trkpt>
<trkpt lat="53.382956" lon="-1.765865"><ele>303</ele><time>2020-08-05T11:49:04Z</time><name>PT8427</name></trkpt>
<trkpt lat="53.382954" lon="-1.765874"><ele>303</ele><time>2020-08-05T11:49:05Z</time><name>PT8428</name></trkpt>
<trkpt lat="53.382954" lon="-1.765877"><ele>303</ele><time>2020-08-05T11:49:06Z</time><name>PT8429</name></trkpt>
<trkpt lat="53.382952" lon="-1.765884"><ele>302</ele><time>2020-08-05T11:49:09Z</time><name>PT8430</name></trkpt>
<trkpt lat="53.382945" lon="-1.765901"><ele>302</ele><time>2020-08-05T11:49:10Z</time><name>PT8431</name></trkpt>
<trkpt lat="53.382941" lon="-1.765922"><ele>302</ele><time>2020-08-05T11:49:10Z</time><name>PT8432</name></trkpt>
<trkpt lat="53.382938" lon="-1.765942"><ele>302</ele><time>2020-08-05T11:49:12Z</time><name>PT8433</name></trkpt>
<trkpt lat="53.382931" lon="-1.765960"><ele>301</ele><time>2020-08-05T11:49:13Z</time><name>PT8434</name></trkpt>
<trkpt lat="53.382927" lon="-1.765975"><ele>301</ele><time>2020-08-05T11:49:14Z</time><name>PT8435</name></trkpt>
<trkpt lat="53.382922" lon="-1.765985"><ele>302</ele><time>2020-08-05T11:49:15Z</time><name>PT8436</name></trkpt>
<trkpt lat="53.382918" lon="-1.765998"><ele>301</ele><time>2020-08-05T11:49:16Z</time><name>PT8437</name></trkpt>
<trkpt lat="53.382912" lon="-1.766016"><ele>301</ele><time>2020-08-05T11:49:16Z</time><name>PT8438</name></trkpt>
<trkpt lat="53.382908" lon="-1.766032"><ele>301</ele><time>2020-08-05T11:49:18Z</time><name>PT8439</name></trkpt>
<trkpt lat="53.382901" lon="-1.766053"><ele>301</ele><time>2020-08-05T11:49:19Z</time><name>PT8440</name></trkpt>
<trkpt lat="53.382894" lon="-1.766070"><ele>301</ele><time>2020-08-05T11:49:19Z</time><name>PT8441</name></trkpt>
<trkpt lat="53.382888" lon="-1.766084"><ele>301</ele><time>2020-08-05T11:49:21Z</time><name>PT8442</name></trkpt>
<trkpt lat="53.382880" lon="-1.766104"><ele>301</ele><time>2020-08-05T11:49:22Z</time><name>PT8443</name></trkpt>
<trkpt lat="53.382877" lon="-1.766116"><ele>300</ele><time>2020-08-05T11:49:23Z</time><name>PT8444</name></trkpt>
<trkpt lat="53.382872" lon="-1.766134"><ele>300</ele><time>2020-08-05T11:49:24Z</time><name>PT8445</name></trkpt>
<trkpt lat="53.382861" lon="-1.766154"><ele>300</ele><time>2020-08-05T11:49:25Z</time><name>PT8446</name></trkpt>
<trkpt lat="53.382853" lon="-1.766172"><ele>300</ele><time>2020-08-05T11:49:25Z</time><name>PT8447</name></trkpt>
<trkpt lat="53.382848" lon="-1.766199"><ele>300</ele><time>2020-08-05T11:49:27Z</time><name>PT8448</name></trkpt>
<trkpt lat="53.382844" lon="-1.766219"><ele>300</ele><time>2020-08-05T11:49:28Z</time><name>PT8449</name></trkpt>
<trkpt lat="53.382839" lon="-1.766228"><ele>301</ele><time>2020-08-05T11:49:29Z</time><name>PT8450</name></trkpt>
<trkpt lat="53.382838" lon="-1.766225"><ele>301</ele><time>2020-08-05T11:49:30Z</time><name>PT8451</name></trkpt>
<trkpt lat="53.382840" lon="-1.766220"><ele>301</ele><time>2020-08-05T11:49:31Z</time><name>PT8452</name></trkpt>
<trkpt lat="53.382840" lon="-1.766219"><ele>301</ele><time>2020-08-05T11:49:31Z</time><name>PT8453</name></trkpt>
<trkpt lat="53.382839" lon="-1.766220"><ele>301</ele><time>2020-08-05T11:49:33Z</time><name>PT8454</name></trkpt>
<trkpt lat="53.382838" lon="-1.766220"><ele>301</ele><time>2020-08-05T11:49:34Z</time><name>PT8455</name></trkpt>
<trkpt lat="53.382843" lon="-1.766240"><ele>302</ele><time>2020-08-05T11:49:38Z</time><name>PT8456</name></trkpt>
<trkpt lat="53.382842" lon="-1.766260"><ele>301</ele><time>2020-08-05T11:49:39Z</time><name>PT8457</name></trkpt>
<trkpt lat="53.382839" lon="-1.766281"><ele>301</ele><time>2020-08-05T11:49:40Z</time><name>PT8458</name></trkpt>
<trkpt lat="53.382838" lon="-1.766295"><ele>300</ele><time>2020-08-05T11:49:40Z</time><name>PT8459</name></trkpt>
<trkpt lat="53.382836" lon="-1.766309"><ele>300</ele><time>2020-08-05T11:49:42Z</time><name>PT8460</name></trkpt>
<trkpt lat="53.382830" lon="-1.766329"><ele>300</ele><time>2020-08-05T11:49:43Z</time><name>PT8461</name></trkpt>
<trkpt lat="53.382818" lon="-1.766351"><ele>299</ele><time>2020-08-05T11:49:43Z</time><name>PT8462</name></trkpt>
<trkpt lat="53.382814" lon="-1.766366"><ele>299</ele><time>2020-08-05T11:49:45Z</time><name>PT8463</name></trkpt>
<trkpt lat="53.382806" lon="-1.766388"><ele>299</ele><time>2020-08-05T11:49:46Z</time><name>PT8464</name></trkpt>
<trkpt lat="53.382801" lon="-1.766413"><ele>299</ele><time>2020-08-05T11:49:46Z</time><name>PT8465</name></trkpt>
<trkpt lat="53.382799" lon="-1.766430"><ele>298</ele><time>2020-08-05T11:49:48Z</time><name>PT8466</name></trkpt>
<trkpt lat="53.382801" lon="-1.766441"><ele>297</ele><time>2020-08-05T11:49:49Z</time><name>PT8467</name></trkpt>
<trkpt lat="53.382801" lon="-1.766463"><ele>297</ele><time>2020-08-05T11:49:50Z</time><name>PT8468</name></trkpt>
<trkpt lat="53.382799" lon="-1.766481"><ele>297</ele><time>2020-08-05T11:49:51Z</time><name>PT8469</name></trkpt>
<trkpt lat="53.382797" lon="-1.766494"><ele>297</ele><time>2020-08-05T11:49:52Z</time><name>PT8470</name></trkpt>
<trkpt lat="53.382794" lon="-1.766514"><ele>298</ele><time>2020-08-05T11:49:53Z</time><name>PT8471</name></trkpt>
<trkpt lat="53.382793" lon="-1.766535"><ele>297</ele><time>2020-08-05T11:49:54Z</time><name>PT8472</name></trkpt>
<trkpt lat="53.382791" lon="-1.766554"><ele>297</ele><time>2020-08-05T11:49:55Z</time><name>PT8473</name></trkpt>
<trkpt lat="53.382789" lon="-1.766572"><ele>297</ele><time>2020-08-05T11:49:55Z</time><name>PT8474</name></trkpt>
<trkpt lat="53.382791" lon="-1.766591"><ele>297</ele><time>2020-08-05T11:49:57Z</time><name>PT8475</name></trkpt>
<trkpt lat="53.382792" lon="-1.766609"><ele>296</ele><time>2020-08-05T11:49:58Z</time><name>PT8476</name></trkpt>
<trkpt lat="53.382789" lon="-1.766625"><ele>296</ele><time>2020-08-05T11:49:59Z</time><name>PT8477</name></trkpt>
<trkpt lat="53.382785" lon="-1.766641"><ele>296</ele><time>2020-08-05T11:50:00Z</time><name>PT8478</name></trkpt>
<trkpt lat="53.382785" lon="-1.766650"><ele>295</ele><time>2020-08-05T11:50:01Z</time><name>PT8479</name></trkpt>
<trkpt lat="53.382783" lon="-1.766670"><ele>294</ele><time>2020-08-05T11:50:02Z</time><name>PT8480</name></trkpt>
<trkpt lat="53.382783" lon="-1.766684"><ele>294</ele><time>2020-08-05T11:50:03Z</time><name>PT8481</name></trkpt>
<trkpt lat="53.382777" lon="-1.766707"><ele>294</ele><time>2020-08-05T11:50:04Z</time><name>PT8482</name></trkpt>
<trkpt lat="53.382774" lon="-1.766720"><ele>294</ele><time>2020-08-05T11:50:05Z</time><name>PT8483</name></trkpt>
<trkpt lat="53.382771" lon="-1.766730"><ele>293</ele><time>2020-08-05T11:50:06Z</time><name>PT8484</name></trkpt>
<trkpt lat="53.382771" lon="-1.766748"><ele>292</ele><time>2020-08-05T11:50:07Z</time><name>PT8485</name></trkpt>
<trkpt lat="53.382771" lon="-1.766765"><ele>292</ele><time>2020-08-05T11:50:08Z</time><name>PT8486</name></trkpt>
<trkpt lat="53.382771" lon="-1.766776"><ele>291</ele><time>2020-08-05T11:50:09Z</time><name>PT8487</name></trkpt>
<trkpt lat="53.382763" lon="-1.766798"><ele>290</ele><time>2020-08-05T11:50:10Z</time><name>PT8488</name></trkpt>
<trkpt lat="53.382758" lon="-1.766819"><ele>290</ele><time>2020-08-05T11:50:11Z</time><name>PT8489</name></trkpt>
<trkpt lat="53.382761" lon="-1.766836"><ele>290</ele><time>2020-08-05T11:50:12Z</time><name>PT8490</name></trkpt>
<trkpt lat="53.382759" lon="-1.766852"><ele>290</ele><time>2020-08-05T11:50:13Z</time><name>PT8491</name></trkpt>
<trkpt lat="53.382759" lon="-1.766869"><ele>290</ele><time>2020-08-05T11:50:13Z</time><name>PT8492</name></trkpt>
<trkpt lat="53.382757" lon="-1.766890"><ele>290</ele><time>2020-08-05T11:50:15Z</time><name>PT8493</name></trkpt>
<trkpt lat="53.382756" lon="-1.766906"><ele>290</ele><time>2020-08-05T11:50:16Z</time><name>PT8494</name></trkpt>
<trkpt lat="53.382755" lon="-1.766927"><ele>289</ele><time>2020-08-05T11:50:17Z</time><name>PT8495</name></trkpt>
<trkpt lat="53.382752" lon="-1.766951"><ele>289</ele><time>2020-08-05T11:50:18Z</time><name>PT8496</name></trkpt>
<trkpt lat="53.382749" lon="-1.766974"><ele>289</ele><time>2020-08-05T11:50:19Z</time><name>PT8497</name></trkpt>
<trkpt lat="53.382747" lon="-1.766992"><ele>289</ele><time>2020-08-05T11:50:19Z</time><name>PT8498</name></trkpt>
<trkpt lat="53.382744" lon="-1.767005"><ele>288</ele><time>2020-08-05T11:50:21Z</time><name>PT8499</name></trkpt>
<trkpt lat="53.382740" lon="-1.767024"><ele>288</ele><time>2020-08-05T11:50:22Z</time><name>PT8500</name></trkpt>
<trkpt lat="53.382737" lon="-1.767043"><ele>288</ele><time>2020-08-05T11:50:22Z</time><name>PT8501</name></trkpt>
<trkpt lat="53.382736" lon="-1.767060"><ele>288</ele><time>2020-08-05T11:50:24Z</time><name>PT8502</name></trkpt>
<trkpt lat="53.382735" lon="-1.767076"><ele>288</ele><time>2020-08-05T11:50:25Z</time><name>PT8503</name></trkpt>
<trkpt lat="53.382735" lon="-1.767092"><ele>288</ele><time>2020-08-05T11:50:26Z</time><name>PT8504</name></trkpt>
<trkpt lat="53.382735" lon="-1.767109"><ele>288</ele><time>2020-08-05T11:50:27Z</time><name>PT8505</name></trkpt>
<trkpt lat="53.382733" lon="-1.767119"><ele>288</ele><time>2020-08-05T11:50:28Z</time><name>PT8506</name></trkpt>
<trkpt lat="53.382729" lon="-1.767139"><ele>287</ele><time>2020-08-05T11:50:28Z</time><name>PT8507</name></trkpt>
<trkpt lat="53.382725" lon="-1.767154"><ele>287</ele><time>2020-08-05T11:50:30Z</time><name>PT8508</name></trkpt>
<trkpt lat="53.382722" lon="-1.767174"><ele>286</ele><time>2020-08-05T11:50:31Z</time><name>PT8509</name></trkpt>
<trkpt lat="53.382718" lon="-1.767197"><ele>286</ele><time>2020-08-05T11:50:31Z</time><name>PT8510</name></trkpt>
<trkpt lat="53.382718" lon="-1.767215"><ele>286</ele><time>2020-08-05T11:50:33Z</time><name>PT8511</name></trkpt>
<trkpt lat="53.382718" lon="-1.767233"><ele>286</ele><time>2020-08-05T11:50:34Z</time><name>PT8512</name></trkpt>
<trkpt lat="53.382719" lon="-1.767251"><ele>285</ele><time>2020-08-05T11:50:34Z</time><name>PT8513</name></trkpt>
<trkpt lat="53.382715" lon="-1.767273"><ele>285</ele><time>2020-08-05T11:50:36Z</time><name>PT8514</name></trkpt>
<trkpt lat="53.382713" lon="-1.767295"><ele>285</ele><time>2020-08-05T11:50:37Z</time><name>PT8515</name></trkpt>
<trkpt lat="53.382710" lon="-1.767314"><ele>285</ele><time>2020-08-05T11:50:38Z</time><name>PT8516</name></trkpt>
<trkpt lat="53.382708" lon="-1.767334"><ele>285</ele><time>2020-08-05T11:50:39Z</time><name>PT8517</name></trkpt>
<trkpt lat="53.382702" lon="-1.767360"><ele>285</ele><time>2020-08-05T11:50:40Z</time><name>PT8518</name></trkpt>
<trkpt lat="53.382696" lon="-1.767388"><ele>286</ele><time>2020-08-05T11:50:40Z</time><name>PT8519</name></trkpt>
<trkpt lat="53.382693" lon="-1.767408"><ele>286</ele><time>2020-08-05T11:50:42Z</time><name>PT8520</name></trkpt>
<trkpt lat="53.382692" lon="-1.767420"><ele>286</ele><time>2020-08-05T11:50:43Z</time><name>PT8521</name></trkpt>
<trkpt lat="53.382688" lon="-1.767436"><ele>286</ele><time>2020-08-05T11:50:43Z</time><name>PT8522</name></trkpt>
<trkpt lat="53.382685" lon="-1.767456"><ele>285</ele><time>2020-08-05T11:50:45Z</time><name>PT8523</name></trkpt>
<trkpt lat="53.382683" lon="-1.767476"><ele>285</ele><time>2020-08-05T11:50:46Z</time><name>PT8524</name></trkpt>
<trkpt lat="53.382680" lon="-1.767496"><ele>285</ele><time>2020-08-05T11:50:46Z</time><name>PT8525</name></trkpt>
<trkpt lat="53.382677" lon="-1.767515"><ele>285</ele><time>2020-08-05T11:50:48Z</time><name>PT8526</name></trkpt>
<trkpt lat="53.382678" lon="-1.767534"><ele>284</ele><time>2020-08-05T11:50:49Z</time><name>PT8527</name></trkpt>
<trkpt lat="53.382677" lon="-1.767548"><ele>283</ele><time>2020-08-05T11:50:50Z</time><name>PT8528</name></trkpt>
<trkpt lat="53.382673" lon="-1.767569"><ele>283</ele><time>2020-08-05T11:50:51Z</time><name>PT8529</name></trkpt>
<trkpt lat="53.382672" lon="-1.767584"><ele>283</ele><time>2020-08-05T11:50:52Z</time><name>PT8530</name></trkpt>
<trkpt lat="53.382668" lon="-1.767607"><ele>283</ele><time>2020-08-05T11:50:52Z</time><name>PT8531</name></trkpt>
<trkpt lat="53.382669" lon="-1.767620"><ele>283</ele><time>2020-08-05T11:50:54Z</time><name>PT8532</name></trkpt>
<trkpt lat="53.382670" lon="-1.767632"><ele>281</ele><time>2020-08-05T11:50:55Z</time><name>PT8533</name></trkpt>
<trkpt lat="53.382670" lon="-1.767653"><ele>280</ele><time>2020-08-05T11:50:55Z</time><name>PT8534</name></trkpt>
<trkpt lat="53.382667" lon="-1.767674"><ele>280</ele><time>2020-08-05T11:50:57Z</time><name>PT8535</name></trkpt>
<trkpt lat="53.382670" lon="-1.767694"><ele>280</ele><time>2020-08-05T11:50:58Z</time><name>PT8536</name></trkpt>
<trkpt lat="53.382672" lon="-1.767712"><ele>280</ele><time>2020-08-05T11:50:58Z</time><name>PT8537</name></trkpt>
<trkpt lat="53.382672" lon="-1.767730"><ele>280</ele><time>2020-08-05T11:51:00Z</time><name>PT8538</name></trkpt>
<trkpt lat="53.382671" lon="-1.767752"><ele>280</ele><time>2020-08-05T11:51:01Z</time><name>PT8539</name></trkpt>
<trkpt lat="53.382668" lon="-1.767768"><ele>279</ele><time>2020-08-05T11:51:02Z</time><name>PT8540</name></trkpt>
<trkpt lat="53.382666" lon="-1.767779"><ele>279</ele><time>2020-08-05T11:51:03Z</time><name>PT8541</name></trkpt>
<trkpt lat="53.382665" lon="-1.767790"><ele>279</ele><time>2020-08-05T11:51:04Z</time><name>PT8542</name></trkpt>
<trkpt lat="53.382663" lon="-1.767805"><ele>279</ele><time>2020-08-05T11:51:04Z</time><name>PT8543</name></trkpt>
<trkpt lat="53.382664" lon="-1.767813"><ele>278</ele><time>2020-08-05T11:51:06Z</time><name>PT8544</name></trkpt>
<trkpt lat="53.382664" lon="-1.767829"><ele>278</ele><time>2020-08-05T11:51:07Z</time><name>PT8545</name></trkpt>
<trkpt lat="53.382663" lon="-1.767845"><ele>278</ele><time>2020-08-05T11:51:08Z</time><name>PT8546</name></trkpt>
<trkpt lat="53.382666" lon="-1.767863"><ele>278</ele><time>2020-08-05T11:51:09Z</time><name>PT8547</name></trkpt>
<trkpt lat="53.382670" lon="-1.767869"><ele>276</ele><time>2020-08-05T11:51:10Z</time><name>PT8548</name></trkpt>
<trkpt lat="53.382669" lon="-1.767887"><ele>276</ele><time>2020-08-05T11:51:11Z</time><name>PT8549</name></trkpt>
<trkpt lat="53.382664" lon="-1.767906"><ele>276</ele><time>2020-08-05T11:51:12Z</time><name>PT8550</name></trkpt>
<trkpt lat="53.382662" lon="-1.767921"><ele>275</ele><time>2020-08-05T11:51:13Z</time><name>PT8551</name></trkpt>
<trkpt lat="53.382660" lon="-1.767936"><ele>275</ele><time>2020-08-05T11:51:14Z</time><name>PT8552</name></trkpt>
<trkpt lat="53.382655" lon="-1.767952"><ele>275</ele><time>2020-08-05T11:51:15Z</time><name>PT8553</name></trkpt>
<trkpt lat="53.382654" lon="-1.767969"><ele>274</ele><time>2020-08-05T11:51:16Z</time><name>PT8554</name></trkpt>
<trkpt lat="53.382652" lon="-1.767985"><ele>274</ele><time>2020-08-05T11:51:17Z</time><name>PT8555</name></trkpt>
<trkpt lat="53.382648" lon="-1.768000"><ele>274</ele><time>2020-08-05T11:51:18Z</time><name>PT8556</name></trkpt>
<trkpt lat="53.382645" lon="-1.768011"><ele>273</ele><time>2020-08-05T11:51:19Z</time><name>PT8557</name></trkpt>
<trkpt lat="53.382642" lon="-1.768033"><ele>274</ele><time>2020-08-05T11:51:20Z</time><name>PT8558</name></trkpt>
<trkpt lat="53.382642" lon="-1.768036"><ele>272</ele><time>2020-08-05T11:51:21Z</time><name>PT8559</name></trkpt>
<trkpt lat="53.382640" lon="-1.768044"><ele>272</ele><time>2020-08-05T11:51:22Z</time><name>PT8560</name></trkpt>
<trkpt lat="53.382639" lon="-1.768058"><ele>271</ele><time>2020-08-05T11:51:23Z</time><name>PT8561</name></trkpt>
<trkpt lat="53.382634" lon="-1.768077"><ele>272</ele><time>2020-08-05T11:51:24Z</time><name>PT8562</name></trkpt>
<trkpt lat="53.382629" lon="-1.768098"><ele>273</ele><time>2020-08-05T11:51:25Z</time><name>PT8563</name></trkpt>
<trkpt lat="53.382621" lon="-1.768107"><ele>273</ele><time>2020-08-05T11:51:25Z</time><name>PT8564</name></trkpt>
<trkpt lat="53.382613" lon="-1.768121"><ele>273</ele><time>2020-08-05T11:51:27Z</time><name>PT8565</name></trkpt>
<trkpt lat="53.382607" lon="-1.768137"><ele>273</ele><time>2020-08-05T11:51:28Z</time><name>PT8566</name></trkpt>
<trkpt lat="53.382602" lon="-1.768151"><ele>273</ele><time>2020-08-05T11:51:28Z</time><name>PT8567</name></trkpt>
<trkpt lat="53.382598" lon="-1.768167"><ele>273</ele><time>2020-08-05T11:51:30Z</time><name>PT8568</name></trkpt>
<trkpt lat="53.382590" lon="-1.768187"><ele>274</ele><time>2020-08-05T11:51:31Z</time><name>PT8569</name></trkpt>
<trkpt lat="53.382584" lon="-1.768208"><ele>275</ele><time>2020-08-05T11:51:31Z</time><name>PT8570</name></trkpt>
<trkpt lat="53.382580" lon="-1.768224"><ele>275</ele><time>2020-08-05T11:51:33Z</time><name>PT8571</name></trkpt>
<trkpt lat="53.382576" lon="-1.768237"><ele>274</ele><time>2020-08-05T11:51:34Z</time><name>PT8572</name></trkpt>
<trkpt lat="53.382573" lon="-1.768248"><ele>274</ele><time>2020-08-05T11:51:34Z</time><name>PT8573</name></trkpt>
<trkpt lat="53.382568" lon="-1.768272"><ele>275</ele><time>2020-08-05T11:51:36Z</time><name>PT8574</name></trkpt>
<trkpt lat="53.382562" lon="-1.768286"><ele>275</ele><time>2020-08-05T11:51:37Z</time><name>PT8575</name></trkpt>
<trkpt lat="53.382559" lon="-1.768296"><ele>274</ele><time>2020-08-05T11:51:37Z</time><name>PT8576</name></trkpt>
<trkpt lat="53.382554" lon="-1.768312"><ele>274</ele><time>2020-08-05T11:51:39Z</time><name>PT8577</name></trkpt>
<trkpt lat="53.382547" lon="-1.768333"><ele>275</ele><time>2020-08-05T11:51:40Z</time><name>PT8578</name></trkpt>
<trkpt lat="53.382542" lon="-1.768349"><ele>275</ele><time>2020-08-05T11:51:41Z</time><name>PT8579</name></trkpt>
<trkpt lat="53.382537" lon="-1.768359"><ele>275</ele><time>2020-08-05T11:51:42Z</time><name>PT8580</name></trkpt>
<trkpt lat="53.382532" lon="-1.768372"><ele>275</ele><time>2020-08-05T11:51:43Z</time><name>PT8581</name></trkpt>
<trkpt lat="53.382529" lon="-1.768379"><ele>275</ele><time>2020-08-05T11:51:43Z</time><name>PT8582</name></trkpt>
<trkpt lat="53.382525" lon="-1.768389"><ele>274</ele><time>2020-08-05T11:51:45Z</time><name>PT8583</name></trkpt>
<trkpt lat="53.382519" lon="-1.768403"><ele>274</ele><time>2020-08-05T11:51:46Z</time><name>PT8584</name></trkpt>
<trkpt lat="53.382513" lon="-1.768415"><ele>274</ele><time>2020-08-05T11:51:46Z</time><name>PT8585</name></trkpt>
<trkpt lat="53.382511" lon="-1.768426"><ele>274</ele><time>2020-08-05T11:51:48Z</time><name>PT8586</name></trkpt>
<trkpt lat="53.382508" lon="-1.768443"><ele>274</ele><time>2020-08-05T11:51:49Z</time><name>PT8587</name></trkpt>
<trkpt lat="53.382504" lon="-1.768453"><ele>274</ele><time>2020-08-05T11:51:49Z</time><name>PT8588</name></trkpt>
<trkpt lat="53.382504" lon="-1.768463"><ele>273</ele><time>2020-08-05T11:51:51Z</time><name>PT8589</name></trkpt>
<trkpt lat="53.382498" lon="-1.768484"><ele>273</ele><time>2020-08-05T11:51:52Z</time><name>PT8590</name></trkpt>
<trkpt lat="53.382493" lon="-1.768502"><ele>273</ele><time>2020-08-05T11:51:52Z</time><name>PT8591</name></trkpt>
<trkpt lat="53.382490" lon="-1.768512"><ele>273</ele><time>2020-08-05T11:51:54Z</time><name>PT8592</name></trkpt>
<trkpt lat="53.382485" lon="-1.768525"><ele>273</ele><time>2020-08-05T11:51:55Z</time><name>PT8593</name></trkpt>
<trkpt lat="53.382481" lon="-1.768537"><ele>273</ele><time>2020-08-05T11:51:56Z</time><name>PT8594</name></trkpt>
<trkpt lat="53.382478" lon="-1.768554"><ele>273</ele><time>2020-08-05T11:51:57Z</time><name>PT8595</name></trkpt>
<trkpt lat="53.382476" lon="-1.768566"><ele>273</ele><time>2020-08-05T11:51:58Z</time><name>PT8596</name></trkpt>
<trkpt lat="53.382472" lon="-1.768580"><ele>273</ele><time>2020-08-05T11:51:58Z</time><name>PT8597</name></trkpt>
<trkpt lat="53.382468" lon="-1.768587"><ele>273</ele><time>2020-08-05T11:52:00Z</time><name>PT8598</name></trkpt>
<trkpt lat="53.382462" lon="-1.768597"><ele>273</ele><time>2020-08-05T11:52:01Z</time><name>PT8599</name></trkpt>
<trkpt lat="53.382456" lon="-1.768607"><ele>273</ele><time>2020-08-05T11:52:02Z</time><name>PT8600</name></trkpt>
<trkpt lat="53.382452" lon="-1.768616"><ele>272</ele><time>2020-08-05T11:52:03Z</time><name>PT8601</name></trkpt>
<trkpt lat="53.382449" lon="-1.768626"><ele>272</ele><time>2020-08-05T11:52:04Z</time><name>PT8602</name></trkpt>
<trkpt lat="53.382446" lon="-1.768636"><ele>272</ele><time>2020-08-05T11:52:05Z</time><name>PT8603</name></trkpt>
<trkpt lat="53.382441" lon="-1.768654"><ele>272</ele><time>2020-08-05T11:52:06Z</time><name>PT8604</name></trkpt>
<trkpt lat="53.382440" lon="-1.768664"><ele>270</ele><time>2020-08-05T11:52:07Z</time><name>PT8605</name></trkpt>
<trkpt lat="53.382435" lon="-1.768678"><ele>271</ele><time>2020-08-05T11:52:08Z</time><name>PT8606</name></trkpt>
<trkpt lat="53.382432" lon="-1.768691"><ele>270</ele><time>2020-08-05T11:52:09Z</time><name>PT8607</name></trkpt>
<trkpt lat="53.382427" lon="-1.768704"><ele>270</ele><time>2020-08-05T11:52:10Z</time><name>PT8608</name></trkpt>
<trkpt lat="53.382420" lon="-1.768725"><ele>271</ele><time>2020-08-05T11:52:11Z</time><name>PT8609</name></trkpt>
<trkpt lat="53.382418" lon="-1.768744"><ele>271</ele><time>2020-08-05T11:52:12Z</time><name>PT8610</name></trkpt>
<trkpt lat="53.382415" lon="-1.768757"><ele>270</ele><time>2020-08-05T11:52:13Z</time><name>PT8611</name></trkpt>
<trkpt lat="53.382413" lon="-1.768771"><ele>270</ele><time>2020-08-05T11:52:14Z</time><name>PT8612</name></trkpt>
<trkpt lat="53.382410" lon="-1.768788"><ele>269</ele><time>2020-08-05T11:52:15Z</time><name>PT8613</name></trkpt>
<trkpt lat="53.382407" lon="-1.768806"><ele>269</ele><time>2020-08-05T11:52:16Z</time><name>PT8614</name></trkpt>
<trkpt lat="53.382406" lon="-1.768816"><ele>269</ele><time>2020-08-05T11:52:17Z</time><name>PT8615</name></trkpt>
<trkpt lat="53.382406" lon="-1.768829"><ele>269</ele><time>2020-08-05T11:52:18Z</time><name>PT8616</name></trkpt>
<trkpt lat="53.382405" lon="-1.768841"><ele>269</ele><time>2020-08-05T11:52:19Z</time><name>PT8617</name></trkpt>
<trkpt lat="53.382405" lon="-1.768852"><ele>270</ele><time>2020-08-05T11:52:20Z</time><name>PT8618</name></trkpt>
<trkpt lat="53.382400" lon="-1.768874"><ele>271</ele><time>2020-08-05T11:52:21Z</time><name>PT8619</name></trkpt>
<trkpt lat="53.382403" lon="-1.768887"><ele>270</ele><time>2020-08-05T11:52:22Z</time><name>PT8620</name></trkpt>
<trkpt lat="53.382402" lon="-1.768905"><ele>270</ele><time>2020-08-05T11:52:23Z</time><name>PT8621</name></trkpt>
<trkpt lat="53.382399" lon="-1.768919"><ele>270</ele><time>2020-08-05T11:52:24Z</time><name>PT8622</name></trkpt>
<trkpt lat="53.382397" lon="-1.768936"><ele>270</ele><time>2020-08-05T11:52:25Z</time><name>PT8623</name></trkpt>
<trkpt lat="53.382394" lon="-1.768950"><ele>270</ele><time>2020-08-05T11:52:25Z</time><name>PT8624</name></trkpt>
<trkpt lat="53.382393" lon="-1.768961"><ele>271</ele><time>2020-08-05T11:52:27Z</time><name>PT8625</name></trkpt>
<trkpt lat="53.382395" lon="-1.768969"><ele>271</ele><time>2020-08-05T11:52:28Z</time><name>PT8626</name></trkpt>
<trkpt lat="53.382398" lon="-1.768985"><ele>271</ele><time>2020-08-05T11:52:28Z</time><name>PT8627</name></trkpt>
<trkpt lat="53.382400" lon="-1.768995"><ele>271</ele><time>2020-08-05T11:52:30Z</time><name>PT8628</name></trkpt>
<trkpt lat="53.382401" lon="-1.769008"><ele>270</ele><time>2020-08-05T11:52:31Z</time><name>PT8629</name></trkpt>
<trkpt lat="53.382402" lon="-1.769019"><ele>269</ele><time>2020-08-05T11:52:31Z</time><name>PT8630</name></trkpt>
<trkpt lat="53.382401" lon="-1.769036"><ele>268</ele><time>2020-08-05T11:52:33Z</time><name>PT8631</name></trkpt>
<trkpt lat="53.382401" lon="-1.769051"><ele>268</ele><time>2020-08-05T11:52:34Z</time><name>PT8632</name></trkpt>
<trkpt lat="53.382399" lon="-1.769067"><ele>268</ele><time>2020-08-05T11:52:34Z</time><name>PT8633</name></trkpt>
<trkpt lat="53.382397" lon="-1.769085"><ele>268</ele><time>2020-08-05T11:52:36Z</time><name>PT8634</name></trkpt>
<trkpt lat="53.382398" lon="-1.769101"><ele>267</ele><time>2020-08-05T11:52:37Z</time><name>PT8635</name></trkpt>
<trkpt lat="53.382399" lon="-1.769116"><ele>267</ele><time>2020-08-05T11:52:37Z</time><name>PT8636</name></trkpt>
<trkpt lat="53.382400" lon="-1.769130"><ele>267</ele><time>2020-08-05T11:52:39Z</time><name>PT8637</name></trkpt>
<trkpt lat="53.382399" lon="-1.769142"><ele>267</ele><time>2020-08-05T11:52:40Z</time><name>PT8638</name></trkpt>
<trkpt lat="53.382400" lon="-1.769153"><ele>266</ele><time>2020-08-05T11:52:40Z</time><name>PT8639</name></trkpt>
<trkpt lat="53.382402" lon="-1.769164"><ele>266</ele><time>2020-08-05T11:52:42Z</time><name>PT8640</name></trkpt>
<trkpt lat="53.382404" lon="-1.769173"><ele>266</ele><time>2020-08-05T11:52:43Z</time><name>PT8641</name></trkpt>
<trkpt lat="53.382407" lon="-1.769183"><ele>265</ele><time>2020-08-05T11:52:43Z</time><name>PT8642</name></trkpt>
<trkpt lat="53.382406" lon="-1.769187"><ele>264</ele><time>2020-08-05T11:52:45Z</time><name>PT8643</name></trkpt>
<trkpt lat="53.382415" lon="-1.769200"><ele>262</ele><time>2020-08-05T11:52:46Z</time><name>PT8644</name></trkpt>
<trkpt lat="53.382420" lon="-1.769224"><ele>263</ele><time>2020-08-05T11:52:47Z</time><name>PT8645</name></trkpt>
<trkpt lat="53.382418" lon="-1.769233"><ele>264</ele><time>2020-08-05T11:52:48Z</time><name>PT8646</name></trkpt>
<trkpt lat="53.382420" lon="-1.769248"><ele>263</ele><time>2020-08-05T11:52:49Z</time><name>PT8647</name></trkpt>
<trkpt lat="53.382419" lon="-1.769267"><ele>264</ele><time>2020-08-05T11:52:49Z</time><name>PT8648</name></trkpt>
<trkpt lat="53.382418" lon="-1.769270"><ele>263</ele><time>2020-08-05T11:52:51Z</time><name>PT8649</name></trkpt>
<trkpt lat="53.382414" lon="-1.769281"><ele>262</ele><time>2020-08-05T11:52:52Z</time><name>PT8650</name></trkpt>
<trkpt lat="53.382415" lon="-1.769292"><ele>261</ele><time>2020-08-05T11:52:52Z</time><name>PT8651</name></trkpt>
<trkpt lat="53.382416" lon="-1.769305"><ele>261</ele><time>2020-08-05T11:52:54Z</time><name>PT8652</name></trkpt>
<trkpt lat="53.382417" lon="-1.769320"><ele>261</ele><time>2020-08-05T11:52:55Z</time><name>PT8653</name></trkpt>
<trkpt lat="53.382418" lon="-1.769336"><ele>261</ele><time>2020-08-05T11:52:56Z</time><name>PT8654</name></trkpt>
<trkpt lat="53.382421" lon="-1.769347"><ele>262</ele><time>2020-08-05T11:52:57Z</time><name>PT8655</name></trkpt>
<trkpt lat="53.382416" lon="-1.769351"><ele>261</ele><time>2020-08-05T11:52:58Z</time><name>PT8656</name></trkpt>
<trkpt lat="53.382414" lon="-1.769359"><ele>262</ele><time>2020-08-05T11:52:59Z</time><name>PT8657</name></trkpt>
<trkpt lat="53.382411" lon="-1.769373"><ele>261</ele><time>2020-08-05T11:53:04Z</time><name>PT8658</name></trkpt>
<trkpt lat="53.382411" lon="-1.769407"><ele>261</ele><time>2020-08-05T11:53:04Z</time><name>PT8659</name></trkpt>
<trkpt lat="53.382413" lon="-1.769432"><ele>260</ele><time>2020-08-05T11:53:06Z</time><name>PT8660</name></trkpt>
<trkpt lat="53.382412" lon="-1.769444"><ele>260</ele><time>2020-08-05T11:53:07Z</time><name>PT8661</name></trkpt>
<trkpt lat="53.382425" lon="-1.769464"><ele>260</ele><time>2020-08-05T11:53:10Z</time><name>PT8662</name></trkpt>
<trkpt lat="53.382432" lon="-1.769483"><ele>259</ele><time>2020-08-05T11:53:10Z</time><name>PT8663</name></trkpt>
<trkpt lat="53.382429" lon="-1.769502"><ele>259</ele><time>2020-08-05T11:53:12Z</time><name>PT8664</name></trkpt>
<trkpt lat="53.382430" lon="-1.769525"><ele>259</ele><time>2020-08-05T11:53:13Z</time><name>PT8665</name></trkpt>
<trkpt lat="53.382434" lon="-1.769546"><ele>259</ele><time>2020-08-05T11:53:13Z</time><name>PT8666</name></trkpt>
<trkpt lat="53.382437" lon="-1.769559"><ele>259</ele><time>2020-08-05T11:53:15Z</time><name>PT8667</name></trkpt>
<trkpt lat="53.382435" lon="-1.769574"><ele>259</ele><time>2020-08-05T11:53:16Z</time><name>PT8668</name></trkpt>
<trkpt lat="53.382436" lon="-1.769589"><ele>259</ele><time>2020-08-05T11:53:16Z</time><name>PT8669</name></trkpt>
<trkpt lat="53.382441" lon="-1.769603"><ele>259</ele><time>2020-08-05T11:53:18Z</time><name>PT8670</name></trkpt>
<trkpt lat="53.382446" lon="-1.769623"><ele>260</ele><time>2020-08-05T11:53:19Z</time><name>PT8671</name></trkpt>
<trkpt lat="53.382449" lon="-1.769634"><ele>259</ele><time>2020-08-05T11:53:20Z</time><name>PT8672</name></trkpt>
<trkpt lat="53.382452" lon="-1.769646"><ele>260</ele><time>2020-08-05T11:53:21Z</time><name>PT8673</name></trkpt>
<trkpt lat="53.382451" lon="-1.769657"><ele>258</ele><time>2020-08-05T11:53:22Z</time><name>PT8674</name></trkpt>
<trkpt lat="53.382457" lon="-1.769672"><ele>259</ele><time>2020-08-05T11:53:23Z</time><name>PT8675</name></trkpt>
<trkpt lat="53.382463" lon="-1.769686"><ele>259</ele><time>2020-08-05T11:53:24Z</time><name>PT8676</name></trkpt>
<trkpt lat="53.382467" lon="-1.769696"><ele>259</ele><time>2020-08-05T11:53:25Z</time><name>PT8677</name></trkpt>
<trkpt lat="53.382479" lon="-1.769714"><ele>261</ele><time>2020-08-05T11:53:26Z</time><name>PT8678</name></trkpt>
<trkpt lat="53.382486" lon="-1.769730"><ele>261</ele><time>2020-08-05T11:53:27Z</time><name>PT8679</name></trkpt>
<trkpt lat="53.382491" lon="-1.769743"><ele>261</ele><time>2020-08-05T11:53:28Z</time><name>PT8680</name></trkpt>
<trkpt lat="53.382502" lon="-1.769758"><ele>262</ele><time>2020-08-05T11:53:28Z</time><name>PT8681</name></trkpt>
<trkpt lat="53.382508" lon="-1.769775"><ele>262</ele><time>2020-08-05T11:53:30Z</time><name>PT8682</name></trkpt>
<trkpt lat="53.382513" lon="-1.769785"><ele>262</ele><time>2020-08-05T11:53:31Z</time><name>PT8683</name></trkpt>
<trkpt lat="53.382511" lon="-1.769798"><ele>262</ele><time>2020-08-05T11:53:31Z</time><name>PT8684</name></trkpt>
<trkpt lat="53.382513" lon="-1.769814"><ele>263</ele><time>2020-08-05T11:53:33Z</time><name>PT8685</name></trkpt>
<trkpt lat="53.382518" lon="-1.769826"><ele>263</ele><time>2020-08-05T11:53:34Z</time><name>PT8686</name></trkpt>
<trkpt lat="53.382527" lon="-1.769844"><ele>264</ele><time>2020-08-05T11:53:35Z</time><name>PT8687</name></trkpt>
<trkpt lat="53.382535" lon="-1.769860"><ele>264</ele><time>2020-08-05T11:53:36Z</time><name>PT8688</name></trkpt>
<trkpt lat="53.382539" lon="-1.769875"><ele>264</ele><time>2020-08-05T11:53:37Z</time><name>PT8689</name></trkpt>
<trkpt lat="53.382538" lon="-1.769885"><ele>264</ele><time>2020-08-05T11:53:37Z</time><name>PT8690</name></trkpt>
<trkpt lat="53.382537" lon="-1.769900"><ele>264</ele><time>2020-08-05T11:53:39Z</time><name>PT8691</name></trkpt>
<trkpt lat="53.382542" lon="-1.769915"><ele>265</ele><time>2020-08-05T11:53:40Z</time><name>PT8692</name></trkpt>
<trkpt lat="53.382556" lon="-1.769926"><ele>266</ele><time>2020-08-05T11:53:41Z</time><name>PT8693</name></trkpt>
<trkpt lat="53.382560" lon="-1.769940"><ele>266</ele><time>2020-08-05T11:53:42Z</time><name>PT8694</name></trkpt>
<trkpt lat="53.382572" lon="-1.769966"><ele>268</ele><time>2020-08-05T11:53:43Z</time><name>PT8695</name></trkpt>
<trkpt lat="53.382571" lon="-1.769986"><ele>268</ele><time>2020-08-05T11:53:43Z</time><name>PT8696</name></trkpt>
<trkpt lat="53.382576" lon="-1.770004"><ele>268</ele><time>2020-08-05T11:53:45Z</time><name>PT8697</name></trkpt>
<trkpt lat="53.382580" lon="-1.770022"><ele>269</ele><time>2020-08-05T11:53:46Z</time><name>PT8698</name></trkpt>
<trkpt lat="53.382585" lon="-1.770044"><ele>269</ele><time>2020-08-05T11:53:46Z</time><name>PT8699</name></trkpt>
<trkpt lat="53.382589" lon="-1.770059"><ele>269</ele><time>2020-08-05T11:53:48Z</time><name>PT8700</name></trkpt>
<trkpt lat="53.382591" lon="-1.770071"><ele>270</ele><time>2020-08-05T11:53:49Z</time><name>PT8701</name></trkpt>
<trkpt lat="53.382593" lon="-1.770087"><ele>269</ele><time>2020-08-05T11:53:49Z</time><name>PT8702</name></trkpt>
<trkpt lat="53.382595" lon="-1.770105"><ele>270</ele><time>2020-08-05T11:53:51Z</time><name>PT8703</name></trkpt>
<trkpt lat="53.382595" lon="-1.770123"><ele>270</ele><time>2020-08-05T11:53:52Z</time><name>PT8704</name></trkpt>
<trkpt lat="53.382602" lon="-1.770137"><ele>270</ele><time>2020-08-05T11:53:52Z</time><name>PT8705</name></trkpt>
<trkpt lat="53.382604" lon="-1.770151"><ele>270</ele><time>2020-08-05T11:53:54Z</time><name>PT8706</name></trkpt>
<trkpt lat="53.382609" lon="-1.770167"><ele>270</ele><time>2020-08-05T11:53:55Z</time><name>PT8707</name></trkpt>
<trkpt lat="53.382614" lon="-1.770184"><ele>270</ele><time>2020-08-05T11:53:55Z</time><name>PT8708</name></trkpt>
<trkpt lat="53.382619" lon="-1.770205"><ele>270</ele><time>2020-08-05T11:53:57Z</time><name>PT8709</name></trkpt>
<trkpt lat="53.382611" lon="-1.770219"><ele>269</ele><time>2020-08-05T11:53:58Z</time><name>PT8710</name></trkpt>
<trkpt lat="53.382614" lon="-1.770236"><ele>270</ele><time>2020-08-05T11:53:58Z</time><name>PT8711</name></trkpt>
<trkpt lat="53.382615" lon="-1.770255"><ele>270</ele><time>2020-08-05T11:54:00Z</time><name>PT8712</name></trkpt>
<trkpt lat="53.382620" lon="-1.770269"><ele>270</ele><time>2020-08-05T11:54:01Z</time><name>PT8713</name></trkpt>
<trkpt lat="53.382626" lon="-1.770284"><ele>271</ele><time>2020-08-05T11:54:01Z</time><name>PT8714</name></trkpt>
<trkpt lat="53.382632" lon="-1.770304"><ele>272</ele><time>2020-08-05T11:54:03Z</time><name>PT8715</name></trkpt>
<trkpt lat="53.382631" lon="-1.770322"><ele>272</ele><time>2020-08-05T11:54:04Z</time><name>PT8716</name></trkpt>
<trkpt lat="53.382631" lon="-1.770342"><ele>272</ele><time>2020-08-05T11:54:04Z</time><name>PT8717</name></trkpt>
<trkpt lat="53.382635" lon="-1.770362"><ele>272</ele><time>2020-08-05T11:54:06Z</time><name>PT8718</name></trkpt>
<trkpt lat="53.382642" lon="-1.770376"><ele>273</ele><time>2020-08-05T11:54:07Z</time><name>PT8719</name></trkpt>
<trkpt lat="53.382643" lon="-1.770387"><ele>273</ele><time>2020-08-05T11:54:07Z</time><name>PT8720</name></trkpt>
<trkpt lat="53.382646" lon="-1.770399"><ele>273</ele><time>2020-08-05T11:54:09Z</time><name>PT8721</name></trkpt>
<trkpt lat="53.382653" lon="-1.770417"><ele>273</ele><time>2020-08-05T11:54:10Z</time><name>PT8722</name></trkpt>
<trkpt lat="53.382656" lon="-1.770431"><ele>272</ele><time>2020-08-05T11:54:10Z</time><name>PT8723</name></trkpt>
<trkpt lat="53.382660" lon="-1.770445"><ele>272</ele><time>2020-08-05T11:54:12Z</time><name>PT8724</name></trkpt>
<trkpt lat="53.382665" lon="-1.770462"><ele>273</ele><time>2020-08-05T11:54:13Z</time><name>PT8725</name></trkpt>
<trkpt lat="53.382671" lon="-1.770476"><ele>273</ele><time>2020-08-05T11:54:13Z</time><name>PT8726</name></trkpt>
<trkpt lat="53.382673" lon="-1.770488"><ele>272</ele><time>2020-08-05T11:54:15Z</time><name>PT8727</name></trkpt>
<trkpt lat="53.382679" lon="-1.770508"><ele>273</ele><time>2020-08-05T11:54:16Z</time><name>PT8728</name></trkpt>
<trkpt lat="53.382682" lon="-1.770528"><ele>274</ele><time>2020-08-05T11:54:16Z</time><name>PT8729</name></trkpt>
<trkpt lat="53.382681" lon="-1.770543"><ele>274</ele><time>2020-08-05T11:54:18Z</time><name>PT8730</name></trkpt>
<trkpt lat="53.382685" lon="-1.770562"><ele>274</ele><time>2020-08-05T11:54:19Z</time><name>PT8731</name></trkpt>
<trkpt lat="53.382686" lon="-1.770575"><ele>274</ele><time>2020-08-05T11:54:20Z</time><name>PT8732</name></trkpt>
<trkpt lat="53.382694" lon="-1.770585"><ele>275</ele><time>2020-08-05T11:54:21Z</time><name>PT8733</name></trkpt>
<trkpt lat="53.382699" lon="-1.770601"><ele>275</ele><time>2020-08-05T11:54:22Z</time><name>PT8734</name></trkpt>
<trkpt lat="53.382703" lon="-1.770616"><ele>275</ele><time>2020-08-05T11:54:22Z</time><name>PT8735</name></trkpt>
<trkpt lat="53.382706" lon="-1.770632"><ele>274</ele><time>2020-08-05T11:54:24Z</time><name>PT8736</name></trkpt>
<trkpt lat="53.382710" lon="-1.770651"><ele>274</ele><time>2020-08-05T11:54:25Z</time><name>PT8737</name></trkpt>
<trkpt lat="53.382715" lon="-1.770666"><ele>274</ele><time>2020-08-05T11:54:26Z</time><name>PT8738</name></trkpt>
<trkpt lat="53.382721" lon="-1.770679"><ele>274</ele><time>2020-08-05T11:54:27Z</time><name>PT8739</name></trkpt>
<trkpt lat="53.382731" lon="-1.770695"><ele>275</ele><time>2020-08-05T11:54:28Z</time><name>PT8740</name></trkpt>
<trkpt lat="53.382737" lon="-1.770710"><ele>275</ele><time>2020-08-05T11:54:29Z</time><name>PT8741</name></trkpt>
<trkpt lat="53.382745" lon="-1.770729"><ele>275</ele><time>2020-08-05T11:54:30Z</time><name>PT8742</name></trkpt>
<trkpt lat="53.382749" lon="-1.770747"><ele>275</ele><time>2020-08-05T11:54:31Z</time><name>PT8743</name></trkpt>
<trkpt lat="53.382758" lon="-1.770766"><ele>275</ele><time>2020-08-05T11:54:32Z</time><name>PT8744</name></trkpt>
<trkpt lat="53.382763" lon="-1.770784"><ele>275</ele><time>2020-08-05T11:54:33Z</time><name>PT8745</name></trkpt>
<trkpt lat="53.382768" lon="-1.770800"><ele>276</ele><time>2020-08-05T11:54:34Z</time><name>PT8746</name></trkpt>
<trkpt lat="53.382775" lon="-1.770816"><ele>276</ele><time>2020-08-05T11:54:35Z</time><name>PT8747</name></trkpt>
<trkpt lat="53.382785" lon="-1.770831"><ele>277</ele><time>2020-08-05T11:54:36Z</time><name>PT8748</name></trkpt>
<trkpt lat="53.382794" lon="-1.770843"><ele>278</ele><time>2020-08-05T11:54:37Z</time><name>PT8749</name></trkpt>
<trkpt lat="53.382799" lon="-1.770855"><ele>278</ele><time>2020-08-05T11:54:38Z</time><name>PT8750</name></trkpt>
<trkpt lat="53.382804" lon="-1.770875"><ele>278</ele><time>2020-08-05T11:54:39Z</time><name>PT8751</name></trkpt>
<trkpt lat="53.382809" lon="-1.770895"><ele>279</ele><time>2020-08-05T11:54:40Z</time><name>PT8752</name></trkpt>
<trkpt lat="53.382815" lon="-1.770914"><ele>279</ele><time>2020-08-05T11:54:41Z</time><name>PT8753</name></trkpt>
<trkpt lat="53.382825" lon="-1.770930"><ele>280</ele><time>2020-08-05T11:54:42Z</time><name>PT8754</name></trkpt>
<trkpt lat="53.382836" lon="-1.770943"><ele>280</ele><time>2020-08-05T11:54:43Z</time><name>PT8755</name></trkpt>
<trkpt lat="53.382843" lon="-1.770958"><ele>281</ele><time>2020-08-05T11:54:44Z</time><name>PT8756</name></trkpt>
<trkpt lat="53.382846" lon="-1.770969"><ele>281</ele><time>2020-08-05T11:54:45Z</time><name>PT8757</name></trkpt>
<trkpt lat="53.382849" lon="-1.770985"><ele>281</ele><time>2020-08-05T11:54:46Z</time><name>PT8758</name></trkpt>
<trkpt lat="53.382852" lon="-1.770999"><ele>281</ele><time>2020-08-05T11:54:47Z</time><name>PT8759</name></trkpt>
<trkpt lat="53.382859" lon="-1.771011"><ele>281</ele><time>2020-08-05T11:54:48Z</time><name>PT8760</name></trkpt>
<trkpt lat="53.382865" lon="-1.771026"><ele>281</ele><time>2020-08-05T11:54:49Z</time><name>PT8761</name></trkpt>
<trkpt lat="53.382865" lon="-1.771044"><ele>281</ele><time>2020-08-05T11:54:50Z</time><name>PT8762</name></trkpt>
<trkpt lat="53.382872" lon="-1.771063"><ele>281</ele><time>2020-08-05T11:54:51Z</time><name>PT8763</name></trkpt>
<trkpt lat="53.382876" lon="-1.771076"><ele>280</ele><time>2020-08-05T11:54:52Z</time><name>PT8764</name></trkpt>
<trkpt lat="53.382884" lon="-1.771092"><ele>281</ele><time>2020-08-05T11:54:53Z</time><name>PT8765</name></trkpt>
<trkpt lat="53.382892" lon="-1.771107"><ele>281</ele><time>2020-08-05T11:54:54Z</time><name>PT8766</name></trkpt>
<trkpt lat="53.382898" lon="-1.771122"><ele>281</ele><time>2020-08-05T11:54:55Z</time><name>PT8767</name></trkpt>
<trkpt lat="53.382902" lon="-1.771139"><ele>282</ele><time>2020-08-05T11:54:56Z</time><name>PT8768</name></trkpt>
<trkpt lat="53.382905" lon="-1.771157"><ele>282</ele><time>2020-08-05T11:54:57Z</time><name>PT8769</name></trkpt>
<trkpt lat="53.382907" lon="-1.771172"><ele>282</ele><time>2020-08-05T11:54:58Z</time><name>PT8770</name></trkpt>
<trkpt lat="53.382905" lon="-1.771191"><ele>282</ele><time>2020-08-05T11:54:59Z</time><name>PT8771</name></trkpt>
<trkpt lat="53.382905" lon="-1.771203"><ele>282</ele><time>2020-08-05T11:55:00Z</time><name>PT8772</name></trkpt>
<trkpt lat="53.382904" lon="-1.771218"><ele>282</ele><time>2020-08-05T11:55:01Z</time><name>PT8773</name></trkpt>
<trkpt lat="53.382904" lon="-1.771233"><ele>283</ele><time>2020-08-05T11:55:01Z</time><name>PT8774</name></trkpt>
<trkpt lat="53.382899" lon="-1.771250"><ele>283</ele><time>2020-08-05T11:55:03Z</time><name>PT8775</name></trkpt>
<trkpt lat="53.382897" lon="-1.771261"><ele>284</ele><time>2020-08-05T11:55:04Z</time><name>PT8776</name></trkpt>
<trkpt lat="53.382894" lon="-1.771268"><ele>284</ele><time>2020-08-05T11:55:04Z</time><name>PT8777</name></trkpt>
<trkpt lat="53.382891" lon="-1.771274"><ele>284</ele><time>2020-08-05T11:55:06Z</time><name>PT8778</name></trkpt>
<trkpt lat="53.382887" lon="-1.771271"><ele>283</ele><time>2020-08-05T11:55:07Z</time><name>PT8779</name></trkpt>
<trkpt lat="53.382879" lon="-1.771265"><ele>283</ele><time>2020-08-05T11:55:07Z</time><name>PT8780</name></trkpt>
<trkpt lat="53.382872" lon="-1.771262"><ele>283</ele><time>2020-08-05T11:55:09Z</time><name>PT8781</name></trkpt>
<trkpt lat="53.382867" lon="-1.771260"><ele>284</ele><time>2020-08-05T11:55:10Z</time><name>PT8782</name></trkpt>
<trkpt lat="53.382861" lon="-1.771253"><ele>284</ele><time>2020-08-05T11:55:10Z</time><name>PT8783</name></trkpt>
<trkpt lat="53.382855" lon="-1.771249"><ele>284</ele><time>2020-08-05T11:55:12Z</time><name>PT8784</name></trkpt>
<trkpt lat="53.382848" lon="-1.771243"><ele>284</ele><time>2020-08-05T11:55:13Z</time><name>PT8785</name></trkpt>
<trkpt lat="53.382842" lon="-1.771234"><ele>284</ele><time>2020-08-05T11:55:13Z</time><name>PT8786</name></trkpt>
<trkpt lat="53.382835" lon="-1.771228"><ele>283</ele><time>2020-08-05T11:55:15Z</time><name>PT8787</name></trkpt>
<trkpt lat="53.382831" lon="-1.771225"><ele>283</ele><time>2020-08-05T11:55:16Z</time><name>PT8788</name></trkpt>
<trkpt lat="53.382824" lon="-1.771221"><ele>282</ele><time>2020-08-05T11:55:16Z</time><name>PT8789</name></trkpt>
<trkpt lat="53.382819" lon="-1.771216"><ele>281</ele><time>2020-08-05T11:55:18Z</time><name>PT8790</name></trkpt>
<trkpt lat="53.382810" lon="-1.771209"><ele>282</ele><time>2020-08-05T11:55:19Z</time><name>PT8791</name></trkpt>
<trkpt lat="53.382802" lon="-1.771200"><ele>282</ele><time>2020-08-05T11:55:19Z</time><name>PT8792</name></trkpt>
<trkpt lat="53.382797" lon="-1.771195"><ele>282</ele><time>2020-08-05T11:55:21Z</time><name>PT8793</name></trkpt>
<trkpt lat="53.382789" lon="-1.771190"><ele>281</ele><time>2020-08-05T11:55:22Z</time><name>PT8794</name></trkpt>
<trkpt lat="53.382785" lon="-1.771181"><ele>281</ele><time>2020-08-05T11:55:22Z</time><name>PT8795</name></trkpt>
<trkpt lat="53.382776" lon="-1.771173"><ele>281</ele><time>2020-08-05T11:55:24Z</time><name>PT8796</name></trkpt>
<trkpt lat="53.382768" lon="-1.771172"><ele>281</ele><time>2020-08-05T11:55:25Z</time><name>PT8797</name></trkpt>
<trkpt lat="53.382762" lon="-1.771171"><ele>281</ele><time>2020-08-05T11:55:25Z</time><name>PT8798</name></trkpt>
<trkpt lat="53.382753" lon="-1.771160"><ele>281</ele><time>2020-08-05T11:55:27Z</time><name>PT8799</name></trkpt>
<trkpt lat="53.382745" lon="-1.771152"><ele>281</ele><time>2020-08-05T11:55:28Z</time><name>PT8800</name></trkpt>
<trkpt lat="53.382741" lon="-1.771143"><ele>281</ele><time>2020-08-05T11:55:28Z</time><name>PT8801</name></trkpt>
<trkpt lat="53.382735" lon="-1.771137"><ele>281</ele><time>2020-08-05T11:55:30Z</time><name>PT8802</name></trkpt>
<trkpt lat="53.382728" lon="-1.771133"><ele>282</ele><time>2020-08-05T11:55:31Z</time><name>PT8803</name></trkpt>
<trkpt lat="53.382717" lon="-1.771127"><ele>282</ele><time>2020-08-05T11:55:31Z</time><name>PT8804</name></trkpt>
<trkpt lat="53.382706" lon="-1.771122"><ele>282</ele><time>2020-08-05T11:55:33Z</time><name>PT8805</name></trkpt>
<trkpt lat="53.382695" lon="-1.771117"><ele>283</ele><time>2020-08-05T11:55:34Z</time><name>PT8806</name></trkpt>
<trkpt lat="53.382684" lon="-1.771106"><ele>283</ele><time>2020-08-05T11:55:34Z</time><name>PT8807</name></trkpt>
<trkpt lat="53.382674" lon="-1.771097"><ele>284</ele><time>2020-08-05T11:55:36Z</time><name>PT8808</name></trkpt>
<trkpt lat="53.382666" lon="-1.771090"><ele>284</ele><time>2020-08-05T11:55:37Z</time><name>PT8809</name></trkpt>
<trkpt lat="53.382659" lon="-1.771081"><ele>284</ele><time>2020-08-05T11:55:37Z</time><name>PT8810</name></trkpt>
<trkpt lat="53.382650" lon="-1.771076"><ele>285</ele><time>2020-08-05T11:55:39Z</time><name>PT8811</name></trkpt>
<trkpt lat="53.382645" lon="-1.771078"><ele>287</ele><time>2020-08-05T11:55:40Z</time><name>PT8812</name></trkpt>
<trkpt lat="53.382645" lon="-1.771076"><ele>287</ele><time>2020-08-05T11:55:40Z</time><name>PT8813</name></trkpt>
<trkpt lat="53.382638" lon="-1.771074"><ele>287</ele><time>2020-08-05T11:55:42Z</time><name>PT8814</name></trkpt>
<trkpt lat="53.382630" lon="-1.771075"><ele>287</ele><time>2020-08-05T11:55:43Z</time><name>PT8815</name></trkpt>
<trkpt lat="53.382621" lon="-1.771066"><ele>287</ele><time>2020-08-05T11:55:43Z</time><name>PT8816</name></trkpt>
<trkpt lat="53.382613" lon="-1.771061"><ele>288</ele><time>2020-08-05T11:55:45Z</time><name>PT8817</name></trkpt>
<trkpt lat="53.382607" lon="-1.771052"><ele>288</ele><time>2020-08-05T11:55:46Z</time><name>PT8818</name></trkpt>
<trkpt lat="53.382599" lon="-1.771038"><ele>286</ele><time>2020-08-05T11:55:46Z</time><name>PT8819</name></trkpt>
<trkpt lat="53.382592" lon="-1.771030"><ele>286</ele><time>2020-08-05T11:55:48Z</time><name>PT8820</name></trkpt>
<trkpt lat="53.382585" lon="-1.771019"><ele>285</ele><time>2020-08-05T11:55:49Z</time><name>PT8821</name></trkpt>
<trkpt lat="53.382577" lon="-1.771016"><ele>285</ele><time>2020-08-05T11:55:50Z</time><name>PT8822</name></trkpt>
<trkpt lat="53.382561" lon="-1.771010"><ele>284</ele><time>2020-08-05T11:55:51Z</time><name>PT8823</name></trkpt>
<trkpt lat="53.382549" lon="-1.770999"><ele>284</ele><time>2020-08-05T11:55:52Z</time><name>PT8824</name></trkpt>
<trkpt lat="53.382535" lon="-1.770979"><ele>283</ele><time>2020-08-05T11:55:53Z</time><name>PT8825</name></trkpt>
<trkpt lat="53.382530" lon="-1.770971"><ele>282</ele><time>2020-08-05T11:55:54Z</time><name>PT8826</name></trkpt>
<trkpt lat="53.382525" lon="-1.770968"><ele>282</ele><time>2020-08-05T11:55:55Z</time><name>PT8827</name></trkpt>
<trkpt lat="53.382515" lon="-1.770961"><ele>282</ele><time>2020-08-05T11:55:56Z</time><name>PT8828</name></trkpt>
<trkpt lat="53.382504" lon="-1.770953"><ele>282</ele><time>2020-08-05T11:55:57Z</time><name>PT8829</name></trkpt>
<trkpt lat="53.382497" lon="-1.770946"><ele>283</ele><time>2020-08-05T11:55:58Z</time><name>PT8830</name></trkpt>
<trkpt lat="53.382484" lon="-1.770939"><ele>284</ele><time>2020-08-05T11:55:59Z</time><name>PT8831</name></trkpt>
<trkpt lat="53.382470" lon="-1.770932"><ele>283</ele><time>2020-08-05T11:56:00Z</time><name>PT8832</name></trkpt>
<trkpt lat="53.382453" lon="-1.770940"><ele>286</ele><time>2020-08-05T11:56:01Z</time><name>PT8833</name></trkpt>
<trkpt lat="53.382446" lon="-1.770939"><ele>285</ele><time>2020-08-05T11:56:02Z</time><name>PT8834</name></trkpt>
<trkpt lat="53.382439" lon="-1.770934"><ele>286</ele><time>2020-08-05T11:56:03Z</time><name>PT8835</name></trkpt>
<trkpt lat="53.382431" lon="-1.770924"><ele>287</ele><time>2020-08-05T11:56:04Z</time><name>PT8836</name></trkpt>
<trkpt lat="53.382423" lon="-1.770918"><ele>287</ele><time>2020-08-05T11:56:04Z</time><name>PT8837</name></trkpt>
<trkpt lat="53.382412" lon="-1.770906"><ele>287</ele><time>2020-08-05T11:56:06Z</time><name>PT8838</name></trkpt>
<trkpt lat="53.382402" lon="-1.770899"><ele>288</ele><time>2020-08-05T11:56:07Z</time><name>PT8839</name></trkpt>
<trkpt lat="53.382391" lon="-1.770892"><ele>288</ele><time>2020-08-05T11:56:08Z</time><name>PT8840</name></trkpt>
<trkpt lat="53.382381" lon="-1.770885"><ele>288</ele><time>2020-08-05T11:56:09Z</time><name>PT8841</name></trkpt>
<trkpt lat="53.382370" lon="-1.770877"><ele>289</ele><time>2020-08-05T11:56:10Z</time><name>PT8842</name></trkpt>
<trkpt lat="53.382362" lon="-1.770867"><ele>289</ele><time>2020-08-05T11:56:11Z</time><name>PT8843</name></trkpt>
<trkpt lat="53.382354" lon="-1.770862"><ele>290</ele><time>2020-08-05T11:56:12Z</time><name>PT8844</name></trkpt>
<trkpt lat="53.382347" lon="-1.770856"><ele>290</ele><time>2020-08-05T11:56:13Z</time><name>PT8845</name></trkpt>
<trkpt lat="53.382338" lon="-1.770847"><ele>290</ele><time>2020-08-05T11:56:14Z</time><name>PT8846</name></trkpt>
<trkpt lat="53.382333" lon="-1.770842"><ele>290</ele><time>2020-08-05T11:56:15Z</time><name>PT8847</name></trkpt>
<trkpt lat="53.382326" lon="-1.770841"><ele>290</ele><time>2020-08-05T11:56:16Z</time><name>PT8848</name></trkpt>
<trkpt lat="53.382314" lon="-1.770831"><ele>290</ele><time>2020-08-05T11:56:17Z</time><name>PT8849</name></trkpt>
<trkpt lat="53.382303" lon="-1.770824"><ele>290</ele><time>2020-08-05T11:56:18Z</time><name>PT8850</name></trkpt>
<trkpt lat="53.382293" lon="-1.770817"><ele>291</ele><time>2020-08-05T11:56:19Z</time><name>PT8851</name></trkpt>
<trkpt lat="53.382280" lon="-1.770806"><ele>291</ele><time>2020-08-05T11:56:19Z</time><name>PT8852</name></trkpt>
<trkpt lat="53.382270" lon="-1.770801"><ele>291</ele><time>2020-08-05T11:56:21Z</time><name>PT8853</name></trkpt>
<trkpt lat="53.382261" lon="-1.770791"><ele>290</ele><time>2020-08-05T11:56:22Z</time><name>PT8854</name></trkpt>
<trkpt lat="53.382255" lon="-1.770778"><ele>291</ele><time>2020-08-05T11:56:22Z</time><name>PT8855</name></trkpt>
<trkpt lat="53.382242" lon="-1.770769"><ele>291</ele><time>2020-08-05T11:56:24Z</time><name>PT8856</name></trkpt>
<trkpt lat="53.382232" lon="-1.770759"><ele>291</ele><time>2020-08-05T11:56:25Z</time><name>PT8857</name></trkpt>
<trkpt lat="53.382219" lon="-1.770745"><ele>291</ele><time>2020-08-05T11:56:25Z</time><name>PT8858</name></trkpt>
<trkpt lat="53.382208" lon="-1.770740"><ele>292</ele><time>2020-08-05T11:56:27Z</time><name>PT8859</name></trkpt>
<trkpt lat="53.382195" lon="-1.770730"><ele>292</ele><time>2020-08-05T11:56:28Z</time><name>PT8860</name></trkpt>
<trkpt lat="53.382184" lon="-1.770717"><ele>292</ele><time>2020-08-05T11:56:28Z</time><name>PT8861</name></trkpt>
<trkpt lat="53.382175" lon="-1.770709"><ele>292</ele><time>2020-08-05T11:56:30Z</time><name>PT8862</name></trkpt>
<trkpt lat="53.382164" lon="-1.770701"><ele>293</ele><time>2020-08-05T11:56:31Z</time><name>PT8863</name></trkpt>
<trkpt lat="53.382158" lon="-1.770689"><ele>293</ele><time>2020-08-05T11:56:31Z</time><name>PT8864</name></trkpt>
<trkpt lat="53.382146" lon="-1.770674"><ele>292</ele><time>2020-08-05T11:56:33Z</time><name>PT8865</name></trkpt>
<trkpt lat="53.382139" lon="-1.770667"><ele>292</ele><time>2020-08-05T11:56:34Z</time><name>PT8866</name></trkpt>
<trkpt lat="53.382130" lon="-1.770661"><ele>293</ele><time>2020-08-05T11:56:34Z</time><name>PT8867</name></trkpt>
<trkpt lat="53.382121" lon="-1.770655"><ele>294</ele><time>2020-08-05T11:56:36Z</time><name>PT8868</name></trkpt>
<trkpt lat="53.382115" lon="-1.770652"><ele>293</ele><time>2020-08-05T11:56:37Z</time><name>PT8869</name></trkpt>
<trkpt lat="53.382107" lon="-1.770644"><ele>293</ele><time>2020-08-05T11:56:37Z</time><name>PT8870</name></trkpt>
<trkpt lat="53.382096" lon="-1.770634"><ele>293</ele><time>2020-08-05T11:56:39Z</time><name>PT8871</name></trkpt>
<trkpt lat="53.382087" lon="-1.770628"><ele>294</ele><time>2020-08-05T11:56:40Z</time><name>PT8872</name></trkpt>
<trkpt lat="53.382077" lon="-1.770612"><ele>294</ele><time>2020-08-05T11:56:40Z</time><name>PT8873</name></trkpt>
<trkpt lat="53.382067" lon="-1.770600"><ele>294</ele><time>2020-08-05T11:56:42Z</time><name>PT8874</name></trkpt>
<trkpt lat="53.382060" lon="-1.770593"><ele>294</ele><time>2020-08-05T11:56:43Z</time><name>PT8875</name></trkpt>
<trkpt lat="53.382056" lon="-1.770585"><ele>295</ele><time>2020-08-05T11:56:43Z</time><name>PT8876</name></trkpt>
<trkpt lat="53.382046" lon="-1.770577"><ele>295</ele><time>2020-08-05T11:56:45Z</time><name>PT8877</name></trkpt>
<trkpt lat="53.382033" lon="-1.770565"><ele>295</ele><time>2020-08-05T11:56:46Z</time><name>PT8878</name></trkpt>
<trkpt lat="53.382022" lon="-1.770554"><ele>295</ele><time>2020-08-05T11:56:46Z</time><name>PT8879</name></trkpt>
<trkpt lat="53.382011" lon="-1.770545"><ele>295</ele><time>2020-08-05T11:56:48Z</time><name>PT8880</name></trkpt>
<trkpt lat="53.382002" lon="-1.770541"><ele>295</ele><time>2020-08-05T11:56:49Z</time><name>PT8881</name></trkpt>
<trkpt lat="53.381993" lon="-1.770536"><ele>295</ele><time>2020-08-05T11:56:50Z</time><name>PT8882</name></trkpt>
<trkpt lat="53.381982" lon="-1.770528"><ele>295</ele><time>2020-08-05T11:56:51Z</time><name>PT8883</name></trkpt>
<trkpt lat="53.381969" lon="-1.770519"><ele>299</ele><time>2020-08-05T11:56:52Z</time><name>PT8884</name></trkpt>
<trkpt lat="53.381962" lon="-1.770514"><ele>299</ele><time>2020-08-05T11:56:53Z</time><name>PT8885</name></trkpt>
<trkpt lat="53.381955" lon="-1.770510"><ele>299</ele><time>2020-08-05T11:56:54Z</time><name>PT8886</name></trkpt>
<trkpt lat="53.381947" lon="-1.770505"><ele>300</ele><time>2020-08-05T11:56:55Z</time><name>PT8887</name></trkpt>
<trkpt lat="53.381939" lon="-1.770497"><ele>300</ele><time>2020-08-05T11:56:56Z</time><name>PT8888</name></trkpt>
<trkpt lat="53.381932" lon="-1.770493"><ele>301</ele><time>2020-08-05T11:56:57Z</time><name>PT8889</name></trkpt>
<trkpt lat="53.381926" lon="-1.770492"><ele>300</ele><time>2020-08-05T11:56:58Z</time><name>PT8890</name></trkpt>
<trkpt lat="53.381917" lon="-1.770491"><ele>301</ele><time>2020-08-05T11:56:59Z</time><name>PT8891</name></trkpt>
<trkpt lat="53.381907" lon="-1.770485"><ele>301</ele><time>2020-08-05T11:57:00Z</time><name>PT8892</name></trkpt>
<trkpt lat="53.381901" lon="-1.770482"><ele>301</ele><time>2020-08-05T11:57:01Z</time><name>PT8893</name></trkpt>
<trkpt lat="53.381895" lon="-1.770481"><ele>300</ele><time>2020-08-05T11:57:02Z</time><name>PT8894</name></trkpt>
<trkpt lat="53.381888" lon="-1.770476"><ele>301</ele><time>2020-08-05T11:57:03Z</time><name>PT8895</name></trkpt>
<trkpt lat="53.381877" lon="-1.770469"><ele>301</ele><time>2020-08-05T11:57:04Z</time><name>PT8896</name></trkpt>
<trkpt lat="53.381869" lon="-1.770465"><ele>302</ele><time>2020-08-05T11:57:05Z</time><name>PT8897</name></trkpt>
<trkpt lat="53.381858" lon="-1.770452"><ele>301</ele><time>2020-08-05T11:57:06Z</time><name>PT8898</name></trkpt>
<trkpt lat="53.381852" lon="-1.770447"><ele>301</ele><time>2020-08-05T11:57:07Z</time><name>PT8899</name></trkpt>
<trkpt lat="53.381843" lon="-1.770444"><ele>302</ele><time>2020-08-05T11:57:08Z</time><name>PT8900</name></trkpt>
<trkpt lat="53.381834" lon="-1.770433"><ele>302</ele><time>2020-08-05T11:57:09Z</time><name>PT8901</name></trkpt>
<trkpt lat="53.381825" lon="-1.770427"><ele>303</ele><time>2020-08-05T11:57:10Z</time><name>PT8902</name></trkpt>
<trkpt lat="53.381819" lon="-1.770424"><ele>302</ele><time>2020-08-05T11:57:11Z</time><name>PT8903</name></trkpt>
<trkpt lat="53.381814" lon="-1.770421"><ele>302</ele><time>2020-08-05T11:57:12Z</time><name>PT8904</name></trkpt>
<trkpt lat="53.381806" lon="-1.770415"><ele>303</ele><time>2020-08-05T11:57:13Z</time><name>PT8905</name></trkpt>
<trkpt lat="53.381795" lon="-1.770409"><ele>303</ele><time>2020-08-05T11:57:13Z</time><name>PT8906</name></trkpt>
<trkpt lat="53.381788" lon="-1.770405"><ele>303</ele><time>2020-08-05T11:57:15Z</time><name>PT8907</name></trkpt>
<trkpt lat="53.381780" lon="-1.770402"><ele>303</ele><time>2020-08-05T11:57:16Z</time><name>PT8908</name></trkpt>
<trkpt lat="53.381776" lon="-1.770399"><ele>303</ele><time>2020-08-05T11:57:16Z</time><name>PT8909</name></trkpt>
<trkpt lat="53.381772" lon="-1.770396"><ele>303</ele><time>2020-08-05T11:57:18Z</time><name>PT8910</name></trkpt>
<trkpt lat="53.381762" lon="-1.770391"><ele>302</ele><time>2020-08-05T11:57:19Z</time><name>PT8911</name></trkpt>
<trkpt lat="53.381752" lon="-1.770384"><ele>302</ele><time>2020-08-05T11:57:19Z</time><name>PT8912</name></trkpt>
<trkpt lat="53.381744" lon="-1.770377"><ele>302</ele><time>2020-08-05T11:57:21Z</time><name>PT8913</name></trkpt>
<trkpt lat="53.381739" lon="-1.770373"><ele>302</ele><time>2020-08-05T11:57:22Z</time><name>PT8914</name></trkpt>
<trkpt lat="53.381737" lon="-1.770374"><ele>302</ele><time>2020-08-05T11:57:22Z</time><name>PT8915</name></trkpt>
<trkpt lat="53.381730" lon="-1.770370"><ele>302</ele><time>2020-08-05T11:57:24Z</time><name>PT8916</name></trkpt>
<trkpt lat="53.381720" lon="-1.770356"><ele>302</ele><time>2020-08-05T11:57:25Z</time><name>PT8917</name></trkpt>
<trkpt lat="53.381711" lon="-1.770349"><ele>302</ele><time>2020-08-05T11:57:25Z</time><name>PT8918</name></trkpt>
<trkpt lat="53.381702" lon="-1.770344"><ele>302</ele><time>2020-08-05T11:57:27Z</time><name>PT8919</name></trkpt>
<trkpt lat="53.381694" lon="-1.770337"><ele>302</ele><time>2020-08-05T11:57:28Z</time><name>PT8920</name></trkpt>
<trkpt lat="53.381688" lon="-1.770335"><ele>302</ele><time>2020-08-05T11:57:28Z</time><name>PT8921</name></trkpt>
<trkpt lat="53.381681" lon="-1.770330"><ele>302</ele><time>2020-08-05T11:57:30Z</time><name>PT8922</name></trkpt>
<trkpt lat="53.381672" lon="-1.770318"><ele>302</ele><time>2020-08-05T11:57:31Z</time><name>PT8923</name></trkpt>
<trkpt lat="53.381666" lon="-1.770308"><ele>302</ele><time>2020-08-05T11:57:31Z</time><name>PT8924</name></trkpt>
<trkpt lat="53.381657" lon="-1.770293"><ele>301</ele><time>2020-08-05T11:57:33Z</time><name>PT8925</name></trkpt>
<trkpt lat="53.381648" lon="-1.770284"><ele>301</ele><time>2020-08-05T11:57:34Z</time><name>PT8926</name></trkpt>
<trkpt lat="53.381639" lon="-1.770276"><ele>301</ele><time>2020-08-05T11:57:34Z</time><name>PT8927</name></trkpt>
<trkpt lat="53.381630" lon="-1.770268"><ele>301</ele><time>2020-08-05T11:57:36Z</time><name>PT8928</name></trkpt>
<trkpt lat="53.381622" lon="-1.770260"><ele>301</ele><time>2020-08-05T11:57:37Z</time><name>PT8929</name></trkpt>
<trkpt lat="53.381612" lon="-1.770249"><ele>302</ele><time>2020-08-05T11:57:37Z</time><name>PT8930</name></trkpt>
<trkpt lat="53.381605" lon="-1.770237"><ele>301</ele><time>2020-08-05T11:57:39Z</time><name>PT8931</name></trkpt>
<trkpt lat="53.381599" lon="-1.770231"><ele>301</ele><time>2020-08-05T11:57:40Z</time><name>PT8932</name></trkpt>
<trkpt lat="53.381590" lon="-1.770223"><ele>300</ele><time>2020-08-05T11:57:40Z</time><name>PT8933</name></trkpt>
<trkpt lat="53.381581" lon="-1.770217"><ele>300</ele><time>2020-08-05T11:57:42Z</time><name>PT8934</name></trkpt>
<trkpt lat="53.381569" lon="-1.770212"><ele>300</ele><time>2020-08-05T11:57:43Z</time><name>PT8935</name></trkpt>
<trkpt lat="53.381557" lon="-1.770207"><ele>301</ele><time>2020-08-05T11:57:44Z</time><name>PT8936</name></trkpt>
<trkpt lat="53.381548" lon="-1.770201"><ele>301</ele><time>2020-08-05T11:57:45Z</time><name>PT8937</name></trkpt>
<trkpt lat="53.381540" lon="-1.770197"><ele>301</ele><time>2020-08-05T11:57:46Z</time><name>PT8938</name></trkpt>
<trkpt lat="53.381531" lon="-1.770190"><ele>301</ele><time>2020-08-05T11:57:47Z</time><name>PT8939</name></trkpt>
<trkpt lat="53.381522" lon="-1.770182"><ele>301</ele><time>2020-08-05T11:57:48Z</time><name>PT8940</name></trkpt>
<trkpt lat="53.381512" lon="-1.770174"><ele>301</ele><time>2020-08-05T11:57:49Z</time><name>PT8941</name></trkpt>
<trkpt lat="53.381506" lon="-1.770171"><ele>302</ele><time>2020-08-05T11:57:50Z</time><name>PT8942</name></trkpt>
<trkpt lat="53.381496" lon="-1.770171"><ele>302</ele><time>2020-08-05T11:57:51Z</time><name>PT8943</name></trkpt>
<trkpt lat="53.381486" lon="-1.770163"><ele>302</ele><time>2020-08-05T11:57:52Z</time><name>PT8944</name></trkpt>
<trkpt lat="53.381478" lon="-1.770158"><ele>302</ele><time>2020-08-05T11:57:53Z</time><name>PT8945</name></trkpt>
<trkpt lat="53.381470" lon="-1.770152"><ele>303</ele><time>2020-08-05T11:57:54Z</time><name>PT8946</name></trkpt>
<trkpt lat="53.381461" lon="-1.770145"><ele>303</ele><time>2020-08-05T11:57:55Z</time><name>PT8947</name></trkpt>
<trkpt lat="53.381454" lon="-1.770137"><ele>302</ele><time>2020-08-05T11:57:56Z</time><name>PT8948</name></trkpt>
<trkpt lat="53.381445" lon="-1.770132"><ele>302</ele><time>2020-08-05T11:57:57Z</time><name>PT8949</name></trkpt>
<trkpt lat="53.381436" lon="-1.770130"><ele>301</ele><time>2020-08-05T11:57:58Z</time><name>PT8950</name></trkpt>
<trkpt lat="53.381429" lon="-1.770126"><ele>301</ele><time>2020-08-05T11:57:59Z</time><name>PT8951</name></trkpt>
<trkpt lat="53.381422" lon="-1.770123"><ele>302</ele><time>2020-08-05T11:58:00Z</time><name>PT8952</name></trkpt>
<trkpt lat="53.381415" lon="-1.770117"><ele>302</ele><time>2020-08-05T11:58:01Z</time><name>PT8953</name></trkpt>
<trkpt lat="53.381410" lon="-1.770105"><ele>302</ele><time>2020-08-05T11:58:02Z</time><name>PT8954</name></trkpt>
<trkpt lat="53.381402" lon="-1.770097"><ele>303</ele><time>2020-08-05T11:58:03Z</time><name>PT8955</name></trkpt>
<trkpt lat="53.381392" lon="-1.770088"><ele>304</ele><time>2020-08-05T11:58:04Z</time><name>PT8956</name></trkpt>
<trkpt lat="53.381386" lon="-1.770075"><ele>303</ele><time>2020-08-05T11:58:05Z</time><name>PT8957</name></trkpt>
<trkpt lat="53.381379" lon="-1.770066"><ele>303</ele><time>2020-08-05T11:58:06Z</time><name>PT8958</name></trkpt>
<trkpt lat="53.381370" lon="-1.770059"><ele>303</ele><time>2020-08-05T11:58:07Z</time><name>PT8959</name></trkpt>
<trkpt lat="53.381361" lon="-1.770051"><ele>303</ele><time>2020-08-05T11:58:08Z</time><name>PT8960</name></trkpt>
<trkpt lat="53.381351" lon="-1.770048"><ele>304</ele><time>2020-08-05T11:58:09Z</time><name>PT8961</name></trkpt>
<trkpt lat="53.381345" lon="-1.770037"><ele>304</ele><time>2020-08-05T11:58:10Z</time><name>PT8962</name></trkpt>
<trkpt lat="53.381337" lon="-1.770036"><ele>304</ele><time>2020-08-05T11:58:10Z</time><name>PT8963</name></trkpt>
<trkpt lat="53.381332" lon="-1.770032"><ele>304</ele><time>2020-08-05T11:58:12Z</time><name>PT8964</name></trkpt>
<trkpt lat="53.381332" lon="-1.770034"><ele>305</ele><time>2020-08-05T11:58:13Z</time><name>PT8965</name></trkpt>
<trkpt lat="53.381326" lon="-1.770027"><ele>305</ele><time>2020-08-05T11:58:13Z</time><name>PT8966</name></trkpt>
<trkpt lat="53.381318" lon="-1.770019"><ele>305</ele><time>2020-08-05T11:58:15Z</time><name>PT8967</name></trkpt>
<trkpt lat="53.381306" lon="-1.770014"><ele>306</ele><time>2020-08-05T11:58:16Z</time><name>PT8968</name></trkpt>
<trkpt lat="53.381298" lon="-1.770002"><ele>305</ele><time>2020-08-05T11:58:17Z</time><name>PT8969</name></trkpt>
<trkpt lat="53.381286" lon="-1.770001"><ele>305</ele><time>2020-08-05T11:58:18Z</time><name>PT8970</name></trkpt>
<trkpt lat="53.381274" lon="-1.769995"><ele>306</ele><time>2020-08-05T11:58:19Z</time><name>PT8971</name></trkpt>
<trkpt lat="53.381266" lon="-1.769990"><ele>306</ele><time>2020-08-05T11:58:19Z</time><name>PT8972</name></trkpt>
<trkpt lat="53.381259" lon="-1.769987"><ele>306</ele><time>2020-08-05T11:58:21Z</time><name>PT8973</name></trkpt>
<trkpt lat="53.381249" lon="-1.769985"><ele>306</ele><time>2020-08-05T11:58:22Z</time><name>PT8974</name></trkpt>
<trkpt lat="53.381240" lon="-1.769981"><ele>306</ele><time>2020-08-05T11:58:22Z</time><name>PT8975</name></trkpt>
<trkpt lat="53.381228" lon="-1.769982"><ele>306</ele><time>2020-08-05T11:58:24Z</time><name>PT8976</name></trkpt>
<trkpt lat="53.381220" lon="-1.769982"><ele>307</ele><time>2020-08-05T11:58:25Z</time><name>PT8977</name></trkpt>
<trkpt lat="53.381212" lon="-1.769983"><ele>307</ele><time>2020-08-05T11:58:25Z</time><name>PT8978</name></trkpt>
<trkpt lat="53.381202" lon="-1.769988"><ele>308</ele><time>2020-08-05T11:58:27Z</time><name>PT8979</name></trkpt>
<trkpt lat="53.381192" lon="-1.769989"><ele>308</ele><time>2020-08-05T11:58:28Z</time><name>PT8980</name></trkpt>
<trkpt lat="53.381183" lon="-1.769993"><ele>309</ele><time>2020-08-05T11:58:28Z</time><name>PT8981</name></trkpt>
<trkpt lat="53.381175" lon="-1.769998"><ele>309</ele><time>2020-08-05T11:58:30Z</time><name>PT8982</name></trkpt>
<trkpt lat="53.381171" lon="-1.769996"><ele>309</ele><time>2020-08-05T11:58:31Z</time><name>PT8983</name></trkpt>
<trkpt lat="53.381162" lon="-1.769994"><ele>309</ele><time>2020-08-05T11:58:31Z</time><name>PT8984</name></trkpt>
<trkpt lat="53.381152" lon="-1.769997"><ele>309</ele><time>2020-08-05T11:58:33Z</time><name>PT8985</name></trkpt>
<trkpt lat="53.381139" lon="-1.770007"><ele>310</ele><time>2020-08-05T11:58:34Z</time><name>PT8986</name></trkpt>
<trkpt lat="53.381130" lon="-1.770007"><ele>311</ele><time>2020-08-05T11:58:34Z</time><name>PT8987</name></trkpt>
<trkpt lat="53.381123" lon="-1.770010"><ele>311</ele><time>2020-08-05T11:58:36Z</time><name>PT8988</name></trkpt>
<trkpt lat="53.381115" lon="-1.770006"><ele>310</ele><time>2020-08-05T11:58:37Z</time><name>PT8989</name></trkpt>
<trkpt lat="53.381104" lon="-1.770007"><ele>310</ele><time>2020-08-05T11:58:37Z</time><name>PT8990</name></trkpt>
<trkpt lat="53.381089" lon="-1.770011"><ele>312</ele><time>2020-08-05T11:58:39Z</time><name>PT8991</name></trkpt>
<trkpt lat="53.381075" lon="-1.770008"><ele>312</ele><time>2020-08-05T11:58:40Z</time><name>PT8992</name></trkpt>
<trkpt lat="53.381062" lon="-1.770010"><ele>313</ele><time>2020-08-05T11:58:40Z</time><name>PT8993</name></trkpt>
<trkpt lat="53.381056" lon="-1.770008"><ele>313</ele><time>2020-08-05T11:58:42Z</time><name>PT8994</name></trkpt>
<trkpt lat="53.381047" lon="-1.770010"><ele>312</ele><time>2020-08-05T11:58:43Z</time><name>PT8995</name></trkpt>
<trkpt lat="53.381040" lon="-1.770010"><ele>312</ele><time>2020-08-05T11:58:43Z</time><name>PT8996</name></trkpt>
<trkpt lat="53.381031" lon="-1.770009"><ele>312</ele><time>2020-08-05T11:58:45Z</time><name>PT8997</name></trkpt>
<trkpt lat="53.381019" lon="-1.770013"><ele>312</ele><time>2020-08-05T11:58:46Z</time><name>PT8998</name></trkpt>
<trkpt lat="53.381011" lon="-1.770016"><ele>311</ele><time>2020-08-05T11:58:46Z</time><name>PT8999</name></trkpt>
<trkpt lat="53.381001" lon="-1.770020"><ele>311</ele><time>2020-08-05T11:58:48Z</time><name>PT9000</name></trkpt>
<trkpt lat="53.380989" lon="-1.770027"><ele>312</ele><time>2020-08-05T11:58:49Z</time><name>PT9001</name></trkpt>
<trkpt lat="53.380977" lon="-1.770030"><ele>312</ele><time>2020-08-05T11:58:50Z</time><name>PT9002</name></trkpt>
<trkpt lat="53.380968" lon="-1.770040"><ele>313</ele><time>2020-08-05T11:58:51Z</time><name>PT9003</name></trkpt>
<trkpt lat="53.380960" lon="-1.770046"><ele>313</ele><time>2020-08-05T11:58:52Z</time><name>PT9004</name></trkpt>
<trkpt lat="53.380952" lon="-1.770051"><ele>314</ele><time>2020-08-05T11:58:52Z</time><name>PT9005</name></trkpt>
<trkpt lat="53.380951" lon="-1.770059"><ele>313</ele><time>2020-08-05T11:58:54Z</time><name>PT9006</name></trkpt>
<trkpt lat="53.380949" lon="-1.770061"><ele>313</ele><time>2020-08-05T11:58:55Z</time><name>PT9007</name></trkpt>
<trkpt lat="53.380948" lon="-1.770060"><ele>313</ele><time>2020-08-05T11:58:55Z</time><name>PT9008</name></trkpt>
<trkpt lat="53.380946" lon="-1.770062"><ele>313</ele><time>2020-08-05T11:58:57Z</time><name>PT9009</name></trkpt>
<trkpt lat="53.380939" lon="-1.770068"><ele>313</ele><time>2020-08-05T11:58:58Z</time><name>PT9010</name></trkpt>
<trkpt lat="53.380936" lon="-1.770077"><ele>314</ele><time>2020-08-05T11:58:59Z</time><name>PT9011</name></trkpt>
<trkpt lat="53.380936" lon="-1.770073"><ele>314</ele><time>2020-08-05T11:59:00Z</time><name>PT9012</name></trkpt>
<trkpt lat="53.380928" lon="-1.770068"><ele>314</ele><time>2020-08-05T11:59:01Z</time><name>PT9013</name></trkpt>
<trkpt lat="53.380918" lon="-1.770069"><ele>314</ele><time>2020-08-05T11:59:01Z</time><name>PT9014</name></trkpt>
<trkpt lat="53.380911" lon="-1.770079"><ele>314</ele><time>2020-08-05T11:59:03Z</time><name>PT9015</name></trkpt>
<trkpt lat="53.380901" lon="-1.770092"><ele>314</ele><time>2020-08-05T11:59:04Z</time><name>PT9016</name></trkpt>
<trkpt lat="53.380882" lon="-1.770100"><ele>314</ele><time>2020-08-05T11:59:05Z</time><name>PT9017</name></trkpt>
<trkpt lat="53.380864" lon="-1.770106"><ele>313</ele><time>2020-08-05T11:59:06Z</time><name>PT9018</name></trkpt>
<trkpt lat="53.380850" lon="-1.770116"><ele>314</ele><time>2020-08-05T11:59:07Z</time><name>PT9019</name></trkpt>
<trkpt lat="53.380839" lon="-1.770121"><ele>313</ele><time>2020-08-05T11:59:08Z</time><name>PT9020</name></trkpt>
<trkpt lat="53.380827" lon="-1.770127"><ele>312</ele><time>2020-08-05T11:59:09Z</time><name>PT9021</name></trkpt>
<trkpt lat="53.380817" lon="-1.770136"><ele>312</ele><time>2020-08-05T11:59:10Z</time><name>PT9022</name></trkpt>
<trkpt lat="53.380804" lon="-1.770148"><ele>312</ele><time>2020-08-05T11:59:11Z</time><name>PT9023</name></trkpt>
<trkpt lat="53.380796" lon="-1.770163"><ele>312</ele><time>2020-08-05T11:59:12Z</time><name>PT9024</name></trkpt>
<trkpt lat="53.380787" lon="-1.770177"><ele>312</ele><time>2020-08-05T11:59:13Z</time><name>PT9025</name></trkpt>
<trkpt lat="53.380785" lon="-1.770196"><ele>312</ele><time>2020-08-05T11:59:14Z</time><name>PT9026</name></trkpt>
<trkpt lat="53.380778" lon="-1.770211"><ele>312</ele><time>2020-08-05T11:59:15Z</time><name>PT9027</name></trkpt>
<trkpt lat="53.380769" lon="-1.770223"><ele>312</ele><time>2020-08-05T11:59:16Z</time><name>PT9028</name></trkpt>
<trkpt lat="53.380761" lon="-1.770236"><ele>312</ele><time>2020-08-05T11:59:17Z</time><name>PT9029</name></trkpt>
<trkpt lat="53.380752" lon="-1.770253"><ele>312</ele><time>2020-08-05T11:59:18Z</time><name>PT9030</name></trkpt>
<trkpt lat="53.380743" lon="-1.770270"><ele>312</ele><time>2020-08-05T11:59:19Z</time><name>PT9031</name></trkpt>
<trkpt lat="53.380736" lon="-1.770280"><ele>312</ele><time>2020-08-05T11:59:20Z</time><name>PT9032</name></trkpt>
<trkpt lat="53.380729" lon="-1.770297"><ele>313</ele><time>2020-08-05T11:59:21Z</time><name>PT9033</name></trkpt>
<trkpt lat="53.380725" lon="-1.770324"><ele>313</ele><time>2020-08-05T11:59:22Z</time><name>PT9034</name></trkpt>
<trkpt lat="53.380716" lon="-1.770341"><ele>313</ele><time>2020-08-05T11:59:23Z</time><name>PT9035</name></trkpt>
<trkpt lat="53.380711" lon="-1.770357"><ele>313</ele><time>2020-08-05T11:59:24Z</time><name>PT9036</name></trkpt>
<trkpt lat="53.380703" lon="-1.770373"><ele>313</ele><time>2020-08-05T11:59:25Z</time><name>PT9037</name></trkpt>
<trkpt lat="53.380696" lon="-1.770394"><ele>313</ele><time>2020-08-05T11:59:26Z</time><name>PT9038</name></trkpt>
<trkpt lat="53.380690" lon="-1.770412"><ele>314</ele><time>2020-08-05T11:59:27Z</time><name>PT9039</name></trkpt>
<trkpt lat="53.380684" lon="-1.770429"><ele>314</ele><time>2020-08-05T11:59:28Z</time><name>PT9040</name></trkpt>
<trkpt lat="53.380675" lon="-1.770452"><ele>314</ele><time>2020-08-05T11:59:29Z</time><name>PT9041</name></trkpt>
<trkpt lat="53.380668" lon="-1.770470"><ele>313</ele><time>2020-08-05T11:59:30Z</time><name>PT9042</name></trkpt>
<trkpt lat="53.380662" lon="-1.770485"><ele>313</ele><time>2020-08-05T11:59:31Z</time><name>PT9043</name></trkpt>
<trkpt lat="53.380654" lon="-1.770501"><ele>312</ele><time>2020-08-05T11:59:32Z</time><name>PT9044</name></trkpt>
<trkpt lat="53.380646" lon="-1.770518"><ele>312</ele><time>2020-08-05T11:59:33Z</time><name>PT9045</name></trkpt>
<trkpt lat="53.380639" lon="-1.770534"><ele>312</ele><time>2020-08-05T11:59:34Z</time><name>PT9046</name></trkpt>
<trkpt lat="53.380629" lon="-1.770557"><ele>312</ele><time>2020-08-05T11:59:35Z</time><name>PT9047</name></trkpt>
<trkpt lat="53.380621" lon="-1.770576"><ele>312</ele><time>2020-08-05T11:59:36Z</time><name>PT9048</name></trkpt>
<trkpt lat="53.380614" lon="-1.770596"><ele>312</ele><time>2020-08-05T11:59:37Z</time><name>PT9049</name></trkpt>
<trkpt lat="53.380607" lon="-1.770612"><ele>312</ele><time>2020-08-05T11:59:37Z</time><name>PT9050</name></trkpt>
<trkpt lat="53.380598" lon="-1.770628"><ele>312</ele><time>2020-08-05T11:59:39Z</time><name>PT9051</name></trkpt>
<trkpt lat="53.380588" lon="-1.770646"><ele>311</ele><time>2020-08-05T11:59:40Z</time><name>PT9052</name></trkpt>
<trkpt lat="53.380582" lon="-1.770664"><ele>312</ele><time>2020-08-05T11:59:40Z</time><name>PT9053</name></trkpt>
<trkpt lat="53.380575" lon="-1.770678"><ele>311</ele><time>2020-08-05T11:59:42Z</time><name>PT9054</name></trkpt>
<trkpt lat="53.380572" lon="-1.770698"><ele>312</ele><time>2020-08-05T11:59:43Z</time><name>PT9055</name></trkpt>
<trkpt lat="53.380565" lon="-1.770716"><ele>312</ele><time>2020-08-05T11:59:43Z</time><name>PT9056</name></trkpt>
<trkpt lat="53.380557" lon="-1.770725"><ele>311</ele><time>2020-08-05T11:59:45Z</time><name>PT9057</name></trkpt>
<trkpt lat="53.380549" lon="-1.770737"><ele>312</ele><time>2020-08-05T11:59:46Z</time><name>PT9058</name></trkpt>
<trkpt lat="53.380543" lon="-1.770753"><ele>311</ele><time>2020-08-05T11:59:46Z</time><name>PT9059</name></trkpt>
<trkpt lat="53.380533" lon="-1.770771"><ele>311</ele><time>2020-08-05T11:59:48Z</time><name>PT9060</name></trkpt>
<trkpt lat="53.380525" lon="-1.770787"><ele>311</ele><time>2020-08-05T11:59:49Z</time><name>PT9061</name></trkpt>
<trkpt lat="53.380517" lon="-1.770805"><ele>311</ele><time>2020-08-05T11:59:49Z</time><name>PT9062</name></trkpt>
<trkpt lat="53.380511" lon="-1.770817"><ele>311</ele><time>2020-08-05T11:59:51Z</time><name>PT9063</name></trkpt>
<trkpt lat="53.380508" lon="-1.770833"><ele>311</ele><time>2020-08-05T11:59:52Z</time><name>PT9064</name></trkpt>
<trkpt lat="53.380502" lon="-1.770832"><ele>308</ele><time>2020-08-05T11:59:52Z</time><name>PT9065</name></trkpt>
<trkpt lat="53.380497" lon="-1.770846"><ele>308</ele><time>2020-08-05T11:59:54Z</time><name>PT9066</name></trkpt>
<trkpt lat="53.380490" lon="-1.770868"><ele>308</ele><time>2020-08-05T11:59:55Z</time><name>PT9067</name></trkpt>
<trkpt lat="53.380484" lon="-1.770883"><ele>308</ele><time>2020-08-05T11:59:55Z</time><name>PT9068</name></trkpt>
<trkpt lat="53.380478" lon="-1.770899"><ele>307</ele><time>2020-08-05T11:59:57Z</time><name>PT9069</name></trkpt>
<trkpt lat="53.380472" lon="-1.770915"><ele>307</ele><time>2020-08-05T11:59:58Z</time><name>PT9070</name></trkpt>
<trkpt lat="53.380465" lon="-1.770927"><ele>307</ele><time>2020-08-05T11:59:58Z</time><name>PT9071</name></trkpt>
<trkpt lat="53.380460" lon="-1.770939"><ele>307</ele><time>2020-08-05T12:00:00Z</time><name>PT9072</name></trkpt>
<trkpt lat="53.380455" lon="-1.770952"><ele>307</ele><time>2020-08-05T12:00:01Z</time><name>PT9073</name></trkpt>
<trkpt lat="53.380449" lon="-1.770966"><ele>307</ele><time>2020-08-05T12:00:01Z</time><name>PT9074</name></trkpt>
<trkpt lat="53.380441" lon="-1.770983"><ele>307</ele><time>2020-08-05T12:00:03Z</time><name>PT9075</name></trkpt>
<trkpt lat="53.380439" lon="-1.770991"><ele>306</ele><time>2020-08-05T12:00:04Z</time><name>PT9076</name></trkpt>
<trkpt lat="53.380434" lon="-1.771002"><ele>307</ele><time>2020-08-05T12:00:04Z</time><name>PT9077</name></trkpt>
<trkpt lat="53.380429" lon="-1.771011"><ele>307</ele><time>2020-08-05T12:00:06Z</time><name>PT9078</name></trkpt>
<trkpt lat="53.380426" lon="-1.771018"><ele>307</ele><time>2020-08-05T12:00:07Z</time><name>PT9079</name></trkpt>
<trkpt lat="53.380425" lon="-1.771022"><ele>306</ele><time>2020-08-05T12:00:07Z</time><name>PT9080</name></trkpt>
<trkpt lat="53.380424" lon="-1.771025"><ele>306</ele><time>2020-08-05T12:00:09Z</time><name>PT9081</name></trkpt>
<trkpt lat="53.380423" lon="-1.771028"><ele>306</ele><time>2020-08-05T12:00:10Z</time><name>PT9082</name></trkpt>
<trkpt lat="53.380422" lon="-1.771032"><ele>306</ele><time>2020-08-05T12:00:10Z</time><name>PT9083</name></trkpt>
<trkpt lat="53.380425" lon="-1.771032"><ele>306</ele><time>2020-08-05T12:00:12Z</time><name>PT9084</name></trkpt>
<trkpt lat="53.380424" lon="-1.771037"><ele>306</ele><time>2020-08-05T12:00:13Z</time><name>PT9085</name></trkpt>
<trkpt lat="53.380419" lon="-1.771042"><ele>306</ele><time>2020-08-05T12:00:32Z</time><name>PT9086</name></trkpt>
<trkpt lat="53.380410" lon="-1.771059"><ele>306</ele><time>2020-08-05T12:00:33Z</time><name>PT9087</name></trkpt>
<trkpt lat="53.380402" lon="-1.771069"><ele>306</ele><time>2020-08-05T12:00:34Z</time><name>PT9088</name></trkpt>
<trkpt lat="53.380391" lon="-1.771085"><ele>306</ele><time>2020-08-05T12:00:35Z</time><name>PT9089</name></trkpt>
<trkpt lat="53.380385" lon="-1.771103"><ele>305</ele><time>2020-08-05T12:00:36Z</time><name>PT9090</name></trkpt>
<trkpt lat="53.380375" lon="-1.771125"><ele>305</ele><time>2020-08-05T12:00:37Z</time><name>PT9091</name></trkpt>
<trkpt lat="53.380368" lon="-1.771148"><ele>305</ele><time>2020-08-05T12:00:38Z</time><name>PT9092</name></trkpt>
<trkpt lat="53.380361" lon="-1.771174"><ele>305</ele><time>2020-08-05T12:00:39Z</time><name>PT9093</name></trkpt>
<trkpt lat="53.380353" lon="-1.771196"><ele>305</ele><time>2020-08-05T12:00:40Z</time><name>PT9094</name></trkpt>
<trkpt lat="53.380345" lon="-1.771217"><ele>305</ele><time>2020-08-05T12:00:41Z</time><name>PT9095</name></trkpt>
<trkpt lat="53.380336" lon="-1.771240"><ele>305</ele><time>2020-08-05T12:00:42Z</time><name>PT9096</name></trkpt>
<trkpt lat="53.380329" lon="-1.771257"><ele>305</ele><time>2020-08-05T12:00:43Z</time><name>PT9097</name></trkpt>
<trkpt lat="53.380328" lon="-1.771289"><ele>305</ele><time>2020-08-05T12:00:44Z</time><name>PT9098</name></trkpt>
<trkpt lat="53.380326" lon="-1.771303"><ele>305</ele><time>2020-08-05T12:00:45Z</time><name>PT9099</name></trkpt>
<trkpt lat="53.380321" lon="-1.771316"><ele>305</ele><time>2020-08-05T12:00:46Z</time><name>PT9100</name></trkpt>
<trkpt lat="53.380315" lon="-1.771333"><ele>305</ele><time>2020-08-05T12:00:47Z</time><name>PT9101</name></trkpt>
<trkpt lat="53.380309" lon="-1.771353"><ele>305</ele><time>2020-08-05T12:00:48Z</time><name>PT9102</name></trkpt>
<trkpt lat="53.380303" lon="-1.771374"><ele>305</ele><time>2020-08-05T12:00:49Z</time><name>PT9103</name></trkpt>
<trkpt lat="53.380297" lon="-1.771398"><ele>305</ele><time>2020-08-05T12:00:50Z</time><name>PT9104</name></trkpt>
<trkpt lat="53.380291" lon="-1.771422"><ele>305</ele><time>2020-08-05T12:00:51Z</time><name>PT9105</name></trkpt>
<trkpt lat="53.380284" lon="-1.771442"><ele>305</ele><time>2020-08-05T12:00:52Z</time><name>PT9106</name></trkpt>
<trkpt lat="53.380280" lon="-1.771462"><ele>305</ele><time>2020-08-05T12:00:53Z</time><name>PT9107</name></trkpt>
<trkpt lat="53.380274" lon="-1.771480"><ele>305</ele><time>2020-08-05T12:00:54Z</time><name>PT9108</name></trkpt>
<trkpt lat="53.380267" lon="-1.771503"><ele>305</ele><time>2020-08-05T12:00:55Z</time><name>PT9109</name></trkpt>
<trkpt lat="53.380261" lon="-1.771521"><ele>305</ele><time>2020-08-05T12:00:55Z</time><name>PT9110</name></trkpt>
<trkpt lat="53.380254" lon="-1.771536"><ele>305</ele><time>2020-08-05T12:00:57Z</time><name>PT9111</name></trkpt>
<trkpt lat="53.380246" lon="-1.771560"><ele>305</ele><time>2020-08-05T12:00:58Z</time><name>PT9112</name></trkpt>
<trkpt lat="53.380238" lon="-1.771583"><ele>305</ele><time>2020-08-05T12:00:59Z</time><name>PT9113</name></trkpt>
<trkpt lat="53.380231" lon="-1.771604"><ele>305</ele><time>2020-08-05T12:01:00Z</time><name>PT9114</name></trkpt>
<trkpt lat="53.380223" lon="-1.771623"><ele>305</ele><time>2020-08-05T12:01:01Z</time><name>PT9115</name></trkpt>
<trkpt lat="53.380215" lon="-1.771642"><ele>305</ele><time>2020-08-05T12:01:01Z</time><name>PT9116</name></trkpt>
<trkpt lat="53.380207" lon="-1.771664"><ele>305</ele><time>2020-08-05T12:01:03Z</time><name>PT9117</name></trkpt>
<trkpt lat="53.380201" lon="-1.771684"><ele>305</ele><time>2020-08-05T12:01:04Z</time><name>PT9118</name></trkpt>
<trkpt lat="53.380191" lon="-1.771707"><ele>305</ele><time>2020-08-05T12:01:04Z</time><name>PT9119</name></trkpt>
<trkpt lat="53.380183" lon="-1.771726"><ele>305</ele><time>2020-08-05T12:01:06Z</time><name>PT9120</name></trkpt>
<trkpt lat="53.380176" lon="-1.771746"><ele>305</ele><time>2020-08-05T12:01:07Z</time><name>PT9121</name></trkpt>
<trkpt lat="53.380169" lon="-1.771765"><ele>305</ele><time>2020-08-05T12:01:07Z</time><name>PT9122</name></trkpt>
<trkpt lat="53.380161" lon="-1.771786"><ele>305</ele><time>2020-08-05T12:01:09Z</time><name>PT9123</name></trkpt>
<trkpt lat="53.380153" lon="-1.771808"><ele>305</ele><time>2020-08-05T12:01:10Z</time><name>PT9124</name></trkpt>
<trkpt lat="53.380145" lon="-1.771832"><ele>305</ele><time>2020-08-05T12:01:10Z</time><name>PT9125</name></trkpt>
<trkpt lat="53.380139" lon="-1.771850"><ele>305</ele><time>2020-08-05T12:01:12Z</time><name>PT9126</name></trkpt>
<trkpt lat="53.380134" lon="-1.771861"><ele>305</ele><time>2020-08-05T12:01:13Z</time><name>PT9127</name></trkpt>
<trkpt lat="53.380123" lon="-1.771874"><ele>304</ele><time>2020-08-05T12:01:13Z</time><name>PT9128</name></trkpt>
<trkpt lat="53.380115" lon="-1.771894"><ele>304</ele><time>2020-08-05T12:01:15Z</time><name>PT9129</name></trkpt>
<trkpt lat="53.380108" lon="-1.771916"><ele>303</ele><time>2020-08-05T12:01:16Z</time><name>PT9130</name></trkpt>
<trkpt lat="53.380104" lon="-1.771936"><ele>303</ele><time>2020-08-05T12:01:16Z</time><name>PT9131</name></trkpt>
<trkpt lat="53.380097" lon="-1.771960"><ele>303</ele><time>2020-08-05T12:01:18Z</time><name>PT9132</name></trkpt>
<trkpt lat="53.380087" lon="-1.771980"><ele>303</ele><time>2020-08-05T12:01:19Z</time><name>PT9133</name></trkpt>
<trkpt lat="53.380083" lon="-1.771996"><ele>302</ele><time>2020-08-05T12:01:19Z</time><name>PT9134</name></trkpt>
<trkpt lat="53.380074" lon="-1.772010"><ele>301</ele><time>2020-08-05T12:01:21Z</time><name>PT9135</name></trkpt>
<trkpt lat="53.380059" lon="-1.772034"><ele>302</ele><time>2020-08-05T12:01:22Z</time><name>PT9136</name></trkpt>
<trkpt lat="53.380051" lon="-1.772053"><ele>303</ele><time>2020-08-05T12:01:22Z</time><name>PT9137</name></trkpt>
<trkpt lat="53.380042" lon="-1.772074"><ele>303</ele><time>2020-08-05T12:01:24Z</time><name>PT9138</name></trkpt>
<trkpt lat="53.380034" lon="-1.772096"><ele>302</ele><time>2020-08-05T12:01:25Z</time><name>PT9139</name></trkpt>
<trkpt lat="53.380030" lon="-1.772116"><ele>302</ele><time>2020-08-05T12:01:26Z</time><name>PT9140</name></trkpt>
<trkpt lat="53.380024" lon="-1.772136"><ele>302</ele><time>2020-08-05T12:01:27Z</time><name>PT9141</name></trkpt>
<trkpt lat="53.380019" lon="-1.772168"><ele>303</ele><time>2020-08-05T12:01:28Z</time><name>PT9142</name></trkpt>
<trkpt lat="53.380014" lon="-1.772195"><ele>303</ele><time>2020-08-05T12:01:28Z</time><name>PT9143</name></trkpt>
<trkpt lat="53.380006" lon="-1.772214"><ele>303</ele><time>2020-08-05T12:01:30Z</time><name>PT9144</name></trkpt>
<trkpt lat="53.380000" lon="-1.772226"><ele>303</ele><time>2020-08-05T12:01:31Z</time><name>PT9145</name></trkpt>
<trkpt lat="53.379993" lon="-1.772241"><ele>302</ele><time>2020-08-05T12:01:31Z</time><name>PT9146</name></trkpt>
<trkpt lat="53.379986" lon="-1.772263"><ele>303</ele><time>2020-08-05T12:01:33Z</time><name>PT9147</name></trkpt>
<trkpt lat="53.379980" lon="-1.772288"><ele>303</ele><time>2020-08-05T12:01:34Z</time><name>PT9148</name></trkpt>
<trkpt lat="53.379978" lon="-1.772310"><ele>303</ele><time>2020-08-05T12:01:34Z</time><name>PT9149</name></trkpt>
<trkpt lat="53.379968" lon="-1.772336"><ele>303</ele><time>2020-08-05T12:01:36Z</time><name>PT9150</name></trkpt>
<trkpt lat="53.379964" lon="-1.772358"><ele>303</ele><time>2020-08-05T12:01:37Z</time><name>PT9151</name></trkpt>
<trkpt lat="53.379959" lon="-1.772372"><ele>304</ele><time>2020-08-05T12:01:37Z</time><name>PT9152</name></trkpt>
<trkpt lat="53.379950" lon="-1.772393"><ele>304</ele><time>2020-08-05T12:01:39Z</time><name>PT9153</name></trkpt>
<trkpt lat="53.379944" lon="-1.772410"><ele>304</ele><time>2020-08-05T12:01:40Z</time><name>PT9154</name></trkpt>
<trkpt lat="53.379938" lon="-1.772429"><ele>304</ele><time>2020-08-05T12:01:40Z</time><name>PT9155</name></trkpt>
<trkpt lat="53.379928" lon="-1.772446"><ele>304</ele><time>2020-08-05T12:01:42Z</time><name>PT9156</name></trkpt>
<trkpt lat="53.379916" lon="-1.772457"><ele>303</ele><time>2020-08-05T12:01:43Z</time><name>PT9157</name></trkpt>
<trkpt lat="53.379906" lon="-1.772473"><ele>303</ele><time>2020-08-05T12:01:43Z</time><name>PT9158</name></trkpt>
<trkpt lat="53.379896" lon="-1.772489"><ele>303</ele><time>2020-08-05T12:01:45Z</time><name>PT9159</name></trkpt>
<trkpt lat="53.379888" lon="-1.772505"><ele>302</ele><time>2020-08-05T12:01:46Z</time><name>PT9160</name></trkpt>
<trkpt lat="53.379878" lon="-1.772524"><ele>301</ele><time>2020-08-05T12:01:47Z</time><name>PT9161</name></trkpt>
<trkpt lat="53.379869" lon="-1.772536"><ele>301</ele><time>2020-08-05T12:01:48Z</time><name>PT9162</name></trkpt>
<trkpt lat="53.379862" lon="-1.772550"><ele>301</ele><time>2020-08-05T12:01:49Z</time><name>PT9163</name></trkpt>
<trkpt lat="53.379855" lon="-1.772571"><ele>301</ele><time>2020-08-05T12:01:50Z</time><name>PT9164</name></trkpt>
<trkpt lat="53.379847" lon="-1.772589"><ele>301</ele><time>2020-08-05T12:01:51Z</time><name>PT9165</name></trkpt>
<trkpt lat="53.379838" lon="-1.772611"><ele>300</ele><time>2020-08-05T12:01:52Z</time><name>PT9166</name></trkpt>
<trkpt lat="53.379830" lon="-1.772630"><ele>300</ele><time>2020-08-05T12:01:53Z</time><name>PT9167</name></trkpt>
<trkpt lat="53.379820" lon="-1.772646"><ele>300</ele><time>2020-08-05T12:01:54Z</time><name>PT9168</name></trkpt>
<trkpt lat="53.379809" lon="-1.772659"><ele>300</ele><time>2020-08-05T12:01:55Z</time><name>PT9169</name></trkpt>
<trkpt lat="53.379800" lon="-1.772676"><ele>299</ele><time>2020-08-05T12:01:56Z</time><name>PT9170</name></trkpt>
<trkpt lat="53.379788" lon="-1.772696"><ele>299</ele><time>2020-08-05T12:01:57Z</time><name>PT9171</name></trkpt>
<trkpt lat="53.379778" lon="-1.772712"><ele>299</ele><time>2020-08-05T12:01:58Z</time><name>PT9172</name></trkpt>
<trkpt lat="53.379771" lon="-1.772731"><ele>299</ele><time>2020-08-05T12:01:59Z</time><name>PT9173</name></trkpt>
<trkpt lat="53.379763" lon="-1.772751"><ele>299</ele><time>2020-08-05T12:02:00Z</time><name>PT9174</name></trkpt>
<trkpt lat="53.379753" lon="-1.772772"><ele>299</ele><time>2020-08-05T12:02:01Z</time><name>PT9175</name></trkpt>
<trkpt lat="53.379745" lon="-1.772791"><ele>299</ele><time>2020-08-05T12:02:02Z</time><name>PT9176</name></trkpt>
<trkpt lat="53.379741" lon="-1.772815"><ele>299</ele><time>2020-08-05T12:02:03Z</time><name>PT9177</name></trkpt>
<trkpt lat="53.379734" lon="-1.772835"><ele>299</ele><time>2020-08-05T12:02:04Z</time><name>PT9178</name></trkpt>
<trkpt lat="53.379724" lon="-1.772846"><ele>299</ele><time>2020-08-05T12:02:05Z</time><name>PT9179</name></trkpt>
<trkpt lat="53.379715" lon="-1.772852"><ele>298</ele><time>2020-08-05T12:02:06Z</time><name>PT9180</name></trkpt>
<trkpt lat="53.379708" lon="-1.772862"><ele>298</ele><time>2020-08-05T12:02:07Z</time><name>PT9181</name></trkpt>
<trkpt lat="53.379700" lon="-1.772874"><ele>298</ele><time>2020-08-05T12:02:08Z</time><name>PT9182</name></trkpt>
<trkpt lat="53.379695" lon="-1.772890"><ele>298</ele><time>2020-08-05T12:02:09Z</time><name>PT9183</name></trkpt>
<trkpt lat="53.379688" lon="-1.772911"><ele>298</ele><time>2020-08-05T12:02:10Z</time><name>PT9184</name></trkpt>
<trkpt lat="53.379680" lon="-1.772934"><ele>299</ele><time>2020-08-05T12:02:10Z</time><name>PT9185</name></trkpt>
<trkpt lat="53.379672" lon="-1.772959"><ele>299</ele><time>2020-08-05T12:02:12Z</time><name>PT9186</name></trkpt>
<trkpt lat="53.379666" lon="-1.772972"><ele>299</ele><time>2020-08-05T12:02:13Z</time><name>PT9187</name></trkpt>
<trkpt lat="53.379657" lon="-1.772988"><ele>298</ele><time>2020-08-05T12:02:13Z</time><name>PT9188</name></trkpt>
<trkpt lat="53.379646" lon="-1.773002"><ele>298</ele><time>2020-08-05T12:02:15Z</time><name>PT9189</name></trkpt>
<trkpt lat="53.379630" lon="-1.773022"><ele>298</ele><time>2020-08-05T12:02:16Z</time><name>PT9190</name></trkpt>
<trkpt lat="53.379624" lon="-1.773040"><ele>298</ele><time>2020-08-05T12:02:16Z</time><name>PT9191</name></trkpt>
<trkpt lat="53.379624" lon="-1.773053"><ele>297</ele><time>2020-08-05T12:02:18Z</time><name>PT9192</name></trkpt>
<trkpt lat="53.379619" lon="-1.773068"><ele>296</ele><time>2020-08-05T12:02:19Z</time><name>PT9193</name></trkpt>
<trkpt lat="53.379610" lon="-1.773092"><ele>296</ele><time>2020-08-05T12:02:19Z</time><name>PT9194</name></trkpt>
<trkpt lat="53.379592" lon="-1.773111"><ele>300</ele><time>2020-08-05T12:02:21Z</time><name>PT9195</name></trkpt>
<trkpt lat="53.379582" lon="-1.773125"><ele>300</ele><time>2020-08-05T12:02:22Z</time><name>PT9196</name></trkpt>
<trkpt lat="53.379575" lon="-1.773143"><ele>300</ele><time>2020-08-05T12:02:22Z</time><name>PT9197</name></trkpt>
<trkpt lat="53.379572" lon="-1.773163"><ele>300</ele><time>2020-08-05T12:02:24Z</time><name>PT9198</name></trkpt>
<trkpt lat="53.379567" lon="-1.773184"><ele>299</ele><time>2020-08-05T12:02:25Z</time><name>PT9199</name></trkpt>
<trkpt lat="53.379562" lon="-1.773200"><ele>298</ele><time>2020-08-05T12:02:25Z</time><name>PT9200</name></trkpt>
<trkpt lat="53.379555" lon="-1.773219"><ele>298</ele><time>2020-08-05T12:02:27Z</time><name>PT9201</name></trkpt>
<trkpt lat="53.379549" lon="-1.773233"><ele>298</ele><time>2020-08-05T12:02:28Z</time><name>PT9202</name></trkpt>
<trkpt lat="53.379543" lon="-1.773249"><ele>297</ele><time>2020-08-05T12:02:28Z</time><name>PT9203</name></trkpt>
<trkpt lat="53.379534" lon="-1.773267"><ele>297</ele><time>2020-08-05T12:02:30Z</time><name>PT9204</name></trkpt>
<trkpt lat="53.379530" lon="-1.773287"><ele>297</ele><time>2020-08-05T12:02:31Z</time><name>PT9205</name></trkpt>
<trkpt lat="53.379526" lon="-1.773306"><ele>297</ele><time>2020-08-05T12:02:31Z</time><name>PT9206</name></trkpt>
<trkpt lat="53.379524" lon="-1.773324"><ele>297</ele><time>2020-08-05T12:02:33Z</time><name>PT9207</name></trkpt>
<trkpt lat="53.379518" lon="-1.773340"><ele>296</ele><time>2020-08-05T12:02:34Z</time><name>PT9208</name></trkpt>
<trkpt lat="53.379511" lon="-1.773358"><ele>296</ele><time>2020-08-05T12:02:34Z</time><name>PT9209</name></trkpt>
<trkpt lat="53.379504" lon="-1.773374"><ele>295</ele><time>2020-08-05T12:02:36Z</time><name>PT9210</name></trkpt>
<trkpt lat="53.379495" lon="-1.773382"><ele>294</ele><time>2020-08-05T12:02:37Z</time><name>PT9211</name></trkpt>
<trkpt lat="53.379487" lon="-1.773397"><ele>293</ele><time>2020-08-05T12:02:37Z</time><name>PT9212</name></trkpt>
<trkpt lat="53.379481" lon="-1.773417"><ele>293</ele><time>2020-08-05T12:02:39Z</time><name>PT9213</name></trkpt>
<trkpt lat="53.379476" lon="-1.773443"><ele>293</ele><time>2020-08-05T12:02:40Z</time><name>PT9214</name></trkpt>
<trkpt lat="53.379471" lon="-1.773463"><ele>293</ele><time>2020-08-05T12:02:41Z</time><name>PT9215</name></trkpt>
<trkpt lat="53.379467" lon="-1.773477"><ele>293</ele><time>2020-08-05T12:02:42Z</time><name>PT9216</name></trkpt>
<trkpt lat="53.379461" lon="-1.773493"><ele>293</ele><time>2020-08-05T12:02:43Z</time><name>PT9217</name></trkpt>
<trkpt lat="53.379455" lon="-1.773512"><ele>292</ele><time>2020-08-05T12:02:43Z</time><name>PT9218</name></trkpt>
<trkpt lat="53.379449" lon="-1.773529"><ele>292</ele><time>2020-08-05T12:02:45Z</time><name>PT9219</name></trkpt>
<trkpt lat="53.379446" lon="-1.773549"><ele>292</ele><time>2020-08-05T12:02:46Z</time><name>PT9220</name></trkpt>
<trkpt lat="53.379443" lon="-1.773573"><ele>292</ele><time>2020-08-05T12:02:47Z</time><name>PT9221</name></trkpt>
<trkpt lat="53.379440" lon="-1.773597"><ele>292</ele><time>2020-08-05T12:02:48Z</time><name>PT9222</name></trkpt>
<trkpt lat="53.379433" lon="-1.773617"><ele>292</ele><time>2020-08-05T12:02:49Z</time><name>PT9223</name></trkpt>
<trkpt lat="53.379426" lon="-1.773636"><ele>292</ele><time>2020-08-05T12:02:49Z</time><name>PT9224</name></trkpt>
<trkpt lat="53.379423" lon="-1.773658"><ele>290</ele><time>2020-08-05T12:02:51Z</time><name>PT9225</name></trkpt>
<trkpt lat="53.379416" lon="-1.773681"><ele>289</ele><time>2020-08-05T12:02:52Z</time><name>PT9226</name></trkpt>
<trkpt lat="53.379412" lon="-1.773698"><ele>288</ele><time>2020-08-05T12:02:52Z</time><name>PT9227</name></trkpt>
<trkpt lat="53.379409" lon="-1.773720"><ele>288</ele><time>2020-08-05T12:02:54Z</time><name>PT9228</name></trkpt>
<trkpt lat="53.379403" lon="-1.773742"><ele>288</ele><time>2020-08-05T12:02:55Z</time><name>PT9229</name></trkpt>
<trkpt lat="53.379399" lon="-1.773762"><ele>288</ele><time>2020-08-05T12:02:56Z</time><name>PT9230</name></trkpt>
<trkpt lat="53.379392" lon="-1.773778"><ele>288</ele><time>2020-08-05T12:02:57Z</time><name>PT9231</name></trkpt>
<trkpt lat="53.379384" lon="-1.773801"><ele>288</ele><time>2020-08-05T12:02:58Z</time><name>PT9232</name></trkpt>
<trkpt lat="53.379378" lon="-1.773819"><ele>288</ele><time>2020-08-05T12:02:58Z</time><name>PT9233</name></trkpt>
<trkpt lat="53.379374" lon="-1.773837"><ele>288</ele><time>2020-08-05T12:03:00Z</time><name>PT9234</name></trkpt>
<trkpt lat="53.379370" lon="-1.773855"><ele>288</ele><time>2020-08-05T12:03:01Z</time><name>PT9235</name></trkpt>
<trkpt lat="53.379368" lon="-1.773875"><ele>288</ele><time>2020-08-05T12:03:02Z</time><name>PT9236</name></trkpt>
<trkpt lat="53.379364" lon="-1.773888"><ele>288</ele><time>2020-08-05T12:03:03Z</time><name>PT9237</name></trkpt>
<trkpt lat="53.379358" lon="-1.773902"><ele>287</ele><time>2020-08-05T12:03:04Z</time><name>PT9238</name></trkpt>
<trkpt lat="53.379352" lon="-1.773916"><ele>287</ele><time>2020-08-05T12:03:05Z</time><name>PT9239</name></trkpt>
<trkpt lat="53.379344" lon="-1.773936"><ele>287</ele><time>2020-08-05T12:03:06Z</time><name>PT9240</name></trkpt>
<trkpt lat="53.379340" lon="-1.773954"><ele>287</ele><time>2020-08-05T12:03:07Z</time><name>PT9241</name></trkpt>
<trkpt lat="53.379340" lon="-1.773972"><ele>287</ele><time>2020-08-05T12:03:08Z</time><name>PT9242</name></trkpt>
<trkpt lat="53.379337" lon="-1.773993"><ele>287</ele><time>2020-08-05T12:03:09Z</time><name>PT9243</name></trkpt>
<trkpt lat="53.379333" lon="-1.774010"><ele>287</ele><time>2020-08-05T12:03:10Z</time><name>PT9244</name></trkpt>
<trkpt lat="53.379326" lon="-1.774026"><ele>287</ele><time>2020-08-05T12:03:11Z</time><name>PT9245</name></trkpt>
<trkpt lat="53.379316" lon="-1.774043"><ele>287</ele><time>2020-08-05T12:03:12Z</time><name>PT9246</name></trkpt>
<trkpt lat="53.379311" lon="-1.774063"><ele>286</ele><time>2020-08-05T12:03:13Z</time><name>PT9247</name></trkpt>
<trkpt lat="53.379304" lon="-1.774084"><ele>286</ele><time>2020-08-05T12:03:13Z</time><name>PT9248</name></trkpt>
<trkpt lat="53.379300" lon="-1.774103"><ele>286</ele><time>2020-08-05T12:03:15Z</time><name>PT9249</name></trkpt>
<trkpt lat="53.379294" lon="-1.774124"><ele>286</ele><time>2020-08-05T12:03:16Z</time><name>PT9250</name></trkpt>
<trkpt lat="53.379289" lon="-1.774143"><ele>286</ele><time>2020-08-05T12:03:17Z</time><name>PT9251</name></trkpt>
<trkpt lat="53.379283" lon="-1.774159"><ele>286</ele><time>2020-08-05T12:03:18Z</time><name>PT9252</name></trkpt>
<trkpt lat="53.379272" lon="-1.774175"><ele>286</ele><time>2020-08-05T12:03:19Z</time><name>PT9253</name></trkpt>
<trkpt lat="53.379262" lon="-1.774194"><ele>285</ele><time>2020-08-05T12:03:20Z</time><name>PT9254</name></trkpt>
<trkpt lat="53.379256" lon="-1.774210"><ele>285</ele><time>2020-08-05T12:03:21Z</time><name>PT9255</name></trkpt>
<trkpt lat="53.379250" lon="-1.774235"><ele>285</ele><time>2020-08-05T12:03:22Z</time><name>PT9256</name></trkpt>
<trkpt lat="53.379244" lon="-1.774259"><ele>285</ele><time>2020-08-05T12:03:22Z</time><name>PT9257</name></trkpt>
<trkpt lat="53.379237" lon="-1.774279"><ele>285</ele><time>2020-08-05T12:03:24Z</time><name>PT9258</name></trkpt>
<trkpt lat="53.379228" lon="-1.774294"><ele>285</ele><time>2020-08-05T12:03:25Z</time><name>PT9259</name></trkpt>
<trkpt lat="53.379218" lon="-1.774307"><ele>285</ele><time>2020-08-05T12:03:26Z</time><name>PT9260</name></trkpt>
<trkpt lat="53.379211" lon="-1.774323"><ele>285</ele><time>2020-08-05T12:03:27Z</time><name>PT9261</name></trkpt>
<trkpt lat="53.379207" lon="-1.774341"><ele>284</ele><time>2020-08-05T12:03:28Z</time><name>PT9262</name></trkpt>
<trkpt lat="53.379198" lon="-1.774359"><ele>284</ele><time>2020-08-05T12:03:28Z</time><name>PT9263</name></trkpt>
<trkpt lat="53.379188" lon="-1.774375"><ele>284</ele><time>2020-08-05T12:03:30Z</time><name>PT9264</name></trkpt>
<trkpt lat="53.379181" lon="-1.774397"><ele>284</ele><time>2020-08-05T12:03:31Z</time><name>PT9265</name></trkpt>
<trkpt lat="53.379171" lon="-1.774417"><ele>284</ele><time>2020-08-05T12:03:32Z</time><name>PT9266</name></trkpt>
<trkpt lat="53.379163" lon="-1.774436"><ele>284</ele><time>2020-08-05T12:03:33Z</time><name>PT9267</name></trkpt>
<trkpt lat="53.379158" lon="-1.774449"><ele>283</ele><time>2020-08-05T12:03:34Z</time><name>PT9268</name></trkpt>
<trkpt lat="53.379152" lon="-1.774468"><ele>283</ele><time>2020-08-05T12:03:34Z</time><name>PT9269</name></trkpt>
<trkpt lat="53.379147" lon="-1.774486"><ele>283</ele><time>2020-08-05T12:03:36Z</time><name>PT9270</name></trkpt>
<trkpt lat="53.379141" lon="-1.774505"><ele>283</ele><time>2020-08-05T12:03:37Z</time><name>PT9271</name></trkpt>
<trkpt lat="53.379136" lon="-1.774526"><ele>283</ele><time>2020-08-05T12:03:37Z</time><name>PT9272</name></trkpt>
<trkpt lat="53.379130" lon="-1.774544"><ele>283</ele><time>2020-08-05T12:03:39Z</time><name>PT9273</name></trkpt>
<trkpt lat="53.379124" lon="-1.774564"><ele>283</ele><time>2020-08-05T12:03:40Z</time><name>PT9274</name></trkpt>
<trkpt lat="53.379118" lon="-1.774579"><ele>283</ele><time>2020-08-05T12:03:40Z</time><name>PT9275</name></trkpt>
<trkpt lat="53.379109" lon="-1.774599"><ele>283</ele><time>2020-08-05T12:03:42Z</time><name>PT9276</name></trkpt>
<trkpt lat="53.379104" lon="-1.774613"><ele>283</ele><time>2020-08-05T12:03:43Z</time><name>PT9277</name></trkpt>
<trkpt lat="53.379104" lon="-1.774617"><ele>282</ele><time>2020-08-05T12:03:43Z</time><name>PT9278</name></trkpt>
<trkpt lat="53.379098" lon="-1.774635"><ele>282</ele><time>2020-08-05T12:03:45Z</time><name>PT9279</name></trkpt>
<trkpt lat="53.379090" lon="-1.774655"><ele>282</ele><time>2020-08-05T12:03:46Z</time><name>PT9280</name></trkpt>
<trkpt lat="53.379083" lon="-1.774675"><ele>282</ele><time>2020-08-05T12:03:47Z</time><name>PT9281</name></trkpt>
<trkpt lat="53.379078" lon="-1.774697"><ele>282</ele><time>2020-08-05T12:03:48Z</time><name>PT9282</name></trkpt>
<trkpt lat="53.379073" lon="-1.774710"><ele>282</ele><time>2020-08-05T12:03:49Z</time><name>PT9283</name></trkpt>
<trkpt lat="53.379070" lon="-1.774724"><ele>281</ele><time>2020-08-05T12:03:49Z</time><name>PT9284</name></trkpt>
<trkpt lat="53.379063" lon="-1.774746"><ele>282</ele><time>2020-08-05T12:03:51Z</time><name>PT9285</name></trkpt>
<trkpt lat="53.379054" lon="-1.774773"><ele>282</ele><time>2020-08-05T12:03:52Z</time><name>PT9286</name></trkpt>
<trkpt lat="53.379055" lon="-1.774792"><ele>282</ele><time>2020-08-05T12:03:52Z</time><name>PT9287</name></trkpt>
<trkpt lat="53.379053" lon="-1.774813"><ele>282</ele><time>2020-08-05T12:03:54Z</time><name>PT9288</name></trkpt>
<trkpt lat="53.379049" lon="-1.774835"><ele>282</ele><time>2020-08-05T12:03:55Z</time><name>PT9289</name></trkpt>
<trkpt lat="53.379043" lon="-1.774854"><ele>281</ele><time>2020-08-05T12:03:55Z</time><name>PT9290</name></trkpt>
<trkpt lat="53.379034" lon="-1.774875"><ele>281</ele><time>2020-08-05T12:03:57Z</time><name>PT9291</name></trkpt>
<trkpt lat="53.379032" lon="-1.774897"><ele>281</ele><time>2020-08-05T12:03:58Z</time><name>PT9292</name></trkpt>
<trkpt lat="53.379031" lon="-1.774920"><ele>280</ele><time>2020-08-05T12:03:58Z</time><name>PT9293</name></trkpt>
<trkpt lat="53.379027" lon="-1.774945"><ele>281</ele><time>2020-08-05T12:04:00Z</time><name>PT9294</name></trkpt>
<trkpt lat="53.379025" lon="-1.774971"><ele>281</ele><time>2020-08-05T12:04:01Z</time><name>PT9295</name></trkpt>
<trkpt lat="53.379019" lon="-1.774986"><ele>282</ele><time>2020-08-05T12:04:01Z</time><name>PT9296</name></trkpt>
<trkpt lat="53.379011" lon="-1.775003"><ele>281</ele><time>2020-08-05T12:04:03Z</time><name>PT9297</name></trkpt>
<trkpt lat="53.379002" lon="-1.775019"><ele>281</ele><time>2020-08-05T12:04:04Z</time><name>PT9298</name></trkpt>
<trkpt lat="53.378991" lon="-1.775036"><ele>281</ele><time>2020-08-05T12:04:05Z</time><name>PT9299</name></trkpt>
<trkpt lat="53.378982" lon="-1.775056"><ele>281</ele><time>2020-08-05T12:04:06Z</time><name>PT9300</name></trkpt>
<trkpt lat="53.378973" lon="-1.775073"><ele>282</ele><time>2020-08-05T12:04:07Z</time><name>PT9301</name></trkpt>
<trkpt lat="53.378967" lon="-1.775086"><ele>281</ele><time>2020-08-05T12:04:08Z</time><name>PT9302</name></trkpt>
<trkpt lat="53.378958" lon="-1.775099"><ele>282</ele><time>2020-08-05T12:04:09Z</time><name>PT9303</name></trkpt>
<trkpt lat="53.378945" lon="-1.775113"><ele>281</ele><time>2020-08-05T12:04:10Z</time><name>PT9304</name></trkpt>
<trkpt lat="53.378934" lon="-1.775138"><ele>282</ele><time>2020-08-05T12:04:11Z</time><name>PT9305</name></trkpt>
<trkpt lat="53.378927" lon="-1.775159"><ele>282</ele><time>2020-08-05T12:04:12Z</time><name>PT9306</name></trkpt>
<trkpt lat="53.378918" lon="-1.775174"><ele>282</ele><time>2020-08-05T12:04:13Z</time><name>PT9307</name></trkpt>
<trkpt lat="53.378909" lon="-1.775190"><ele>282</ele><time>2020-08-05T12:04:14Z</time><name>PT9308</name></trkpt>
<trkpt lat="53.378902" lon="-1.775203"><ele>281</ele><time>2020-08-05T12:04:15Z</time><name>PT9309</name></trkpt>
<trkpt lat="53.378895" lon="-1.775220"><ele>281</ele><time>2020-08-05T12:04:16Z</time><name>PT9310</name></trkpt>
<trkpt lat="53.378885" lon="-1.775236"><ele>280</ele><time>2020-08-05T12:04:17Z</time><name>PT9311</name></trkpt>
<trkpt lat="53.378882" lon="-1.775248"><ele>281</ele><time>2020-08-05T12:04:18Z</time><name>PT9312</name></trkpt>
<trkpt lat="53.378876" lon="-1.775267"><ele>281</ele><time>2020-08-05T12:04:19Z</time><name>PT9313</name></trkpt>
<trkpt lat="53.378869" lon="-1.775285"><ele>281</ele><time>2020-08-05T12:04:20Z</time><name>PT9314</name></trkpt>
<trkpt lat="53.378863" lon="-1.775300"><ele>281</ele><time>2020-08-05T12:04:21Z</time><name>PT9315</name></trkpt>
<trkpt lat="53.378858" lon="-1.775318"><ele>280</ele><time>2020-08-05T12:04:22Z</time><name>PT9316</name></trkpt>
<trkpt lat="53.378853" lon="-1.775335"><ele>280</ele><time>2020-08-05T12:04:23Z</time><name>PT9317</name></trkpt>
<trkpt lat="53.378848" lon="-1.775350"><ele>280</ele><time>2020-08-05T12:04:24Z</time><name>PT9318</name></trkpt>
<trkpt lat="53.378846" lon="-1.775370"><ele>280</ele><time>2020-08-05T12:04:25Z</time><name>PT9319</name></trkpt>
<trkpt lat="53.378842" lon="-1.775395"><ele>279</ele><time>2020-08-05T12:04:26Z</time><name>PT9320</name></trkpt>
<trkpt lat="53.378836" lon="-1.775412"><ele>278</ele><time>2020-08-05T12:04:27Z</time><name>PT9321</name></trkpt>
<trkpt lat="53.378829" lon="-1.775426"><ele>278</ele><time>2020-08-05T12:04:28Z</time><name>PT9322</name></trkpt>
<trkpt lat="53.378823" lon="-1.775436"><ele>277</ele><time>2020-08-05T12:04:29Z</time><name>PT9323</name></trkpt>
<trkpt lat="53.378812" lon="-1.775455"><ele>277</ele><time>2020-08-05T12:04:30Z</time><name>PT9324</name></trkpt>
<trkpt lat="53.378802" lon="-1.775472"><ele>277</ele><time>2020-08-05T12:04:31Z</time><name>PT9325</name></trkpt>
<trkpt lat="53.378795" lon="-1.775491"><ele>278</ele><time>2020-08-05T12:04:32Z</time><name>PT9326</name></trkpt>
<trkpt lat="53.378787" lon="-1.775512"><ele>278</ele><time>2020-08-05T12:04:33Z</time><name>PT9327</name></trkpt>
<trkpt lat="53.378780" lon="-1.775530"><ele>278</ele><time>2020-08-05T12:04:34Z</time><name>PT9328</name></trkpt>
<trkpt lat="53.378773" lon="-1.775543"><ele>277</ele><time>2020-08-05T12:04:35Z</time><name>PT9329</name></trkpt>
<trkpt lat="53.378765" lon="-1.775559"><ele>277</ele><time>2020-08-05T12:04:36Z</time><name>PT9330</name></trkpt>
<trkpt lat="53.378757" lon="-1.775577"><ele>277</ele><time>2020-08-05T12:04:37Z</time><name>PT9331</name></trkpt>
<trkpt lat="53.378750" lon="-1.775593"><ele>277</ele><time>2020-08-05T12:04:37Z</time><name>PT9332</name></trkpt>
<trkpt lat="53.378746" lon="-1.775614"><ele>277</ele><time>2020-08-05T12:04:39Z</time><name>PT9333</name></trkpt>
<trkpt lat="53.378738" lon="-1.775639"><ele>277</ele><time>2020-08-05T12:04:40Z</time><name>PT9334</name></trkpt>
<trkpt lat="53.378733" lon="-1.775656"><ele>277</ele><time>2020-08-05T12:04:40Z</time><name>PT9335</name></trkpt>
<trkpt lat="53.378726" lon="-1.775672"><ele>276</ele><time>2020-08-05T12:04:42Z</time><name>PT9336</name></trkpt>
<trkpt lat="53.378715" lon="-1.775691"><ele>277</ele><time>2020-08-05T12:04:43Z</time><name>PT9337</name></trkpt>
<trkpt lat="53.378705" lon="-1.775709"><ele>277</ele><time>2020-08-05T12:04:43Z</time><name>PT9338</name></trkpt>
<trkpt lat="53.378697" lon="-1.775734"><ele>277</ele><time>2020-08-05T12:04:45Z</time><name>PT9339</name></trkpt>
<trkpt lat="53.378690" lon="-1.775759"><ele>277</ele><time>2020-08-05T12:04:46Z</time><name>PT9340</name></trkpt>
<trkpt lat="53.378684" lon="-1.775784"><ele>277</ele><time>2020-08-05T12:04:46Z</time><name>PT9341</name></trkpt>
<trkpt lat="53.378674" lon="-1.775807"><ele>277</ele><time>2020-08-05T12:04:48Z</time><name>PT9342</name></trkpt>
<trkpt lat="53.378666" lon="-1.775828"><ele>278</ele><time>2020-08-05T12:04:49Z</time><name>PT9343</name></trkpt>
<trkpt lat="53.378660" lon="-1.775840"><ele>278</ele><time>2020-08-05T12:04:49Z</time><name>PT9344</name></trkpt>
<trkpt lat="53.378652" lon="-1.775857"><ele>278</ele><time>2020-08-05T12:04:51Z</time><name>PT9345</name></trkpt>
<trkpt lat="53.378646" lon="-1.775877"><ele>277</ele><time>2020-08-05T12:04:52Z</time><name>PT9346</name></trkpt>
<trkpt lat="53.378640" lon="-1.775898"><ele>277</ele><time>2020-08-05T12:04:52Z</time><name>PT9347</name></trkpt>
<trkpt lat="53.378633" lon="-1.775917"><ele>277</ele><time>2020-08-05T12:04:54Z</time><name>PT9348</name></trkpt>
<trkpt lat="53.378627" lon="-1.775938"><ele>278</ele><time>2020-08-05T12:04:55Z</time><name>PT9349</name></trkpt>
<trkpt lat="53.378622" lon="-1.775962"><ele>278</ele><time>2020-08-05T12:04:55Z</time><name>PT9350</name></trkpt>
<trkpt lat="53.378618" lon="-1.775984"><ele>278</ele><time>2020-08-05T12:04:57Z</time><name>PT9351</name></trkpt>
<trkpt lat="53.378614" lon="-1.776001"><ele>278</ele><time>2020-08-05T12:04:58Z</time><name>PT9352</name></trkpt>
<trkpt lat="53.378611" lon="-1.776016"><ele>277</ele><time>2020-08-05T12:04:58Z</time><name>PT9353</name></trkpt>
<trkpt lat="53.378606" lon="-1.776033"><ele>277</ele><time>2020-08-05T12:05:00Z</time><name>PT9354</name></trkpt>
<trkpt lat="53.378601" lon="-1.776055"><ele>277</ele><time>2020-08-05T12:05:01Z</time><name>PT9355</name></trkpt>
<trkpt lat="53.378594" lon="-1.776078"><ele>277</ele><time>2020-08-05T12:05:01Z</time><name>PT9356</name></trkpt>
<trkpt lat="53.378590" lon="-1.776100"><ele>277</ele><time>2020-08-05T12:05:03Z</time><name>PT9357</name></trkpt>
<trkpt lat="53.378585" lon="-1.776116"><ele>277</ele><time>2020-08-05T12:05:04Z</time><name>PT9358</name></trkpt>
<trkpt lat="53.378579" lon="-1.776131"><ele>276</ele><time>2020-08-05T12:05:05Z</time><name>PT9359</name></trkpt>
<trkpt lat="53.378569" lon="-1.776150"><ele>276</ele><time>2020-08-05T12:05:06Z</time><name>PT9360</name></trkpt>
<trkpt lat="53.378563" lon="-1.776166"><ele>276</ele><time>2020-08-05T12:05:07Z</time><name>PT9361</name></trkpt>
<trkpt lat="53.378559" lon="-1.776184"><ele>276</ele><time>2020-08-05T12:05:07Z</time><name>PT9362</name></trkpt>
<trkpt lat="53.378559" lon="-1.776205"><ele>276</ele><time>2020-08-05T12:05:09Z</time><name>PT9363</name></trkpt>
<trkpt lat="53.378554" lon="-1.776224"><ele>276</ele><time>2020-08-05T12:05:10Z</time><name>PT9364</name></trkpt>
<trkpt lat="53.378551" lon="-1.776239"><ele>276</ele><time>2020-08-05T12:05:11Z</time><name>PT9365</name></trkpt>
<trkpt lat="53.378547" lon="-1.776255"><ele>276</ele><time>2020-08-05T12:05:12Z</time><name>PT9366</name></trkpt>
<trkpt lat="53.378543" lon="-1.776277"><ele>276</ele><time>2020-08-05T12:05:13Z</time><name>PT9367</name></trkpt>
<trkpt lat="53.378541" lon="-1.776299"><ele>275</ele><time>2020-08-05T12:05:14Z</time><name>PT9368</name></trkpt>
<trkpt lat="53.378542" lon="-1.776318"><ele>275</ele><time>2020-08-05T12:05:15Z</time><name>PT9369</name></trkpt>
<trkpt lat="53.378538" lon="-1.776342"><ele>276</ele><time>2020-08-05T12:05:16Z</time><name>PT9370</name></trkpt>
<trkpt lat="53.378536" lon="-1.776362"><ele>275</ele><time>2020-08-05T12:05:17Z</time><name>PT9371</name></trkpt>
<trkpt lat="53.378526" lon="-1.776384"><ele>275</ele><time>2020-08-05T12:05:18Z</time><name>PT9372</name></trkpt>
<trkpt lat="53.378521" lon="-1.776400"><ele>275</ele><time>2020-08-05T12:05:19Z</time><name>PT9373</name></trkpt>
<trkpt lat="53.378518" lon="-1.776420"><ele>274</ele><time>2020-08-05T12:05:20Z</time><name>PT9374</name></trkpt>
<trkpt lat="53.378512" lon="-1.776441"><ele>273</ele><time>2020-08-05T12:05:21Z</time><name>PT9375</name></trkpt>
<trkpt lat="53.378508" lon="-1.776463"><ele>273</ele><time>2020-08-05T12:05:22Z</time><name>PT9376</name></trkpt>
<trkpt lat="53.378506" lon="-1.776477"><ele>273</ele><time>2020-08-05T12:05:23Z</time><name>PT9377</name></trkpt>
<trkpt lat="53.378508" lon="-1.776488"><ele>272</ele><time>2020-08-05T12:05:24Z</time><name>PT9378</name></trkpt>
<trkpt lat="53.378505" lon="-1.776509"><ele>273</ele><time>2020-08-05T12:05:25Z</time><name>PT9379</name></trkpt>
<trkpt lat="53.378502" lon="-1.776528"><ele>273</ele><time>2020-08-05T12:05:26Z</time><name>PT9380</name></trkpt>
<trkpt lat="53.378498" lon="-1.776547"><ele>273</ele><time>2020-08-05T12:05:27Z</time><name>PT9381</name></trkpt>
<trkpt lat="53.378494" lon="-1.776568"><ele>273</ele><time>2020-08-05T12:05:28Z</time><name>PT9382</name></trkpt>
<trkpt lat="53.378494" lon="-1.776586"><ele>272</ele><time>2020-08-05T12:05:29Z</time><name>PT9383</name></trkpt>
<trkpt lat="53.378489" lon="-1.776605"><ele>272</ele><time>2020-08-05T12:05:30Z</time><name>PT9384</name></trkpt>
<trkpt lat="53.378480" lon="-1.776622"><ele>273</ele><time>2020-08-05T12:05:31Z</time><name>PT9385</name></trkpt>
<trkpt lat="53.378475" lon="-1.776640"><ele>273</ele><time>2020-08-05T12:05:32Z</time><name>PT9386</name></trkpt>
<trkpt lat="53.378474" lon="-1.776658"><ele>273</ele><time>2020-08-05T12:05:33Z</time><name>PT9387</name></trkpt>
<trkpt lat="53.378470" lon="-1.776680"><ele>273</ele><time>2020-08-05T12:05:34Z</time><name>PT9388</name></trkpt>
<trkpt lat="53.378467" lon="-1.776701"><ele>272</ele><time>2020-08-05T12:05:34Z</time><name>PT9389</name></trkpt>
<trkpt lat="53.378465" lon="-1.776721"><ele>272</ele><time>2020-08-05T12:05:36Z</time><name>PT9390</name></trkpt>
<trkpt lat="53.378460" lon="-1.776740"><ele>272</ele><time>2020-08-05T12:05:37Z</time><name>PT9391</name></trkpt>
<trkpt lat="53.378455" lon="-1.776754"><ele>271</ele><time>2020-08-05T12:05:38Z</time><name>PT9392</name></trkpt>
<trkpt lat="53.378449" lon="-1.776772"><ele>271</ele><time>2020-08-05T12:05:39Z</time><name>PT9393</name></trkpt>
<trkpt lat="53.378444" lon="-1.776792"><ele>270</ele><time>2020-08-05T12:05:40Z</time><name>PT9394</name></trkpt>
<trkpt lat="53.378440" lon="-1.776812"><ele>270</ele><time>2020-08-05T12:05:40Z</time><name>PT9395</name></trkpt>
<trkpt lat="53.378433" lon="-1.776835"><ele>270</ele><time>2020-08-05T12:05:42Z</time><name>PT9396</name></trkpt>
<trkpt lat="53.378426" lon="-1.776858"><ele>270</ele><time>2020-08-05T12:05:43Z</time><name>PT9397</name></trkpt>
<trkpt lat="53.378420" lon="-1.776874"><ele>270</ele><time>2020-08-05T12:05:43Z</time><name>PT9398</name></trkpt>
<trkpt lat="53.378413" lon="-1.776888"><ele>270</ele><time>2020-08-05T12:05:45Z</time><name>PT9399</name></trkpt>
<trkpt lat="53.378414" lon="-1.776907"><ele>268</ele><time>2020-08-05T12:05:46Z</time><name>PT9400</name></trkpt>
<trkpt lat="53.378411" lon="-1.776927"><ele>268</ele><time>2020-08-05T12:05:46Z</time><name>PT9401</name></trkpt>
<trkpt lat="53.378410" lon="-1.776943"><ele>268</ele><time>2020-08-05T12:05:48Z</time><name>PT9402</name></trkpt>
<trkpt lat="53.378400" lon="-1.776962"><ele>268</ele><time>2020-08-05T12:05:49Z</time><name>PT9403</name></trkpt>
<trkpt lat="53.378393" lon="-1.776982"><ele>268</ele><time>2020-08-05T12:05:49Z</time><name>PT9404</name></trkpt>
<trkpt lat="53.378388" lon="-1.776995"><ele>267</ele><time>2020-08-05T12:05:51Z</time><name>PT9405</name></trkpt>
<trkpt lat="53.378377" lon="-1.777011"><ele>267</ele><time>2020-08-05T12:05:52Z</time><name>PT9406</name></trkpt>
<trkpt lat="53.378368" lon="-1.777029"><ele>266</ele><time>2020-08-05T12:05:52Z</time><name>PT9407</name></trkpt>
<trkpt lat="53.378359" lon="-1.777054"><ele>267</ele><time>2020-08-05T12:05:54Z</time><name>PT9408</name></trkpt>
<trkpt lat="53.378350" lon="-1.777078"><ele>267</ele><time>2020-08-05T12:05:55Z</time><name>PT9409</name></trkpt>
<trkpt lat="53.378341" lon="-1.777098"><ele>267</ele><time>2020-08-05T12:05:55Z</time><name>PT9410</name></trkpt>
<trkpt lat="53.378335" lon="-1.777108"><ele>266</ele><time>2020-08-05T12:05:57Z</time><name>PT9411</name></trkpt>
<trkpt lat="53.378327" lon="-1.777125"><ele>267</ele><time>2020-08-05T12:05:58Z</time><name>PT9412</name></trkpt>
<trkpt lat="53.378313" lon="-1.777151"><ele>268</ele><time>2020-08-05T12:05:58Z</time><name>PT9413</name></trkpt>
<trkpt lat="53.378306" lon="-1.777167"><ele>268</ele><time>2020-08-05T12:06:00Z</time><name>PT9414</name></trkpt>
<trkpt lat="53.378298" lon="-1.777187"><ele>269</ele><time>2020-08-05T12:06:01Z</time><name>PT9415</name></trkpt>
<trkpt lat="53.378290" lon="-1.777208"><ele>269</ele><time>2020-08-05T12:06:01Z</time><name>PT9416</name></trkpt>
<trkpt lat="53.378283" lon="-1.777226"><ele>269</ele><time>2020-08-05T12:06:03Z</time><name>PT9417</name></trkpt>
<trkpt lat="53.378274" lon="-1.777239"><ele>268</ele><time>2020-08-05T12:06:04Z</time><name>PT9418</name></trkpt>
<trkpt lat="53.378261" lon="-1.777251"><ele>269</ele><time>2020-08-05T12:06:04Z</time><name>PT9419</name></trkpt>
<trkpt lat="53.378252" lon="-1.777266"><ele>269</ele><time>2020-08-05T12:06:06Z</time><name>PT9420</name></trkpt>
<trkpt lat="53.378246" lon="-1.777284"><ele>268</ele><time>2020-08-05T12:06:07Z</time><name>PT9421</name></trkpt>
<trkpt lat="53.378238" lon="-1.777298"><ele>269</ele><time>2020-08-05T12:06:07Z</time><name>PT9422</name></trkpt>
<trkpt lat="53.378230" lon="-1.777318"><ele>269</ele><time>2020-08-05T12:06:09Z</time><name>PT9423</name></trkpt>
<trkpt lat="53.378220" lon="-1.777336"><ele>268</ele><time>2020-08-05T12:06:10Z</time><name>PT9424</name></trkpt>
<trkpt lat="53.378213" lon="-1.777352"><ele>268</ele><time>2020-08-05T12:06:10Z</time><name>PT9425</name></trkpt>
<trkpt lat="53.378206" lon="-1.777367"><ele>268</ele><time>2020-08-05T12:06:12Z</time><name>PT9426</name></trkpt>
<trkpt lat="53.378200" lon="-1.777381"><ele>268</ele><time>2020-08-05T12:06:13Z</time><name>PT9427</name></trkpt>
<trkpt lat="53.378192" lon="-1.777391"><ele>268</ele><time>2020-08-05T12:06:13Z</time><name>PT9428</name></trkpt>
<trkpt lat="53.378183" lon="-1.777404"><ele>268</ele><time>2020-08-05T12:06:15Z</time><name>PT9429</name></trkpt>
<trkpt lat="53.378175" lon="-1.777422"><ele>268</ele><time>2020-08-05T12:06:16Z</time><name>PT9430</name></trkpt>
<trkpt lat="53.378171" lon="-1.777442"><ele>266</ele><time>2020-08-05T12:06:16Z</time><name>PT9431</name></trkpt>
<trkpt lat="53.378161" lon="-1.777462"><ele>266</ele><time>2020-08-05T12:06:18Z</time><name>PT9432</name></trkpt>
<trkpt lat="53.378149" lon="-1.777487"><ele>266</ele><time>2020-08-05T12:06:19Z</time><name>PT9433</name></trkpt>
<trkpt lat="53.378139" lon="-1.777504"><ele>266</ele><time>2020-08-05T12:06:19Z</time><name>PT9434</name></trkpt>
<trkpt lat="53.378130" lon="-1.777518"><ele>266</ele><time>2020-08-05T12:06:21Z</time><name>PT9435</name></trkpt>
<trkpt lat="53.378123" lon="-1.777542"><ele>266</ele><time>2020-08-05T12:06:22Z</time><name>PT9436</name></trkpt>
<trkpt lat="53.378108" lon="-1.777572"><ele>267</ele><time>2020-08-05T12:06:22Z</time><name>PT9437</name></trkpt>
<trkpt lat="53.378101" lon="-1.777584"><ele>267</ele><time>2020-08-05T12:06:24Z</time><name>PT9438</name></trkpt>
<trkpt lat="53.378087" lon="-1.777599"><ele>268</ele><time>2020-08-05T12:06:25Z</time><name>PT9439</name></trkpt>
<trkpt lat="53.378074" lon="-1.777614"><ele>269</ele><time>2020-08-05T12:06:25Z</time><name>PT9440</name></trkpt>
<trkpt lat="53.378065" lon="-1.777628"><ele>269</ele><time>2020-08-05T12:06:27Z</time><name>PT9441</name></trkpt>
<trkpt lat="53.378057" lon="-1.777645"><ele>269</ele><time>2020-08-05T12:06:28Z</time><name>PT9442</name></trkpt>
<trkpt lat="53.378051" lon="-1.777662"><ele>269</ele><time>2020-08-05T12:06:28Z</time><name>PT9443</name></trkpt>
<trkpt lat="53.378044" lon="-1.777677"><ele>268</ele><time>2020-08-05T12:06:30Z</time><name>PT9444</name></trkpt>
<trkpt lat="53.378038" lon="-1.777696"><ele>268</ele><time>2020-08-05T12:06:31Z</time><name>PT9445</name></trkpt>
<trkpt lat="53.378030" lon="-1.777709"><ele>268</ele><time>2020-08-05T12:06:31Z</time><name>PT9446</name></trkpt>
<trkpt lat="53.378023" lon="-1.777723"><ele>268</ele><time>2020-08-05T12:06:33Z</time><name>PT9447</name></trkpt>
<trkpt lat="53.378017" lon="-1.777741"><ele>268</ele><time>2020-08-05T12:06:34Z</time><name>PT9448</name></trkpt>
<trkpt lat="53.378009" lon="-1.777759"><ele>268</ele><time>2020-08-05T12:06:35Z</time><name>PT9449</name></trkpt>
<trkpt lat="53.378000" lon="-1.777775"><ele>268</ele><time>2020-08-05T12:06:36Z</time><name>PT9450</name></trkpt>
<trkpt lat="53.377993" lon="-1.777795"><ele>268</ele><time>2020-08-05T12:06:37Z</time><name>PT9451</name></trkpt>
<trkpt lat="53.377987" lon="-1.777816"><ele>268</ele><time>2020-08-05T12:06:37Z</time><name>PT9452</name></trkpt>
<trkpt lat="53.377989" lon="-1.777837"><ele>267</ele><time>2020-08-05T12:06:39Z</time><name>PT9453</name></trkpt>
<trkpt lat="53.377990" lon="-1.777855"><ele>266</ele><time>2020-08-05T12:06:40Z</time><name>PT9454</name></trkpt>
<trkpt lat="53.377987" lon="-1.777868"><ele>264</ele><time>2020-08-05T12:06:41Z</time><name>PT9455</name></trkpt>
<trkpt lat="53.377983" lon="-1.777881"><ele>263</ele><time>2020-08-05T12:06:42Z</time><name>PT9456</name></trkpt>
<trkpt lat="53.377979" lon="-1.777896"><ele>262</ele><time>2020-08-05T12:06:43Z</time><name>PT9457</name></trkpt>
<trkpt lat="53.377975" lon="-1.777910"><ele>262</ele><time>2020-08-05T12:06:44Z</time><name>PT9458</name></trkpt>
<trkpt lat="53.377971" lon="-1.777928"><ele>262</ele><time>2020-08-05T12:06:45Z</time><name>PT9459</name></trkpt>
<trkpt lat="53.377969" lon="-1.777946"><ele>261</ele><time>2020-08-05T12:06:46Z</time><name>PT9460</name></trkpt>
<trkpt lat="53.377964" lon="-1.777962"><ele>260</ele><time>2020-08-05T12:06:46Z</time><name>PT9461</name></trkpt>
<trkpt lat="53.377959" lon="-1.777984"><ele>260</ele><time>2020-08-05T12:06:48Z</time><name>PT9462</name></trkpt>
<trkpt lat="53.377958" lon="-1.778004"><ele>260</ele><time>2020-08-05T12:06:49Z</time><name>PT9463</name></trkpt>
<trkpt lat="53.377953" lon="-1.778020"><ele>260</ele><time>2020-08-05T12:06:50Z</time><name>PT9464</name></trkpt>
<trkpt lat="53.377949" lon="-1.778031"><ele>259</ele><time>2020-08-05T12:06:51Z</time><name>PT9465</name></trkpt>
<trkpt lat="53.377945" lon="-1.778040"><ele>259</ele><time>2020-08-05T12:06:52Z</time><name>PT9466</name></trkpt>
<trkpt lat="53.377943" lon="-1.778044"><ele>259</ele><time>2020-08-05T12:06:53Z</time><name>PT9467</name></trkpt>
<trkpt lat="53.377942" lon="-1.778046"><ele>260</ele><time>2020-08-05T12:06:54Z</time><name>PT9468</name></trkpt>
<trkpt lat="53.377941" lon="-1.778053"><ele>259</ele><time>2020-08-05T12:06:55Z</time><name>PT9469</name></trkpt>
<trkpt lat="53.377938" lon="-1.778064"><ele>259</ele><time>2020-08-05T12:06:55Z</time><name>PT9470</name></trkpt>
<trkpt lat="53.377938" lon="-1.778065"><ele>259</ele><time>2020-08-05T12:06:57Z</time><name>PT9471</name></trkpt>
<trkpt lat="53.377937" lon="-1.778069"><ele>260</ele><time>2020-08-05T12:06:58Z</time><name>PT9472</name></trkpt>
<trkpt lat="53.377931" lon="-1.778071"><ele>261</ele><time>2020-08-05T12:06:58Z</time><name>PT9473</name></trkpt>
<trkpt lat="53.377922" lon="-1.778071"><ele>262</ele><time>2020-08-05T12:07:00Z</time><name>PT9474</name></trkpt>
<trkpt lat="53.377924" lon="-1.778080"><ele>262</ele><time>2020-08-05T12:07:01Z</time><name>PT9475</name></trkpt>
<trkpt lat="53.377924" lon="-1.778091"><ele>262</ele><time>2020-08-05T12:07:01Z</time><name>PT9476</name></trkpt>
<trkpt lat="53.377923" lon="-1.778109"><ele>262</ele><time>2020-08-05T12:07:03Z</time><name>PT9477</name></trkpt>
<trkpt lat="53.377917" lon="-1.778130"><ele>261</ele><time>2020-08-05T12:07:04Z</time><name>PT9478</name></trkpt>
<trkpt lat="53.377911" lon="-1.778148"><ele>261</ele><time>2020-08-05T12:07:04Z</time><name>PT9479</name></trkpt>
<trkpt lat="53.377899" lon="-1.778162"><ele>260</ele><time>2020-08-05T12:07:06Z</time><name>PT9480</name></trkpt>
<trkpt lat="53.377887" lon="-1.778179"><ele>260</ele><time>2020-08-05T12:07:07Z</time><name>PT9481</name></trkpt>
<trkpt lat="53.377877" lon="-1.778192"><ele>260</ele><time>2020-08-05T12:07:07Z</time><name>PT9482</name></trkpt>
<trkpt lat="53.377867" lon="-1.778204"><ele>260</ele><time>2020-08-05T12:07:09Z</time><name>PT9483</name></trkpt>
<trkpt lat="53.377856" lon="-1.778221"><ele>260</ele><time>2020-08-05T12:07:10Z</time><name>PT9484</name></trkpt>
<trkpt lat="53.377846" lon="-1.778234"><ele>259</ele><time>2020-08-05T12:07:10Z</time><name>PT9485</name></trkpt>
<trkpt lat="53.377835" lon="-1.778253"><ele>260</ele><time>2020-08-05T12:07:12Z</time><name>PT9486</name></trkpt>
<trkpt lat="53.377824" lon="-1.778270"><ele>260</ele><time>2020-08-05T12:07:13Z</time><name>PT9487</name></trkpt>
<trkpt lat="53.377812" lon="-1.778289"><ele>260</ele><time>2020-08-05T12:07:13Z</time><name>PT9488</name></trkpt>
<trkpt lat="53.377800" lon="-1.778304"><ele>261</ele><time>2020-08-05T12:07:15Z</time><name>PT9489</name></trkpt>
<trkpt lat="53.377788" lon="-1.778313"><ele>262</ele><time>2020-08-05T12:07:16Z</time><name>PT9490</name></trkpt>
<trkpt lat="53.377778" lon="-1.778318"><ele>261</ele><time>2020-08-05T12:07:16Z</time><name>PT9491</name></trkpt>
<trkpt lat="53.377767" lon="-1.778330"><ele>262</ele><time>2020-08-05T12:07:18Z</time><name>PT9492</name></trkpt>
<trkpt lat="53.377759" lon="-1.778340"><ele>262</ele><time>2020-08-05T12:07:19Z</time><name>PT9493</name></trkpt>
<trkpt lat="53.377752" lon="-1.778352"><ele>261</ele><time>2020-08-05T12:07:19Z</time><name>PT9494</name></trkpt>
<trkpt lat="53.377744" lon="-1.778368"><ele>261</ele><time>2020-08-05T12:07:21Z</time><name>PT9495</name></trkpt>
<trkpt lat="53.377730" lon="-1.778383"><ele>262</ele><time>2020-08-05T12:07:22Z</time><name>PT9496</name></trkpt>
<trkpt lat="53.377718" lon="-1.778395"><ele>262</ele><time>2020-08-05T12:07:22Z</time><name>PT9497</name></trkpt>
<trkpt lat="53.377708" lon="-1.778407"><ele>262</ele><time>2020-08-05T12:07:24Z</time><name>PT9498</name></trkpt>
<trkpt lat="53.377697" lon="-1.778412"><ele>262</ele><time>2020-08-05T12:07:25Z</time><name>PT9499</name></trkpt>
<trkpt lat="53.377688" lon="-1.778416"><ele>262</ele><time>2020-08-05T12:07:25Z</time><name>PT9500</name></trkpt>
<trkpt lat="53.377675" lon="-1.778424"><ele>263</ele><time>2020-08-05T12:07:27Z</time><name>PT9501</name></trkpt>
<trkpt lat="53.377663" lon="-1.778434"><ele>263</ele><time>2020-08-05T12:07:28Z</time><name>PT9502</name></trkpt>
<trkpt lat="53.377651" lon="-1.778447"><ele>263</ele><time>2020-08-05T12:07:28Z</time><name>PT9503</name></trkpt>
<trkpt lat="53.377640" lon="-1.778466"><ele>263</ele><time>2020-08-05T12:07:30Z</time><name>PT9504</name></trkpt>
<trkpt lat="53.377628" lon="-1.778478"><ele>263</ele><time>2020-08-05T12:07:31Z</time><name>PT9505</name></trkpt>
<trkpt lat="53.377615" lon="-1.778485"><ele>263</ele><time>2020-08-05T12:07:31Z</time><name>PT9506</name></trkpt>
<trkpt lat="53.377603" lon="-1.778492"><ele>262</ele><time>2020-08-05T12:07:33Z</time><name>PT9507</name></trkpt>
<trkpt lat="53.377593" lon="-1.778498"><ele>262</ele><time>2020-08-05T12:07:34Z</time><name>PT9508</name></trkpt>
<trkpt lat="53.377582" lon="-1.778509"><ele>261</ele><time>2020-08-05T12:07:34Z</time><name>PT9509</name></trkpt>
<trkpt lat="53.377573" lon="-1.778521"><ele>261</ele><time>2020-08-05T12:07:36Z</time><name>PT9510</name></trkpt>
<trkpt lat="53.377563" lon="-1.778537"><ele>261</ele><time>2020-08-05T12:07:37Z</time><name>PT9511</name></trkpt>
<trkpt lat="53.377550" lon="-1.778551"><ele>261</ele><time>2020-08-05T12:07:37Z</time><name>PT9512</name></trkpt>
<trkpt lat="53.377538" lon="-1.778562"><ele>262</ele><time>2020-08-05T12:07:39Z</time><name>PT9513</name></trkpt>
<trkpt lat="53.377523" lon="-1.778578"><ele>263</ele><time>2020-08-05T12:07:40Z</time><name>PT9514</name></trkpt>
<trkpt lat="53.377507" lon="-1.778595"><ele>263</ele><time>2020-08-05T12:07:40Z</time><name>PT9515</name></trkpt>
<trkpt lat="53.377494" lon="-1.778605"><ele>263</ele><time>2020-08-05T12:07:42Z</time><name>PT9516</name></trkpt>
<trkpt lat="53.377483" lon="-1.778617"><ele>264</ele><time>2020-08-05T12:07:43Z</time><name>PT9517</name></trkpt>
<trkpt lat="53.377469" lon="-1.778632"><ele>264</ele><time>2020-08-05T12:07:43Z</time><name>PT9518</name></trkpt>
<trkpt lat="53.377457" lon="-1.778649"><ele>264</ele><time>2020-08-05T12:07:45Z</time><name>PT9519</name></trkpt>
<trkpt lat="53.377448" lon="-1.778664"><ele>264</ele><time>2020-08-05T12:07:46Z</time><name>PT9520</name></trkpt>
<trkpt lat="53.377438" lon="-1.778678"><ele>265</ele><time>2020-08-05T12:07:47Z</time><name>PT9521</name></trkpt>
<trkpt lat="53.377428" lon="-1.778693"><ele>265</ele><time>2020-08-05T12:07:48Z</time><name>PT9522</name></trkpt>
<trkpt lat="53.377420" lon="-1.778707"><ele>264</ele><time>2020-08-05T12:07:49Z</time><name>PT9523</name></trkpt>
<trkpt lat="53.377409" lon="-1.778714"><ele>264</ele><time>2020-08-05T12:07:49Z</time><name>PT9524</name></trkpt>
<trkpt lat="53.377396" lon="-1.778726"><ele>264</ele><time>2020-08-05T12:07:51Z</time><name>PT9525</name></trkpt>
<trkpt lat="53.377387" lon="-1.778739"><ele>264</ele><time>2020-08-05T12:07:52Z</time><name>PT9526</name></trkpt>
<trkpt lat="53.377379" lon="-1.778747"><ele>263</ele><time>2020-08-05T12:07:53Z</time><name>PT9527</name></trkpt>
<trkpt lat="53.377365" lon="-1.778762"><ele>263</ele><time>2020-08-05T12:07:54Z</time><name>PT9528</name></trkpt>
<trkpt lat="53.377353" lon="-1.778773"><ele>263</ele><time>2020-08-05T12:07:55Z</time><name>PT9529</name></trkpt>
<trkpt lat="53.377344" lon="-1.778778"><ele>262</ele><time>2020-08-05T12:07:55Z</time><name>PT9530</name></trkpt>
<trkpt lat="53.377334" lon="-1.778791"><ele>262</ele><time>2020-08-05T12:07:57Z</time><name>PT9531</name></trkpt>
<trkpt lat="53.377326" lon="-1.778805"><ele>262</ele><time>2020-08-05T12:07:58Z</time><name>PT9532</name></trkpt>
<trkpt lat="53.377318" lon="-1.778813"><ele>262</ele><time>2020-08-05T12:07:59Z</time><name>PT9533</name></trkpt>
<trkpt lat="53.377310" lon="-1.778826"><ele>261</ele><time>2020-08-05T12:08:00Z</time><name>PT9534</name></trkpt>
<trkpt lat="53.377300" lon="-1.778835"><ele>261</ele><time>2020-08-05T12:08:01Z</time><name>PT9535</name></trkpt>
<trkpt lat="53.377288" lon="-1.778852"><ele>262</ele><time>2020-08-05T12:08:02Z</time><name>PT9536</name></trkpt>
<trkpt lat="53.377278" lon="-1.778868"><ele>261</ele><time>2020-08-05T12:08:03Z</time><name>PT9537</name></trkpt>
<trkpt lat="53.377267" lon="-1.778882"><ele>262</ele><time>2020-08-05T12:08:04Z</time><name>PT9538</name></trkpt>
<trkpt lat="53.377254" lon="-1.778896"><ele>262</ele><time>2020-08-05T12:08:05Z</time><name>PT9539</name></trkpt>
<trkpt lat="53.377242" lon="-1.778911"><ele>262</ele><time>2020-08-05T12:08:06Z</time><name>PT9540</name></trkpt>
<trkpt lat="53.377231" lon="-1.778923"><ele>262</ele><time>2020-08-05T12:08:07Z</time><name>PT9541</name></trkpt>
<trkpt lat="53.377219" lon="-1.778933"><ele>262</ele><time>2020-08-05T12:08:08Z</time><name>PT9542</name></trkpt>
<trkpt lat="53.377204" lon="-1.778947"><ele>262</ele><time>2020-08-05T12:08:09Z</time><name>PT9543</name></trkpt>
<trkpt lat="53.377192" lon="-1.778959"><ele>261</ele><time>2020-08-05T12:08:10Z</time><name>PT9544</name></trkpt>
<trkpt lat="53.377181" lon="-1.778974"><ele>262</ele><time>2020-08-05T12:08:11Z</time><name>PT9545</name></trkpt>
<trkpt lat="53.377173" lon="-1.778989"><ele>262</ele><time>2020-08-05T12:08:12Z</time><name>PT9546</name></trkpt>
<trkpt lat="53.377160" lon="-1.779003"><ele>262</ele><time>2020-08-05T12:08:13Z</time><name>PT9547</name></trkpt>
<trkpt lat="53.377147" lon="-1.779018"><ele>262</ele><time>2020-08-05T12:08:14Z</time><name>PT9548</name></trkpt>
<trkpt lat="53.377136" lon="-1.779027"><ele>262</ele><time>2020-08-05T12:08:15Z</time><name>PT9549</name></trkpt>
<trkpt lat="53.377125" lon="-1.779035"><ele>262</ele><time>2020-08-05T12:08:16Z</time><name>PT9550</name></trkpt>
<trkpt lat="53.377115" lon="-1.779046"><ele>262</ele><time>2020-08-05T12:08:17Z</time><name>PT9551</name></trkpt>
<trkpt lat="53.377102" lon="-1.779060"><ele>262</ele><time>2020-08-05T12:08:18Z</time><name>PT9552</name></trkpt>
<trkpt lat="53.377093" lon="-1.779070"><ele>261</ele><time>2020-08-05T12:08:19Z</time><name>PT9553</name></trkpt>
<trkpt lat="53.377082" lon="-1.779087"><ele>262</ele><time>2020-08-05T12:08:19Z</time><name>PT9554</name></trkpt>
<trkpt lat="53.377073" lon="-1.779103"><ele>262</ele><time>2020-08-05T12:08:21Z</time><name>PT9555</name></trkpt>
<trkpt lat="53.377065" lon="-1.779116"><ele>261</ele><time>2020-08-05T12:08:22Z</time><name>PT9556</name></trkpt>
<trkpt lat="53.377055" lon="-1.779130"><ele>260</ele><time>2020-08-05T12:08:22Z</time><name>PT9557</name></trkpt>
<trkpt lat="53.377044" lon="-1.779144"><ele>261</ele><time>2020-08-05T12:08:24Z</time><name>PT9558</name></trkpt>
<trkpt lat="53.377031" lon="-1.779160"><ele>261</ele><time>2020-08-05T12:08:25Z</time><name>PT9559</name></trkpt>
<trkpt lat="53.377023" lon="-1.779172"><ele>261</ele><time>2020-08-05T12:08:25Z</time><name>PT9560</name></trkpt>
<trkpt lat="53.377014" lon="-1.779189"><ele>261</ele><time>2020-08-05T12:08:27Z</time><name>PT9561</name></trkpt>
<trkpt lat="53.377003" lon="-1.779205"><ele>261</ele><time>2020-08-05T12:08:28Z</time><name>PT9562</name></trkpt>
<trkpt lat="53.376993" lon="-1.779221"><ele>260</ele><time>2020-08-05T12:08:28Z</time><name>PT9563</name></trkpt>
<trkpt lat="53.376983" lon="-1.779235"><ele>260</ele><time>2020-08-05T12:08:30Z</time><name>PT9564</name></trkpt>
<trkpt lat="53.376972" lon="-1.779253"><ele>260</ele><time>2020-08-05T12:08:31Z</time><name>PT9565</name></trkpt>
<trkpt lat="53.376960" lon="-1.779271"><ele>261</ele><time>2020-08-05T12:08:31Z</time><name>PT9566</name></trkpt>
<trkpt lat="53.376949" lon="-1.779284"><ele>261</ele><time>2020-08-05T12:08:33Z</time><name>PT9567</name></trkpt>
<trkpt lat="53.376938" lon="-1.779300"><ele>260</ele><time>2020-08-05T12:08:34Z</time><name>PT9568</name></trkpt>
<trkpt lat="53.376926" lon="-1.779316"><ele>260</ele><time>2020-08-05T12:08:34Z</time><name>PT9569</name></trkpt>
<trkpt lat="53.376915" lon="-1.779333"><ele>260</ele><time>2020-08-05T12:08:36Z</time><name>PT9570</name></trkpt>
<trkpt lat="53.376905" lon="-1.779343"><ele>260</ele><time>2020-08-05T12:08:37Z</time><name>PT9571</name></trkpt>
<trkpt lat="53.376896" lon="-1.779354"><ele>260</ele><time>2020-08-05T12:08:37Z</time><name>PT9572</name></trkpt>
<trkpt lat="53.376883" lon="-1.779369"><ele>260</ele><time>2020-08-05T12:08:39Z</time><name>PT9573</name></trkpt>
<trkpt lat="53.376869" lon="-1.779379"><ele>261</ele><time>2020-08-05T12:08:40Z</time><name>PT9574</name></trkpt>
<trkpt lat="53.376858" lon="-1.779394"><ele>261</ele><time>2020-08-05T12:08:40Z</time><name>PT9575</name></trkpt>
<trkpt lat="53.376849" lon="-1.779415"><ele>261</ele><time>2020-08-05T12:08:42Z</time><name>PT9576</name></trkpt>
<trkpt lat="53.376838" lon="-1.779434"><ele>262</ele><time>2020-08-05T12:08:43Z</time><name>PT9577</name></trkpt>
<trkpt lat="53.376830" lon="-1.779448"><ele>261</ele><time>2020-08-05T12:08:43Z</time><name>PT9578</name></trkpt>
<trkpt lat="53.376819" lon="-1.779457"><ele>261</ele><time>2020-08-05T12:08:45Z</time><name>PT9579</name></trkpt>
<trkpt lat="53.376809" lon="-1.779469"><ele>262</ele><time>2020-08-05T12:08:46Z</time><name>PT9580</name></trkpt>
<trkpt lat="53.376797" lon="-1.779480"><ele>262</ele><time>2020-08-05T12:08:46Z</time><name>PT9581</name></trkpt>
<trkpt lat="53.376787" lon="-1.779494"><ele>262</ele><time>2020-08-05T12:08:48Z</time><name>PT9582</name></trkpt>
<trkpt lat="53.376777" lon="-1.779508"><ele>261</ele><time>2020-08-05T12:08:49Z</time><name>PT9583</name></trkpt>
<trkpt lat="53.376769" lon="-1.779529"><ele>260</ele><time>2020-08-05T12:08:49Z</time><name>PT9584</name></trkpt>
<trkpt lat="53.376761" lon="-1.779547"><ele>260</ele><time>2020-08-05T12:08:51Z</time><name>PT9585</name></trkpt>
<trkpt lat="53.376752" lon="-1.779562"><ele>259</ele><time>2020-08-05T12:08:52Z</time><name>PT9586</name></trkpt>
<trkpt lat="53.376745" lon="-1.779604"><ele>262</ele><time>2020-08-05T12:08:52Z</time><name>PT9587</name></trkpt>
<trkpt lat="53.376737" lon="-1.779624"><ele>261</ele><time>2020-08-05T12:08:54Z</time><name>PT9588</name></trkpt>
<trkpt lat="53.376726" lon="-1.779638"><ele>262</ele><time>2020-08-05T12:08:55Z</time><name>PT9589</name></trkpt>
<trkpt lat="53.376714" lon="-1.779655"><ele>262</ele><time>2020-08-05T12:08:55Z</time><name>PT9590</name></trkpt>
<trkpt lat="53.376703" lon="-1.779674"><ele>262</ele><time>2020-08-05T12:08:57Z</time><name>PT9591</name></trkpt>
<trkpt lat="53.376692" lon="-1.779692"><ele>262</ele><time>2020-08-05T12:08:58Z</time><name>PT9592</name></trkpt>
<trkpt lat="53.376683" lon="-1.779704"><ele>261</ele><time>2020-08-05T12:08:58Z</time><name>PT9593</name></trkpt>
<trkpt lat="53.376673" lon="-1.779721"><ele>261</ele><time>2020-08-05T12:09:00Z</time><name>PT9594</name></trkpt>
<trkpt lat="53.376663" lon="-1.779736"><ele>261</ele><time>2020-08-05T12:09:01Z</time><name>PT9595</name></trkpt>
<trkpt lat="53.376652" lon="-1.779750"><ele>260</ele><time>2020-08-05T12:09:01Z</time><name>PT9596</name></trkpt>
<trkpt lat="53.376642" lon="-1.779771"><ele>260</ele><time>2020-08-05T12:09:03Z</time><name>PT9597</name></trkpt>
<trkpt lat="53.376632" lon="-1.779785"><ele>260</ele><time>2020-08-05T12:09:04Z</time><name>PT9598</name></trkpt>
<trkpt lat="53.376626" lon="-1.779798"><ele>260</ele><time>2020-08-05T12:09:04Z</time><name>PT9599</name></trkpt>
<trkpt lat="53.376619" lon="-1.779812"><ele>260</ele><time>2020-08-05T12:09:06Z</time><name>PT9600</name></trkpt>
<trkpt lat="53.376609" lon="-1.779823"><ele>259</ele><time>2020-08-05T12:09:07Z</time><name>PT9601</name></trkpt>
<trkpt lat="53.376597" lon="-1.779835"><ele>259</ele><time>2020-08-05T12:09:07Z</time><name>PT9602</name></trkpt>
<trkpt lat="53.376590" lon="-1.779845"><ele>258</ele><time>2020-08-05T12:09:09Z</time><name>PT9603</name></trkpt>
<trkpt lat="53.376586" lon="-1.779857"><ele>258</ele><time>2020-08-05T12:09:10Z</time><name>PT9604</name></trkpt>
<trkpt lat="53.376579" lon="-1.779864"><ele>257</ele><time>2020-08-05T12:09:10Z</time><name>PT9605</name></trkpt>
<trkpt lat="53.376573" lon="-1.779872"><ele>257</ele><time>2020-08-05T12:09:12Z</time><name>PT9606</name></trkpt>
<trkpt lat="53.376565" lon="-1.779885"><ele>257</ele><time>2020-08-05T12:09:13Z</time><name>PT9607</name></trkpt>
<trkpt lat="53.376555" lon="-1.779902"><ele>258</ele><time>2020-08-05T12:09:13Z</time><name>PT9608</name></trkpt>
<trkpt lat="53.376547" lon="-1.779910"><ele>257</ele><time>2020-08-05T12:09:15Z</time><name>PT9609</name></trkpt>
<trkpt lat="53.376539" lon="-1.779921"><ele>257</ele><time>2020-08-05T12:09:16Z</time><name>PT9610</name></trkpt>
<trkpt lat="53.376536" lon="-1.779941"><ele>257</ele><time>2020-08-05T12:09:16Z</time><name>PT9611</name></trkpt>
<trkpt lat="53.376526" lon="-1.779957"><ele>258</ele><time>2020-08-05T12:09:18Z</time><name>PT9612</name></trkpt>
<trkpt lat="53.376517" lon="-1.779975"><ele>258</ele><time>2020-08-05T12:09:19Z</time><name>PT9613</name></trkpt>
<trkpt lat="53.376508" lon="-1.779992"><ele>257</ele><time>2020-08-05T12:09:19Z</time><name>PT9614</name></trkpt>
<trkpt lat="53.376496" lon="-1.780009"><ele>257</ele><time>2020-08-05T12:09:21Z</time><name>PT9615</name></trkpt>
<trkpt lat="53.376484" lon="-1.780024"><ele>257</ele><time>2020-08-05T12:09:22Z</time><name>PT9616</name></trkpt>
<trkpt lat="53.376476" lon="-1.780039"><ele>257</ele><time>2020-08-05T12:09:23Z</time><name>PT9617</name></trkpt>
<trkpt lat="53.376467" lon="-1.780054"><ele>257</ele><time>2020-08-05T12:09:24Z</time><name>PT9618</name></trkpt>
<trkpt lat="53.376457" lon="-1.780074"><ele>257</ele><time>2020-08-05T12:09:25Z</time><name>PT9619</name></trkpt>
<trkpt lat="53.376448" lon="-1.780096"><ele>257</ele><time>2020-08-05T12:09:26Z</time><name>PT9620</name></trkpt>
<trkpt lat="53.376439" lon="-1.780116"><ele>257</ele><time>2020-08-05T12:09:27Z</time><name>PT9621</name></trkpt>
<trkpt lat="53.376428" lon="-1.780132"><ele>257</ele><time>2020-08-05T12:09:28Z</time><name>PT9622</name></trkpt>
<trkpt lat="53.376420" lon="-1.780143"><ele>256</ele><time>2020-08-05T12:09:29Z</time><name>PT9623</name></trkpt>
<trkpt lat="53.376413" lon="-1.780155"><ele>256</ele><time>2020-08-05T12:09:30Z</time><name>PT9624</name></trkpt>
<trkpt lat="53.376408" lon="-1.780170"><ele>255</ele><time>2020-08-05T12:09:31Z</time><name>PT9625</name></trkpt>
<trkpt lat="53.376398" lon="-1.780188"><ele>255</ele><time>2020-08-05T12:09:32Z</time><name>PT9626</name></trkpt>
<trkpt lat="53.376389" lon="-1.780205"><ele>255</ele><time>2020-08-05T12:09:33Z</time><name>PT9627</name></trkpt>
<trkpt lat="53.376380" lon="-1.780219"><ele>255</ele><time>2020-08-05T12:09:34Z</time><name>PT9628</name></trkpt>
<trkpt lat="53.376371" lon="-1.780234"><ele>255</ele><time>2020-08-05T12:09:35Z</time><name>PT9629</name></trkpt>
<trkpt lat="53.376364" lon="-1.780249"><ele>254</ele><time>2020-08-05T12:09:36Z</time><name>PT9630</name></trkpt>
<trkpt lat="53.376367" lon="-1.780266"><ele>252</ele><time>2020-08-05T12:09:37Z</time><name>PT9631</name></trkpt>
<trkpt lat="53.376360" lon="-1.780286"><ele>252</ele><time>2020-08-05T12:09:37Z</time><name>PT9632</name></trkpt>
<trkpt lat="53.376354" lon="-1.780308"><ele>253</ele><time>2020-08-05T12:09:39Z</time><name>PT9633</name></trkpt>
<trkpt lat="53.376349" lon="-1.780325"><ele>253</ele><time>2020-08-05T12:09:40Z</time><name>PT9634</name></trkpt>
<trkpt lat="53.376344" lon="-1.780341"><ele>252</ele><time>2020-08-05T12:09:41Z</time><name>PT9635</name></trkpt>
<trkpt lat="53.376337" lon="-1.780361"><ele>253</ele><time>2020-08-05T12:09:42Z</time><name>PT9636</name></trkpt>
<trkpt lat="53.376330" lon="-1.780381"><ele>253</ele><time>2020-08-05T12:09:43Z</time><name>PT9637</name></trkpt>
<trkpt lat="53.376324" lon="-1.780399"><ele>253</ele><time>2020-08-05T12:09:44Z</time><name>PT9638</name></trkpt>
<trkpt lat="53.376318" lon="-1.780419"><ele>253</ele><time>2020-08-05T12:09:45Z</time><name>PT9639</name></trkpt>
<trkpt lat="53.376312" lon="-1.780443"><ele>254</ele><time>2020-08-05T12:09:46Z</time><name>PT9640</name></trkpt>
<trkpt lat="53.376306" lon="-1.780463"><ele>254</ele><time>2020-08-05T12:09:47Z</time><name>PT9641</name></trkpt>
<trkpt lat="53.376301" lon="-1.780474"><ele>254</ele><time>2020-08-05T12:09:48Z</time><name>PT9642</name></trkpt>
<trkpt lat="53.376295" lon="-1.780488"><ele>254</ele><time>2020-08-05T12:09:49Z</time><name>PT9643</name></trkpt>
<trkpt lat="53.376292" lon="-1.780503"><ele>253</ele><time>2020-08-05T12:09:49Z</time><name>PT9644</name></trkpt>
<trkpt lat="53.376287" lon="-1.780523"><ele>253</ele><time>2020-08-05T12:09:51Z</time><name>PT9645</name></trkpt>
<trkpt lat="53.376281" lon="-1.780542"><ele>253</ele><time>2020-08-05T12:09:52Z</time><name>PT9646</name></trkpt>
<trkpt lat="53.376276" lon="-1.780562"><ele>253</ele><time>2020-08-05T12:09:52Z</time><name>PT9647</name></trkpt>
<trkpt lat="53.376269" lon="-1.780580"><ele>254</ele><time>2020-08-05T12:09:54Z</time><name>PT9648</name></trkpt>
<trkpt lat="53.376264" lon="-1.780602"><ele>254</ele><time>2020-08-05T12:09:55Z</time><name>PT9649</name></trkpt>
<trkpt lat="53.376258" lon="-1.780619"><ele>254</ele><time>2020-08-05T12:09:55Z</time><name>PT9650</name></trkpt>
<trkpt lat="53.376251" lon="-1.780638"><ele>254</ele><time>2020-08-05T12:09:57Z</time><name>PT9651</name></trkpt>
<trkpt lat="53.376248" lon="-1.780657"><ele>254</ele><time>2020-08-05T12:09:58Z</time><name>PT9652</name></trkpt>
<trkpt lat="53.376246" lon="-1.780680"><ele>254</ele><time>2020-08-05T12:09:58Z</time><name>PT9653</name></trkpt>
<trkpt lat="53.376244" lon="-1.780700"><ele>254</ele><time>2020-08-05T12:10:00Z</time><name>PT9654</name></trkpt>
<trkpt lat="53.376241" lon="-1.780717"><ele>253</ele><time>2020-08-05T12:10:01Z</time><name>PT9655</name></trkpt>
<trkpt lat="53.376235" lon="-1.780739"><ele>252</ele><time>2020-08-05T12:10:02Z</time><name>PT9656</name></trkpt>
<trkpt lat="53.376229" lon="-1.780758"><ele>252</ele><time>2020-08-05T12:10:03Z</time><name>PT9657</name></trkpt>
<trkpt lat="53.376220" lon="-1.780771"><ele>252</ele><time>2020-08-05T12:10:04Z</time><name>PT9658</name></trkpt>
<trkpt lat="53.376214" lon="-1.780781"><ele>251</ele><time>2020-08-05T12:10:05Z</time><name>PT9659</name></trkpt>
<trkpt lat="53.376209" lon="-1.780798"><ele>251</ele><time>2020-08-05T12:10:06Z</time><name>PT9660</name></trkpt>
<trkpt lat="53.376205" lon="-1.780822"><ele>251</ele><time>2020-08-05T12:10:07Z</time><name>PT9661</name></trkpt>
<trkpt lat="53.376201" lon="-1.780843"><ele>251</ele><time>2020-08-05T12:10:08Z</time><name>PT9662</name></trkpt>
<trkpt lat="53.376199" lon="-1.780865"><ele>251</ele><time>2020-08-05T12:10:09Z</time><name>PT9663</name></trkpt>
<trkpt lat="53.376196" lon="-1.780889"><ele>250</ele><time>2020-08-05T12:10:10Z</time><name>PT9664</name></trkpt>
<trkpt lat="53.376191" lon="-1.780914"><ele>250</ele><time>2020-08-05T12:10:11Z</time><name>PT9665</name></trkpt>
<trkpt lat="53.376186" lon="-1.780937"><ele>250</ele><time>2020-08-05T12:10:12Z</time><name>PT9666</name></trkpt>
<trkpt lat="53.376183" lon="-1.780958"><ele>250</ele><time>2020-08-05T12:10:13Z</time><name>PT9667</name></trkpt>
<trkpt lat="53.376181" lon="-1.780981"><ele>250</ele><time>2020-08-05T12:10:14Z</time><name>PT9668</name></trkpt>
<trkpt lat="53.376179" lon="-1.781005"><ele>250</ele><time>2020-08-05T12:10:15Z</time><name>PT9669</name></trkpt>
<trkpt lat="53.376176" lon="-1.781030"><ele>250</ele><time>2020-08-05T12:10:16Z</time><name>PT9670</name></trkpt>
<trkpt lat="53.376177" lon="-1.781052"><ele>250</ele><time>2020-08-05T12:10:17Z</time><name>PT9671</name></trkpt>
<trkpt lat="53.376176" lon="-1.781075"><ele>250</ele><time>2020-08-05T12:10:18Z</time><name>PT9672</name></trkpt>
<trkpt lat="53.376175" lon="-1.781098"><ele>249</ele><time>2020-08-05T12:10:19Z</time><name>PT9673</name></trkpt>
<trkpt lat="53.376177" lon="-1.781117"><ele>249</ele><time>2020-08-05T12:10:20Z</time><name>PT9674</name></trkpt>
<trkpt lat="53.376177" lon="-1.781134"><ele>249</ele><time>2020-08-05T12:10:21Z</time><name>PT9675</name></trkpt>
<trkpt lat="53.376175" lon="-1.781157"><ele>250</ele><time>2020-08-05T12:10:22Z</time><name>PT9676</name></trkpt>
<trkpt lat="53.376175" lon="-1.781176"><ele>249</ele><time>2020-08-05T12:10:23Z</time><name>PT9677</name></trkpt>
<trkpt lat="53.376174" lon="-1.781194"><ele>249</ele><time>2020-08-05T12:10:24Z</time><name>PT9678</name></trkpt>
<trkpt lat="53.376172" lon="-1.781214"><ele>249</ele><time>2020-08-05T12:10:25Z</time><name>PT9679</name></trkpt>
<trkpt lat="53.376170" lon="-1.781237"><ele>250</ele><time>2020-08-05T12:10:25Z</time><name>PT9680</name></trkpt>
<trkpt lat="53.376168" lon="-1.781259"><ele>250</ele><time>2020-08-05T12:10:27Z</time><name>PT9681</name></trkpt>
<trkpt lat="53.376166" lon="-1.781282"><ele>251</ele><time>2020-08-05T12:10:28Z</time><name>PT9682</name></trkpt>
<trkpt lat="53.376166" lon="-1.781300"><ele>251</ele><time>2020-08-05T12:10:28Z</time><name>PT9683</name></trkpt>
<trkpt lat="53.376164" lon="-1.781321"><ele>251</ele><time>2020-08-05T12:10:30Z</time><name>PT9684</name></trkpt>
<trkpt lat="53.376162" lon="-1.781342"><ele>252</ele><time>2020-08-05T12:10:31Z</time><name>PT9685</name></trkpt>
<trkpt lat="53.376162" lon="-1.781359"><ele>251</ele><time>2020-08-05T12:10:31Z</time><name>PT9686</name></trkpt>
<trkpt lat="53.376163" lon="-1.781376"><ele>251</ele><time>2020-08-05T12:10:33Z</time><name>PT9687</name></trkpt>
<trkpt lat="53.376164" lon="-1.781397"><ele>252</ele><time>2020-08-05T12:10:34Z</time><name>PT9688</name></trkpt>
<trkpt lat="53.376169" lon="-1.781419"><ele>251</ele><time>2020-08-05T12:10:35Z</time><name>PT9689</name></trkpt>
<trkpt lat="53.376173" lon="-1.781433"><ele>251</ele><time>2020-08-05T12:10:36Z</time><name>PT9690</name></trkpt>
<trkpt lat="53.376179" lon="-1.781453"><ele>250</ele><time>2020-08-05T12:10:37Z</time><name>PT9691</name></trkpt>
<trkpt lat="53.376184" lon="-1.781471"><ele>250</ele><time>2020-08-05T12:10:38Z</time><name>PT9692</name></trkpt>
<trkpt lat="53.376186" lon="-1.781485"><ele>250</ele><time>2020-08-05T12:10:39Z</time><name>PT9693</name></trkpt>
<trkpt lat="53.376190" lon="-1.781505"><ele>250</ele><time>2020-08-05T12:10:40Z</time><name>PT9694</name></trkpt>
<trkpt lat="53.376189" lon="-1.781527"><ele>249</ele><time>2020-08-05T12:10:41Z</time><name>PT9695</name></trkpt>
<trkpt lat="53.376191" lon="-1.781543"><ele>249</ele><time>2020-08-05T12:10:42Z</time><name>PT9696</name></trkpt>
<trkpt lat="53.376192" lon="-1.781557"><ele>248</ele><time>2020-08-05T12:10:43Z</time><name>PT9697</name></trkpt>
<trkpt lat="53.376195" lon="-1.781567"><ele>248</ele><time>2020-08-05T12:10:43Z</time><name>PT9698</name></trkpt>
<trkpt lat="53.376205" lon="-1.781584"><ele>247</ele><time>2020-08-05T12:10:45Z</time><name>PT9699</name></trkpt>
<trkpt lat="53.376213" lon="-1.781603"><ele>246</ele><time>2020-08-05T12:10:46Z</time><name>PT9700</name></trkpt>
<trkpt lat="53.376221" lon="-1.781621"><ele>245</ele><time>2020-08-05T12:10:47Z</time><name>PT9701</name></trkpt>
<trkpt lat="53.376221" lon="-1.781636"><ele>245</ele><time>2020-08-05T12:10:48Z</time><name>PT9702</name></trkpt>
<trkpt lat="53.376224" lon="-1.781656"><ele>245</ele><time>2020-08-05T12:10:49Z</time><name>PT9703</name></trkpt>
<trkpt lat="53.376229" lon="-1.781672"><ele>244</ele><time>2020-08-05T12:10:50Z</time><name>PT9704</name></trkpt>
<trkpt lat="53.376241" lon="-1.781685"><ele>244</ele><time>2020-08-05T12:10:51Z</time><name>PT9705</name></trkpt>
<trkpt lat="53.376246" lon="-1.781697"><ele>244</ele><time>2020-08-05T12:10:52Z</time><name>PT9706</name></trkpt>
<trkpt lat="53.376251" lon="-1.781715"><ele>243</ele><time>2020-08-05T12:10:52Z</time><name>PT9707</name></trkpt>
<trkpt lat="53.376250" lon="-1.781730"><ele>242</ele><time>2020-08-05T12:10:54Z</time><name>PT9708</name></trkpt>
<trkpt lat="53.376255" lon="-1.781750"><ele>242</ele><time>2020-08-05T12:10:55Z</time><name>PT9709</name></trkpt>
<trkpt lat="53.376257" lon="-1.781759"><ele>242</ele><time>2020-08-05T12:10:55Z</time><name>PT9710</name></trkpt>
<trkpt lat="53.376254" lon="-1.781767"><ele>242</ele><time>2020-08-05T12:10:57Z</time><name>PT9711</name></trkpt>
<trkpt lat="53.376250" lon="-1.781778"><ele>243</ele><time>2020-08-05T12:10:58Z</time><name>PT9712</name></trkpt>
<trkpt lat="53.376249" lon="-1.781796"><ele>242</ele><time>2020-08-05T12:10:58Z</time><name>PT9713</name></trkpt>
<trkpt lat="53.376246" lon="-1.781819"><ele>241</ele><time>2020-08-05T12:11:00Z</time><name>PT9714</name></trkpt>
<trkpt lat="53.376242" lon="-1.781831"><ele>242</ele><time>2020-08-05T12:11:01Z</time><name>PT9715</name></trkpt>
<trkpt lat="53.376236" lon="-1.781836"><ele>241</ele><time>2020-08-05T12:11:01Z</time><name>PT9716</name></trkpt>
<trkpt lat="53.376234" lon="-1.781845"><ele>242</ele><time>2020-08-05T12:11:03Z</time><name>PT9717</name></trkpt>
<trkpt lat="53.376228" lon="-1.781853"><ele>243</ele><time>2020-08-05T12:11:04Z</time><name>PT9718</name></trkpt>
<trkpt lat="53.376232" lon="-1.781861"><ele>243</ele><time>2020-08-05T12:11:04Z</time><name>PT9719</name></trkpt>
<trkpt lat="53.376235" lon="-1.781872"><ele>243</ele><time>2020-08-05T12:11:06Z</time><name>PT9720</name></trkpt>
<trkpt lat="53.376238" lon="-1.781879"><ele>242</ele><time>2020-08-05T12:11:07Z</time><name>PT9721</name></trkpt>
<trkpt lat="53.376236" lon="-1.781880"><ele>241</ele><time>2020-08-05T12:11:07Z</time><name>PT9722</name></trkpt>
<trkpt lat="53.376233" lon="-1.781890"><ele>241</ele><time>2020-08-05T12:11:09Z</time><name>PT9723</name></trkpt>
<trkpt lat="53.376227" lon="-1.781904"><ele>241</ele><time>2020-08-05T12:11:10Z</time><name>PT9724</name></trkpt>
<trkpt lat="53.376219" lon="-1.781912"><ele>240</ele><time>2020-08-05T12:11:10Z</time><name>PT9725</name></trkpt>
<trkpt lat="53.376215" lon="-1.781922"><ele>239</ele><time>2020-08-05T12:11:12Z</time><name>PT9726</name></trkpt>
<trkpt lat="53.376210" lon="-1.781926"><ele>238</ele><time>2020-08-05T12:11:13Z</time><name>PT9727</name></trkpt>
<trkpt lat="53.376207" lon="-1.781941"><ele>237</ele><time>2020-08-05T12:11:13Z</time><name>PT9728</name></trkpt>
<trkpt lat="53.376207" lon="-1.781959"><ele>235</ele><time>2020-08-05T12:11:15Z</time><name>PT9729</name></trkpt>
<trkpt lat="53.376201" lon="-1.781961"><ele>235</ele><time>2020-08-05T12:11:16Z</time><name>PT9730</name></trkpt>
<trkpt lat="53.376194" lon="-1.781962"><ele>233</ele><time>2020-08-05T12:11:16Z</time><name>PT9731</name></trkpt>
<trkpt lat="53.376184" lon="-1.781967"><ele>232</ele><time>2020-08-05T12:11:18Z</time><name>PT9732</name></trkpt>
<trkpt lat="53.376165" lon="-1.781990"><ele>233</ele><time>2020-08-05T12:11:19Z</time><name>PT9733</name></trkpt>
<trkpt lat="53.376151" lon="-1.781994"><ele>234</ele><time>2020-08-05T12:11:19Z</time><name>PT9734</name></trkpt>
<trkpt lat="53.376139" lon="-1.782001"><ele>234</ele><time>2020-08-05T12:11:21Z</time><name>PT9735</name></trkpt>
<trkpt lat="53.376126" lon="-1.782004"><ele>235</ele><time>2020-08-05T12:11:22Z</time><name>PT9736</name></trkpt>
<trkpt lat="53.376114" lon="-1.782007"><ele>235</ele><time>2020-08-05T12:11:22Z</time><name>PT9737</name></trkpt>
<trkpt lat="53.376099" lon="-1.782014"><ele>236</ele><time>2020-08-05T12:11:24Z</time><name>PT9738</name></trkpt>
<trkpt lat="53.376086" lon="-1.782019"><ele>236</ele><time>2020-08-05T12:11:25Z</time><name>PT9739</name></trkpt>
<trkpt lat="53.376076" lon="-1.782025"><ele>235</ele><time>2020-08-05T12:11:25Z</time><name>PT9740</name></trkpt>
<trkpt lat="53.376061" lon="-1.782028"><ele>236</ele><time>2020-08-05T12:11:27Z</time><name>PT9741</name></trkpt>
<trkpt lat="53.376046" lon="-1.782031"><ele>237</ele><time>2020-08-05T12:11:28Z</time><name>PT9742</name></trkpt>
<trkpt lat="53.376028" lon="-1.782034"><ele>237</ele><time>2020-08-05T12:11:28Z</time><name>PT9743</name></trkpt>
<trkpt lat="53.376016" lon="-1.782038"><ele>238</ele><time>2020-08-05T12:11:30Z</time><name>PT9744</name></trkpt>
<trkpt lat="53.376000" lon="-1.782043"><ele>239</ele><time>2020-08-05T12:11:31Z</time><name>PT9745</name></trkpt>
<trkpt lat="53.375978" lon="-1.782048"><ele>241</ele><time>2020-08-05T12:11:31Z</time><name>PT9746</name></trkpt>
<trkpt lat="53.375963" lon="-1.782053"><ele>241</ele><time>2020-08-05T12:11:33Z</time><name>PT9747</name></trkpt>
<trkpt lat="53.375949" lon="-1.782056"><ele>240</ele><time>2020-08-05T12:11:34Z</time><name>PT9748</name></trkpt>
<trkpt lat="53.375939" lon="-1.782064"><ele>241</ele><time>2020-08-05T12:11:34Z</time><name>PT9749</name></trkpt>
<trkpt lat="53.375931" lon="-1.782072"><ele>242</ele><time>2020-08-05T12:11:36Z</time><name>PT9750</name></trkpt>
<trkpt lat="53.375924" lon="-1.782076"><ele>241</ele><time>2020-08-05T12:11:37Z</time><name>PT9751</name></trkpt>
<trkpt lat="53.375919" lon="-1.782080"><ele>241</ele><time>2020-08-05T12:11:37Z</time><name>PT9752</name></trkpt>
<trkpt lat="53.375914" lon="-1.782081"><ele>241</ele><time>2020-08-05T12:11:39Z</time><name>PT9753</name></trkpt>
<trkpt lat="53.375908" lon="-1.782093"><ele>242</ele><time>2020-08-05T12:11:40Z</time><name>PT9754</name></trkpt>
<trkpt lat="53.375900" lon="-1.782094"><ele>242</ele><time>2020-08-05T12:11:40Z</time><name>PT9755</name></trkpt>
<trkpt lat="53.375891" lon="-1.782096"><ele>241</ele><time>2020-08-05T12:11:42Z</time><name>PT9756</name></trkpt>
<trkpt lat="53.375876" lon="-1.782105"><ele>242</ele><time>2020-08-05T12:11:43Z</time><name>PT9757</name></trkpt>
<trkpt lat="53.375864" lon="-1.782111"><ele>243</ele><time>2020-08-05T12:11:43Z</time><name>PT9758</name></trkpt>
<trkpt lat="53.375848" lon="-1.782116"><ele>243</ele><time>2020-08-05T12:11:45Z</time><name>PT9759</name></trkpt>
<trkpt lat="53.375836" lon="-1.782119"><ele>245</ele><time>2020-08-05T12:11:46Z</time><name>PT9760</name></trkpt>
<trkpt lat="53.375836" lon="-1.782123"><ele>244</ele><time>2020-08-05T12:11:46Z</time><name>PT9761</name></trkpt>
<trkpt lat="53.375834" lon="-1.782132"><ele>246</ele><time>2020-08-05T12:11:48Z</time><name>PT9762</name></trkpt>
<trkpt lat="53.375832" lon="-1.782136"><ele>245</ele><time>2020-08-05T12:11:49Z</time><name>PT9763</name></trkpt>
<trkpt lat="53.375821" lon="-1.782145"><ele>245</ele><time>2020-08-05T12:11:49Z</time><name>PT9764</name></trkpt>
<trkpt lat="53.375812" lon="-1.782158"><ele>246</ele><time>2020-08-05T12:11:51Z</time><name>PT9765</name></trkpt>
<trkpt lat="53.375803" lon="-1.782172"><ele>247</ele><time>2020-08-05T12:11:52Z</time><name>PT9766</name></trkpt>
<trkpt lat="53.375797" lon="-1.782181"><ele>247</ele><time>2020-08-05T12:11:53Z</time><name>PT9767</name></trkpt>
<trkpt lat="53.375789" lon="-1.782173"><ele>247</ele><time>2020-08-05T12:11:54Z</time><name>PT9768</name></trkpt>
<trkpt lat="53.375785" lon="-1.782172"><ele>247</ele><time>2020-08-05T12:11:55Z</time><name>PT9769</name></trkpt>
<trkpt lat="53.375786" lon="-1.782164"><ele>246</ele><time>2020-08-05T12:11:56Z</time><name>PT9770</name></trkpt>
<trkpt lat="53.375784" lon="-1.782164"><ele>245</ele><time>2020-08-05T12:11:57Z</time><name>PT9771</name></trkpt>
<trkpt lat="53.375770" lon="-1.782159"><ele>244</ele><time>2020-08-05T12:11:58Z</time><name>PT9772</name></trkpt>
<trkpt lat="53.375758" lon="-1.782157"><ele>245</ele><time>2020-08-05T12:11:59Z</time><name>PT9773</name></trkpt>
<trkpt lat="53.375749" lon="-1.782151"><ele>246</ele><time>2020-08-05T12:12:00Z</time><name>PT9774</name></trkpt>
<trkpt lat="53.375742" lon="-1.782148"><ele>246</ele><time>2020-08-05T12:12:01Z</time><name>PT9775</name></trkpt>
<trkpt lat="53.375735" lon="-1.782143"><ele>245</ele><time>2020-08-05T12:12:02Z</time><name>PT9776</name></trkpt>
<trkpt lat="53.375723" lon="-1.782140"><ele>245</ele><time>2020-08-05T12:12:03Z</time><name>PT9777</name></trkpt>
<trkpt lat="53.375714" lon="-1.782139"><ele>245</ele><time>2020-08-05T12:12:04Z</time><name>PT9778</name></trkpt>
<trkpt lat="53.375704" lon="-1.782138"><ele>245</ele><time>2020-08-05T12:12:05Z</time><name>PT9779</name></trkpt>
<trkpt lat="53.375695" lon="-1.782141"><ele>245</ele><time>2020-08-05T12:12:06Z</time><name>PT9780</name></trkpt>
<trkpt lat="53.375686" lon="-1.782146"><ele>245</ele><time>2020-08-05T12:12:07Z</time><name>PT9781</name></trkpt>
<trkpt lat="53.375680" lon="-1.782151"><ele>245</ele><time>2020-08-05T12:12:08Z</time><name>PT9782</name></trkpt>
<trkpt lat="53.375672" lon="-1.782159"><ele>247</ele><time>2020-08-05T12:12:09Z</time><name>PT9783</name></trkpt>
<trkpt lat="53.375662" lon="-1.782156"><ele>247</ele><time>2020-08-05T12:12:10Z</time><name>PT9784</name></trkpt>
<trkpt lat="53.375658" lon="-1.782155"><ele>248</ele><time>2020-08-05T12:12:11Z</time><name>PT9785</name></trkpt>
<trkpt lat="53.375649" lon="-1.782159"><ele>247</ele><time>2020-08-05T12:12:12Z</time><name>PT9786</name></trkpt>
<trkpt lat="53.375642" lon="-1.782168"><ele>248</ele><time>2020-08-05T12:12:13Z</time><name>PT9787</name></trkpt>
<trkpt lat="53.375626" lon="-1.782170"><ele>249</ele><time>2020-08-05T12:12:14Z</time><name>PT9788</name></trkpt>
<trkpt lat="53.375611" lon="-1.782175"><ele>250</ele><time>2020-08-05T12:12:15Z</time><name>PT9789</name></trkpt>
<trkpt lat="53.375602" lon="-1.782178"><ele>250</ele><time>2020-08-05T12:12:16Z</time><name>PT9790</name></trkpt>
<trkpt lat="53.375586" lon="-1.782182"><ele>251</ele><time>2020-08-05T12:12:17Z</time><name>PT9791</name></trkpt>
<trkpt lat="53.375574" lon="-1.782182"><ele>250</ele><time>2020-08-05T12:12:18Z</time><name>PT9792</name></trkpt>
<trkpt lat="53.375558" lon="-1.782187"><ele>250</ele><time>2020-08-05T12:12:19Z</time><name>PT9793</name></trkpt>
<trkpt lat="53.375544" lon="-1.782195"><ele>250</ele><time>2020-08-05T12:12:19Z</time><name>PT9794</name></trkpt>
<trkpt lat="53.375525" lon="-1.782197"><ele>248</ele><time>2020-08-05T12:12:21Z</time><name>PT9795</name></trkpt>
<trkpt lat="53.375501" lon="-1.782206"><ele>248</ele><time>2020-08-05T12:12:22Z</time><name>PT9796</name></trkpt>
<trkpt lat="53.375480" lon="-1.782196"><ele>248</ele><time>2020-08-05T12:12:22Z</time><name>PT9797</name></trkpt>
<trkpt lat="53.375441" lon="-1.782187"><ele>247</ele><time>2020-08-05T12:12:24Z</time><name>PT9798</name></trkpt>
<trkpt lat="53.375419" lon="-1.782163"><ele>246</ele><time>2020-08-05T12:12:25Z</time><name>PT9799</name></trkpt>
<trkpt lat="53.375398" lon="-1.782158"><ele>246</ele><time>2020-08-05T12:12:25Z</time><name>PT9800</name></trkpt>
<trkpt lat="53.375365" lon="-1.782152"><ele>248</ele><time>2020-08-05T12:12:27Z</time><name>PT9801</name></trkpt>
<trkpt lat="53.375349" lon="-1.782149"><ele>248</ele><time>2020-08-05T12:12:28Z</time><name>PT9802</name></trkpt>
<trkpt lat="53.375330" lon="-1.782148"><ele>247</ele><time>2020-08-05T12:12:28Z</time><name>PT9803</name></trkpt>
<trkpt lat="53.375314" lon="-1.782147"><ele>246</ele><time>2020-08-05T12:12:30Z</time><name>PT9804</name></trkpt>
<trkpt lat="53.375306" lon="-1.782147"><ele>245</ele><time>2020-08-05T12:12:31Z</time><name>PT9805</name></trkpt>
<trkpt lat="53.375293" lon="-1.782147"><ele>245</ele><time>2020-08-05T12:12:31Z</time><name>PT9806</name></trkpt>
<trkpt lat="53.375282" lon="-1.782155"><ele>243</ele><time>2020-08-05T12:12:33Z</time><name>PT9807</name></trkpt>
<trkpt lat="53.375271" lon="-1.782154"><ele>243</ele><time>2020-08-05T12:12:34Z</time><name>PT9808</name></trkpt>
<trkpt lat="53.375258" lon="-1.782154"><ele>242</ele><time>2020-08-05T12:12:34Z</time><name>PT9809</name></trkpt>
<trkpt lat="53.375245" lon="-1.782160"><ele>241</ele><time>2020-08-05T12:12:36Z</time><name>PT9810</name></trkpt>
<trkpt lat="53.375240" lon="-1.782165"><ele>239</ele><time>2020-08-05T12:12:37Z</time><name>PT9811</name></trkpt>
<trkpt lat="53.375232" lon="-1.782170"><ele>239</ele><time>2020-08-05T12:12:37Z</time><name>PT9812</name></trkpt>
<trkpt lat="53.375215" lon="-1.782187"><ele>240</ele><time>2020-08-05T12:12:39Z</time><name>PT9813</name></trkpt>
<trkpt lat="53.375200" lon="-1.782193"><ele>241</ele><time>2020-08-05T12:12:40Z</time><name>PT9814</name></trkpt>
<trkpt lat="53.375194" lon="-1.782195"><ele>241</ele><time>2020-08-05T12:12:40Z</time><name>PT9815</name></trkpt>
<trkpt lat="53.375191" lon="-1.782198"><ele>241</ele><time>2020-08-05T12:12:42Z</time><name>PT9816</name></trkpt>
<trkpt lat="53.375189" lon="-1.782206"><ele>241</ele><time>2020-08-05T12:12:43Z</time><name>PT9817</name></trkpt>
<trkpt lat="53.375181" lon="-1.782213"><ele>242</ele><time>2020-08-05T12:12:43Z</time><name>PT9818</name></trkpt>
<trkpt lat="53.375182" lon="-1.782223"><ele>242</ele><time>2020-08-05T12:12:45Z</time><name>PT9819</name></trkpt>
<trkpt lat="53.375177" lon="-1.782233"><ele>241</ele><time>2020-08-05T12:12:46Z</time><name>PT9820</name></trkpt>
<trkpt lat="53.375171" lon="-1.782238"><ele>241</ele><time>2020-08-05T12:12:46Z</time><name>PT9821</name></trkpt>
<trkpt lat="53.375169" lon="-1.782239"><ele>240</ele><time>2020-08-05T12:12:48Z</time><name>PT9822</name></trkpt>
<trkpt lat="53.375162" lon="-1.782240"><ele>240</ele><time>2020-08-05T12:12:49Z</time><name>PT9823</name></trkpt>
<trkpt lat="53.375156" lon="-1.782246"><ele>239</ele><time>2020-08-05T12:12:49Z</time><name>PT9824</name></trkpt>
<trkpt lat="53.375146" lon="-1.782253"><ele>239</ele><time>2020-08-05T12:12:51Z</time><name>PT9825</name></trkpt>
<trkpt lat="53.375128" lon="-1.782254"><ele>241</ele><time>2020-08-05T12:12:52Z</time><name>PT9826</name></trkpt>
<trkpt lat="53.375118" lon="-1.782259"><ele>240</ele><time>2020-08-05T12:12:52Z</time><name>PT9827</name></trkpt>
<trkpt lat="53.375106" lon="-1.782262"><ele>239</ele><time>2020-08-05T12:12:54Z</time><name>PT9828</name></trkpt>
<trkpt lat="53.375086" lon="-1.782263"><ele>239</ele><time>2020-08-05T12:12:55Z</time><name>PT9829</name></trkpt>
<trkpt lat="53.375072" lon="-1.782267"><ele>239</ele><time>2020-08-05T12:12:55Z</time><name>PT9830</name></trkpt>
<trkpt lat="53.375054" lon="-1.782279"><ele>239</ele><time>2020-08-05T12:12:57Z</time><name>PT9831</name></trkpt>
<trkpt lat="53.375052" lon="-1.782289"><ele>236</ele><time>2020-08-05T12:12:58Z</time><name>PT9832</name></trkpt>
<trkpt lat="53.375049" lon="-1.782297"><ele>234</ele><time>2020-08-05T12:12:59Z</time><name>PT9833</name></trkpt>
<trkpt lat="53.375040" lon="-1.782298"><ele>234</ele><time>2020-08-05T12:13:00Z</time><name>PT9834</name></trkpt>
<trkpt lat="53.375029" lon="-1.782304"><ele>234</ele><time>2020-08-05T12:13:01Z</time><name>PT9835</name></trkpt>
<trkpt lat="53.375008" lon="-1.782309"><ele>234</ele><time>2020-08-05T12:13:02Z</time><name>PT9836</name></trkpt>
<trkpt lat="53.374978" lon="-1.782314"><ele>233</ele><time>2020-08-05T12:13:03Z</time><name>PT9837</name></trkpt>
<trkpt lat="53.374958" lon="-1.782318"><ele>234</ele><time>2020-08-05T12:13:04Z</time><name>PT9838</name></trkpt>
<trkpt lat="53.374940" lon="-1.782318"><ele>234</ele><time>2020-08-05T12:13:04Z</time><name>PT9839</name></trkpt>
<trkpt lat="53.374930" lon="-1.782315"><ele>232</ele><time>2020-08-05T12:13:06Z</time><name>PT9840</name></trkpt>
<trkpt lat="53.374917" lon="-1.782317"><ele>232</ele><time>2020-08-05T12:13:07Z</time><name>PT9841</name></trkpt>
<trkpt lat="53.374901" lon="-1.782320"><ele>233</ele><time>2020-08-05T12:13:08Z</time><name>PT9842</name></trkpt>
<trkpt lat="53.374891" lon="-1.782325"><ele>234</ele><time>2020-08-05T12:13:09Z</time><name>PT9843</name></trkpt>
<trkpt lat="53.374873" lon="-1.782331"><ele>235</ele><time>2020-08-05T12:13:10Z</time><name>PT9844</name></trkpt>
<trkpt lat="53.374853" lon="-1.782336"><ele>236</ele><time>2020-08-05T12:13:10Z</time><name>PT9845</name></trkpt>
<trkpt lat="53.374841" lon="-1.782343"><ele>236</ele><time>2020-08-05T12:13:12Z</time><name>PT9846</name></trkpt>
<trkpt lat="53.374827" lon="-1.782349"><ele>237</ele><time>2020-08-05T12:13:13Z</time><name>PT9847</name></trkpt>
<trkpt lat="53.374807" lon="-1.782349"><ele>237</ele><time>2020-08-05T12:13:14Z</time><name>PT9848</name></trkpt>
<trkpt lat="53.374789" lon="-1.782351"><ele>237</ele><time>2020-08-05T12:13:15Z</time><name>PT9849</name></trkpt>
<trkpt lat="53.374776" lon="-1.782350"><ele>237</ele><time>2020-08-05T12:13:16Z</time><name>PT9850</name></trkpt>
<trkpt lat="53.374771" lon="-1.782346"><ele>234</ele><time>2020-08-05T12:13:17Z</time><name>PT9851</name></trkpt>
<trkpt lat="53.374757" lon="-1.782341"><ele>233</ele><time>2020-08-05T12:13:18Z</time><name>PT9852</name></trkpt>
<trkpt lat="53.374749" lon="-1.782344"><ele>233</ele><time>2020-08-05T12:13:19Z</time><name>PT9853</name></trkpt>
<trkpt lat="53.374738" lon="-1.782357"><ele>234</ele><time>2020-08-05T12:13:20Z</time><name>PT9854</name></trkpt>
<trkpt lat="53.374729" lon="-1.782366"><ele>234</ele><time>2020-08-05T12:13:21Z</time><name>PT9855</name></trkpt>
<trkpt lat="53.374724" lon="-1.782373"><ele>233</ele><time>2020-08-05T12:13:22Z</time><name>PT9856</name></trkpt>
<trkpt lat="53.374716" lon="-1.782376"><ele>233</ele><time>2020-08-05T12:13:23Z</time><name>PT9857</name></trkpt>
<trkpt lat="53.374710" lon="-1.782377"><ele>233</ele><time>2020-08-05T12:13:24Z</time><name>PT9858</name></trkpt>
<trkpt lat="53.374708" lon="-1.782383"><ele>231</ele><time>2020-08-05T12:13:25Z</time><name>PT9859</name></trkpt>
<trkpt lat="53.374691" lon="-1.782387"><ele>232</ele><time>2020-08-05T12:13:25Z</time><name>PT9860</name></trkpt>
<trkpt lat="53.374678" lon="-1.782397"><ele>232</ele><time>2020-08-05T12:13:27Z</time><name>PT9861</name></trkpt>
<trkpt lat="53.374673" lon="-1.782407"><ele>232</ele><time>2020-08-05T12:13:28Z</time><name>PT9862</name></trkpt>
<trkpt lat="53.374653" lon="-1.782408"><ele>232</ele><time>2020-08-05T12:13:28Z</time><name>PT9863</name></trkpt>
<trkpt lat="53.374641" lon="-1.782414"><ele>233</ele><time>2020-08-05T12:13:30Z</time><name>PT9864</name></trkpt>
<trkpt lat="53.374632" lon="-1.782420"><ele>233</ele><time>2020-08-05T12:13:31Z</time><name>PT9865</name></trkpt>
<trkpt lat="53.374632" lon="-1.782432"><ele>231</ele><time>2020-08-05T12:13:31Z</time><name>PT9866</name></trkpt>
<trkpt lat="53.374640" lon="-1.782454"><ele>227</ele><time>2020-08-05T12:13:33Z</time><name>PT9867</name></trkpt>
<trkpt lat="53.374646" lon="-1.782461"><ele>226</ele><time>2020-08-05T12:13:34Z</time><name>PT9868</name></trkpt>
<trkpt lat="53.374642" lon="-1.782463"><ele>225</ele><time>2020-08-05T12:13:35Z</time><name>PT9869</name></trkpt>
<trkpt lat="53.374646" lon="-1.782463"><ele>219</ele><time>2020-08-05T12:13:36Z</time><name>PT9870</name></trkpt>
<trkpt lat="53.374635" lon="-1.782481"><ele>220</ele><time>2020-08-05T12:13:37Z</time><name>PT9871</name></trkpt>
<trkpt lat="53.374627" lon="-1.782494"><ele>220</ele><time>2020-08-05T12:13:37Z</time><name>PT9872</name></trkpt>
<trkpt lat="53.374619" lon="-1.782502"><ele>220</ele><time>2020-08-05T12:13:39Z</time><name>PT9873</name></trkpt>
<trkpt lat="53.374618" lon="-1.782513"><ele>219</ele><time>2020-08-05T12:13:40Z</time><name>PT9874</name></trkpt>
<trkpt lat="53.374615" lon="-1.782524"><ele>218</ele><time>2020-08-05T12:13:40Z</time><name>PT9875</name></trkpt>
<trkpt lat="53.374611" lon="-1.782528"><ele>217</ele><time>2020-08-05T12:13:42Z</time><name>PT9876</name></trkpt>
<trkpt lat="53.374604" lon="-1.782537"><ele>217</ele><time>2020-08-05T12:13:43Z</time><name>PT9877</name></trkpt>
<trkpt lat="53.374600" lon="-1.782548"><ele>217</ele><time>2020-08-05T12:13:43Z</time><name>PT9878</name></trkpt>
<trkpt lat="53.374578" lon="-1.782567"><ele>219</ele><time>2020-08-05T12:13:45Z</time><name>PT9879</name></trkpt>
<trkpt lat="53.374571" lon="-1.782577"><ele>219</ele><time>2020-08-05T12:13:46Z</time><name>PT9880</name></trkpt>
<trkpt lat="53.374558" lon="-1.782585"><ele>220</ele><time>2020-08-05T12:13:46Z</time><name>PT9881</name></trkpt>
<trkpt lat="53.374539" lon="-1.782598"><ele>222</ele><time>2020-08-05T12:13:48Z</time><name>PT9882</name></trkpt>
<trkpt lat="53.374532" lon="-1.782604"><ele>222</ele><time>2020-08-05T12:13:49Z</time><name>PT9883</name></trkpt>
<trkpt lat="53.374525" lon="-1.782619"><ele>223</ele><time>2020-08-05T12:13:49Z</time><name>PT9884</name></trkpt>
<trkpt lat="53.374519" lon="-1.782634"><ele>222</ele><time>2020-08-05T12:13:51Z</time><name>PT9885</name></trkpt>
<trkpt lat="53.374496" lon="-1.782640"><ele>225</ele><time>2020-08-05T12:13:52Z</time><name>PT9886</name></trkpt>
<trkpt lat="53.374482" lon="-1.782651"><ele>226</ele><time>2020-08-05T12:13:52Z</time><name>PT9887</name></trkpt>
<trkpt lat="53.374476" lon="-1.782668"><ele>225</ele><time>2020-08-05T12:13:54Z</time><name>PT9888</name></trkpt>
<trkpt lat="53.374474" lon="-1.782679"><ele>225</ele><time>2020-08-05T12:13:55Z</time><name>PT9889</name></trkpt>
<trkpt lat="53.374460" lon="-1.782710"><ele>226</ele><time>2020-08-05T12:13:55Z</time><name>PT9890</name></trkpt>
<trkpt lat="53.374445" lon="-1.782747"><ele>228</ele><time>2020-08-05T12:13:57Z</time><name>PT9891</name></trkpt>
<trkpt lat="53.374432" lon="-1.782758"><ele>229</ele><time>2020-08-05T12:13:58Z</time><name>PT9892</name></trkpt>
<trkpt lat="53.374421" lon="-1.782775"><ele>229</ele><time>2020-08-05T12:13:58Z</time><name>PT9893</name></trkpt>
<trkpt lat="53.374411" lon="-1.782790"><ele>230</ele><time>2020-08-05T12:14:00Z</time><name>PT9894</name></trkpt>
<trkpt lat="53.374401" lon="-1.782805"><ele>230</ele><time>2020-08-05T12:14:01Z</time><name>PT9895</name></trkpt>
<trkpt lat="53.374395" lon="-1.782812"><ele>231</ele><time>2020-08-05T12:14:25Z</time><name>PT9896</name></trkpt>
<trkpt lat="53.374387" lon="-1.782825"><ele>231</ele><time>2020-08-05T12:14:27Z</time><name>PT9897</name></trkpt>
<trkpt lat="53.374374" lon="-1.782834"><ele>231</ele><time>2020-08-05T12:14:28Z</time><name>PT9898</name></trkpt>
<trkpt lat="53.374365" lon="-1.782858"><ele>231</ele><time>2020-08-05T12:14:28Z</time><name>PT9899</name></trkpt>
<trkpt lat="53.374357" lon="-1.782877"><ele>231</ele><time>2020-08-05T12:14:30Z</time><name>PT9900</name></trkpt>
<trkpt lat="53.374348" lon="-1.782891"><ele>231</ele><time>2020-08-05T12:14:31Z</time><name>PT9901</name></trkpt>
<trkpt lat="53.374335" lon="-1.782900"><ele>231</ele><time>2020-08-05T12:14:32Z</time><name>PT9902</name></trkpt>
<trkpt lat="53.374330" lon="-1.782903"><ele>231</ele><time>2020-08-05T12:14:33Z</time><name>PT9903</name></trkpt>
<trkpt lat="53.374326" lon="-1.782905"><ele>231</ele><time>2020-08-05T12:14:34Z</time><name>PT9904</name></trkpt>
<trkpt lat="53.374317" lon="-1.782914"><ele>231</ele><time>2020-08-05T12:14:38Z</time><name>PT9905</name></trkpt>
<trkpt lat="53.374303" lon="-1.782934"><ele>231</ele><time>2020-08-05T12:14:39Z</time><name>PT9906</name></trkpt>
<trkpt lat="53.374295" lon="-1.782940"><ele>231</ele><time>2020-08-05T12:14:40Z</time><name>PT9907</name></trkpt>
<trkpt lat="53.374290" lon="-1.782947"><ele>230</ele><time>2020-08-05T12:14:41Z</time><name>PT9908</name></trkpt>
<trkpt lat="53.374273" lon="-1.782980"><ele>230</ele><time>2020-08-05T12:14:44Z</time><name>PT9909</name></trkpt>
<trkpt lat="53.374263" lon="-1.783001"><ele>230</ele><time>2020-08-05T12:14:45Z</time><name>PT9910</name></trkpt>
<trkpt lat="53.374257" lon="-1.783009"><ele>230</ele><time>2020-08-05T12:14:46Z</time><name>PT9911</name></trkpt>
<trkpt lat="53.374249" lon="-1.783017"><ele>231</ele><time>2020-08-05T12:15:06Z</time><name>PT9912</name></trkpt>
<trkpt lat="53.374242" lon="-1.783021"><ele>231</ele><time>2020-08-05T12:15:07Z</time><name>PT9913</name></trkpt>
<trkpt lat="53.374235" lon="-1.783031"><ele>231</ele><time>2020-08-05T12:15:08Z</time><name>PT9914</name></trkpt>
<trkpt lat="53.374227" lon="-1.783039"><ele>231</ele><time>2020-08-05T12:15:09Z</time><name>PT9915</name></trkpt>
<trkpt lat="53.374223" lon="-1.783048"><ele>231</ele><time>2020-08-05T12:15:10Z</time><name>PT9916</name></trkpt>
<trkpt lat="53.374224" lon="-1.783053"><ele>231</ele><time>2020-08-05T12:15:11Z</time><name>PT9917</name></trkpt>
<trkpt lat="53.374226" lon="-1.783052"><ele>232</ele><time>2020-08-05T12:15:12Z</time><name>PT9918</name></trkpt>
<trkpt lat="53.374224" lon="-1.783051"><ele>232</ele><time>2020-08-05T12:15:13Z</time><name>PT9919</name></trkpt>
<trkpt lat="53.374223" lon="-1.783049"><ele>232</ele><time>2020-08-05T12:15:14Z</time><name>PT9920</name></trkpt>
<trkpt lat="53.374215" lon="-1.783052"><ele>232</ele><time>2020-08-05T12:15:15Z</time><name>PT9921</name></trkpt>
<trkpt lat="53.374204" lon="-1.783068"><ele>233</ele><time>2020-08-05T12:15:16Z</time><name>PT9922</name></trkpt>
<trkpt lat="53.374195" lon="-1.783081"><ele>233</ele><time>2020-08-05T12:15:16Z</time><name>PT9923</name></trkpt>
<trkpt lat="53.374187" lon="-1.783096"><ele>233</ele><time>2020-08-05T12:15:18Z</time><name>PT9924</name></trkpt>
<trkpt lat="53.374178" lon="-1.783107"><ele>234</ele><time>2020-08-05T12:15:19Z</time><name>PT9925</name></trkpt>
<trkpt lat="53.374169" lon="-1.783117"><ele>234</ele><time>2020-08-05T12:15:20Z</time><name>PT9926</name></trkpt>
<trkpt lat="53.374162" lon="-1.783124"><ele>235</ele><time>2020-08-05T12:15:21Z</time><name>PT9927</name></trkpt>
<trkpt lat="53.374155" lon="-1.783133"><ele>235</ele><time>2020-08-05T12:15:22Z</time><name>PT9928</name></trkpt>
<trkpt lat="53.374146" lon="-1.783146"><ele>235</ele><time>2020-08-05T12:15:22Z</time><name>PT9929</name></trkpt>
<trkpt lat="53.374136" lon="-1.783161"><ele>235</ele><time>2020-08-05T12:15:24Z</time><name>PT9930</name></trkpt>
<trkpt lat="53.374127" lon="-1.783175"><ele>235</ele><time>2020-08-05T12:15:25Z</time><name>PT9931</name></trkpt>
<trkpt lat="53.374119" lon="-1.783187"><ele>235</ele><time>2020-08-05T12:15:25Z</time><name>PT9932</name></trkpt>
<trkpt lat="53.374113" lon="-1.783202"><ele>235</ele><time>2020-08-05T12:15:27Z</time><name>PT9933</name></trkpt>
<trkpt lat="53.374108" lon="-1.783215"><ele>235</ele><time>2020-08-05T12:15:28Z</time><name>PT9934</name></trkpt>
<trkpt lat="53.374101" lon="-1.783228"><ele>235</ele><time>2020-08-05T12:15:28Z</time><name>PT9935</name></trkpt>
<trkpt lat="53.374093" lon="-1.783240"><ele>235</ele><time>2020-08-05T12:15:30Z</time><name>PT9936</name></trkpt>
<trkpt lat="53.374084" lon="-1.783252"><ele>235</ele><time>2020-08-05T12:15:31Z</time><name>PT9937</name></trkpt>
<trkpt lat="53.374077" lon="-1.783265"><ele>235</ele><time>2020-08-05T12:15:32Z</time><name>PT9938</name></trkpt>
<trkpt lat="53.374071" lon="-1.783281"><ele>234</ele><time>2020-08-05T12:15:33Z</time><name>PT9939</name></trkpt>
<trkpt lat="53.374063" lon="-1.783298"><ele>235</ele><time>2020-08-05T12:15:34Z</time><name>PT9940</name></trkpt>
<trkpt lat="53.374055" lon="-1.783315"><ele>235</ele><time>2020-08-05T12:15:34Z</time><name>PT9941</name></trkpt>
<trkpt lat="53.374046" lon="-1.783332"><ele>235</ele><time>2020-08-05T12:15:36Z</time><name>PT9942</name></trkpt>
<trkpt lat="53.374039" lon="-1.783349"><ele>235</ele><time>2020-08-05T12:15:37Z</time><name>PT9943</name></trkpt>
<trkpt lat="53.374032" lon="-1.783367"><ele>235</ele><time>2020-08-05T12:15:38Z</time><name>PT9944</name></trkpt>
<trkpt lat="53.374025" lon="-1.783386"><ele>235</ele><time>2020-08-05T12:15:39Z</time><name>PT9945</name></trkpt>
<trkpt lat="53.374019" lon="-1.783403"><ele>235</ele><time>2020-08-05T12:15:40Z</time><name>PT9946</name></trkpt>
<trkpt lat="53.374013" lon="-1.783423"><ele>235</ele><time>2020-08-05T12:15:41Z</time><name>PT9947</name></trkpt>
<trkpt lat="53.374007" lon="-1.783443"><ele>235</ele><time>2020-08-05T12:15:42Z</time><name>PT9948</name></trkpt>
<trkpt lat="53.374000" lon="-1.783459"><ele>235</ele><time>2020-08-05T12:15:43Z</time><name>PT9949</name></trkpt>
<trkpt lat="53.373993" lon="-1.783474"><ele>235</ele><time>2020-08-05T12:15:43Z</time><name>PT9950</name></trkpt>
<trkpt lat="53.373986" lon="-1.783491"><ele>235</ele><time>2020-08-05T12:15:45Z</time><name>PT9951</name></trkpt>
<trkpt lat="53.373978" lon="-1.783509"><ele>235</ele><time>2020-08-05T12:15:46Z</time><name>PT9952</name></trkpt>
<trkpt lat="53.373971" lon="-1.783525"><ele>235</ele><time>2020-08-05T12:15:46Z</time><name>PT9953</name></trkpt>
<trkpt lat="53.373964" lon="-1.783544"><ele>235</ele><time>2020-08-05T12:15:48Z</time><name>PT9954</name></trkpt>
<trkpt lat="53.373958" lon="-1.783562"><ele>235</ele><time>2020-08-05T12:15:49Z</time><name>PT9955</name></trkpt>
<trkpt lat="53.373953" lon="-1.783573"><ele>235</ele><time>2020-08-05T12:15:49Z</time><name>PT9956</name></trkpt>
<trkpt lat="53.373949" lon="-1.783587"><ele>235</ele><time>2020-08-05T12:15:51Z</time><name>PT9957</name></trkpt>
<trkpt lat="53.373943" lon="-1.783603"><ele>235</ele><time>2020-08-05T12:15:52Z</time><name>PT9958</name></trkpt>
<trkpt lat="53.373939" lon="-1.783616"><ele>235</ele><time>2020-08-05T12:15:52Z</time><name>PT9959</name></trkpt>
<trkpt lat="53.373930" lon="-1.783631"><ele>235</ele><time>2020-08-05T12:15:54Z</time><name>PT9960</name></trkpt>
<trkpt lat="53.373926" lon="-1.783651"><ele>235</ele><time>2020-08-05T12:15:55Z</time><name>PT9961</name></trkpt>
<trkpt lat="53.373920" lon="-1.783667"><ele>235</ele><time>2020-08-05T12:15:55Z</time><name>PT9962</name></trkpt>
<trkpt lat="53.373917" lon="-1.783678"><ele>234</ele><time>2020-08-05T12:15:57Z</time><name>PT9963</name></trkpt>
<trkpt lat="53.373912" lon="-1.783692"><ele>236</ele><time>2020-08-05T12:15:58Z</time><name>PT9964</name></trkpt>
<trkpt lat="53.373907" lon="-1.783707"><ele>236</ele><time>2020-08-05T12:15:59Z</time><name>PT9965</name></trkpt>
<trkpt lat="53.373899" lon="-1.783725"><ele>236</ele><time>2020-08-05T12:16:00Z</time><name>PT9966</name></trkpt>
<trkpt lat="53.373894" lon="-1.783739"><ele>236</ele><time>2020-08-05T12:16:01Z</time><name>PT9967</name></trkpt>
<trkpt lat="53.373887" lon="-1.783757"><ele>236</ele><time>2020-08-05T12:16:01Z</time><name>PT9968</name></trkpt>
<trkpt lat="53.373881" lon="-1.783773"><ele>236</ele><time>2020-08-05T12:16:03Z</time><name>PT9969</name></trkpt>
<trkpt lat="53.373880" lon="-1.783785"><ele>234</ele><time>2020-08-05T12:16:04Z</time><name>PT9970</name></trkpt>
<trkpt lat="53.373879" lon="-1.783796"><ele>234</ele><time>2020-08-05T12:16:05Z</time><name>PT9971</name></trkpt>
<trkpt lat="53.373878" lon="-1.783810"><ele>234</ele><time>2020-08-05T12:16:06Z</time><name>PT9972</name></trkpt>
<trkpt lat="53.373875" lon="-1.783828"><ele>234</ele><time>2020-08-05T12:16:07Z</time><name>PT9973</name></trkpt>
<trkpt lat="53.373870" lon="-1.783842"><ele>234</ele><time>2020-08-05T12:16:08Z</time><name>PT9974</name></trkpt>
<trkpt lat="53.373861" lon="-1.783860"><ele>235</ele><time>2020-08-05T12:16:09Z</time><name>PT9975</name></trkpt>
<trkpt lat="53.373854" lon="-1.783878"><ele>235</ele><time>2020-08-05T12:16:10Z</time><name>PT9976</name></trkpt>
<trkpt lat="53.373848" lon="-1.783899"><ele>234</ele><time>2020-08-05T12:16:11Z</time><name>PT9977</name></trkpt>
<trkpt lat="53.373841" lon="-1.783919"><ele>234</ele><time>2020-08-05T12:16:12Z</time><name>PT9978</name></trkpt>
<trkpt lat="53.373836" lon="-1.783937"><ele>234</ele><time>2020-08-05T12:16:13Z</time><name>PT9979</name></trkpt>
<trkpt lat="53.373833" lon="-1.783954"><ele>234</ele><time>2020-08-05T12:16:14Z</time><name>PT9980</name></trkpt>
<trkpt lat="53.373826" lon="-1.783970"><ele>234</ele><time>2020-08-05T12:16:15Z</time><name>PT9981</name></trkpt>
<trkpt lat="53.373819" lon="-1.783989"><ele>234</ele><time>2020-08-05T12:16:16Z</time><name>PT9982</name></trkpt>
<trkpt lat="53.373815" lon="-1.784009"><ele>233</ele><time>2020-08-05T12:16:17Z</time><name>PT9983</name></trkpt>
<trkpt lat="53.373809" lon="-1.784029"><ele>233</ele><time>2020-08-05T12:16:18Z</time><name>PT9984</name></trkpt>
<trkpt lat="53.373804" lon="-1.784045"><ele>232</ele><time>2020-08-05T12:16:19Z</time><name>PT9985</name></trkpt>
<trkpt lat="53.373802" lon="-1.784061"><ele>231</ele><time>2020-08-05T12:16:20Z</time><name>PT9986</name></trkpt>
<trkpt lat="53.373796" lon="-1.784081"><ele>231</ele><time>2020-08-05T12:16:21Z</time><name>PT9987</name></trkpt>
<trkpt lat="53.373791" lon="-1.784101"><ele>231</ele><time>2020-08-05T12:16:22Z</time><name>PT9988</name></trkpt>
<trkpt lat="53.373786" lon="-1.784119"><ele>231</ele><time>2020-08-05T12:16:23Z</time><name>PT9989</name></trkpt>
<trkpt lat="53.373783" lon="-1.784133"><ele>231</ele><time>2020-08-05T12:16:24Z</time><name>PT9990</name></trkpt>
<trkpt lat="53.373774" lon="-1.784151"><ele>230</ele><time>2020-08-05T12:16:25Z</time><name>PT9991</name></trkpt>
<trkpt lat="53.373767" lon="-1.784167"><ele>230</ele><time>2020-08-05T12:16:26Z</time><name>PT9992</name></trkpt>
<trkpt lat="53.373763" lon="-1.784184"><ele>229</ele><time>2020-08-05T12:16:27Z</time><name>PT9993</name></trkpt>
<trkpt lat="53.373762" lon="-1.784201"><ele>228</ele><time>2020-08-05T12:16:28Z</time><name>PT9994</name></trkpt>
<trkpt lat="53.373751" lon="-1.784217"><ele>228</ele><time>2020-08-05T12:16:29Z</time><name>PT9995</name></trkpt>
<trkpt lat="53.373745" lon="-1.784230"><ele>228</ele><time>2020-08-05T12:16:30Z</time><name>PT9996</name></trkpt>
<trkpt lat="53.373740" lon="-1.784249"><ele>228</ele><time>2020-08-05T12:16:31Z</time><name>PT9997</name></trkpt>
<trkpt lat="53.373732" lon="-1.784271"><ele>228</ele><time>2020-08-05T12:16:32Z</time><name>PT9998</name></trkpt>
<trkpt lat="53.373726" lon="-1.784289"><ele>228</ele><time>2020-08-05T12:16:33Z</time><name>PT9999</name></trkpt>
<trkpt lat="53.373724" lon="-1.784306"><ele>228</ele><time>2020-08-05T12:16:34Z</time><name>PT10000</name></trkpt>
<trkpt lat="53.373716" lon="-1.784322"><ele>228</ele><time>2020-08-05T12:16:34Z</time><name>PT10001</name></trkpt>
<trkpt lat="53.373706" lon="-1.784343"><ele>228</ele><time>2020-08-05T12:16:36Z</time><name>PT10002</name></trkpt>
<trkpt lat="53.373699" lon="-1.784366"><ele>228</ele><time>2020-08-05T12:16:37Z</time><name>PT10003</name></trkpt>
<trkpt lat="53.373694" lon="-1.784385"><ele>229</ele><time>2020-08-05T12:16:37Z</time><name>PT10004</name></trkpt>
<trkpt lat="53.373688" lon="-1.784403"><ele>229</ele><time>2020-08-05T12:16:39Z</time><name>PT10005</name></trkpt>
<trkpt lat="53.373680" lon="-1.784419"><ele>229</ele><time>2020-08-05T12:16:40Z</time><name>PT10006</name></trkpt>
<trkpt lat="53.373676" lon="-1.784437"><ele>229</ele><time>2020-08-05T12:16:40Z</time><name>PT10007</name></trkpt>
<trkpt lat="53.373659" lon="-1.784456"><ele>230</ele><time>2020-08-05T12:16:42Z</time><name>PT10008</name></trkpt>
<trkpt lat="53.373652" lon="-1.784475"><ele>230</ele><time>2020-08-05T12:16:43Z</time><name>PT10009</name></trkpt>
<trkpt lat="53.373645" lon="-1.784492"><ele>230</ele><time>2020-08-05T12:16:43Z</time><name>PT10010</name></trkpt>
<trkpt lat="53.373639" lon="-1.784512"><ele>231</ele><time>2020-08-05T12:16:45Z</time><name>PT10011</name></trkpt>
<trkpt lat="53.373635" lon="-1.784533"><ele>230</ele><time>2020-08-05T12:16:46Z</time><name>PT10012</name></trkpt>
<trkpt lat="53.373633" lon="-1.784556"><ele>230</ele><time>2020-08-05T12:16:46Z</time><name>PT10013</name></trkpt>
<trkpt lat="53.373630" lon="-1.784571"><ele>229</ele><time>2020-08-05T12:16:48Z</time><name>PT10014</name></trkpt>
<trkpt lat="53.373628" lon="-1.784583"><ele>228</ele><time>2020-08-05T12:16:49Z</time><name>PT10015</name></trkpt>
<trkpt lat="53.373625" lon="-1.784596"><ele>227</ele><time>2020-08-05T12:16:49Z</time><name>PT10016</name></trkpt>
<trkpt lat="53.373619" lon="-1.784608"><ele>227</ele><time>2020-08-05T12:16:51Z</time><name>PT10017</name></trkpt>
<trkpt lat="53.373614" lon="-1.784622"><ele>227</ele><time>2020-08-05T12:16:52Z</time><name>PT10018</name></trkpt>
<trkpt lat="53.373609" lon="-1.784641"><ele>228</ele><time>2020-08-05T12:16:52Z</time><name>PT10019</name></trkpt>
<trkpt lat="53.373610" lon="-1.784659"><ele>226</ele><time>2020-08-05T12:16:54Z</time><name>PT10020</name></trkpt>
<trkpt lat="53.373609" lon="-1.784673"><ele>226</ele><time>2020-08-05T12:16:55Z</time><name>PT10021</name></trkpt>
<trkpt lat="53.373606" lon="-1.784682"><ele>224</ele><time>2020-08-05T12:16:55Z</time><name>PT10022</name></trkpt>
<trkpt lat="53.373588" lon="-1.784689"><ele>225</ele><time>2020-08-05T12:16:57Z</time><name>PT10023</name></trkpt>
<trkpt lat="53.373580" lon="-1.784698"><ele>223</ele><time>2020-08-05T12:16:58Z</time><name>PT10024</name></trkpt>
<trkpt lat="53.373573" lon="-1.784714"><ele>223</ele><time>2020-08-05T12:16:58Z</time><name>PT10025</name></trkpt>
<trkpt lat="53.373555" lon="-1.784734"><ele>225</ele><time>2020-08-05T12:17:00Z</time><name>PT10026</name></trkpt>
<trkpt lat="53.373546" lon="-1.784747"><ele>226</ele><time>2020-08-05T12:17:01Z</time><name>PT10027</name></trkpt>
<trkpt lat="53.373529" lon="-1.784759"><ele>226</ele><time>2020-08-05T12:17:01Z</time><name>PT10028</name></trkpt>
<trkpt lat="53.373515" lon="-1.784777"><ele>228</ele><time>2020-08-05T12:17:03Z</time><name>PT10029</name></trkpt>
<trkpt lat="53.373499" lon="-1.784794"><ele>229</ele><time>2020-08-05T12:17:04Z</time><name>PT10030</name></trkpt>
<trkpt lat="53.373485" lon="-1.784809"><ele>231</ele><time>2020-08-05T12:17:04Z</time><name>PT10031</name></trkpt>
<trkpt lat="53.373475" lon="-1.784827"><ele>231</ele><time>2020-08-05T12:17:06Z</time><name>PT10032</name></trkpt>
<trkpt lat="53.373464" lon="-1.784840"><ele>231</ele><time>2020-08-05T12:17:07Z</time><name>PT10033</name></trkpt>
<trkpt lat="53.373456" lon="-1.784853"><ele>232</ele><time>2020-08-05T12:17:07Z</time><name>PT10034</name></trkpt>
<trkpt lat="53.373452" lon="-1.784877"><ele>232</ele><time>2020-08-05T12:17:09Z</time><name>PT10035</name></trkpt>
<trkpt lat="53.373449" lon="-1.784898"><ele>232</ele><time>2020-08-05T12:17:10Z</time><name>PT10036</name></trkpt>
<trkpt lat="53.373441" lon="-1.784915"><ele>232</ele><time>2020-08-05T12:17:10Z</time><name>PT10037</name></trkpt>
<trkpt lat="53.373431" lon="-1.784933"><ele>232</ele><time>2020-08-05T12:17:12Z</time><name>PT10038</name></trkpt>
<trkpt lat="53.373413" lon="-1.784963"><ele>233</ele><time>2020-08-05T12:17:13Z</time><name>PT10039</name></trkpt>
<trkpt lat="53.373403" lon="-1.784984"><ele>234</ele><time>2020-08-05T12:17:13Z</time><name>PT10040</name></trkpt>
<trkpt lat="53.373395" lon="-1.785008"><ele>235</ele><time>2020-08-05T12:17:15Z</time><name>PT10041</name></trkpt>
<trkpt lat="53.373390" lon="-1.785035"><ele>235</ele><time>2020-08-05T12:17:16Z</time><name>PT10042</name></trkpt>
<trkpt lat="53.373384" lon="-1.785058"><ele>234</ele><time>2020-08-05T12:17:16Z</time><name>PT10043</name></trkpt>
<trkpt lat="53.373380" lon="-1.785079"><ele>235</ele><time>2020-08-05T12:17:18Z</time><name>PT10044</name></trkpt>
<trkpt lat="53.373373" lon="-1.785100"><ele>235</ele><time>2020-08-05T12:17:19Z</time><name>PT10045</name></trkpt>
<trkpt lat="53.373366" lon="-1.785125"><ele>235</ele><time>2020-08-05T12:17:19Z</time><name>PT10046</name></trkpt>
<trkpt lat="53.373354" lon="-1.785150"><ele>236</ele><time>2020-08-05T12:17:21Z</time><name>PT10047</name></trkpt>
<trkpt lat="53.373344" lon="-1.785169"><ele>235</ele><time>2020-08-05T12:17:22Z</time><name>PT10048</name></trkpt>
<trkpt lat="53.373333" lon="-1.785194"><ele>236</ele><time>2020-08-05T12:17:23Z</time><name>PT10049</name></trkpt>
<trkpt lat="53.373325" lon="-1.785218"><ele>236</ele><time>2020-08-05T12:17:24Z</time><name>PT10050</name></trkpt>
<trkpt lat="53.373316" lon="-1.785239"><ele>236</ele><time>2020-08-05T12:17:25Z</time><name>PT10051</name></trkpt>
<trkpt lat="53.373307" lon="-1.785263"><ele>237</ele><time>2020-08-05T12:17:25Z</time><name>PT10052</name></trkpt>
<trkpt lat="53.373297" lon="-1.785287"><ele>237</ele><time>2020-08-05T12:17:27Z</time><name>PT10053</name></trkpt>
<trkpt lat="53.373292" lon="-1.785306"><ele>237</ele><time>2020-08-05T12:17:28Z</time><name>PT10054</name></trkpt>
<trkpt lat="53.373285" lon="-1.785327"><ele>237</ele><time>2020-08-05T12:17:29Z</time><name>PT10055</name></trkpt>
<trkpt lat="53.373275" lon="-1.785346"><ele>237</ele><time>2020-08-05T12:17:30Z</time><name>PT10056</name></trkpt>
<trkpt lat="53.373267" lon="-1.785369"><ele>237</ele><time>2020-08-05T12:17:31Z</time><name>PT10057</name></trkpt>
<trkpt lat="53.373261" lon="-1.785388"><ele>237</ele><time>2020-08-05T12:17:32Z</time><name>PT10058</name></trkpt>
<trkpt lat="53.373252" lon="-1.785411"><ele>238</ele><time>2020-08-05T12:17:33Z</time><name>PT10059</name></trkpt>
<trkpt lat="53.373244" lon="-1.785430"><ele>238</ele><time>2020-08-05T12:17:34Z</time><name>PT10060</name></trkpt>
<trkpt lat="53.373237" lon="-1.785450"><ele>238</ele><time>2020-08-05T12:17:35Z</time><name>PT10061</name></trkpt>
<trkpt lat="53.373229" lon="-1.785473"><ele>238</ele><time>2020-08-05T12:17:36Z</time><name>PT10062</name></trkpt>
<trkpt lat="53.373220" lon="-1.785495"><ele>238</ele><time>2020-08-05T12:17:37Z</time><name>PT10063</name></trkpt>
<trkpt lat="53.373212" lon="-1.785516"><ele>238</ele><time>2020-08-05T12:17:38Z</time><name>PT10064</name></trkpt>
<trkpt lat="53.373205" lon="-1.785539"><ele>238</ele><time>2020-08-05T12:17:39Z</time><name>PT10065</name></trkpt>
<trkpt lat="53.373200" lon="-1.785563"><ele>238</ele><time>2020-08-05T12:17:40Z</time><name>PT10066</name></trkpt>
<trkpt lat="53.373192" lon="-1.785587"><ele>238</ele><time>2020-08-05T12:17:41Z</time><name>PT10067</name></trkpt>
<trkpt lat="53.373186" lon="-1.785609"><ele>239</ele><time>2020-08-05T12:17:42Z</time><name>PT10068</name></trkpt>
<trkpt lat="53.373180" lon="-1.785628"><ele>239</ele><time>2020-08-05T12:17:43Z</time><name>PT10069</name></trkpt>
<trkpt lat="53.373173" lon="-1.785647"><ele>239</ele><time>2020-08-05T12:17:44Z</time><name>PT10070</name></trkpt>
<trkpt lat="53.373165" lon="-1.785669"><ele>238</ele><time>2020-08-05T12:17:45Z</time><name>PT10071</name></trkpt>
<trkpt lat="53.373158" lon="-1.785688"><ele>239</ele><time>2020-08-05T12:17:46Z</time><name>PT10072</name></trkpt>
<trkpt lat="53.373152" lon="-1.785705"><ele>239</ele><time>2020-08-05T12:17:46Z</time><name>PT10073</name></trkpt>
<trkpt lat="53.373147" lon="-1.785723"><ele>238</ele><time>2020-08-05T12:17:48Z</time><name>PT10074</name></trkpt>
<trkpt lat="53.373142" lon="-1.785744"><ele>238</ele><time>2020-08-05T12:17:49Z</time><name>PT10075</name></trkpt>
<trkpt lat="53.373136" lon="-1.785761"><ele>238</ele><time>2020-08-05T12:17:49Z</time><name>PT10076</name></trkpt>
<trkpt lat="53.373128" lon="-1.785782"><ele>238</ele><time>2020-08-05T12:17:51Z</time><name>PT10077</name></trkpt>
<trkpt lat="53.373120" lon="-1.785800"><ele>238</ele><time>2020-08-05T12:17:52Z</time><name>PT10078</name></trkpt>
<trkpt lat="53.373112" lon="-1.785817"><ele>238</ele><time>2020-08-05T12:17:52Z</time><name>PT10079</name></trkpt>
<trkpt lat="53.373106" lon="-1.785836"><ele>239</ele><time>2020-08-05T12:17:54Z</time><name>PT10080</name></trkpt>
<trkpt lat="53.373099" lon="-1.785859"><ele>239</ele><time>2020-08-05T12:17:55Z</time><name>PT10081</name></trkpt>
<trkpt lat="53.373094" lon="-1.785886"><ele>238</ele><time>2020-08-05T12:17:55Z</time><name>PT10082</name></trkpt>
<trkpt lat="53.373085" lon="-1.785905"><ele>239</ele><time>2020-08-05T12:17:57Z</time><name>PT10083</name></trkpt>
<trkpt lat="53.373077" lon="-1.785922"><ele>239</ele><time>2020-08-05T12:17:58Z</time><name>PT10084</name></trkpt>
<trkpt lat="53.373068" lon="-1.785941"><ele>239</ele><time>2020-08-05T12:17:58Z</time><name>PT10085</name></trkpt>
<trkpt lat="53.373059" lon="-1.785959"><ele>239</ele><time>2020-08-05T12:18:00Z</time><name>PT10086</name></trkpt>
<trkpt lat="53.373052" lon="-1.785975"><ele>239</ele><time>2020-08-05T12:18:01Z</time><name>PT10087</name></trkpt>
<trkpt lat="53.373045" lon="-1.785994"><ele>239</ele><time>2020-08-05T12:18:01Z</time><name>PT10088</name></trkpt>
<trkpt lat="53.373039" lon="-1.786014"><ele>239</ele><time>2020-08-05T12:18:03Z</time><name>PT10089</name></trkpt>
<trkpt lat="53.373030" lon="-1.786030"><ele>239</ele><time>2020-08-05T12:18:04Z</time><name>PT10090</name></trkpt>
<trkpt lat="53.373023" lon="-1.786046"><ele>239</ele><time>2020-08-05T12:18:04Z</time><name>PT10091</name></trkpt>
<trkpt lat="53.373015" lon="-1.786063"><ele>238</ele><time>2020-08-05T12:18:06Z</time><name>PT10092</name></trkpt>
<trkpt lat="53.373006" lon="-1.786080"><ele>238</ele><time>2020-08-05T12:18:07Z</time><name>PT10093</name></trkpt>
<trkpt lat="53.372996" lon="-1.786089"><ele>239</ele><time>2020-08-05T12:18:07Z</time><name>PT10094</name></trkpt>
<trkpt lat="53.372987" lon="-1.786102"><ele>239</ele><time>2020-08-05T12:18:09Z</time><name>PT10095</name></trkpt>
<trkpt lat="53.372978" lon="-1.786118"><ele>240</ele><time>2020-08-05T12:18:10Z</time><name>PT10096</name></trkpt>
<trkpt lat="53.372967" lon="-1.786138"><ele>240</ele><time>2020-08-05T12:18:10Z</time><name>PT10097</name></trkpt>
<trkpt lat="53.372958" lon="-1.786154"><ele>240</ele><time>2020-08-05T12:18:12Z</time><name>PT10098</name></trkpt>
<trkpt lat="53.372950" lon="-1.786167"><ele>239</ele><time>2020-08-05T12:18:13Z</time><name>PT10099</name></trkpt>
<trkpt lat="53.372940" lon="-1.786182"><ele>239</ele><time>2020-08-05T12:18:13Z</time><name>PT10100</name></trkpt>
<trkpt lat="53.372928" lon="-1.786195"><ele>240</ele><time>2020-08-05T12:18:15Z</time><name>PT10101</name></trkpt>
<trkpt lat="53.372919" lon="-1.786209"><ele>240</ele><time>2020-08-05T12:18:16Z</time><name>PT10102</name></trkpt>
<trkpt lat="53.372910" lon="-1.786223"><ele>240</ele><time>2020-08-05T12:18:16Z</time><name>PT10103</name></trkpt>
<trkpt lat="53.372899" lon="-1.786238"><ele>240</ele><time>2020-08-05T12:18:18Z</time><name>PT10104</name></trkpt>
<trkpt lat="53.372889" lon="-1.786247"><ele>239</ele><time>2020-08-05T12:18:19Z</time><name>PT10105</name></trkpt>
<trkpt lat="53.372878" lon="-1.786257"><ele>239</ele><time>2020-08-05T12:18:19Z</time><name>PT10106</name></trkpt>
<trkpt lat="53.372870" lon="-1.786264"><ele>238</ele><time>2020-08-05T12:18:21Z</time><name>PT10107</name></trkpt>
<trkpt lat="53.372858" lon="-1.786281"><ele>238</ele><time>2020-08-05T12:18:22Z</time><name>PT10108</name></trkpt>
<trkpt lat="53.372849" lon="-1.786298"><ele>237</ele><time>2020-08-05T12:18:22Z</time><name>PT10109</name></trkpt>
<trkpt lat="53.372840" lon="-1.786308"><ele>238</ele><time>2020-08-05T12:18:24Z</time><name>PT10110</name></trkpt>
<trkpt lat="53.372829" lon="-1.786320"><ele>238</ele><time>2020-08-05T12:18:25Z</time><name>PT10111</name></trkpt>
<trkpt lat="53.372821" lon="-1.786337"><ele>237</ele><time>2020-08-05T12:18:26Z</time><name>PT10112</name></trkpt>
<trkpt lat="53.372813" lon="-1.786352"><ele>237</ele><time>2020-08-05T12:18:27Z</time><name>PT10113</name></trkpt>
<trkpt lat="53.372803" lon="-1.786370"><ele>238</ele><time>2020-08-05T12:18:28Z</time><name>PT10114</name></trkpt>
<trkpt lat="53.372795" lon="-1.786384"><ele>238</ele><time>2020-08-05T12:18:28Z</time><name>PT10115</name></trkpt>
<trkpt lat="53.372784" lon="-1.786399"><ele>238</ele><time>2020-08-05T12:18:30Z</time><name>PT10116</name></trkpt>
<trkpt lat="53.372772" lon="-1.786418"><ele>238</ele><time>2020-08-05T12:18:31Z</time><name>PT10117</name></trkpt>
<trkpt lat="53.372762" lon="-1.786434"><ele>238</ele><time>2020-08-05T12:18:31Z</time><name>PT10118</name></trkpt>
<trkpt lat="53.372753" lon="-1.786451"><ele>238</ele><time>2020-08-05T12:18:33Z</time><name>PT10119</name></trkpt>
<trkpt lat="53.372744" lon="-1.786468"><ele>238</ele><time>2020-08-05T12:18:34Z</time><name>PT10120</name></trkpt>
<trkpt lat="53.372733" lon="-1.786488"><ele>236</ele><time>2020-08-05T12:18:34Z</time><name>PT10121</name></trkpt>
<trkpt lat="53.372723" lon="-1.786502"><ele>236</ele><time>2020-08-05T12:18:36Z</time><name>PT10122</name></trkpt>
<trkpt lat="53.372714" lon="-1.786517"><ele>237</ele><time>2020-08-05T12:18:37Z</time><name>PT10123</name></trkpt>
<trkpt lat="53.372707" lon="-1.786530"><ele>236</ele><time>2020-08-05T12:18:38Z</time><name>PT10124</name></trkpt>
<trkpt lat="53.372692" lon="-1.786534"><ele>237</ele><time>2020-08-05T12:18:39Z</time><name>PT10125</name></trkpt>
<trkpt lat="53.372681" lon="-1.786543"><ele>237</ele><time>2020-08-05T12:18:40Z</time><name>PT10126</name></trkpt>
<trkpt lat="53.372667" lon="-1.786554"><ele>237</ele><time>2020-08-05T12:18:41Z</time><name>PT10127</name></trkpt>
<trkpt lat="53.372657" lon="-1.786565"><ele>237</ele><time>2020-08-05T12:18:42Z</time><name>PT10128</name></trkpt>
<trkpt lat="53.372646" lon="-1.786580"><ele>237</ele><time>2020-08-05T12:18:43Z</time><name>PT10129</name></trkpt>
<trkpt lat="53.372640" lon="-1.786598"><ele>234</ele><time>2020-08-05T12:18:44Z</time><name>PT10130</name></trkpt>
<trkpt lat="53.372624" lon="-1.786615"><ele>235</ele><time>2020-08-05T12:18:45Z</time><name>PT10131</name></trkpt>
<trkpt lat="53.372615" lon="-1.786628"><ele>235</ele><time>2020-08-05T12:18:46Z</time><name>PT10132</name></trkpt>
<trkpt lat="53.372605" lon="-1.786645"><ele>234</ele><time>2020-08-05T12:18:47Z</time><name>PT10133</name></trkpt>
<trkpt lat="53.372593" lon="-1.786660"><ele>234</ele><time>2020-08-05T12:18:48Z</time><name>PT10134</name></trkpt>
<trkpt lat="53.372587" lon="-1.786670"><ele>233</ele><time>2020-08-05T12:18:49Z</time><name>PT10135</name></trkpt>
<trkpt lat="53.372574" lon="-1.786688"><ele>234</ele><time>2020-08-05T12:18:49Z</time><name>PT10136</name></trkpt>
<trkpt lat="53.372563" lon="-1.786705"><ele>235</ele><time>2020-08-05T12:18:51Z</time><name>PT10137</name></trkpt>
<trkpt lat="53.372553" lon="-1.786721"><ele>234</ele><time>2020-08-05T12:18:52Z</time><name>PT10138</name></trkpt>
<trkpt lat="53.372540" lon="-1.786736"><ele>234</ele><time>2020-08-05T12:18:53Z</time><name>PT10139</name></trkpt>
<trkpt lat="53.372534" lon="-1.786744"><ele>233</ele><time>2020-08-05T12:18:54Z</time><name>PT10140</name></trkpt>
<trkpt lat="53.372524" lon="-1.786756"><ele>233</ele><time>2020-08-05T12:18:55Z</time><name>PT10141</name></trkpt>
<trkpt lat="53.372512" lon="-1.786768"><ele>234</ele><time>2020-08-05T12:18:56Z</time><name>PT10142</name></trkpt>
<trkpt lat="53.372503" lon="-1.786784"><ele>233</ele><time>2020-08-05T12:18:57Z</time><name>PT10143</name></trkpt>
<trkpt lat="53.372491" lon="-1.786803"><ele>234</ele><time>2020-08-05T12:18:58Z</time><name>PT10144</name></trkpt>
<trkpt lat="53.372481" lon="-1.786815"><ele>235</ele><time>2020-08-05T12:18:59Z</time><name>PT10145</name></trkpt>
<trkpt lat="53.372470" lon="-1.786832"><ele>235</ele><time>2020-08-05T12:19:00Z</time><name>PT10146</name></trkpt>
<trkpt lat="53.372461" lon="-1.786846"><ele>234</ele><time>2020-08-05T12:19:01Z</time><name>PT10147</name></trkpt>
<trkpt lat="53.372452" lon="-1.786857"><ele>233</ele><time>2020-08-05T12:19:02Z</time><name>PT10148</name></trkpt>
<trkpt lat="53.372445" lon="-1.786866"><ele>233</ele><time>2020-08-05T12:19:03Z</time><name>PT10149</name></trkpt>
<trkpt lat="53.372440" lon="-1.786880"><ele>232</ele><time>2020-08-05T12:19:04Z</time><name>PT10150</name></trkpt>
<trkpt lat="53.372428" lon="-1.786898"><ele>232</ele><time>2020-08-05T12:19:05Z</time><name>PT10151</name></trkpt>
<trkpt lat="53.372418" lon="-1.786912"><ele>232</ele><time>2020-08-05T12:19:06Z</time><name>PT10152</name></trkpt>
<trkpt lat="53.372408" lon="-1.786929"><ele>232</ele><time>2020-08-05T12:19:07Z</time><name>PT10153</name></trkpt>
<trkpt lat="53.372397" lon="-1.786944"><ele>233</ele><time>2020-08-05T12:19:08Z</time><name>PT10154</name></trkpt>
<trkpt lat="53.372394" lon="-1.786953"><ele>231</ele><time>2020-08-05T12:19:09Z</time><name>PT10155</name></trkpt>
<trkpt lat="53.372380" lon="-1.786970"><ele>233</ele><time>2020-08-05T12:19:10Z</time><name>PT10156</name></trkpt>
<trkpt lat="53.372375" lon="-1.786980"><ele>231</ele><time>2020-08-05T12:19:10Z</time><name>PT10157</name></trkpt>
<trkpt lat="53.372366" lon="-1.786988"><ele>230</ele><time>2020-08-05T12:19:12Z</time><name>PT10158</name></trkpt>
<trkpt lat="53.372354" lon="-1.787003"><ele>230</ele><time>2020-08-05T12:19:13Z</time><name>PT10159</name></trkpt>
<trkpt lat="53.372344" lon="-1.787016"><ele>230</ele><time>2020-08-05T12:19:13Z</time><name>PT10160</name></trkpt>
<trkpt lat="53.372338" lon="-1.787032"><ele>229</ele><time>2020-08-05T12:19:15Z</time><name>PT10161</name></trkpt>
<trkpt lat="53.372332" lon="-1.787046"><ele>229</ele><time>2020-08-05T12:19:16Z</time><name>PT10162</name></trkpt>
<trkpt lat="53.372333" lon="-1.787068"><ele>226</ele><time>2020-08-05T12:19:16Z</time><name>PT10163</name></trkpt>
<trkpt lat="53.372322" lon="-1.787090"><ele>225</ele><time>2020-08-05T12:19:18Z</time><name>PT10164</name></trkpt>
<trkpt lat="53.372313" lon="-1.787095"><ele>225</ele><time>2020-08-05T12:19:19Z</time><name>PT10165</name></trkpt>
<trkpt lat="53.372300" lon="-1.787105"><ele>225</ele><time>2020-08-05T12:19:19Z</time><name>PT10166</name></trkpt>
<trkpt lat="53.372281" lon="-1.787112"><ele>227</ele><time>2020-08-05T12:19:21Z</time><name>PT10167</name></trkpt>
<trkpt lat="53.372270" lon="-1.787127"><ele>227</ele><time>2020-08-05T12:19:22Z</time><name>PT10168</name></trkpt>
<trkpt lat="53.372264" lon="-1.787141"><ele>227</ele><time>2020-08-05T12:19:22Z</time><name>PT10169</name></trkpt>
<trkpt lat="53.372257" lon="-1.787157"><ele>227</ele><time>2020-08-05T12:19:24Z</time><name>PT10170</name></trkpt>
<trkpt lat="53.372251" lon="-1.787165"><ele>226</ele><time>2020-08-05T12:19:25Z</time><name>PT10171</name></trkpt>
<trkpt lat="53.372244" lon="-1.787168"><ele>225</ele><time>2020-08-05T12:19:25Z</time><name>PT10172</name></trkpt>
<trkpt lat="53.372240" lon="-1.787177"><ele>224</ele><time>2020-08-05T12:19:27Z</time><name>PT10173</name></trkpt>
<trkpt lat="53.372232" lon="-1.787184"><ele>223</ele><time>2020-08-05T12:19:28Z</time><name>PT10174</name></trkpt>
<trkpt lat="53.372222" lon="-1.787199"><ele>224</ele><time>2020-08-05T12:19:28Z</time><name>PT10175</name></trkpt>
<trkpt lat="53.372215" lon="-1.787211"><ele>223</ele><time>2020-08-05T12:19:30Z</time><name>PT10176</name></trkpt>
<trkpt lat="53.372197" lon="-1.787224"><ele>224</ele><time>2020-08-05T12:19:31Z</time><name>PT10177</name></trkpt>
<trkpt lat="53.372185" lon="-1.787235"><ele>225</ele><time>2020-08-05T12:19:31Z</time><name>PT10178</name></trkpt>
<trkpt lat="53.372159" lon="-1.787258"><ele>227</ele><time>2020-08-05T12:19:33Z</time><name>PT10179</name></trkpt>
<trkpt lat="53.372145" lon="-1.787272"><ele>228</ele><time>2020-08-05T12:19:34Z</time><name>PT10180</name></trkpt>
<trkpt lat="53.372132" lon="-1.787287"><ele>228</ele><time>2020-08-05T12:19:34Z</time><name>PT10181</name></trkpt>
<trkpt lat="53.372123" lon="-1.787293"><ele>229</ele><time>2020-08-05T12:19:36Z</time><name>PT10182</name></trkpt>
<trkpt lat="53.372110" lon="-1.787298"><ele>230</ele><time>2020-08-05T12:19:37Z</time><name>PT10183</name></trkpt>
<trkpt lat="53.372090" lon="-1.787308"><ele>230</ele><time>2020-08-05T12:19:37Z</time><name>PT10184</name></trkpt>
<trkpt lat="53.372070" lon="-1.787315"><ele>232</ele><time>2020-08-05T12:19:39Z</time><name>PT10185</name></trkpt>
<trkpt lat="53.372056" lon="-1.787318"><ele>232</ele><time>2020-08-05T12:19:40Z</time><name>PT10186</name></trkpt>
<trkpt lat="53.372037" lon="-1.787331"><ele>233</ele><time>2020-08-05T12:19:40Z</time><name>PT10187</name></trkpt>
<trkpt lat="53.372022" lon="-1.787331"><ele>234</ele><time>2020-08-05T12:19:42Z</time><name>PT10188</name></trkpt>
<trkpt lat="53.371999" lon="-1.787333"><ele>235</ele><time>2020-08-05T12:19:43Z</time><name>PT10189</name></trkpt>
<trkpt lat="53.371984" lon="-1.787345"><ele>236</ele><time>2020-08-05T12:19:43Z</time><name>PT10190</name></trkpt>
<trkpt lat="53.371969" lon="-1.787348"><ele>236</ele><time>2020-08-05T12:19:45Z</time><name>PT10191</name></trkpt>
<trkpt lat="53.371956" lon="-1.787360"><ele>237</ele><time>2020-08-05T12:19:46Z</time><name>PT10192</name></trkpt>
<trkpt lat="53.371936" lon="-1.787367"><ele>236</ele><time>2020-08-05T12:19:46Z</time><name>PT10193</name></trkpt>
<trkpt lat="53.371926" lon="-1.787371"><ele>236</ele><time>2020-08-05T12:19:48Z</time><name>PT10194</name></trkpt>
<trkpt lat="53.371914" lon="-1.787377"><ele>236</ele><time>2020-08-05T12:19:49Z</time><name>PT10195</name></trkpt>
<trkpt lat="53.371904" lon="-1.787386"><ele>236</ele><time>2020-08-05T12:19:49Z</time><name>PT10196</name></trkpt>
<trkpt lat="53.371895" lon="-1.787397"><ele>234</ele><time>2020-08-05T12:19:51Z</time><name>PT10197</name></trkpt>
<trkpt lat="53.371884" lon="-1.787404"><ele>234</ele><time>2020-08-05T12:19:52Z</time><name>PT10198</name></trkpt>
<trkpt lat="53.371872" lon="-1.787414"><ele>232</ele><time>2020-08-05T12:19:52Z</time><name>PT10199</name></trkpt>
<trkpt lat="53.371862" lon="-1.787427"><ele>232</ele><time>2020-08-05T12:19:54Z</time><name>PT10200</name></trkpt>
<trkpt lat="53.371853" lon="-1.787437"><ele>231</ele><time>2020-08-05T12:19:55Z</time><name>PT10201</name></trkpt>
<trkpt lat="53.371842" lon="-1.787447"><ele>230</ele><time>2020-08-05T12:19:55Z</time><name>PT10202</name></trkpt>
<trkpt lat="53.371833" lon="-1.787459"><ele>230</ele><time>2020-08-05T12:19:57Z</time><name>PT10203</name></trkpt>
<trkpt lat="53.371829" lon="-1.787471"><ele>229</ele><time>2020-08-05T12:19:58Z</time><name>PT10204</name></trkpt>
<trkpt lat="53.371822" lon="-1.787489"><ele>229</ele><time>2020-08-05T12:19:58Z</time><name>PT10205</name></trkpt>
<trkpt lat="53.371813" lon="-1.787502"><ele>229</ele><time>2020-08-05T12:20:00Z</time><name>PT10206</name></trkpt>
<trkpt lat="53.371805" lon="-1.787518"><ele>228</ele><time>2020-08-05T12:20:01Z</time><name>PT10207</name></trkpt>
<trkpt lat="53.371794" lon="-1.787533"><ele>228</ele><time>2020-08-05T12:20:01Z</time><name>PT10208</name></trkpt>
<trkpt lat="53.371781" lon="-1.787543"><ele>228</ele><time>2020-08-05T12:20:03Z</time><name>PT10209</name></trkpt>
<trkpt lat="53.371771" lon="-1.787555"><ele>229</ele><time>2020-08-05T12:20:04Z</time><name>PT10210</name></trkpt>
<trkpt lat="53.371763" lon="-1.787569"><ele>229</ele><time>2020-08-05T12:20:04Z</time><name>PT10211</name></trkpt>
<trkpt lat="53.371753" lon="-1.787589"><ele>229</ele><time>2020-08-05T12:20:06Z</time><name>PT10212</name></trkpt>
<trkpt lat="53.371748" lon="-1.787604"><ele>228</ele><time>2020-08-05T12:20:07Z</time><name>PT10213</name></trkpt>
<trkpt lat="53.371748" lon="-1.787616"><ele>228</ele><time>2020-08-05T12:20:07Z</time><name>PT10214</name></trkpt>
<trkpt lat="53.371720" lon="-1.787671"><ele>232</ele><time>2020-08-05T12:20:09Z</time><name>PT10215</name></trkpt>
<trkpt lat="53.371706" lon="-1.787716"><ele>232</ele><time>2020-08-05T12:20:10Z</time><name>PT10216</name></trkpt>
<trkpt lat="53.371692" lon="-1.787743"><ele>234</ele><time>2020-08-05T12:20:11Z</time><name>PT10217</name></trkpt>
<trkpt lat="53.371678" lon="-1.787766"><ele>235</ele><time>2020-08-05T12:20:12Z</time><name>PT10218</name></trkpt>
<trkpt lat="53.371665" lon="-1.787786"><ele>237</ele><time>2020-08-05T12:20:13Z</time><name>PT10219</name></trkpt>
<trkpt lat="53.371653" lon="-1.787800"><ele>237</ele><time>2020-08-05T12:20:14Z</time><name>PT10220</name></trkpt>
<trkpt lat="53.371648" lon="-1.787815"><ele>238</ele><time>2020-08-05T12:20:15Z</time><name>PT10221</name></trkpt>
<trkpt lat="53.371643" lon="-1.787824"><ele>238</ele><time>2020-08-05T12:20:16Z</time><name>PT10222</name></trkpt>
<trkpt lat="53.371641" lon="-1.787835"><ele>238</ele><time>2020-08-05T12:20:16Z</time><name>PT10223</name></trkpt>
<trkpt lat="53.371641" lon="-1.787839"><ele>238</ele><time>2020-08-05T12:20:18Z</time><name>PT10224</name></trkpt>
<trkpt lat="53.371640" lon="-1.787843"><ele>237</ele><time>2020-08-05T12:20:19Z</time><name>PT10225</name></trkpt>
<trkpt lat="53.371641" lon="-1.787849"><ele>237</ele><time>2020-08-05T12:20:20Z</time><name>PT10226</name></trkpt>
<trkpt lat="53.371643" lon="-1.787863"><ele>237</ele><time>2020-08-05T12:20:21Z</time><name>PT10227</name></trkpt>
<trkpt lat="53.371647" lon="-1.787879"><ele>237</ele><time>2020-08-05T12:20:22Z</time><name>PT10228</name></trkpt>
<trkpt lat="53.371648" lon="-1.787895"><ele>237</ele><time>2020-08-05T12:20:22Z</time><name>PT10229</name></trkpt>
<trkpt lat="53.371648" lon="-1.787914"><ele>237</ele><time>2020-08-05T12:20:24Z</time><name>PT10230</name></trkpt>
<trkpt lat="53.371645" lon="-1.787925"><ele>236</ele><time>2020-08-05T12:20:25Z</time><name>PT10231</name></trkpt>
<trkpt lat="53.371640" lon="-1.787945"><ele>236</ele><time>2020-08-05T12:20:26Z</time><name>PT10232</name></trkpt>
<trkpt lat="53.371640" lon="-1.787968"><ele>236</ele><time>2020-08-05T12:20:27Z</time><name>PT10233</name></trkpt>
<trkpt lat="53.371639" lon="-1.787986"><ele>236</ele><time>2020-08-05T12:20:28Z</time><name>PT10234</name></trkpt>
<trkpt lat="53.371635" lon="-1.788007"><ele>236</ele><time>2020-08-05T12:20:29Z</time><name>PT10235</name></trkpt>
<trkpt lat="53.371633" lon="-1.788028"><ele>236</ele><time>2020-08-05T12:20:30Z</time><name>PT10236</name></trkpt>
<trkpt lat="53.371627" lon="-1.788048"><ele>236</ele><time>2020-08-05T12:20:31Z</time><name>PT10237</name></trkpt>
<trkpt lat="53.371623" lon="-1.788065"><ele>236</ele><time>2020-08-05T12:20:32Z</time><name>PT10238</name></trkpt>
<trkpt lat="53.371620" lon="-1.788087"><ele>236</ele><time>2020-08-05T12:20:33Z</time><name>PT10239</name></trkpt>
<trkpt lat="53.371621" lon="-1.788106"><ele>236</ele><time>2020-08-05T12:20:34Z</time><name>PT10240</name></trkpt>
<trkpt lat="53.371620" lon="-1.788126"><ele>235</ele><time>2020-08-05T12:20:34Z</time><name>PT10241</name></trkpt>
<trkpt lat="53.371620" lon="-1.788140"><ele>235</ele><time>2020-08-05T12:20:36Z</time><name>PT10242</name></trkpt>
<trkpt lat="53.371620" lon="-1.788159"><ele>235</ele><time>2020-08-05T12:20:37Z</time><name>PT10243</name></trkpt>
<trkpt lat="53.371621" lon="-1.788179"><ele>235</ele><time>2020-08-05T12:20:37Z</time><name>PT10244</name></trkpt>
<trkpt lat="53.371620" lon="-1.788198"><ele>235</ele><time>2020-08-05T12:20:39Z</time><name>PT10245</name></trkpt>
<trkpt lat="53.371622" lon="-1.788219"><ele>234</ele><time>2020-08-05T12:20:40Z</time><name>PT10246</name></trkpt>
<trkpt lat="53.371624" lon="-1.788237"><ele>234</ele><time>2020-08-05T12:20:40Z</time><name>PT10247</name></trkpt>
<trkpt lat="53.371620" lon="-1.788257"><ele>234</ele><time>2020-08-05T12:20:42Z</time><name>PT10248</name></trkpt>
<trkpt lat="53.371620" lon="-1.788276"><ele>234</ele><time>2020-08-05T12:20:43Z</time><name>PT10249</name></trkpt>
<trkpt lat="53.371620" lon="-1.788288"><ele>234</ele><time>2020-08-05T12:20:43Z</time><name>PT10250</name></trkpt>
<trkpt lat="53.371619" lon="-1.788300"><ele>234</ele><time>2020-08-05T12:20:45Z</time><name>PT10251</name></trkpt>
<trkpt lat="53.371618" lon="-1.788316"><ele>235</ele><time>2020-08-05T12:20:46Z</time><name>PT10252</name></trkpt>
<trkpt lat="53.371619" lon="-1.788328"><ele>233</ele><time>2020-08-05T12:20:46Z</time><name>PT10253</name></trkpt>
<trkpt lat="53.371621" lon="-1.788334"><ele>233</ele><time>2020-08-05T12:20:48Z</time><name>PT10254</name></trkpt>
<trkpt lat="53.371620" lon="-1.788336"><ele>234</ele><time>2020-08-05T12:20:49Z</time><name>PT10255</name></trkpt>
<trkpt lat="53.371621" lon="-1.788338"><ele>234</ele><time>2020-08-05T12:20:49Z</time><name>PT10256</name></trkpt>
<trkpt lat="53.371627" lon="-1.788338"><ele>233</ele><time>2020-08-05T12:20:51Z</time><name>PT10257</name></trkpt>
<trkpt lat="53.371631" lon="-1.788338"><ele>233</ele><time>2020-08-05T12:20:52Z</time><name>PT10258</name></trkpt>
<trkpt lat="53.371633" lon="-1.788345"><ele>232</ele><time>2020-08-05T12:20:55Z</time><name>PT10259</name></trkpt>
<trkpt lat="53.371634" lon="-1.788343"><ele>232</ele><time>2020-08-05T12:20:57Z</time><name>PT10260</name></trkpt>
<trkpt lat="53.371632" lon="-1.788346"><ele>232</ele><time>2020-08-05T12:20:58Z</time><name>PT10261</name></trkpt>
<trkpt lat="53.371631" lon="-1.788367"><ele>232</ele><time>2020-08-05T12:20:58Z</time><name>PT10262</name></trkpt>
<trkpt lat="53.371637" lon="-1.788396"><ele>232</ele><time>2020-08-05T12:21:00Z</time><name>PT10263</name></trkpt>
<trkpt lat="53.371639" lon="-1.788422"><ele>232</ele><time>2020-08-05T12:21:01Z</time><name>PT10264</name></trkpt>
<trkpt lat="53.371633" lon="-1.788448"><ele>233</ele><time>2020-08-05T12:21:02Z</time><name>PT10265</name></trkpt>
<trkpt lat="53.371633" lon="-1.788472"><ele>233</ele><time>2020-08-05T12:21:03Z</time><name>PT10266</name></trkpt>
<trkpt lat="53.371634" lon="-1.788492"><ele>234</ele><time>2020-08-05T12:21:04Z</time><name>PT10267</name></trkpt>
<trkpt lat="53.371633" lon="-1.788508"><ele>234</ele><time>2020-08-05T12:21:05Z</time><name>PT10268</name></trkpt>
<trkpt lat="53.371636" lon="-1.788532"><ele>234</ele><time>2020-08-05T12:21:06Z</time><name>PT10269</name></trkpt>
<trkpt lat="53.371637" lon="-1.788548"><ele>234</ele><time>2020-08-05T12:21:07Z</time><name>PT10270</name></trkpt>
<trkpt lat="53.371636" lon="-1.788565"><ele>235</ele><time>2020-08-05T12:21:08Z</time><name>PT10271</name></trkpt>
<trkpt lat="53.371641" lon="-1.788583"><ele>234</ele><time>2020-08-05T12:21:09Z</time><name>PT10272</name></trkpt>
<trkpt lat="53.371646" lon="-1.788606"><ele>235</ele><time>2020-08-05T12:21:10Z</time><name>PT10273</name></trkpt>
<trkpt lat="53.371647" lon="-1.788628"><ele>235</ele><time>2020-08-05T12:21:11Z</time><name>PT10274</name></trkpt>
<trkpt lat="53.371649" lon="-1.788649"><ele>235</ele><time>2020-08-05T12:21:12Z</time><name>PT10275</name></trkpt>
<trkpt lat="53.371651" lon="-1.788669"><ele>235</ele><time>2020-08-05T12:21:13Z</time><name>PT10276</name></trkpt>
<trkpt lat="53.371655" lon="-1.788687"><ele>235</ele><time>2020-08-05T12:21:14Z</time><name>PT10277</name></trkpt>
<trkpt lat="53.371659" lon="-1.788703"><ele>236</ele><time>2020-08-05T12:21:15Z</time><name>PT10278</name></trkpt>
<trkpt lat="53.371662" lon="-1.788719"><ele>236</ele><time>2020-08-05T12:21:16Z</time><name>PT10279</name></trkpt>
<trkpt lat="53.371663" lon="-1.788738"><ele>236</ele><time>2020-08-05T12:21:16Z</time><name>PT10280</name></trkpt>
<trkpt lat="53.371667" lon="-1.788759"><ele>237</ele><time>2020-08-05T12:21:18Z</time><name>PT10281</name></trkpt>
<trkpt lat="53.371671" lon="-1.788777"><ele>236</ele><time>2020-08-05T12:21:19Z</time><name>PT10282</name></trkpt>
<trkpt lat="53.371675" lon="-1.788793"><ele>236</ele><time>2020-08-05T12:21:20Z</time><name>PT10283</name></trkpt>
<trkpt lat="53.371679" lon="-1.788820"><ele>236</ele><time>2020-08-05T12:21:21Z</time><name>PT10284</name></trkpt>
<trkpt lat="53.371682" lon="-1.788852"><ele>236</ele><time>2020-08-05T12:21:22Z</time><name>PT10285</name></trkpt>
<trkpt lat="53.371682" lon="-1.788874"><ele>236</ele><time>2020-08-05T12:21:23Z</time><name>PT10286</name></trkpt>
<trkpt lat="53.371683" lon="-1.788893"><ele>236</ele><time>2020-08-05T12:21:24Z</time><name>PT10287</name></trkpt>
<trkpt lat="53.371677" lon="-1.788918"><ele>237</ele><time>2020-08-05T12:21:25Z</time><name>PT10288</name></trkpt>
<trkpt lat="53.371677" lon="-1.788940"><ele>238</ele><time>2020-08-05T12:21:25Z</time><name>PT10289</name></trkpt>
<trkpt lat="53.371678" lon="-1.788959"><ele>238</ele><time>2020-08-05T12:21:27Z</time><name>PT10290</name></trkpt>
<trkpt lat="53.371678" lon="-1.788979"><ele>238</ele><time>2020-08-05T12:21:28Z</time><name>PT10291</name></trkpt>
<trkpt lat="53.371678" lon="-1.789003"><ele>238</ele><time>2020-08-05T12:21:28Z</time><name>PT10292</name></trkpt>
<trkpt lat="53.371680" lon="-1.789021"><ele>238</ele><time>2020-08-05T12:21:30Z</time><name>PT10293</name></trkpt>
<trkpt lat="53.371681" lon="-1.789041"><ele>238</ele><time>2020-08-05T12:21:31Z</time><name>PT10294</name></trkpt>
<trkpt lat="53.371683" lon="-1.789062"><ele>238</ele><time>2020-08-05T12:21:31Z</time><name>PT10295</name></trkpt>
<trkpt lat="53.371685" lon="-1.789080"><ele>238</ele><time>2020-08-05T12:21:33Z</time><name>PT10296</name></trkpt>
<trkpt lat="53.371686" lon="-1.789098"><ele>238</ele><time>2020-08-05T12:21:34Z</time><name>PT10297</name></trkpt>
<trkpt lat="53.371687" lon="-1.789118"><ele>239</ele><time>2020-08-05T12:21:34Z</time><name>PT10298</name></trkpt>
<trkpt lat="53.371689" lon="-1.789141"><ele>239</ele><time>2020-08-05T12:21:36Z</time><name>PT10299</name></trkpt>
<trkpt lat="53.371692" lon="-1.789155"><ele>239</ele><time>2020-08-05T12:21:37Z</time><name>PT10300</name></trkpt>
<trkpt lat="53.371695" lon="-1.789172"><ele>240</ele><time>2020-08-05T12:21:37Z</time><name>PT10301</name></trkpt>
<trkpt lat="53.371700" lon="-1.789194"><ele>240</ele><time>2020-08-05T12:21:39Z</time><name>PT10302</name></trkpt>
<trkpt lat="53.371704" lon="-1.789212"><ele>241</ele><time>2020-08-05T12:21:40Z</time><name>PT10303</name></trkpt>
<trkpt lat="53.371708" lon="-1.789224"><ele>240</ele><time>2020-08-05T12:21:40Z</time><name>PT10304</name></trkpt>
<trkpt lat="53.371710" lon="-1.789238"><ele>240</ele><time>2020-08-05T12:21:42Z</time><name>PT10305</name></trkpt>
<trkpt lat="53.371714" lon="-1.789254"><ele>240</ele><time>2020-08-05T12:21:43Z</time><name>PT10306</name></trkpt>
<trkpt lat="53.371720" lon="-1.789269"><ele>240</ele><time>2020-08-05T12:21:43Z</time><name>PT10307</name></trkpt>
<trkpt lat="53.371722" lon="-1.789281"><ele>241</ele><time>2020-08-05T12:21:45Z</time><name>PT10308</name></trkpt>
<trkpt lat="53.371723" lon="-1.789285"><ele>241</ele><time>2020-08-05T12:21:46Z</time><name>PT10309</name></trkpt>
<trkpt lat="53.371721" lon="-1.789290"><ele>240</ele><time>2020-08-05T12:21:46Z</time><name>PT10310</name></trkpt>
<trkpt lat="53.371725" lon="-1.789290"><ele>240</ele><time>2020-08-05T12:21:48Z</time><name>PT10311</name></trkpt>
<trkpt lat="53.371726" lon="-1.789297"><ele>240</ele><time>2020-08-05T12:21:54Z</time><name>PT10312</name></trkpt>
<trkpt lat="53.371724" lon="-1.789300"><ele>240</ele><time>2020-08-05T12:21:55Z</time><name>PT10313</name></trkpt>
<trkpt lat="53.371720" lon="-1.789307"><ele>240</ele><time>2020-08-05T12:21:55Z</time><name>PT10314</name></trkpt>
<trkpt lat="53.371715" lon="-1.789315"><ele>240</ele><time>2020-08-05T12:21:57Z</time><name>PT10315</name></trkpt>
<trkpt lat="53.371717" lon="-1.789316"><ele>239</ele><time>2020-08-05T12:21:58Z</time><name>PT10316</name></trkpt>
<trkpt lat="53.371714" lon="-1.789323"><ele>239</ele><time>2020-08-05T12:21:58Z</time><name>PT10317</name></trkpt>
<trkpt lat="53.371716" lon="-1.789337"><ele>239</ele><time>2020-08-05T12:22:00Z</time><name>PT10318</name></trkpt>
<trkpt lat="53.371718" lon="-1.789353"><ele>238</ele><time>2020-08-05T12:22:01Z</time><name>PT10319</name></trkpt>
<trkpt lat="53.371714" lon="-1.789369"><ele>237</ele><time>2020-08-05T12:22:01Z</time><name>PT10320</name></trkpt>
<trkpt lat="53.371716" lon="-1.789377"><ele>237</ele><time>2020-08-05T12:22:03Z</time><name>PT10321</name></trkpt>
<trkpt lat="53.371719" lon="-1.789386"><ele>236</ele><time>2020-08-05T12:22:04Z</time><name>PT10322</name></trkpt>
<trkpt lat="53.371719" lon="-1.789395"><ele>236</ele><time>2020-08-05T12:22:04Z</time><name>PT10323</name></trkpt>
<trkpt lat="53.371720" lon="-1.789400"><ele>236</ele><time>2020-08-05T12:22:06Z</time><name>PT10324</name></trkpt>
<trkpt lat="53.371722" lon="-1.789404"><ele>236</ele><time>2020-08-05T12:22:07Z</time><name>PT10325</name></trkpt>
<trkpt lat="53.371722" lon="-1.789409"><ele>236</ele><time>2020-08-05T12:22:08Z</time><name>PT10326</name></trkpt>
<trkpt lat="53.371720" lon="-1.789424"><ele>237</ele><time>2020-08-05T12:22:09Z</time><name>PT10327</name></trkpt>
<trkpt lat="53.371721" lon="-1.789444"><ele>237</ele><time>2020-08-05T12:22:10Z</time><name>PT10328</name></trkpt>
<trkpt lat="53.371722" lon="-1.789462"><ele>238</ele><time>2020-08-05T12:22:10Z</time><name>PT10329</name></trkpt>
<trkpt lat="53.371727" lon="-1.789486"><ele>237</ele><time>2020-08-05T12:22:12Z</time><name>PT10330</name></trkpt>
<trkpt lat="53.371731" lon="-1.789501"><ele>238</ele><time>2020-08-05T12:22:13Z</time><name>PT10331</name></trkpt>
<trkpt lat="53.371734" lon="-1.789523"><ele>238</ele><time>2020-08-05T12:22:13Z</time><name>PT10332</name></trkpt>
<trkpt lat="53.371735" lon="-1.789543"><ele>238</ele><time>2020-08-05T12:22:15Z</time><name>PT10333</name></trkpt>
<trkpt lat="53.371740" lon="-1.789560"><ele>239</ele><time>2020-08-05T12:22:16Z</time><name>PT10334</name></trkpt>
<trkpt lat="53.371745" lon="-1.789584"><ele>239</ele><time>2020-08-05T12:22:17Z</time><name>PT10335</name></trkpt>
<trkpt lat="53.371750" lon="-1.789607"><ele>239</ele><time>2020-08-05T12:22:18Z</time><name>PT10336</name></trkpt>
<trkpt lat="53.371752" lon="-1.789625"><ele>239</ele><time>2020-08-05T12:22:19Z</time><name>PT10337</name></trkpt>
<trkpt lat="53.371754" lon="-1.789644"><ele>239</ele><time>2020-08-05T12:22:20Z</time><name>PT10338</name></trkpt>
<trkpt lat="53.371761" lon="-1.789658"><ele>240</ele><time>2020-08-05T12:22:21Z</time><name>PT10339</name></trkpt>
<trkpt lat="53.371763" lon="-1.789670"><ele>240</ele><time>2020-08-05T12:22:22Z</time><name>PT10340</name></trkpt>
<trkpt lat="53.371767" lon="-1.789674"><ele>240</ele><time>2020-08-05T12:22:23Z</time><name>PT10341</name></trkpt>
<trkpt lat="53.371765" lon="-1.789679"><ele>241</ele><time>2020-08-05T12:22:24Z</time><name>PT10342</name></trkpt>
<trkpt lat="53.371766" lon="-1.789682"><ele>241</ele><time>2020-08-05T12:22:25Z</time><name>PT10343</name></trkpt>
<trkpt lat="53.371768" lon="-1.789684"><ele>241</ele><time>2020-08-05T12:22:25Z</time><name>PT10344</name></trkpt>
<trkpt lat="53.371765" lon="-1.789699"><ele>241</ele><time>2020-08-05T12:22:55Z</time><name>PT10345</name></trkpt>
<trkpt lat="53.371766" lon="-1.789709"><ele>241</ele><time>2020-08-05T12:22:55Z</time><name>PT10346</name></trkpt>
<trkpt lat="53.371772" lon="-1.789719"><ele>241</ele><time>2020-08-05T12:22:57Z</time><name>PT10347</name></trkpt>
<trkpt lat="53.371773" lon="-1.789723"><ele>241</ele><time>2020-08-05T12:22:58Z</time><name>PT10348</name></trkpt>
<trkpt lat="53.371772" lon="-1.789727"><ele>241</ele><time>2020-08-05T12:22:58Z</time><name>PT10349</name></trkpt>
<trkpt lat="53.371769" lon="-1.789728"><ele>241</ele><time>2020-08-05T12:23:00Z</time><name>PT10350</name></trkpt>
<trkpt lat="53.371766" lon="-1.789731"><ele>242</ele><time>2020-08-05T12:23:01Z</time><name>PT10351</name></trkpt>
<trkpt lat="53.371766" lon="-1.789742"><ele>242</ele><time>2020-08-05T12:23:07Z</time><name>PT10352</name></trkpt>
<trkpt lat="53.371773" lon="-1.789756"><ele>242</ele><time>2020-08-05T12:23:09Z</time><name>PT10353</name></trkpt>
<trkpt lat="53.371777" lon="-1.789776"><ele>242</ele><time>2020-08-05T12:23:10Z</time><name>PT10354</name></trkpt>
<trkpt lat="53.371785" lon="-1.789797"><ele>243</ele><time>2020-08-05T12:23:10Z</time><name>PT10355</name></trkpt>
<trkpt lat="53.371794" lon="-1.789824"><ele>244</ele><time>2020-08-05T12:23:12Z</time><name>PT10356</name></trkpt>
<trkpt lat="53.371801" lon="-1.789842"><ele>243</ele><time>2020-08-05T12:23:13Z</time><name>PT10357</name></trkpt>
<trkpt lat="53.371802" lon="-1.789861"><ele>243</ele><time>2020-08-05T12:23:13Z</time><name>PT10358</name></trkpt>
<trkpt lat="53.371805" lon="-1.789879"><ele>243</ele><time>2020-08-05T12:23:15Z</time><name>PT10359</name></trkpt>
<trkpt lat="53.371806" lon="-1.789898"><ele>243</ele><time>2020-08-05T12:23:16Z</time><name>PT10360</name></trkpt>
<trkpt lat="53.371809" lon="-1.789917"><ele>243</ele><time>2020-08-05T12:23:16Z</time><name>PT10361</name></trkpt>
<trkpt lat="53.371814" lon="-1.789935"><ele>243</ele><time>2020-08-05T12:23:18Z</time><name>PT10362</name></trkpt>
<trkpt lat="53.371817" lon="-1.789952"><ele>243</ele><time>2020-08-05T12:23:19Z</time><name>PT10363</name></trkpt>
<trkpt lat="53.371823" lon="-1.789972"><ele>244</ele><time>2020-08-05T12:23:19Z</time><name>PT10364</name></trkpt>
<trkpt lat="53.371826" lon="-1.789990"><ele>244</ele><time>2020-08-05T12:23:21Z</time><name>PT10365</name></trkpt>
<trkpt lat="53.371831" lon="-1.790009"><ele>243</ele><time>2020-08-05T12:23:22Z</time><name>PT10366</name></trkpt>
<trkpt lat="53.371834" lon="-1.790032"><ele>243</ele><time>2020-08-05T12:23:22Z</time><name>PT10367</name></trkpt>
<trkpt lat="53.371837" lon="-1.790050"><ele>243</ele><time>2020-08-05T12:23:24Z</time><name>PT10368</name></trkpt>
<trkpt lat="53.371838" lon="-1.790068"><ele>243</ele><time>2020-08-05T12:23:25Z</time><name>PT10369</name></trkpt>
<trkpt lat="53.371838" lon="-1.790085"><ele>243</ele><time>2020-08-05T12:23:25Z</time><name>PT10370</name></trkpt>
<trkpt lat="53.371838" lon="-1.790109"><ele>244</ele><time>2020-08-05T12:23:27Z</time><name>PT10371</name></trkpt>
<trkpt lat="53.371837" lon="-1.790130"><ele>244</ele><time>2020-08-05T12:23:28Z</time><name>PT10372</name></trkpt>
<trkpt lat="53.371838" lon="-1.790151"><ele>244</ele><time>2020-08-05T12:23:29Z</time><name>PT10373</name></trkpt>
<trkpt lat="53.371836" lon="-1.790176"><ele>244</ele><time>2020-08-05T12:23:30Z</time><name>PT10374</name></trkpt>
<trkpt lat="53.371837" lon="-1.790195"><ele>244</ele><time>2020-08-05T12:23:31Z</time><name>PT10375</name></trkpt>
<trkpt lat="53.371838" lon="-1.790210"><ele>245</ele><time>2020-08-05T12:23:32Z</time><name>PT10376</name></trkpt>
<trkpt lat="53.371839" lon="-1.790229"><ele>245</ele><time>2020-08-05T12:23:33Z</time><name>PT10377</name></trkpt>
<trkpt lat="53.371837" lon="-1.790247"><ele>245</ele><time>2020-08-05T12:23:34Z</time><name>PT10378</name></trkpt>
<trkpt lat="53.371834" lon="-1.790268"><ele>245</ele><time>2020-08-05T12:23:35Z</time><name>PT10379</name></trkpt>
<trkpt lat="53.371833" lon="-1.790287"><ele>245</ele><time>2020-08-05T12:23:36Z</time><name>PT10380</name></trkpt>
<trkpt lat="53.371831" lon="-1.790307"><ele>245</ele><time>2020-08-05T12:23:37Z</time><name>PT10381</name></trkpt>
<trkpt lat="53.371830" lon="-1.790327"><ele>245</ele><time>2020-08-05T12:23:38Z</time><name>PT10382</name></trkpt>
<trkpt lat="53.371829" lon="-1.790344"><ele>246</ele><time>2020-08-05T12:23:39Z</time><name>PT10383</name></trkpt>
<trkpt lat="53.371829" lon="-1.790363"><ele>245</ele><time>2020-08-05T12:23:40Z</time><name>PT10384</name></trkpt>
<trkpt lat="53.371826" lon="-1.790380"><ele>245</ele><time>2020-08-05T12:23:41Z</time><name>PT10385</name></trkpt>
<trkpt lat="53.371823" lon="-1.790395"><ele>245</ele><time>2020-08-05T12:23:42Z</time><name>PT10386</name></trkpt>
<trkpt lat="53.371823" lon="-1.790413"><ele>245</ele><time>2020-08-05T12:23:43Z</time><name>PT10387</name></trkpt>
<trkpt lat="53.371826" lon="-1.790428"><ele>244</ele><time>2020-08-05T12:23:44Z</time><name>PT10388</name></trkpt>
<trkpt lat="53.371826" lon="-1.790444"><ele>244</ele><time>2020-08-05T12:23:45Z</time><name>PT10389</name></trkpt>
<trkpt lat="53.371823" lon="-1.790461"><ele>244</ele><time>2020-08-05T12:23:46Z</time><name>PT10390</name></trkpt>
<trkpt lat="53.371823" lon="-1.790477"><ele>244</ele><time>2020-08-05T12:23:47Z</time><name>PT10391</name></trkpt>
<trkpt lat="53.371822" lon="-1.790494"><ele>244</ele><time>2020-08-05T12:23:48Z</time><name>PT10392</name></trkpt>
<trkpt lat="53.371821" lon="-1.790512"><ele>244</ele><time>2020-08-05T12:23:49Z</time><name>PT10393</name></trkpt>
<trkpt lat="53.371822" lon="-1.790533"><ele>244</ele><time>2020-08-05T12:23:50Z</time><name>PT10394</name></trkpt>
<trkpt lat="53.371825" lon="-1.790551"><ele>245</ele><time>2020-08-05T12:23:51Z</time><name>PT10395</name></trkpt>
<trkpt lat="53.371829" lon="-1.790569"><ele>245</ele><time>2020-08-05T12:23:52Z</time><name>PT10396</name></trkpt>
<trkpt lat="53.371829" lon="-1.790587"><ele>245</ele><time>2020-08-05T12:23:53Z</time><name>PT10397</name></trkpt>
<trkpt lat="53.371829" lon="-1.790603"><ele>245</ele><time>2020-08-05T12:23:54Z</time><name>PT10398</name></trkpt>
<trkpt lat="53.371830" lon="-1.790622"><ele>245</ele><time>2020-08-05T12:23:55Z</time><name>PT10399</name></trkpt>
<trkpt lat="53.371832" lon="-1.790636"><ele>246</ele><time>2020-08-05T12:23:55Z</time><name>PT10400</name></trkpt>
<trkpt lat="53.371836" lon="-1.790647"><ele>246</ele><time>2020-08-05T12:23:57Z</time><name>PT10401</name></trkpt>
<trkpt lat="53.371838" lon="-1.790658"><ele>246</ele><time>2020-08-05T12:23:58Z</time><name>PT10402</name></trkpt>
<trkpt lat="53.371836" lon="-1.790671"><ele>246</ele><time>2020-08-05T12:23:58Z</time><name>PT10403</name></trkpt>
<trkpt lat="53.371836" lon="-1.790690"><ele>245</ele><time>2020-08-05T12:24:00Z</time><name>PT10404</name></trkpt>
<trkpt lat="53.371838" lon="-1.790712"><ele>245</ele><time>2020-08-05T12:24:01Z</time><name>PT10405</name></trkpt>
<trkpt lat="53.371839" lon="-1.790731"><ele>245</ele><time>2020-08-05T12:24:01Z</time><name>PT10406</name></trkpt>
<trkpt lat="53.371838" lon="-1.790753"><ele>245</ele><time>2020-08-05T12:24:03Z</time><name>PT10407</name></trkpt>
<trkpt lat="53.371834" lon="-1.790772"><ele>246</ele><time>2020-08-05T12:24:04Z</time><name>PT10408</name></trkpt>
<trkpt lat="53.371839" lon="-1.790790"><ele>246</ele><time>2020-08-05T12:24:04Z</time><name>PT10409</name></trkpt>
<trkpt lat="53.371841" lon="-1.790809"><ele>245</ele><time>2020-08-05T12:24:06Z</time><name>PT10410</name></trkpt>
<trkpt lat="53.371843" lon="-1.790825"><ele>245</ele><time>2020-08-05T12:24:07Z</time><name>PT10411</name></trkpt>
<trkpt lat="53.371844" lon="-1.790841"><ele>245</ele><time>2020-08-05T12:24:07Z</time><name>PT10412</name></trkpt>
<trkpt lat="53.371845" lon="-1.790862"><ele>245</ele><time>2020-08-05T12:24:09Z</time><name>PT10413</name></trkpt>
<trkpt lat="53.371845" lon="-1.790878"><ele>245</ele><time>2020-08-05T12:24:10Z</time><name>PT10414</name></trkpt>
<trkpt lat="53.371844" lon="-1.790896"><ele>245</ele><time>2020-08-05T12:24:10Z</time><name>PT10415</name></trkpt>
<trkpt lat="53.371844" lon="-1.790914"><ele>245</ele><time>2020-08-05T12:24:12Z</time><name>PT10416</name></trkpt>
<trkpt lat="53.371843" lon="-1.790933"><ele>245</ele><time>2020-08-05T12:24:13Z</time><name>PT10417</name></trkpt>
<trkpt lat="53.371840" lon="-1.790953"><ele>246</ele><time>2020-08-05T12:24:13Z</time><name>PT10418</name></trkpt>
<trkpt lat="53.371837" lon="-1.790979"><ele>247</ele><time>2020-08-05T12:24:15Z</time><name>PT10419</name></trkpt>
<trkpt lat="53.371837" lon="-1.790995"><ele>247</ele><time>2020-08-05T12:24:16Z</time><name>PT10420</name></trkpt>
<trkpt lat="53.371833" lon="-1.791018"><ele>247</ele><time>2020-08-05T12:24:17Z</time><name>PT10421</name></trkpt>
<trkpt lat="53.371831" lon="-1.791037"><ele>248</ele><time>2020-08-05T12:24:18Z</time><name>PT10422</name></trkpt>
<trkpt lat="53.371831" lon="-1.791054"><ele>248</ele><time>2020-08-05T12:24:19Z</time><name>PT10423</name></trkpt>
<trkpt lat="53.371831" lon="-1.791073"><ele>248</ele><time>2020-08-05T12:24:19Z</time><name>PT10424</name></trkpt>
<trkpt lat="53.371830" lon="-1.791091"><ele>248</ele><time>2020-08-05T12:24:21Z</time><name>PT10425</name></trkpt>
<trkpt lat="53.371828" lon="-1.791113"><ele>248</ele><time>2020-08-05T12:24:22Z</time><name>PT10426</name></trkpt>
<trkpt lat="53.371826" lon="-1.791136"><ele>248</ele><time>2020-08-05T12:24:22Z</time><name>PT10427</name></trkpt>
<trkpt lat="53.371826" lon="-1.791153"><ele>248</ele><time>2020-08-05T12:24:24Z</time><name>PT10428</name></trkpt>
<trkpt lat="53.371825" lon="-1.791174"><ele>248</ele><time>2020-08-05T12:24:25Z</time><name>PT10429</name></trkpt>
<trkpt lat="53.371823" lon="-1.791194"><ele>248</ele><time>2020-08-05T12:24:25Z</time><name>PT10430</name></trkpt>
<trkpt lat="53.371823" lon="-1.791215"><ele>248</ele><time>2020-08-05T12:24:27Z</time><name>PT10431</name></trkpt>
<trkpt lat="53.371822" lon="-1.791232"><ele>249</ele><time>2020-08-05T12:24:28Z</time><name>PT10432</name></trkpt>
<trkpt lat="53.371821" lon="-1.791253"><ele>249</ele><time>2020-08-05T12:24:28Z</time><name>PT10433</name></trkpt>
<trkpt lat="53.371818" lon="-1.791274"><ele>250</ele><time>2020-08-05T12:24:30Z</time><name>PT10434</name></trkpt>
<trkpt lat="53.371819" lon="-1.791289"><ele>249</ele><time>2020-08-05T12:24:31Z</time><name>PT10435</name></trkpt>
<trkpt lat="53.371818" lon="-1.791298"><ele>249</ele><time>2020-08-05T12:24:31Z</time><name>PT10436</name></trkpt>
<trkpt lat="53.371818" lon="-1.791299"><ele>249</ele><time>2020-08-05T12:24:33Z</time><name>PT10437</name></trkpt>
<trkpt lat="53.371818" lon="-1.791300"><ele>248</ele><time>2020-08-05T12:24:34Z</time><name>PT10438</name></trkpt>
<trkpt lat="53.371817" lon="-1.791303"><ele>248</ele><time>2020-08-05T12:24:34Z</time><name>PT10439</name></trkpt>
<trkpt lat="53.371817" lon="-1.791334"><ele>249</ele><time>2020-08-05T12:24:37Z</time><name>PT10440</name></trkpt>
<trkpt lat="53.371812" lon="-1.791355"><ele>249</ele><time>2020-08-05T12:24:37Z</time><name>PT10441</name></trkpt>
<trkpt lat="53.371808" lon="-1.791374"><ele>249</ele><time>2020-08-05T12:24:39Z</time><name>PT10442</name></trkpt>
<trkpt lat="53.371806" lon="-1.791392"><ele>249</ele><time>2020-08-05T12:24:40Z</time><name>PT10443</name></trkpt>
<trkpt lat="53.371803" lon="-1.791410"><ele>249</ele><time>2020-08-05T12:24:40Z</time><name>PT10444</name></trkpt>
<trkpt lat="53.371804" lon="-1.791428"><ele>249</ele><time>2020-08-05T12:24:42Z</time><name>PT10445</name></trkpt>
<trkpt lat="53.371805" lon="-1.791446"><ele>248</ele><time>2020-08-05T12:24:43Z</time><name>PT10446</name></trkpt>
<trkpt lat="53.371807" lon="-1.791473"><ele>249</ele><time>2020-08-05T12:24:43Z</time><name>PT10447</name></trkpt>
<trkpt lat="53.371805" lon="-1.791486"><ele>249</ele><time>2020-08-05T12:24:45Z</time><name>PT10448</name></trkpt>
<trkpt lat="53.371805" lon="-1.791509"><ele>249</ele><time>2020-08-05T12:24:46Z</time><name>PT10449</name></trkpt>
<trkpt lat="53.371804" lon="-1.791532"><ele>249</ele><time>2020-08-05T12:24:46Z</time><name>PT10450</name></trkpt>
<trkpt lat="53.371804" lon="-1.791555"><ele>249</ele><time>2020-08-05T12:24:48Z</time><name>PT10451</name></trkpt>
<trkpt lat="53.371804" lon="-1.791577"><ele>250</ele><time>2020-08-05T12:24:49Z</time><name>PT10452</name></trkpt>
<trkpt lat="53.371802" lon="-1.791593"><ele>250</ele><time>2020-08-05T12:24:49Z</time><name>PT10453</name></trkpt>
<trkpt lat="53.371802" lon="-1.791615"><ele>250</ele><time>2020-08-05T12:24:51Z</time><name>PT10454</name></trkpt>
<trkpt lat="53.371805" lon="-1.791640"><ele>250</ele><time>2020-08-05T12:24:52Z</time><name>PT10455</name></trkpt>
<trkpt lat="53.371803" lon="-1.791662"><ele>250</ele><time>2020-08-05T12:24:52Z</time><name>PT10456</name></trkpt>
<trkpt lat="53.371805" lon="-1.791680"><ele>250</ele><time>2020-08-05T12:24:54Z</time><name>PT10457</name></trkpt>
<trkpt lat="53.371807" lon="-1.791700"><ele>249</ele><time>2020-08-05T12:24:55Z</time><name>PT10458</name></trkpt>
<trkpt lat="53.371805" lon="-1.791718"><ele>249</ele><time>2020-08-05T12:24:56Z</time><name>PT10459</name></trkpt>
<trkpt lat="53.371804" lon="-1.791739"><ele>249</ele><time>2020-08-05T12:24:57Z</time><name>PT10460</name></trkpt>
<trkpt lat="53.371804" lon="-1.791760"><ele>249</ele><time>2020-08-05T12:24:58Z</time><name>PT10461</name></trkpt>
<trkpt lat="53.371804" lon="-1.791779"><ele>249</ele><time>2020-08-05T12:24:58Z</time><name>PT10462</name></trkpt>
<trkpt lat="53.371803" lon="-1.791802"><ele>249</ele><time>2020-08-05T12:25:00Z</time><name>PT10463</name></trkpt>
<trkpt lat="53.371798" lon="-1.791826"><ele>249</ele><time>2020-08-05T12:25:01Z</time><name>PT10464</name></trkpt>
<trkpt lat="53.371795" lon="-1.791844"><ele>249</ele><time>2020-08-05T12:25:01Z</time><name>PT10465</name></trkpt>
<trkpt lat="53.371795" lon="-1.791863"><ele>249</ele><time>2020-08-05T12:25:03Z</time><name>PT10466</name></trkpt>
<trkpt lat="53.371794" lon="-1.791878"><ele>249</ele><time>2020-08-05T12:25:04Z</time><name>PT10467</name></trkpt>
<trkpt lat="53.371793" lon="-1.791899"><ele>249</ele><time>2020-08-05T12:25:04Z</time><name>PT10468</name></trkpt>
<trkpt lat="53.371792" lon="-1.791923"><ele>249</ele><time>2020-08-05T12:25:06Z</time><name>PT10469</name></trkpt>
<trkpt lat="53.371789" lon="-1.791942"><ele>249</ele><time>2020-08-05T12:25:07Z</time><name>PT10470</name></trkpt>
<trkpt lat="53.371786" lon="-1.791957"><ele>249</ele><time>2020-08-05T12:25:07Z</time><name>PT10471</name></trkpt>
<trkpt lat="53.371784" lon="-1.791977"><ele>249</ele><time>2020-08-05T12:25:09Z</time><name>PT10472</name></trkpt>
<trkpt lat="53.371780" lon="-1.791997"><ele>249</ele><time>2020-08-05T12:25:10Z</time><name>PT10473</name></trkpt>
<trkpt lat="53.371778" lon="-1.792014"><ele>249</ele><time>2020-08-05T12:25:11Z</time><name>PT10474</name></trkpt>
<trkpt lat="53.371776" lon="-1.792032"><ele>249</ele><time>2020-08-05T12:25:12Z</time><name>PT10475</name></trkpt>
<trkpt lat="53.371775" lon="-1.792054"><ele>249</ele><time>2020-08-05T12:25:13Z</time><name>PT10476</name></trkpt>
<trkpt lat="53.371773" lon="-1.792075"><ele>249</ele><time>2020-08-05T12:25:13Z</time><name>PT10477</name></trkpt>
<trkpt lat="53.371769" lon="-1.792089"><ele>249</ele><time>2020-08-05T12:25:15Z</time><name>PT10478</name></trkpt>
<trkpt lat="53.371765" lon="-1.792110"><ele>250</ele><time>2020-08-05T12:25:16Z</time><name>PT10479</name></trkpt>
<trkpt lat="53.371762" lon="-1.792132"><ele>250</ele><time>2020-08-05T12:25:17Z</time><name>PT10480</name></trkpt>
<trkpt lat="53.371759" lon="-1.792154"><ele>250</ele><time>2020-08-05T12:25:18Z</time><name>PT10481</name></trkpt>
<trkpt lat="53.371757" lon="-1.792173"><ele>250</ele><time>2020-08-05T12:25:19Z</time><name>PT10482</name></trkpt>
<trkpt lat="53.371752" lon="-1.792193"><ele>250</ele><time>2020-08-05T12:25:20Z</time><name>PT10483</name></trkpt>
<trkpt lat="53.371750" lon="-1.792213"><ele>250</ele><time>2020-08-05T12:25:21Z</time><name>PT10484</name></trkpt>
<trkpt lat="53.371750" lon="-1.792234"><ele>250</ele><time>2020-08-05T12:25:22Z</time><name>PT10485</name></trkpt>
<trkpt lat="53.371750" lon="-1.792260"><ele>250</ele><time>2020-08-05T12:25:23Z</time><name>PT10486</name></trkpt>
<trkpt lat="53.371746" lon="-1.792278"><ele>251</ele><time>2020-08-05T12:25:24Z</time><name>PT10487</name></trkpt>
<trkpt lat="53.371742" lon="-1.792295"><ele>251</ele><time>2020-08-05T12:25:25Z</time><name>PT10488</name></trkpt>
<trkpt lat="53.371740" lon="-1.792312"><ele>251</ele><time>2020-08-05T12:25:26Z</time><name>PT10489</name></trkpt>
<trkpt lat="53.371737" lon="-1.792330"><ele>252</ele><time>2020-08-05T12:25:27Z</time><name>PT10490</name></trkpt>
<trkpt lat="53.371735" lon="-1.792344"><ele>251</ele><time>2020-08-05T12:25:28Z</time><name>PT10491</name></trkpt>
<trkpt lat="53.371733" lon="-1.792357"><ele>251</ele><time>2020-08-05T12:25:29Z</time><name>PT10492</name></trkpt>
<trkpt lat="53.371730" lon="-1.792372"><ele>251</ele><time>2020-08-05T12:25:30Z</time><name>PT10493</name></trkpt>
<trkpt lat="53.371727" lon="-1.792387"><ele>252</ele><time>2020-08-05T12:25:31Z</time><name>PT10494</name></trkpt>
<trkpt lat="53.371726" lon="-1.792407"><ele>251</ele><time>2020-08-05T12:25:32Z</time><name>PT10495</name></trkpt>
<trkpt lat="53.371722" lon="-1.792429"><ele>251</ele><time>2020-08-05T12:25:33Z</time><name>PT10496</name></trkpt>
<trkpt lat="53.371718" lon="-1.792448"><ele>251</ele><time>2020-08-05T12:25:34Z</time><name>PT10497</name></trkpt>
<trkpt lat="53.371715" lon="-1.792468"><ele>251</ele><time>2020-08-05T12:25:35Z</time><name>PT10498</name></trkpt>
<trkpt lat="53.371709" lon="-1.792490"><ele>252</ele><time>2020-08-05T12:25:36Z</time><name>PT10499</name></trkpt>
<trkpt lat="53.371704" lon="-1.792509"><ele>252</ele><time>2020-08-05T12:25:37Z</time><name>PT10500</name></trkpt>
<trkpt lat="53.371700" lon="-1.792531"><ele>252</ele><time>2020-08-05T12:25:38Z</time><name>PT10501</name></trkpt>
<trkpt lat="53.371696" lon="-1.792547"><ele>252</ele><time>2020-08-05T12:25:39Z</time><name>PT10502</name></trkpt>
<trkpt lat="53.371693" lon="-1.792566"><ele>252</ele><time>2020-08-05T12:25:40Z</time><name>PT10503</name></trkpt>
<trkpt lat="53.371691" lon="-1.792589"><ele>252</ele><time>2020-08-05T12:25:41Z</time><name>PT10504</name></trkpt>
<trkpt lat="53.371690" lon="-1.792614"><ele>252</ele><time>2020-08-05T12:25:42Z</time><name>PT10505</name></trkpt>
<trkpt lat="53.371689" lon="-1.792637"><ele>251</ele><time>2020-08-05T12:25:43Z</time><name>PT10506</name></trkpt>
<trkpt lat="53.371685" lon="-1.792661"><ele>251</ele><time>2020-08-05T12:25:43Z</time><name>PT10507</name></trkpt>
<trkpt lat="53.371676" lon="-1.792680"><ele>253</ele><time>2020-08-05T12:25:45Z</time><name>PT10508</name></trkpt>
<trkpt lat="53.371675" lon="-1.792696"><ele>254</ele><time>2020-08-05T12:25:46Z</time><name>PT10509</name></trkpt>
<trkpt lat="53.371674" lon="-1.792711"><ele>254</ele><time>2020-08-05T12:25:46Z</time><name>PT10510</name></trkpt>
<trkpt lat="53.371673" lon="-1.792730"><ele>254</ele><time>2020-08-05T12:25:48Z</time><name>PT10511</name></trkpt>
<trkpt lat="53.371670" lon="-1.792750"><ele>255</ele><time>2020-08-05T12:25:49Z</time><name>PT10512</name></trkpt>
<trkpt lat="53.371667" lon="-1.792772"><ele>255</ele><time>2020-08-05T12:25:49Z</time><name>PT10513</name></trkpt>
<trkpt lat="53.371663" lon="-1.792793"><ele>255</ele><time>2020-08-05T12:25:51Z</time><name>PT10514</name></trkpt>
<trkpt lat="53.371662" lon="-1.792810"><ele>254</ele><time>2020-08-05T12:25:52Z</time><name>PT10515</name></trkpt>
<trkpt lat="53.371663" lon="-1.792833"><ele>254</ele><time>2020-08-05T12:25:52Z</time><name>PT10516</name></trkpt>
<trkpt lat="53.371664" lon="-1.792854"><ele>254</ele><time>2020-08-05T12:25:54Z</time><name>PT10517</name></trkpt>
<trkpt lat="53.371664" lon="-1.792874"><ele>254</ele><time>2020-08-05T12:25:55Z</time><name>PT10518</name></trkpt>
<trkpt lat="53.371662" lon="-1.792892"><ele>254</ele><time>2020-08-05T12:25:55Z</time><name>PT10519</name></trkpt>
<trkpt lat="53.371658" lon="-1.792911"><ele>254</ele><time>2020-08-05T12:25:57Z</time><name>PT10520</name></trkpt>
<trkpt lat="53.371658" lon="-1.792928"><ele>253</ele><time>2020-08-05T12:25:58Z</time><name>PT10521</name></trkpt>
<trkpt lat="53.371655" lon="-1.792944"><ele>253</ele><time>2020-08-05T12:25:58Z</time><name>PT10522</name></trkpt>
<trkpt lat="53.371653" lon="-1.792964"><ele>253</ele><time>2020-08-05T12:26:00Z</time><name>PT10523</name></trkpt>
<trkpt lat="53.371648" lon="-1.792985"><ele>254</ele><time>2020-08-05T12:26:01Z</time><name>PT10524</name></trkpt>
<trkpt lat="53.371645" lon="-1.793002"><ele>253</ele><time>2020-08-05T12:26:01Z</time><name>PT10525</name></trkpt>
<trkpt lat="53.371639" lon="-1.793021"><ele>253</ele><time>2020-08-05T12:26:03Z</time><name>PT10526</name></trkpt>
<trkpt lat="53.371633" lon="-1.793043"><ele>253</ele><time>2020-08-05T12:26:04Z</time><name>PT10527</name></trkpt>
<trkpt lat="53.371627" lon="-1.793061"><ele>254</ele><time>2020-08-05T12:26:04Z</time><name>PT10528</name></trkpt>
<trkpt lat="53.371624" lon="-1.793076"><ele>254</ele><time>2020-08-05T12:26:06Z</time><name>PT10529</name></trkpt>
<trkpt lat="53.371622" lon="-1.793098"><ele>254</ele><time>2020-08-05T12:26:07Z</time><name>PT10530</name></trkpt>
<trkpt lat="53.371615" lon="-1.793115"><ele>255</ele><time>2020-08-05T12:26:07Z</time><name>PT10531</name></trkpt>
<trkpt lat="53.371610" lon="-1.793129"><ele>255</ele><time>2020-08-05T12:26:09Z</time><name>PT10532</name></trkpt>
<trkpt lat="53.371606" lon="-1.793146"><ele>255</ele><time>2020-08-05T12:26:10Z</time><name>PT10533</name></trkpt>
<trkpt lat="53.371602" lon="-1.793163"><ele>255</ele><time>2020-08-05T12:26:10Z</time><name>PT10534</name></trkpt>
<trkpt lat="53.371599" lon="-1.793182"><ele>255</ele><time>2020-08-05T12:26:12Z</time><name>PT10535</name></trkpt>
<trkpt lat="53.371597" lon="-1.793202"><ele>255</ele><time>2020-08-05T12:26:13Z</time><name>PT10536</name></trkpt>
<trkpt lat="53.371594" lon="-1.793214"><ele>255</ele><time>2020-08-05T12:26:13Z</time><name>PT10537</name></trkpt>
<trkpt lat="53.371587" lon="-1.793227"><ele>255</ele><time>2020-08-05T12:26:15Z</time><name>PT10538</name></trkpt>
<trkpt lat="53.371582" lon="-1.793245"><ele>255</ele><time>2020-08-05T12:26:16Z</time><name>PT10539</name></trkpt>
<trkpt lat="53.371578" lon="-1.793267"><ele>255</ele><time>2020-08-05T12:26:17Z</time><name>PT10540</name></trkpt>
<trkpt lat="53.371574" lon="-1.793291"><ele>256</ele><time>2020-08-05T12:26:18Z</time><name>PT10541</name></trkpt>
<trkpt lat="53.371569" lon="-1.793311"><ele>256</ele><time>2020-08-05T12:26:19Z</time><name>PT10542</name></trkpt>
<trkpt lat="53.371565" lon="-1.793331"><ele>256</ele><time>2020-08-05T12:26:20Z</time><name>PT10543</name></trkpt>
<trkpt lat="53.371561" lon="-1.793348"><ele>256</ele><time>2020-08-05T12:26:21Z</time><name>PT10544</name></trkpt>
<trkpt lat="53.371557" lon="-1.793360"><ele>256</ele><time>2020-08-05T12:26:22Z</time><name>PT10545</name></trkpt>
<trkpt lat="53.371553" lon="-1.793378"><ele>256</ele><time>2020-08-05T12:26:23Z</time><name>PT10546</name></trkpt>
<trkpt lat="53.371547" lon="-1.793400"><ele>256</ele><time>2020-08-05T12:26:24Z</time><name>PT10547</name></trkpt>
<trkpt lat="53.371544" lon="-1.793422"><ele>257</ele><time>2020-08-05T12:26:25Z</time><name>PT10548</name></trkpt>
<trkpt lat="53.371542" lon="-1.793442"><ele>256</ele><time>2020-08-05T12:26:26Z</time><name>PT10549</name></trkpt>
<trkpt lat="53.371540" lon="-1.793462"><ele>256</ele><time>2020-08-05T12:26:27Z</time><name>PT10550</name></trkpt>
<trkpt lat="53.371536" lon="-1.793480"><ele>256</ele><time>2020-08-05T12:26:28Z</time><name>PT10551</name></trkpt>
<trkpt lat="53.371534" lon="-1.793502"><ele>256</ele><time>2020-08-05T12:26:28Z</time><name>PT10552</name></trkpt>
<trkpt lat="53.371534" lon="-1.793522"><ele>255</ele><time>2020-08-05T12:26:30Z</time><name>PT10553</name></trkpt>
<trkpt lat="53.371532" lon="-1.793539"><ele>255</ele><time>2020-08-05T12:26:31Z</time><name>PT10554</name></trkpt>
<trkpt lat="53.371530" lon="-1.793560"><ele>256</ele><time>2020-08-05T12:26:32Z</time><name>PT10555</name></trkpt>
<trkpt lat="53.371531" lon="-1.793586"><ele>255</ele><time>2020-08-05T12:26:33Z</time><name>PT10556</name></trkpt>
<trkpt lat="53.371531" lon="-1.793603"><ele>255</ele><time>2020-08-05T12:26:34Z</time><name>PT10557</name></trkpt>
<trkpt lat="53.371529" lon="-1.793619"><ele>254</ele><time>2020-08-05T12:26:35Z</time><name>PT10558</name></trkpt>
<trkpt lat="53.371525" lon="-1.793637"><ele>254</ele><time>2020-08-05T12:26:36Z</time><name>PT10559</name></trkpt>
<trkpt lat="53.371522" lon="-1.793652"><ele>254</ele><time>2020-08-05T12:26:37Z</time><name>PT10560</name></trkpt>
<trkpt lat="53.371519" lon="-1.793673"><ele>255</ele><time>2020-08-05T12:26:38Z</time><name>PT10561</name></trkpt>
<trkpt lat="53.371518" lon="-1.793697"><ele>255</ele><time>2020-08-05T12:26:39Z</time><name>PT10562</name></trkpt>
<trkpt lat="53.371516" lon="-1.793714"><ele>254</ele><time>2020-08-05T12:26:40Z</time><name>PT10563</name></trkpt>
<trkpt lat="53.371516" lon="-1.793731"><ele>254</ele><time>2020-08-05T12:26:41Z</time><name>PT10564</name></trkpt>
<trkpt lat="53.371513" lon="-1.793753"><ele>253</ele><time>2020-08-05T12:26:42Z</time><name>PT10565</name></trkpt>
<trkpt lat="53.371509" lon="-1.793775"><ele>254</ele><time>2020-08-05T12:26:43Z</time><name>PT10566</name></trkpt>
<trkpt lat="53.371503" lon="-1.793794"><ele>254</ele><time>2020-08-05T12:26:44Z</time><name>PT10567</name></trkpt>
<trkpt lat="53.371497" lon="-1.793813"><ele>255</ele><time>2020-08-05T12:26:45Z</time><name>PT10568</name></trkpt>
<trkpt lat="53.371491" lon="-1.793832"><ele>255</ele><time>2020-08-05T12:26:46Z</time><name>PT10569</name></trkpt>
<trkpt lat="53.371485" lon="-1.793850"><ele>255</ele><time>2020-08-05T12:26:47Z</time><name>PT10570</name></trkpt>
<trkpt lat="53.371481" lon="-1.793866"><ele>254</ele><time>2020-08-05T12:26:48Z</time><name>PT10571</name></trkpt>
<trkpt lat="53.371476" lon="-1.793887"><ele>254</ele><time>2020-08-05T12:26:49Z</time><name>PT10572</name></trkpt>
<trkpt lat="53.371473" lon="-1.793903"><ele>255</ele><time>2020-08-05T12:26:50Z</time><name>PT10573</name></trkpt>
<trkpt lat="53.371471" lon="-1.793925"><ele>255</ele><time>2020-08-05T12:26:51Z</time><name>PT10574</name></trkpt>
<trkpt lat="53.371466" lon="-1.793948"><ele>255</ele><time>2020-08-05T12:26:52Z</time><name>PT10575</name></trkpt>
<trkpt lat="53.371463" lon="-1.793969"><ele>256</ele><time>2020-08-05T12:26:52Z</time><name>PT10576</name></trkpt>
<trkpt lat="53.371457" lon="-1.793987"><ele>256</ele><time>2020-08-05T12:26:54Z</time><name>PT10577</name></trkpt>
<trkpt lat="53.371455" lon="-1.794006"><ele>256</ele><time>2020-08-05T12:26:55Z</time><name>PT10578</name></trkpt>
<trkpt lat="53.371453" lon="-1.794023"><ele>256</ele><time>2020-08-05T12:26:55Z</time><name>PT10579</name></trkpt>
<trkpt lat="53.371450" lon="-1.794044"><ele>256</ele><time>2020-08-05T12:26:57Z</time><name>PT10580</name></trkpt>
<trkpt lat="53.371448" lon="-1.794066"><ele>255</ele><time>2020-08-05T12:26:58Z</time><name>PT10581</name></trkpt>
<trkpt lat="53.371443" lon="-1.794088"><ele>256</ele><time>2020-08-05T12:26:58Z</time><name>PT10582</name></trkpt>
<trkpt lat="53.371437" lon="-1.794113"><ele>256</ele><time>2020-08-05T12:27:00Z</time><name>PT10583</name></trkpt>
<trkpt lat="53.371433" lon="-1.794134"><ele>255</ele><time>2020-08-05T12:27:01Z</time><name>PT10584</name></trkpt>
<trkpt lat="53.371429" lon="-1.794155"><ele>255</ele><time>2020-08-05T12:27:01Z</time><name>PT10585</name></trkpt>
<trkpt lat="53.371424" lon="-1.794173"><ele>255</ele><time>2020-08-05T12:27:03Z</time><name>PT10586</name></trkpt>
<trkpt lat="53.371419" lon="-1.794186"><ele>255</ele><time>2020-08-05T12:27:04Z</time><name>PT10587</name></trkpt>
<trkpt lat="53.371410" lon="-1.794201"><ele>255</ele><time>2020-08-05T12:27:04Z</time><name>PT10588</name></trkpt>
<trkpt lat="53.371400" lon="-1.794220"><ele>256</ele><time>2020-08-05T12:27:06Z</time><name>PT10589</name></trkpt>
<trkpt lat="53.371393" lon="-1.794238"><ele>256</ele><time>2020-08-05T12:27:07Z</time><name>PT10590</name></trkpt>
<trkpt lat="53.371389" lon="-1.794254"><ele>256</ele><time>2020-08-05T12:27:08Z</time><name>PT10591</name></trkpt>
<trkpt lat="53.371386" lon="-1.794272"><ele>256</ele><time>2020-08-05T12:27:09Z</time><name>PT10592</name></trkpt>
<trkpt lat="53.371382" lon="-1.794293"><ele>256</ele><time>2020-08-05T12:27:10Z</time><name>PT10593</name></trkpt>
<trkpt lat="53.371380" lon="-1.794312"><ele>256</ele><time>2020-08-05T12:27:11Z</time><name>PT10594</name></trkpt>
<trkpt lat="53.371378" lon="-1.794334"><ele>256</ele><time>2020-08-05T12:27:12Z</time><name>PT10595</name></trkpt>
<trkpt lat="53.371374" lon="-1.794355"><ele>256</ele><time>2020-08-05T12:27:13Z</time><name>PT10596</name></trkpt>
<trkpt lat="53.371370" lon="-1.794375"><ele>255</ele><time>2020-08-05T12:27:14Z</time><name>PT10597</name></trkpt>
<trkpt lat="53.371365" lon="-1.794402"><ele>256</ele><time>2020-08-05T12:27:15Z</time><name>PT10598</name></trkpt>
<trkpt lat="53.371359" lon="-1.794424"><ele>256</ele><time>2020-08-05T12:27:16Z</time><name>PT10599</name></trkpt>
<trkpt lat="53.371358" lon="-1.794438"><ele>255</ele><time>2020-08-05T12:27:16Z</time><name>PT10600</name></trkpt>
<trkpt lat="53.371355" lon="-1.794454"><ele>255</ele><time>2020-08-05T12:27:18Z</time><name>PT10601</name></trkpt>
<trkpt lat="53.371352" lon="-1.794471"><ele>256</ele><time>2020-08-05T12:27:19Z</time><name>PT10602</name></trkpt>
<trkpt lat="53.371351" lon="-1.794492"><ele>256</ele><time>2020-08-05T12:27:19Z</time><name>PT10603</name></trkpt>
<trkpt lat="53.371351" lon="-1.794511"><ele>256</ele><time>2020-08-05T12:27:21Z</time><name>PT10604</name></trkpt>
<trkpt lat="53.371346" lon="-1.794531"><ele>257</ele><time>2020-08-05T12:27:22Z</time><name>PT10605</name></trkpt>
<trkpt lat="53.371343" lon="-1.794549"><ele>257</ele><time>2020-08-05T12:27:22Z</time><name>PT10606</name></trkpt>
<trkpt lat="53.371340" lon="-1.794563"><ele>257</ele><time>2020-08-05T12:27:24Z</time><name>PT10607</name></trkpt>
<trkpt lat="53.371336" lon="-1.794581"><ele>257</ele><time>2020-08-05T12:27:25Z</time><name>PT10608</name></trkpt>
<trkpt lat="53.371331" lon="-1.794601"><ele>257</ele><time>2020-08-05T12:27:25Z</time><name>PT10609</name></trkpt>
<trkpt lat="53.371327" lon="-1.794621"><ele>257</ele><time>2020-08-05T12:27:27Z</time><name>PT10610</name></trkpt>
<trkpt lat="53.371323" lon="-1.794642"><ele>257</ele><time>2020-08-05T12:27:28Z</time><name>PT10611</name></trkpt>
<trkpt lat="53.371318" lon="-1.794667"><ele>258</ele><time>2020-08-05T12:27:28Z</time><name>PT10612</name></trkpt>
<trkpt lat="53.371317" lon="-1.794691"><ele>257</ele><time>2020-08-05T12:27:30Z</time><name>PT10613</name></trkpt>
<trkpt lat="53.371313" lon="-1.794710"><ele>257</ele><time>2020-08-05T12:27:31Z</time><name>PT10614</name></trkpt>
<trkpt lat="53.371310" lon="-1.794730"><ele>257</ele><time>2020-08-05T12:27:31Z</time><name>PT10615</name></trkpt>
<trkpt lat="53.371304" lon="-1.794748"><ele>258</ele><time>2020-08-05T12:27:33Z</time><name>PT10616</name></trkpt>
<trkpt lat="53.371305" lon="-1.794766"><ele>258</ele><time>2020-08-05T12:27:34Z</time><name>PT10617</name></trkpt>
<trkpt lat="53.371302" lon="-1.794793"><ele>258</ele><time>2020-08-05T12:27:34Z</time><name>PT10618</name></trkpt>
<trkpt lat="53.371300" lon="-1.794816"><ele>258</ele><time>2020-08-05T12:27:36Z</time><name>PT10619</name></trkpt>
<trkpt lat="53.371296" lon="-1.794836"><ele>258</ele><time>2020-08-05T12:27:37Z</time><name>PT10620</name></trkpt>
<trkpt lat="53.371297" lon="-1.794852"><ele>256</ele><time>2020-08-05T12:27:37Z</time><name>PT10621</name></trkpt>
<trkpt lat="53.371293" lon="-1.794870"><ele>256</ele><time>2020-08-05T12:27:39Z</time><name>PT10622</name></trkpt>
<trkpt lat="53.371291" lon="-1.794884"><ele>256</ele><time>2020-08-05T12:27:40Z</time><name>PT10623</name></trkpt>
<trkpt lat="53.371290" lon="-1.794903"><ele>257</ele><time>2020-08-05T12:27:40Z</time><name>PT10624</name></trkpt>
<trkpt lat="53.371285" lon="-1.794922"><ele>257</ele><time>2020-08-05T12:27:42Z</time><name>PT10625</name></trkpt>
<trkpt lat="53.371279" lon="-1.794936"><ele>257</ele><time>2020-08-05T12:27:43Z</time><name>PT10626</name></trkpt>
<trkpt lat="53.371277" lon="-1.794954"><ele>257</ele><time>2020-08-05T12:27:43Z</time><name>PT10627</name></trkpt>
<trkpt lat="53.371274" lon="-1.794974"><ele>257</ele><time>2020-08-05T12:27:45Z</time><name>PT10628</name></trkpt>
<trkpt lat="53.371270" lon="-1.794998"><ele>257</ele><time>2020-08-05T12:27:46Z</time><name>PT10629</name></trkpt>
<trkpt lat="53.371267" lon="-1.795014"><ele>257</ele><time>2020-08-05T12:27:47Z</time><name>PT10630</name></trkpt>
<trkpt lat="53.371264" lon="-1.795035"><ele>257</ele><time>2020-08-05T12:27:48Z</time><name>PT10631</name></trkpt>
<trkpt lat="53.371260" lon="-1.795056"><ele>258</ele><time>2020-08-05T12:27:49Z</time><name>PT10632</name></trkpt>
<trkpt lat="53.371258" lon="-1.795074"><ele>258</ele><time>2020-08-05T12:27:49Z</time><name>PT10633</name></trkpt>
<trkpt lat="53.371258" lon="-1.795093"><ele>258</ele><time>2020-08-05T12:27:51Z</time><name>PT10634</name></trkpt>
<trkpt lat="53.371260" lon="-1.795111"><ele>258</ele><time>2020-08-05T12:27:52Z</time><name>PT10635</name></trkpt>
<trkpt lat="53.371262" lon="-1.795127"><ele>258</ele><time>2020-08-05T12:27:52Z</time><name>PT10636</name></trkpt>
<trkpt lat="53.371263" lon="-1.795138"><ele>258</ele><time>2020-08-05T12:27:54Z</time><name>PT10637</name></trkpt>
<trkpt lat="53.371264" lon="-1.795147"><ele>258</ele><time>2020-08-05T12:27:55Z</time><name>PT10638</name></trkpt>
<trkpt lat="53.371265" lon="-1.795160"><ele>258</ele><time>2020-08-05T12:27:55Z</time><name>PT10639</name></trkpt>
<trkpt lat="53.371267" lon="-1.795172"><ele>258</ele><time>2020-08-05T12:27:57Z</time><name>PT10640</name></trkpt>
<trkpt lat="53.371266" lon="-1.795176"><ele>258</ele><time>2020-08-05T12:27:58Z</time><name>PT10641</name></trkpt>
<trkpt lat="53.371263" lon="-1.795177"><ele>258</ele><time>2020-08-05T12:27:58Z</time><name>PT10642</name></trkpt>
<trkpt lat="53.371260" lon="-1.795179"><ele>258</ele><time>2020-08-05T12:28:00Z</time><name>PT10643</name></trkpt>
<trkpt lat="53.371260" lon="-1.795180"><ele>258</ele><time>2020-08-05T12:28:01Z</time><name>PT10644</name></trkpt>
<trkpt lat="53.371260" lon="-1.795181"><ele>257</ele><time>2020-08-05T12:28:01Z</time><name>PT10645</name></trkpt>
<trkpt lat="53.371254" lon="-1.795192"><ele>257</ele><time>2020-08-05T12:28:03Z</time><name>PT10646</name></trkpt>
<trkpt lat="53.371250" lon="-1.795204"><ele>257</ele><time>2020-08-05T12:28:04Z</time><name>PT10647</name></trkpt>
<trkpt lat="53.371245" lon="-1.795219"><ele>257</ele><time>2020-08-05T12:28:04Z</time><name>PT10648</name></trkpt>
<trkpt lat="53.371238" lon="-1.795236"><ele>257</ele><time>2020-08-05T12:28:06Z</time><name>PT10649</name></trkpt>
<trkpt lat="53.371232" lon="-1.795252"><ele>257</ele><time>2020-08-05T12:28:07Z</time><name>PT10650</name></trkpt>
<trkpt lat="53.371232" lon="-1.795272"><ele>257</ele><time>2020-08-05T12:28:07Z</time><name>PT10651</name></trkpt>
<trkpt lat="53.371233" lon="-1.795289"><ele>256</ele><time>2020-08-05T12:28:09Z</time><name>PT10652</name></trkpt>
<trkpt lat="53.371231" lon="-1.795311"><ele>256</ele><time>2020-08-05T12:28:10Z</time><name>PT10653</name></trkpt>
<trkpt lat="53.371230" lon="-1.795335"><ele>256</ele><time>2020-08-05T12:28:10Z</time><name>PT10654</name></trkpt>
<trkpt lat="53.371232" lon="-1.795354"><ele>255</ele><time>2020-08-05T12:28:12Z</time><name>PT10655</name></trkpt>
<trkpt lat="53.371233" lon="-1.795373"><ele>256</ele><time>2020-08-05T12:28:13Z</time><name>PT10656</name></trkpt>
<trkpt lat="53.371231" lon="-1.795392"><ele>255</ele><time>2020-08-05T12:28:14Z</time><name>PT10657</name></trkpt>
<trkpt lat="53.371232" lon="-1.795418"><ele>255</ele><time>2020-08-05T12:28:15Z</time><name>PT10658</name></trkpt>
<trkpt lat="53.371226" lon="-1.795439"><ele>256</ele><time>2020-08-05T12:28:16Z</time><name>PT10659</name></trkpt>
<trkpt lat="53.371225" lon="-1.795458"><ele>256</ele><time>2020-08-05T12:28:17Z</time><name>PT10660</name></trkpt>
<trkpt lat="53.371220" lon="-1.795473"><ele>256</ele><time>2020-08-05T12:28:18Z</time><name>PT10661</name></trkpt>
<trkpt lat="53.371217" lon="-1.795490"><ele>256</ele><time>2020-08-05T12:28:19Z</time><name>PT10662</name></trkpt>
<trkpt lat="53.371216" lon="-1.795506"><ele>256</ele><time>2020-08-05T12:28:20Z</time><name>PT10663</name></trkpt>
<trkpt lat="53.371214" lon="-1.795523"><ele>257</ele><time>2020-08-05T12:28:21Z</time><name>PT10664</name></trkpt>
<trkpt lat="53.371206" lon="-1.795543"><ele>259</ele><time>2020-08-05T12:28:22Z</time><name>PT10665</name></trkpt>
<trkpt lat="53.371209" lon="-1.795567"><ele>258</ele><time>2020-08-05T12:28:22Z</time><name>PT10666</name></trkpt>
<trkpt lat="53.371211" lon="-1.795582"><ele>258</ele><time>2020-08-05T12:28:24Z</time><name>PT10667</name></trkpt>
<trkpt lat="53.371210" lon="-1.795603"><ele>257</ele><time>2020-08-05T12:28:25Z</time><name>PT10668</name></trkpt>
<trkpt lat="53.371208" lon="-1.795623"><ele>257</ele><time>2020-08-05T12:28:25Z</time><name>PT10669</name></trkpt>
<trkpt lat="53.371207" lon="-1.795639"><ele>257</ele><time>2020-08-05T12:28:27Z</time><name>PT10670</name></trkpt>
<trkpt lat="53.371205" lon="-1.795654"><ele>257</ele><time>2020-08-05T12:28:28Z</time><name>PT10671</name></trkpt>
<trkpt lat="53.371206" lon="-1.795667"><ele>256</ele><time>2020-08-05T12:28:28Z</time><name>PT10672</name></trkpt>
<trkpt lat="53.371205" lon="-1.795688"><ele>257</ele><time>2020-08-05T12:28:30Z</time><name>PT10673</name></trkpt>
<trkpt lat="53.371201" lon="-1.795697"><ele>257</ele><time>2020-08-05T12:28:31Z</time><name>PT10674</name></trkpt>
<trkpt lat="53.371199" lon="-1.795708"><ele>257</ele><time>2020-08-05T12:28:31Z</time><name>PT10675</name></trkpt>
<trkpt lat="53.371197" lon="-1.795719"><ele>257</ele><time>2020-08-05T12:28:33Z</time><name>PT10676</name></trkpt>
<trkpt lat="53.371195" lon="-1.795732"><ele>257</ele><time>2020-08-05T12:28:34Z</time><name>PT10677</name></trkpt>
<trkpt lat="53.371192" lon="-1.795742"><ele>257</ele><time>2020-08-05T12:28:34Z</time><name>PT10678</name></trkpt>
<trkpt lat="53.371188" lon="-1.795751"><ele>257</ele><time>2020-08-05T12:28:36Z</time><name>PT10679</name></trkpt>
<trkpt lat="53.371183" lon="-1.795758"><ele>258</ele><time>2020-08-05T12:28:37Z</time><name>PT10680</name></trkpt>
<trkpt lat="53.371179" lon="-1.795766"><ele>258</ele><time>2020-08-05T12:28:37Z</time><name>PT10681</name></trkpt>
<trkpt lat="53.371174" lon="-1.795776"><ele>259</ele><time>2020-08-05T12:28:39Z</time><name>PT10682</name></trkpt>
<trkpt lat="53.371168" lon="-1.795787"><ele>259</ele><time>2020-08-05T12:28:42Z</time><name>PT10683</name></trkpt>
<trkpt lat="53.371152" lon="-1.795815"><ele>259</ele><time>2020-08-05T12:28:43Z</time><name>PT10684</name></trkpt>
<trkpt lat="53.371147" lon="-1.795834"><ele>259</ele><time>2020-08-05T12:28:43Z</time><name>PT10685</name></trkpt>
<trkpt lat="53.371141" lon="-1.795856"><ele>258</ele><time>2020-08-05T12:28:45Z</time><name>PT10686</name></trkpt>
<trkpt lat="53.371138" lon="-1.795883"><ele>258</ele><time>2020-08-05T12:28:46Z</time><name>PT10687</name></trkpt>
<trkpt lat="53.371132" lon="-1.795912"><ele>258</ele><time>2020-08-05T12:28:46Z</time><name>PT10688</name></trkpt>
<trkpt lat="53.371131" lon="-1.795940"><ele>258</ele><time>2020-08-05T12:28:48Z</time><name>PT10689</name></trkpt>
<trkpt lat="53.371135" lon="-1.795959"><ele>258</ele><time>2020-08-05T12:28:49Z</time><name>PT10690</name></trkpt>
<trkpt lat="53.371132" lon="-1.795979"><ele>258</ele><time>2020-08-05T12:28:49Z</time><name>PT10691</name></trkpt>
<trkpt lat="53.371129" lon="-1.796002"><ele>258</ele><time>2020-08-05T12:28:51Z</time><name>PT10692</name></trkpt>
<trkpt lat="53.371126" lon="-1.796023"><ele>258</ele><time>2020-08-05T12:28:52Z</time><name>PT10693</name></trkpt>
<trkpt lat="53.371128" lon="-1.796046"><ele>257</ele><time>2020-08-05T12:28:52Z</time><name>PT10694</name></trkpt>
<trkpt lat="53.371132" lon="-1.796066"><ele>256</ele><time>2020-08-05T12:28:54Z</time><name>PT10695</name></trkpt>
<trkpt lat="53.371136" lon="-1.796083"><ele>256</ele><time>2020-08-05T12:28:55Z</time><name>PT10696</name></trkpt>
<trkpt lat="53.371136" lon="-1.796105"><ele>257</ele><time>2020-08-05T12:28:55Z</time><name>PT10697</name></trkpt>
<trkpt lat="53.371135" lon="-1.796125"><ele>257</ele><time>2020-08-05T12:28:57Z</time><name>PT10698</name></trkpt>
<trkpt lat="53.371135" lon="-1.796140"><ele>257</ele><time>2020-08-05T12:28:58Z</time><name>PT10699</name></trkpt>
<trkpt lat="53.371134" lon="-1.796148"><ele>257</ele><time>2020-08-05T12:28:58Z</time><name>PT10700</name></trkpt>
<trkpt lat="53.371137" lon="-1.796170"><ele>258</ele><time>2020-08-05T12:29:00Z</time><name>PT10701</name></trkpt>
<trkpt lat="53.371140" lon="-1.796194"><ele>257</ele><time>2020-08-05T12:29:01Z</time><name>PT10702</name></trkpt>
<trkpt lat="53.371144" lon="-1.796214"><ele>256</ele><time>2020-08-05T12:29:01Z</time><name>PT10703</name></trkpt>
<trkpt lat="53.371146" lon="-1.796230"><ele>255</ele><time>2020-08-05T12:29:03Z</time><name>PT10704</name></trkpt>
<trkpt lat="53.371144" lon="-1.796247"><ele>256</ele><time>2020-08-05T12:29:04Z</time><name>PT10705</name></trkpt>
<trkpt lat="53.371146" lon="-1.796271"><ele>256</ele><time>2020-08-05T12:29:04Z</time><name>PT10706</name></trkpt>
<trkpt lat="53.371144" lon="-1.796286"><ele>257</ele><time>2020-08-05T12:29:06Z</time><name>PT10707</name></trkpt>
<trkpt lat="53.371144" lon="-1.796298"><ele>256</ele><time>2020-08-05T12:29:07Z</time><name>PT10708</name></trkpt>
<trkpt lat="53.371141" lon="-1.796310"><ele>256</ele><time>2020-08-05T12:29:07Z</time><name>PT10709</name></trkpt>
<trkpt lat="53.371139" lon="-1.796324"><ele>256</ele><time>2020-08-05T12:29:09Z</time><name>PT10710</name></trkpt>
<trkpt lat="53.371140" lon="-1.796348"><ele>255</ele><time>2020-08-05T12:29:10Z</time><name>PT10711</name></trkpt>
<trkpt lat="53.371136" lon="-1.796358"><ele>256</ele><time>2020-08-05T12:29:10Z</time><name>PT10712</name></trkpt>
<trkpt lat="53.371134" lon="-1.796366"><ele>255</ele><time>2020-08-05T12:29:12Z</time><name>PT10713</name></trkpt>
<trkpt lat="53.371125" lon="-1.796379"><ele>256</ele><time>2020-08-05T12:29:13Z</time><name>PT10714</name></trkpt>
<trkpt lat="53.371121" lon="-1.796396"><ele>258</ele><time>2020-08-05T12:29:13Z</time><name>PT10715</name></trkpt>
<trkpt lat="53.371112" lon="-1.796412"><ele>259</ele><time>2020-08-05T12:29:15Z</time><name>PT10716</name></trkpt>
<trkpt lat="53.371111" lon="-1.796427"><ele>259</ele><time>2020-08-05T12:29:16Z</time><name>PT10717</name></trkpt>
<trkpt lat="53.371108" lon="-1.796448"><ele>258</ele><time>2020-08-05T12:29:16Z</time><name>PT10718</name></trkpt>
<trkpt lat="53.371104" lon="-1.796458"><ele>258</ele><time>2020-08-05T12:29:18Z</time><name>PT10719</name></trkpt>
<trkpt lat="53.371098" lon="-1.796472"><ele>259</ele><time>2020-08-05T12:29:19Z</time><name>PT10720</name></trkpt>
<trkpt lat="53.371095" lon="-1.796490"><ele>259</ele><time>2020-08-05T12:29:20Z</time><name>PT10721</name></trkpt>
<trkpt lat="53.371091" lon="-1.796506"><ele>259</ele><time>2020-08-05T12:29:21Z</time><name>PT10722</name></trkpt>
<trkpt lat="53.371088" lon="-1.796525"><ele>258</ele><time>2020-08-05T12:29:22Z</time><name>PT10723</name></trkpt>
<trkpt lat="53.371086" lon="-1.796548"><ele>258</ele><time>2020-08-05T12:29:22Z</time><name>PT10724</name></trkpt>
<trkpt lat="53.371083" lon="-1.796565"><ele>258</ele><time>2020-08-05T12:29:24Z</time><name>PT10725</name></trkpt>
<trkpt lat="53.371079" lon="-1.796579"><ele>258</ele><time>2020-08-05T12:29:25Z</time><name>PT10726</name></trkpt>
<trkpt lat="53.371080" lon="-1.796593"><ele>258</ele><time>2020-08-05T12:29:25Z</time><name>PT10727</name></trkpt>
<trkpt lat="53.371085" lon="-1.796605"><ele>256</ele><time>2020-08-05T12:29:27Z</time><name>PT10728</name></trkpt>
<trkpt lat="53.371082" lon="-1.796628"><ele>256</ele><time>2020-08-05T12:29:28Z</time><name>PT10729</name></trkpt>
<trkpt lat="53.371077" lon="-1.796649"><ele>257</ele><time>2020-08-05T12:29:28Z</time><name>PT10730</name></trkpt>
<trkpt lat="53.371079" lon="-1.796666"><ele>256</ele><time>2020-08-05T12:29:30Z</time><name>PT10731</name></trkpt>
<trkpt lat="53.371076" lon="-1.796687"><ele>256</ele><time>2020-08-05T12:29:31Z</time><name>PT10732</name></trkpt>
<trkpt lat="53.371073" lon="-1.796702"><ele>256</ele><time>2020-08-05T12:29:31Z</time><name>PT10733</name></trkpt>
<trkpt lat="53.371073" lon="-1.796713"><ele>256</ele><time>2020-08-05T12:29:33Z</time><name>PT10734</name></trkpt>
<trkpt lat="53.371075" lon="-1.796726"><ele>256</ele><time>2020-08-05T12:29:34Z</time><name>PT10735</name></trkpt>
<trkpt lat="53.371074" lon="-1.796728"><ele>255</ele><time>2020-08-05T12:29:34Z</time><name>PT10736</name></trkpt>
<trkpt lat="53.371057" lon="-1.796766"><ele>257</ele><time>2020-08-05T12:29:36Z</time><name>PT10737</name></trkpt>
<trkpt lat="53.371047" lon="-1.796788"><ele>258</ele><time>2020-08-05T12:29:37Z</time><name>PT10738</name></trkpt>
<trkpt lat="53.371042" lon="-1.796804"><ele>258</ele><time>2020-08-05T12:29:37Z</time><name>PT10739</name></trkpt>
<trkpt lat="53.371026" lon="-1.796834"><ele>258</ele><time>2020-08-05T12:29:49Z</time><name>PT10740</name></trkpt>
<trkpt lat="53.371007" lon="-1.796869"><ele>258</ele><time>2020-08-05T12:29:51Z</time><name>PT10741</name></trkpt>
<trkpt lat="53.370993" lon="-1.796900"><ele>258</ele><time>2020-08-05T12:29:52Z</time><name>PT10742</name></trkpt>
<trkpt lat="53.370987" lon="-1.796921"><ele>258</ele><time>2020-08-05T12:29:52Z</time><name>PT10743</name></trkpt>
<trkpt lat="53.370984" lon="-1.796940"><ele>257</ele><time>2020-08-05T12:29:54Z</time><name>PT10744</name></trkpt>
<trkpt lat="53.370982" lon="-1.796960"><ele>256</ele><time>2020-08-05T12:29:55Z</time><name>PT10745</name></trkpt>
<trkpt lat="53.370976" lon="-1.796987"><ele>258</ele><time>2020-08-05T12:29:56Z</time><name>PT10746</name></trkpt>
<trkpt lat="53.370975" lon="-1.797012"><ele>259</ele><time>2020-08-05T12:29:57Z</time><name>PT10747</name></trkpt>
<trkpt lat="53.370965" lon="-1.797044"><ele>260</ele><time>2020-08-05T12:29:58Z</time><name>PT10748</name></trkpt>
<trkpt lat="53.370953" lon="-1.797065"><ele>261</ele><time>2020-08-05T12:29:59Z</time><name>PT10749</name></trkpt>
<trkpt lat="53.370944" lon="-1.797089"><ele>261</ele><time>2020-08-05T12:30:00Z</time><name>PT10750</name></trkpt>
<trkpt lat="53.370943" lon="-1.797112"><ele>260</ele><time>2020-08-05T12:30:01Z</time><name>PT10751</name></trkpt>
<trkpt lat="53.370935" lon="-1.797133"><ele>260</ele><time>2020-08-05T12:30:01Z</time><name>PT10752</name></trkpt>
<trkpt lat="53.370929" lon="-1.797153"><ele>259</ele><time>2020-08-05T12:30:03Z</time><name>PT10753</name></trkpt>
<trkpt lat="53.370922" lon="-1.797172"><ele>259</ele><time>2020-08-05T12:30:04Z</time><name>PT10754</name></trkpt>
<trkpt lat="53.370914" lon="-1.797192"><ele>259</ele><time>2020-08-05T12:30:04Z</time><name>PT10755</name></trkpt>
<trkpt lat="53.370908" lon="-1.797210"><ele>259</ele><time>2020-08-05T12:30:06Z</time><name>PT10756</name></trkpt>
<trkpt lat="53.370901" lon="-1.797227"><ele>259</ele><time>2020-08-05T12:30:07Z</time><name>PT10757</name></trkpt>
<trkpt lat="53.370894" lon="-1.797244"><ele>259</ele><time>2020-08-05T12:30:07Z</time><name>PT10758</name></trkpt>
<trkpt lat="53.370890" lon="-1.797262"><ele>259</ele><time>2020-08-05T12:30:09Z</time><name>PT10759</name></trkpt>
<trkpt lat="53.370883" lon="-1.797281"><ele>259</ele><time>2020-08-05T12:30:10Z</time><name>PT10760</name></trkpt>
<trkpt lat="53.370875" lon="-1.797302"><ele>259</ele><time>2020-08-05T12:30:10Z</time><name>PT10761</name></trkpt>
<trkpt lat="53.370869" lon="-1.797322"><ele>259</ele><time>2020-08-05T12:30:12Z</time><name>PT10762</name></trkpt>
<trkpt lat="53.370864" lon="-1.797343"><ele>259</ele><time>2020-08-05T12:30:13Z</time><name>PT10763</name></trkpt>
<trkpt lat="53.370860" lon="-1.797365"><ele>258</ele><time>2020-08-05T12:30:13Z</time><name>PT10764</name></trkpt>
<trkpt lat="53.370849" lon="-1.797385"><ele>258</ele><time>2020-08-05T12:30:15Z</time><name>PT10765</name></trkpt>
<trkpt lat="53.370843" lon="-1.797399"><ele>258</ele><time>2020-08-05T12:30:16Z</time><name>PT10766</name></trkpt>
<trkpt lat="53.370840" lon="-1.797416"><ele>258</ele><time>2020-08-05T12:30:16Z</time><name>PT10767</name></trkpt>
<trkpt lat="53.370836" lon="-1.797432"><ele>258</ele><time>2020-08-05T12:30:18Z</time><name>PT10768</name></trkpt>
<trkpt lat="53.370830" lon="-1.797446"><ele>258</ele><time>2020-08-05T12:30:19Z</time><name>PT10769</name></trkpt>
<trkpt lat="53.370824" lon="-1.797462"><ele>257</ele><time>2020-08-05T12:30:19Z</time><name>PT10770</name></trkpt>
<trkpt lat="53.370820" lon="-1.797476"><ele>257</ele><time>2020-08-05T12:30:21Z</time><name>PT10771</name></trkpt>
<trkpt lat="53.370816" lon="-1.797487"><ele>257</ele><time>2020-08-05T12:30:22Z</time><name>PT10772</name></trkpt>
<trkpt lat="53.370812" lon="-1.797499"><ele>257</ele><time>2020-08-05T12:30:22Z</time><name>PT10773</name></trkpt>
<trkpt lat="53.370811" lon="-1.797510"><ele>257</ele><time>2020-08-05T12:30:24Z</time><name>PT10774</name></trkpt>
<trkpt lat="53.370808" lon="-1.797525"><ele>257</ele><time>2020-08-05T12:30:25Z</time><name>PT10775</name></trkpt>
<trkpt lat="53.370803" lon="-1.797538"><ele>257</ele><time>2020-08-05T12:30:25Z</time><name>PT10776</name></trkpt>
<trkpt lat="53.370796" lon="-1.797551"><ele>257</ele><time>2020-08-05T12:30:27Z</time><name>PT10777</name></trkpt>
<trkpt lat="53.370789" lon="-1.797564"><ele>257</ele><time>2020-08-05T12:30:28Z</time><name>PT10778</name></trkpt>
<trkpt lat="53.370786" lon="-1.797571"><ele>257</ele><time>2020-08-05T12:30:28Z</time><name>PT10779</name></trkpt>
<trkpt lat="53.370776" lon="-1.797579"><ele>257</ele><time>2020-08-05T12:30:30Z</time><name>PT10780</name></trkpt>
<trkpt lat="53.370771" lon="-1.797585"><ele>257</ele><time>2020-08-05T12:30:31Z</time><name>PT10781</name></trkpt>
<trkpt lat="53.370770" lon="-1.797592"><ele>257</ele><time>2020-08-05T12:30:31Z</time><name>PT10782</name></trkpt>
<trkpt lat="53.370767" lon="-1.797599"><ele>256</ele><time>2020-08-05T12:30:33Z</time><name>PT10783</name></trkpt>
<trkpt lat="53.370763" lon="-1.797607"><ele>257</ele><time>2020-08-05T12:30:34Z</time><name>PT10784</name></trkpt>
<trkpt lat="53.370762" lon="-1.797617"><ele>257</ele><time>2020-08-05T12:30:34Z</time><name>PT10785</name></trkpt>
<trkpt lat="53.370761" lon="-1.797625"><ele>257</ele><time>2020-08-05T12:30:36Z</time><name>PT10786</name></trkpt>
<trkpt lat="53.370757" lon="-1.797633"><ele>258</ele><time>2020-08-05T12:30:37Z</time><name>PT10787</name></trkpt>
<trkpt lat="53.370754" lon="-1.797638"><ele>258</ele><time>2020-08-05T12:30:38Z</time><name>PT10788</name></trkpt>
<trkpt lat="53.370742" lon="-1.797653"><ele>259</ele><time>2020-08-05T12:30:39Z</time><name>PT10789</name></trkpt>
<trkpt lat="53.370737" lon="-1.797661"><ele>259</ele><time>2020-08-05T12:30:40Z</time><name>PT10790</name></trkpt>
<trkpt lat="53.370736" lon="-1.797670"><ele>260</ele><time>2020-08-05T12:30:41Z</time><name>PT10791</name></trkpt>
<trkpt lat="53.370732" lon="-1.797673"><ele>260</ele><time>2020-08-05T12:30:42Z</time><name>PT10792</name></trkpt>
<trkpt lat="53.370728" lon="-1.797678"><ele>260</ele><time>2020-08-05T12:30:43Z</time><name>PT10793</name></trkpt>
<trkpt lat="53.370722" lon="-1.797690"><ele>260</ele><time>2020-08-05T12:30:44Z</time><name>PT10794</name></trkpt>
<trkpt lat="53.370718" lon="-1.797699"><ele>260</ele><time>2020-08-05T12:30:45Z</time><name>PT10795</name></trkpt>
<trkpt lat="53.370713" lon="-1.797707"><ele>258</ele><time>2020-08-05T12:30:46Z</time><name>PT10796</name></trkpt>
<trkpt lat="53.370709" lon="-1.797722"><ele>258</ele><time>2020-08-05T12:30:47Z</time><name>PT10797</name></trkpt>
<trkpt lat="53.370702" lon="-1.797742"><ele>258</ele><time>2020-08-05T12:30:48Z</time><name>PT10798</name></trkpt>
<trkpt lat="53.370691" lon="-1.797755"><ele>258</ele><time>2020-08-05T12:30:49Z</time><name>PT10799</name></trkpt>
<trkpt lat="53.370690" lon="-1.797758"><ele>257</ele><time>2020-08-05T12:30:49Z</time><name>PT10800</name></trkpt>
<trkpt lat="53.370686" lon="-1.797770"><ele>256</ele><time>2020-08-05T12:30:51Z</time><name>PT10801</name></trkpt>
<trkpt lat="53.370683" lon="-1.797781"><ele>256</ele><time>2020-08-05T12:30:52Z</time><name>PT10802</name></trkpt>
<trkpt lat="53.370678" lon="-1.797787"><ele>256</ele><time>2020-08-05T12:30:53Z</time><name>PT10803</name></trkpt>
<trkpt lat="53.370672" lon="-1.797799"><ele>256</ele><time>2020-08-05T12:30:54Z</time><name>PT10804</name></trkpt>
<trkpt lat="53.370668" lon="-1.797815"><ele>255</ele><time>2020-08-05T12:30:55Z</time><name>PT10805</name></trkpt>
<trkpt lat="53.370659" lon="-1.797823"><ele>254</ele><time>2020-08-05T12:30:56Z</time><name>PT10806</name></trkpt>
<trkpt lat="53.370652" lon="-1.797832"><ele>253</ele><time>2020-08-05T12:30:57Z</time><name>PT10807</name></trkpt>
<trkpt lat="53.370645" lon="-1.797847"><ele>253</ele><time>2020-08-05T12:30:58Z</time><name>PT10808</name></trkpt>
<trkpt lat="53.370637" lon="-1.797866"><ele>254</ele><time>2020-08-05T12:30:59Z</time><name>PT10809</name></trkpt>
<trkpt lat="53.370630" lon="-1.797883"><ele>253</ele><time>2020-08-05T12:31:00Z</time><name>PT10810</name></trkpt>
<trkpt lat="53.370622" lon="-1.797898"><ele>253</ele><time>2020-08-05T12:31:01Z</time><name>PT10811</name></trkpt>
<trkpt lat="53.370614" lon="-1.797925"><ele>254</ele><time>2020-08-05T12:31:02Z</time><name>PT10812</name></trkpt>
<trkpt lat="53.370612" lon="-1.797940"><ele>254</ele><time>2020-08-05T12:31:03Z</time><name>PT10813</name></trkpt>
<trkpt lat="53.370610" lon="-1.797950"><ele>253</ele><time>2020-08-05T12:31:04Z</time><name>PT10814</name></trkpt>
<trkpt lat="53.370605" lon="-1.797958"><ele>253</ele><time>2020-08-05T12:31:04Z</time><name>PT10815</name></trkpt>
<trkpt lat="53.370599" lon="-1.797968"><ele>252</ele><time>2020-08-05T12:31:06Z</time><name>PT10816</name></trkpt>
<trkpt lat="53.370590" lon="-1.797978"><ele>252</ele><time>2020-08-05T12:31:07Z</time><name>PT10817</name></trkpt>
<trkpt lat="53.370586" lon="-1.797996"><ele>251</ele><time>2020-08-05T12:31:07Z</time><name>PT10818</name></trkpt>
<trkpt lat="53.370580" lon="-1.798021"><ele>251</ele><time>2020-08-05T12:31:09Z</time><name>PT10819</name></trkpt>
<trkpt lat="53.370577" lon="-1.798042"><ele>250</ele><time>2020-08-05T12:31:10Z</time><name>PT10820</name></trkpt>
<trkpt lat="53.370572" lon="-1.798060"><ele>250</ele><time>2020-08-05T12:31:10Z</time><name>PT10821</name></trkpt>
<trkpt lat="53.370570" lon="-1.798074"><ele>250</ele><time>2020-08-05T12:31:12Z</time><name>PT10822</name></trkpt>
<trkpt lat="53.370568" lon="-1.798089"><ele>250</ele><time>2020-08-05T12:31:13Z</time><name>PT10823</name></trkpt>
<trkpt lat="53.370564" lon="-1.798105"><ele>250</ele><time>2020-08-05T12:31:13Z</time><name>PT10824</name></trkpt>
<trkpt lat="53.370561" lon="-1.798123"><ele>250</ele><time>2020-08-05T12:31:15Z</time><name>PT10825</name></trkpt>
<trkpt lat="53.370554" lon="-1.798142"><ele>251</ele><time>2020-08-05T12:31:16Z</time><name>PT10826</name></trkpt>
<trkpt lat="53.370551" lon="-1.798158"><ele>250</ele><time>2020-08-05T12:31:16Z</time><name>PT10827</name></trkpt>
<trkpt lat="53.370548" lon="-1.798165"><ele>250</ele><time>2020-08-05T12:31:18Z</time><name>PT10828</name></trkpt>
<trkpt lat="53.370539" lon="-1.798173"><ele>250</ele><time>2020-08-05T12:31:19Z</time><name>PT10829</name></trkpt>
<trkpt lat="53.370537" lon="-1.798191"><ele>249</ele><time>2020-08-05T12:31:19Z</time><name>PT10830</name></trkpt>
<trkpt lat="53.370533" lon="-1.798210"><ele>248</ele><time>2020-08-05T12:31:21Z</time><name>PT10831</name></trkpt>
<trkpt lat="53.370529" lon="-1.798231"><ele>248</ele><time>2020-08-05T12:31:22Z</time><name>PT10832</name></trkpt>
<trkpt lat="53.370527" lon="-1.798252"><ele>248</ele><time>2020-08-05T12:31:22Z</time><name>PT10833</name></trkpt>
<trkpt lat="53.370528" lon="-1.798275"><ele>248</ele><time>2020-08-05T12:31:24Z</time><name>PT10834</name></trkpt>
<trkpt lat="53.370516" lon="-1.798317"><ele>249</ele><time>2020-08-05T12:31:25Z</time><name>PT10835</name></trkpt>
<trkpt lat="53.370506" lon="-1.798354"><ele>250</ele><time>2020-08-05T12:31:25Z</time><name>PT10836</name></trkpt>
<trkpt lat="53.370499" lon="-1.798371"><ele>251</ele><time>2020-08-05T12:31:27Z</time><name>PT10837</name></trkpt>
<trkpt lat="53.370488" lon="-1.798387"><ele>253</ele><time>2020-08-05T12:31:28Z</time><name>PT10838</name></trkpt>
<trkpt lat="53.370483" lon="-1.798400"><ele>254</ele><time>2020-08-05T12:31:28Z</time><name>PT10839</name></trkpt>
<trkpt lat="53.370480" lon="-1.798412"><ele>256</ele><time>2020-08-05T12:31:30Z</time><name>PT10840</name></trkpt>
<trkpt lat="53.370477" lon="-1.798432"><ele>257</ele><time>2020-08-05T12:31:31Z</time><name>PT10841</name></trkpt>
<trkpt lat="53.370475" lon="-1.798444"><ele>257</ele><time>2020-08-05T12:31:31Z</time><name>PT10842</name></trkpt>
<trkpt lat="53.370477" lon="-1.798459"><ele>256</ele><time>2020-08-05T12:31:33Z</time><name>PT10843</name></trkpt>
<trkpt lat="53.370475" lon="-1.798485"><ele>256</ele><time>2020-08-05T12:31:34Z</time><name>PT10844</name></trkpt>
<trkpt lat="53.370471" lon="-1.798503"><ele>256</ele><time>2020-08-05T12:31:34Z</time><name>PT10845</name></trkpt>
<trkpt lat="53.370471" lon="-1.798518"><ele>256</ele><time>2020-08-05T12:31:36Z</time><name>PT10846</name></trkpt>
<trkpt lat="53.370468" lon="-1.798534"><ele>256</ele><time>2020-08-05T12:31:37Z</time><name>PT10847</name></trkpt>
<trkpt lat="53.370464" lon="-1.798558"><ele>256</ele><time>2020-08-05T12:31:37Z</time><name>PT10848</name></trkpt>
<trkpt lat="53.370462" lon="-1.798576"><ele>256</ele><time>2020-08-05T12:31:39Z</time><name>PT10849</name></trkpt>
<trkpt lat="53.370462" lon="-1.798592"><ele>255</ele><time>2020-08-05T12:31:40Z</time><name>PT10850</name></trkpt>
<trkpt lat="53.370460" lon="-1.798602"><ele>255</ele><time>2020-08-05T12:31:40Z</time><name>PT10851</name></trkpt>
<trkpt lat="53.370455" lon="-1.798619"><ele>256</ele><time>2020-08-05T12:31:42Z</time><name>PT10852</name></trkpt>
<trkpt lat="53.370456" lon="-1.798638"><ele>257</ele><time>2020-08-05T12:31:43Z</time><name>PT10853</name></trkpt>
<trkpt lat="53.370454" lon="-1.798668"><ele>256</ele><time>2020-08-05T12:31:49Z</time><name>PT10854</name></trkpt>
<trkpt lat="53.370450" lon="-1.798697"><ele>255</ele><time>2020-08-05T12:31:51Z</time><name>PT10855</name></trkpt>
<trkpt lat="53.370446" lon="-1.798716"><ele>255</ele><time>2020-08-05T12:31:52Z</time><name>PT10856</name></trkpt>
<trkpt lat="53.370442" lon="-1.798741"><ele>255</ele><time>2020-08-05T12:31:53Z</time><name>PT10857</name></trkpt>
<trkpt lat="53.370436" lon="-1.798764"><ele>255</ele><time>2020-08-05T12:31:54Z</time><name>PT10858</name></trkpt>
<trkpt lat="53.370441" lon="-1.798779"><ele>255</ele><time>2020-08-05T12:31:55Z</time><name>PT10859</name></trkpt>
<trkpt lat="53.370446" lon="-1.798793"><ele>255</ele><time>2020-08-05T12:31:55Z</time><name>PT10860</name></trkpt>
<trkpt lat="53.370441" lon="-1.798806"><ele>255</ele><time>2020-08-05T12:31:57Z</time><name>PT10861</name></trkpt>
<trkpt lat="53.370435" lon="-1.798818"><ele>255</ele><time>2020-08-05T12:31:58Z</time><name>PT10862</name></trkpt>
<trkpt lat="53.370434" lon="-1.798837"><ele>255</ele><time>2020-08-05T12:31:58Z</time><name>PT10863</name></trkpt>
<trkpt lat="53.370433" lon="-1.798862"><ele>254</ele><time>2020-08-05T12:32:00Z</time><name>PT10864</name></trkpt>
<trkpt lat="53.370426" lon="-1.798893"><ele>253</ele><time>2020-08-05T12:32:01Z</time><name>PT10865</name></trkpt>
<trkpt lat="53.370428" lon="-1.798921"><ele>253</ele><time>2020-08-05T12:32:01Z</time><name>PT10866</name></trkpt>
<trkpt lat="53.370428" lon="-1.798949"><ele>254</ele><time>2020-08-05T12:32:03Z</time><name>PT10867</name></trkpt>
<trkpt lat="53.370426" lon="-1.798973"><ele>254</ele><time>2020-08-05T12:32:04Z</time><name>PT10868</name></trkpt>
<trkpt lat="53.370422" lon="-1.798995"><ele>254</ele><time>2020-08-05T12:32:05Z</time><name>PT10869</name></trkpt>
<trkpt lat="53.370420" lon="-1.799012"><ele>254</ele><time>2020-08-05T12:32:06Z</time><name>PT10870</name></trkpt>
<trkpt lat="53.370419" lon="-1.799031"><ele>254</ele><time>2020-08-05T12:32:07Z</time><name>PT10871</name></trkpt>
<trkpt lat="53.370416" lon="-1.799050"><ele>254</ele><time>2020-08-05T12:32:07Z</time><name>PT10872</name></trkpt>
<trkpt lat="53.370415" lon="-1.799062"><ele>254</ele><time>2020-08-05T12:32:09Z</time><name>PT10873</name></trkpt>
<trkpt lat="53.370412" lon="-1.799070"><ele>254</ele><time>2020-08-05T12:32:10Z</time><name>PT10874</name></trkpt>
<trkpt lat="53.370410" lon="-1.799077"><ele>254</ele><time>2020-08-05T12:32:11Z</time><name>PT10875</name></trkpt>
<trkpt lat="53.370407" lon="-1.799085"><ele>255</ele><time>2020-08-05T12:32:12Z</time><name>PT10876</name></trkpt>
<trkpt lat="53.370405" lon="-1.799103"><ele>255</ele><time>2020-08-05T12:32:13Z</time><name>PT10877</name></trkpt>
<trkpt lat="53.370403" lon="-1.799118"><ele>255</ele><time>2020-08-05T12:32:14Z</time><name>PT10878</name></trkpt>
<trkpt lat="53.370400" lon="-1.799131"><ele>255</ele><time>2020-08-05T12:32:15Z</time><name>PT10879</name></trkpt>
<trkpt lat="53.370397" lon="-1.799144"><ele>255</ele><time>2020-08-05T12:32:16Z</time><name>PT10880</name></trkpt>
<trkpt lat="53.370395" lon="-1.799155"><ele>255</ele><time>2020-08-05T12:32:16Z</time><name>PT10881</name></trkpt>
<trkpt lat="53.370395" lon="-1.799170"><ele>256</ele><time>2020-08-05T12:32:18Z</time><name>PT10882</name></trkpt>
<trkpt lat="53.370395" lon="-1.799185"><ele>256</ele><time>2020-08-05T12:32:19Z</time><name>PT10883</name></trkpt>
<trkpt lat="53.370391" lon="-1.799195"><ele>256</ele><time>2020-08-05T12:32:20Z</time><name>PT10884</name></trkpt>
<trkpt lat="53.370387" lon="-1.799207"><ele>256</ele><time>2020-08-05T12:32:21Z</time><name>PT10885</name></trkpt>
<trkpt lat="53.370384" lon="-1.799213"><ele>256</ele><time>2020-08-05T12:32:22Z</time><name>PT10886</name></trkpt>
<trkpt lat="53.370379" lon="-1.799230"><ele>256</ele><time>2020-08-05T12:32:23Z</time><name>PT10887</name></trkpt>
<trkpt lat="53.370379" lon="-1.799244"><ele>256</ele><time>2020-08-05T12:32:24Z</time><name>PT10888</name></trkpt>
<trkpt lat="53.370378" lon="-1.799262"><ele>256</ele><time>2020-08-05T12:32:25Z</time><name>PT10889</name></trkpt>
<trkpt lat="53.370376" lon="-1.799278"><ele>257</ele><time>2020-08-05T12:32:26Z</time><name>PT10890</name></trkpt>
<trkpt lat="53.370370" lon="-1.799294"><ele>257</ele><time>2020-08-05T12:32:27Z</time><name>PT10891</name></trkpt>
<trkpt lat="53.370371" lon="-1.799316"><ele>257</ele><time>2020-08-05T12:32:28Z</time><name>PT10892</name></trkpt>
<trkpt lat="53.370368" lon="-1.799335"><ele>257</ele><time>2020-08-05T12:32:29Z</time><name>PT10893</name></trkpt>
<trkpt lat="53.370365" lon="-1.799356"><ele>257</ele><time>2020-08-05T12:32:30Z</time><name>PT10894</name></trkpt>
<trkpt lat="53.370363" lon="-1.799371"><ele>257</ele><time>2020-08-05T12:32:31Z</time><name>PT10895</name></trkpt>
<trkpt lat="53.370359" lon="-1.799383"><ele>257</ele><time>2020-08-05T12:32:32Z</time><name>PT10896</name></trkpt>
<trkpt lat="53.370355" lon="-1.799401"><ele>257</ele><time>2020-08-05T12:32:33Z</time><name>PT10897</name></trkpt>
<trkpt lat="53.370350" lon="-1.799420"><ele>257</ele><time>2020-08-05T12:32:34Z</time><name>PT10898</name></trkpt>
<trkpt lat="53.370346" lon="-1.799440"><ele>258</ele><time>2020-08-05T12:32:35Z</time><name>PT10899</name></trkpt>
<trkpt lat="53.370342" lon="-1.799453"><ele>258</ele><time>2020-08-05T12:32:36Z</time><name>PT10900</name></trkpt>
<trkpt lat="53.370339" lon="-1.799472"><ele>258</ele><time>2020-08-05T12:32:37Z</time><name>PT10901</name></trkpt>
<trkpt lat="53.370333" lon="-1.799493"><ele>259</ele><time>2020-08-05T12:32:37Z</time><name>PT10902</name></trkpt>
<trkpt lat="53.370330" lon="-1.799511"><ele>259</ele><time>2020-08-05T12:32:39Z</time><name>PT10903</name></trkpt>
<trkpt lat="53.370326" lon="-1.799534"><ele>259</ele><time>2020-08-05T12:32:40Z</time><name>PT10904</name></trkpt>
<trkpt lat="53.370322" lon="-1.799560"><ele>260</ele><time>2020-08-05T12:32:40Z</time><name>PT10905</name></trkpt>
<trkpt lat="53.370317" lon="-1.799579"><ele>260</ele><time>2020-08-05T12:32:42Z</time><name>PT10906</name></trkpt>
<trkpt lat="53.370312" lon="-1.799602"><ele>260</ele><time>2020-08-05T12:32:43Z</time><name>PT10907</name></trkpt>
<trkpt lat="53.370310" lon="-1.799617"><ele>260</ele><time>2020-08-05T12:32:43Z</time><name>PT10908</name></trkpt>
<trkpt lat="53.370308" lon="-1.799631"><ele>260</ele><time>2020-08-05T12:32:45Z</time><name>PT10909</name></trkpt>
<trkpt lat="53.370302" lon="-1.799650"><ele>260</ele><time>2020-08-05T12:32:46Z</time><name>PT10910</name></trkpt>
<trkpt lat="53.370302" lon="-1.799664"><ele>260</ele><time>2020-08-05T12:32:46Z</time><name>PT10911</name></trkpt>
<trkpt lat="53.370301" lon="-1.799677"><ele>260</ele><time>2020-08-05T12:32:48Z</time><name>PT10912</name></trkpt>
<trkpt lat="53.370299" lon="-1.799693"><ele>259</ele><time>2020-08-05T12:32:49Z</time><name>PT10913</name></trkpt>
<trkpt lat="53.370297" lon="-1.799711"><ele>259</ele><time>2020-08-05T12:32:49Z</time><name>PT10914</name></trkpt>
<trkpt lat="53.370298" lon="-1.799728"><ele>258</ele><time>2020-08-05T12:32:51Z</time><name>PT10915</name></trkpt>
<trkpt lat="53.370297" lon="-1.799749"><ele>258</ele><time>2020-08-05T12:32:52Z</time><name>PT10916</name></trkpt>
<trkpt lat="53.370293" lon="-1.799771"><ele>259</ele><time>2020-08-05T12:32:52Z</time><name>PT10917</name></trkpt>
<trkpt lat="53.370290" lon="-1.799788"><ele>259</ele><time>2020-08-05T12:32:54Z</time><name>PT10918</name></trkpt>
<trkpt lat="53.370286" lon="-1.799806"><ele>259</ele><time>2020-08-05T12:32:55Z</time><name>PT10919</name></trkpt>
<trkpt lat="53.370282" lon="-1.799824"><ele>258</ele><time>2020-08-05T12:32:55Z</time><name>PT10920</name></trkpt>
<trkpt lat="53.370280" lon="-1.799845"><ele>258</ele><time>2020-08-05T12:32:57Z</time><name>PT10921</name></trkpt>
<trkpt lat="53.370282" lon="-1.799863"><ele>258</ele><time>2020-08-05T12:32:58Z</time><name>PT10922</name></trkpt>
<trkpt lat="53.370279" lon="-1.799884"><ele>257</ele><time>2020-08-05T12:32:58Z</time><name>PT10923</name></trkpt>
<trkpt lat="53.370274" lon="-1.799901"><ele>258</ele><time>2020-08-05T12:33:00Z</time><name>PT10924</name></trkpt>
<trkpt lat="53.370268" lon="-1.799923"><ele>258</ele><time>2020-08-05T12:33:01Z</time><name>PT10925</name></trkpt>
<trkpt lat="53.370264" lon="-1.799942"><ele>258</ele><time>2020-08-05T12:33:01Z</time><name>PT10926</name></trkpt>
<trkpt lat="53.370264" lon="-1.799956"><ele>257</ele><time>2020-08-05T12:33:03Z</time><name>PT10927</name></trkpt>
<trkpt lat="53.370262" lon="-1.799977"><ele>257</ele><time>2020-08-05T12:33:04Z</time><name>PT10928</name></trkpt>
<trkpt lat="53.370260" lon="-1.799998"><ele>257</ele><time>2020-08-05T12:33:04Z</time><name>PT10929</name></trkpt>
<trkpt lat="53.370257" lon="-1.800019"><ele>257</ele><time>2020-08-05T12:33:06Z</time><name>PT10930</name></trkpt>
<trkpt lat="53.370253" lon="-1.800039"><ele>257</ele><time>2020-08-05T12:33:07Z</time><name>PT10931</name></trkpt>
<trkpt lat="53.370249" lon="-1.800060"><ele>256</ele><time>2020-08-05T12:33:07Z</time><name>PT10932</name></trkpt>
<trkpt lat="53.370247" lon="-1.800083"><ele>256</ele><time>2020-08-05T12:33:09Z</time><name>PT10933</name></trkpt>
<trkpt lat="53.370245" lon="-1.800108"><ele>256</ele><time>2020-08-05T12:33:10Z</time><name>PT10934</name></trkpt>
<trkpt lat="53.370245" lon="-1.800131"><ele>256</ele><time>2020-08-05T12:33:10Z</time><name>PT10935</name></trkpt>
<trkpt lat="53.370238" lon="-1.800148"><ele>256</ele><time>2020-08-05T12:33:12Z</time><name>PT10936</name></trkpt>
<trkpt lat="53.370230" lon="-1.800168"><ele>255</ele><time>2020-08-05T12:33:13Z</time><name>PT10937</name></trkpt>
<trkpt lat="53.370221" lon="-1.800188"><ele>255</ele><time>2020-08-05T12:33:13Z</time><name>PT10938</name></trkpt>
<trkpt lat="53.370216" lon="-1.800209"><ele>255</ele><time>2020-08-05T12:33:15Z</time><name>PT10939</name></trkpt>
<trkpt lat="53.370209" lon="-1.800232"><ele>255</ele><time>2020-08-05T12:33:16Z</time><name>PT10940</name></trkpt>
<trkpt lat="53.370202" lon="-1.800254"><ele>256</ele><time>2020-08-05T12:33:16Z</time><name>PT10941</name></trkpt>
<trkpt lat="53.370197" lon="-1.800278"><ele>256</ele><time>2020-08-05T12:33:18Z</time><name>PT10942</name></trkpt>
<trkpt lat="53.370189" lon="-1.800300"><ele>256</ele><time>2020-08-05T12:33:19Z</time><name>PT10943</name></trkpt>
<trkpt lat="53.370185" lon="-1.800319"><ele>257</ele><time>2020-08-05T12:33:19Z</time><name>PT10944</name></trkpt>
<trkpt lat="53.370183" lon="-1.800337"><ele>257</ele><time>2020-08-05T12:33:21Z</time><name>PT10945</name></trkpt>
<trkpt lat="53.370183" lon="-1.800355"><ele>256</ele><time>2020-08-05T12:33:22Z</time><name>PT10946</name></trkpt>
<trkpt lat="53.370181" lon="-1.800380"><ele>257</ele><time>2020-08-05T12:33:22Z</time><name>PT10947</name></trkpt>
<trkpt lat="53.370179" lon="-1.800401"><ele>257</ele><time>2020-08-05T12:33:24Z</time><name>PT10948</name></trkpt>
<trkpt lat="53.370178" lon="-1.800423"><ele>257</ele><time>2020-08-05T12:33:25Z</time><name>PT10949</name></trkpt>
<trkpt lat="53.370178" lon="-1.800445"><ele>257</ele><time>2020-08-05T12:33:25Z</time><name>PT10950</name></trkpt>
<trkpt lat="53.370180" lon="-1.800467"><ele>257</ele><time>2020-08-05T12:33:27Z</time><name>PT10951</name></trkpt>
<trkpt lat="53.370181" lon="-1.800486"><ele>257</ele><time>2020-08-05T12:33:28Z</time><name>PT10952</name></trkpt>
<trkpt lat="53.370180" lon="-1.800507"><ele>257</ele><time>2020-08-05T12:33:29Z</time><name>PT10953</name></trkpt>
<trkpt lat="53.370181" lon="-1.800528"><ele>257</ele><time>2020-08-05T12:33:30Z</time><name>PT10954</name></trkpt>
<trkpt lat="53.370181" lon="-1.800548"><ele>257</ele><time>2020-08-05T12:33:31Z</time><name>PT10955</name></trkpt>
<trkpt lat="53.370181" lon="-1.800566"><ele>257</ele><time>2020-08-05T12:33:32Z</time><name>PT10956</name></trkpt>
<trkpt lat="53.370181" lon="-1.800580"><ele>257</ele><time>2020-08-05T12:33:33Z</time><name>PT10957</name></trkpt>
<trkpt lat="53.370179" lon="-1.800598"><ele>257</ele><time>2020-08-05T12:33:34Z</time><name>PT10958</name></trkpt>
<trkpt lat="53.370177" lon="-1.800617"><ele>258</ele><time>2020-08-05T12:33:35Z</time><name>PT10959</name></trkpt>
<trkpt lat="53.370175" lon="-1.800641"><ele>258</ele><time>2020-08-05T12:33:36Z</time><name>PT10960</name></trkpt>
<trkpt lat="53.370174" lon="-1.800664"><ele>257</ele><time>2020-08-05T12:33:37Z</time><name>PT10961</name></trkpt>
<trkpt lat="53.370173" lon="-1.800688"><ele>258</ele><time>2020-08-05T12:33:38Z</time><name>PT10962</name></trkpt>
<trkpt lat="53.370173" lon="-1.800712"><ele>257</ele><time>2020-08-05T12:33:39Z</time><name>PT10963</name></trkpt>
<trkpt lat="53.370174" lon="-1.800729"><ele>257</ele><time>2020-08-05T12:33:40Z</time><name>PT10964</name></trkpt>
<trkpt lat="53.370171" lon="-1.800749"><ele>258</ele><time>2020-08-05T12:33:41Z</time><name>PT10965</name></trkpt>
<trkpt lat="53.370170" lon="-1.800773"><ele>257</ele><time>2020-08-05T12:33:42Z</time><name>PT10966</name></trkpt>
<trkpt lat="53.370170" lon="-1.800796"><ele>257</ele><time>2020-08-05T12:33:43Z</time><name>PT10967</name></trkpt>
<trkpt lat="53.370169" lon="-1.800821"><ele>257</ele><time>2020-08-05T12:33:43Z</time><name>PT10968</name></trkpt>
<trkpt lat="53.370169" lon="-1.800844"><ele>257</ele><time>2020-08-05T12:33:45Z</time><name>PT10969</name></trkpt>
<trkpt lat="53.370166" lon="-1.800866"><ele>257</ele><time>2020-08-05T12:33:46Z</time><name>PT10970</name></trkpt>
<trkpt lat="53.370164" lon="-1.800887"><ele>257</ele><time>2020-08-05T12:33:47Z</time><name>PT10971</name></trkpt>
<trkpt lat="53.370163" lon="-1.800909"><ele>257</ele><time>2020-08-05T12:33:48Z</time><name>PT10972</name></trkpt>
<trkpt lat="53.370161" lon="-1.800932"><ele>258</ele><time>2020-08-05T12:33:49Z</time><name>PT10973</name></trkpt>
<trkpt lat="53.370160" lon="-1.800956"><ele>258</ele><time>2020-08-05T12:33:50Z</time><name>PT10974</name></trkpt>
<trkpt lat="53.370158" lon="-1.800982"><ele>258</ele><time>2020-08-05T12:33:51Z</time><name>PT10975</name></trkpt>
<trkpt lat="53.370158" lon="-1.801004"><ele>257</ele><time>2020-08-05T12:33:52Z</time><name>PT10976</name></trkpt>
<trkpt lat="53.370156" lon="-1.801025"><ele>257</ele><time>2020-08-05T12:33:53Z</time><name>PT10977</name></trkpt>
<trkpt lat="53.370154" lon="-1.801047"><ele>257</ele><time>2020-08-05T12:33:54Z</time><name>PT10978</name></trkpt>
<trkpt lat="53.370153" lon="-1.801070"><ele>257</ele><time>2020-08-05T12:33:55Z</time><name>PT10979</name></trkpt>
<trkpt lat="53.370152" lon="-1.801090"><ele>258</ele><time>2020-08-05T12:33:55Z</time><name>PT10980</name></trkpt>
<trkpt lat="53.370151" lon="-1.801114"><ele>258</ele><time>2020-08-05T12:33:57Z</time><name>PT10981</name></trkpt>
<trkpt lat="53.370149" lon="-1.801136"><ele>258</ele><time>2020-08-05T12:33:58Z</time><name>PT10982</name></trkpt>
<trkpt lat="53.370149" lon="-1.801158"><ele>258</ele><time>2020-08-05T12:33:58Z</time><name>PT10983</name></trkpt>
<trkpt lat="53.370148" lon="-1.801179"><ele>257</ele><time>2020-08-05T12:34:00Z</time><name>PT10984</name></trkpt>
<trkpt lat="53.370148" lon="-1.801200"><ele>257</ele><time>2020-08-05T12:34:01Z</time><name>PT10985</name></trkpt>
<trkpt lat="53.370146" lon="-1.801225"><ele>258</ele><time>2020-08-05T12:34:01Z</time><name>PT10986</name></trkpt>
<trkpt lat="53.370145" lon="-1.801248"><ele>258</ele><time>2020-08-05T12:34:03Z</time><name>PT10987</name></trkpt>
<trkpt lat="53.370144" lon="-1.801268"><ele>257</ele><time>2020-08-05T12:34:04Z</time><name>PT10988</name></trkpt>
<trkpt lat="53.370143" lon="-1.801284"><ele>257</ele><time>2020-08-05T12:34:04Z</time><name>PT10989</name></trkpt>
<trkpt lat="53.370143" lon="-1.801306"><ele>256</ele><time>2020-08-05T12:34:06Z</time><name>PT10990</name></trkpt>
<trkpt lat="53.370143" lon="-1.801327"><ele>256</ele><time>2020-08-05T12:34:07Z</time><name>PT10991</name></trkpt>
<trkpt lat="53.370141" lon="-1.801349"><ele>256</ele><time>2020-08-05T12:34:07Z</time><name>PT10992</name></trkpt>
<trkpt lat="53.370142" lon="-1.801372"><ele>256</ele><time>2020-08-05T12:34:09Z</time><name>PT10993</name></trkpt>
<trkpt lat="53.370142" lon="-1.801391"><ele>256</ele><time>2020-08-05T12:34:10Z</time><name>PT10994</name></trkpt>
<trkpt lat="53.370141" lon="-1.801411"><ele>256</ele><time>2020-08-05T12:34:10Z</time><name>PT10995</name></trkpt>
<trkpt lat="53.370138" lon="-1.801434"><ele>256</ele><time>2020-08-05T12:34:12Z</time><name>PT10996</name></trkpt>
<trkpt lat="53.370138" lon="-1.801454"><ele>255</ele><time>2020-08-05T12:34:13Z</time><name>PT10997</name></trkpt>
<trkpt lat="53.370138" lon="-1.801476"><ele>255</ele><time>2020-08-05T12:34:13Z</time><name>PT10998</name></trkpt>
<trkpt lat="53.370139" lon="-1.801498"><ele>255</ele><time>2020-08-05T12:34:15Z</time><name>PT10999</name></trkpt>
<trkpt lat="53.370139" lon="-1.801521"><ele>255</ele><time>2020-08-05T12:34:16Z</time><name>PT11000</name></trkpt>
<trkpt lat="53.370139" lon="-1.801537"><ele>255</ele><time>2020-08-05T12:34:16Z</time><name>PT11001</name></trkpt>
<trkpt lat="53.370138" lon="-1.801563"><ele>255</ele><time>2020-08-05T12:34:18Z</time><name>PT11002</name></trkpt>
<trkpt lat="53.370137" lon="-1.801583"><ele>255</ele><time>2020-08-05T12:34:19Z</time><name>PT11003</name></trkpt>
<trkpt lat="53.370137" lon="-1.801605"><ele>255</ele><time>2020-08-05T12:34:19Z</time><name>PT11004</name></trkpt>
<trkpt lat="53.370137" lon="-1.801628"><ele>255</ele><time>2020-08-05T12:34:21Z</time><name>PT11005</name></trkpt>
<trkpt lat="53.370138" lon="-1.801645"><ele>255</ele><time>2020-08-05T12:34:22Z</time><name>PT11006</name></trkpt>
<trkpt lat="53.370137" lon="-1.801666"><ele>255</ele><time>2020-08-05T12:34:22Z</time><name>PT11007</name></trkpt>
<trkpt lat="53.370136" lon="-1.801684"><ele>255</ele><time>2020-08-05T12:34:24Z</time><name>PT11008</name></trkpt>
<trkpt lat="53.370133" lon="-1.801705"><ele>255</ele><time>2020-08-05T12:34:25Z</time><name>PT11009</name></trkpt>
<trkpt lat="53.370134" lon="-1.801731"><ele>255</ele><time>2020-08-05T12:34:25Z</time><name>PT11010</name></trkpt>
<trkpt lat="53.370137" lon="-1.801755"><ele>255</ele><time>2020-08-05T12:34:27Z</time><name>PT11011</name></trkpt>
<trkpt lat="53.370138" lon="-1.801778"><ele>255</ele><time>2020-08-05T12:34:28Z</time><name>PT11012</name></trkpt>
<trkpt lat="53.370137" lon="-1.801798"><ele>255</ele><time>2020-08-05T12:34:28Z</time><name>PT11013</name></trkpt>
<trkpt lat="53.370132" lon="-1.801818"><ele>255</ele><time>2020-08-05T12:34:30Z</time><name>PT11014</name></trkpt>
<trkpt lat="53.370131" lon="-1.801835"><ele>255</ele><time>2020-08-05T12:34:31Z</time><name>PT11015</name></trkpt>
<trkpt lat="53.370129" lon="-1.801857"><ele>256</ele><time>2020-08-05T12:34:31Z</time><name>PT11016</name></trkpt>
<trkpt lat="53.370129" lon="-1.801880"><ele>256</ele><time>2020-08-05T12:34:33Z</time><name>PT11017</name></trkpt>
<trkpt lat="53.370128" lon="-1.801896"><ele>255</ele><time>2020-08-05T12:34:34Z</time><name>PT11018</name></trkpt>
<trkpt lat="53.370124" lon="-1.801912"><ele>255</ele><time>2020-08-05T12:34:34Z</time><name>PT11019</name></trkpt>
<trkpt lat="53.370123" lon="-1.801931"><ele>255</ele><time>2020-08-05T12:34:36Z</time><name>PT11020</name></trkpt>
<trkpt lat="53.370124" lon="-1.801944"><ele>255</ele><time>2020-08-05T12:34:37Z</time><name>PT11021</name></trkpt>
<trkpt lat="53.370125" lon="-1.801958"><ele>255</ele><time>2020-08-05T12:34:37Z</time><name>PT11022</name></trkpt>
<trkpt lat="53.370129" lon="-1.801978"><ele>255</ele><time>2020-08-05T12:34:39Z</time><name>PT11023</name></trkpt>
<trkpt lat="53.370131" lon="-1.801995"><ele>254</ele><time>2020-08-05T12:34:40Z</time><name>PT11024</name></trkpt>
<trkpt lat="53.370131" lon="-1.802011"><ele>255</ele><time>2020-08-05T12:34:41Z</time><name>PT11025</name></trkpt>
<trkpt lat="53.370133" lon="-1.802031"><ele>255</ele><time>2020-08-05T12:34:42Z</time><name>PT11026</name></trkpt>
<trkpt lat="53.370134" lon="-1.802049"><ele>255</ele><time>2020-08-05T12:34:43Z</time><name>PT11027</name></trkpt>
<trkpt lat="53.370134" lon="-1.802069"><ele>255</ele><time>2020-08-05T12:34:44Z</time><name>PT11028</name></trkpt>
<trkpt lat="53.370138" lon="-1.802085"><ele>255</ele><time>2020-08-05T12:34:45Z</time><name>PT11029</name></trkpt>
<trkpt lat="53.370140" lon="-1.802102"><ele>254</ele><time>2020-08-05T12:34:46Z</time><name>PT11030</name></trkpt>
<trkpt lat="53.370145" lon="-1.802115"><ele>254</ele><time>2020-08-05T12:34:47Z</time><name>PT11031</name></trkpt>
<trkpt lat="53.370151" lon="-1.802131"><ele>253</ele><time>2020-08-05T12:34:48Z</time><name>PT11032</name></trkpt>
<trkpt lat="53.370152" lon="-1.802150"><ele>253</ele><time>2020-08-05T12:34:49Z</time><name>PT11033</name></trkpt>
<trkpt lat="53.370155" lon="-1.802172"><ele>253</ele><time>2020-08-05T12:34:50Z</time><name>PT11034</name></trkpt>
<trkpt lat="53.370157" lon="-1.802198"><ele>254</ele><time>2020-08-05T12:34:51Z</time><name>PT11035</name></trkpt>
<trkpt lat="53.370159" lon="-1.802219"><ele>254</ele><time>2020-08-05T12:34:52Z</time><name>PT11036</name></trkpt>
<trkpt lat="53.370161" lon="-1.802239"><ele>254</ele><time>2020-08-05T12:34:53Z</time><name>PT11037</name></trkpt>
<trkpt lat="53.370161" lon="-1.802260"><ele>254</ele><time>2020-08-05T12:34:54Z</time><name>PT11038</name></trkpt>
<trkpt lat="53.370163" lon="-1.802281"><ele>255</ele><time>2020-08-05T12:34:55Z</time><name>PT11039</name></trkpt>
<trkpt lat="53.370166" lon="-1.802297"><ele>254</ele><time>2020-08-05T12:34:55Z</time><name>PT11040</name></trkpt>
<trkpt lat="53.370167" lon="-1.802319"><ele>255</ele><time>2020-08-05T12:34:57Z</time><name>PT11041</name></trkpt>
<trkpt lat="53.370172" lon="-1.802345"><ele>254</ele><time>2020-08-05T12:34:58Z</time><name>PT11042</name></trkpt>
<trkpt lat="53.370174" lon="-1.802363"><ele>254</ele><time>2020-08-05T12:34:58Z</time><name>PT11043</name></trkpt>
<trkpt lat="53.370175" lon="-1.802381"><ele>255</ele><time>2020-08-05T12:35:00Z</time><name>PT11044</name></trkpt>
<trkpt lat="53.370177" lon="-1.802398"><ele>255</ele><time>2020-08-05T12:35:01Z</time><name>PT11045</name></trkpt>
<trkpt lat="53.370180" lon="-1.802415"><ele>255</ele><time>2020-08-05T12:35:01Z</time><name>PT11046</name></trkpt>
<trkpt lat="53.370182" lon="-1.802436"><ele>255</ele><time>2020-08-05T12:35:03Z</time><name>PT11047</name></trkpt>
<trkpt lat="53.370185" lon="-1.802461"><ele>256</ele><time>2020-08-05T12:35:04Z</time><name>PT11048</name></trkpt>
<trkpt lat="53.370187" lon="-1.802485"><ele>256</ele><time>2020-08-05T12:35:04Z</time><name>PT11049</name></trkpt>
<trkpt lat="53.370189" lon="-1.802504"><ele>256</ele><time>2020-08-05T12:35:06Z</time><name>PT11050</name></trkpt>
<trkpt lat="53.370192" lon="-1.802525"><ele>256</ele><time>2020-08-05T12:35:07Z</time><name>PT11051</name></trkpt>
<trkpt lat="53.370194" lon="-1.802545"><ele>256</ele><time>2020-08-05T12:35:07Z</time><name>PT11052</name></trkpt>
<trkpt lat="53.370195" lon="-1.802564"><ele>257</ele><time>2020-08-05T12:35:09Z</time><name>PT11053</name></trkpt>
<trkpt lat="53.370197" lon="-1.802584"><ele>257</ele><time>2020-08-05T12:35:10Z</time><name>PT11054</name></trkpt>
<trkpt lat="53.370199" lon="-1.802605"><ele>256</ele><time>2020-08-05T12:35:10Z</time><name>PT11055</name></trkpt>
<trkpt lat="53.370200" lon="-1.802623"><ele>257</ele><time>2020-08-05T12:35:12Z</time><name>PT11056</name></trkpt>
<trkpt lat="53.370203" lon="-1.802644"><ele>257</ele><time>2020-08-05T12:35:13Z</time><name>PT11057</name></trkpt>
<trkpt lat="53.370206" lon="-1.802668"><ele>257</ele><time>2020-08-05T12:35:14Z</time><name>PT11058</name></trkpt>
<trkpt lat="53.370207" lon="-1.802690"><ele>257</ele><time>2020-08-05T12:35:15Z</time><name>PT11059</name></trkpt>
<trkpt lat="53.370206" lon="-1.802711"><ele>258</ele><time>2020-08-05T12:35:16Z</time><name>PT11060</name></trkpt>
<trkpt lat="53.370209" lon="-1.802735"><ele>258</ele><time>2020-08-05T12:35:17Z</time><name>PT11061</name></trkpt>
<trkpt lat="53.370211" lon="-1.802753"><ele>258</ele><time>2020-08-05T12:35:18Z</time><name>PT11062</name></trkpt>
<trkpt lat="53.370212" lon="-1.802769"><ele>258</ele><time>2020-08-05T12:35:19Z</time><name>PT11063</name></trkpt>
<trkpt lat="53.370216" lon="-1.802776"><ele>258</ele><time>2020-08-05T12:35:19Z</time><name>PT11064</name></trkpt>
<trkpt lat="53.370221" lon="-1.802789"><ele>259</ele><time>2020-08-05T12:35:21Z</time><name>PT11065</name></trkpt>
<trkpt lat="53.370226" lon="-1.802808"><ele>258</ele><time>2020-08-05T12:35:22Z</time><name>PT11066</name></trkpt>
<trkpt lat="53.370229" lon="-1.802836"><ele>258</ele><time>2020-08-05T12:35:22Z</time><name>PT11067</name></trkpt>
<trkpt lat="53.370234" lon="-1.802856"><ele>258</ele><time>2020-08-05T12:35:24Z</time><name>PT11068</name></trkpt>
<trkpt lat="53.370237" lon="-1.802873"><ele>258</ele><time>2020-08-05T12:35:25Z</time><name>PT11069</name></trkpt>
<trkpt lat="53.370240" lon="-1.802895"><ele>258</ele><time>2020-08-05T12:35:25Z</time><name>PT11070</name></trkpt>
<trkpt lat="53.370246" lon="-1.802916"><ele>258</ele><time>2020-08-05T12:35:27Z</time><name>PT11071</name></trkpt>
<trkpt lat="53.370251" lon="-1.802930"><ele>258</ele><time>2020-08-05T12:35:28Z</time><name>PT11072</name></trkpt>
<trkpt lat="53.370252" lon="-1.802953"><ele>258</ele><time>2020-08-05T12:35:28Z</time><name>PT11073</name></trkpt>
<trkpt lat="53.370254" lon="-1.802969"><ele>258</ele><time>2020-08-05T12:35:30Z</time><name>PT11074</name></trkpt>
<trkpt lat="53.370258" lon="-1.802986"><ele>257</ele><time>2020-08-05T12:35:31Z</time><name>PT11075</name></trkpt>
<trkpt lat="53.370263" lon="-1.803002"><ele>257</ele><time>2020-08-05T12:35:31Z</time><name>PT11076</name></trkpt>
<trkpt lat="53.370266" lon="-1.803016"><ele>257</ele><time>2020-08-05T12:35:33Z</time><name>PT11077</name></trkpt>
<trkpt lat="53.370271" lon="-1.803032"><ele>257</ele><time>2020-08-05T12:35:34Z</time><name>PT11078</name></trkpt>
<trkpt lat="53.370276" lon="-1.803049"><ele>256</ele><time>2020-08-05T12:35:34Z</time><name>PT11079</name></trkpt>
<trkpt lat="53.370277" lon="-1.803068"><ele>255</ele><time>2020-08-05T12:35:36Z</time><name>PT11080</name></trkpt>
<trkpt lat="53.370281" lon="-1.803088"><ele>255</ele><time>2020-08-05T12:35:37Z</time><name>PT11081</name></trkpt>
<trkpt lat="53.370289" lon="-1.803111"><ele>255</ele><time>2020-08-05T12:35:37Z</time><name>PT11082</name></trkpt>
<trkpt lat="53.370295" lon="-1.803129"><ele>255</ele><time>2020-08-05T12:35:39Z</time><name>PT11083</name></trkpt>
<trkpt lat="53.370299" lon="-1.803147"><ele>255</ele><time>2020-08-05T12:35:40Z</time><name>PT11084</name></trkpt>
<trkpt lat="53.370301" lon="-1.803170"><ele>254</ele><time>2020-08-05T12:35:40Z</time><name>PT11085</name></trkpt>
<trkpt lat="53.370305" lon="-1.803192"><ele>255</ele><time>2020-08-05T12:35:42Z</time><name>PT11086</name></trkpt>
<trkpt lat="53.370307" lon="-1.803211"><ele>255</ele><time>2020-08-05T12:35:43Z</time><name>PT11087</name></trkpt>
<trkpt lat="53.370306" lon="-1.803232"><ele>255</ele><time>2020-08-05T12:35:43Z</time><name>PT11088</name></trkpt>
<trkpt lat="53.370304" lon="-1.803253"><ele>256</ele><time>2020-08-05T12:35:45Z</time><name>PT11089</name></trkpt>
<trkpt lat="53.370302" lon="-1.803270"><ele>256</ele><time>2020-08-05T12:35:46Z</time><name>PT11090</name></trkpt>
<trkpt lat="53.370303" lon="-1.803295"><ele>256</ele><time>2020-08-05T12:35:46Z</time><name>PT11091</name></trkpt>
<trkpt lat="53.370304" lon="-1.803313"><ele>256</ele><time>2020-08-05T12:35:48Z</time><name>PT11092</name></trkpt>
<trkpt lat="53.370310" lon="-1.803334"><ele>255</ele><time>2020-08-05T12:35:49Z</time><name>PT11093</name></trkpt>
<trkpt lat="53.370308" lon="-1.803349"><ele>254</ele><time>2020-08-05T12:35:50Z</time><name>PT11094</name></trkpt>
<trkpt lat="53.370304" lon="-1.803364"><ele>254</ele><time>2020-08-05T12:35:51Z</time><name>PT11095</name></trkpt>
<trkpt lat="53.370302" lon="-1.803385"><ele>254</ele><time>2020-08-05T12:35:52Z</time><name>PT11096</name></trkpt>
<trkpt lat="53.370297" lon="-1.803398"><ele>254</ele><time>2020-08-05T12:35:53Z</time><name>PT11097</name></trkpt>
<trkpt lat="53.370297" lon="-1.803401"><ele>254</ele><time>2020-08-05T12:35:54Z</time><name>PT11098</name></trkpt>
<trkpt lat="53.370292" lon="-1.803408"><ele>255</ele><time>2020-08-05T12:35:55Z</time><name>PT11099</name></trkpt>
<trkpt lat="53.370291" lon="-1.803416"><ele>255</ele><time>2020-08-05T12:35:56Z</time><name>PT11100</name></trkpt>
<trkpt lat="53.370287" lon="-1.803425"><ele>255</ele><time>2020-08-05T12:35:57Z</time><name>PT11101</name></trkpt>
<trkpt lat="53.370288" lon="-1.803440"><ele>256</ele><time>2020-08-05T12:35:58Z</time><name>PT11102</name></trkpt>
<trkpt lat="53.370296" lon="-1.803463"><ele>256</ele><time>2020-08-05T12:35:59Z</time><name>PT11103</name></trkpt>
<trkpt lat="53.370299" lon="-1.803486"><ele>256</ele><time>2020-08-05T12:36:00Z</time><name>PT11104</name></trkpt>
<trkpt lat="53.370302" lon="-1.803508"><ele>256</ele><time>2020-08-05T12:36:01Z</time><name>PT11105</name></trkpt>
<trkpt lat="53.370305" lon="-1.803529"><ele>256</ele><time>2020-08-05T12:36:02Z</time><name>PT11106</name></trkpt>
<trkpt lat="53.370306" lon="-1.803551"><ele>256</ele><time>2020-08-05T12:36:03Z</time><name>PT11107</name></trkpt>
<trkpt lat="53.370304" lon="-1.803573"><ele>256</ele><time>2020-08-05T12:36:04Z</time><name>PT11108</name></trkpt>
<trkpt lat="53.370302" lon="-1.803596"><ele>256</ele><time>2020-08-05T12:36:05Z</time><name>PT11109</name></trkpt>
<trkpt lat="53.370303" lon="-1.803616"><ele>256</ele><time>2020-08-05T12:36:06Z</time><name>PT11110</name></trkpt>
<trkpt lat="53.370299" lon="-1.803637"><ele>256</ele><time>2020-08-05T12:36:07Z</time><name>PT11111</name></trkpt>
<trkpt lat="53.370297" lon="-1.803654"><ele>256</ele><time>2020-08-05T12:36:08Z</time><name>PT11112</name></trkpt>
<trkpt lat="53.370294" lon="-1.803673"><ele>257</ele><time>2020-08-05T12:36:09Z</time><name>PT11113</name></trkpt>
<trkpt lat="53.370290" lon="-1.803695"><ele>257</ele><time>2020-08-05T12:36:10Z</time><name>PT11114</name></trkpt>
<trkpt lat="53.370288" lon="-1.803714"><ele>257</ele><time>2020-08-05T12:36:11Z</time><name>PT11115</name></trkpt>
<trkpt lat="53.370287" lon="-1.803735"><ele>256</ele><time>2020-08-05T12:36:12Z</time><name>PT11116</name></trkpt>
<trkpt lat="53.370285" lon="-1.803760"><ele>256</ele><time>2020-08-05T12:36:13Z</time><name>PT11117</name></trkpt>
<trkpt lat="53.370282" lon="-1.803784"><ele>256</ele><time>2020-08-05T12:36:14Z</time><name>PT11118</name></trkpt>
<trkpt lat="53.370279" lon="-1.803800"><ele>256</ele><time>2020-08-05T12:36:15Z</time><name>PT11119</name></trkpt>
<trkpt lat="53.370274" lon="-1.803818"><ele>256</ele><time>2020-08-05T12:36:16Z</time><name>PT11120</name></trkpt>
<trkpt lat="53.370270" lon="-1.803839"><ele>256</ele><time>2020-08-05T12:36:16Z</time><name>PT11121</name></trkpt>
<trkpt lat="53.370266" lon="-1.803861"><ele>256</ele><time>2020-08-05T12:36:18Z</time><name>PT11122</name></trkpt>
<trkpt lat="53.370263" lon="-1.803884"><ele>257</ele><time>2020-08-05T12:36:19Z</time><name>PT11123</name></trkpt>
<trkpt lat="53.370258" lon="-1.803908"><ele>257</ele><time>2020-08-05T12:36:19Z</time><name>PT11124</name></trkpt>
<trkpt lat="53.370255" lon="-1.803929"><ele>257</ele><time>2020-08-05T12:36:21Z</time><name>PT11125</name></trkpt>
<trkpt lat="53.370251" lon="-1.803948"><ele>257</ele><time>2020-08-05T12:36:22Z</time><name>PT11126</name></trkpt>
<trkpt lat="53.370250" lon="-1.803957"><ele>257</ele><time>2020-08-05T12:36:22Z</time><name>PT11127</name></trkpt>
<trkpt lat="53.370246" lon="-1.803956"><ele>257</ele><time>2020-08-05T12:36:24Z</time><name>PT11128</name></trkpt>
<trkpt lat="53.370242" lon="-1.803957"><ele>257</ele><time>2020-08-05T12:36:25Z</time><name>PT11129</name></trkpt>
<trkpt lat="53.370238" lon="-1.803962"><ele>257</ele><time>2020-08-05T12:36:28Z</time><name>PT11130</name></trkpt>
<trkpt lat="53.370237" lon="-1.803966"><ele>257</ele><time>2020-08-05T12:36:30Z</time><name>PT11131</name></trkpt>
<trkpt lat="53.370231" lon="-1.803970"><ele>257</ele><time>2020-08-05T12:36:31Z</time><name>PT11132</name></trkpt>
<trkpt lat="53.370232" lon="-1.803983"><ele>257</ele><time>2020-08-05T12:36:31Z</time><name>PT11133</name></trkpt>
<trkpt lat="53.370233" lon="-1.804007"><ele>257</ele><time>2020-08-05T12:36:33Z</time><name>PT11134</name></trkpt>
<trkpt lat="53.370234" lon="-1.804035"><ele>257</ele><time>2020-08-05T12:36:34Z</time><name>PT11135</name></trkpt>
<trkpt lat="53.370232" lon="-1.804057"><ele>257</ele><time>2020-08-05T12:36:35Z</time><name>PT11136</name></trkpt>
<trkpt lat="53.370230" lon="-1.804075"><ele>257</ele><time>2020-08-05T12:36:36Z</time><name>PT11137</name></trkpt>
<trkpt lat="53.370227" lon="-1.804095"><ele>257</ele><time>2020-08-05T12:36:37Z</time><name>PT11138</name></trkpt>
<trkpt lat="53.370226" lon="-1.804112"><ele>256</ele><time>2020-08-05T12:36:38Z</time><name>PT11139</name></trkpt>
<trkpt lat="53.370225" lon="-1.804132"><ele>257</ele><time>2020-08-05T12:36:39Z</time><name>PT11140</name></trkpt>
<trkpt lat="53.370226" lon="-1.804156"><ele>257</ele><time>2020-08-05T12:36:40Z</time><name>PT11141</name></trkpt>
<trkpt lat="53.370224" lon="-1.804178"><ele>257</ele><time>2020-08-05T12:36:40Z</time><name>PT11142</name></trkpt>
<trkpt lat="53.370221" lon="-1.804196"><ele>257</ele><time>2020-08-05T12:36:42Z</time><name>PT11143</name></trkpt>
<trkpt lat="53.370213" lon="-1.804218"><ele>257</ele><time>2020-08-05T12:36:43Z</time><name>PT11144</name></trkpt>
<trkpt lat="53.370210" lon="-1.804240"><ele>257</ele><time>2020-08-05T12:36:44Z</time><name>PT11145</name></trkpt>
<trkpt lat="53.370210" lon="-1.804262"><ele>257</ele><time>2020-08-05T12:36:45Z</time><name>PT11146</name></trkpt>
<trkpt lat="53.370210" lon="-1.804285"><ele>257</ele><time>2020-08-05T12:36:46Z</time><name>PT11147</name></trkpt>
<trkpt lat="53.370209" lon="-1.804307"><ele>256</ele><time>2020-08-05T12:36:47Z</time><name>PT11148</name></trkpt>
<trkpt lat="53.370208" lon="-1.804325"><ele>256</ele><time>2020-08-05T12:36:48Z</time><name>PT11149</name></trkpt>
<trkpt lat="53.370198" lon="-1.804342"><ele>256</ele><time>2020-08-05T12:36:49Z</time><name>PT11150</name></trkpt>
<trkpt lat="53.370194" lon="-1.804360"><ele>256</ele><time>2020-08-05T12:36:50Z</time><name>PT11151</name></trkpt>
<trkpt lat="53.370192" lon="-1.804375"><ele>256</ele><time>2020-08-05T12:36:51Z</time><name>PT11152</name></trkpt>
<trkpt lat="53.370187" lon="-1.804392"><ele>255</ele><time>2020-08-05T12:36:52Z</time><name>PT11153</name></trkpt>
<trkpt lat="53.370186" lon="-1.804411"><ele>255</ele><time>2020-08-05T12:36:52Z</time><name>PT11154</name></trkpt>
<trkpt lat="53.370184" lon="-1.804433"><ele>255</ele><time>2020-08-05T12:36:54Z</time><name>PT11155</name></trkpt>
<trkpt lat="53.370177" lon="-1.804458"><ele>256</ele><time>2020-08-05T12:36:55Z</time><name>PT11156</name></trkpt>
<trkpt lat="53.370174" lon="-1.804479"><ele>256</ele><time>2020-08-05T12:36:55Z</time><name>PT11157</name></trkpt>
<trkpt lat="53.370172" lon="-1.804499"><ele>256</ele><time>2020-08-05T12:36:57Z</time><name>PT11158</name></trkpt>
<trkpt lat="53.370172" lon="-1.804514"><ele>256</ele><time>2020-08-05T12:36:58Z</time><name>PT11159</name></trkpt>
<trkpt lat="53.370175" lon="-1.804530"><ele>257</ele><time>2020-08-05T12:36:58Z</time><name>PT11160</name></trkpt>
<trkpt lat="53.370174" lon="-1.804551"><ele>256</ele><time>2020-08-05T12:37:00Z</time><name>PT11161</name></trkpt>
<trkpt lat="53.370169" lon="-1.804569"><ele>256</ele><time>2020-08-05T12:37:01Z</time><name>PT11162</name></trkpt>
<trkpt lat="53.370166" lon="-1.804590"><ele>256</ele><time>2020-08-05T12:37:01Z</time><name>PT11163</name></trkpt>
<trkpt lat="53.370162" lon="-1.804609"><ele>257</ele><time>2020-08-05T12:37:03Z</time><name>PT11164</name></trkpt>
<trkpt lat="53.370160" lon="-1.804626"><ele>256</ele><time>2020-08-05T12:37:04Z</time><name>PT11165</name></trkpt>
<trkpt lat="53.370158" lon="-1.804643"><ele>256</ele><time>2020-08-05T12:37:04Z</time><name>PT11166</name></trkpt>
<trkpt lat="53.370155" lon="-1.804661"><ele>256</ele><time>2020-08-05T12:37:06Z</time><name>PT11167</name></trkpt>
<trkpt lat="53.370155" lon="-1.804681"><ele>256</ele><time>2020-08-05T12:37:07Z</time><name>PT11168</name></trkpt>
<trkpt lat="53.370152" lon="-1.804699"><ele>255</ele><time>2020-08-05T12:37:07Z</time><name>PT11169</name></trkpt>
<trkpt lat="53.370148" lon="-1.804720"><ele>256</ele><time>2020-08-05T12:37:09Z</time><name>PT11170</name></trkpt>
<trkpt lat="53.370142" lon="-1.804742"><ele>256</ele><time>2020-08-05T12:37:10Z</time><name>PT11171</name></trkpt>
<trkpt lat="53.370136" lon="-1.804765"><ele>256</ele><time>2020-08-05T12:37:10Z</time><name>PT11172</name></trkpt>
<trkpt lat="53.370132" lon="-1.804786"><ele>256</ele><time>2020-08-05T12:37:12Z</time><name>PT11173</name></trkpt>
<trkpt lat="53.370128" lon="-1.804813"><ele>256</ele><time>2020-08-05T12:37:13Z</time><name>PT11174</name></trkpt>
<trkpt lat="53.370124" lon="-1.804835"><ele>256</ele><time>2020-08-05T12:37:13Z</time><name>PT11175</name></trkpt>
<trkpt lat="53.370120" lon="-1.804856"><ele>256</ele><time>2020-08-05T12:37:15Z</time><name>PT11176</name></trkpt>
<trkpt lat="53.370117" lon="-1.804883"><ele>256</ele><time>2020-08-05T12:37:16Z</time><name>PT11177</name></trkpt>
<trkpt lat="53.370117" lon="-1.804906"><ele>255</ele><time>2020-08-05T12:37:17Z</time><name>PT11178</name></trkpt>
<trkpt lat="53.370112" lon="-1.804925"><ele>255</ele><time>2020-08-05T12:37:18Z</time><name>PT11179</name></trkpt>
<trkpt lat="53.370108" lon="-1.804948"><ele>255</ele><time>2020-08-05T12:37:19Z</time><name>PT11180</name></trkpt>
<trkpt lat="53.370109" lon="-1.804968"><ele>255</ele><time>2020-08-05T12:37:19Z</time><name>PT11181</name></trkpt>
<trkpt lat="53.370108" lon="-1.804984"><ele>255</ele><time>2020-08-05T12:37:21Z</time><name>PT11182</name></trkpt>
<trkpt lat="53.370104" lon="-1.805004"><ele>255</ele><time>2020-08-05T12:37:22Z</time><name>PT11183</name></trkpt>
<trkpt lat="53.370098" lon="-1.805027"><ele>255</ele><time>2020-08-05T12:37:22Z</time><name>PT11184</name></trkpt>
<trkpt lat="53.370089" lon="-1.805048"><ele>256</ele><time>2020-08-05T12:37:24Z</time><name>PT11185</name></trkpt>
<trkpt lat="53.370087" lon="-1.805070"><ele>255</ele><time>2020-08-05T12:37:25Z</time><name>PT11186</name></trkpt>
<trkpt lat="53.370084" lon="-1.805088"><ele>255</ele><time>2020-08-05T12:37:25Z</time><name>PT11187</name></trkpt>
<trkpt lat="53.370081" lon="-1.805103"><ele>255</ele><time>2020-08-05T12:37:27Z</time><name>PT11188</name></trkpt>
<trkpt lat="53.370077" lon="-1.805118"><ele>256</ele><time>2020-08-05T12:37:28Z</time><name>PT11189</name></trkpt>
<trkpt lat="53.370074" lon="-1.805135"><ele>256</ele><time>2020-08-05T12:37:28Z</time><name>PT11190</name></trkpt>
<trkpt lat="53.370072" lon="-1.805156"><ele>256</ele><time>2020-08-05T12:37:30Z</time><name>PT11191</name></trkpt>
<trkpt lat="53.370069" lon="-1.805179"><ele>256</ele><time>2020-08-05T12:37:31Z</time><name>PT11192</name></trkpt>
<trkpt lat="53.370069" lon="-1.805197"><ele>256</ele><time>2020-08-05T12:37:31Z</time><name>PT11193</name></trkpt>
<trkpt lat="53.370063" lon="-1.805214"><ele>256</ele><time>2020-08-05T12:37:33Z</time><name>PT11194</name></trkpt>
<trkpt lat="53.370056" lon="-1.805236"><ele>257</ele><time>2020-08-05T12:37:34Z</time><name>PT11195</name></trkpt>
<trkpt lat="53.370050" lon="-1.805258"><ele>257</ele><time>2020-08-05T12:37:34Z</time><name>PT11196</name></trkpt>
<trkpt lat="53.370047" lon="-1.805277"><ele>257</ele><time>2020-08-05T12:37:36Z</time><name>PT11197</name></trkpt>
<trkpt lat="53.370045" lon="-1.805300"><ele>258</ele><time>2020-08-05T12:37:37Z</time><name>PT11198</name></trkpt>
<trkpt lat="53.370041" lon="-1.805326"><ele>258</ele><time>2020-08-05T12:37:37Z</time><name>PT11199</name></trkpt>
<trkpt lat="53.370035" lon="-1.805345"><ele>258</ele><time>2020-08-05T12:37:39Z</time><name>PT11200</name></trkpt>
<trkpt lat="53.370033" lon="-1.805359"><ele>257</ele><time>2020-08-05T12:37:40Z</time><name>PT11201</name></trkpt>
<trkpt lat="53.370029" lon="-1.805380"><ele>257</ele><time>2020-08-05T12:37:40Z</time><name>PT11202</name></trkpt>
<trkpt lat="53.370027" lon="-1.805399"><ele>257</ele><time>2020-08-05T12:37:42Z</time><name>PT11203</name></trkpt>
<trkpt lat="53.370026" lon="-1.805422"><ele>257</ele><time>2020-08-05T12:37:43Z</time><name>PT11204</name></trkpt>
<trkpt lat="53.370027" lon="-1.805444"><ele>257</ele><time>2020-08-05T12:37:43Z</time><name>PT11205</name></trkpt>
<trkpt lat="53.370028" lon="-1.805461"><ele>257</ele><time>2020-08-05T12:37:45Z</time><name>PT11206</name></trkpt>
<trkpt lat="53.370022" lon="-1.805482"><ele>257</ele><time>2020-08-05T12:37:46Z</time><name>PT11207</name></trkpt>
<trkpt lat="53.370018" lon="-1.805502"><ele>260</ele><time>2020-08-05T12:37:46Z</time><name>PT11208</name></trkpt>
<trkpt lat="53.370018" lon="-1.805519"><ele>260</ele><time>2020-08-05T12:37:48Z</time><name>PT11209</name></trkpt>
<trkpt lat="53.370023" lon="-1.805535"><ele>259</ele><time>2020-08-05T12:37:49Z</time><name>PT11210</name></trkpt>
<trkpt lat="53.370025" lon="-1.805554"><ele>259</ele><time>2020-08-05T12:37:50Z</time><name>PT11211</name></trkpt>
<trkpt lat="53.370024" lon="-1.805572"><ele>258</ele><time>2020-08-05T12:37:51Z</time><name>PT11212</name></trkpt>
<trkpt lat="53.370022" lon="-1.805585"><ele>258</ele><time>2020-08-05T12:37:52Z</time><name>PT11213</name></trkpt>
<trkpt lat="53.370017" lon="-1.805600"><ele>257</ele><time>2020-08-05T12:37:52Z</time><name>PT11214</name></trkpt>
<trkpt lat="53.370016" lon="-1.805613"><ele>256</ele><time>2020-08-05T12:37:54Z</time><name>PT11215</name></trkpt>
<trkpt lat="53.370011" lon="-1.805626"><ele>256</ele><time>2020-08-05T12:37:55Z</time><name>PT11216</name></trkpt>
<trkpt lat="53.370006" lon="-1.805643"><ele>255</ele><time>2020-08-05T12:37:56Z</time><name>PT11217</name></trkpt>
<trkpt lat="53.369999" lon="-1.805659"><ele>256</ele><time>2020-08-05T12:37:57Z</time><name>PT11218</name></trkpt>
<trkpt lat="53.369994" lon="-1.805678"><ele>255</ele><time>2020-08-05T12:37:58Z</time><name>PT11219</name></trkpt>
<trkpt lat="53.369984" lon="-1.805695"><ele>255</ele><time>2020-08-05T12:37:58Z</time><name>PT11220</name></trkpt>
<trkpt lat="53.369974" lon="-1.805704"><ele>256</ele><time>2020-08-05T12:38:00Z</time><name>PT11221</name></trkpt>
<trkpt lat="53.369971" lon="-1.805716"><ele>254</ele><time>2020-08-05T12:38:01Z</time><name>PT11222</name></trkpt>
<trkpt lat="53.369963" lon="-1.805724"><ele>254</ele><time>2020-08-05T12:38:01Z</time><name>PT11223</name></trkpt>
<trkpt lat="53.369955" lon="-1.805738"><ele>254</ele><time>2020-08-05T12:38:03Z</time><name>PT11224</name></trkpt>
<trkpt lat="53.369948" lon="-1.805753"><ele>254</ele><time>2020-08-05T12:38:04Z</time><name>PT11225</name></trkpt>
<trkpt lat="53.369941" lon="-1.805770"><ele>254</ele><time>2020-08-05T12:38:05Z</time><name>PT11226</name></trkpt>
<trkpt lat="53.369935" lon="-1.805783"><ele>253</ele><time>2020-08-05T12:38:06Z</time><name>PT11227</name></trkpt>
<trkpt lat="53.369932" lon="-1.805797"><ele>252</ele><time>2020-08-05T12:38:07Z</time><name>PT11228</name></trkpt>
<trkpt lat="53.369926" lon="-1.805808"><ele>251</ele><time>2020-08-05T12:38:07Z</time><name>PT11229</name></trkpt>
<trkpt lat="53.369920" lon="-1.805825"><ele>251</ele><time>2020-08-05T12:38:09Z</time><name>PT11230</name></trkpt>
<trkpt lat="53.369910" lon="-1.805846"><ele>251</ele><time>2020-08-05T12:38:10Z</time><name>PT11231</name></trkpt>
<trkpt lat="53.369906" lon="-1.805867"><ele>251</ele><time>2020-08-05T12:38:10Z</time><name>PT11232</name></trkpt>
<trkpt lat="53.369900" lon="-1.805888"><ele>251</ele><time>2020-08-05T12:38:12Z</time><name>PT11233</name></trkpt>
<trkpt lat="53.369897" lon="-1.805907"><ele>251</ele><time>2020-08-05T12:38:13Z</time><name>PT11234</name></trkpt>
<trkpt lat="53.369889" lon="-1.805923"><ele>251</ele><time>2020-08-05T12:38:14Z</time><name>PT11235</name></trkpt>
<trkpt lat="53.369880" lon="-1.805944"><ele>251</ele><time>2020-08-05T12:38:15Z</time><name>PT11236</name></trkpt>
<trkpt lat="53.369873" lon="-1.805962"><ele>251</ele><time>2020-08-05T12:38:16Z</time><name>PT11237</name></trkpt>
<trkpt lat="53.369866" lon="-1.805982"><ele>252</ele><time>2020-08-05T12:38:16Z</time><name>PT11238</name></trkpt>
<trkpt lat="53.369861" lon="-1.806003"><ele>252</ele><time>2020-08-05T12:38:18Z</time><name>PT11239</name></trkpt>
<trkpt lat="53.369858" lon="-1.806027"><ele>251</ele><time>2020-08-05T12:38:19Z</time><name>PT11240</name></trkpt>
<trkpt lat="53.369851" lon="-1.806042"><ele>251</ele><time>2020-08-05T12:38:20Z</time><name>PT11241</name></trkpt>
<trkpt lat="53.369849" lon="-1.806054"><ele>250</ele><time>2020-08-05T12:38:21Z</time><name>PT11242</name></trkpt>
<trkpt lat="53.369836" lon="-1.806073"><ele>251</ele><time>2020-08-05T12:38:22Z</time><name>PT11243</name></trkpt>
<trkpt lat="53.369821" lon="-1.806101"><ele>253</ele><time>2020-08-05T12:38:22Z</time><name>PT11244</name></trkpt>
<trkpt lat="53.369813" lon="-1.806123"><ele>253</ele><time>2020-08-05T12:38:24Z</time><name>PT11245</name></trkpt>
<trkpt lat="53.369807" lon="-1.806145"><ele>253</ele><time>2020-08-05T12:38:25Z</time><name>PT11246</name></trkpt>
<trkpt lat="53.369805" lon="-1.806168"><ele>253</ele><time>2020-08-05T12:38:26Z</time><name>PT11247</name></trkpt>
<trkpt lat="53.369798" lon="-1.806189"><ele>253</ele><time>2020-08-05T12:38:27Z</time><name>PT11248</name></trkpt>
<trkpt lat="53.369792" lon="-1.806209"><ele>253</ele><time>2020-08-05T12:38:28Z</time><name>PT11249</name></trkpt>
<trkpt lat="53.369783" lon="-1.806233"><ele>253</ele><time>2020-08-05T12:38:28Z</time><name>PT11250</name></trkpt>
<trkpt lat="53.369776" lon="-1.806252"><ele>254</ele><time>2020-08-05T12:38:30Z</time><name>PT11251</name></trkpt>
<trkpt lat="53.369771" lon="-1.806272"><ele>254</ele><time>2020-08-05T12:38:31Z</time><name>PT11252</name></trkpt>
<trkpt lat="53.369770" lon="-1.806295"><ele>254</ele><time>2020-08-05T12:38:31Z</time><name>PT11253</name></trkpt>
<trkpt lat="53.369767" lon="-1.806316"><ele>254</ele><time>2020-08-05T12:38:33Z</time><name>PT11254</name></trkpt>
<trkpt lat="53.369760" lon="-1.806341"><ele>254</ele><time>2020-08-05T12:38:34Z</time><name>PT11255</name></trkpt>
<trkpt lat="53.369758" lon="-1.806354"><ele>253</ele><time>2020-08-05T12:38:34Z</time><name>PT11256</name></trkpt>
<trkpt lat="53.369754" lon="-1.806373"><ele>253</ele><time>2020-08-05T12:38:36Z</time><name>PT11257</name></trkpt>
<trkpt lat="53.369747" lon="-1.806389"><ele>254</ele><time>2020-08-05T12:38:37Z</time><name>PT11258</name></trkpt>
<trkpt lat="53.369747" lon="-1.806408"><ele>254</ele><time>2020-08-05T12:38:37Z</time><name>PT11259</name></trkpt>
<trkpt lat="53.369745" lon="-1.806431"><ele>254</ele><time>2020-08-05T12:38:39Z</time><name>PT11260</name></trkpt>
<trkpt lat="53.369746" lon="-1.806445"><ele>253</ele><time>2020-08-05T12:38:40Z</time><name>PT11261</name></trkpt>
<trkpt lat="53.369747" lon="-1.806464"><ele>253</ele><time>2020-08-05T12:38:40Z</time><name>PT11262</name></trkpt>
<trkpt lat="53.369747" lon="-1.806482"><ele>252</ele><time>2020-08-05T12:38:42Z</time><name>PT11263</name></trkpt>
<trkpt lat="53.369749" lon="-1.806494"><ele>252</ele><time>2020-08-05T12:38:43Z</time><name>PT11264</name></trkpt>
<trkpt lat="53.369750" lon="-1.806511"><ele>252</ele><time>2020-08-05T12:38:43Z</time><name>PT11265</name></trkpt>
<trkpt lat="53.369751" lon="-1.806534"><ele>252</ele><time>2020-08-05T12:38:45Z</time><name>PT11266</name></trkpt>
<trkpt lat="53.369749" lon="-1.806555"><ele>252</ele><time>2020-08-05T12:38:46Z</time><name>PT11267</name></trkpt>
<trkpt lat="53.369750" lon="-1.806574"><ele>252</ele><time>2020-08-05T12:38:46Z</time><name>PT11268</name></trkpt>
<trkpt lat="53.369750" lon="-1.806599"><ele>252</ele><time>2020-08-05T12:38:48Z</time><name>PT11269</name></trkpt>
<trkpt lat="53.369755" lon="-1.806613"><ele>251</ele><time>2020-08-05T12:38:49Z</time><name>PT11270</name></trkpt>
<trkpt lat="53.369758" lon="-1.806630"><ele>251</ele><time>2020-08-05T12:38:50Z</time><name>PT11271</name></trkpt>
<trkpt lat="53.369764" lon="-1.806649"><ele>251</ele><time>2020-08-05T12:38:51Z</time><name>PT11272</name></trkpt>
<trkpt lat="53.369769" lon="-1.806668"><ele>250</ele><time>2020-08-05T12:38:52Z</time><name>PT11273</name></trkpt>
<trkpt lat="53.369772" lon="-1.806684"><ele>250</ele><time>2020-08-05T12:38:52Z</time><name>PT11274</name></trkpt>
<trkpt lat="53.369774" lon="-1.806704"><ele>249</ele><time>2020-08-05T12:38:54Z</time><name>PT11275</name></trkpt>
<trkpt lat="53.369776" lon="-1.806725"><ele>249</ele><time>2020-08-05T12:38:55Z</time><name>PT11276</name></trkpt>
<trkpt lat="53.369775" lon="-1.806749"><ele>250</ele><time>2020-08-05T12:38:55Z</time><name>PT11277</name></trkpt>
<trkpt lat="53.369772" lon="-1.806782"><ele>251</ele><time>2020-08-05T12:38:57Z</time><name>PT11278</name></trkpt>
<trkpt lat="53.369772" lon="-1.806802"><ele>251</ele><time>2020-08-05T12:38:58Z</time><name>PT11279</name></trkpt>
<trkpt lat="53.369774" lon="-1.806818"><ele>250</ele><time>2020-08-05T12:38:58Z</time><name>PT11280</name></trkpt>
<trkpt lat="53.369773" lon="-1.806838"><ele>250</ele><time>2020-08-05T12:39:00Z</time><name>PT11281</name></trkpt>
<trkpt lat="53.369772" lon="-1.806855"><ele>250</ele><time>2020-08-05T12:39:01Z</time><name>PT11282</name></trkpt>
<trkpt lat="53.369771" lon="-1.806875"><ele>249</ele><time>2020-08-05T12:39:01Z</time><name>PT11283</name></trkpt>
<trkpt lat="53.369770" lon="-1.806893"><ele>249</ele><time>2020-08-05T12:39:03Z</time><name>PT11284</name></trkpt>
<trkpt lat="53.369770" lon="-1.806910"><ele>249</ele><time>2020-08-05T12:39:04Z</time><name>PT11285</name></trkpt>
<trkpt lat="53.369767" lon="-1.806931"><ele>249</ele><time>2020-08-05T12:39:04Z</time><name>PT11286</name></trkpt>
<trkpt lat="53.369765" lon="-1.806948"><ele>249</ele><time>2020-08-05T12:39:06Z</time><name>PT11287</name></trkpt>
<trkpt lat="53.369764" lon="-1.806966"><ele>249</ele><time>2020-08-05T12:39:07Z</time><name>PT11288</name></trkpt>
<trkpt lat="53.369765" lon="-1.806989"><ele>249</ele><time>2020-08-05T12:39:07Z</time><name>PT11289</name></trkpt>
<trkpt lat="53.369765" lon="-1.807011"><ele>248</ele><time>2020-08-05T12:39:09Z</time><name>PT11290</name></trkpt>
<trkpt lat="53.369764" lon="-1.807033"><ele>248</ele><time>2020-08-05T12:39:10Z</time><name>PT11291</name></trkpt>
<trkpt lat="53.369766" lon="-1.807044"><ele>248</ele><time>2020-08-05T12:39:10Z</time><name>PT11292</name></trkpt>
<trkpt lat="53.369768" lon="-1.807055"><ele>247</ele><time>2020-08-05T12:39:12Z</time><name>PT11293</name></trkpt>
<trkpt lat="53.369767" lon="-1.807076"><ele>247</ele><time>2020-08-05T12:39:13Z</time><name>PT11294</name></trkpt>
<trkpt lat="53.369771" lon="-1.807092"><ele>247</ele><time>2020-08-05T12:39:13Z</time><name>PT11295</name></trkpt>
<trkpt lat="53.369774" lon="-1.807095"><ele>246</ele><time>2020-08-05T12:39:15Z</time><name>PT11296</name></trkpt>
<trkpt lat="53.369774" lon="-1.807108"><ele>245</ele><time>2020-08-05T12:39:16Z</time><name>PT11297</name></trkpt>
<trkpt lat="53.369769" lon="-1.807129"><ele>245</ele><time>2020-08-05T12:39:16Z</time><name>PT11298</name></trkpt>
<trkpt lat="53.369773" lon="-1.807145"><ele>244</ele><time>2020-08-05T12:39:18Z</time><name>PT11299</name></trkpt>
<trkpt lat="53.369779" lon="-1.807161"><ele>244</ele><time>2020-08-05T12:39:19Z</time><name>PT11300</name></trkpt>
<trkpt lat="53.369779" lon="-1.807187"><ele>243</ele><time>2020-08-05T12:39:19Z</time><name>PT11301</name></trkpt>
<trkpt lat="53.369780" lon="-1.807197"><ele>243</ele><time>2020-08-05T12:39:21Z</time><name>PT11302</name></trkpt>
<trkpt lat="53.369795" lon="-1.807214"><ele>244</ele><time>2020-08-05T12:39:22Z</time><name>PT11303</name></trkpt>
<trkpt lat="53.369802" lon="-1.807222"><ele>242</ele><time>2020-08-05T12:39:22Z</time><name>PT11304</name></trkpt>
<trkpt lat="53.369800" lon="-1.807247"><ele>243</ele><time>2020-08-05T12:39:24Z</time><name>PT11305</name></trkpt>
<trkpt lat="53.369807" lon="-1.807259"><ele>243</ele><time>2020-08-05T12:39:25Z</time><name>PT11306</name></trkpt>
<trkpt lat="53.369813" lon="-1.807283"><ele>243</ele><time>2020-08-05T12:39:25Z</time><name>PT11307</name></trkpt>
<trkpt lat="53.369821" lon="-1.807295"><ele>242</ele><time>2020-08-05T12:39:27Z</time><name>PT11308</name></trkpt>
<trkpt lat="53.369832" lon="-1.807307"><ele>242</ele><time>2020-08-05T12:39:28Z</time><name>PT11309</name></trkpt>
<trkpt lat="53.369839" lon="-1.807330"><ele>242</ele><time>2020-08-05T12:39:28Z</time><name>PT11310</name></trkpt>
<trkpt lat="53.369848" lon="-1.807344"><ele>242</ele><time>2020-08-05T12:39:30Z</time><name>PT11311</name></trkpt>
<trkpt lat="53.369859" lon="-1.807355"><ele>241</ele><time>2020-08-05T12:39:31Z</time><name>PT11312</name></trkpt>
<trkpt lat="53.369864" lon="-1.807370"><ele>242</ele><time>2020-08-05T12:39:31Z</time><name>PT11313</name></trkpt>
<trkpt lat="53.369870" lon="-1.807384"><ele>241</ele><time>2020-08-05T12:39:33Z</time><name>PT11314</name></trkpt>
<trkpt lat="53.369874" lon="-1.807391"><ele>241</ele><time>2020-08-05T12:39:34Z</time><name>PT11315</name></trkpt>
<trkpt lat="53.369881" lon="-1.807402"><ele>242</ele><time>2020-08-05T12:39:34Z</time><name>PT11316</name></trkpt>
<trkpt lat="53.369884" lon="-1.807415"><ele>241</ele><time>2020-08-05T12:39:36Z</time><name>PT11317</name></trkpt>
<trkpt lat="53.369885" lon="-1.807442"><ele>243</ele><time>2020-08-05T12:39:37Z</time><name>PT11318</name></trkpt>
<trkpt lat="53.369888" lon="-1.807462"><ele>243</ele><time>2020-08-05T12:39:37Z</time><name>PT11319</name></trkpt>
<trkpt lat="53.369888" lon="-1.807481"><ele>244</ele><time>2020-08-05T12:39:39Z</time><name>PT11320</name></trkpt>
<trkpt lat="53.369888" lon="-1.807501"><ele>244</ele><time>2020-08-05T12:39:40Z</time><name>PT11321</name></trkpt>
<trkpt lat="53.369892" lon="-1.807519"><ele>244</ele><time>2020-08-05T12:39:40Z</time><name>PT11322</name></trkpt>
<trkpt lat="53.369899" lon="-1.807533"><ele>244</ele><time>2020-08-05T12:39:42Z</time><name>PT11323</name></trkpt>
<trkpt lat="53.369903" lon="-1.807561"><ele>245</ele><time>2020-08-05T12:39:43Z</time><name>PT11324</name></trkpt>
<trkpt lat="53.369899" lon="-1.807576"><ele>246</ele><time>2020-08-05T12:39:43Z</time><name>PT11325</name></trkpt>
<trkpt lat="53.369894" lon="-1.807606"><ele>247</ele><time>2020-08-05T12:39:45Z</time><name>PT11326</name></trkpt>
<trkpt lat="53.369895" lon="-1.807635"><ele>248</ele><time>2020-08-05T12:39:46Z</time><name>PT11327</name></trkpt>
<trkpt lat="53.369895" lon="-1.807644"><ele>247</ele><time>2020-08-05T12:39:46Z</time><name>PT11328</name></trkpt>
<trkpt lat="53.369896" lon="-1.807671"><ele>248</ele><time>2020-08-05T12:39:48Z</time><name>PT11329</name></trkpt>
<trkpt lat="53.369908" lon="-1.807706"><ele>249</ele><time>2020-08-05T12:39:49Z</time><name>PT11330</name></trkpt>
<trkpt lat="53.369909" lon="-1.807727"><ele>249</ele><time>2020-08-05T12:39:49Z</time><name>PT11331</name></trkpt>
<trkpt lat="53.369906" lon="-1.807757"><ele>248</ele><time>2020-08-05T12:39:51Z</time><name>PT11332</name></trkpt>
<trkpt lat="53.369901" lon="-1.807784"><ele>249</ele><time>2020-08-05T12:39:52Z</time><name>PT11333</name></trkpt>
<trkpt lat="53.369902" lon="-1.807808"><ele>249</ele><time>2020-08-05T12:39:52Z</time><name>PT11334</name></trkpt>
<trkpt lat="53.369902" lon="-1.807830"><ele>248</ele><time>2020-08-05T12:39:54Z</time><name>PT11335</name></trkpt>
<trkpt lat="53.369901" lon="-1.807853"><ele>248</ele><time>2020-08-05T12:39:55Z</time><name>PT11336</name></trkpt>
<trkpt lat="53.369898" lon="-1.807872"><ele>248</ele><time>2020-08-05T12:39:55Z</time><name>PT11337</name></trkpt>
<trkpt lat="53.369896" lon="-1.807887"><ele>247</ele><time>2020-08-05T12:39:57Z</time><name>PT11338</name></trkpt>
<trkpt lat="53.369892" lon="-1.807905"><ele>247</ele><time>2020-08-05T12:39:58Z</time><name>PT11339</name></trkpt>
<trkpt lat="53.369887" lon="-1.807929"><ele>246</ele><time>2020-08-05T12:39:58Z</time><name>PT11340</name></trkpt>
<trkpt lat="53.369884" lon="-1.807953"><ele>246</ele><time>2020-08-05T12:40:00Z</time><name>PT11341</name></trkpt>
<trkpt lat="53.369879" lon="-1.807972"><ele>246</ele><time>2020-08-05T12:40:01Z</time><name>PT11342</name></trkpt>
<trkpt lat="53.369880" lon="-1.807992"><ele>246</ele><time>2020-08-05T12:40:01Z</time><name>PT11343</name></trkpt>
<trkpt lat="53.369874" lon="-1.808007"><ele>246</ele><time>2020-08-05T12:40:03Z</time><name>PT11344</name></trkpt>
<trkpt lat="53.369872" lon="-1.808015"><ele>246</ele><time>2020-08-05T12:40:04Z</time><name>PT11345</name></trkpt>
<trkpt lat="53.369875" lon="-1.808030"><ele>245</ele><time>2020-08-05T12:40:04Z</time><name>PT11346</name></trkpt>
<trkpt lat="53.369875" lon="-1.808046"><ele>245</ele><time>2020-08-05T12:40:06Z</time><name>PT11347</name></trkpt>
<trkpt lat="53.369877" lon="-1.808064"><ele>245</ele><time>2020-08-05T12:40:07Z</time><name>PT11348</name></trkpt>
<trkpt lat="53.369879" lon="-1.808080"><ele>246</ele><time>2020-08-05T12:40:08Z</time><name>PT11349</name></trkpt>
<trkpt lat="53.369885" lon="-1.808093"><ele>247</ele><time>2020-08-05T12:40:09Z</time><name>PT11350</name></trkpt>
<trkpt lat="53.369889" lon="-1.808110"><ele>248</ele><time>2020-08-05T12:40:10Z</time><name>PT11351</name></trkpt>
<trkpt lat="53.369886" lon="-1.808117"><ele>248</ele><time>2020-08-05T12:40:11Z</time><name>PT11352</name></trkpt>
<trkpt lat="53.369882" lon="-1.808135"><ele>249</ele><time>2020-08-05T12:40:12Z</time><name>PT11353</name></trkpt>
<trkpt lat="53.369877" lon="-1.808146"><ele>250</ele><time>2020-08-05T12:40:13Z</time><name>PT11354</name></trkpt>
<trkpt lat="53.369871" lon="-1.808164"><ele>251</ele><time>2020-08-05T12:40:14Z</time><name>PT11355</name></trkpt>
<trkpt lat="53.369868" lon="-1.808199"><ele>252</ele><time>2020-08-05T12:40:15Z</time><name>PT11356</name></trkpt>
<trkpt lat="53.369858" lon="-1.808210"><ele>253</ele><time>2020-08-05T12:40:16Z</time><name>PT11357</name></trkpt>
<trkpt lat="53.369855" lon="-1.808238"><ele>254</ele><time>2020-08-05T12:40:17Z</time><name>PT11358</name></trkpt>
<trkpt lat="53.369850" lon="-1.808266"><ele>254</ele><time>2020-08-05T12:40:18Z</time><name>PT11359</name></trkpt>
<trkpt lat="53.369839" lon="-1.808303"><ele>256</ele><time>2020-08-05T12:40:19Z</time><name>PT11360</name></trkpt>
<trkpt lat="53.369825" lon="-1.808338"><ele>257</ele><time>2020-08-05T12:40:19Z</time><name>PT11361</name></trkpt>
<trkpt lat="53.369822" lon="-1.808360"><ele>257</ele><time>2020-08-05T12:40:21Z</time><name>PT11362</name></trkpt>
<trkpt lat="53.369824" lon="-1.808375"><ele>257</ele><time>2020-08-05T12:40:22Z</time><name>PT11363</name></trkpt>
<trkpt lat="53.369826" lon="-1.808392"><ele>258</ele><time>2020-08-05T12:40:23Z</time><name>PT11364</name></trkpt>
<trkpt lat="53.369830" lon="-1.808408"><ele>258</ele><time>2020-08-05T12:40:24Z</time><name>PT11365</name></trkpt>
<trkpt lat="53.369830" lon="-1.808423"><ele>258</ele><time>2020-08-05T12:40:25Z</time><name>PT11366</name></trkpt>
<trkpt lat="53.369834" lon="-1.808439"><ele>257</ele><time>2020-08-05T12:40:26Z</time><name>PT11367</name></trkpt>
<trkpt lat="53.369832" lon="-1.808459"><ele>257</ele><time>2020-08-05T12:40:27Z</time><name>PT11368</name></trkpt>
<trkpt lat="53.369829" lon="-1.808477"><ele>259</ele><time>2020-08-05T12:40:28Z</time><name>PT11369</name></trkpt>
<trkpt lat="53.369829" lon="-1.808496"><ele>259</ele><time>2020-08-05T12:40:28Z</time><name>PT11370</name></trkpt>
<trkpt lat="53.369823" lon="-1.808515"><ele>259</ele><time>2020-08-05T12:40:30Z</time><name>PT11371</name></trkpt>
<trkpt lat="53.369819" lon="-1.808535"><ele>259</ele><time>2020-08-05T12:40:31Z</time><name>PT11372</name></trkpt>
<trkpt lat="53.369822" lon="-1.808559"><ele>259</ele><time>2020-08-05T12:40:31Z</time><name>PT11373</name></trkpt>
<trkpt lat="53.369827" lon="-1.808581"><ele>259</ele><time>2020-08-05T12:40:33Z</time><name>PT11374</name></trkpt>
<trkpt lat="53.369827" lon="-1.808596"><ele>259</ele><time>2020-08-05T12:40:34Z</time><name>PT11375</name></trkpt>
<trkpt lat="53.369827" lon="-1.808622"><ele>259</ele><time>2020-08-05T12:40:34Z</time><name>PT11376</name></trkpt>
<trkpt lat="53.369826" lon="-1.808648"><ele>259</ele><time>2020-08-05T12:40:36Z</time><name>PT11377</name></trkpt>
<trkpt lat="53.369827" lon="-1.808669"><ele>259</ele><time>2020-08-05T12:40:37Z</time><name>PT11378</name></trkpt>
<trkpt lat="53.369832" lon="-1.808687"><ele>260</ele><time>2020-08-05T12:40:37Z</time><name>PT11379</name></trkpt>
<trkpt lat="53.369835" lon="-1.808707"><ele>261</ele><time>2020-08-05T12:40:39Z</time><name>PT11380</name></trkpt>
<trkpt lat="53.369837" lon="-1.808730"><ele>261</ele><time>2020-08-05T12:40:40Z</time><name>PT11381</name></trkpt>
<trkpt lat="53.369836" lon="-1.808753"><ele>261</ele><time>2020-08-05T12:40:40Z</time><name>PT11382</name></trkpt>
<trkpt lat="53.369838" lon="-1.808777"><ele>262</ele><time>2020-08-05T12:40:42Z</time><name>PT11383</name></trkpt>
<trkpt lat="53.369839" lon="-1.808808"><ele>261</ele><time>2020-08-05T12:40:43Z</time><name>PT11384</name></trkpt>
<trkpt lat="53.369841" lon="-1.808828"><ele>260</ele><time>2020-08-05T12:40:43Z</time><name>PT11385</name></trkpt>
<trkpt lat="53.369841" lon="-1.808846"><ele>260</ele><time>2020-08-05T12:40:45Z</time><name>PT11386</name></trkpt>
<trkpt lat="53.369844" lon="-1.808873"><ele>261</ele><time>2020-08-05T12:40:46Z</time><name>PT11387</name></trkpt>
<trkpt lat="53.369843" lon="-1.808895"><ele>261</ele><time>2020-08-05T12:40:46Z</time><name>PT11388</name></trkpt>
<trkpt lat="53.369841" lon="-1.808919"><ele>261</ele><time>2020-08-05T12:40:48Z</time><name>PT11389</name></trkpt>
<trkpt lat="53.369841" lon="-1.808950"><ele>261</ele><time>2020-08-05T12:40:49Z</time><name>PT11390</name></trkpt>
<trkpt lat="53.369840" lon="-1.808984"><ele>263</ele><time>2020-08-05T12:40:50Z</time><name>PT11391</name></trkpt>
<trkpt lat="53.369836" lon="-1.809005"><ele>263</ele><time>2020-08-05T12:40:51Z</time><name>PT11392</name></trkpt>
<trkpt lat="53.369838" lon="-1.809027"><ele>263</ele><time>2020-08-05T12:40:52Z</time><name>PT11393</name></trkpt>
<trkpt lat="53.369838" lon="-1.809044"><ele>263</ele><time>2020-08-05T12:40:53Z</time><name>PT11394</name></trkpt>
<trkpt lat="53.369837" lon="-1.809064"><ele>263</ele><time>2020-08-05T12:40:54Z</time><name>PT11395</name></trkpt>
<trkpt lat="53.369836" lon="-1.809084"><ele>263</ele><time>2020-08-05T12:40:55Z</time><name>PT11396</name></trkpt>
<trkpt lat="53.369836" lon="-1.809099"><ele>263</ele><time>2020-08-05T12:40:56Z</time><name>PT11397</name></trkpt>
<trkpt lat="53.369832" lon="-1.809118"><ele>264</ele><time>2020-08-05T12:40:57Z</time><name>PT11398</name></trkpt>
<trkpt lat="53.369829" lon="-1.809140"><ele>264</ele><time>2020-08-05T12:40:58Z</time><name>PT11399</name></trkpt>
<trkpt lat="53.369828" lon="-1.809158"><ele>263</ele><time>2020-08-05T12:40:59Z</time><name>PT11400</name></trkpt>
<trkpt lat="53.369832" lon="-1.809180"><ele>264</ele><time>2020-08-05T12:41:00Z</time><name>PT11401</name></trkpt>
<trkpt lat="53.369836" lon="-1.809204"><ele>264</ele><time>2020-08-05T12:41:01Z</time><name>PT11402</name></trkpt>
<trkpt lat="53.369836" lon="-1.809232"><ele>264</ele><time>2020-08-05T12:41:01Z</time><name>PT11403</name></trkpt>
<trkpt lat="53.369840" lon="-1.809253"><ele>264</ele><time>2020-08-05T12:41:03Z</time><name>PT11404</name></trkpt>
<trkpt lat="53.369843" lon="-1.809271"><ele>264</ele><time>2020-08-05T12:41:04Z</time><name>PT11405</name></trkpt>
<trkpt lat="53.369843" lon="-1.809288"><ele>263</ele><time>2020-08-05T12:41:05Z</time><name>PT11406</name></trkpt>
<trkpt lat="53.369842" lon="-1.809307"><ele>263</ele><time>2020-08-05T12:41:06Z</time><name>PT11407</name></trkpt>
<trkpt lat="53.369847" lon="-1.809333"><ele>264</ele><time>2020-08-05T12:41:07Z</time><name>PT11408</name></trkpt>
<trkpt lat="53.369849" lon="-1.809355"><ele>264</ele><time>2020-08-05T12:41:07Z</time><name>PT11409</name></trkpt>
<trkpt lat="53.369849" lon="-1.809379"><ele>263</ele><time>2020-08-05T12:41:09Z</time><name>PT11410</name></trkpt>
<trkpt lat="53.369850" lon="-1.809400"><ele>263</ele><time>2020-08-05T12:41:10Z</time><name>PT11411</name></trkpt>
<trkpt lat="53.369854" lon="-1.809423"><ele>263</ele><time>2020-08-05T12:41:10Z</time><name>PT11412</name></trkpt>
<trkpt lat="53.369857" lon="-1.809445"><ele>263</ele><time>2020-08-05T12:41:12Z</time><name>PT11413</name></trkpt>
<trkpt lat="53.369861" lon="-1.809462"><ele>262</ele><time>2020-08-05T12:41:13Z</time><name>PT11414</name></trkpt>
<trkpt lat="53.369863" lon="-1.809478"><ele>262</ele><time>2020-08-05T12:41:13Z</time><name>PT11415</name></trkpt>
<trkpt lat="53.369863" lon="-1.809500"><ele>263</ele><time>2020-08-05T12:41:15Z</time><name>PT11416</name></trkpt>
<trkpt lat="53.369866" lon="-1.809521"><ele>263</ele><time>2020-08-05T12:41:16Z</time><name>PT11417</name></trkpt>
<trkpt lat="53.369868" lon="-1.809540"><ele>263</ele><time>2020-08-05T12:41:16Z</time><name>PT11418</name></trkpt>
<trkpt lat="53.369871" lon="-1.809556"><ele>262</ele><time>2020-08-05T12:41:18Z</time><name>PT11419</name></trkpt>
<trkpt lat="53.369873" lon="-1.809571"><ele>262</ele><time>2020-08-05T12:41:19Z</time><name>PT11420</name></trkpt>
<trkpt lat="53.369877" lon="-1.809583"><ele>262</ele><time>2020-08-05T12:41:19Z</time><name>PT11421</name></trkpt>
<trkpt lat="53.369879" lon="-1.809601"><ele>263</ele><time>2020-08-05T12:41:21Z</time><name>PT11422</name></trkpt>
<trkpt lat="53.369878" lon="-1.809626"><ele>264</ele><time>2020-08-05T12:41:22Z</time><name>PT11423</name></trkpt>
<trkpt lat="53.369877" lon="-1.809652"><ele>264</ele><time>2020-08-05T12:41:22Z</time><name>PT11424</name></trkpt>
<trkpt lat="53.369876" lon="-1.809670"><ele>264</ele><time>2020-08-05T12:41:24Z</time><name>PT11425</name></trkpt>
<trkpt lat="53.369880" lon="-1.809692"><ele>264</ele><time>2020-08-05T12:41:25Z</time><name>PT11426</name></trkpt>
<trkpt lat="53.369881" lon="-1.809718"><ele>265</ele><time>2020-08-05T12:41:25Z</time><name>PT11427</name></trkpt>
<trkpt lat="53.369880" lon="-1.809739"><ele>265</ele><time>2020-08-05T12:41:27Z</time><name>PT11428</name></trkpt>
<trkpt lat="53.369883" lon="-1.809765"><ele>264</ele><time>2020-08-05T12:41:28Z</time><name>PT11429</name></trkpt>
<trkpt lat="53.369882" lon="-1.809792"><ele>264</ele><time>2020-08-05T12:41:28Z</time><name>PT11430</name></trkpt>
<trkpt lat="53.369883" lon="-1.809820"><ele>264</ele><time>2020-08-05T12:41:30Z</time><name>PT11431</name></trkpt>
<trkpt lat="53.369884" lon="-1.809843"><ele>264</ele><time>2020-08-05T12:41:31Z</time><name>PT11432</name></trkpt>
<trkpt lat="53.369886" lon="-1.809861"><ele>264</ele><time>2020-08-05T12:41:31Z</time><name>PT11433</name></trkpt>
<trkpt lat="53.369888" lon="-1.809884"><ele>265</ele><time>2020-08-05T12:41:33Z</time><name>PT11434</name></trkpt>
<trkpt lat="53.369887" lon="-1.809903"><ele>265</ele><time>2020-08-05T12:41:34Z</time><name>PT11435</name></trkpt>
<trkpt lat="53.369887" lon="-1.809926"><ele>265</ele><time>2020-08-05T12:41:34Z</time><name>PT11436</name></trkpt>
<trkpt lat="53.369886" lon="-1.809945"><ele>265</ele><time>2020-08-05T12:41:36Z</time><name>PT11437</name></trkpt>
<trkpt lat="53.369890" lon="-1.809970"><ele>265</ele><time>2020-08-05T12:41:37Z</time><name>PT11438</name></trkpt>
<trkpt lat="53.369892" lon="-1.809994"><ele>265</ele><time>2020-08-05T12:41:37Z</time><name>PT11439</name></trkpt>
<trkpt lat="53.369892" lon="-1.810015"><ele>266</ele><time>2020-08-05T12:41:39Z</time><name>PT11440</name></trkpt>
<trkpt lat="53.369895" lon="-1.810034"><ele>266</ele><time>2020-08-05T12:41:40Z</time><name>PT11441</name></trkpt>
<trkpt lat="53.369895" lon="-1.810055"><ele>266</ele><time>2020-08-05T12:41:40Z</time><name>PT11442</name></trkpt>
<trkpt lat="53.369894" lon="-1.810079"><ele>266</ele><time>2020-08-05T12:41:42Z</time><name>PT11443</name></trkpt>
<trkpt lat="53.369893" lon="-1.810106"><ele>266</ele><time>2020-08-05T12:41:43Z</time><name>PT11444</name></trkpt>
<trkpt lat="53.369891" lon="-1.810129"><ele>266</ele><time>2020-08-05T12:41:44Z</time><name>PT11445</name></trkpt>
<trkpt lat="53.369892" lon="-1.810153"><ele>267</ele><time>2020-08-05T12:41:45Z</time><name>PT11446</name></trkpt>
<trkpt lat="53.369894" lon="-1.810177"><ele>266</ele><time>2020-08-05T12:41:46Z</time><name>PT11447</name></trkpt>
<trkpt lat="53.369894" lon="-1.810204"><ele>266</ele><time>2020-08-05T12:41:46Z</time><name>PT11448</name></trkpt>
<trkpt lat="53.369893" lon="-1.810227"><ele>266</ele><time>2020-08-05T12:41:48Z</time><name>PT11449</name></trkpt>
<trkpt lat="53.369893" lon="-1.810250"><ele>267</ele><time>2020-08-05T12:41:49Z</time><name>PT11450</name></trkpt>
<trkpt lat="53.369895" lon="-1.810275"><ele>266</ele><time>2020-08-05T12:41:50Z</time><name>PT11451</name></trkpt>
<trkpt lat="53.369896" lon="-1.810296"><ele>266</ele><time>2020-08-05T12:41:51Z</time><name>PT11452</name></trkpt>
<trkpt lat="53.369899" lon="-1.810318"><ele>266</ele><time>2020-08-05T12:41:52Z</time><name>PT11453</name></trkpt>
<trkpt lat="53.369901" lon="-1.810339"><ele>266</ele><time>2020-08-05T12:41:52Z</time><name>PT11454</name></trkpt>
<trkpt lat="53.369903" lon="-1.810361"><ele>266</ele><time>2020-08-05T12:41:54Z</time><name>PT11455</name></trkpt>
<trkpt lat="53.369905" lon="-1.810384"><ele>266</ele><time>2020-08-05T12:41:55Z</time><name>PT11456</name></trkpt>
<trkpt lat="53.369908" lon="-1.810404"><ele>266</ele><time>2020-08-05T12:41:56Z</time><name>PT11457</name></trkpt>
<trkpt lat="53.369912" lon="-1.810425"><ele>266</ele><time>2020-08-05T12:41:57Z</time><name>PT11458</name></trkpt>
<trkpt lat="53.369916" lon="-1.810445"><ele>267</ele><time>2020-08-05T12:41:58Z</time><name>PT11459</name></trkpt>
<trkpt lat="53.369919" lon="-1.810465"><ele>267</ele><time>2020-08-05T12:41:59Z</time><name>PT11460</name></trkpt>
<trkpt lat="53.369923" lon="-1.810488"><ele>267</ele><time>2020-08-05T12:42:00Z</time><name>PT11461</name></trkpt>
<trkpt lat="53.369927" lon="-1.810504"><ele>266</ele><time>2020-08-05T12:42:01Z</time><name>PT11462</name></trkpt>
<trkpt lat="53.369928" lon="-1.810526"><ele>266</ele><time>2020-08-05T12:42:02Z</time><name>PT11463</name></trkpt>
<trkpt lat="53.369929" lon="-1.810551"><ele>267</ele><time>2020-08-05T12:42:03Z</time><name>PT11464</name></trkpt>
<trkpt lat="53.369930" lon="-1.810575"><ele>267</ele><time>2020-08-05T12:42:04Z</time><name>PT11465</name></trkpt>
<trkpt lat="53.369932" lon="-1.810598"><ele>267</ele><time>2020-08-05T12:42:04Z</time><name>PT11466</name></trkpt>
<trkpt lat="53.369937" lon="-1.810620"><ele>267</ele><time>2020-08-05T12:42:06Z</time><name>PT11467</name></trkpt>
<trkpt lat="53.369940" lon="-1.810642"><ele>267</ele><time>2020-08-05T12:42:07Z</time><name>PT11468</name></trkpt>
<trkpt lat="53.369943" lon="-1.810664"><ele>267</ele><time>2020-08-05T12:42:07Z</time><name>PT11469</name></trkpt>
<trkpt lat="53.369946" lon="-1.810687"><ele>266</ele><time>2020-08-05T12:42:09Z</time><name>PT11470</name></trkpt>
<trkpt lat="53.369946" lon="-1.810711"><ele>267</ele><time>2020-08-05T12:42:10Z</time><name>PT11471</name></trkpt>
<trkpt lat="53.369949" lon="-1.810737"><ele>266</ele><time>2020-08-05T12:42:10Z</time><name>PT11472</name></trkpt>
<trkpt lat="53.369951" lon="-1.810759"><ele>266</ele><time>2020-08-05T12:42:12Z</time><name>PT11473</name></trkpt>
<trkpt lat="53.369954" lon="-1.810781"><ele>266</ele><time>2020-08-05T12:42:13Z</time><name>PT11474</name></trkpt>
<trkpt lat="53.369959" lon="-1.810802"><ele>266</ele><time>2020-08-05T12:42:13Z</time><name>PT11475</name></trkpt>
<trkpt lat="53.369959" lon="-1.810822"><ele>266</ele><time>2020-08-05T12:42:15Z</time><name>PT11476</name></trkpt>
<trkpt lat="53.369961" lon="-1.810845"><ele>266</ele><time>2020-08-05T12:42:16Z</time><name>PT11477</name></trkpt>
<trkpt lat="53.369962" lon="-1.810866"><ele>266</ele><time>2020-08-05T12:42:16Z</time><name>PT11478</name></trkpt>
<trkpt lat="53.369963" lon="-1.810885"><ele>266</ele><time>2020-08-05T12:42:18Z</time><name>PT11479</name></trkpt>
<trkpt lat="53.369965" lon="-1.810905"><ele>266</ele><time>2020-08-05T12:42:19Z</time><name>PT11480</name></trkpt>
<trkpt lat="53.369970" lon="-1.810929"><ele>266</ele><time>2020-08-05T12:42:20Z</time><name>PT11481</name></trkpt>
<trkpt lat="53.369973" lon="-1.810949"><ele>266</ele><time>2020-08-05T12:42:21Z</time><name>PT11482</name></trkpt>
<trkpt lat="53.369975" lon="-1.810968"><ele>266</ele><time>2020-08-05T12:42:22Z</time><name>PT11483</name></trkpt>
<trkpt lat="53.369974" lon="-1.810991"><ele>266</ele><time>2020-08-05T12:42:23Z</time><name>PT11484</name></trkpt>
<trkpt lat="53.369976" lon="-1.811015"><ele>266</ele><time>2020-08-05T12:42:24Z</time><name>PT11485</name></trkpt>
<trkpt lat="53.369978" lon="-1.811034"><ele>266</ele><time>2020-08-05T12:42:25Z</time><name>PT11486</name></trkpt>
<trkpt lat="53.369981" lon="-1.811056"><ele>266</ele><time>2020-08-05T12:42:25Z</time><name>PT11487</name></trkpt>
<trkpt lat="53.369984" lon="-1.811079"><ele>266</ele><time>2020-08-05T12:42:27Z</time><name>PT11488</name></trkpt>
<trkpt lat="53.369987" lon="-1.811101"><ele>266</ele><time>2020-08-05T12:42:28Z</time><name>PT11489</name></trkpt>
<trkpt lat="53.369990" lon="-1.811122"><ele>266</ele><time>2020-08-05T12:42:29Z</time><name>PT11490</name></trkpt>
<trkpt lat="53.369991" lon="-1.811147"><ele>266</ele><time>2020-08-05T12:42:30Z</time><name>PT11491</name></trkpt>
<trkpt lat="53.369993" lon="-1.811174"><ele>266</ele><time>2020-08-05T12:42:31Z</time><name>PT11492</name></trkpt>
<trkpt lat="53.369995" lon="-1.811195"><ele>266</ele><time>2020-08-05T12:42:32Z</time><name>PT11493</name></trkpt>
<trkpt lat="53.369997" lon="-1.811217"><ele>266</ele><time>2020-08-05T12:42:33Z</time><name>PT11494</name></trkpt>
<trkpt lat="53.370000" lon="-1.811242"><ele>266</ele><time>2020-08-05T12:42:34Z</time><name>PT11495</name></trkpt>
<trkpt lat="53.370000" lon="-1.811263"><ele>266</ele><time>2020-08-05T12:42:34Z</time><name>PT11496</name></trkpt>
<trkpt lat="53.370002" lon="-1.811285"><ele>266</ele><time>2020-08-05T12:42:36Z</time><name>PT11497</name></trkpt>
<trkpt lat="53.370004" lon="-1.811307"><ele>266</ele><time>2020-08-05T12:42:37Z</time><name>PT11498</name></trkpt>
<trkpt lat="53.370004" lon="-1.811333"><ele>266</ele><time>2020-08-05T12:42:37Z</time><name>PT11499</name></trkpt>
<trkpt lat="53.370008" lon="-1.811356"><ele>266</ele><time>2020-08-05T12:42:39Z</time><name>PT11500</name></trkpt>
<trkpt lat="53.370011" lon="-1.811378"><ele>266</ele><time>2020-08-05T12:42:40Z</time><name>PT11501</name></trkpt>
<trkpt lat="53.370013" lon="-1.811399"><ele>266</ele><time>2020-08-05T12:42:40Z</time><name>PT11502</name></trkpt>
<trkpt lat="53.370014" lon="-1.811417"><ele>266</ele><time>2020-08-05T12:42:42Z</time><name>PT11503</name></trkpt>
<trkpt lat="53.370014" lon="-1.811439"><ele>267</ele><time>2020-08-05T12:42:43Z</time><name>PT11504</name></trkpt>
<trkpt lat="53.370016" lon="-1.811463"><ele>267</ele><time>2020-08-05T12:42:43Z</time><name>PT11505</name></trkpt>
<trkpt lat="53.370019" lon="-1.811486"><ele>266</ele><time>2020-08-05T12:42:45Z</time><name>PT11506</name></trkpt>
<trkpt lat="53.370021" lon="-1.811506"><ele>267</ele><time>2020-08-05T12:42:46Z</time><name>PT11507</name></trkpt>
<trkpt lat="53.370023" lon="-1.811530"><ele>266</ele><time>2020-08-05T12:42:46Z</time><name>PT11508</name></trkpt>
<trkpt lat="53.370024" lon="-1.811551"><ele>267</ele><time>2020-08-05T12:42:48Z</time><name>PT11509</name></trkpt>
<trkpt lat="53.370023" lon="-1.811570"><ele>267</ele><time>2020-08-05T12:42:49Z</time><name>PT11510</name></trkpt>
<trkpt lat="53.370024" lon="-1.811590"><ele>267</ele><time>2020-08-05T12:42:49Z</time><name>PT11511</name></trkpt>
<trkpt lat="53.370026" lon="-1.811615"><ele>267</ele><time>2020-08-05T12:42:51Z</time><name>PT11512</name></trkpt>
<trkpt lat="53.370029" lon="-1.811637"><ele>267</ele><time>2020-08-05T12:42:52Z</time><name>PT11513</name></trkpt>
<trkpt lat="53.370032" lon="-1.811657"><ele>267</ele><time>2020-08-05T12:42:53Z</time><name>PT11514</name></trkpt>
<trkpt lat="53.370036" lon="-1.811677"><ele>267</ele><time>2020-08-05T12:42:54Z</time><name>PT11515</name></trkpt>
<trkpt lat="53.370039" lon="-1.811695"><ele>267</ele><time>2020-08-05T12:42:55Z</time><name>PT11516</name></trkpt>
<trkpt lat="53.370041" lon="-1.811717"><ele>267</ele><time>2020-08-05T12:42:56Z</time><name>PT11517</name></trkpt>
<trkpt lat="53.370044" lon="-1.811740"><ele>266</ele><time>2020-08-05T12:42:57Z</time><name>PT11518</name></trkpt>
<trkpt lat="53.370048" lon="-1.811757"><ele>266</ele><time>2020-08-05T12:42:58Z</time><name>PT11519</name></trkpt>
<trkpt lat="53.370053" lon="-1.811774"><ele>267</ele><time>2020-08-05T12:42:59Z</time><name>PT11520</name></trkpt>
<trkpt lat="53.370058" lon="-1.811794"><ele>267</ele><time>2020-08-05T12:43:00Z</time><name>PT11521</name></trkpt>
<trkpt lat="53.370061" lon="-1.811809"><ele>267</ele><time>2020-08-05T12:43:01Z</time><name>PT11522</name></trkpt>
<trkpt lat="53.370062" lon="-1.811828"><ele>267</ele><time>2020-08-05T12:43:01Z</time><name>PT11523</name></trkpt>
<trkpt lat="53.370063" lon="-1.811847"><ele>267</ele><time>2020-08-05T12:43:03Z</time><name>PT11524</name></trkpt>
<trkpt lat="53.370068" lon="-1.811870"><ele>267</ele><time>2020-08-05T12:43:04Z</time><name>PT11525</name></trkpt>
<trkpt lat="53.370073" lon="-1.811888"><ele>267</ele><time>2020-08-05T12:43:04Z</time><name>PT11526</name></trkpt>
<trkpt lat="53.370076" lon="-1.811905"><ele>267</ele><time>2020-08-05T12:43:06Z</time><name>PT11527</name></trkpt>
<trkpt lat="53.370081" lon="-1.811924"><ele>267</ele><time>2020-08-05T12:43:07Z</time><name>PT11528</name></trkpt>
<trkpt lat="53.370085" lon="-1.811942"><ele>267</ele><time>2020-08-05T12:43:07Z</time><name>PT11529</name></trkpt>
<trkpt lat="53.370089" lon="-1.811959"><ele>267</ele><time>2020-08-05T12:43:09Z</time><name>PT11530</name></trkpt>
<trkpt lat="53.370092" lon="-1.811979"><ele>267</ele><time>2020-08-05T12:43:10Z</time><name>PT11531</name></trkpt>
<trkpt lat="53.370096" lon="-1.812003"><ele>267</ele><time>2020-08-05T12:43:10Z</time><name>PT11532</name></trkpt>
<trkpt lat="53.370101" lon="-1.812023"><ele>268</ele><time>2020-08-05T12:43:12Z</time><name>PT11533</name></trkpt>
<trkpt lat="53.370106" lon="-1.812040"><ele>269</ele><time>2020-08-05T12:43:13Z</time><name>PT11534</name></trkpt>
<trkpt lat="53.370111" lon="-1.812055"><ele>269</ele><time>2020-08-05T12:43:14Z</time><name>PT11535</name></trkpt>
<trkpt lat="53.370117" lon="-1.812074"><ele>269</ele><time>2020-08-05T12:43:15Z</time><name>PT11536</name></trkpt>
<trkpt lat="53.370122" lon="-1.812090"><ele>270</ele><time>2020-08-05T12:43:16Z</time><name>PT11537</name></trkpt>
<trkpt lat="53.370126" lon="-1.812107"><ele>270</ele><time>2020-08-05T12:43:16Z</time><name>PT11538</name></trkpt>
<trkpt lat="53.370130" lon="-1.812126"><ele>270</ele><time>2020-08-05T12:43:18Z</time><name>PT11539</name></trkpt>
<trkpt lat="53.370133" lon="-1.812148"><ele>270</ele><time>2020-08-05T12:43:19Z</time><name>PT11540</name></trkpt>
<trkpt lat="53.370139" lon="-1.812167"><ele>270</ele><time>2020-08-05T12:43:20Z</time><name>PT11541</name></trkpt>
<trkpt lat="53.370146" lon="-1.812189"><ele>270</ele><time>2020-08-05T12:43:21Z</time><name>PT11542</name></trkpt>
<trkpt lat="53.370153" lon="-1.812210"><ele>270</ele><time>2020-08-05T12:43:22Z</time><name>PT11543</name></trkpt>
<trkpt lat="53.370160" lon="-1.812232"><ele>269</ele><time>2020-08-05T12:43:22Z</time><name>PT11544</name></trkpt>
<trkpt lat="53.370165" lon="-1.812255"><ele>269</ele><time>2020-08-05T12:43:24Z</time><name>PT11545</name></trkpt>
<trkpt lat="53.370168" lon="-1.812273"><ele>269</ele><time>2020-08-05T12:43:25Z</time><name>PT11546</name></trkpt>
<trkpt lat="53.370170" lon="-1.812292"><ele>269</ele><time>2020-08-05T12:43:25Z</time><name>PT11547</name></trkpt>
<trkpt lat="53.370173" lon="-1.812311"><ele>269</ele><time>2020-08-05T12:43:27Z</time><name>PT11548</name></trkpt>
<trkpt lat="53.370177" lon="-1.812328"><ele>269</ele><time>2020-08-05T12:43:28Z</time><name>PT11549</name></trkpt>
<trkpt lat="53.370179" lon="-1.812345"><ele>270</ele><time>2020-08-05T12:43:28Z</time><name>PT11550</name></trkpt>
<trkpt lat="53.370181" lon="-1.812358"><ele>270</ele><time>2020-08-05T12:43:30Z</time><name>PT11551</name></trkpt>
<trkpt lat="53.370185" lon="-1.812372"><ele>270</ele><time>2020-08-05T12:43:31Z</time><name>PT11552</name></trkpt>
<trkpt lat="53.370189" lon="-1.812392"><ele>270</ele><time>2020-08-05T12:43:31Z</time><name>PT11553</name></trkpt>
<trkpt lat="53.370194" lon="-1.812413"><ele>269</ele><time>2020-08-05T12:43:33Z</time><name>PT11554</name></trkpt>
<trkpt lat="53.370199" lon="-1.812432"><ele>269</ele><time>2020-08-05T12:43:34Z</time><name>PT11555</name></trkpt>
<trkpt lat="53.370209" lon="-1.812451"><ele>269</ele><time>2020-08-05T12:43:34Z</time><name>PT11556</name></trkpt>
<trkpt lat="53.370217" lon="-1.812468"><ele>268</ele><time>2020-08-05T12:43:36Z</time><name>PT11557</name></trkpt>
<trkpt lat="53.370223" lon="-1.812487"><ele>268</ele><time>2020-08-05T12:43:37Z</time><name>PT11558</name></trkpt>
<trkpt lat="53.370226" lon="-1.812509"><ele>269</ele><time>2020-08-05T12:43:37Z</time><name>PT11559</name></trkpt>
<trkpt lat="53.370228" lon="-1.812527"><ele>269</ele><time>2020-08-05T12:43:39Z</time><name>PT11560</name></trkpt>
<trkpt lat="53.370232" lon="-1.812548"><ele>269</ele><time>2020-08-05T12:43:40Z</time><name>PT11561</name></trkpt>
<trkpt lat="53.370236" lon="-1.812568"><ele>269</ele><time>2020-08-05T12:43:40Z</time><name>PT11562</name></trkpt>
<trkpt lat="53.370240" lon="-1.812581"><ele>270</ele><time>2020-08-05T12:43:42Z</time><name>PT11563</name></trkpt>
<trkpt lat="53.370245" lon="-1.812597"><ele>270</ele><time>2020-08-05T12:43:43Z</time><name>PT11564</name></trkpt>
<trkpt lat="53.370247" lon="-1.812617"><ele>270</ele><time>2020-08-05T12:43:43Z</time><name>PT11565</name></trkpt>
<trkpt lat="53.370248" lon="-1.812639"><ele>271</ele><time>2020-08-05T12:43:45Z</time><name>PT11566</name></trkpt>
<trkpt lat="53.370251" lon="-1.812657"><ele>271</ele><time>2020-08-05T12:43:46Z</time><name>PT11567</name></trkpt>
<trkpt lat="53.370254" lon="-1.812678"><ele>271</ele><time>2020-08-05T12:43:46Z</time><name>PT11568</name></trkpt>
<trkpt lat="53.370259" lon="-1.812700"><ele>271</ele><time>2020-08-05T12:43:48Z</time><name>PT11569</name></trkpt>
<trkpt lat="53.370267" lon="-1.812721"><ele>272</ele><time>2020-08-05T12:43:49Z</time><name>PT11570</name></trkpt>
<trkpt lat="53.370275" lon="-1.812738"><ele>271</ele><time>2020-08-05T12:43:49Z</time><name>PT11571</name></trkpt>
<trkpt lat="53.370283" lon="-1.812758"><ele>271</ele><time>2020-08-05T12:43:51Z</time><name>PT11572</name></trkpt>
<trkpt lat="53.370291" lon="-1.812780"><ele>271</ele><time>2020-08-05T12:43:52Z</time><name>PT11573</name></trkpt>
<trkpt lat="53.370297" lon="-1.812804"><ele>270</ele><time>2020-08-05T12:43:52Z</time><name>PT11574</name></trkpt>
<trkpt lat="53.370303" lon="-1.812833"><ele>270</ele><time>2020-08-05T12:43:54Z</time><name>PT11575</name></trkpt>
<trkpt lat="53.370305" lon="-1.812859"><ele>270</ele><time>2020-08-05T12:43:55Z</time><name>PT11576</name></trkpt>
<trkpt lat="53.370310" lon="-1.812880"><ele>270</ele><time>2020-08-05T12:43:55Z</time><name>PT11577</name></trkpt>
<trkpt lat="53.370316" lon="-1.812904"><ele>270</ele><time>2020-08-05T12:43:57Z</time><name>PT11578</name></trkpt>
<trkpt lat="53.370321" lon="-1.812927"><ele>270</ele><time>2020-08-05T12:43:58Z</time><name>PT11579</name></trkpt>
<trkpt lat="53.370327" lon="-1.812952"><ele>270</ele><time>2020-08-05T12:43:58Z</time><name>PT11580</name></trkpt>
<trkpt lat="53.370331" lon="-1.812971"><ele>269</ele><time>2020-08-05T12:44:00Z</time><name>PT11581</name></trkpt>
<trkpt lat="53.370334" lon="-1.812996"><ele>268</ele><time>2020-08-05T12:44:01Z</time><name>PT11582</name></trkpt>
<trkpt lat="53.370340" lon="-1.813022"><ele>268</ele><time>2020-08-05T12:44:01Z</time><name>PT11583</name></trkpt>
<trkpt lat="53.370346" lon="-1.813049"><ele>268</ele><time>2020-08-05T12:44:03Z</time><name>PT11584</name></trkpt>
<trkpt lat="53.370352" lon="-1.813071"><ele>268</ele><time>2020-08-05T12:44:04Z</time><name>PT11585</name></trkpt>
<trkpt lat="53.370357" lon="-1.813092"><ele>268</ele><time>2020-08-05T12:44:04Z</time><name>PT11586</name></trkpt>
<trkpt lat="53.370365" lon="-1.813117"><ele>267</ele><time>2020-08-05T12:44:06Z</time><name>PT11587</name></trkpt>
<trkpt lat="53.370370" lon="-1.813136"><ele>266</ele><time>2020-08-05T12:44:07Z</time><name>PT11588</name></trkpt>
<trkpt lat="53.370377" lon="-1.813154"><ele>265</ele><time>2020-08-05T12:44:07Z</time><name>PT11589</name></trkpt>
<trkpt lat="53.370383" lon="-1.813179"><ele>265</ele><time>2020-08-05T12:44:09Z</time><name>PT11590</name></trkpt>
<trkpt lat="53.370387" lon="-1.813208"><ele>265</ele><time>2020-08-05T12:44:10Z</time><name>PT11591</name></trkpt>
<trkpt lat="53.370393" lon="-1.813232"><ele>265</ele><time>2020-08-05T12:44:10Z</time><name>PT11592</name></trkpt>
<trkpt lat="53.370397" lon="-1.813253"><ele>265</ele><time>2020-08-05T12:44:12Z</time><name>PT11593</name></trkpt>
<trkpt lat="53.370403" lon="-1.813276"><ele>264</ele><time>2020-08-05T12:44:13Z</time><name>PT11594</name></trkpt>
<trkpt lat="53.370409" lon="-1.813299"><ele>264</ele><time>2020-08-05T12:44:13Z</time><name>PT11595</name></trkpt>
<trkpt lat="53.370414" lon="-1.813322"><ele>264</ele><time>2020-08-05T12:44:15Z</time><name>PT11596</name></trkpt>
<trkpt lat="53.370418" lon="-1.813347"><ele>264</ele><time>2020-08-05T12:44:16Z</time><name>PT11597</name></trkpt>
<trkpt lat="53.370422" lon="-1.813372"><ele>264</ele><time>2020-08-05T12:44:16Z</time><name>PT11598</name></trkpt>
<trkpt lat="53.370427" lon="-1.813394"><ele>264</ele><time>2020-08-05T12:44:18Z</time><name>PT11599</name></trkpt>
<trkpt lat="53.370431" lon="-1.813412"><ele>264</ele><time>2020-08-05T12:44:19Z</time><name>PT11600</name></trkpt>
<trkpt lat="53.370439" lon="-1.813434"><ele>263</ele><time>2020-08-05T12:44:19Z</time><name>PT11601</name></trkpt>
<trkpt lat="53.370446" lon="-1.813456"><ele>263</ele><time>2020-08-05T12:44:21Z</time><name>PT11602</name></trkpt>
<trkpt lat="53.370447" lon="-1.813473"><ele>263</ele><time>2020-08-05T12:44:22Z</time><name>PT11603</name></trkpt>
<trkpt lat="53.370450" lon="-1.813489"><ele>264</ele><time>2020-08-05T12:44:23Z</time><name>PT11604</name></trkpt>
<trkpt lat="53.370452" lon="-1.813508"><ele>264</ele><time>2020-08-05T12:44:24Z</time><name>PT11605</name></trkpt>
<trkpt lat="53.370456" lon="-1.813528"><ele>263</ele><time>2020-08-05T12:44:25Z</time><name>PT11606</name></trkpt>
<trkpt lat="53.370461" lon="-1.813551"><ele>263</ele><time>2020-08-05T12:44:26Z</time><name>PT11607</name></trkpt>
<trkpt lat="53.370464" lon="-1.813575"><ele>264</ele><time>2020-08-05T12:44:27Z</time><name>PT11608</name></trkpt>
<trkpt lat="53.370469" lon="-1.813599"><ele>263</ele><time>2020-08-05T12:44:28Z</time><name>PT11609</name></trkpt>
<trkpt lat="53.370468" lon="-1.813616"><ele>264</ele><time>2020-08-05T12:44:28Z</time><name>PT11610</name></trkpt>
<trkpt lat="53.370469" lon="-1.813641"><ele>265</ele><time>2020-08-05T12:44:30Z</time><name>PT11611</name></trkpt>
<trkpt lat="53.370471" lon="-1.813666"><ele>265</ele><time>2020-08-05T12:44:31Z</time><name>PT11612</name></trkpt>
<trkpt lat="53.370476" lon="-1.813688"><ele>265</ele><time>2020-08-05T12:44:32Z</time><name>PT11613</name></trkpt>
<trkpt lat="53.370478" lon="-1.813709"><ele>265</ele><time>2020-08-05T12:44:33Z</time><name>PT11614</name></trkpt>
<trkpt lat="53.370484" lon="-1.813728"><ele>264</ele><time>2020-08-05T12:44:34Z</time><name>PT11615</name></trkpt>
<trkpt lat="53.370489" lon="-1.813749"><ele>264</ele><time>2020-08-05T12:44:35Z</time><name>PT11616</name></trkpt>
<trkpt lat="53.370491" lon="-1.813772"><ele>264</ele><time>2020-08-05T12:44:36Z</time><name>PT11617</name></trkpt>
<trkpt lat="53.370495" lon="-1.813798"><ele>264</ele><time>2020-08-05T12:44:37Z</time><name>PT11618</name></trkpt>
<trkpt lat="53.370498" lon="-1.813820"><ele>264</ele><time>2020-08-05T12:44:38Z</time><name>PT11619</name></trkpt>
<trkpt lat="53.370502" lon="-1.813839"><ele>264</ele><time>2020-08-05T12:44:39Z</time><name>PT11620</name></trkpt>
<trkpt lat="53.370506" lon="-1.813862"><ele>264</ele><time>2020-08-05T12:44:40Z</time><name>PT11621</name></trkpt>
<trkpt lat="53.370514" lon="-1.813885"><ele>263</ele><time>2020-08-05T12:44:41Z</time><name>PT11622</name></trkpt>
<trkpt lat="53.370516" lon="-1.813902"><ele>264</ele><time>2020-08-05T12:44:42Z</time><name>PT11623</name></trkpt>
<trkpt lat="53.370519" lon="-1.813923"><ele>264</ele><time>2020-08-05T12:44:43Z</time><name>PT11624</name></trkpt>
<trkpt lat="53.370520" lon="-1.813935"><ele>264</ele><time>2020-08-05T12:44:44Z</time><name>PT11625</name></trkpt>
<trkpt lat="53.370521" lon="-1.813947"><ele>264</ele><time>2020-08-05T12:44:45Z</time><name>PT11626</name></trkpt>
<trkpt lat="53.370523" lon="-1.813962"><ele>264</ele><time>2020-08-05T12:44:46Z</time><name>PT11627</name></trkpt>
<trkpt lat="53.370525" lon="-1.813982"><ele>264</ele><time>2020-08-05T12:44:46Z</time><name>PT11628</name></trkpt>
<trkpt lat="53.370528" lon="-1.814002"><ele>264</ele><time>2020-08-05T12:44:48Z</time><name>PT11629</name></trkpt>
<trkpt lat="53.370533" lon="-1.814023"><ele>264</ele><time>2020-08-05T12:44:49Z</time><name>PT11630</name></trkpt>
<trkpt lat="53.370537" lon="-1.814042"><ele>264</ele><time>2020-08-05T12:44:49Z</time><name>PT11631</name></trkpt>
<trkpt lat="53.370541" lon="-1.814061"><ele>264</ele><time>2020-08-05T12:44:51Z</time><name>PT11632</name></trkpt>
<trkpt lat="53.370543" lon="-1.814083"><ele>264</ele><time>2020-08-05T12:44:52Z</time><name>PT11633</name></trkpt>
<trkpt lat="53.370547" lon="-1.814105"><ele>264</ele><time>2020-08-05T12:44:52Z</time><name>PT11634</name></trkpt>
<trkpt lat="53.370552" lon="-1.814125"><ele>264</ele><time>2020-08-05T12:44:54Z</time><name>PT11635</name></trkpt>
<trkpt lat="53.370556" lon="-1.814146"><ele>264</ele><time>2020-08-05T12:44:55Z</time><name>PT11636</name></trkpt>
<trkpt lat="53.370559" lon="-1.814167"><ele>264</ele><time>2020-08-05T12:44:55Z</time><name>PT11637</name></trkpt>
<trkpt lat="53.370563" lon="-1.814185"><ele>264</ele><time>2020-08-05T12:44:57Z</time><name>PT11638</name></trkpt>
<trkpt lat="53.370566" lon="-1.814212"><ele>264</ele><time>2020-08-05T12:44:58Z</time><name>PT11639</name></trkpt>
<trkpt lat="53.370569" lon="-1.814234"><ele>264</ele><time>2020-08-05T12:44:58Z</time><name>PT11640</name></trkpt>
<trkpt lat="53.370575" lon="-1.814255"><ele>264</ele><time>2020-08-05T12:45:00Z</time><name>PT11641</name></trkpt>
<trkpt lat="53.370580" lon="-1.814274"><ele>264</ele><time>2020-08-05T12:45:01Z</time><name>PT11642</name></trkpt>
<trkpt lat="53.370584" lon="-1.814295"><ele>264</ele><time>2020-08-05T12:45:01Z</time><name>PT11643</name></trkpt>
<trkpt lat="53.370587" lon="-1.814317"><ele>264</ele><time>2020-08-05T12:45:03Z</time><name>PT11644</name></trkpt>
<trkpt lat="53.370592" lon="-1.814337"><ele>263</ele><time>2020-08-05T12:45:04Z</time><name>PT11645</name></trkpt>
<trkpt lat="53.370599" lon="-1.814358"><ele>263</ele><time>2020-08-05T12:45:04Z</time><name>PT11646</name></trkpt>
<trkpt lat="53.370604" lon="-1.814383"><ele>263</ele><time>2020-08-05T12:45:06Z</time><name>PT11647</name></trkpt>
<trkpt lat="53.370609" lon="-1.814407"><ele>263</ele><time>2020-08-05T12:45:07Z</time><name>PT11648</name></trkpt>
<trkpt lat="53.370614" lon="-1.814427"><ele>262</ele><time>2020-08-05T12:45:07Z</time><name>PT11649</name></trkpt>
<trkpt lat="53.370616" lon="-1.814447"><ele>262</ele><time>2020-08-05T12:45:09Z</time><name>PT11650</name></trkpt>
<trkpt lat="53.370621" lon="-1.814467"><ele>262</ele><time>2020-08-05T12:45:10Z</time><name>PT11651</name></trkpt>
<trkpt lat="53.370625" lon="-1.814487"><ele>262</ele><time>2020-08-05T12:45:10Z</time><name>PT11652</name></trkpt>
<trkpt lat="53.370629" lon="-1.814509"><ele>262</ele><time>2020-08-05T12:45:12Z</time><name>PT11653</name></trkpt>
<trkpt lat="53.370633" lon="-1.814533"><ele>262</ele><time>2020-08-05T12:45:13Z</time><name>PT11654</name></trkpt>
<trkpt lat="53.370636" lon="-1.814554"><ele>262</ele><time>2020-08-05T12:45:13Z</time><name>PT11655</name></trkpt>
<trkpt lat="53.370643" lon="-1.814575"><ele>262</ele><time>2020-08-05T12:45:15Z</time><name>PT11656</name></trkpt>
<trkpt lat="53.370649" lon="-1.814596"><ele>262</ele><time>2020-08-05T12:45:16Z</time><name>PT11657</name></trkpt>
<trkpt lat="53.370654" lon="-1.814619"><ele>262</ele><time>2020-08-05T12:45:16Z</time><name>PT11658</name></trkpt>
<trkpt lat="53.370658" lon="-1.814643"><ele>262</ele><time>2020-08-05T12:45:18Z</time><name>PT11659</name></trkpt>
<trkpt lat="53.370662" lon="-1.814664"><ele>262</ele><time>2020-08-05T12:45:19Z</time><name>PT11660</name></trkpt>
<trkpt lat="53.370666" lon="-1.814688"><ele>262</ele><time>2020-08-05T12:45:19Z</time><name>PT11661</name></trkpt>
<trkpt lat="53.370670" lon="-1.814710"><ele>262</ele><time>2020-08-05T12:45:21Z</time><name>PT11662</name></trkpt>
<trkpt lat="53.370674" lon="-1.814730"><ele>261</ele><time>2020-08-05T12:45:22Z</time><name>PT11663</name></trkpt>
<trkpt lat="53.370678" lon="-1.814750"><ele>262</ele><time>2020-08-05T12:45:22Z</time><name>PT11664</name></trkpt>
<trkpt lat="53.370684" lon="-1.814774"><ele>262</ele><time>2020-08-05T12:45:24Z</time><name>PT11665</name></trkpt>
<trkpt lat="53.370690" lon="-1.814797"><ele>261</ele><time>2020-08-05T12:45:25Z</time><name>PT11666</name></trkpt>
<trkpt lat="53.370692" lon="-1.814818"><ele>262</ele><time>2020-08-05T12:45:25Z</time><name>PT11667</name></trkpt>
<trkpt lat="53.370695" lon="-1.814840"><ele>262</ele><time>2020-08-05T12:45:27Z</time><name>PT11668</name></trkpt>
<trkpt lat="53.370700" lon="-1.814864"><ele>261</ele><time>2020-08-05T12:45:28Z</time><name>PT11669</name></trkpt>
<trkpt lat="53.370704" lon="-1.814885"><ele>262</ele><time>2020-08-05T12:45:28Z</time><name>PT11670</name></trkpt>
<trkpt lat="53.370708" lon="-1.814906"><ele>262</ele><time>2020-08-05T12:45:30Z</time><name>PT11671</name></trkpt>
<trkpt lat="53.370714" lon="-1.814930"><ele>262</ele><time>2020-08-05T12:45:31Z</time><name>PT11672</name></trkpt>
<trkpt lat="53.370718" lon="-1.814952"><ele>262</ele><time>2020-08-05T12:45:32Z</time><name>PT11673</name></trkpt>
<trkpt lat="53.370722" lon="-1.814972"><ele>261</ele><time>2020-08-05T12:45:33Z</time><name>PT11674</name></trkpt>
<trkpt lat="53.370727" lon="-1.814995"><ele>261</ele><time>2020-08-05T12:45:34Z</time><name>PT11675</name></trkpt>
<trkpt lat="53.370732" lon="-1.815017"><ele>261</ele><time>2020-08-05T12:45:35Z</time><name>PT11676</name></trkpt>
<trkpt lat="53.370736" lon="-1.815036"><ele>261</ele><time>2020-08-05T12:45:36Z</time><name>PT11677</name></trkpt>
<trkpt lat="53.370740" lon="-1.815056"><ele>261</ele><time>2020-08-05T12:45:37Z</time><name>PT11678</name></trkpt>
<trkpt lat="53.370744" lon="-1.815079"><ele>261</ele><time>2020-08-05T12:45:38Z</time><name>PT11679</name></trkpt>
<trkpt lat="53.370748" lon="-1.815100"><ele>261</ele><time>2020-08-05T12:45:39Z</time><name>PT11680</name></trkpt>
<trkpt lat="53.370755" lon="-1.815125"><ele>261</ele><time>2020-08-05T12:45:40Z</time><name>PT11681</name></trkpt>
<trkpt lat="53.370759" lon="-1.815150"><ele>261</ele><time>2020-08-05T12:45:40Z</time><name>PT11682</name></trkpt>
<trkpt lat="53.370761" lon="-1.815168"><ele>261</ele><time>2020-08-05T12:45:42Z</time><name>PT11683</name></trkpt>
<trkpt lat="53.370765" lon="-1.815188"><ele>261</ele><time>2020-08-05T12:45:43Z</time><name>PT11684</name></trkpt>
<trkpt lat="53.370770" lon="-1.815207"><ele>261</ele><time>2020-08-05T12:45:44Z</time><name>PT11685</name></trkpt>
<trkpt lat="53.370775" lon="-1.815227"><ele>261</ele><time>2020-08-05T12:45:45Z</time><name>PT11686</name></trkpt>
<trkpt lat="53.370781" lon="-1.815246"><ele>261</ele><time>2020-08-05T12:45:46Z</time><name>PT11687</name></trkpt>
<trkpt lat="53.370784" lon="-1.815265"><ele>261</ele><time>2020-08-05T12:45:46Z</time><name>PT11688</name></trkpt>
<trkpt lat="53.370787" lon="-1.815284"><ele>261</ele><time>2020-08-05T12:45:48Z</time><name>PT11689</name></trkpt>
<trkpt lat="53.370790" lon="-1.815304"><ele>261</ele><time>2020-08-05T12:45:49Z</time><name>PT11690</name></trkpt>
<trkpt lat="53.370795" lon="-1.815323"><ele>262</ele><time>2020-08-05T12:45:49Z</time><name>PT11691</name></trkpt>
<trkpt lat="53.370801" lon="-1.815343"><ele>262</ele><time>2020-08-05T12:45:51Z</time><name>PT11692</name></trkpt>
<trkpt lat="53.370808" lon="-1.815358"><ele>261</ele><time>2020-08-05T12:45:52Z</time><name>PT11693</name></trkpt>
<trkpt lat="53.370810" lon="-1.815377"><ele>262</ele><time>2020-08-05T12:45:52Z</time><name>PT11694</name></trkpt>
<trkpt lat="53.370813" lon="-1.815397"><ele>262</ele><time>2020-08-05T12:45:54Z</time><name>PT11695</name></trkpt>
<trkpt lat="53.370814" lon="-1.815414"><ele>262</ele><time>2020-08-05T12:45:55Z</time><name>PT11696</name></trkpt>
<trkpt lat="53.370816" lon="-1.815434"><ele>262</ele><time>2020-08-05T12:45:55Z</time><name>PT11697</name></trkpt>
<trkpt lat="53.370820" lon="-1.815451"><ele>262</ele><time>2020-08-05T12:45:57Z</time><name>PT11698</name></trkpt>
<trkpt lat="53.370822" lon="-1.815463"><ele>262</ele><time>2020-08-05T12:45:58Z</time><name>PT11699</name></trkpt>
<trkpt lat="53.370821" lon="-1.815475"><ele>263</ele><time>2020-08-05T12:45:58Z</time><name>PT11700</name></trkpt>
<trkpt lat="53.370819" lon="-1.815490"><ele>263</ele><time>2020-08-05T12:46:00Z</time><name>PT11701</name></trkpt>
<trkpt lat="53.370819" lon="-1.815509"><ele>262</ele><time>2020-08-05T12:46:01Z</time><name>PT11702</name></trkpt>
<trkpt lat="53.370818" lon="-1.815525"><ele>262</ele><time>2020-08-05T12:46:01Z</time><name>PT11703</name></trkpt>
<trkpt lat="53.370817" lon="-1.815535"><ele>262</ele><time>2020-08-05T12:46:03Z</time><name>PT11704</name></trkpt>
<trkpt lat="53.370819" lon="-1.815548"><ele>262</ele><time>2020-08-05T12:46:04Z</time><name>PT11705</name></trkpt>
<trkpt lat="53.370821" lon="-1.815564"><ele>262</ele><time>2020-08-05T12:46:04Z</time><name>PT11706</name></trkpt>
<trkpt lat="53.370821" lon="-1.815575"><ele>261</ele><time>2020-08-05T12:46:06Z</time><name>PT11707</name></trkpt>
<trkpt lat="53.370821" lon="-1.815585"><ele>261</ele><time>2020-08-05T12:46:07Z</time><name>PT11708</name></trkpt>
<trkpt lat="53.370822" lon="-1.815592"><ele>261</ele><time>2020-08-05T12:46:07Z</time><name>PT11709</name></trkpt>
<trkpt lat="53.370826" lon="-1.815602"><ele>261</ele><time>2020-08-05T12:46:09Z</time><name>PT11710</name></trkpt>
<trkpt lat="53.370830" lon="-1.815614"><ele>262</ele><time>2020-08-05T12:46:10Z</time><name>PT11711</name></trkpt>
<trkpt lat="53.370837" lon="-1.815628"><ele>261</ele><time>2020-08-05T12:46:10Z</time><name>PT11712</name></trkpt>
<trkpt lat="53.370840" lon="-1.815637"><ele>261</ele><time>2020-08-05T12:46:12Z</time><name>PT11713</name></trkpt>
<trkpt lat="53.370844" lon="-1.815646"><ele>261</ele><time>2020-08-05T12:46:13Z</time><name>PT11714</name></trkpt>
<trkpt lat="53.370850" lon="-1.815651"><ele>260</ele><time>2020-08-05T12:46:13Z</time><name>PT11715</name></trkpt>
<trkpt lat="53.370853" lon="-1.815658"><ele>260</ele><time>2020-08-05T12:46:15Z</time><name>PT11716</name></trkpt>
<trkpt lat="53.370855" lon="-1.815666"><ele>260</ele><time>2020-08-05T12:46:16Z</time><name>PT11717</name></trkpt>
<trkpt lat="53.370855" lon="-1.815675"><ele>261</ele><time>2020-08-05T12:46:17Z</time><name>PT11718</name></trkpt>
<trkpt lat="53.370859" lon="-1.815685"><ele>261</ele><time>2020-08-05T12:46:18Z</time><name>PT11719</name></trkpt>
<trkpt lat="53.370865" lon="-1.815693"><ele>261</ele><time>2020-08-05T12:46:19Z</time><name>PT11720</name></trkpt>
<trkpt lat="53.370874" lon="-1.815704"><ele>261</ele><time>2020-08-05T12:46:19Z</time><name>PT11721</name></trkpt>
<trkpt lat="53.370879" lon="-1.815718"><ele>261</ele><time>2020-08-05T12:46:21Z</time><name>PT11722</name></trkpt>
<trkpt lat="53.370883" lon="-1.815728"><ele>261</ele><time>2020-08-05T12:46:22Z</time><name>PT11723</name></trkpt>
<trkpt lat="53.370893" lon="-1.815743"><ele>261</ele><time>2020-08-05T12:46:22Z</time><name>PT11724</name></trkpt>
<trkpt lat="53.370894" lon="-1.815746"><ele>261</ele><time>2020-08-05T12:46:24Z</time><name>PT11725</name></trkpt>
<trkpt lat="53.370893" lon="-1.815747"><ele>261</ele><time>2020-08-05T12:46:25Z</time><name>PT11726</name></trkpt>
<trkpt lat="53.370897" lon="-1.815756"><ele>261</ele><time>2020-08-05T12:46:25Z</time><name>PT11727</name></trkpt>
<trkpt lat="53.370898" lon="-1.815764"><ele>261</ele><time>2020-08-05T12:46:27Z</time><name>PT11728</name></trkpt>
<trkpt lat="53.370899" lon="-1.815770"><ele>261</ele><time>2020-08-05T12:46:28Z</time><name>PT11729</name></trkpt>
<trkpt lat="53.370902" lon="-1.815780"><ele>260</ele><time>2020-08-05T12:46:28Z</time><name>PT11730</name></trkpt>
<trkpt lat="53.370904" lon="-1.815801"><ele>260</ele><time>2020-08-05T12:46:36Z</time><name>PT11731</name></trkpt>
<trkpt lat="53.370915" lon="-1.815819"><ele>260</ele><time>2020-08-05T12:46:37Z</time><name>PT11732</name></trkpt>
<trkpt lat="53.370926" lon="-1.815841"><ele>260</ele><time>2020-08-05T12:46:37Z</time><name>PT11733</name></trkpt>
<trkpt lat="53.370936" lon="-1.815858"><ele>261</ele><time>2020-08-05T12:46:39Z</time><name>PT11734</name></trkpt>
<trkpt lat="53.370950" lon="-1.815874"><ele>260</ele><time>2020-08-05T12:46:40Z</time><name>PT11735</name></trkpt>
<trkpt lat="53.370961" lon="-1.815887"><ele>260</ele><time>2020-08-05T12:46:40Z</time><name>PT11736</name></trkpt>
<trkpt lat="53.370973" lon="-1.815899"><ele>260</ele><time>2020-08-05T12:46:42Z</time><name>PT11737</name></trkpt>
<trkpt lat="53.370979" lon="-1.815911"><ele>259</ele><time>2020-08-05T12:46:43Z</time><name>PT11738</name></trkpt>
<trkpt lat="53.370987" lon="-1.815919"><ele>258</ele><time>2020-08-05T12:46:44Z</time><name>PT11739</name></trkpt>
<trkpt lat="53.370989" lon="-1.815934"><ele>257</ele><time>2020-08-05T12:46:45Z</time><name>PT11740</name></trkpt>
<trkpt lat="53.370990" lon="-1.815960"><ele>257</ele><time>2020-08-05T12:46:46Z</time><name>PT11741</name></trkpt>
<trkpt lat="53.370990" lon="-1.815976"><ele>256</ele><time>2020-08-05T12:46:46Z</time><name>PT11742</name></trkpt>
<trkpt lat="53.370987" lon="-1.815989"><ele>255</ele><time>2020-08-05T12:46:48Z</time><name>PT11743</name></trkpt>
<trkpt lat="53.370988" lon="-1.816014"><ele>255</ele><time>2020-08-05T12:46:49Z</time><name>PT11744</name></trkpt>
<trkpt lat="53.370989" lon="-1.816030"><ele>254</ele><time>2020-08-05T12:46:50Z</time><name>PT11745</name></trkpt>
<trkpt lat="53.370992" lon="-1.816052"><ele>252</ele><time>2020-08-05T12:46:51Z</time><name>PT11746</name></trkpt>
<trkpt lat="53.370989" lon="-1.816065"><ele>251</ele><time>2020-08-05T12:46:52Z</time><name>PT11747</name></trkpt>
<trkpt lat="53.370986" lon="-1.816084"><ele>251</ele><time>2020-08-05T12:46:52Z</time><name>PT11748</name></trkpt>
<trkpt lat="53.370982" lon="-1.816098"><ele>251</ele><time>2020-08-05T12:46:54Z</time><name>PT11749</name></trkpt>
<trkpt lat="53.370981" lon="-1.816114"><ele>251</ele><time>2020-08-05T12:46:55Z</time><name>PT11750</name></trkpt>
<trkpt lat="53.370979" lon="-1.816126"><ele>251</ele><time>2020-08-05T12:46:56Z</time><name>PT11751</name></trkpt>
<trkpt lat="53.370974" lon="-1.816143"><ele>251</ele><time>2020-08-05T12:46:57Z</time><name>PT11752</name></trkpt>
<trkpt lat="53.370972" lon="-1.816159"><ele>251</ele><time>2020-08-05T12:46:58Z</time><name>PT11753</name></trkpt>
<trkpt lat="53.370966" lon="-1.816178"><ele>252</ele><time>2020-08-05T12:46:58Z</time><name>PT11754</name></trkpt>
<trkpt lat="53.370968" lon="-1.816195"><ele>251</ele><time>2020-08-05T12:47:00Z</time><name>PT11755</name></trkpt>
<trkpt lat="53.370968" lon="-1.816217"><ele>252</ele><time>2020-08-05T12:47:01Z</time><name>PT11756</name></trkpt>
<trkpt lat="53.370968" lon="-1.816237"><ele>251</ele><time>2020-08-05T12:47:01Z</time><name>PT11757</name></trkpt>
<trkpt lat="53.370961" lon="-1.816265"><ele>252</ele><time>2020-08-05T12:47:03Z</time><name>PT11758</name></trkpt>
<trkpt lat="53.370955" lon="-1.816291"><ele>251</ele><time>2020-08-05T12:47:04Z</time><name>PT11759</name></trkpt>
<trkpt lat="53.370944" lon="-1.816302"><ele>251</ele><time>2020-08-05T12:47:04Z</time><name>PT11760</name></trkpt>
<trkpt lat="53.370934" lon="-1.816315"><ele>251</ele><time>2020-08-05T12:47:06Z</time><name>PT11761</name></trkpt>
<trkpt lat="53.370924" lon="-1.816328"><ele>252</ele><time>2020-08-05T12:47:07Z</time><name>PT11762</name></trkpt>
<trkpt lat="53.370920" lon="-1.816343"><ele>252</ele><time>2020-08-05T12:47:07Z</time><name>PT11763</name></trkpt>
<trkpt lat="53.370914" lon="-1.816359"><ele>252</ele><time>2020-08-05T12:47:09Z</time><name>PT11764</name></trkpt>
<trkpt lat="53.370906" lon="-1.816376"><ele>253</ele><time>2020-08-05T12:47:10Z</time><name>PT11765</name></trkpt>
<trkpt lat="53.370898" lon="-1.816388"><ele>253</ele><time>2020-08-05T12:47:10Z</time><name>PT11766</name></trkpt>
<trkpt lat="53.370891" lon="-1.816401"><ele>253</ele><time>2020-08-05T12:47:12Z</time><name>PT11767</name></trkpt>
<trkpt lat="53.370889" lon="-1.816410"><ele>253</ele><time>2020-08-05T12:47:13Z</time><name>PT11768</name></trkpt>
<trkpt lat="53.370887" lon="-1.816420"><ele>253</ele><time>2020-08-05T12:47:13Z</time><name>PT11769</name></trkpt>
<trkpt lat="53.370879" lon="-1.816438"><ele>252</ele><time>2020-08-05T12:47:16Z</time><name>PT11770</name></trkpt>
<trkpt lat="53.370869" lon="-1.816459"><ele>251</ele><time>2020-08-05T12:47:16Z</time><name>PT11771</name></trkpt>
<trkpt lat="53.370859" lon="-1.816478"><ele>251</ele><time>2020-08-05T12:47:18Z</time><name>PT11772</name></trkpt>
<trkpt lat="53.370857" lon="-1.816497"><ele>251</ele><time>2020-08-05T12:47:19Z</time><name>PT11773</name></trkpt>
<trkpt lat="53.370854" lon="-1.816512"><ele>250</ele><time>2020-08-05T12:47:19Z</time><name>PT11774</name></trkpt>
<trkpt lat="53.370851" lon="-1.816528"><ele>250</ele><time>2020-08-05T12:47:21Z</time><name>PT11775</name></trkpt>
<trkpt lat="53.370845" lon="-1.816550"><ele>251</ele><time>2020-08-05T12:47:22Z</time><name>PT11776</name></trkpt>
<trkpt lat="53.370834" lon="-1.816562"><ele>251</ele><time>2020-08-05T12:47:22Z</time><name>PT11777</name></trkpt>
<trkpt lat="53.370824" lon="-1.816573"><ele>251</ele><time>2020-08-05T12:47:24Z</time><name>PT11778</name></trkpt>
<trkpt lat="53.370824" lon="-1.816580"><ele>250</ele><time>2020-08-05T12:47:25Z</time><name>PT11779</name></trkpt>
<trkpt lat="53.370817" lon="-1.816590"><ele>250</ele><time>2020-08-05T12:47:25Z</time><name>PT11780</name></trkpt>
<trkpt lat="53.370813" lon="-1.816600"><ele>250</ele><time>2020-08-05T12:47:27Z</time><name>PT11781</name></trkpt>
<trkpt lat="53.370809" lon="-1.816613"><ele>249</ele><time>2020-08-05T12:47:28Z</time><name>PT11782</name></trkpt>
<trkpt lat="53.370802" lon="-1.816623"><ele>249</ele><time>2020-08-05T12:47:28Z</time><name>PT11783</name></trkpt>
<trkpt lat="53.370798" lon="-1.816633"><ele>248</ele><time>2020-08-05T12:47:30Z</time><name>PT11784</name></trkpt>
<trkpt lat="53.370790" lon="-1.816645"><ele>249</ele><time>2020-08-05T12:47:31Z</time><name>PT11785</name></trkpt>
<trkpt lat="53.370780" lon="-1.816653"><ele>248</ele><time>2020-08-05T12:47:31Z</time><name>PT11786</name></trkpt>
<trkpt lat="53.370768" lon="-1.816662"><ele>248</ele><time>2020-08-05T12:47:33Z</time><name>PT11787</name></trkpt>
<trkpt lat="53.370758" lon="-1.816671"><ele>248</ele><time>2020-08-05T12:47:34Z</time><name>PT11788</name></trkpt>
<trkpt lat="53.370747" lon="-1.816686"><ele>247</ele><time>2020-08-05T12:47:34Z</time><name>PT11789</name></trkpt>
<trkpt lat="53.370736" lon="-1.816696"><ele>246</ele><time>2020-08-05T12:47:36Z</time><name>PT11790</name></trkpt>
<trkpt lat="53.370732" lon="-1.816704"><ele>246</ele><time>2020-08-05T12:47:37Z</time><name>PT11791</name></trkpt>
<trkpt lat="53.370724" lon="-1.816706"><ele>247</ele><time>2020-08-05T12:47:37Z</time><name>PT11792</name></trkpt>
<trkpt lat="53.370712" lon="-1.816716"><ele>248</ele><time>2020-08-05T12:47:39Z</time><name>PT11793</name></trkpt>
<trkpt lat="53.370696" lon="-1.816721"><ele>249</ele><time>2020-08-05T12:47:40Z</time><name>PT11794</name></trkpt>
<trkpt lat="53.370688" lon="-1.816727"><ele>249</ele><time>2020-08-05T12:47:40Z</time><name>PT11795</name></trkpt>
<trkpt lat="53.370679" lon="-1.816746"><ele>249</ele><time>2020-08-05T12:47:42Z</time><name>PT11796</name></trkpt>
<trkpt lat="53.370674" lon="-1.816761"><ele>249</ele><time>2020-08-05T12:47:43Z</time><name>PT11797</name></trkpt>
<trkpt lat="53.370666" lon="-1.816773"><ele>249</ele><time>2020-08-05T12:47:43Z</time><name>PT11798</name></trkpt>
<trkpt lat="53.370658" lon="-1.816785"><ele>250</ele><time>2020-08-05T12:47:45Z</time><name>PT11799</name></trkpt>
<trkpt lat="53.370653" lon="-1.816800"><ele>250</ele><time>2020-08-05T12:47:46Z</time><name>PT11800</name></trkpt>
<trkpt lat="53.370651" lon="-1.816809"><ele>250</ele><time>2020-08-05T12:47:46Z</time><name>PT11801</name></trkpt>
<trkpt lat="53.370644" lon="-1.816817"><ele>250</ele><time>2020-08-05T12:47:48Z</time><name>PT11802</name></trkpt>
<trkpt lat="53.370634" lon="-1.816825"><ele>251</ele><time>2020-08-05T12:47:49Z</time><name>PT11803</name></trkpt>
<trkpt lat="53.370622" lon="-1.816834"><ele>252</ele><time>2020-08-05T12:47:49Z</time><name>PT11804</name></trkpt>
<trkpt lat="53.370615" lon="-1.816846"><ele>252</ele><time>2020-08-05T12:47:51Z</time><name>PT11805</name></trkpt>
<trkpt lat="53.370603" lon="-1.816854"><ele>253</ele><time>2020-08-05T12:47:52Z</time><name>PT11806</name></trkpt>
<trkpt lat="53.370592" lon="-1.816859"><ele>253</ele><time>2020-08-05T12:47:52Z</time><name>PT11807</name></trkpt>
<trkpt lat="53.370577" lon="-1.816864"><ele>254</ele><time>2020-08-05T12:47:54Z</time><name>PT11808</name></trkpt>
<trkpt lat="53.370562" lon="-1.816868"><ele>255</ele><time>2020-08-05T12:47:55Z</time><name>PT11809</name></trkpt>
<trkpt lat="53.370548" lon="-1.816874"><ele>255</ele><time>2020-08-05T12:47:55Z</time><name>PT11810</name></trkpt>
<trkpt lat="53.370538" lon="-1.816873"><ele>255</ele><time>2020-08-05T12:47:57Z</time><name>PT11811</name></trkpt>
<trkpt lat="53.370527" lon="-1.816873"><ele>256</ele><time>2020-08-05T12:47:58Z</time><name>PT11812</name></trkpt>
<trkpt lat="53.370513" lon="-1.816879"><ele>256</ele><time>2020-08-05T12:47:58Z</time><name>PT11813</name></trkpt>
<trkpt lat="53.370503" lon="-1.816887"><ele>256</ele><time>2020-08-05T12:48:00Z</time><name>PT11814</name></trkpt>
<trkpt lat="53.370494" lon="-1.816896"><ele>256</ele><time>2020-08-05T12:48:01Z</time><name>PT11815</name></trkpt>
<trkpt lat="53.370484" lon="-1.816906"><ele>256</ele><time>2020-08-05T12:48:01Z</time><name>PT11816</name></trkpt>
<trkpt lat="53.370475" lon="-1.816916"><ele>256</ele><time>2020-08-05T12:48:03Z</time><name>PT11817</name></trkpt>
<trkpt lat="53.370472" lon="-1.816926"><ele>257</ele><time>2020-08-05T12:48:04Z</time><name>PT11818</name></trkpt>
<trkpt lat="53.370466" lon="-1.816936"><ele>257</ele><time>2020-08-05T12:48:04Z</time><name>PT11819</name></trkpt>
<trkpt lat="53.370460" lon="-1.816945"><ele>257</ele><time>2020-08-05T12:48:06Z</time><name>PT11820</name></trkpt>
<trkpt lat="53.370461" lon="-1.816954"><ele>256</ele><time>2020-08-05T12:48:07Z</time><name>PT11821</name></trkpt>
<trkpt lat="53.370464" lon="-1.816969"><ele>256</ele><time>2020-08-05T12:48:07Z</time><name>PT11822</name></trkpt>
<trkpt lat="53.370463" lon="-1.816985"><ele>256</ele><time>2020-08-05T12:48:09Z</time><name>PT11823</name></trkpt>
<trkpt lat="53.370457" lon="-1.816994"><ele>255</ele><time>2020-08-05T12:48:10Z</time><name>PT11824</name></trkpt>
<trkpt lat="53.370455" lon="-1.817009"><ele>256</ele><time>2020-08-05T12:48:10Z</time><name>PT11825</name></trkpt>
<trkpt lat="53.370450" lon="-1.817023"><ele>256</ele><time>2020-08-05T12:48:12Z</time><name>PT11826</name></trkpt>
<trkpt lat="53.370446" lon="-1.817038"><ele>255</ele><time>2020-08-05T12:48:13Z</time><name>PT11827</name></trkpt>
<trkpt lat="53.370439" lon="-1.817049"><ele>255</ele><time>2020-08-05T12:48:14Z</time><name>PT11828</name></trkpt>
<trkpt lat="53.370433" lon="-1.817066"><ele>256</ele><time>2020-08-05T12:48:15Z</time><name>PT11829</name></trkpt>
<trkpt lat="53.370431" lon="-1.817086"><ele>257</ele><time>2020-08-05T12:48:16Z</time><name>PT11830</name></trkpt>
<trkpt lat="53.370430" lon="-1.817102"><ele>257</ele><time>2020-08-05T12:48:17Z</time><name>PT11831</name></trkpt>
<trkpt lat="53.370433" lon="-1.817116"><ele>257</ele><time>2020-08-05T12:48:18Z</time><name>PT11832</name></trkpt>
<trkpt lat="53.370438" lon="-1.817127"><ele>257</ele><time>2020-08-05T12:48:19Z</time><name>PT11833</name></trkpt>
<trkpt lat="53.370443" lon="-1.817138"><ele>257</ele><time>2020-08-05T12:48:20Z</time><name>PT11834</name></trkpt>
<trkpt lat="53.370438" lon="-1.817142"><ele>258</ele><time>2020-08-05T12:48:21Z</time><name>PT11835</name></trkpt>
<trkpt lat="53.370439" lon="-1.817150"><ele>258</ele><time>2020-08-05T12:48:22Z</time><name>PT11836</name></trkpt>
<trkpt lat="53.370436" lon="-1.817160"><ele>258</ele><time>2020-08-05T12:48:23Z</time><name>PT11837</name></trkpt>
<trkpt lat="53.370434" lon="-1.817175"><ele>258</ele><time>2020-08-05T12:48:24Z</time><name>PT11838</name></trkpt>
<trkpt lat="53.370433" lon="-1.817196"><ele>257</ele><time>2020-08-05T12:48:25Z</time><name>PT11839</name></trkpt>
<trkpt lat="53.370430" lon="-1.817216"><ele>256</ele><time>2020-08-05T12:48:26Z</time><name>PT11840</name></trkpt>
<trkpt lat="53.370426" lon="-1.817232"><ele>257</ele><time>2020-08-05T12:48:27Z</time><name>PT11841</name></trkpt>
<trkpt lat="53.370425" lon="-1.817240"><ele>257</ele><time>2020-08-05T12:48:28Z</time><name>PT11842</name></trkpt>
<trkpt lat="53.370421" lon="-1.817243"><ele>258</ele><time>2020-08-05T12:48:29Z</time><name>PT11843</name></trkpt>
<trkpt lat="53.370419" lon="-1.817241"><ele>258</ele><time>2020-08-05T12:48:30Z</time><name>PT11844</name></trkpt>
<trkpt lat="53.370418" lon="-1.817232"><ele>258</ele><time>2020-08-05T12:48:31Z</time><name>PT11845</name></trkpt>
<trkpt lat="53.370418" lon="-1.817224"><ele>258</ele><time>2020-08-05T12:48:32Z</time><name>PT11846</name></trkpt>
<trkpt lat="53.370414" lon="-1.817216"><ele>258</ele><time>2020-08-05T12:48:33Z</time><name>PT11847</name></trkpt>
<trkpt lat="53.370406" lon="-1.817212"><ele>257</ele><time>2020-08-05T12:48:34Z</time><name>PT11848</name></trkpt>
<trkpt lat="53.370400" lon="-1.817211"><ele>257</ele><time>2020-08-05T12:48:34Z</time><name>PT11849</name></trkpt>
<trkpt lat="53.370393" lon="-1.817208"><ele>256</ele><time>2020-08-05T12:48:36Z</time><name>PT11850</name></trkpt>
<trkpt lat="53.370388" lon="-1.817208"><ele>256</ele><time>2020-08-05T12:48:37Z</time><name>PT11851</name></trkpt>
<trkpt lat="53.370383" lon="-1.817210"><ele>256</ele><time>2020-08-05T12:48:37Z</time><name>PT11852</name></trkpt>
<trkpt lat="53.370381" lon="-1.817213"><ele>256</ele><time>2020-08-05T12:48:39Z</time><name>PT11853</name></trkpt>
<trkpt lat="53.370381" lon="-1.817215"><ele>256</ele><time>2020-08-05T12:48:40Z</time><name>PT11854</name></trkpt>
<trkpt lat="53.370380" lon="-1.817211"><ele>256</ele><time>2020-08-05T12:48:40Z</time><name>PT11855</name></trkpt>
<trkpt lat="53.370381" lon="-1.817209"><ele>257</ele><time>2020-08-05T12:48:42Z</time><name>PT11856</name></trkpt>
<trkpt lat="53.370382" lon="-1.817208"><ele>257</ele><time>2020-08-05T12:48:43Z</time><name>PT11857</name></trkpt>
<trkpt lat="53.370381" lon="-1.817207"><ele>257</ele><time>2020-08-05T12:48:43Z</time><name>PT11858</name></trkpt>
<trkpt lat="53.370380" lon="-1.817204"><ele>256</ele><time>2020-08-05T12:48:51Z</time><name>PT11859</name></trkpt>
<trkpt lat="53.370380" lon="-1.817181"><ele>256</ele><time>2020-08-05T12:48:52Z</time><name>PT11860</name></trkpt>
<trkpt lat="53.370376" lon="-1.817169"><ele>257</ele><time>2020-08-05T12:48:52Z</time><name>PT11861</name></trkpt>
<trkpt lat="53.370384" lon="-1.817171"><ele>257</ele><time>2020-08-05T12:48:54Z</time><name>PT11862</name></trkpt>
<trkpt lat="53.370387" lon="-1.817178"><ele>256</ele><time>2020-08-05T12:48:55Z</time><name>PT11863</name></trkpt>
<trkpt lat="53.370391" lon="-1.817187"><ele>256</ele><time>2020-08-05T12:48:55Z</time><name>PT11864</name></trkpt>
<trkpt lat="53.370397" lon="-1.817197"><ele>256</ele><time>2020-08-05T12:48:57Z</time><name>PT11865</name></trkpt>
<trkpt lat="53.370404" lon="-1.817217"><ele>256</ele><time>2020-08-05T12:48:58Z</time><name>PT11866</name></trkpt>
<trkpt lat="53.370405" lon="-1.817232"><ele>255</ele><time>2020-08-05T12:48:58Z</time><name>PT11867</name></trkpt>
<trkpt lat="53.370403" lon="-1.817248"><ele>255</ele><time>2020-08-05T12:49:00Z</time><name>PT11868</name></trkpt>
<trkpt lat="53.370393" lon="-1.817262"><ele>255</ele><time>2020-08-05T12:49:01Z</time><name>PT11869</name></trkpt>
<trkpt lat="53.370392" lon="-1.817270"><ele>254</ele><time>2020-08-05T12:49:01Z</time><name>PT11870</name></trkpt>
<trkpt lat="53.370394" lon="-1.817282"><ele>254</ele><time>2020-08-05T12:49:03Z</time><name>PT11871</name></trkpt>
<trkpt lat="53.370391" lon="-1.817296"><ele>254</ele><time>2020-08-05T12:49:04Z</time><name>PT11872</name></trkpt>
<trkpt lat="53.370390" lon="-1.817313"><ele>254</ele><time>2020-08-05T12:49:04Z</time><name>PT11873</name></trkpt>
<trkpt lat="53.370389" lon="-1.817327"><ele>254</ele><time>2020-08-05T12:49:06Z</time><name>PT11874</name></trkpt>
<trkpt lat="53.370389" lon="-1.817342"><ele>254</ele><time>2020-08-05T12:49:07Z</time><name>PT11875</name></trkpt>
<trkpt lat="53.370390" lon="-1.817362"><ele>254</ele><time>2020-08-05T12:49:07Z</time><name>PT11876</name></trkpt>
<trkpt lat="53.370386" lon="-1.817381"><ele>255</ele><time>2020-08-05T12:49:09Z</time><name>PT11877</name></trkpt>
<trkpt lat="53.370383" lon="-1.817398"><ele>254</ele><time>2020-08-05T12:49:10Z</time><name>PT11878</name></trkpt>
<trkpt lat="53.370380" lon="-1.817412"><ele>254</ele><time>2020-08-05T12:49:10Z</time><name>PT11879</name></trkpt>
<trkpt lat="53.370377" lon="-1.817426"><ele>254</ele><time>2020-08-05T12:49:12Z</time><name>PT11880</name></trkpt>
<trkpt lat="53.370374" lon="-1.817441"><ele>253</ele><time>2020-08-05T12:49:13Z</time><name>PT11881</name></trkpt>
<trkpt lat="53.370368" lon="-1.817455"><ele>253</ele><time>2020-08-05T12:49:13Z</time><name>PT11882</name></trkpt>
<trkpt lat="53.370369" lon="-1.817472"><ele>254</ele><time>2020-08-05T12:49:15Z</time><name>PT11883</name></trkpt>
<trkpt lat="53.370368" lon="-1.817486"><ele>254</ele><time>2020-08-05T12:49:16Z</time><name>PT11884</name></trkpt>
<trkpt lat="53.370369" lon="-1.817502"><ele>254</ele><time>2020-08-05T12:49:16Z</time><name>PT11885</name></trkpt>
<trkpt lat="53.370370" lon="-1.817516"><ele>254</ele><time>2020-08-05T12:49:18Z</time><name>PT11886</name></trkpt>
<trkpt lat="53.370371" lon="-1.817535"><ele>254</ele><time>2020-08-05T12:49:19Z</time><name>PT11887</name></trkpt>
<trkpt lat="53.370378" lon="-1.817557"><ele>254</ele><time>2020-08-05T12:49:19Z</time><name>PT11888</name></trkpt>
<trkpt lat="53.370378" lon="-1.817576"><ele>255</ele><time>2020-08-05T12:49:21Z</time><name>PT11889</name></trkpt>
<trkpt lat="53.370371" lon="-1.817598"><ele>255</ele><time>2020-08-05T12:49:22Z</time><name>PT11890</name></trkpt>
<trkpt lat="53.370369" lon="-1.817613"><ele>255</ele><time>2020-08-05T12:49:22Z</time><name>PT11891</name></trkpt>
<trkpt lat="53.370367" lon="-1.817622"><ele>255</ele><time>2020-08-05T12:49:24Z</time><name>PT11892</name></trkpt>
<trkpt lat="53.370363" lon="-1.817633"><ele>256</ele><time>2020-08-05T12:49:25Z</time><name>PT11893</name></trkpt>
<trkpt lat="53.370362" lon="-1.817643"><ele>257</ele><time>2020-08-05T12:49:25Z</time><name>PT11894</name></trkpt>
<trkpt lat="53.370359" lon="-1.817656"><ele>257</ele><time>2020-08-05T12:49:27Z</time><name>PT11895</name></trkpt>
<trkpt lat="53.370356" lon="-1.817668"><ele>257</ele><time>2020-08-05T12:49:28Z</time><name>PT11896</name></trkpt>
<trkpt lat="53.370354" lon="-1.817677"><ele>258</ele><time>2020-08-05T12:49:28Z</time><name>PT11897</name></trkpt>
<trkpt lat="53.370358" lon="-1.817687"><ele>259</ele><time>2020-08-05T12:49:30Z</time><name>PT11898</name></trkpt>
<trkpt lat="53.370363" lon="-1.817700"><ele>259</ele><time>2020-08-05T12:49:31Z</time><name>PT11899</name></trkpt>
<trkpt lat="53.370363" lon="-1.817705"><ele>258</ele><time>2020-08-05T12:49:31Z</time><name>PT11900</name></trkpt>
<trkpt lat="53.370360" lon="-1.817715"><ele>258</ele><time>2020-08-05T12:49:33Z</time><name>PT11901</name></trkpt>
<trkpt lat="53.370363" lon="-1.817731"><ele>259</ele><time>2020-08-05T12:49:34Z</time><name>PT11902</name></trkpt>
<trkpt lat="53.370368" lon="-1.817750"><ele>259</ele><time>2020-08-05T12:49:34Z</time><name>PT11903</name></trkpt>
<trkpt lat="53.370365" lon="-1.817762"><ele>258</ele><time>2020-08-05T12:49:36Z</time><name>PT11904</name></trkpt>
<trkpt lat="53.370366" lon="-1.817774"><ele>259</ele><time>2020-08-05T12:49:37Z</time><name>PT11905</name></trkpt>
<trkpt lat="53.370367" lon="-1.817782"><ele>259</ele><time>2020-08-05T12:49:37Z</time><name>PT11906</name></trkpt>
<trkpt lat="53.370363" lon="-1.817802"><ele>259</ele><time>2020-08-05T12:49:39Z</time><name>PT11907</name></trkpt>
<trkpt lat="53.370358" lon="-1.817818"><ele>259</ele><time>2020-08-05T12:49:40Z</time><name>PT11908</name></trkpt>
<trkpt lat="53.370359" lon="-1.817837"><ele>259</ele><time>2020-08-05T12:49:40Z</time><name>PT11909</name></trkpt>
<trkpt lat="53.370363" lon="-1.817857"><ele>259</ele><time>2020-08-05T12:49:42Z</time><name>PT11910</name></trkpt>
<trkpt lat="53.370366" lon="-1.817873"><ele>259</ele><time>2020-08-05T12:49:43Z</time><name>PT11911</name></trkpt>
<trkpt lat="53.370369" lon="-1.817889"><ele>259</ele><time>2020-08-05T12:49:43Z</time><name>PT11912</name></trkpt>
<trkpt lat="53.370372" lon="-1.817906"><ele>258</ele><time>2020-08-05T12:49:45Z</time><name>PT11913</name></trkpt>
<trkpt lat="53.370375" lon="-1.817918"><ele>259</ele><time>2020-08-05T12:49:46Z</time><name>PT11914</name></trkpt>
<trkpt lat="53.370378" lon="-1.817927"><ele>259</ele><time>2020-08-05T12:49:46Z</time><name>PT11915</name></trkpt>
<trkpt lat="53.370378" lon="-1.817942"><ele>259</ele><time>2020-08-05T12:49:48Z</time><name>PT11916</name></trkpt>
<trkpt lat="53.370377" lon="-1.817956"><ele>258</ele><time>2020-08-05T12:49:49Z</time><name>PT11917</name></trkpt>
<trkpt lat="53.370377" lon="-1.817970"><ele>258</ele><time>2020-08-05T12:49:49Z</time><name>PT11918</name></trkpt>
<trkpt lat="53.370376" lon="-1.817982"><ele>257</ele><time>2020-08-05T12:49:51Z</time><name>PT11919</name></trkpt>
<trkpt lat="53.370376" lon="-1.817995"><ele>257</ele><time>2020-08-05T12:49:52Z</time><name>PT11920</name></trkpt>
<trkpt lat="53.370377" lon="-1.818003"><ele>255</ele><time>2020-08-05T12:49:52Z</time><name>PT11921</name></trkpt>
<trkpt lat="53.370378" lon="-1.818017"><ele>255</ele><time>2020-08-05T12:49:54Z</time><name>PT11922</name></trkpt>
<trkpt lat="53.370378" lon="-1.818030"><ele>256</ele><time>2020-08-05T12:49:55Z</time><name>PT11923</name></trkpt>
<trkpt lat="53.370378" lon="-1.818043"><ele>256</ele><time>2020-08-05T12:49:55Z</time><name>PT11924</name></trkpt>
<trkpt lat="53.370378" lon="-1.818054"><ele>256</ele><time>2020-08-05T12:49:57Z</time><name>PT11925</name></trkpt>
<trkpt lat="53.370383" lon="-1.818071"><ele>256</ele><time>2020-08-05T12:49:58Z</time><name>PT11926</name></trkpt>
<trkpt lat="53.370383" lon="-1.818085"><ele>256</ele><time>2020-08-05T12:49:58Z</time><name>PT11927</name></trkpt>
<trkpt lat="53.370381" lon="-1.818097"><ele>257</ele><time>2020-08-05T12:50:00Z</time><name>PT11928</name></trkpt>
<trkpt lat="53.370381" lon="-1.818109"><ele>257</ele><time>2020-08-05T12:50:01Z</time><name>PT11929</name></trkpt>
<trkpt lat="53.370377" lon="-1.818122"><ele>256</ele><time>2020-08-05T12:50:01Z</time><name>PT11930</name></trkpt>
<trkpt lat="53.370377" lon="-1.818140"><ele>257</ele><time>2020-08-05T12:50:03Z</time><name>PT11931</name></trkpt>
<trkpt lat="53.370377" lon="-1.818164"><ele>257</ele><time>2020-08-05T12:50:04Z</time><name>PT11932</name></trkpt>
<trkpt lat="53.370374" lon="-1.818189"><ele>256</ele><time>2020-08-05T12:50:04Z</time><name>PT11933</name></trkpt>
<trkpt lat="53.370368" lon="-1.818212"><ele>257</ele><time>2020-08-05T12:50:06Z</time><name>PT11934</name></trkpt>
<trkpt lat="53.370364" lon="-1.818239"><ele>257</ele><time>2020-08-05T12:50:07Z</time><name>PT11935</name></trkpt>
<trkpt lat="53.370363" lon="-1.818257"><ele>256</ele><time>2020-08-05T12:50:07Z</time><name>PT11936</name></trkpt>
<trkpt lat="53.370367" lon="-1.818276"><ele>256</ele><time>2020-08-05T12:50:09Z</time><name>PT11937</name></trkpt>
<trkpt lat="53.370369" lon="-1.818294"><ele>257</ele><time>2020-08-05T12:50:10Z</time><name>PT11938</name></trkpt>
<trkpt lat="53.370369" lon="-1.818307"><ele>256</ele><time>2020-08-05T12:50:11Z</time><name>PT11939</name></trkpt>
<trkpt lat="53.370369" lon="-1.818320"><ele>256</ele><time>2020-08-05T12:50:12Z</time><name>PT11940</name></trkpt>
<trkpt lat="53.370367" lon="-1.818332"><ele>256</ele><time>2020-08-05T12:50:13Z</time><name>PT11941</name></trkpt>
<trkpt lat="53.370361" lon="-1.818351"><ele>255</ele><time>2020-08-05T12:50:13Z</time><name>PT11942</name></trkpt>
<trkpt lat="53.370358" lon="-1.818365"><ele>255</ele><time>2020-08-05T12:50:15Z</time><name>PT11943</name></trkpt>
<trkpt lat="53.370356" lon="-1.818380"><ele>255</ele><time>2020-08-05T12:50:16Z</time><name>PT11944</name></trkpt>
<trkpt lat="53.370354" lon="-1.818395"><ele>255</ele><time>2020-08-05T12:50:17Z</time><name>PT11945</name></trkpt>
<trkpt lat="53.370349" lon="-1.818418"><ele>255</ele><time>2020-08-05T12:50:18Z</time><name>PT11946</name></trkpt>
<trkpt lat="53.370344" lon="-1.818432"><ele>255</ele><time>2020-08-05T12:50:19Z</time><name>PT11947</name></trkpt>
<trkpt lat="53.370347" lon="-1.818442"><ele>255</ele><time>2020-08-05T12:50:20Z</time><name>PT11948</name></trkpt>
<trkpt lat="53.370348" lon="-1.818465"><ele>255</ele><time>2020-08-05T12:50:21Z</time><name>PT11949</name></trkpt>
<trkpt lat="53.370348" lon="-1.818484"><ele>255</ele><time>2020-08-05T12:50:22Z</time><name>PT11950</name></trkpt>
<trkpt lat="53.370348" lon="-1.818495"><ele>255</ele><time>2020-08-05T12:50:23Z</time><name>PT11951</name></trkpt>
<trkpt lat="53.370343" lon="-1.818510"><ele>255</ele><time>2020-08-05T12:50:24Z</time><name>PT11952</name></trkpt>
<trkpt lat="53.370342" lon="-1.818521"><ele>255</ele><time>2020-08-05T12:50:25Z</time><name>PT11953</name></trkpt>
<trkpt lat="53.370341" lon="-1.818527"><ele>256</ele><time>2020-08-05T12:50:26Z</time><name>PT11954</name></trkpt>
<trkpt lat="53.370342" lon="-1.818532"><ele>256</ele><time>2020-08-05T12:50:27Z</time><name>PT11955</name></trkpt>
<trkpt lat="53.370343" lon="-1.818537"><ele>255</ele><time>2020-08-05T12:50:28Z</time><name>PT11956</name></trkpt>
<trkpt lat="53.370343" lon="-1.818545"><ele>255</ele><time>2020-08-05T12:50:28Z</time><name>PT11957</name></trkpt>
<trkpt lat="53.370346" lon="-1.818549"><ele>255</ele><time>2020-08-05T12:50:30Z</time><name>PT11958</name></trkpt>
<trkpt lat="53.370348" lon="-1.818557"><ele>255</ele><time>2020-08-05T12:50:31Z</time><name>PT11959</name></trkpt>
<trkpt lat="53.370346" lon="-1.818569"><ele>256</ele><time>2020-08-05T12:50:32Z</time><name>PT11960</name></trkpt>
<trkpt lat="53.370342" lon="-1.818575"><ele>257</ele><time>2020-08-05T12:50:33Z</time><name>PT11961</name></trkpt>
<trkpt lat="53.370333" lon="-1.818590"><ele>256</ele><time>2020-08-05T12:50:34Z</time><name>PT11962</name></trkpt>
<trkpt lat="53.370329" lon="-1.818601"><ele>257</ele><time>2020-08-05T12:50:34Z</time><name>PT11963</name></trkpt>
<trkpt lat="53.370326" lon="-1.818613"><ele>256</ele><time>2020-08-05T12:50:43Z</time><name>PT11964</name></trkpt>
<trkpt lat="53.370321" lon="-1.818613"><ele>256</ele><time>2020-08-05T12:50:45Z</time><name>PT11965</name></trkpt>
<trkpt lat="53.370316" lon="-1.818615"><ele>256</ele><time>2020-08-05T12:50:46Z</time><name>PT11966</name></trkpt>
<trkpt lat="53.370312" lon="-1.818611"><ele>256</ele><time>2020-08-05T12:50:46Z</time><name>PT11967</name></trkpt>
<trkpt lat="53.370308" lon="-1.818609"><ele>256</ele><time>2020-08-05T12:50:48Z</time><name>PT11968</name></trkpt>
<trkpt lat="53.370303" lon="-1.818602"><ele>256</ele><time>2020-08-05T12:50:49Z</time><name>PT11969</name></trkpt>
<trkpt lat="53.370301" lon="-1.818600"><ele>256</ele><time>2020-08-05T12:50:49Z</time><name>PT11970</name></trkpt>
<trkpt lat="53.370300" lon="-1.818600"><ele>257</ele><time>2020-08-05T12:50:51Z</time><name>PT11971</name></trkpt>
<trkpt lat="53.370299" lon="-1.818600"><ele>257</ele><time>2020-08-05T12:50:52Z</time><name>PT11972</name></trkpt>
<trkpt lat="53.370299" lon="-1.818602"><ele>257</ele><time>2020-08-05T12:50:52Z</time><name>PT11973</name></trkpt>
<trkpt lat="53.370302" lon="-1.818610"><ele>257</ele><time>2020-08-05T12:50:54Z</time><name>PT11974</name></trkpt>
<trkpt lat="53.370301" lon="-1.818617"><ele>259</ele><time>2020-08-05T12:50:55Z</time><name>PT11975</name></trkpt>
<trkpt lat="53.370301" lon="-1.818617"><ele>259</ele><time>2020-08-05T12:50:55Z</time><name>PT11976</name></trkpt>
<trkpt lat="53.370300" lon="-1.818619"><ele>258</ele><time>2020-08-05T12:50:57Z</time><name>PT11977</name></trkpt>
<trkpt lat="53.370297" lon="-1.818622"><ele>259</ele><time>2020-08-05T12:50:58Z</time><name>PT11978</name></trkpt>
<trkpt lat="53.370297" lon="-1.818624"><ele>259</ele><time>2020-08-05T12:50:58Z</time><name>PT11979</name></trkpt>
<trkpt lat="53.370299" lon="-1.818627"><ele>260</ele><time>2020-08-05T12:51:00Z</time><name>PT11980</name></trkpt>
<trkpt lat="53.370303" lon="-1.818632"><ele>260</ele><time>2020-08-05T12:51:01Z</time><name>PT11981</name></trkpt>
<trkpt lat="53.370306" lon="-1.818635"><ele>261</ele><time>2020-08-05T12:51:01Z</time><name>PT11982</name></trkpt>
<trkpt lat="53.370307" lon="-1.818632"><ele>261</ele><time>2020-08-05T12:51:03Z</time><name>PT11983</name></trkpt>
<trkpt lat="53.370310" lon="-1.818629"><ele>262</ele><time>2020-08-05T12:51:04Z</time><name>PT11984</name></trkpt>
<trkpt lat="53.370310" lon="-1.818629"><ele>261</ele><time>2020-08-05T12:51:04Z</time><name>PT11985</name></trkpt>
<trkpt lat="53.370311" lon="-1.818625"><ele>262</ele><time>2020-08-05T12:51:06Z</time><name>PT11986</name></trkpt>
<trkpt lat="53.370310" lon="-1.818623"><ele>263</ele><time>2020-08-05T12:51:07Z</time><name>PT11987</name></trkpt>
<trkpt lat="53.370310" lon="-1.818615"><ele>263</ele><time>2020-08-05T12:51:07Z</time><name>PT11988</name></trkpt>
<trkpt lat="53.370317" lon="-1.818615"><ele>265</ele><time>2020-08-05T12:51:09Z</time><name>PT11989</name></trkpt>
<trkpt lat="53.370321" lon="-1.818618"><ele>266</ele><time>2020-08-05T12:51:10Z</time><name>PT11990</name></trkpt>
<trkpt lat="53.370323" lon="-1.818621"><ele>266</ele><time>2020-08-05T12:51:10Z</time><name>PT11991</name></trkpt>
<trkpt lat="53.370324" lon="-1.818620"><ele>267</ele><time>2020-08-05T12:51:12Z</time><name>PT11992</name></trkpt>
<trkpt lat="53.370325" lon="-1.818618"><ele>267</ele><time>2020-08-05T12:51:13Z</time><name>PT11993</name></trkpt>
<trkpt lat="53.370324" lon="-1.818619"><ele>267</ele><time>2020-08-05T12:51:13Z</time><name>PT11994</name></trkpt>
<trkpt lat="53.370326" lon="-1.818634"><ele>268</ele><time>2020-08-05T12:51:19Z</time><name>PT11995</name></trkpt>
<trkpt lat="53.370323" lon="-1.818635"><ele>268</ele><time>2020-08-05T12:51:21Z</time><name>PT11996</name></trkpt>
<trkpt lat="53.370318" lon="-1.818638"><ele>268</ele><time>2020-08-05T12:51:22Z</time><name>PT11997</name></trkpt>
<trkpt lat="53.370316" lon="-1.818643"><ele>267</ele><time>2020-08-05T12:51:22Z</time><name>PT11998</name></trkpt>
<trkpt lat="53.370312" lon="-1.818645"><ele>267</ele><time>2020-08-05T12:51:24Z</time><name>PT11999</name></trkpt>
<trkpt lat="53.370310" lon="-1.818648"><ele>267</ele><time>2020-08-05T12:51:25Z</time><name>PT12000</name></trkpt>
<trkpt lat="53.370309" lon="-1.818653"><ele>267</ele><time>2020-08-05T12:51:25Z</time><name>PT12001</name></trkpt>
<trkpt lat="53.370307" lon="-1.818656"><ele>267</ele><time>2020-08-05T12:51:27Z</time><name>PT12002</name></trkpt>
<trkpt lat="53.370310" lon="-1.818656"><ele>267</ele><time>2020-08-05T12:51:28Z</time><name>PT12003</name></trkpt>
<trkpt lat="53.370310" lon="-1.818661"><ele>267</ele><time>2020-08-05T12:51:28Z</time><name>PT12004</name></trkpt>
<trkpt lat="53.370310" lon="-1.818665"><ele>266</ele><time>2020-08-05T12:51:30Z</time><name>PT12005</name></trkpt>
<trkpt lat="53.370304" lon="-1.818655"><ele>266</ele><time>2020-08-05T12:51:31Z</time><name>PT12006</name></trkpt>
<trkpt lat="53.370301" lon="-1.818661"><ele>266</ele><time>2020-08-05T12:51:31Z</time><name>PT12007</name></trkpt>
<trkpt lat="53.370299" lon="-1.818661"><ele>266</ele><time>2020-08-05T12:51:33Z</time><name>PT12008</name></trkpt>
<trkpt lat="53.370297" lon="-1.818655"><ele>266</ele><time>2020-08-05T12:51:34Z</time><name>PT12009</name></trkpt>
<trkpt lat="53.370305" lon="-1.818654"><ele>267</ele><time>2020-08-05T12:51:34Z</time><name>PT12010</name></trkpt>
<trkpt lat="53.370307" lon="-1.818658"><ele>267</ele><time>2020-08-05T12:51:36Z</time><name>PT12011</name></trkpt>
<trkpt lat="53.370309" lon="-1.818673"><ele>267</ele><time>2020-08-05T12:51:37Z</time><name>PT12012</name></trkpt>
<trkpt lat="53.370313" lon="-1.818683"><ele>267</ele><time>2020-08-05T12:51:37Z</time><name>PT12013</name></trkpt>
<trkpt lat="53.370311" lon="-1.818689"><ele>266</ele><time>2020-08-05T12:51:39Z</time><name>PT12014</name></trkpt>
<trkpt lat="53.370319" lon="-1.818686"><ele>267</ele><time>2020-08-05T12:51:40Z</time><name>PT12015</name></trkpt>
<trkpt lat="53.370327" lon="-1.818676"><ele>267</ele><time>2020-08-05T12:51:40Z</time><name>PT12016</name></trkpt>
<trkpt lat="53.370336" lon="-1.818674"><ele>267</ele><time>2020-08-05T12:51:42Z</time><name>PT12017</name></trkpt>
<trkpt lat="53.370338" lon="-1.818670"><ele>268</ele><time>2020-08-05T12:51:43Z</time><name>PT12018</name></trkpt>
<trkpt lat="53.370347" lon="-1.818681"><ele>269</ele><time>2020-08-05T12:51:43Z</time><name>PT12019</name></trkpt>
<trkpt lat="53.370349" lon="-1.818687"><ele>269</ele><time>2020-08-05T12:51:45Z</time><name>PT12020</name></trkpt>
<trkpt lat="53.370344" lon="-1.818692"><ele>269</ele><time>2020-08-05T12:51:46Z</time><name>PT12021</name></trkpt>
<trkpt lat="53.370344" lon="-1.818698"><ele>269</ele><time>2020-08-05T12:51:46Z</time><name>PT12022</name></trkpt>
<trkpt lat="53.370351" lon="-1.818696"><ele>271</ele><time>2020-08-05T12:51:48Z</time><name>PT12023</name></trkpt>
<trkpt lat="53.370356" lon="-1.818697"><ele>271</ele><time>2020-08-05T12:51:49Z</time><name>PT12024</name></trkpt>
<trkpt lat="53.370361" lon="-1.818713"><ele>271</ele><time>2020-08-05T12:51:49Z</time><name>PT12025</name></trkpt>
<trkpt lat="53.370365" lon="-1.818709"><ele>271</ele><time>2020-08-05T12:51:51Z</time><name>PT12026</name></trkpt>
<trkpt lat="53.370366" lon="-1.818702"><ele>272</ele><time>2020-08-05T12:51:52Z</time><name>PT12027</name></trkpt>
<trkpt lat="53.370365" lon="-1.818690"><ele>271</ele><time>2020-08-05T12:51:52Z</time><name>PT12028</name></trkpt>
<trkpt lat="53.370362" lon="-1.818682"><ele>271</ele><time>2020-08-05T12:51:54Z</time><name>PT12029</name></trkpt>
<trkpt lat="53.370356" lon="-1.818670"><ele>271</ele><time>2020-08-05T12:51:55Z</time><name>PT12030</name></trkpt>
<trkpt lat="53.370351" lon="-1.818665"><ele>272</ele><time>2020-08-05T12:51:55Z</time><name>PT12031</name></trkpt>
<trkpt lat="53.370350" lon="-1.818665"><ele>272</ele><time>2020-08-05T12:51:57Z</time><name>PT12032</name></trkpt>
<trkpt lat="53.370350" lon="-1.818668"><ele>273</ele><time>2020-08-05T12:51:58Z</time><name>PT12033</name></trkpt>
<trkpt lat="53.370350" lon="-1.818678"><ele>273</ele><time>2020-08-05T12:51:58Z</time><name>PT12034</name></trkpt>
<trkpt lat="53.370349" lon="-1.818678"><ele>273</ele><time>2020-08-05T12:52:00Z</time><name>PT12035</name></trkpt>
<trkpt lat="53.370343" lon="-1.818679"><ele>272</ele><time>2020-08-05T12:52:01Z</time><name>PT12036</name></trkpt>
<trkpt lat="53.370338" lon="-1.818679"><ele>271</ele><time>2020-08-05T12:52:01Z</time><name>PT12037</name></trkpt>
<trkpt lat="53.370335" lon="-1.818675"><ele>271</ele><time>2020-08-05T12:52:03Z</time><name>PT12038</name></trkpt>
<trkpt lat="53.370344" lon="-1.818679"><ele>272</ele><time>2020-08-05T12:52:04Z</time><name>PT12039</name></trkpt>
<trkpt lat="53.370341" lon="-1.818685"><ele>271</ele><time>2020-08-05T12:52:04Z</time><name>PT12040</name></trkpt>
<trkpt lat="53.370338" lon="-1.818685"><ele>271</ele><time>2020-08-05T12:52:06Z</time><name>PT12041</name></trkpt>
<trkpt lat="53.370339" lon="-1.818688"><ele>271</ele><time>2020-08-05T12:52:07Z</time><name>PT12042</name></trkpt>
<trkpt lat="53.370342" lon="-1.818685"><ele>273</ele><time>2020-08-05T12:52:07Z</time><name>PT12043</name></trkpt>
<trkpt lat="53.370345" lon="-1.818679"><ele>273</ele><time>2020-08-05T12:52:09Z</time><name>PT12044</name></trkpt>
<trkpt lat="53.370343" lon="-1.818679"><ele>274</ele><time>2020-08-05T12:52:10Z</time><name>PT12045</name></trkpt>
<trkpt lat="53.370341" lon="-1.818685"><ele>273</ele><time>2020-08-05T12:52:10Z</time><name>PT12046</name></trkpt>
<trkpt lat="53.370340" lon="-1.818687"><ele>273</ele><time>2020-08-05T12:52:12Z</time><name>PT12047</name></trkpt>
<trkpt lat="53.370344" lon="-1.818685"><ele>272</ele><time>2020-08-05T12:52:13Z</time><name>PT12048</name></trkpt>
<trkpt lat="53.370339" lon="-1.818681"><ele>272</ele><time>2020-08-05T12:52:13Z</time><name>PT12049</name></trkpt>
<trkpt lat="53.370336" lon="-1.818678"><ele>272</ele><time>2020-08-05T12:52:15Z</time><name>PT12050</name></trkpt>
<trkpt lat="53.370332" lon="-1.818675"><ele>272</ele><time>2020-08-05T12:52:16Z</time><name>PT12051</name></trkpt>
<trkpt lat="53.370333" lon="-1.818688"><ele>272</ele><time>2020-08-05T12:52:19Z</time><name>PT12052</name></trkpt>
<trkpt lat="53.370332" lon="-1.818697"><ele>272</ele><time>2020-08-05T12:52:19Z</time><name>PT12053</name></trkpt>
<trkpt lat="53.370333" lon="-1.818697"><ele>272</ele><time>2020-08-05T12:52:21Z</time><name>PT12054</name></trkpt>
<trkpt lat="53.370331" lon="-1.818699"><ele>272</ele><time>2020-08-05T12:52:22Z</time><name>PT12055</name></trkpt>
<trkpt lat="53.370327" lon="-1.818701"><ele>271</ele><time>2020-08-05T12:52:22Z</time><name>PT12056</name></trkpt>
<trkpt lat="53.370318" lon="-1.818702"><ele>271</ele><time>2020-08-05T12:52:24Z</time><name>PT12057</name></trkpt>
<trkpt lat="53.370315" lon="-1.818698"><ele>270</ele><time>2020-08-05T12:52:25Z</time><name>PT12058</name></trkpt>
<trkpt lat="53.370313" lon="-1.818702"><ele>269</ele><time>2020-08-05T12:52:25Z</time><name>PT12059</name></trkpt>
<trkpt lat="53.370314" lon="-1.818700"><ele>269</ele><time>2020-08-05T12:52:27Z</time><name>PT12060</name></trkpt>
<trkpt lat="53.370315" lon="-1.818706"><ele>267</ele><time>2020-08-05T12:52:42Z</time><name>PT12061</name></trkpt>
<trkpt lat="53.370314" lon="-1.818711"><ele>267</ele><time>2020-08-05T12:52:43Z</time><name>PT12062</name></trkpt>
<trkpt lat="53.370311" lon="-1.818709"><ele>266</ele><time>2020-08-05T12:52:43Z</time><name>PT12063</name></trkpt>
<trkpt lat="53.370309" lon="-1.818707"><ele>266</ele><time>2020-08-05T12:52:45Z</time><name>PT12064</name></trkpt>
<trkpt lat="53.370306" lon="-1.818708"><ele>266</ele><time>2020-08-05T12:52:46Z</time><name>PT12065</name></trkpt>
<trkpt lat="53.370303" lon="-1.818709"><ele>265</ele><time>2020-08-05T12:52:46Z</time><name>PT12066</name></trkpt>
<trkpt lat="53.370303" lon="-1.818709"><ele>264</ele><time>2020-08-05T12:52:48Z</time><name>PT12067</name></trkpt>
<trkpt lat="53.370301" lon="-1.818711"><ele>264</ele><time>2020-08-05T12:52:49Z</time><name>PT12068</name></trkpt>
<trkpt lat="53.370301" lon="-1.818717"><ele>264</ele><time>2020-08-05T12:52:49Z</time><name>PT12069</name></trkpt>
<trkpt lat="53.370300" lon="-1.818715"><ele>263</ele><time>2020-08-05T12:52:51Z</time><name>PT12070</name></trkpt>
<trkpt lat="53.370299" lon="-1.818713"><ele>263</ele><time>2020-08-05T12:52:52Z</time><name>PT12071</name></trkpt>
<trkpt lat="53.370295" lon="-1.818716"><ele>262</ele><time>2020-08-05T12:52:52Z</time><name>PT12072</name></trkpt>
<trkpt lat="53.370293" lon="-1.818718"><ele>261</ele><time>2020-08-05T12:52:54Z</time><name>PT12073</name></trkpt>
<trkpt lat="53.370290" lon="-1.818718"><ele>261</ele><time>2020-08-05T12:52:55Z</time><name>PT12074</name></trkpt>
<trkpt lat="53.370285" lon="-1.818715"><ele>260</ele><time>2020-08-05T12:52:55Z</time><name>PT12075</name></trkpt>
<trkpt lat="53.370282" lon="-1.818712"><ele>259</ele><time>2020-08-05T12:52:57Z</time><name>PT12076</name></trkpt>
<trkpt lat="53.370280" lon="-1.818715"><ele>259</ele><time>2020-08-05T12:52:58Z</time><name>PT12077</name></trkpt>
<trkpt lat="53.370280" lon="-1.818715"><ele>259</ele><time>2020-08-05T12:52:58Z</time><name>PT12078</name></trkpt>
<trkpt lat="53.370283" lon="-1.818715"><ele>259</ele><time>2020-08-05T12:53:00Z</time><name>PT12079</name></trkpt>
<trkpt lat="53.370285" lon="-1.818719"><ele>259</ele><time>2020-08-05T12:53:01Z</time><name>PT12080</name></trkpt>
<trkpt lat="53.370287" lon="-1.818715"><ele>258</ele><time>2020-08-05T12:53:24Z</time><name>PT12081</name></trkpt>
<trkpt lat="53.370287" lon="-1.818720"><ele>258</ele><time>2020-08-05T12:53:25Z</time><name>PT12082</name></trkpt>
<trkpt lat="53.370291" lon="-1.818725"><ele>257</ele><time>2020-08-05T12:53:25Z</time><name>PT12083</name></trkpt>
<trkpt lat="53.370300" lon="-1.818732"><ele>257</ele><time>2020-08-05T12:53:27Z</time><name>PT12084</name></trkpt>
<trkpt lat="53.370310" lon="-1.818743"><ele>257</ele><time>2020-08-05T12:53:28Z</time><name>PT12085</name></trkpt>
<trkpt lat="53.370310" lon="-1.818749"><ele>256</ele><time>2020-08-05T12:53:28Z</time><name>PT12086</name></trkpt>
<trkpt lat="53.370308" lon="-1.818742"><ele>256</ele><time>2020-08-05T12:53:30Z</time><name>PT12087</name></trkpt>
<trkpt lat="53.370316" lon="-1.818749"><ele>256</ele><time>2020-08-05T12:53:31Z</time><name>PT12088</name></trkpt>
<trkpt lat="53.370332" lon="-1.818736"><ele>256</ele><time>2020-08-05T12:53:31Z</time><name>PT12089</name></trkpt>
<trkpt lat="53.370341" lon="-1.818726"><ele>256</ele><time>2020-08-05T12:53:33Z</time><name>PT12090</name></trkpt>
<trkpt lat="53.370352" lon="-1.818723"><ele>256</ele><time>2020-08-05T12:53:34Z</time><name>PT12091</name></trkpt>
<trkpt lat="53.370381" lon="-1.818686"><ele>256</ele><time>2020-08-05T12:53:34Z</time><name>PT12092</name></trkpt>
<trkpt lat="53.370393" lon="-1.818666"><ele>256</ele><time>2020-08-05T12:53:36Z</time><name>PT12093</name></trkpt>
<trkpt lat="53.370397" lon="-1.818655"><ele>255</ele><time>2020-08-05T12:53:37Z</time><name>PT12094</name></trkpt>
<trkpt lat="53.370428" lon="-1.818624"><ele>255</ele><time>2020-08-05T12:53:37Z</time><name>PT12095</name></trkpt>
<trkpt lat="53.370437" lon="-1.818605"><ele>254</ele><time>2020-08-05T12:53:39Z</time><name>PT12096</name></trkpt>
<trkpt lat="53.370443" lon="-1.818597"><ele>254</ele><time>2020-08-05T12:53:40Z</time><name>PT12097</name></trkpt>
<trkpt lat="53.370440" lon="-1.818619"><ele>255</ele><time>2020-08-05T12:53:40Z</time><name>PT12098</name></trkpt>
<trkpt lat="53.370445" lon="-1.818593"><ele>254</ele><time>2020-08-05T12:53:42Z</time><name>PT12099</name></trkpt>
<trkpt lat="53.370460" lon="-1.818580"><ele>255</ele><time>2020-08-05T12:53:43Z</time><name>PT12100</name></trkpt>
<trkpt lat="53.370438" lon="-1.818602"><ele>256</ele><time>2020-08-05T12:53:43Z</time><name>PT12101</name></trkpt>
<trkpt lat="53.370436" lon="-1.818592"><ele>256</ele><time>2020-08-05T12:53:45Z</time><name>PT12102</name></trkpt>
<trkpt lat="53.370429" lon="-1.818592"><ele>258</ele><time>2020-08-05T12:53:46Z</time><name>PT12103</name></trkpt>
<trkpt lat="53.370382" lon="-1.818658"><ele>261</ele><time>2020-08-05T12:53:46Z</time><name>PT12104</name></trkpt>
<trkpt lat="53.370374" lon="-1.818655"><ele>262</ele><time>2020-08-05T12:53:48Z</time><name>PT12105</name></trkpt>
<trkpt lat="53.370371" lon="-1.818660"><ele>262</ele><time>2020-08-05T12:53:49Z</time><name>PT12106</name></trkpt>
<trkpt lat="53.370370" lon="-1.818674"><ele>263</ele><time>2020-08-05T12:53:49Z</time><name>PT12107</name></trkpt>
<trkpt lat="53.370399" lon="-1.818654"><ele>263</ele><time>2020-08-05T12:53:51Z</time><name>PT12108</name></trkpt>
<trkpt lat="53.370400" lon="-1.818655"><ele>263</ele><time>2020-08-05T12:53:52Z</time><name>PT12109</name></trkpt>
<trkpt lat="53.370380" lon="-1.818666"><ele>262</ele><time>2020-08-05T12:53:52Z</time><name>PT12110</name></trkpt>
<trkpt lat="53.370363" lon="-1.818677"><ele>262</ele><time>2020-08-05T12:53:54Z</time><name>PT12111</name></trkpt>
<trkpt lat="53.370350" lon="-1.818677"><ele>259</ele><time>2020-08-05T12:53:55Z</time><name>PT12112</name></trkpt>
<trkpt lat="53.370335" lon="-1.818676"><ele>256</ele><time>2020-08-05T12:53:55Z</time><name>PT12113</name></trkpt>
<trkpt lat="53.370323" lon="-1.818680"><ele>255</ele><time>2020-08-05T12:53:57Z</time><name>PT12114</name></trkpt>
<trkpt lat="53.370322" lon="-1.818680"><ele>255</ele><time>2020-08-05T12:53:58Z</time><name>PT12115</name></trkpt>
<trkpt lat="53.370329" lon="-1.818689"><ele>258</ele><time>2020-08-05T12:55:55Z</time><name>PT12116</name></trkpt>
<trkpt lat="53.370327" lon="-1.818689"><ele>258</ele><time>2020-08-05T12:55:55Z</time><name>PT12117</name></trkpt>
<trkpt lat="53.370324" lon="-1.818689"><ele>258</ele><time>2020-08-05T12:55:57Z</time><name>PT12118</name></trkpt>
<trkpt lat="53.370319" lon="-1.818691"><ele>258</ele><time>2020-08-05T12:55:58Z</time><name>PT12119</name></trkpt>
<trkpt lat="53.370315" lon="-1.818693"><ele>258</ele><time>2020-08-05T12:55:58Z</time><name>PT12120</name></trkpt>
<trkpt lat="53.370309" lon="-1.818698"><ele>258</ele><time>2020-08-05T12:56:00Z</time><name>PT12121</name></trkpt>
<trkpt lat="53.370303" lon="-1.818703"><ele>258</ele><time>2020-08-05T12:56:01Z</time><name>PT12122</name></trkpt>
<trkpt lat="53.370296" lon="-1.818708"><ele>257</ele><time>2020-08-05T12:56:01Z</time><name>PT12123</name></trkpt>
<trkpt lat="53.370293" lon="-1.818711"><ele>257</ele><time>2020-08-05T12:56:03Z</time><name>PT12124</name></trkpt>
<trkpt lat="53.370291" lon="-1.818711"><ele>257</ele><time>2020-08-05T12:56:04Z</time><name>PT12125</name></trkpt>
<trkpt lat="53.370290" lon="-1.818714"><ele>257</ele><time>2020-08-05T12:56:04Z</time><name>PT12126</name></trkpt>
<trkpt lat="53.370286" lon="-1.818714"><ele>257</ele><time>2020-08-05T12:56:06Z</time><name>PT12127</name></trkpt>
<trkpt lat="53.370284" lon="-1.818714"><ele>256</ele><time>2020-08-05T12:56:07Z</time><name>PT12128</name></trkpt>
<trkpt lat="53.370289" lon="-1.818713"><ele>257</ele><time>2020-08-05T12:56:10Z</time><name>PT12129</name></trkpt>
<trkpt lat="53.370293" lon="-1.818710"><ele>257</ele><time>2020-08-05T12:56:10Z</time><name>PT12130</name></trkpt>
<trkpt lat="53.370296" lon="-1.818709"><ele>257</ele><time>2020-08-05T12:56:12Z</time><name>PT12131</name></trkpt>
<trkpt lat="53.370299" lon="-1.818708"><ele>258</ele><time>2020-08-05T12:56:13Z</time><name>PT12132</name></trkpt>
<trkpt lat="53.370302" lon="-1.818698"><ele>258</ele><time>2020-08-05T12:56:16Z</time><name>PT12133</name></trkpt>
<trkpt lat="53.370303" lon="-1.818699"><ele>258</ele><time>2020-08-05T12:56:16Z</time><name>PT12134</name></trkpt>
<trkpt lat="53.370301" lon="-1.818696"><ele>258</ele><time>2020-08-05T12:56:18Z</time><name>PT12135</name></trkpt>
<trkpt lat="53.370296" lon="-1.818686"><ele>258</ele><time>2020-08-05T12:56:19Z</time><name>PT12136</name></trkpt>
<trkpt lat="53.370288" lon="-1.818688"><ele>257</ele><time>2020-08-05T12:56:19Z</time><name>PT12137</name></trkpt>
<trkpt lat="53.370283" lon="-1.818678"><ele>257</ele><time>2020-08-05T12:56:21Z</time><name>PT12138</name></trkpt>
<trkpt lat="53.370295" lon="-1.818661"><ele>257</ele><time>2020-08-05T12:56:22Z</time><name>PT12139</name></trkpt>
<trkpt lat="53.370302" lon="-1.818665"><ele>257</ele><time>2020-08-05T12:56:22Z</time><name>PT12140</name></trkpt>
<trkpt lat="53.370298" lon="-1.818675"><ele>257</ele><time>2020-08-05T12:56:24Z</time><name>PT12141</name></trkpt>
<trkpt lat="53.370296" lon="-1.818677"><ele>258</ele><time>2020-08-05T12:56:25Z</time><name>PT12142</name></trkpt>
<trkpt lat="53.370307" lon="-1.818680"><ele>258</ele><time>2020-08-05T12:56:25Z</time><name>PT12143</name></trkpt>
<trkpt lat="53.370305" lon="-1.818681"><ele>257</ele><time>2020-08-05T12:56:27Z</time><name>PT12144</name></trkpt>
<trkpt lat="53.370294" lon="-1.818688"><ele>259</ele><time>2020-08-05T12:56:28Z</time><name>PT12145</name></trkpt>
<trkpt lat="53.370288" lon="-1.818691"><ele>258</ele><time>2020-08-05T12:56:28Z</time><name>PT12146</name></trkpt>
<trkpt lat="53.370283" lon="-1.818691"><ele>258</ele><time>2020-08-05T12:56:30Z</time><name>PT12147</name></trkpt>
<trkpt lat="53.370280" lon="-1.818693"><ele>256</ele><time>2020-08-05T12:56:31Z</time><name>PT12148</name></trkpt>
<trkpt lat="53.370281" lon="-1.818701"><ele>256</ele><time>2020-08-05T12:56:31Z</time><name>PT12149</name></trkpt>
<trkpt lat="53.370278" lon="-1.818703"><ele>256</ele><time>2020-08-05T12:56:33Z</time><name>PT12150</name></trkpt>
<trkpt lat="53.370278" lon="-1.818701"><ele>256</ele><time>2020-08-05T12:56:34Z</time><name>PT12151</name></trkpt>
<trkpt lat="53.370282" lon="-1.818705"><ele>256</ele><time>2020-08-05T12:56:34Z</time><name>PT12152</name></trkpt>
<trkpt lat="53.370281" lon="-1.818714"><ele>256</ele><time>2020-08-05T12:56:36Z</time><name>PT12153</name></trkpt>
<trkpt lat="53.370282" lon="-1.818718"><ele>258</ele><time>2020-08-05T12:56:37Z</time><name>PT12154</name></trkpt>
<trkpt lat="53.370282" lon="-1.818721"><ele>258</ele><time>2020-08-05T12:56:37Z</time><name>PT12155</name></trkpt>
<trkpt lat="53.370281" lon="-1.818730"><ele>258</ele><time>2020-08-05T12:56:39Z</time><name>PT12156</name></trkpt>
<trkpt lat="53.370271" lon="-1.818745"><ele>259</ele><time>2020-08-05T12:56:40Z</time><name>PT12157</name></trkpt>
<trkpt lat="53.370265" lon="-1.818762"><ele>259</ele><time>2020-08-05T12:56:40Z</time><name>PT12158</name></trkpt>
<trkpt lat="53.370279" lon="-1.818764"><ele>260</ele><time>2020-08-05T12:56:42Z</time><name>PT12159</name></trkpt>
<trkpt lat="53.370273" lon="-1.818772"><ele>260</ele><time>2020-08-05T12:56:43Z</time><name>PT12160</name></trkpt>
<trkpt lat="53.370266" lon="-1.818786"><ele>261</ele><time>2020-08-05T12:56:43Z</time><name>PT12161</name></trkpt>
<trkpt lat="53.370268" lon="-1.818788"><ele>261</ele><time>2020-08-05T12:56:45Z</time><name>PT12162</name></trkpt>
<trkpt lat="53.370268" lon="-1.818802"><ele>262</ele><time>2020-08-05T12:56:46Z</time><name>PT12163</name></trkpt>
<trkpt lat="53.370270" lon="-1.818807"><ele>264</ele><time>2020-08-05T12:56:48Z</time><name>PT12164</name></trkpt>
<trkpt lat="53.370274" lon="-1.818817"><ele>265</ele><time>2020-08-05T12:56:49Z</time><name>PT12165</name></trkpt>
<trkpt lat="53.370279" lon="-1.818827"><ele>266</ele><time>2020-08-05T12:56:49Z</time><name>PT12166</name></trkpt>
<trkpt lat="53.370281" lon="-1.818827"><ele>266</ele><time>2020-08-05T12:56:51Z</time><name>PT12167</name></trkpt>
<trkpt lat="53.370290" lon="-1.818822"><ele>267</ele><time>2020-08-05T12:56:52Z</time><name>PT12168</name></trkpt>
<trkpt lat="53.370286" lon="-1.818810"><ele>266</ele><time>2020-08-05T12:56:52Z</time><name>PT12169</name></trkpt>
<trkpt lat="53.370289" lon="-1.818803"><ele>266</ele><time>2020-08-05T12:56:54Z</time><name>PT12170</name></trkpt>
<trkpt lat="53.370288" lon="-1.818786"><ele>266</ele><time>2020-08-05T12:56:55Z</time><name>PT12171</name></trkpt>
<trkpt lat="53.370267" lon="-1.818784"><ele>265</ele><time>2020-08-05T12:56:55Z</time><name>PT12172</name></trkpt>
<trkpt lat="53.370262" lon="-1.818781"><ele>264</ele><time>2020-08-05T12:56:57Z</time><name>PT12173</name></trkpt>
<trkpt lat="53.370264" lon="-1.818780"><ele>265</ele><time>2020-08-05T12:56:58Z</time><name>PT12174</name></trkpt>
<trkpt lat="53.370265" lon="-1.818777"><ele>264</ele><time>2020-08-05T12:57:03Z</time><name>PT12175</name></trkpt>
<trkpt lat="53.370270" lon="-1.818788"><ele>264</ele><time>2020-08-05T12:57:04Z</time><name>PT12176</name></trkpt>
<trkpt lat="53.370252" lon="-1.818794"><ele>263</ele><time>2020-08-05T12:57:04Z</time><name>PT12177</name></trkpt>
<trkpt lat="53.370255" lon="-1.818798"><ele>262</ele><time>2020-08-05T12:57:06Z</time><name>PT12178</name></trkpt>
<trkpt lat="53.370253" lon="-1.818806"><ele>262</ele><time>2020-08-05T12:57:07Z</time><name>PT12179</name></trkpt>
<trkpt lat="53.370258" lon="-1.818804"><ele>262</ele><time>2020-08-05T12:57:07Z</time><name>PT12180</name></trkpt>
<trkpt lat="53.370260" lon="-1.818805"><ele>260</ele><time>2020-08-05T12:57:22Z</time><name>PT12181</name></trkpt>
<trkpt lat="53.370256" lon="-1.818792"><ele>259</ele><time>2020-08-05T12:57:24Z</time><name>PT12182</name></trkpt>
<trkpt lat="53.370255" lon="-1.818784"><ele>258</ele><time>2020-08-05T12:57:25Z</time><name>PT12183</name></trkpt>
<trkpt lat="53.370253" lon="-1.818780"><ele>258</ele><time>2020-08-05T12:57:25Z</time><name>PT12184</name></trkpt>
<trkpt lat="53.370244" lon="-1.818782"><ele>257</ele><time>2020-08-05T12:57:27Z</time><name>PT12185</name></trkpt>
<trkpt lat="53.370246" lon="-1.818783"><ele>257</ele><time>2020-08-05T12:57:28Z</time><name>PT12186</name></trkpt>
<trkpt lat="53.370246" lon="-1.818792"><ele>256</ele><time>2020-08-05T12:57:28Z</time><name>PT12187</name></trkpt>
<trkpt lat="53.370246" lon="-1.818798"><ele>256</ele><time>2020-08-05T12:57:30Z</time><name>PT12188</name></trkpt>
<trkpt lat="53.370239" lon="-1.818804"><ele>255</ele><time>2020-08-05T12:57:31Z</time><name>PT12189</name></trkpt>
<trkpt lat="53.370245" lon="-1.818814"><ele>255</ele><time>2020-08-05T12:57:31Z</time><name>PT12190</name></trkpt>
<trkpt lat="53.370249" lon="-1.818821"><ele>254</ele><time>2020-08-05T12:57:33Z</time><name>PT12191</name></trkpt>
<trkpt lat="53.370241" lon="-1.818813"><ele>254</ele><time>2020-08-05T12:57:34Z</time><name>PT12192</name></trkpt>
<trkpt lat="53.370242" lon="-1.818816"><ele>254</ele><time>2020-08-05T12:57:34Z</time><name>PT12193</name></trkpt>
<trkpt lat="53.370241" lon="-1.818816"><ele>254</ele><time>2020-08-05T12:57:36Z</time><name>PT12194</name></trkpt>
<trkpt lat="53.370239" lon="-1.818814"><ele>254</ele><time>2020-08-05T12:57:54Z</time><name>PT12195</name></trkpt>
<trkpt lat="53.370241" lon="-1.818813"><ele>254</ele><time>2020-08-05T12:57:55Z</time><name>PT12196</name></trkpt>
<trkpt lat="53.370248" lon="-1.818808"><ele>254</ele><time>2020-08-05T12:57:55Z</time><name>PT12197</name></trkpt>
<trkpt lat="53.370246" lon="-1.818803"><ele>254</ele><time>2020-08-05T12:58:31Z</time><name>PT12198</name></trkpt>
<trkpt lat="53.370237" lon="-1.818822"><ele>255</ele><time>2020-08-05T12:58:31Z</time><name>PT12199</name></trkpt>
<trkpt lat="53.370232" lon="-1.818806"><ele>255</ele><time>2020-08-05T12:58:33Z</time><name>PT12200</name></trkpt>
<trkpt lat="53.370230" lon="-1.818795"><ele>255</ele><time>2020-08-05T12:58:34Z</time><name>PT12201</name></trkpt>
<trkpt lat="53.370213" lon="-1.818770"><ele>257</ele><time>2020-08-05T12:58:52Z</time><name>PT12202</name></trkpt>
<trkpt lat="53.370222" lon="-1.818779"><ele>257</ele><time>2020-08-05T12:58:54Z</time><name>PT12203</name></trkpt>
<trkpt lat="53.370224" lon="-1.818781"><ele>257</ele><time>2020-08-05T12:58:55Z</time><name>PT12204</name></trkpt>
<trkpt lat="53.370213" lon="-1.818829"><ele>258</ele><time>2020-08-05T12:58:55Z</time><name>PT12205</name></trkpt>
<trkpt lat="53.370217" lon="-1.818836"><ele>258</ele><time>2020-08-05T12:58:57Z</time><name>PT12206</name></trkpt>
<trkpt lat="53.370224" lon="-1.818846"><ele>257</ele><time>2020-08-05T12:58:58Z</time><name>PT12207</name></trkpt>
<trkpt lat="53.370212" lon="-1.818893"><ele>256</ele><time>2020-08-05T12:58:58Z</time><name>PT12208</name></trkpt>
<trkpt lat="53.370215" lon="-1.818907"><ele>256</ele><time>2020-08-05T12:59:00Z</time><name>PT12209</name></trkpt>
<trkpt lat="53.370218" lon="-1.818920"><ele>256</ele><time>2020-08-05T12:59:01Z</time><name>PT12210</name></trkpt>
<trkpt lat="53.370202" lon="-1.818907"><ele>258</ele><time>2020-08-05T12:59:01Z</time><name>PT12211</name></trkpt>
<trkpt lat="53.370201" lon="-1.818921"><ele>258</ele><time>2020-08-05T12:59:03Z</time><name>PT12212</name></trkpt>
<trkpt lat="53.370200" lon="-1.818936"><ele>258</ele><time>2020-08-05T12:59:04Z</time><name>PT12213</name></trkpt>
<trkpt lat="53.370191" lon="-1.818935"><ele>257</ele><time>2020-08-05T12:59:04Z</time><name>PT12214</name></trkpt></trkseg>
<trkseg>
<trkpt lat="53.370205" lon="-1.818604"><ele>258</ele><time>2020-08-05T12:59:48Z</time><name>PT12215</name></trkpt>
<trkpt lat="53.370244" lon="-1.818584"><ele>262</ele><time>2020-08-05T12:59:49Z</time><name>PT12216</name></trkpt>
<trkpt lat="53.370276" lon="-1.818583"><ele>265</ele><time>2020-08-05T12:59:49Z</time><name>PT12217</name></trkpt>
<trkpt lat="53.370304" lon="-1.818598"><ele>262</ele><time>2020-08-05T12:59:51Z</time><name>PT12218</name></trkpt>
<trkpt lat="53.370313" lon="-1.818601"><ele>263</ele><time>2020-08-05T12:59:52Z</time><name>PT12219</name></trkpt>
<trkpt lat="53.370317" lon="-1.818615"><ele>266</ele><time>2020-08-05T12:59:53Z</time><name>PT12220</name></trkpt>
<trkpt lat="53.370325" lon="-1.818605"><ele>273</ele><time>2020-08-05T12:59:54Z</time><name>PT12221</name></trkpt>
<trkpt lat="53.370322" lon="-1.818611"><ele>276</ele><time>2020-08-05T12:59:55Z</time><name>PT12222</name></trkpt>
<trkpt lat="53.370324" lon="-1.818624"><ele>281</ele><time>2020-08-05T12:59:56Z</time><name>PT12223</name></trkpt>
<trkpt lat="53.370325" lon="-1.818633"><ele>284</ele><time>2020-08-05T12:59:57Z</time><name>PT12224</name></trkpt>
<trkpt lat="53.370329" lon="-1.818656"><ele>289</ele><time>2020-08-05T12:59:58Z</time><name>PT12225</name></trkpt>
<trkpt lat="53.370328" lon="-1.818671"><ele>297</ele><time>2020-08-05T12:59:58Z</time><name>PT12226</name></trkpt>
<trkpt lat="53.370331" lon="-1.818675"><ele>302</ele><time>2020-08-05T13:00:00Z</time><name>PT12227</name></trkpt>
<trkpt lat="53.370324" lon="-1.818676"><ele>304</ele><time>2020-08-05T13:00:01Z</time><name>PT12228</name></trkpt>
<trkpt lat="53.370349" lon="-1.818695"><ele>306</ele><time>2020-08-05T13:00:01Z</time><name>PT12229</name></trkpt>
<trkpt lat="53.370358" lon="-1.818692"><ele>308</ele><time>2020-08-05T13:00:03Z</time><name>PT12230</name></trkpt>
<trkpt lat="53.370369" lon="-1.818701"><ele>312</ele><time>2020-08-05T13:00:04Z</time><name>PT12231</name></trkpt>
<trkpt lat="53.370385" lon="-1.818692"><ele>316</ele><time>2020-08-05T13:00:04Z</time><name>PT12232</name></trkpt>
<trkpt lat="53.370387" lon="-1.818693"><ele>318</ele><time>2020-08-05T13:00:06Z</time><name>PT12233</name></trkpt>
<trkpt lat="53.370373" lon="-1.818714"><ele>316</ele><time>2020-08-05T13:00:07Z</time><name>PT12234</name></trkpt>
<trkpt lat="53.370352" lon="-1.818723"><ele>309</ele><time>2020-08-05T13:00:07Z</time><name>PT12235</name></trkpt>
<trkpt lat="53.370346" lon="-1.818731"><ele>305</ele><time>2020-08-05T13:00:09Z</time><name>PT12236</name></trkpt>
<trkpt lat="53.370339" lon="-1.818736"><ele>301</ele><time>2020-08-05T13:00:10Z</time><name>PT12237</name></trkpt>
<trkpt lat="53.370333" lon="-1.818743"><ele>299</ele><time>2020-08-05T13:00:10Z</time><name>PT12238</name></trkpt>
<trkpt lat="53.370325" lon="-1.818744"><ele>295</ele><time>2020-08-05T13:00:12Z</time><name>PT12239</name></trkpt>
<trkpt lat="53.370316" lon="-1.818737"><ele>290</ele><time>2020-08-05T13:00:13Z</time><name>PT12240</name></trkpt>
<trkpt lat="53.370305" lon="-1.818734"><ele>286</ele><time>2020-08-05T13:00:13Z</time><name>PT12241</name></trkpt>
<trkpt lat="53.370295" lon="-1.818736"><ele>284</ele><time>2020-08-05T13:00:15Z</time><name>PT12242</name></trkpt>
<trkpt lat="53.370291" lon="-1.818734"><ele>282</ele><time>2020-08-05T13:00:16Z</time><name>PT12243</name></trkpt>
<trkpt lat="53.370288" lon="-1.818732"><ele>279</ele><time>2020-08-05T13:00:16Z</time><name>PT12244</name></trkpt>
<trkpt lat="53.370289" lon="-1.818733"><ele>278</ele><time>2020-08-05T13:00:18Z</time><name>PT12245</name></trkpt>
<trkpt lat="53.370285" lon="-1.818732"><ele>277</ele><time>2020-08-05T13:00:19Z</time><name>PT12246</name></trkpt>
<trkpt lat="53.370276" lon="-1.818757"><ele>273</ele><time>2020-08-05T13:00:52Z</time><name>PT12247</name></trkpt>
<trkpt lat="53.370277" lon="-1.818761"><ele>271</ele><time>2020-08-05T13:00:52Z</time><name>PT12248</name></trkpt>
<trkpt lat="53.370276" lon="-1.818761"><ele>270</ele><time>2020-08-05T13:00:54Z</time><name>PT12249</name></trkpt>
<trkpt lat="53.370273" lon="-1.818758"><ele>270</ele><time>2020-08-05T13:00:55Z</time><name>PT12250</name></trkpt>
<trkpt lat="53.370273" lon="-1.818754"><ele>269</ele><time>2020-08-05T13:00:55Z</time><name>PT12251</name></trkpt>
<trkpt lat="53.370273" lon="-1.818746"><ele>268</ele><time>2020-08-05T13:00:58Z</time><name>PT12252</name></trkpt>
<trkpt lat="53.370273" lon="-1.818735"><ele>268</ele><time>2020-08-05T13:00:58Z</time><name>PT12253</name></trkpt>
<trkpt lat="53.370276" lon="-1.818743"><ele>267</ele><time>2020-08-05T13:01:25Z</time><name>PT12254</name></trkpt>
<trkpt lat="53.370283" lon="-1.818745"><ele>267</ele><time>2020-08-05T13:01:25Z</time><name>PT12255</name></trkpt>
<trkpt lat="53.370286" lon="-1.818745"><ele>266</ele><time>2020-08-05T13:01:27Z</time><name>PT12256</name></trkpt>
<trkpt lat="53.370301" lon="-1.818743"><ele>266</ele><time>2020-08-05T13:01:46Z</time><name>PT12257</name></trkpt>
<trkpt lat="53.370312" lon="-1.818734"><ele>266</ele><time>2020-08-05T13:01:48Z</time><name>PT12258</name></trkpt>
<trkpt lat="53.370320" lon="-1.818725"><ele>266</ele><time>2020-08-05T13:01:49Z</time><name>PT12259</name></trkpt>
<trkpt lat="53.370322" lon="-1.818724"><ele>266</ele><time>2020-08-05T13:01:55Z</time><name>PT12260</name></trkpt>
<trkpt lat="53.370331" lon="-1.818724"><ele>266</ele><time>2020-08-05T13:01:57Z</time><name>PT12261</name></trkpt>
<trkpt lat="53.370337" lon="-1.818724"><ele>266</ele><time>2020-08-05T13:01:58Z</time><name>PT12262</name></trkpt>
<trkpt lat="53.370355" lon="-1.818726"><ele>266</ele><time>2020-08-05T13:02:03Z</time><name>PT12263</name></trkpt>
<trkpt lat="53.370373" lon="-1.818728"><ele>266</ele><time>2020-08-05T13:02:04Z</time><name>PT12264</name></trkpt>
<trkpt lat="53.370388" lon="-1.818733"><ele>265</ele><time>2020-08-05T13:02:04Z</time><name>PT12265</name></trkpt>
<trkpt lat="53.370399" lon="-1.818738"><ele>265</ele><time>2020-08-05T13:02:06Z</time><name>PT12266</name></trkpt>
<trkpt lat="53.370404" lon="-1.818745"><ele>266</ele><time>2020-08-05T13:02:10Z</time><name>PT12267</name></trkpt>
<trkpt lat="53.370410" lon="-1.818751"><ele>266</ele><time>2020-08-05T13:02:12Z</time><name>PT12268</name></trkpt>
<trkpt lat="53.370421" lon="-1.818748"><ele>266</ele><time>2020-08-05T13:02:13Z</time><name>PT12269</name></trkpt>
<trkpt lat="53.370421" lon="-1.818743"><ele>266</ele><time>2020-08-05T13:02:13Z</time><name>PT12270</name></trkpt>
<trkpt lat="53.370421" lon="-1.818746"><ele>266</ele><time>2020-08-05T13:02:15Z</time><name>PT12271</name></trkpt>
<trkpt lat="53.370422" lon="-1.818747"><ele>266</ele><time>2020-08-05T13:02:16Z</time><name>PT12272</name></trkpt>
<trkpt lat="53.370417" lon="-1.818755"><ele>266</ele><time>2020-08-05T13:02:16Z</time><name>PT12273</name></trkpt>
<trkpt lat="53.370416" lon="-1.818748"><ele>266</ele><time>2020-08-05T13:02:22Z</time><name>PT12274</name></trkpt>
<trkpt lat="53.370420" lon="-1.818749"><ele>266</ele><time>2020-08-05T13:02:22Z</time><name>PT12275</name></trkpt>
<trkpt lat="53.370418" lon="-1.818748"><ele>267</ele><time>2020-08-05T13:02:24Z</time><name>PT12276</name></trkpt>
<trkpt lat="53.370417" lon="-1.818750"><ele>267</ele><time>2020-08-05T13:02:25Z</time><name>PT12277</name></trkpt>
<trkpt lat="53.370410" lon="-1.818754"><ele>267</ele><time>2020-08-05T13:02:28Z</time><name>PT12278</name></trkpt>
<trkpt lat="53.370398" lon="-1.818761"><ele>268</ele><time>2020-08-05T13:02:28Z</time><name>PT12279</name></trkpt>
<trkpt lat="53.370390" lon="-1.818764"><ele>268</ele><time>2020-08-05T13:02:30Z</time><name>PT12280</name></trkpt>
<trkpt lat="53.370385" lon="-1.818773"><ele>268</ele><time>2020-08-05T13:02:31Z</time><name>PT12281</name></trkpt>
<trkpt lat="53.370382" lon="-1.818769"><ele>269</ele><time>2020-08-05T13:02:45Z</time><name>PT12282</name></trkpt>
<trkpt lat="53.370385" lon="-1.818760"><ele>269</ele><time>2020-08-05T13:02:46Z</time><name>PT12283</name></trkpt>
<trkpt lat="53.370381" lon="-1.818741"><ele>269</ele><time>2020-08-05T13:02:46Z</time><name>PT12284</name></trkpt>
<trkpt lat="53.370382" lon="-1.818734"><ele>269</ele><time>2020-08-05T13:02:48Z</time><name>PT12285</name></trkpt>
<trkpt lat="53.370381" lon="-1.818727"><ele>269</ele><time>2020-08-05T13:02:49Z</time><name>PT12286</name></trkpt>
<trkpt lat="53.370373" lon="-1.818720"><ele>268</ele><time>2020-08-05T13:03:04Z</time><name>PT12287</name></trkpt>
<trkpt lat="53.370363" lon="-1.818719"><ele>268</ele><time>2020-08-05T13:03:06Z</time><name>PT12288</name></trkpt>
<trkpt lat="53.370358" lon="-1.818717"><ele>268</ele><time>2020-08-05T13:03:07Z</time><name>PT12289</name></trkpt>
<trkpt lat="53.370341" lon="-1.818732"><ele>268</ele><time>2020-08-05T13:03:07Z</time><name>PT12290</name></trkpt>
<trkpt lat="53.370343" lon="-1.818731"><ele>268</ele><time>2020-08-05T13:03:09Z</time><name>PT12291</name></trkpt>
<trkpt lat="53.370341" lon="-1.818728"><ele>268</ele><time>2020-08-05T13:03:10Z</time><name>PT12292</name></trkpt>
<trkpt lat="53.370344" lon="-1.818725"><ele>268</ele><time>2020-08-05T13:03:10Z</time><name>PT12293</name></trkpt>
<trkpt lat="53.370336" lon="-1.818710"><ele>266</ele><time>2020-08-05T13:04:25Z</time><name>PT12294</name></trkpt>
<trkpt lat="53.370331" lon="-1.818703"><ele>266</ele><time>2020-08-05T13:04:25Z</time><name>PT12295</name></trkpt>
<trkpt lat="53.370332" lon="-1.818694"><ele>266</ele><time>2020-08-05T13:04:27Z</time><name>PT12296</name></trkpt>
<trkpt lat="53.370332" lon="-1.818686"><ele>266</ele><time>2020-08-05T13:04:28Z</time><name>PT12297</name></trkpt>
<trkpt lat="53.370325" lon="-1.818698"><ele>265</ele><time>2020-08-05T13:04:34Z</time><name>PT12298</name></trkpt>
<trkpt lat="53.370321" lon="-1.818704"><ele>264</ele><time>2020-08-05T13:04:34Z</time><name>PT12299</name></trkpt>
<trkpt lat="53.370321" lon="-1.818710"><ele>264</ele><time>2020-08-05T13:04:36Z</time><name>PT12300</name></trkpt>
<trkpt lat="53.370324" lon="-1.818709"><ele>264</ele><time>2020-08-05T13:04:37Z</time><name>PT12301</name></trkpt>
<trkpt lat="53.370323" lon="-1.818720"><ele>264</ele><time>2020-08-05T13:04:40Z</time><name>PT12302</name></trkpt>
<trkpt lat="53.370322" lon="-1.818717"><ele>264</ele><time>2020-08-05T13:04:41Z</time><name>PT12303</name></trkpt>
<trkpt lat="53.370320" lon="-1.818717"><ele>264</ele><time>2020-08-05T13:04:42Z</time><name>PT12304</name></trkpt>
<trkpt lat="53.370316" lon="-1.818713"><ele>264</ele><time>2020-08-05T13:04:43Z</time><name>PT12305</name></trkpt>
<trkpt lat="53.370315" lon="-1.818712"><ele>264</ele><time>2020-08-05T13:04:43Z</time><name>PT12306</name></trkpt>
<trkpt lat="53.370312" lon="-1.818704"><ele>264</ele><time>2020-08-05T13:04:45Z</time><name>PT12307</name></trkpt>
<trkpt lat="53.370309" lon="-1.818701"><ele>263</ele><time>2020-08-05T13:04:46Z</time><name>PT12308</name></trkpt>
<trkpt lat="53.370308" lon="-1.818700"><ele>263</ele><time>2020-08-05T13:04:49Z</time><name>PT12309</name></trkpt>
<trkpt lat="53.370311" lon="-1.818699"><ele>263</ele><time>2020-08-05T13:04:49Z</time><name>PT12310</name></trkpt>
<trkpt lat="53.370309" lon="-1.818695"><ele>264</ele><time>2020-08-05T13:04:51Z</time><name>PT12311</name></trkpt>
<trkpt lat="53.370311" lon="-1.818695"><ele>264</ele><time>2020-08-05T13:04:52Z</time><name>PT12312</name></trkpt>
<trkpt lat="53.370311" lon="-1.818695"><ele>264</ele><time>2020-08-05T13:04:53Z</time><name>PT12313</name></trkpt>
<trkpt lat="53.370309" lon="-1.818697"><ele>263</ele><time>2020-08-05T13:04:54Z</time><name>PT12314</name></trkpt>
<trkpt lat="53.370309" lon="-1.818698"><ele>263</ele><time>2020-08-05T13:04:55Z</time><name>PT12315</name></trkpt>
<trkpt lat="53.370311" lon="-1.818697"><ele>262</ele><time>2020-08-05T13:04:55Z</time><name>PT12316</name></trkpt>
<trkpt lat="53.370310" lon="-1.818693"><ele>262</ele><time>2020-08-05T13:04:57Z</time><name>PT12317</name></trkpt>
<trkpt lat="53.370309" lon="-1.818692"><ele>262</ele><time>2020-08-05T13:04:58Z</time><name>PT12318</name></trkpt>
<trkpt lat="53.370311" lon="-1.818692"><ele>262</ele><time>2020-08-05T13:04:58Z</time><name>PT12319</name></trkpt>
<trkpt lat="53.370313" lon="-1.818692"><ele>263</ele><time>2020-08-05T13:05:00Z</time><name>PT12320</name></trkpt>
<trkpt lat="53.370314" lon="-1.818687"><ele>264</ele><time>2020-08-05T13:05:01Z</time><name>PT12321</name></trkpt>
<trkpt lat="53.370311" lon="-1.818682"><ele>263</ele><time>2020-08-05T13:05:06Z</time><name>PT12322</name></trkpt>
<trkpt lat="53.370312" lon="-1.818689"><ele>262</ele><time>2020-08-05T13:05:07Z</time><name>PT12323</name></trkpt>
<trkpt lat="53.370311" lon="-1.818695"><ele>261</ele><time>2020-08-05T13:05:07Z</time><name>PT12324</name></trkpt>
<trkpt lat="53.370309" lon="-1.818693"><ele>261</ele><time>2020-08-05T13:05:09Z</time><name>PT12325</name></trkpt>
<trkpt lat="53.370310" lon="-1.818694"><ele>260</ele><time>2020-08-05T13:05:10Z</time><name>PT12326</name></trkpt>
<trkpt lat="53.370312" lon="-1.818693"><ele>260</ele><time>2020-08-05T13:05:10Z</time><name>PT12327</name></trkpt>
<trkpt lat="53.370312" lon="-1.818692"><ele>260</ele><time>2020-08-05T13:05:12Z</time><name>PT12328</name></trkpt>
<trkpt lat="53.370313" lon="-1.818693"><ele>259</ele><time>2020-08-05T13:05:13Z</time><name>PT12329</name></trkpt>
<trkpt lat="53.370312" lon="-1.818692"><ele>259</ele><time>2020-08-05T13:05:13Z</time><name>PT12330</name></trkpt>
<trkpt lat="53.370309" lon="-1.818689"><ele>258</ele><time>2020-08-05T13:05:15Z</time><name>PT12331</name></trkpt>
<trkpt lat="53.370305" lon="-1.818690"><ele>258</ele><time>2020-08-05T13:05:16Z</time><name>PT12332</name></trkpt>
<trkpt lat="53.370303" lon="-1.818698"><ele>257</ele><time>2020-08-05T13:05:16Z</time><name>PT12333</name></trkpt>
<trkpt lat="53.370302" lon="-1.818696"><ele>256</ele><time>2020-08-05T13:05:18Z</time><name>PT12334</name></trkpt>
<trkpt lat="53.370303" lon="-1.818695"><ele>256</ele><time>2020-08-05T13:05:19Z</time><name>PT12335</name></trkpt>
<trkpt lat="53.370304" lon="-1.818692"><ele>257</ele><time>2020-08-05T13:05:19Z</time><name>PT12336</name></trkpt>
<trkpt lat="53.370302" lon="-1.818692"><ele>258</ele><time>2020-08-05T13:05:21Z</time><name>PT12337</name></trkpt>
<trkpt lat="53.370301" lon="-1.818691"><ele>259</ele><time>2020-08-05T13:05:22Z</time><name>PT12338</name></trkpt>
<trkpt lat="53.370301" lon="-1.818688"><ele>260</ele><time>2020-08-05T13:05:22Z</time><name>PT12339</name></trkpt>
<trkpt lat="53.370300" lon="-1.818685"><ele>259</ele><time>2020-08-05T13:05:24Z</time><name>PT12340</name></trkpt>
<trkpt lat="53.370301" lon="-1.818685"><ele>259</ele><time>2020-08-05T13:05:25Z</time><name>PT12341</name></trkpt>
<trkpt lat="53.370304" lon="-1.818691"><ele>259</ele><time>2020-08-05T13:05:25Z</time><name>PT12342</name></trkpt>
<trkpt lat="53.370307" lon="-1.818688"><ele>258</ele><time>2020-08-05T13:05:28Z</time><name>PT12343</name></trkpt>
<trkpt lat="53.370308" lon="-1.818691"><ele>258</ele><time>2020-08-05T13:05:28Z</time><name>PT12344</name></trkpt>
<trkpt lat="53.370308" lon="-1.818693"><ele>258</ele><time>2020-08-05T13:05:30Z</time><name>PT12345</name></trkpt>
<trkpt lat="53.370308" lon="-1.818692"><ele>258</ele><time>2020-08-05T13:05:31Z</time><name>PT12346</name></trkpt>
<trkpt lat="53.370310" lon="-1.818692"><ele>258</ele><time>2020-08-05T13:05:31Z</time><name>PT12347</name></trkpt>
<trkpt lat="53.370311" lon="-1.818692"><ele>258</ele><time>2020-08-05T13:05:33Z</time><name>PT12348</name></trkpt>
<trkpt lat="53.370311" lon="-1.818691"><ele>258</ele><time>2020-08-05T13:05:34Z</time><name>PT12349</name></trkpt>
<trkpt lat="53.370309" lon="-1.818701"><ele>258</ele><time>2020-08-05T13:05:40Z</time><name>PT12350</name></trkpt>
<trkpt lat="53.370313" lon="-1.818718"><ele>258</ele><time>2020-08-05T13:05:42Z</time><name>PT12351</name></trkpt>
<trkpt lat="53.370316" lon="-1.818726"><ele>259</ele><time>2020-08-05T13:05:43Z</time><name>PT12352</name></trkpt>
<trkpt lat="53.370317" lon="-1.818735"><ele>259</ele><time>2020-08-05T13:05:43Z</time><name>PT12353</name></trkpt>
<trkpt lat="53.370320" lon="-1.818750"><ele>260</ele><time>2020-08-05T13:05:45Z</time><name>PT12354</name></trkpt>
<trkpt lat="53.370321" lon="-1.818770"><ele>260</ele><time>2020-08-05T13:05:46Z</time><name>PT12355</name></trkpt>
<trkpt lat="53.370320" lon="-1.818780"><ele>261</ele><time>2020-08-05T13:05:46Z</time><name>PT12356</name></trkpt>
<trkpt lat="53.370321" lon="-1.818778"><ele>261</ele><time>2020-08-05T13:05:48Z</time><name>PT12357</name></trkpt>
<trkpt lat="53.370318" lon="-1.818788"><ele>261</ele><time>2020-08-05T13:05:49Z</time><name>PT12358</name></trkpt>
<trkpt lat="53.370319" lon="-1.818799"><ele>261</ele><time>2020-08-05T13:05:49Z</time><name>PT12359</name></trkpt>
<trkpt lat="53.370316" lon="-1.818804"><ele>261</ele><time>2020-08-05T13:05:51Z</time><name>PT12360</name></trkpt>
<trkpt lat="53.370320" lon="-1.818819"><ele>261</ele><time>2020-08-05T13:05:52Z</time><name>PT12361</name></trkpt>
<trkpt lat="53.370321" lon="-1.818846"><ele>262</ele><time>2020-08-05T13:05:52Z</time><name>PT12362</name></trkpt>
<trkpt lat="53.370319" lon="-1.818866"><ele>261</ele><time>2020-08-05T13:05:54Z</time><name>PT12363</name></trkpt>
<trkpt lat="53.370326" lon="-1.818877"><ele>262</ele><time>2020-08-05T13:05:55Z</time><name>PT12364</name></trkpt>
<trkpt lat="53.370330" lon="-1.818890"><ele>262</ele><time>2020-08-05T13:05:55Z</time><name>PT12365</name></trkpt>
<trkpt lat="53.370328" lon="-1.818903"><ele>262</ele><time>2020-08-05T13:05:57Z</time><name>PT12366</name></trkpt>
<trkpt lat="53.370327" lon="-1.818919"><ele>261</ele><time>2020-08-05T13:05:58Z</time><name>PT12367</name></trkpt>
<trkpt lat="53.370330" lon="-1.818940"><ele>262</ele><time>2020-08-05T13:05:58Z</time><name>PT12368</name></trkpt>
<trkpt lat="53.370330" lon="-1.818961"><ele>262</ele><time>2020-08-05T13:06:00Z</time><name>PT12369</name></trkpt>
<trkpt lat="53.370328" lon="-1.818978"><ele>262</ele><time>2020-08-05T13:06:01Z</time><name>PT12370</name></trkpt>
<trkpt lat="53.370329" lon="-1.818993"><ele>262</ele><time>2020-08-05T13:06:01Z</time><name>PT12371</name></trkpt>
<trkpt lat="53.370327" lon="-1.819014"><ele>262</ele><time>2020-08-05T13:06:03Z</time><name>PT12372</name></trkpt>
<trkpt lat="53.370327" lon="-1.819027"><ele>262</ele><time>2020-08-05T13:06:04Z</time><name>PT12373</name></trkpt>
<trkpt lat="53.370328" lon="-1.819042"><ele>260</ele><time>2020-08-05T13:06:04Z</time><name>PT12374</name></trkpt>
<trkpt lat="53.370331" lon="-1.819055"><ele>261</ele><time>2020-08-05T13:06:06Z</time><name>PT12375</name></trkpt>
<trkpt lat="53.370329" lon="-1.819066"><ele>261</ele><time>2020-08-05T13:06:07Z</time><name>PT12376</name></trkpt>
<trkpt lat="53.370331" lon="-1.819082"><ele>262</ele><time>2020-08-05T13:06:07Z</time><name>PT12377</name></trkpt>
<trkpt lat="53.370332" lon="-1.819101"><ele>263</ele><time>2020-08-05T13:06:09Z</time><name>PT12378</name></trkpt>
<trkpt lat="53.370330" lon="-1.819120"><ele>263</ele><time>2020-08-05T13:06:10Z</time><name>PT12379</name></trkpt>
<trkpt lat="53.370326" lon="-1.819138"><ele>264</ele><time>2020-08-05T13:06:10Z</time><name>PT12380</name></trkpt>
<trkpt lat="53.370323" lon="-1.819151"><ele>264</ele><time>2020-08-05T13:06:12Z</time><name>PT12381</name></trkpt>
<trkpt lat="53.370319" lon="-1.819263"><ele>265</ele><time>2020-08-05T13:06:21Z</time><name>PT12382</name></trkpt>
<trkpt lat="53.370311" lon="-1.819311"><ele>263</ele><time>2020-08-05T13:06:22Z</time><name>PT12383</name></trkpt>
<trkpt lat="53.370300" lon="-1.819383"><ele>264</ele><time>2020-08-05T13:06:22Z</time><name>PT12384</name></trkpt>
<trkpt lat="53.370293" lon="-1.819412"><ele>263</ele><time>2020-08-05T13:06:24Z</time><name>PT12385</name></trkpt>
<trkpt lat="53.370289" lon="-1.819447"><ele>264</ele><time>2020-08-05T13:06:25Z</time><name>PT12386</name></trkpt>
<trkpt lat="53.370289" lon="-1.819472"><ele>263</ele><time>2020-08-05T13:06:25Z</time><name>PT12387</name></trkpt>
<trkpt lat="53.370289" lon="-1.819488"><ele>263</ele><time>2020-08-05T13:06:27Z</time><name>PT12388</name></trkpt>
<trkpt lat="53.370296" lon="-1.819510"><ele>264</ele><time>2020-08-05T13:06:28Z</time><name>PT12389</name></trkpt>
<trkpt lat="53.370294" lon="-1.819544"><ele>265</ele><time>2020-08-05T13:06:28Z</time><name>PT12390</name></trkpt>
<trkpt lat="53.370292" lon="-1.819564"><ele>265</ele><time>2020-08-05T13:06:30Z</time><name>PT12391</name></trkpt>
<trkpt lat="53.370292" lon="-1.819586"><ele>265</ele><time>2020-08-05T13:06:31Z</time><name>PT12392</name></trkpt>
<trkpt lat="53.370291" lon="-1.819599"><ele>266</ele><time>2020-08-05T13:06:31Z</time><name>PT12393</name></trkpt>
<trkpt lat="53.370291" lon="-1.819611"><ele>266</ele><time>2020-08-05T13:06:33Z</time><name>PT12394</name></trkpt>
<trkpt lat="53.370295" lon="-1.819625"><ele>266</ele><time>2020-08-05T13:06:34Z</time><name>PT12395</name></trkpt>
<trkpt lat="53.370301" lon="-1.819639"><ele>267</ele><time>2020-08-05T13:06:34Z</time><name>PT12396</name></trkpt>
<trkpt lat="53.370300" lon="-1.819656"><ele>267</ele><time>2020-08-05T13:06:36Z</time><name>PT12397</name></trkpt>
<trkpt lat="53.370305" lon="-1.819668"><ele>268</ele><time>2020-08-05T13:06:37Z</time><name>PT12398</name></trkpt>
<trkpt lat="53.370308" lon="-1.819675"><ele>268</ele><time>2020-08-05T13:06:37Z</time><name>PT12399</name></trkpt>
<trkpt lat="53.370310" lon="-1.819685"><ele>268</ele><time>2020-08-05T13:06:39Z</time><name>PT12400</name></trkpt>
<trkpt lat="53.370311" lon="-1.819697"><ele>269</ele><time>2020-08-05T13:06:40Z</time><name>PT12401</name></trkpt>
<trkpt lat="53.370312" lon="-1.819707"><ele>270</ele><time>2020-08-05T13:06:40Z</time><name>PT12402</name></trkpt>
<trkpt lat="53.370305" lon="-1.819720"><ele>268</ele><time>2020-08-05T13:06:42Z</time><name>PT12403</name></trkpt>
<trkpt lat="53.370304" lon="-1.819727"><ele>268</ele><time>2020-08-05T13:06:43Z</time><name>PT12404</name></trkpt>
<trkpt lat="53.370307" lon="-1.819740"><ele>269</ele><time>2020-08-05T13:06:43Z</time><name>PT12405</name></trkpt>
<trkpt lat="53.370306" lon="-1.819752"><ele>269</ele><time>2020-08-05T13:06:45Z</time><name>PT12406</name></trkpt>
<trkpt lat="53.370301" lon="-1.819764"><ele>268</ele><time>2020-08-05T13:06:46Z</time><name>PT12407</name></trkpt>
<trkpt lat="53.370298" lon="-1.819778"><ele>268</ele><time>2020-08-05T13:06:47Z</time><name>PT12408</name></trkpt>
<trkpt lat="53.370298" lon="-1.819793"><ele>268</ele><time>2020-08-05T13:06:48Z</time><name>PT12409</name></trkpt>
<trkpt lat="53.370295" lon="-1.819809"><ele>268</ele><time>2020-08-05T13:06:49Z</time><name>PT12410</name></trkpt>
<trkpt lat="53.370293" lon="-1.819822"><ele>268</ele><time>2020-08-05T13:06:50Z</time><name>PT12411</name></trkpt>
<trkpt lat="53.370292" lon="-1.819839"><ele>268</ele><time>2020-08-05T13:06:51Z</time><name>PT12412</name></trkpt>
<trkpt lat="53.370289" lon="-1.819856"><ele>268</ele><time>2020-08-05T13:06:52Z</time><name>PT12413</name></trkpt>
<trkpt lat="53.370287" lon="-1.819872"><ele>268</ele><time>2020-08-05T13:06:53Z</time><name>PT12414</name></trkpt>
<trkpt lat="53.370289" lon="-1.819890"><ele>268</ele><time>2020-08-05T13:06:54Z</time><name>PT12415</name></trkpt>
<trkpt lat="53.370288" lon="-1.819907"><ele>269</ele><time>2020-08-05T13:06:55Z</time><name>PT12416</name></trkpt>
<trkpt lat="53.370288" lon="-1.819924"><ele>269</ele><time>2020-08-05T13:06:56Z</time><name>PT12417</name></trkpt>
<trkpt lat="53.370289" lon="-1.819942"><ele>268</ele><time>2020-08-05T13:06:57Z</time><name>PT12418</name></trkpt>
<trkpt lat="53.370287" lon="-1.819957"><ele>268</ele><time>2020-08-05T13:06:58Z</time><name>PT12419</name></trkpt>
<trkpt lat="53.370290" lon="-1.819971"><ele>268</ele><time>2020-08-05T13:06:58Z</time><name>PT12420</name></trkpt>
<trkpt lat="53.370291" lon="-1.819986"><ele>267</ele><time>2020-08-05T13:07:00Z</time><name>PT12421</name></trkpt>
<trkpt lat="53.370293" lon="-1.820002"><ele>267</ele><time>2020-08-05T13:07:01Z</time><name>PT12422</name></trkpt>
<trkpt lat="53.370294" lon="-1.820031"><ele>269</ele><time>2020-08-05T13:07:01Z</time><name>PT12423</name></trkpt>
<trkpt lat="53.370295" lon="-1.820046"><ele>270</ele><time>2020-08-05T13:07:03Z</time><name>PT12424</name></trkpt>
<trkpt lat="53.370292" lon="-1.820058"><ele>266</ele><time>2020-08-05T13:07:04Z</time><name>PT12425</name></trkpt>
<trkpt lat="53.370290" lon="-1.820072"><ele>266</ele><time>2020-08-05T13:07:04Z</time><name>PT12426</name></trkpt>
<trkpt lat="53.370289" lon="-1.820087"><ele>266</ele><time>2020-08-05T13:07:06Z</time><name>PT12427</name></trkpt>
<trkpt lat="53.370287" lon="-1.820114"><ele>267</ele><time>2020-08-05T13:07:07Z</time><name>PT12428</name></trkpt>
<trkpt lat="53.370282" lon="-1.820134"><ele>267</ele><time>2020-08-05T13:07:07Z</time><name>PT12429</name></trkpt>
<trkpt lat="53.370280" lon="-1.820146"><ele>267</ele><time>2020-08-05T13:07:09Z</time><name>PT12430</name></trkpt>
<trkpt lat="53.370279" lon="-1.820161"><ele>267</ele><time>2020-08-05T13:07:10Z</time><name>PT12431</name></trkpt>
<trkpt lat="53.370277" lon="-1.820177"><ele>267</ele><time>2020-08-05T13:07:10Z</time><name>PT12432</name></trkpt>
<trkpt lat="53.370279" lon="-1.820195"><ele>268</ele><time>2020-08-05T13:07:12Z</time><name>PT12433</name></trkpt>
<trkpt lat="53.370280" lon="-1.820215"><ele>267</ele><time>2020-08-05T13:07:13Z</time><name>PT12434</name></trkpt>
<trkpt lat="53.370277" lon="-1.820245"><ele>269</ele><time>2020-08-05T13:07:13Z</time><name>PT12435</name></trkpt>
<trkpt lat="53.370274" lon="-1.820265"><ele>269</ele><time>2020-08-05T13:07:15Z</time><name>PT12436</name></trkpt>
<trkpt lat="53.370278" lon="-1.820285"><ele>269</ele><time>2020-08-05T13:07:16Z</time><name>PT12437</name></trkpt>
<trkpt lat="53.370277" lon="-1.820302"><ele>268</ele><time>2020-08-05T13:07:16Z</time><name>PT12438</name></trkpt>
<trkpt lat="53.370282" lon="-1.820324"><ele>268</ele><time>2020-08-05T13:07:18Z</time><name>PT12439</name></trkpt>
<trkpt lat="53.370282" lon="-1.820343"><ele>268</ele><time>2020-08-05T13:07:19Z</time><name>PT12440</name></trkpt>
<trkpt lat="53.370282" lon="-1.820360"><ele>268</ele><time>2020-08-05T13:07:19Z</time><name>PT12441</name></trkpt>
<trkpt lat="53.370286" lon="-1.820370"><ele>269</ele><time>2020-08-05T13:07:21Z</time><name>PT12442</name></trkpt>
<trkpt lat="53.370284" lon="-1.820385"><ele>269</ele><time>2020-08-05T13:07:22Z</time><name>PT12443</name></trkpt>
<trkpt lat="53.370286" lon="-1.820399"><ele>269</ele><time>2020-08-05T13:07:22Z</time><name>PT12444</name></trkpt>
<trkpt lat="53.370282" lon="-1.820420"><ele>270</ele><time>2020-08-05T13:07:24Z</time><name>PT12445</name></trkpt>
<trkpt lat="53.370278" lon="-1.820436"><ele>270</ele><time>2020-08-05T13:07:25Z</time><name>PT12446</name></trkpt>
<trkpt lat="53.370276" lon="-1.820453"><ele>270</ele><time>2020-08-05T13:07:25Z</time><name>PT12447</name></trkpt>
<trkpt lat="53.370273" lon="-1.820469"><ele>270</ele><time>2020-08-05T13:07:27Z</time><name>PT12448</name></trkpt>
<trkpt lat="53.370269" lon="-1.820488"><ele>271</ele><time>2020-08-05T13:07:28Z</time><name>PT12449</name></trkpt>
<trkpt lat="53.370270" lon="-1.820502"><ele>271</ele><time>2020-08-05T13:07:28Z</time><name>PT12450</name></trkpt>
<trkpt lat="53.370267" lon="-1.820519"><ele>272</ele><time>2020-08-05T13:07:30Z</time><name>PT12451</name></trkpt>
<trkpt lat="53.370262" lon="-1.820538"><ele>272</ele><time>2020-08-05T13:07:31Z</time><name>PT12452</name></trkpt>
<trkpt lat="53.370261" lon="-1.820554"><ele>272</ele><time>2020-08-05T13:07:31Z</time><name>PT12453</name></trkpt>
<trkpt lat="53.370254" lon="-1.820567"><ele>273</ele><time>2020-08-05T13:07:33Z</time><name>PT12454</name></trkpt>
<trkpt lat="53.370252" lon="-1.820587"><ele>273</ele><time>2020-08-05T13:07:34Z</time><name>PT12455</name></trkpt>
<trkpt lat="53.370247" lon="-1.820605"><ele>274</ele><time>2020-08-05T13:07:34Z</time><name>PT12456</name></trkpt>
<trkpt lat="53.370242" lon="-1.820624"><ele>275</ele><time>2020-08-05T13:07:36Z</time><name>PT12457</name></trkpt>
<trkpt lat="53.370239" lon="-1.820642"><ele>275</ele><time>2020-08-05T13:07:37Z</time><name>PT12458</name></trkpt>
<trkpt lat="53.370237" lon="-1.820652"><ele>275</ele><time>2020-08-05T13:07:37Z</time><name>PT12459</name></trkpt>
<trkpt lat="53.370240" lon="-1.820668"><ele>276</ele><time>2020-08-05T13:07:39Z</time><name>PT12460</name></trkpt>
<trkpt lat="53.370241" lon="-1.820684"><ele>275</ele><time>2020-08-05T13:07:40Z</time><name>PT12461</name></trkpt>
<trkpt lat="53.370246" lon="-1.820701"><ele>277</ele><time>2020-08-05T13:07:40Z</time><name>PT12462</name></trkpt>
<trkpt lat="53.370243" lon="-1.820727"><ele>277</ele><time>2020-08-05T13:07:42Z</time><name>PT12463</name></trkpt>
<trkpt lat="53.370234" lon="-1.820751"><ele>278</ele><time>2020-08-05T13:07:43Z</time><name>PT12464</name></trkpt>
<trkpt lat="53.370234" lon="-1.820767"><ele>278</ele><time>2020-08-05T13:07:43Z</time><name>PT12465</name></trkpt>
<trkpt lat="53.370239" lon="-1.820785"><ele>278</ele><time>2020-08-05T13:07:45Z</time><name>PT12466</name></trkpt>
<trkpt lat="53.370243" lon="-1.820803"><ele>277</ele><time>2020-08-05T13:07:46Z</time><name>PT12467</name></trkpt>
<trkpt lat="53.370244" lon="-1.820818"><ele>277</ele><time>2020-08-05T13:07:47Z</time><name>PT12468</name></trkpt>
<trkpt lat="53.370246" lon="-1.820835"><ele>278</ele><time>2020-08-05T13:07:48Z</time><name>PT12469</name></trkpt>
<trkpt lat="53.370244" lon="-1.820848"><ele>278</ele><time>2020-08-05T13:07:49Z</time><name>PT12470</name></trkpt>
<trkpt lat="53.370242" lon="-1.820867"><ele>278</ele><time>2020-08-05T13:07:50Z</time><name>PT12471</name></trkpt>
<trkpt lat="53.370238" lon="-1.820879"><ele>278</ele><time>2020-08-05T13:07:51Z</time><name>PT12472</name></trkpt>
<trkpt lat="53.370238" lon="-1.820901"><ele>275</ele><time>2020-08-05T13:07:52Z</time><name>PT12473</name></trkpt>
<trkpt lat="53.370234" lon="-1.820916"><ele>275</ele><time>2020-08-05T13:07:53Z</time><name>PT12474</name></trkpt>
<trkpt lat="53.370230" lon="-1.820931"><ele>274</ele><time>2020-08-05T13:07:54Z</time><name>PT12475</name></trkpt>
<trkpt lat="53.370233" lon="-1.820938"><ele>275</ele><time>2020-08-05T13:07:55Z</time><name>PT12476</name></trkpt>
<trkpt lat="53.370232" lon="-1.820952"><ele>276</ele><time>2020-08-05T13:07:56Z</time><name>PT12477</name></trkpt>
<trkpt lat="53.370229" lon="-1.820965"><ele>275</ele><time>2020-08-05T13:07:57Z</time><name>PT12478</name></trkpt>
<trkpt lat="53.370229" lon="-1.820982"><ele>276</ele><time>2020-08-05T13:07:58Z</time><name>PT12479</name></trkpt>
<trkpt lat="53.370228" lon="-1.821001"><ele>276</ele><time>2020-08-05T13:07:59Z</time><name>PT12480</name></trkpt>
<trkpt lat="53.370228" lon="-1.821017"><ele>276</ele><time>2020-08-05T13:08:00Z</time><name>PT12481</name></trkpt>
<trkpt lat="53.370228" lon="-1.821030"><ele>275</ele><time>2020-08-05T13:08:01Z</time><name>PT12482</name></trkpt>
<trkpt lat="53.370234" lon="-1.821043"><ele>275</ele><time>2020-08-05T13:08:01Z</time><name>PT12483</name></trkpt>
<trkpt lat="53.370238" lon="-1.821060"><ele>276</ele><time>2020-08-05T13:08:03Z</time><name>PT12484</name></trkpt>
<trkpt lat="53.370237" lon="-1.821079"><ele>277</ele><time>2020-08-05T13:08:04Z</time><name>PT12485</name></trkpt>
<trkpt lat="53.370233" lon="-1.821098"><ele>277</ele><time>2020-08-05T13:08:04Z</time><name>PT12486</name></trkpt>
<trkpt lat="53.370232" lon="-1.821113"><ele>277</ele><time>2020-08-05T13:08:06Z</time><name>PT12487</name></trkpt>
<trkpt lat="53.370236" lon="-1.821139"><ele>277</ele><time>2020-08-05T13:08:07Z</time><name>PT12488</name></trkpt>
<trkpt lat="53.370232" lon="-1.821151"><ele>278</ele><time>2020-08-05T13:08:07Z</time><name>PT12489</name></trkpt>
<trkpt lat="53.370229" lon="-1.821164"><ele>278</ele><time>2020-08-05T13:08:09Z</time><name>PT12490</name></trkpt>
<trkpt lat="53.370227" lon="-1.821180"><ele>278</ele><time>2020-08-05T13:08:10Z</time><name>PT12491</name></trkpt>
<trkpt lat="53.370227" lon="-1.821187"><ele>278</ele><time>2020-08-05T13:08:10Z</time><name>PT12492</name></trkpt>
<trkpt lat="53.370228" lon="-1.821195"><ele>278</ele><time>2020-08-05T13:08:12Z</time><name>PT12493</name></trkpt>
<trkpt lat="53.370230" lon="-1.821210"><ele>277</ele><time>2020-08-05T13:08:13Z</time><name>PT12494</name></trkpt>
<trkpt lat="53.370237" lon="-1.821224"><ele>276</ele><time>2020-08-05T13:08:13Z</time><name>PT12495</name></trkpt>
<trkpt lat="53.370240" lon="-1.821238"><ele>277</ele><time>2020-08-05T13:08:15Z</time><name>PT12496</name></trkpt>
<trkpt lat="53.370240" lon="-1.821249"><ele>277</ele><time>2020-08-05T13:08:16Z</time><name>PT12497</name></trkpt>
<trkpt lat="53.370236" lon="-1.821261"><ele>278</ele><time>2020-08-05T13:08:16Z</time><name>PT12498</name></trkpt>
<trkpt lat="53.370232" lon="-1.821276"><ele>279</ele><time>2020-08-05T13:08:18Z</time><name>PT12499</name></trkpt>
<trkpt lat="53.370238" lon="-1.821286"><ele>279</ele><time>2020-08-05T13:08:19Z</time><name>PT12500</name></trkpt>
<trkpt lat="53.370237" lon="-1.821296"><ele>280</ele><time>2020-08-05T13:08:19Z</time><name>PT12501</name></trkpt>
<trkpt lat="53.370236" lon="-1.821311"><ele>280</ele><time>2020-08-05T13:08:21Z</time><name>PT12502</name></trkpt>
<trkpt lat="53.370230" lon="-1.821319"><ele>280</ele><time>2020-08-05T13:08:22Z</time><name>PT12503</name></trkpt>
<trkpt lat="53.370222" lon="-1.821329"><ele>280</ele><time>2020-08-05T13:08:22Z</time><name>PT12504</name></trkpt>
<trkpt lat="53.370218" lon="-1.821346"><ele>281</ele><time>2020-08-05T13:08:24Z</time><name>PT12505</name></trkpt>
<trkpt lat="53.370217" lon="-1.821358"><ele>281</ele><time>2020-08-05T13:08:25Z</time><name>PT12506</name></trkpt>
<trkpt lat="53.370215" lon="-1.821366"><ele>281</ele><time>2020-08-05T13:08:25Z</time><name>PT12507</name></trkpt>
<trkpt lat="53.370216" lon="-1.821378"><ele>281</ele><time>2020-08-05T13:08:27Z</time><name>PT12508</name></trkpt>
<trkpt lat="53.370217" lon="-1.821394"><ele>282</ele><time>2020-08-05T13:08:28Z</time><name>PT12509</name></trkpt>
<trkpt lat="53.370219" lon="-1.821413"><ele>281</ele><time>2020-08-05T13:08:28Z</time><name>PT12510</name></trkpt>
<trkpt lat="53.370218" lon="-1.821433"><ele>280</ele><time>2020-08-05T13:08:30Z</time><name>PT12511</name></trkpt>
<trkpt lat="53.370219" lon="-1.821442"><ele>280</ele><time>2020-08-05T13:08:31Z</time><name>PT12512</name></trkpt>
<trkpt lat="53.370220" lon="-1.821456"><ele>280</ele><time>2020-08-05T13:08:31Z</time><name>PT12513</name></trkpt>
<trkpt lat="53.370216" lon="-1.821474"><ele>280</ele><time>2020-08-05T13:08:33Z</time><name>PT12514</name></trkpt>
<trkpt lat="53.370210" lon="-1.821492"><ele>280</ele><time>2020-08-05T13:08:34Z</time><name>PT12515</name></trkpt>
<trkpt lat="53.370210" lon="-1.821512"><ele>281</ele><time>2020-08-05T13:08:34Z</time><name>PT12516</name></trkpt>
<trkpt lat="53.370212" lon="-1.821525"><ele>281</ele><time>2020-08-05T13:08:36Z</time><name>PT12517</name></trkpt>
<trkpt lat="53.370212" lon="-1.821540"><ele>281</ele><time>2020-08-05T13:08:37Z</time><name>PT12518</name></trkpt>
<trkpt lat="53.370211" lon="-1.821559"><ele>281</ele><time>2020-08-05T13:08:37Z</time><name>PT12519</name></trkpt>
<trkpt lat="53.370211" lon="-1.821568"><ele>281</ele><time>2020-08-05T13:08:39Z</time><name>PT12520</name></trkpt>
<trkpt lat="53.370209" lon="-1.821581"><ele>281</ele><time>2020-08-05T13:08:40Z</time><name>PT12521</name></trkpt>
<trkpt lat="53.370210" lon="-1.821593"><ele>282</ele><time>2020-08-05T13:08:40Z</time><name>PT12522</name></trkpt>
<trkpt lat="53.370208" lon="-1.821604"><ele>283</ele><time>2020-08-05T13:08:42Z</time><name>PT12523</name></trkpt>
<trkpt lat="53.370209" lon="-1.821618"><ele>283</ele><time>2020-08-05T13:08:43Z</time><name>PT12524</name></trkpt>
<trkpt lat="53.370207" lon="-1.821636"><ele>283</ele><time>2020-08-05T13:08:44Z</time><name>PT12525</name></trkpt>
<trkpt lat="53.370209" lon="-1.821651"><ele>283</ele><time>2020-08-05T13:08:45Z</time><name>PT12526</name></trkpt>
<trkpt lat="53.370211" lon="-1.821663"><ele>283</ele><time>2020-08-05T13:08:46Z</time><name>PT12527</name></trkpt>
<trkpt lat="53.370210" lon="-1.821676"><ele>282</ele><time>2020-08-05T13:08:47Z</time><name>PT12528</name></trkpt>
<trkpt lat="53.370210" lon="-1.821684"><ele>281</ele><time>2020-08-05T13:08:48Z</time><name>PT12529</name></trkpt>
<trkpt lat="53.370213" lon="-1.821700"><ele>282</ele><time>2020-08-05T13:08:49Z</time><name>PT12530</name></trkpt>
<trkpt lat="53.370215" lon="-1.821713"><ele>283</ele><time>2020-08-05T13:08:49Z</time><name>PT12531</name></trkpt>
<trkpt lat="53.370218" lon="-1.821726"><ele>283</ele><time>2020-08-05T13:08:51Z</time><name>PT12532</name></trkpt>
<trkpt lat="53.370218" lon="-1.821744"><ele>283</ele><time>2020-08-05T13:08:52Z</time><name>PT12533</name></trkpt>
<trkpt lat="53.370220" lon="-1.821759"><ele>284</ele><time>2020-08-05T13:08:52Z</time><name>PT12534</name></trkpt>
<trkpt lat="53.370222" lon="-1.821770"><ele>284</ele><time>2020-08-05T13:08:54Z</time><name>PT12535</name></trkpt>
<trkpt lat="53.370222" lon="-1.821781"><ele>285</ele><time>2020-08-05T13:08:55Z</time><name>PT12536</name></trkpt>
<trkpt lat="53.370222" lon="-1.821790"><ele>285</ele><time>2020-08-05T13:08:56Z</time><name>PT12537</name></trkpt>
<trkpt lat="53.370221" lon="-1.821800"><ele>285</ele><time>2020-08-05T13:08:57Z</time><name>PT12538</name></trkpt>
<trkpt lat="53.370223" lon="-1.821805"><ele>284</ele><time>2020-08-05T13:08:58Z</time><name>PT12539</name></trkpt>
<trkpt lat="53.370225" lon="-1.821824"><ele>285</ele><time>2020-08-05T13:08:59Z</time><name>PT12540</name></trkpt>
<trkpt lat="53.370225" lon="-1.821841"><ele>285</ele><time>2020-08-05T13:09:00Z</time><name>PT12541</name></trkpt>
<trkpt lat="53.370222" lon="-1.821853"><ele>285</ele><time>2020-08-05T13:09:01Z</time><name>PT12542</name></trkpt>
<trkpt lat="53.370216" lon="-1.821862"><ele>285</ele><time>2020-08-05T13:09:02Z</time><name>PT12543</name></trkpt>
<trkpt lat="53.370210" lon="-1.821869"><ele>285</ele><time>2020-08-05T13:09:03Z</time><name>PT12544</name></trkpt>
<trkpt lat="53.370203" lon="-1.821880"><ele>286</ele><time>2020-08-05T13:09:04Z</time><name>PT12545</name></trkpt>
<trkpt lat="53.370200" lon="-1.821888"><ele>285</ele><time>2020-08-05T13:09:04Z</time><name>PT12546</name></trkpt>
<trkpt lat="53.370197" lon="-1.821893"><ele>284</ele><time>2020-08-05T13:09:06Z</time><name>PT12547</name></trkpt>
<trkpt lat="53.370193" lon="-1.821906"><ele>284</ele><time>2020-08-05T13:09:07Z</time><name>PT12548</name></trkpt>
<trkpt lat="53.370191" lon="-1.821929"><ele>285</ele><time>2020-08-05T13:09:07Z</time><name>PT12549</name></trkpt>
<trkpt lat="53.370195" lon="-1.821952"><ele>286</ele><time>2020-08-05T13:09:09Z</time><name>PT12550</name></trkpt>
<trkpt lat="53.370191" lon="-1.821973"><ele>287</ele><time>2020-08-05T13:09:10Z</time><name>PT12551</name></trkpt>
<trkpt lat="53.370189" lon="-1.821987"><ele>287</ele><time>2020-08-05T13:09:10Z</time><name>PT12552</name></trkpt>
<trkpt lat="53.370186" lon="-1.822004"><ele>287</ele><time>2020-08-05T13:09:12Z</time><name>PT12553</name></trkpt>
<trkpt lat="53.370182" lon="-1.822020"><ele>287</ele><time>2020-08-05T13:09:13Z</time><name>PT12554</name></trkpt>
<trkpt lat="53.370179" lon="-1.822038"><ele>288</ele><time>2020-08-05T13:09:13Z</time><name>PT12555</name></trkpt>
<trkpt lat="53.370175" lon="-1.822053"><ele>289</ele><time>2020-08-05T13:09:15Z</time><name>PT12556</name></trkpt>
<trkpt lat="53.370172" lon="-1.822067"><ele>288</ele><time>2020-08-05T13:09:16Z</time><name>PT12557</name></trkpt>
<trkpt lat="53.370169" lon="-1.822084"><ele>289</ele><time>2020-08-05T13:09:16Z</time><name>PT12558</name></trkpt>
<trkpt lat="53.370168" lon="-1.822101"><ele>289</ele><time>2020-08-05T13:09:18Z</time><name>PT12559</name></trkpt>
<trkpt lat="53.370164" lon="-1.822121"><ele>289</ele><time>2020-08-05T13:09:19Z</time><name>PT12560</name></trkpt>
<trkpt lat="53.370157" lon="-1.822144"><ele>290</ele><time>2020-08-05T13:09:19Z</time><name>PT12561</name></trkpt>
<trkpt lat="53.370153" lon="-1.822169"><ele>290</ele><time>2020-08-05T13:09:21Z</time><name>PT12562</name></trkpt>
<trkpt lat="53.370147" lon="-1.822189"><ele>291</ele><time>2020-08-05T13:09:22Z</time><name>PT12563</name></trkpt>
<trkpt lat="53.370144" lon="-1.822209"><ele>292</ele><time>2020-08-05T13:09:22Z</time><name>PT12564</name></trkpt>
<trkpt lat="53.370138" lon="-1.822227"><ele>293</ele><time>2020-08-05T13:09:24Z</time><name>PT12565</name></trkpt>
<trkpt lat="53.370132" lon="-1.822243"><ele>293</ele><time>2020-08-05T13:09:25Z</time><name>PT12566</name></trkpt>
<trkpt lat="53.370130" lon="-1.822258"><ele>292</ele><time>2020-08-05T13:09:25Z</time><name>PT12567</name></trkpt>
<trkpt lat="53.370125" lon="-1.822281"><ele>295</ele><time>2020-08-05T13:09:27Z</time><name>PT12568</name></trkpt>
<trkpt lat="53.370122" lon="-1.822299"><ele>295</ele><time>2020-08-05T13:09:28Z</time><name>PT12569</name></trkpt>
<trkpt lat="53.370118" lon="-1.822314"><ele>295</ele><time>2020-08-05T13:09:29Z</time><name>PT12570</name></trkpt>
<trkpt lat="53.370114" lon="-1.822329"><ele>295</ele><time>2020-08-05T13:09:30Z</time><name>PT12571</name></trkpt>
<trkpt lat="53.370108" lon="-1.822343"><ele>295</ele><time>2020-08-05T13:09:31Z</time><name>PT12572</name></trkpt>
<trkpt lat="53.370103" lon="-1.822359"><ele>294</ele><time>2020-08-05T13:09:32Z</time><name>PT12573</name></trkpt>
<trkpt lat="53.370100" lon="-1.822376"><ele>295</ele><time>2020-08-05T13:09:33Z</time><name>PT12574</name></trkpt>
<trkpt lat="53.370097" lon="-1.822394"><ele>295</ele><time>2020-08-05T13:09:34Z</time><name>PT12575</name></trkpt>
<trkpt lat="53.370094" lon="-1.822410"><ele>294</ele><time>2020-08-05T13:09:34Z</time><name>PT12576</name></trkpt>
<trkpt lat="53.370090" lon="-1.822427"><ele>294</ele><time>2020-08-05T13:09:36Z</time><name>PT12577</name></trkpt>
<trkpt lat="53.370087" lon="-1.822446"><ele>295</ele><time>2020-08-05T13:09:37Z</time><name>PT12578</name></trkpt>
<trkpt lat="53.370085" lon="-1.822463"><ele>295</ele><time>2020-08-05T13:09:38Z</time><name>PT12579</name></trkpt>
<trkpt lat="53.370084" lon="-1.822479"><ele>295</ele><time>2020-08-05T13:09:39Z</time><name>PT12580</name></trkpt>
<trkpt lat="53.370081" lon="-1.822496"><ele>296</ele><time>2020-08-05T13:09:40Z</time><name>PT12581</name></trkpt>
<trkpt lat="53.370078" lon="-1.822511"><ele>295</ele><time>2020-08-05T13:09:41Z</time><name>PT12582</name></trkpt>
<trkpt lat="53.370073" lon="-1.822524"><ele>294</ele><time>2020-08-05T13:09:42Z</time><name>PT12583</name></trkpt>
<trkpt lat="53.370068" lon="-1.822539"><ele>295</ele><time>2020-08-05T13:09:43Z</time><name>PT12584</name></trkpt>
<trkpt lat="53.370064" lon="-1.822554"><ele>294</ele><time>2020-08-05T13:09:44Z</time><name>PT12585</name></trkpt>
<trkpt lat="53.370061" lon="-1.822568"><ele>294</ele><time>2020-08-05T13:09:45Z</time><name>PT12586</name></trkpt>
<trkpt lat="53.370058" lon="-1.822584"><ele>295</ele><time>2020-08-05T13:09:46Z</time><name>PT12587</name></trkpt>
<trkpt lat="53.370056" lon="-1.822598"><ele>294</ele><time>2020-08-05T13:09:47Z</time><name>PT12588</name></trkpt>
<trkpt lat="53.370052" lon="-1.822608"><ele>294</ele><time>2020-08-05T13:09:48Z</time><name>PT12589</name></trkpt>
<trkpt lat="53.370049" lon="-1.822623"><ele>294</ele><time>2020-08-05T13:09:49Z</time><name>PT12590</name></trkpt>
<trkpt lat="53.370044" lon="-1.822642"><ele>295</ele><time>2020-08-05T13:09:49Z</time><name>PT12591</name></trkpt>
<trkpt lat="53.370041" lon="-1.822660"><ele>295</ele><time>2020-08-05T13:09:51Z</time><name>PT12592</name></trkpt>
<trkpt lat="53.370040" lon="-1.822675"><ele>295</ele><time>2020-08-05T13:09:52Z</time><name>PT12593</name></trkpt>
<trkpt lat="53.370038" lon="-1.822692"><ele>296</ele><time>2020-08-05T13:09:52Z</time><name>PT12594</name></trkpt>
<trkpt lat="53.370036" lon="-1.822708"><ele>296</ele><time>2020-08-05T13:09:54Z</time><name>PT12595</name></trkpt>
<trkpt lat="53.370032" lon="-1.822725"><ele>295</ele><time>2020-08-05T13:09:55Z</time><name>PT12596</name></trkpt>
<trkpt lat="53.370030" lon="-1.822742"><ele>295</ele><time>2020-08-05T13:09:55Z</time><name>PT12597</name></trkpt>
<trkpt lat="53.370028" lon="-1.822760"><ele>295</ele><time>2020-08-05T13:09:57Z</time><name>PT12598</name></trkpt>
<trkpt lat="53.370028" lon="-1.822773"><ele>296</ele><time>2020-08-05T13:09:58Z</time><name>PT12599</name></trkpt>
<trkpt lat="53.370027" lon="-1.822789"><ele>297</ele><time>2020-08-05T13:09:58Z</time><name>PT12600</name></trkpt>
<trkpt lat="53.370023" lon="-1.822802"><ele>296</ele><time>2020-08-05T13:10:00Z</time><name>PT12601</name></trkpt>
<trkpt lat="53.370021" lon="-1.822818"><ele>296</ele><time>2020-08-05T13:10:01Z</time><name>PT12602</name></trkpt>
<trkpt lat="53.370018" lon="-1.822834"><ele>296</ele><time>2020-08-05T13:10:01Z</time><name>PT12603</name></trkpt>
<trkpt lat="53.370016" lon="-1.822850"><ele>297</ele><time>2020-08-05T13:10:03Z</time><name>PT12604</name></trkpt>
<trkpt lat="53.370015" lon="-1.822869"><ele>298</ele><time>2020-08-05T13:10:04Z</time><name>PT12605</name></trkpt>
<trkpt lat="53.370010" lon="-1.822888"><ele>297</ele><time>2020-08-05T13:10:04Z</time><name>PT12606</name></trkpt>
<trkpt lat="53.370005" lon="-1.822905"><ele>297</ele><time>2020-08-05T13:10:06Z</time><name>PT12607</name></trkpt>
<trkpt lat="53.370002" lon="-1.822919"><ele>297</ele><time>2020-08-05T13:10:07Z</time><name>PT12608</name></trkpt>
<trkpt lat="53.370001" lon="-1.822934"><ele>297</ele><time>2020-08-05T13:10:07Z</time><name>PT12609</name></trkpt>
<trkpt lat="53.369998" lon="-1.822951"><ele>298</ele><time>2020-08-05T13:10:09Z</time><name>PT12610</name></trkpt>
<trkpt lat="53.369997" lon="-1.822970"><ele>298</ele><time>2020-08-05T13:10:10Z</time><name>PT12611</name></trkpt>
<trkpt lat="53.369993" lon="-1.822991"><ele>297</ele><time>2020-08-05T13:10:10Z</time><name>PT12612</name></trkpt>
<trkpt lat="53.369989" lon="-1.823011"><ele>298</ele><time>2020-08-05T13:10:12Z</time><name>PT12613</name></trkpt>
<trkpt lat="53.369986" lon="-1.823030"><ele>298</ele><time>2020-08-05T13:10:13Z</time><name>PT12614</name></trkpt>
<trkpt lat="53.369983" lon="-1.823048"><ele>298</ele><time>2020-08-05T13:10:13Z</time><name>PT12615</name></trkpt>
<trkpt lat="53.369981" lon="-1.823065"><ele>299</ele><time>2020-08-05T13:10:15Z</time><name>PT12616</name></trkpt>
<trkpt lat="53.369980" lon="-1.823084"><ele>299</ele><time>2020-08-05T13:10:16Z</time><name>PT12617</name></trkpt>
<trkpt lat="53.369978" lon="-1.823103"><ele>299</ele><time>2020-08-05T13:10:17Z</time><name>PT12618</name></trkpt>
<trkpt lat="53.369974" lon="-1.823120"><ele>298</ele><time>2020-08-05T13:10:18Z</time><name>PT12619</name></trkpt>
<trkpt lat="53.369970" lon="-1.823141"><ele>299</ele><time>2020-08-05T13:10:19Z</time><name>PT12620</name></trkpt>
<trkpt lat="53.369967" lon="-1.823158"><ele>299</ele><time>2020-08-05T13:10:20Z</time><name>PT12621</name></trkpt>
<trkpt lat="53.369967" lon="-1.823174"><ele>299</ele><time>2020-08-05T13:10:21Z</time><name>PT12622</name></trkpt>
<trkpt lat="53.369966" lon="-1.823186"><ele>299</ele><time>2020-08-05T13:10:22Z</time><name>PT12623</name></trkpt>
<trkpt lat="53.369963" lon="-1.823202"><ele>299</ele><time>2020-08-05T13:10:23Z</time><name>PT12624</name></trkpt>
<trkpt lat="53.369960" lon="-1.823220"><ele>299</ele><time>2020-08-05T13:10:24Z</time><name>PT12625</name></trkpt>
<trkpt lat="53.369957" lon="-1.823238"><ele>300</ele><time>2020-08-05T13:10:25Z</time><name>PT12626</name></trkpt>
<trkpt lat="53.369955" lon="-1.823256"><ele>300</ele><time>2020-08-05T13:10:25Z</time><name>PT12627</name></trkpt>
<trkpt lat="53.369952" lon="-1.823277"><ele>300</ele><time>2020-08-05T13:10:27Z</time><name>PT12628</name></trkpt>
<trkpt lat="53.369950" lon="-1.823290"><ele>299</ele><time>2020-08-05T13:10:28Z</time><name>PT12629</name></trkpt>
<trkpt lat="53.369945" lon="-1.823306"><ele>299</ele><time>2020-08-05T13:10:28Z</time><name>PT12630</name></trkpt>
<trkpt lat="53.369942" lon="-1.823325"><ele>299</ele><time>2020-08-05T13:10:30Z</time><name>PT12631</name></trkpt>
<trkpt lat="53.369939" lon="-1.823342"><ele>300</ele><time>2020-08-05T13:10:31Z</time><name>PT12632</name></trkpt>
<trkpt lat="53.369937" lon="-1.823360"><ele>300</ele><time>2020-08-05T13:10:31Z</time><name>PT12633</name></trkpt>
<trkpt lat="53.369935" lon="-1.823376"><ele>300</ele><time>2020-08-05T13:10:33Z</time><name>PT12634</name></trkpt>
<trkpt lat="53.369932" lon="-1.823390"><ele>300</ele><time>2020-08-05T13:10:34Z</time><name>PT12635</name></trkpt>
<trkpt lat="53.369928" lon="-1.823408"><ele>299</ele><time>2020-08-05T13:10:34Z</time><name>PT12636</name></trkpt>
<trkpt lat="53.369924" lon="-1.823429"><ele>300</ele><time>2020-08-05T13:10:36Z</time><name>PT12637</name></trkpt>
<trkpt lat="53.369923" lon="-1.823447"><ele>300</ele><time>2020-08-05T13:10:37Z</time><name>PT12638</name></trkpt>
<trkpt lat="53.369920" lon="-1.823467"><ele>300</ele><time>2020-08-05T13:10:37Z</time><name>PT12639</name></trkpt>
<trkpt lat="53.369917" lon="-1.823484"><ele>301</ele><time>2020-08-05T13:10:39Z</time><name>PT12640</name></trkpt>
<trkpt lat="53.369915" lon="-1.823502"><ele>301</ele><time>2020-08-05T13:10:40Z</time><name>PT12641</name></trkpt>
<trkpt lat="53.369911" lon="-1.823521"><ele>301</ele><time>2020-08-05T13:10:40Z</time><name>PT12642</name></trkpt>
<trkpt lat="53.369908" lon="-1.823541"><ele>300</ele><time>2020-08-05T13:10:42Z</time><name>PT12643</name></trkpt>
<trkpt lat="53.369905" lon="-1.823561"><ele>301</ele><time>2020-08-05T13:10:43Z</time><name>PT12644</name></trkpt>
<trkpt lat="53.369900" lon="-1.823580"><ele>301</ele><time>2020-08-05T13:10:43Z</time><name>PT12645</name></trkpt>
<trkpt lat="53.369896" lon="-1.823598"><ele>301</ele><time>2020-08-05T13:10:45Z</time><name>PT12646</name></trkpt>
<trkpt lat="53.369893" lon="-1.823612"><ele>301</ele><time>2020-08-05T13:10:46Z</time><name>PT12647</name></trkpt>
<trkpt lat="53.369887" lon="-1.823627"><ele>300</ele><time>2020-08-05T13:10:47Z</time><name>PT12648</name></trkpt>
<trkpt lat="53.369883" lon="-1.823641"><ele>301</ele><time>2020-08-05T13:10:48Z</time><name>PT12649</name></trkpt>
<trkpt lat="53.369879" lon="-1.823655"><ele>300</ele><time>2020-08-05T13:10:49Z</time><name>PT12650</name></trkpt>
<trkpt lat="53.369877" lon="-1.823672"><ele>301</ele><time>2020-08-05T13:10:49Z</time><name>PT12651</name></trkpt>
<trkpt lat="53.369874" lon="-1.823687"><ele>301</ele><time>2020-08-05T13:10:51Z</time><name>PT12652</name></trkpt>
<trkpt lat="53.369871" lon="-1.823702"><ele>302</ele><time>2020-08-05T13:10:52Z</time><name>PT12653</name></trkpt>
<trkpt lat="53.369865" lon="-1.823721"><ele>302</ele><time>2020-08-05T13:10:53Z</time><name>PT12654</name></trkpt>
<trkpt lat="53.369862" lon="-1.823733"><ele>302</ele><time>2020-08-05T13:10:54Z</time><name>PT12655</name></trkpt>
<trkpt lat="53.369857" lon="-1.823744"><ele>302</ele><time>2020-08-05T13:10:55Z</time><name>PT12656</name></trkpt>
<trkpt lat="53.369852" lon="-1.823759"><ele>303</ele><time>2020-08-05T13:10:55Z</time><name>PT12657</name></trkpt>
<trkpt lat="53.369846" lon="-1.823772"><ele>302</ele><time>2020-08-05T13:10:57Z</time><name>PT12658</name></trkpt>
<trkpt lat="53.369840" lon="-1.823783"><ele>303</ele><time>2020-08-05T13:10:58Z</time><name>PT12659</name></trkpt>
<trkpt lat="53.369835" lon="-1.823793"><ele>303</ele><time>2020-08-05T13:10:58Z</time><name>PT12660</name></trkpt>
<trkpt lat="53.369831" lon="-1.823806"><ele>303</ele><time>2020-08-05T13:11:00Z</time><name>PT12661</name></trkpt>
<trkpt lat="53.369828" lon="-1.823819"><ele>303</ele><time>2020-08-05T13:11:01Z</time><name>PT12662</name></trkpt>
<trkpt lat="53.369825" lon="-1.823831"><ele>303</ele><time>2020-08-05T13:11:01Z</time><name>PT12663</name></trkpt>
<trkpt lat="53.369822" lon="-1.823846"><ele>302</ele><time>2020-08-05T13:11:03Z</time><name>PT12664</name></trkpt>
<trkpt lat="53.369816" lon="-1.823864"><ele>302</ele><time>2020-08-05T13:11:04Z</time><name>PT12665</name></trkpt>
<trkpt lat="53.369809" lon="-1.823881"><ele>303</ele><time>2020-08-05T13:11:04Z</time><name>PT12666</name></trkpt>
<trkpt lat="53.369807" lon="-1.823897"><ele>303</ele><time>2020-08-05T13:11:06Z</time><name>PT12667</name></trkpt>
<trkpt lat="53.369805" lon="-1.823911"><ele>302</ele><time>2020-08-05T13:11:07Z</time><name>PT12668</name></trkpt>
<trkpt lat="53.369807" lon="-1.823928"><ele>303</ele><time>2020-08-05T13:11:07Z</time><name>PT12669</name></trkpt>
<trkpt lat="53.369808" lon="-1.823944"><ele>303</ele><time>2020-08-05T13:11:09Z</time><name>PT12670</name></trkpt>
<trkpt lat="53.369804" lon="-1.823960"><ele>303</ele><time>2020-08-05T13:11:10Z</time><name>PT12671</name></trkpt>
<trkpt lat="53.369802" lon="-1.823975"><ele>303</ele><time>2020-08-05T13:11:10Z</time><name>PT12672</name></trkpt>
<trkpt lat="53.369802" lon="-1.823992"><ele>303</ele><time>2020-08-05T13:11:12Z</time><name>PT12673</name></trkpt>
<trkpt lat="53.369804" lon="-1.824008"><ele>303</ele><time>2020-08-05T13:11:13Z</time><name>PT12674</name></trkpt>
<trkpt lat="53.369809" lon="-1.824025"><ele>304</ele><time>2020-08-05T13:11:13Z</time><name>PT12675</name></trkpt>
<trkpt lat="53.369812" lon="-1.824044"><ele>304</ele><time>2020-08-05T13:11:15Z</time><name>PT12676</name></trkpt>
<trkpt lat="53.369814" lon="-1.824060"><ele>305</ele><time>2020-08-05T13:11:16Z</time><name>PT12677</name></trkpt>
<trkpt lat="53.369812" lon="-1.824076"><ele>304</ele><time>2020-08-05T13:11:16Z</time><name>PT12678</name></trkpt>
<trkpt lat="53.369810" lon="-1.824094"><ele>304</ele><time>2020-08-05T13:11:18Z</time><name>PT12679</name></trkpt>
<trkpt lat="53.369808" lon="-1.824114"><ele>304</ele><time>2020-08-05T13:11:19Z</time><name>PT12680</name></trkpt>
<trkpt lat="53.369811" lon="-1.824131"><ele>305</ele><time>2020-08-05T13:11:19Z</time><name>PT12681</name></trkpt>
<trkpt lat="53.369810" lon="-1.824150"><ele>305</ele><time>2020-08-05T13:11:21Z</time><name>PT12682</name></trkpt>
<trkpt lat="53.369807" lon="-1.824166"><ele>305</ele><time>2020-08-05T13:11:22Z</time><name>PT12683</name></trkpt>
<trkpt lat="53.369804" lon="-1.824178"><ele>306</ele><time>2020-08-05T13:11:22Z</time><name>PT12684</name></trkpt>
<trkpt lat="53.369802" lon="-1.824190"><ele>306</ele><time>2020-08-05T13:11:24Z</time><name>PT12685</name></trkpt>
<trkpt lat="53.369798" lon="-1.824203"><ele>306</ele><time>2020-08-05T13:11:25Z</time><name>PT12686</name></trkpt>
<trkpt lat="53.369793" lon="-1.824213"><ele>306</ele><time>2020-08-05T13:11:25Z</time><name>PT12687</name></trkpt>
<trkpt lat="53.369792" lon="-1.824215"><ele>306</ele><time>2020-08-05T13:11:27Z</time><name>PT12688</name></trkpt>
<trkpt lat="53.369791" lon="-1.824216"><ele>306</ele><time>2020-08-05T13:11:28Z</time><name>PT12689</name></trkpt>
<trkpt lat="53.369790" lon="-1.824219"><ele>306</ele><time>2020-08-05T13:11:28Z</time><name>PT12690</name></trkpt>
<trkpt lat="53.369788" lon="-1.824223"><ele>306</ele><time>2020-08-05T13:11:30Z</time><name>PT12691</name></trkpt>
<trkpt lat="53.369786" lon="-1.824224"><ele>307</ele><time>2020-08-05T13:11:33Z</time><name>PT12692</name></trkpt>
<trkpt lat="53.369790" lon="-1.824236"><ele>306</ele><time>2020-08-05T13:11:34Z</time><name>PT12693</name></trkpt>
<trkpt lat="53.369784" lon="-1.824236"><ele>306</ele><time>2020-08-05T13:11:37Z</time><name>PT12694</name></trkpt>
<trkpt lat="53.369769" lon="-1.824252"><ele>306</ele><time>2020-08-05T13:11:39Z</time><name>PT12695</name></trkpt>
<trkpt lat="53.369752" lon="-1.824269"><ele>305</ele><time>2020-08-05T13:11:40Z</time><name>PT12696</name></trkpt>
<trkpt lat="53.369736" lon="-1.824280"><ele>305</ele><time>2020-08-05T13:11:40Z</time><name>PT12697</name></trkpt>
<trkpt lat="53.369723" lon="-1.824294"><ele>305</ele><time>2020-08-05T13:11:42Z</time><name>PT12698</name></trkpt>
<trkpt lat="53.369712" lon="-1.824300"><ele>305</ele><time>2020-08-05T13:11:43Z</time><name>PT12699</name></trkpt>
<trkpt lat="53.369700" lon="-1.824308"><ele>305</ele><time>2020-08-05T13:11:43Z</time><name>PT12700</name></trkpt>
<trkpt lat="53.369686" lon="-1.824319"><ele>305</ele><time>2020-08-05T13:11:45Z</time><name>PT12701</name></trkpt>
<trkpt lat="53.369673" lon="-1.824330"><ele>305</ele><time>2020-08-05T13:11:46Z</time><name>PT12702</name></trkpt>
<trkpt lat="53.369663" lon="-1.824343"><ele>305</ele><time>2020-08-05T13:11:46Z</time><name>PT12703</name></trkpt>
<trkpt lat="53.369655" lon="-1.824358"><ele>305</ele><time>2020-08-05T13:11:48Z</time><name>PT12704</name></trkpt>
<trkpt lat="53.369645" lon="-1.824372"><ele>305</ele><time>2020-08-05T13:11:49Z</time><name>PT12705</name></trkpt>
<trkpt lat="53.369636" lon="-1.824387"><ele>305</ele><time>2020-08-05T13:11:49Z</time><name>PT12706</name></trkpt>
<trkpt lat="53.369626" lon="-1.824403"><ele>305</ele><time>2020-08-05T13:11:51Z</time><name>PT12707</name></trkpt>
<trkpt lat="53.369618" lon="-1.824417"><ele>305</ele><time>2020-08-05T13:11:52Z</time><name>PT12708</name></trkpt>
<trkpt lat="53.369610" lon="-1.824429"><ele>305</ele><time>2020-08-05T13:11:52Z</time><name>PT12709</name></trkpt>
<trkpt lat="53.369601" lon="-1.824443"><ele>305</ele><time>2020-08-05T13:11:54Z</time><name>PT12710</name></trkpt>
<trkpt lat="53.369594" lon="-1.824460"><ele>305</ele><time>2020-08-05T13:11:55Z</time><name>PT12711</name></trkpt>
<trkpt lat="53.369589" lon="-1.824478"><ele>305</ele><time>2020-08-05T13:11:55Z</time><name>PT12712</name></trkpt>
<trkpt lat="53.369582" lon="-1.824494"><ele>306</ele><time>2020-08-05T13:11:57Z</time><name>PT12713</name></trkpt>
<trkpt lat="53.369576" lon="-1.824508"><ele>307</ele><time>2020-08-05T13:11:58Z</time><name>PT12714</name></trkpt>
<trkpt lat="53.369569" lon="-1.824526"><ele>307</ele><time>2020-08-05T13:11:58Z</time><name>PT12715</name></trkpt>
<trkpt lat="53.369563" lon="-1.824545"><ele>307</ele><time>2020-08-05T13:12:00Z</time><name>PT12716</name></trkpt>
<trkpt lat="53.369557" lon="-1.824559"><ele>307</ele><time>2020-08-05T13:12:01Z</time><name>PT12717</name></trkpt>
<trkpt lat="53.369554" lon="-1.824576"><ele>307</ele><time>2020-08-05T13:12:01Z</time><name>PT12718</name></trkpt>
<trkpt lat="53.369547" lon="-1.824592"><ele>307</ele><time>2020-08-05T13:12:03Z</time><name>PT12719</name></trkpt>
<trkpt lat="53.369543" lon="-1.824605"><ele>308</ele><time>2020-08-05T13:12:04Z</time><name>PT12720</name></trkpt>
<trkpt lat="53.369535" lon="-1.824621"><ele>308</ele><time>2020-08-05T13:12:04Z</time><name>PT12721</name></trkpt>
<trkpt lat="53.369525" lon="-1.824637"><ele>308</ele><time>2020-08-05T13:12:06Z</time><name>PT12722</name></trkpt>
<trkpt lat="53.369518" lon="-1.824655"><ele>308</ele><time>2020-08-05T13:12:07Z</time><name>PT12723</name></trkpt>
<trkpt lat="53.369511" lon="-1.824668"><ele>308</ele><time>2020-08-05T13:12:07Z</time><name>PT12724</name></trkpt>
<trkpt lat="53.369504" lon="-1.824683"><ele>308</ele><time>2020-08-05T13:12:09Z</time><name>PT12725</name></trkpt>
<trkpt lat="53.369496" lon="-1.824695"><ele>308</ele><time>2020-08-05T13:12:10Z</time><name>PT12726</name></trkpt>
<trkpt lat="53.369489" lon="-1.824707"><ele>308</ele><time>2020-08-05T13:12:11Z</time><name>PT12727</name></trkpt>
<trkpt lat="53.369481" lon="-1.824721"><ele>308</ele><time>2020-08-05T13:12:12Z</time><name>PT12728</name></trkpt>
<trkpt lat="53.369474" lon="-1.824733"><ele>308</ele><time>2020-08-05T13:12:13Z</time><name>PT12729</name></trkpt>
<trkpt lat="53.369468" lon="-1.824745"><ele>308</ele><time>2020-08-05T13:12:14Z</time><name>PT12730</name></trkpt>
<trkpt lat="53.369461" lon="-1.824761"><ele>308</ele><time>2020-08-05T13:12:15Z</time><name>PT12731</name></trkpt>
<trkpt lat="53.369454" lon="-1.824776"><ele>308</ele><time>2020-08-05T13:12:16Z</time><name>PT12732</name></trkpt>
<trkpt lat="53.369447" lon="-1.824791"><ele>308</ele><time>2020-08-05T13:12:16Z</time><name>PT12733</name></trkpt>
<trkpt lat="53.369440" lon="-1.824809"><ele>309</ele><time>2020-08-05T13:12:18Z</time><name>PT12734</name></trkpt>
<trkpt lat="53.369432" lon="-1.824825"><ele>309</ele><time>2020-08-05T13:12:19Z</time><name>PT12735</name></trkpt>
<trkpt lat="53.369426" lon="-1.824841"><ele>310</ele><time>2020-08-05T13:12:20Z</time><name>PT12736</name></trkpt>
<trkpt lat="53.369419" lon="-1.824857"><ele>310</ele><time>2020-08-05T13:12:21Z</time><name>PT12737</name></trkpt>
<trkpt lat="53.369412" lon="-1.824874"><ele>310</ele><time>2020-08-05T13:12:22Z</time><name>PT12738</name></trkpt>
<trkpt lat="53.369403" lon="-1.824887"><ele>310</ele><time>2020-08-05T13:12:23Z</time><name>PT12739</name></trkpt>
<trkpt lat="53.369395" lon="-1.824901"><ele>310</ele><time>2020-08-05T13:12:24Z</time><name>PT12740</name></trkpt>
<trkpt lat="53.369387" lon="-1.824915"><ele>310</ele><time>2020-08-05T13:12:25Z</time><name>PT12741</name></trkpt>
<trkpt lat="53.369381" lon="-1.824925"><ele>310</ele><time>2020-08-05T13:12:26Z</time><name>PT12742</name></trkpt>
<trkpt lat="53.369373" lon="-1.824938"><ele>310</ele><time>2020-08-05T13:12:27Z</time><name>PT12743</name></trkpt>
<trkpt lat="53.369364" lon="-1.824953"><ele>310</ele><time>2020-08-05T13:12:28Z</time><name>PT12744</name></trkpt>
<trkpt lat="53.369356" lon="-1.824968"><ele>310</ele><time>2020-08-05T13:12:28Z</time><name>PT12745</name></trkpt>
<trkpt lat="53.369348" lon="-1.824982"><ele>310</ele><time>2020-08-05T13:12:30Z</time><name>PT12746</name></trkpt>
<trkpt lat="53.369340" lon="-1.824995"><ele>310</ele><time>2020-08-05T13:12:31Z</time><name>PT12747</name></trkpt>
<trkpt lat="53.369333" lon="-1.825008"><ele>310</ele><time>2020-08-05T13:12:31Z</time><name>PT12748</name></trkpt>
<trkpt lat="53.369324" lon="-1.825023"><ele>310</ele><time>2020-08-05T13:12:33Z</time><name>PT12749</name></trkpt>
<trkpt lat="53.369317" lon="-1.825039"><ele>310</ele><time>2020-08-05T13:12:34Z</time><name>PT12750</name></trkpt>
<trkpt lat="53.369311" lon="-1.825054"><ele>311</ele><time>2020-08-05T13:12:34Z</time><name>PT12751</name></trkpt>
<trkpt lat="53.369304" lon="-1.825068"><ele>310</ele><time>2020-08-05T13:12:36Z</time><name>PT12752</name></trkpt>
<trkpt lat="53.369299" lon="-1.825083"><ele>309</ele><time>2020-08-05T13:12:37Z</time><name>PT12753</name></trkpt>
<trkpt lat="53.369293" lon="-1.825096"><ele>309</ele><time>2020-08-05T13:12:37Z</time><name>PT12754</name></trkpt>
<trkpt lat="53.369286" lon="-1.825108"><ele>309</ele><time>2020-08-05T13:12:39Z</time><name>PT12755</name></trkpt>
<trkpt lat="53.369280" lon="-1.825121"><ele>309</ele><time>2020-08-05T13:12:40Z</time><name>PT12756</name></trkpt>
<trkpt lat="53.369275" lon="-1.825137"><ele>309</ele><time>2020-08-05T13:12:40Z</time><name>PT12757</name></trkpt>
<trkpt lat="53.369271" lon="-1.825156"><ele>310</ele><time>2020-08-05T13:12:42Z</time><name>PT12758</name></trkpt>
<trkpt lat="53.369266" lon="-1.825173"><ele>309</ele><time>2020-08-05T13:12:43Z</time><name>PT12759</name></trkpt>
<trkpt lat="53.369260" lon="-1.825187"><ele>309</ele><time>2020-08-05T13:12:43Z</time><name>PT12760</name></trkpt>
<trkpt lat="53.369255" lon="-1.825201"><ele>309</ele><time>2020-08-05T13:12:45Z</time><name>PT12761</name></trkpt>
<trkpt lat="53.369249" lon="-1.825218"><ele>309</ele><time>2020-08-05T13:12:46Z</time><name>PT12762</name></trkpt>
<trkpt lat="53.369243" lon="-1.825234"><ele>309</ele><time>2020-08-05T13:12:46Z</time><name>PT12763</name></trkpt>
<trkpt lat="53.369237" lon="-1.825251"><ele>310</ele><time>2020-08-05T13:12:48Z</time><name>PT12764</name></trkpt>
<trkpt lat="53.369230" lon="-1.825269"><ele>310</ele><time>2020-08-05T13:12:49Z</time><name>PT12765</name></trkpt>
<trkpt lat="53.369222" lon="-1.825286"><ele>310</ele><time>2020-08-05T13:12:49Z</time><name>PT12766</name></trkpt>
<trkpt lat="53.369213" lon="-1.825302"><ele>310</ele><time>2020-08-05T13:12:51Z</time><name>PT12767</name></trkpt>
<trkpt lat="53.369206" lon="-1.825317"><ele>310</ele><time>2020-08-05T13:12:52Z</time><name>PT12768</name></trkpt>
<trkpt lat="53.369200" lon="-1.825332"><ele>310</ele><time>2020-08-05T13:12:52Z</time><name>PT12769</name></trkpt>
<trkpt lat="53.369193" lon="-1.825349"><ele>310</ele><time>2020-08-05T13:12:54Z</time><name>PT12770</name></trkpt>
<trkpt lat="53.369187" lon="-1.825369"><ele>311</ele><time>2020-08-05T13:12:55Z</time><name>PT12771</name></trkpt>
<trkpt lat="53.369180" lon="-1.825385"><ele>311</ele><time>2020-08-05T13:12:55Z</time><name>PT12772</name></trkpt>
<trkpt lat="53.369172" lon="-1.825403"><ele>311</ele><time>2020-08-05T13:12:57Z</time><name>PT12773</name></trkpt>
<trkpt lat="53.369164" lon="-1.825420"><ele>311</ele><time>2020-08-05T13:12:58Z</time><name>PT12774</name></trkpt>
<trkpt lat="53.369160" lon="-1.825437"><ele>312</ele><time>2020-08-05T13:12:58Z</time><name>PT12775</name></trkpt>
<trkpt lat="53.369155" lon="-1.825453"><ele>312</ele><time>2020-08-05T13:13:00Z</time><name>PT12776</name></trkpt>
<trkpt lat="53.369149" lon="-1.825468"><ele>312</ele><time>2020-08-05T13:13:01Z</time><name>PT12777</name></trkpt>
<trkpt lat="53.369142" lon="-1.825481"><ele>312</ele><time>2020-08-05T13:13:01Z</time><name>PT12778</name></trkpt>
<trkpt lat="53.369138" lon="-1.825500"><ele>312</ele><time>2020-08-05T13:13:03Z</time><name>PT12779</name></trkpt>
<trkpt lat="53.369132" lon="-1.825515"><ele>313</ele><time>2020-08-05T13:13:04Z</time><name>PT12780</name></trkpt>
<trkpt lat="53.369125" lon="-1.825532"><ele>312</ele><time>2020-08-05T13:13:04Z</time><name>PT12781</name></trkpt>
<trkpt lat="53.369118" lon="-1.825548"><ele>313</ele><time>2020-08-05T13:13:06Z</time><name>PT12782</name></trkpt>
<trkpt lat="53.369112" lon="-1.825563"><ele>313</ele><time>2020-08-05T13:13:07Z</time><name>PT12783</name></trkpt>
<trkpt lat="53.369106" lon="-1.825580"><ele>313</ele><time>2020-08-05T13:13:07Z</time><name>PT12784</name></trkpt>
<trkpt lat="53.369103" lon="-1.825597"><ele>313</ele><time>2020-08-05T13:13:09Z</time><name>PT12785</name></trkpt>
<trkpt lat="53.369100" lon="-1.825611"><ele>314</ele><time>2020-08-05T13:13:10Z</time><name>PT12786</name></trkpt>
<trkpt lat="53.369097" lon="-1.825627"><ele>314</ele><time>2020-08-05T13:13:10Z</time><name>PT12787</name></trkpt>
<trkpt lat="53.369093" lon="-1.825646"><ele>314</ele><time>2020-08-05T13:13:12Z</time><name>PT12788</name></trkpt>
<trkpt lat="53.369087" lon="-1.825663"><ele>314</ele><time>2020-08-05T13:13:13Z</time><name>PT12789</name></trkpt>
<trkpt lat="53.369082" lon="-1.825680"><ele>313</ele><time>2020-08-05T13:13:14Z</time><name>PT12790</name></trkpt>
<trkpt lat="53.369076" lon="-1.825695"><ele>313</ele><time>2020-08-05T13:13:15Z</time><name>PT12791</name></trkpt>
<trkpt lat="53.369075" lon="-1.825700"><ele>313</ele><time>2020-08-05T13:13:16Z</time><name>PT12792</name></trkpt>
<trkpt lat="53.369073" lon="-1.825706"><ele>313</ele><time>2020-08-05T13:13:16Z</time><name>PT12793</name></trkpt>
<trkpt lat="53.369073" lon="-1.825714"><ele>313</ele><time>2020-08-05T13:13:18Z</time><name>PT12794</name></trkpt>
<trkpt lat="53.369069" lon="-1.825729"><ele>313</ele><time>2020-08-05T13:13:19Z</time><name>PT12795</name></trkpt>
<trkpt lat="53.369066" lon="-1.825748"><ele>313</ele><time>2020-08-05T13:13:20Z</time><name>PT12796</name></trkpt>
<trkpt lat="53.369063" lon="-1.825765"><ele>313</ele><time>2020-08-05T13:13:21Z</time><name>PT12797</name></trkpt>
<trkpt lat="53.369061" lon="-1.825780"><ele>313</ele><time>2020-08-05T13:13:22Z</time><name>PT12798</name></trkpt>
<trkpt lat="53.369061" lon="-1.825797"><ele>313</ele><time>2020-08-05T13:13:23Z</time><name>PT12799</name></trkpt>
<trkpt lat="53.369059" lon="-1.825817"><ele>313</ele><time>2020-08-05T13:13:24Z</time><name>PT12800</name></trkpt>
<trkpt lat="53.369058" lon="-1.825830"><ele>313</ele><time>2020-08-05T13:13:25Z</time><name>PT12801</name></trkpt>
<trkpt lat="53.369053" lon="-1.825845"><ele>313</ele><time>2020-08-05T13:13:26Z</time><name>PT12802</name></trkpt>
<trkpt lat="53.369048" lon="-1.825861"><ele>313</ele><time>2020-08-05T13:13:27Z</time><name>PT12803</name></trkpt>
<trkpt lat="53.369043" lon="-1.825878"><ele>313</ele><time>2020-08-05T13:13:28Z</time><name>PT12804</name></trkpt>
<trkpt lat="53.369038" lon="-1.825894"><ele>313</ele><time>2020-08-05T13:13:28Z</time><name>PT12805</name></trkpt>
<trkpt lat="53.369033" lon="-1.825907"><ele>314</ele><time>2020-08-05T13:13:30Z</time><name>PT12806</name></trkpt>
<trkpt lat="53.369029" lon="-1.825920"><ele>314</ele><time>2020-08-05T13:13:31Z</time><name>PT12807</name></trkpt>
<trkpt lat="53.369027" lon="-1.825928"><ele>314</ele><time>2020-08-05T13:13:31Z</time><name>PT12808</name></trkpt>
<trkpt lat="53.369023" lon="-1.825934"><ele>315</ele><time>2020-08-05T13:13:33Z</time><name>PT12809</name></trkpt>
<trkpt lat="53.369019" lon="-1.825936"><ele>315</ele><time>2020-08-05T13:13:34Z</time><name>PT12810</name></trkpt>
<trkpt lat="53.369015" lon="-1.825944"><ele>315</ele><time>2020-08-05T13:13:34Z</time><name>PT12811</name></trkpt>
<trkpt lat="53.369011" lon="-1.825952"><ele>315</ele><time>2020-08-05T13:13:36Z</time><name>PT12812</name></trkpt>
<trkpt lat="53.369010" lon="-1.825956"><ele>314</ele><time>2020-08-05T13:13:37Z</time><name>PT12813</name></trkpt>
<trkpt lat="53.369011" lon="-1.825953"><ele>314</ele><time>2020-08-05T13:13:37Z</time><name>PT12814</name></trkpt>
<trkpt lat="53.369014" lon="-1.825954"><ele>315</ele><time>2020-08-05T13:13:39Z</time><name>PT12815</name></trkpt>
<trkpt lat="53.369016" lon="-1.825968"><ele>315</ele><time>2020-08-05T13:13:42Z</time><name>PT12816</name></trkpt>
<trkpt lat="53.369009" lon="-1.825998"><ele>315</ele><time>2020-08-05T13:13:43Z</time><name>PT12817</name></trkpt>
<trkpt lat="53.369003" lon="-1.826021"><ele>315</ele><time>2020-08-05T13:13:43Z</time><name>PT12818</name></trkpt>
<trkpt lat="53.368990" lon="-1.826042"><ele>315</ele><time>2020-08-05T13:13:45Z</time><name>PT12819</name></trkpt>
<trkpt lat="53.368985" lon="-1.826069"><ele>315</ele><time>2020-08-05T13:13:46Z</time><name>PT12820</name></trkpt>
<trkpt lat="53.368976" lon="-1.826095"><ele>315</ele><time>2020-08-05T13:13:46Z</time><name>PT12821</name></trkpt>
<trkpt lat="53.368971" lon="-1.826117"><ele>316</ele><time>2020-08-05T13:13:48Z</time><name>PT12822</name></trkpt>
<trkpt lat="53.368965" lon="-1.826136"><ele>316</ele><time>2020-08-05T13:13:49Z</time><name>PT12823</name></trkpt>
<trkpt lat="53.368961" lon="-1.826160"><ele>316</ele><time>2020-08-05T13:13:49Z</time><name>PT12824</name></trkpt>
<trkpt lat="53.368955" lon="-1.826182"><ele>317</ele><time>2020-08-05T13:13:51Z</time><name>PT12825</name></trkpt>
<trkpt lat="53.368949" lon="-1.826205"><ele>316</ele><time>2020-08-05T13:13:52Z</time><name>PT12826</name></trkpt>
<trkpt lat="53.368944" lon="-1.826222"><ele>316</ele><time>2020-08-05T13:13:52Z</time><name>PT12827</name></trkpt>
<trkpt lat="53.368940" lon="-1.826241"><ele>317</ele><time>2020-08-05T13:13:54Z</time><name>PT12828</name></trkpt>
<trkpt lat="53.368934" lon="-1.826263"><ele>317</ele><time>2020-08-05T13:13:55Z</time><name>PT12829</name></trkpt>
<trkpt lat="53.368930" lon="-1.826283"><ele>317</ele><time>2020-08-05T13:13:55Z</time><name>PT12830</name></trkpt>
<trkpt lat="53.368926" lon="-1.826303"><ele>317</ele><time>2020-08-05T13:13:57Z</time><name>PT12831</name></trkpt>
<trkpt lat="53.368921" lon="-1.826323"><ele>318</ele><time>2020-08-05T13:13:58Z</time><name>PT12832</name></trkpt>
<trkpt lat="53.368916" lon="-1.826343"><ele>317</ele><time>2020-08-05T13:13:58Z</time><name>PT12833</name></trkpt>
<trkpt lat="53.368908" lon="-1.826364"><ele>317</ele><time>2020-08-05T13:14:00Z</time><name>PT12834</name></trkpt>
<trkpt lat="53.368901" lon="-1.826382"><ele>317</ele><time>2020-08-05T13:14:01Z</time><name>PT12835</name></trkpt>
<trkpt lat="53.368894" lon="-1.826398"><ele>318</ele><time>2020-08-05T13:14:01Z</time><name>PT12836</name></trkpt>
<trkpt lat="53.368885" lon="-1.826415"><ele>318</ele><time>2020-08-05T13:14:03Z</time><name>PT12837</name></trkpt>
<trkpt lat="53.368879" lon="-1.826432"><ele>318</ele><time>2020-08-05T13:14:04Z</time><name>PT12838</name></trkpt>
<trkpt lat="53.368876" lon="-1.826452"><ele>318</ele><time>2020-08-05T13:14:04Z</time><name>PT12839</name></trkpt>
<trkpt lat="53.368872" lon="-1.826469"><ele>318</ele><time>2020-08-05T13:14:06Z</time><name>PT12840</name></trkpt>
<trkpt lat="53.368872" lon="-1.826489"><ele>319</ele><time>2020-08-05T13:14:07Z</time><name>PT12841</name></trkpt>
<trkpt lat="53.368868" lon="-1.826510"><ele>320</ele><time>2020-08-05T13:14:07Z</time><name>PT12842</name></trkpt>
<trkpt lat="53.368864" lon="-1.826527"><ele>320</ele><time>2020-08-05T13:14:09Z</time><name>PT12843</name></trkpt>
<trkpt lat="53.368860" lon="-1.826543"><ele>319</ele><time>2020-08-05T13:14:10Z</time><name>PT12844</name></trkpt>
<trkpt lat="53.368855" lon="-1.826556"><ele>318</ele><time>2020-08-05T13:14:10Z</time><name>PT12845</name></trkpt>
<trkpt lat="53.368849" lon="-1.826576"><ele>318</ele><time>2020-08-05T13:14:12Z</time><name>PT12846</name></trkpt>
<trkpt lat="53.368844" lon="-1.826596"><ele>319</ele><time>2020-08-05T13:14:13Z</time><name>PT12847</name></trkpt>
<trkpt lat="53.368839" lon="-1.826614"><ele>319</ele><time>2020-08-05T13:14:13Z</time><name>PT12848</name></trkpt>
<trkpt lat="53.368835" lon="-1.826631"><ele>319</ele><time>2020-08-05T13:14:15Z</time><name>PT12849</name></trkpt>
<trkpt lat="53.368832" lon="-1.826647"><ele>319</ele><time>2020-08-05T13:14:16Z</time><name>PT12850</name></trkpt>
<trkpt lat="53.368827" lon="-1.826664"><ele>319</ele><time>2020-08-05T13:14:16Z</time><name>PT12851</name></trkpt>
<trkpt lat="53.368821" lon="-1.826681"><ele>319</ele><time>2020-08-05T13:14:18Z</time><name>PT12852</name></trkpt>
<trkpt lat="53.368813" lon="-1.826699"><ele>319</ele><time>2020-08-05T13:14:19Z</time><name>PT12853</name></trkpt>
<trkpt lat="53.368808" lon="-1.826717"><ele>319</ele><time>2020-08-05T13:14:19Z</time><name>PT12854</name></trkpt>
<trkpt lat="53.368802" lon="-1.826738"><ele>320</ele><time>2020-08-05T13:14:21Z</time><name>PT12855</name></trkpt>
<trkpt lat="53.368796" lon="-1.826758"><ele>320</ele><time>2020-08-05T13:14:22Z</time><name>PT12856</name></trkpt>
<trkpt lat="53.368791" lon="-1.826775"><ele>319</ele><time>2020-08-05T13:14:22Z</time><name>PT12857</name></trkpt>
<trkpt lat="53.368787" lon="-1.826791"><ele>319</ele><time>2020-08-05T13:14:24Z</time><name>PT12858</name></trkpt>
<trkpt lat="53.368784" lon="-1.826806"><ele>318</ele><time>2020-08-05T13:14:25Z</time><name>PT12859</name></trkpt>
<trkpt lat="53.368780" lon="-1.826823"><ele>319</ele><time>2020-08-05T13:14:25Z</time><name>PT12860</name></trkpt>
<trkpt lat="53.368779" lon="-1.826840"><ele>319</ele><time>2020-08-05T13:14:27Z</time><name>PT12861</name></trkpt>
<trkpt lat="53.368777" lon="-1.826856"><ele>319</ele><time>2020-08-05T13:14:28Z</time><name>PT12862</name></trkpt>
<trkpt lat="53.368773" lon="-1.826876"><ele>319</ele><time>2020-08-05T13:14:28Z</time><name>PT12863</name></trkpt>
<trkpt lat="53.368769" lon="-1.826892"><ele>318</ele><time>2020-08-05T13:14:30Z</time><name>PT12864</name></trkpt>
<trkpt lat="53.368768" lon="-1.826910"><ele>318</ele><time>2020-08-05T13:14:31Z</time><name>PT12865</name></trkpt>
<trkpt lat="53.368766" lon="-1.826926"><ele>318</ele><time>2020-08-05T13:14:31Z</time><name>PT12866</name></trkpt>
<trkpt lat="53.368765" lon="-1.826944"><ele>318</ele><time>2020-08-05T13:14:33Z</time><name>PT12867</name></trkpt>
<trkpt lat="53.368761" lon="-1.826961"><ele>318</ele><time>2020-08-05T13:14:34Z</time><name>PT12868</name></trkpt>
<trkpt lat="53.368759" lon="-1.826977"><ele>318</ele><time>2020-08-05T13:14:35Z</time><name>PT12869</name></trkpt>
<trkpt lat="53.368756" lon="-1.826995"><ele>318</ele><time>2020-08-05T13:14:36Z</time><name>PT12870</name></trkpt>
<trkpt lat="53.368751" lon="-1.827014"><ele>318</ele><time>2020-08-05T13:14:37Z</time><name>PT12871</name></trkpt>
<trkpt lat="53.368749" lon="-1.827034"><ele>319</ele><time>2020-08-05T13:14:38Z</time><name>PT12872</name></trkpt>
<trkpt lat="53.368746" lon="-1.827054"><ele>318</ele><time>2020-08-05T13:14:39Z</time><name>PT12873</name></trkpt>
<trkpt lat="53.368742" lon="-1.827071"><ele>318</ele><time>2020-08-05T13:14:40Z</time><name>PT12874</name></trkpt>
<trkpt lat="53.368738" lon="-1.827090"><ele>318</ele><time>2020-08-05T13:14:41Z</time><name>PT12875</name></trkpt>
<trkpt lat="53.368732" lon="-1.827113"><ele>318</ele><time>2020-08-05T13:14:42Z</time><name>PT12876</name></trkpt>
<trkpt lat="53.368728" lon="-1.827130"><ele>318</ele><time>2020-08-05T13:14:43Z</time><name>PT12877</name></trkpt>
<trkpt lat="53.368725" lon="-1.827148"><ele>318</ele><time>2020-08-05T13:14:44Z</time><name>PT12878</name></trkpt>
<trkpt lat="53.368725" lon="-1.827165"><ele>319</ele><time>2020-08-05T13:14:45Z</time><name>PT12879</name></trkpt>
<trkpt lat="53.368725" lon="-1.827183"><ele>320</ele><time>2020-08-05T13:14:46Z</time><name>PT12880</name></trkpt>
<trkpt lat="53.368728" lon="-1.827195"><ele>320</ele><time>2020-08-05T13:14:47Z</time><name>PT12881</name></trkpt>
<trkpt lat="53.368729" lon="-1.827207"><ele>320</ele><time>2020-08-05T13:14:48Z</time><name>PT12882</name></trkpt>
<trkpt lat="53.368728" lon="-1.827222"><ele>320</ele><time>2020-08-05T13:14:49Z</time><name>PT12883</name></trkpt>
<trkpt lat="53.368727" lon="-1.827234"><ele>320</ele><time>2020-08-05T13:14:50Z</time><name>PT12884</name></trkpt>
<trkpt lat="53.368724" lon="-1.827251"><ele>321</ele><time>2020-08-05T13:14:51Z</time><name>PT12885</name></trkpt>
<trkpt lat="53.368722" lon="-1.827261"><ele>321</ele><time>2020-08-05T13:14:52Z</time><name>PT12886</name></trkpt>
<trkpt lat="53.368719" lon="-1.827273"><ele>320</ele><time>2020-08-05T13:14:53Z</time><name>PT12887</name></trkpt>
<trkpt lat="53.368719" lon="-1.827286"><ele>321</ele><time>2020-08-05T13:14:54Z</time><name>PT12888</name></trkpt>
<trkpt lat="53.368720" lon="-1.827299"><ele>320</ele><time>2020-08-05T13:14:55Z</time><name>PT12889</name></trkpt>
<trkpt lat="53.368720" lon="-1.827313"><ele>320</ele><time>2020-08-05T13:14:55Z</time><name>PT12890</name></trkpt>
<trkpt lat="53.368720" lon="-1.827330"><ele>321</ele><time>2020-08-05T13:14:57Z</time><name>PT12891</name></trkpt>
<trkpt lat="53.368719" lon="-1.827345"><ele>321</ele><time>2020-08-05T13:14:58Z</time><name>PT12892</name></trkpt>
<trkpt lat="53.368718" lon="-1.827357"><ele>322</ele><time>2020-08-05T13:14:58Z</time><name>PT12893</name></trkpt>
<trkpt lat="53.368715" lon="-1.827366"><ele>322</ele><time>2020-08-05T13:15:00Z</time><name>PT12894</name></trkpt>
<trkpt lat="53.368714" lon="-1.827372"><ele>322</ele><time>2020-08-05T13:15:01Z</time><name>PT12895</name></trkpt>
<trkpt lat="53.368714" lon="-1.827373"><ele>322</ele><time>2020-08-05T13:15:01Z</time><name>PT12896</name></trkpt>
<trkpt lat="53.368712" lon="-1.827377"><ele>322</ele><time>2020-08-05T13:15:03Z</time><name>PT12897</name></trkpt>
<trkpt lat="53.368709" lon="-1.827384"><ele>322</ele><time>2020-08-05T13:15:04Z</time><name>PT12898</name></trkpt>
<trkpt lat="53.368705" lon="-1.827391"><ele>322</ele><time>2020-08-05T13:15:04Z</time><name>PT12899</name></trkpt>
<trkpt lat="53.368705" lon="-1.827390"><ele>321</ele><time>2020-08-05T13:15:06Z</time><name>PT12900</name></trkpt>
<trkpt lat="53.368703" lon="-1.827399"><ele>321</ele><time>2020-08-05T13:15:07Z</time><name>PT12901</name></trkpt>
<trkpt lat="53.368698" lon="-1.827413"><ele>321</ele><time>2020-08-05T13:15:07Z</time><name>PT12902</name></trkpt>
<trkpt lat="53.368688" lon="-1.827427"><ele>320</ele><time>2020-08-05T13:15:09Z</time><name>PT12903</name></trkpt>
<trkpt lat="53.368677" lon="-1.827440"><ele>321</ele><time>2020-08-05T13:15:10Z</time><name>PT12904</name></trkpt>
<trkpt lat="53.368665" lon="-1.827455"><ele>321</ele><time>2020-08-05T13:15:10Z</time><name>PT12905</name></trkpt>
<trkpt lat="53.368654" lon="-1.827470"><ele>321</ele><time>2020-08-05T13:15:12Z</time><name>PT12906</name></trkpt>
<trkpt lat="53.368641" lon="-1.827489"><ele>321</ele><time>2020-08-05T13:15:13Z</time><name>PT12907</name></trkpt>
<trkpt lat="53.368630" lon="-1.827503"><ele>321</ele><time>2020-08-05T13:15:13Z</time><name>PT12908</name></trkpt>
<trkpt lat="53.368624" lon="-1.827518"><ele>321</ele><time>2020-08-05T13:15:15Z</time><name>PT12909</name></trkpt>
<trkpt lat="53.368617" lon="-1.827538"><ele>321</ele><time>2020-08-05T13:15:16Z</time><name>PT12910</name></trkpt>
<trkpt lat="53.368613" lon="-1.827556"><ele>321</ele><time>2020-08-05T13:15:16Z</time><name>PT12911</name></trkpt>
<trkpt lat="53.368610" lon="-1.827571"><ele>321</ele><time>2020-08-05T13:15:18Z</time><name>PT12912</name></trkpt>
<trkpt lat="53.368604" lon="-1.827584"><ele>321</ele><time>2020-08-05T13:15:19Z</time><name>PT12913</name></trkpt>
<trkpt lat="53.368596" lon="-1.827596"><ele>321</ele><time>2020-08-05T13:15:19Z</time><name>PT12914</name></trkpt>
<trkpt lat="53.368588" lon="-1.827607"><ele>321</ele><time>2020-08-05T13:15:21Z</time><name>PT12915</name></trkpt>
<trkpt lat="53.368583" lon="-1.827617"><ele>322</ele><time>2020-08-05T13:15:22Z</time><name>PT12916</name></trkpt>
<trkpt lat="53.368577" lon="-1.827629"><ele>322</ele><time>2020-08-05T13:15:22Z</time><name>PT12917</name></trkpt>
<trkpt lat="53.368570" lon="-1.827642"><ele>322</ele><time>2020-08-05T13:15:24Z</time><name>PT12918</name></trkpt>
<trkpt lat="53.368564" lon="-1.827654"><ele>322</ele><time>2020-08-05T13:15:25Z</time><name>PT12919</name></trkpt>
<trkpt lat="53.368557" lon="-1.827670"><ele>323</ele><time>2020-08-05T13:15:25Z</time><name>PT12920</name></trkpt>
<trkpt lat="53.368549" lon="-1.827687"><ele>323</ele><time>2020-08-05T13:15:27Z</time><name>PT12921</name></trkpt>
<trkpt lat="53.368542" lon="-1.827700"><ele>323</ele><time>2020-08-05T13:15:28Z</time><name>PT12922</name></trkpt>
<trkpt lat="53.368535" lon="-1.827711"><ele>323</ele><time>2020-08-05T13:15:29Z</time><name>PT12923</name></trkpt>
<trkpt lat="53.368526" lon="-1.827721"><ele>323</ele><time>2020-08-05T13:15:30Z</time><name>PT12924</name></trkpt>
<trkpt lat="53.368518" lon="-1.827731"><ele>323</ele><time>2020-08-05T13:15:31Z</time><name>PT12925</name></trkpt>
<trkpt lat="53.368512" lon="-1.827739"><ele>323</ele><time>2020-08-05T13:15:31Z</time><name>PT12926</name></trkpt>
<trkpt lat="53.368505" lon="-1.827750"><ele>323</ele><time>2020-08-05T13:15:33Z</time><name>PT12927</name></trkpt>
<trkpt lat="53.368498" lon="-1.827763"><ele>324</ele><time>2020-08-05T13:15:34Z</time><name>PT12928</name></trkpt>
<trkpt lat="53.368491" lon="-1.827774"><ele>324</ele><time>2020-08-05T13:15:34Z</time><name>PT12929</name></trkpt>
<trkpt lat="53.368483" lon="-1.827786"><ele>324</ele><time>2020-08-05T13:15:36Z</time><name>PT12930</name></trkpt>
<trkpt lat="53.368473" lon="-1.827799"><ele>324</ele><time>2020-08-05T13:15:37Z</time><name>PT12931</name></trkpt>
<trkpt lat="53.368466" lon="-1.827812"><ele>324</ele><time>2020-08-05T13:15:38Z</time><name>PT12932</name></trkpt>
<trkpt lat="53.368460" lon="-1.827828"><ele>324</ele><time>2020-08-05T13:15:39Z</time><name>PT12933</name></trkpt>
<trkpt lat="53.368453" lon="-1.827844"><ele>325</ele><time>2020-08-05T13:15:40Z</time><name>PT12934</name></trkpt>
<trkpt lat="53.368445" lon="-1.827859"><ele>325</ele><time>2020-08-05T13:15:41Z</time><name>PT12935</name></trkpt>
<trkpt lat="53.368435" lon="-1.827874"><ele>325</ele><time>2020-08-05T13:15:42Z</time><name>PT12936</name></trkpt>
<trkpt lat="53.368428" lon="-1.827889"><ele>326</ele><time>2020-08-05T13:15:43Z</time><name>PT12937</name></trkpt>
<trkpt lat="53.368420" lon="-1.827904"><ele>326</ele><time>2020-08-05T13:15:44Z</time><name>PT12938</name></trkpt>
<trkpt lat="53.368412" lon="-1.827921"><ele>326</ele><time>2020-08-05T13:15:45Z</time><name>PT12939</name></trkpt>
<trkpt lat="53.368405" lon="-1.827936"><ele>326</ele><time>2020-08-05T13:15:46Z</time><name>PT12940</name></trkpt>
<trkpt lat="53.368398" lon="-1.827951"><ele>326</ele><time>2020-08-05T13:15:47Z</time><name>PT12941</name></trkpt>
<trkpt lat="53.368388" lon="-1.827967"><ele>326</ele><time>2020-08-05T13:15:48Z</time><name>PT12942</name></trkpt>
<trkpt lat="53.368375" lon="-1.827983"><ele>326</ele><time>2020-08-05T13:15:49Z</time><name>PT12943</name></trkpt>
<trkpt lat="53.368364" lon="-1.828000"><ele>326</ele><time>2020-08-05T13:15:49Z</time><name>PT12944</name></trkpt>
<trkpt lat="53.368355" lon="-1.828016"><ele>326</ele><time>2020-08-05T13:15:51Z</time><name>PT12945</name></trkpt>
<trkpt lat="53.368347" lon="-1.828033"><ele>326</ele><time>2020-08-05T13:15:52Z</time><name>PT12946</name></trkpt>
<trkpt lat="53.368342" lon="-1.828050"><ele>326</ele><time>2020-08-05T13:15:52Z</time><name>PT12947</name></trkpt>
<trkpt lat="53.368338" lon="-1.828069"><ele>325</ele><time>2020-08-05T13:15:54Z</time><name>PT12948</name></trkpt>
<trkpt lat="53.368333" lon="-1.828087"><ele>325</ele><time>2020-08-05T13:15:55Z</time><name>PT12949</name></trkpt>
<trkpt lat="53.368326" lon="-1.828103"><ele>326</ele><time>2020-08-05T13:15:55Z</time><name>PT12950</name></trkpt>
<trkpt lat="53.368318" lon="-1.828118"><ele>326</ele><time>2020-08-05T13:15:57Z</time><name>PT12951</name></trkpt>
<trkpt lat="53.368310" lon="-1.828134"><ele>327</ele><time>2020-08-05T13:15:58Z</time><name>PT12952</name></trkpt>
<trkpt lat="53.368303" lon="-1.828148"><ele>326</ele><time>2020-08-05T13:15:58Z</time><name>PT12953</name></trkpt>
<trkpt lat="53.368297" lon="-1.828163"><ele>326</ele><time>2020-08-05T13:16:00Z</time><name>PT12954</name></trkpt>
<trkpt lat="53.368292" lon="-1.828180"><ele>326</ele><time>2020-08-05T13:16:01Z</time><name>PT12955</name></trkpt>
<trkpt lat="53.368288" lon="-1.828199"><ele>327</ele><time>2020-08-05T13:16:01Z</time><name>PT12956</name></trkpt>
<trkpt lat="53.368283" lon="-1.828217"><ele>327</ele><time>2020-08-05T13:16:03Z</time><name>PT12957</name></trkpt>
<trkpt lat="53.368281" lon="-1.828232"><ele>327</ele><time>2020-08-05T13:16:04Z</time><name>PT12958</name></trkpt>
<trkpt lat="53.368279" lon="-1.828248"><ele>327</ele><time>2020-08-05T13:16:04Z</time><name>PT12959</name></trkpt>
<trkpt lat="53.368276" lon="-1.828263"><ele>327</ele><time>2020-08-05T13:16:06Z</time><name>PT12960</name></trkpt>
<trkpt lat="53.368270" lon="-1.828277"><ele>327</ele><time>2020-08-05T13:16:07Z</time><name>PT12961</name></trkpt>
<trkpt lat="53.368264" lon="-1.828292"><ele>327</ele><time>2020-08-05T13:16:07Z</time><name>PT12962</name></trkpt>
<trkpt lat="53.368257" lon="-1.828308"><ele>327</ele><time>2020-08-05T13:16:09Z</time><name>PT12963</name></trkpt>
<trkpt lat="53.368251" lon="-1.828322"><ele>327</ele><time>2020-08-05T13:16:10Z</time><name>PT12964</name></trkpt>
<trkpt lat="53.368245" lon="-1.828341"><ele>327</ele><time>2020-08-05T13:16:10Z</time><name>PT12965</name></trkpt>
<trkpt lat="53.368239" lon="-1.828361"><ele>328</ele><time>2020-08-05T13:16:12Z</time><name>PT12966</name></trkpt>
<trkpt lat="53.368233" lon="-1.828380"><ele>328</ele><time>2020-08-05T13:16:13Z</time><name>PT12967</name></trkpt>
<trkpt lat="53.368227" lon="-1.828398"><ele>329</ele><time>2020-08-05T13:16:13Z</time><name>PT12968</name></trkpt>
<trkpt lat="53.368220" lon="-1.828416"><ele>329</ele><time>2020-08-05T13:16:15Z</time><name>PT12969</name></trkpt>
<trkpt lat="53.368213" lon="-1.828432"><ele>329</ele><time>2020-08-05T13:16:16Z</time><name>PT12970</name></trkpt>
<trkpt lat="53.368208" lon="-1.828445"><ele>329</ele><time>2020-08-05T13:16:16Z</time><name>PT12971</name></trkpt>
<trkpt lat="53.368201" lon="-1.828460"><ele>329</ele><time>2020-08-05T13:16:18Z</time><name>PT12972</name></trkpt>
<trkpt lat="53.368193" lon="-1.828471"><ele>329</ele><time>2020-08-05T13:16:19Z</time><name>PT12973</name></trkpt>
<trkpt lat="53.368186" lon="-1.828481"><ele>329</ele><time>2020-08-05T13:16:19Z</time><name>PT12974</name></trkpt>
<trkpt lat="53.368177" lon="-1.828489"><ele>329</ele><time>2020-08-05T13:16:21Z</time><name>PT12975</name></trkpt>
<trkpt lat="53.368167" lon="-1.828499"><ele>329</ele><time>2020-08-05T13:16:22Z</time><name>PT12976</name></trkpt>
<trkpt lat="53.368159" lon="-1.828510"><ele>329</ele><time>2020-08-05T13:16:22Z</time><name>PT12977</name></trkpt>
<trkpt lat="53.368154" lon="-1.828519"><ele>329</ele><time>2020-08-05T13:16:24Z</time><name>PT12978</name></trkpt>
<trkpt lat="53.368147" lon="-1.828530"><ele>330</ele><time>2020-08-05T13:16:25Z</time><name>PT12979</name></trkpt>
<trkpt lat="53.368140" lon="-1.828542"><ele>329</ele><time>2020-08-05T13:16:26Z</time><name>PT12980</name></trkpt>
<trkpt lat="53.368133" lon="-1.828555"><ele>329</ele><time>2020-08-05T13:16:27Z</time><name>PT12981</name></trkpt>
<trkpt lat="53.368126" lon="-1.828567"><ele>330</ele><time>2020-08-05T13:16:28Z</time><name>PT12982</name></trkpt>
<trkpt lat="53.368121" lon="-1.828576"><ele>330</ele><time>2020-08-05T13:16:28Z</time><name>PT12983</name></trkpt>
<trkpt lat="53.368114" lon="-1.828586"><ele>330</ele><time>2020-08-05T13:16:30Z</time><name>PT12984</name></trkpt>
<trkpt lat="53.368107" lon="-1.828601"><ele>330</ele><time>2020-08-05T13:16:31Z</time><name>PT12985</name></trkpt>
<trkpt lat="53.368096" lon="-1.828617"><ele>330</ele><time>2020-08-05T13:16:31Z</time><name>PT12986</name></trkpt>
<trkpt lat="53.368088" lon="-1.828634"><ele>330</ele><time>2020-08-05T13:16:33Z</time><name>PT12987</name></trkpt>
<trkpt lat="53.368077" lon="-1.828649"><ele>331</ele><time>2020-08-05T13:16:34Z</time><name>PT12988</name></trkpt>
<trkpt lat="53.368067" lon="-1.828665"><ele>331</ele><time>2020-08-05T13:16:35Z</time><name>PT12989</name></trkpt>
<trkpt lat="53.368058" lon="-1.828683"><ele>330</ele><time>2020-08-05T13:16:36Z</time><name>PT12990</name></trkpt>
<trkpt lat="53.368053" lon="-1.828702"><ele>330</ele><time>2020-08-05T13:16:37Z</time><name>PT12991</name></trkpt>
<trkpt lat="53.368048" lon="-1.828718"><ele>331</ele><time>2020-08-05T13:16:37Z</time><name>PT12992</name></trkpt>
<trkpt lat="53.368042" lon="-1.828738"><ele>331</ele><time>2020-08-05T13:16:39Z</time><name>PT12993</name></trkpt>
<trkpt lat="53.368036" lon="-1.828759"><ele>331</ele><time>2020-08-05T13:16:40Z</time><name>PT12994</name></trkpt>
<trkpt lat="53.368030" lon="-1.828775"><ele>331</ele><time>2020-08-05T13:16:41Z</time><name>PT12995</name></trkpt>
<trkpt lat="53.368025" lon="-1.828792"><ele>331</ele><time>2020-08-05T13:16:42Z</time><name>PT12996</name></trkpt>
<trkpt lat="53.368021" lon="-1.828809"><ele>331</ele><time>2020-08-05T13:16:43Z</time><name>PT12997</name></trkpt>
<trkpt lat="53.368017" lon="-1.828828"><ele>331</ele><time>2020-08-05T13:16:43Z</time><name>PT12998</name></trkpt>
<trkpt lat="53.368013" lon="-1.828846"><ele>331</ele><time>2020-08-05T13:16:45Z</time><name>PT12999</name></trkpt>
<trkpt lat="53.368010" lon="-1.828864"><ele>331</ele><time>2020-08-05T13:16:46Z</time><name>PT13000</name></trkpt>
<trkpt lat="53.368005" lon="-1.828883"><ele>332</ele><time>2020-08-05T13:16:47Z</time><name>PT13001</name></trkpt>
<trkpt lat="53.368000" lon="-1.828902"><ele>332</ele><time>2020-08-05T13:16:48Z</time><name>PT13002</name></trkpt>
<trkpt lat="53.367996" lon="-1.828922"><ele>333</ele><time>2020-08-05T13:16:49Z</time><name>PT13003</name></trkpt>
<trkpt lat="53.367991" lon="-1.828935"><ele>334</ele><time>2020-08-05T13:16:50Z</time><name>PT13004</name></trkpt>
<trkpt lat="53.367988" lon="-1.828950"><ele>334</ele><time>2020-08-05T13:16:51Z</time><name>PT13005</name></trkpt>
<trkpt lat="53.367982" lon="-1.828969"><ele>334</ele><time>2020-08-05T13:16:52Z</time><name>PT13006</name></trkpt>
<trkpt lat="53.367979" lon="-1.828987"><ele>334</ele><time>2020-08-05T13:16:53Z</time><name>PT13007</name></trkpt>
<trkpt lat="53.367974" lon="-1.829006"><ele>334</ele><time>2020-08-05T13:16:54Z</time><name>PT13008</name></trkpt>
<trkpt lat="53.367970" lon="-1.829025"><ele>334</ele><time>2020-08-05T13:16:55Z</time><name>PT13009</name></trkpt>
<trkpt lat="53.367964" lon="-1.829044"><ele>334</ele><time>2020-08-05T13:16:56Z</time><name>PT13010</name></trkpt>
<trkpt lat="53.367958" lon="-1.829064"><ele>334</ele><time>2020-08-05T13:16:57Z</time><name>PT13011</name></trkpt>
<trkpt lat="53.367951" lon="-1.829087"><ele>335</ele><time>2020-08-05T13:16:58Z</time><name>PT13012</name></trkpt>
<trkpt lat="53.367943" lon="-1.829105"><ele>333</ele><time>2020-08-05T13:16:59Z</time><name>PT13013</name></trkpt>
<trkpt lat="53.367934" lon="-1.829124"><ele>334</ele><time>2020-08-05T13:17:00Z</time><name>PT13014</name></trkpt>
<trkpt lat="53.367926" lon="-1.829145"><ele>334</ele><time>2020-08-05T13:17:01Z</time><name>PT13015</name></trkpt>
<trkpt lat="53.367922" lon="-1.829165"><ele>335</ele><time>2020-08-05T13:17:01Z</time><name>PT13016</name></trkpt>
<trkpt lat="53.367918" lon="-1.829186"><ele>335</ele><time>2020-08-05T13:17:03Z</time><name>PT13017</name></trkpt>
<trkpt lat="53.367915" lon="-1.829203"><ele>335</ele><time>2020-08-05T13:17:04Z</time><name>PT13018</name></trkpt>
<trkpt lat="53.367913" lon="-1.829218"><ele>335</ele><time>2020-08-05T13:17:04Z</time><name>PT13019</name></trkpt>
<trkpt lat="53.367910" lon="-1.829237"><ele>335</ele><time>2020-08-05T13:17:06Z</time><name>PT13020</name></trkpt>
<trkpt lat="53.367908" lon="-1.829257"><ele>335</ele><time>2020-08-05T13:17:07Z</time><name>PT13021</name></trkpt>
<trkpt lat="53.367908" lon="-1.829276"><ele>336</ele><time>2020-08-05T13:17:07Z</time><name>PT13022</name></trkpt>
<trkpt lat="53.367910" lon="-1.829294"><ele>336</ele><time>2020-08-05T13:17:09Z</time><name>PT13023</name></trkpt>
<trkpt lat="53.367907" lon="-1.829312"><ele>336</ele><time>2020-08-05T13:17:10Z</time><name>PT13024</name></trkpt>
<trkpt lat="53.367905" lon="-1.829329"><ele>335</ele><time>2020-08-05T13:17:10Z</time><name>PT13025</name></trkpt>
<trkpt lat="53.367900" lon="-1.829343"><ele>335</ele><time>2020-08-05T13:17:12Z</time><name>PT13026</name></trkpt>
<trkpt lat="53.367896" lon="-1.829359"><ele>335</ele><time>2020-08-05T13:17:13Z</time><name>PT13027</name></trkpt>
<trkpt lat="53.367892" lon="-1.829375"><ele>335</ele><time>2020-08-05T13:17:13Z</time><name>PT13028</name></trkpt>
<trkpt lat="53.367887" lon="-1.829388"><ele>335</ele><time>2020-08-05T13:17:15Z</time><name>PT13029</name></trkpt>
<trkpt lat="53.367881" lon="-1.829401"><ele>335</ele><time>2020-08-05T13:17:16Z</time><name>PT13030</name></trkpt>
<trkpt lat="53.367876" lon="-1.829417"><ele>335</ele><time>2020-08-05T13:17:16Z</time><name>PT13031</name></trkpt>
<trkpt lat="53.367873" lon="-1.829434"><ele>336</ele><time>2020-08-05T13:17:18Z</time><name>PT13032</name></trkpt>
<trkpt lat="53.367873" lon="-1.829451"><ele>336</ele><time>2020-08-05T13:17:19Z</time><name>PT13033</name></trkpt>
<trkpt lat="53.367869" lon="-1.829470"><ele>337</ele><time>2020-08-05T13:17:19Z</time><name>PT13034</name></trkpt>
<trkpt lat="53.367866" lon="-1.829485"><ele>337</ele><time>2020-08-05T13:17:21Z</time><name>PT13035</name></trkpt>
<trkpt lat="53.367862" lon="-1.829500"><ele>337</ele><time>2020-08-05T13:17:22Z</time><name>PT13036</name></trkpt>
<trkpt lat="53.367858" lon="-1.829514"><ele>337</ele><time>2020-08-05T13:17:22Z</time><name>PT13037</name></trkpt>
<trkpt lat="53.367855" lon="-1.829529"><ele>337</ele><time>2020-08-05T13:17:24Z</time><name>PT13038</name></trkpt>
<trkpt lat="53.367851" lon="-1.829541"><ele>337</ele><time>2020-08-05T13:17:25Z</time><name>PT13039</name></trkpt>
<trkpt lat="53.367851" lon="-1.829553"><ele>337</ele><time>2020-08-05T13:17:25Z</time><name>PT13040</name></trkpt>
<trkpt lat="53.367851" lon="-1.829568"><ele>336</ele><time>2020-08-05T13:17:27Z</time><name>PT13041</name></trkpt>
<trkpt lat="53.367848" lon="-1.829588"><ele>336</ele><time>2020-08-05T13:17:28Z</time><name>PT13042</name></trkpt>
<trkpt lat="53.367844" lon="-1.829605"><ele>337</ele><time>2020-08-05T13:17:28Z</time><name>PT13043</name></trkpt>
<trkpt lat="53.367840" lon="-1.829620"><ele>337</ele><time>2020-08-05T13:17:30Z</time><name>PT13044</name></trkpt>
<trkpt lat="53.367838" lon="-1.829635"><ele>337</ele><time>2020-08-05T13:17:31Z</time><name>PT13045</name></trkpt>
<trkpt lat="53.367835" lon="-1.829654"><ele>337</ele><time>2020-08-05T13:17:31Z</time><name>PT13046</name></trkpt>
<trkpt lat="53.367827" lon="-1.829677"><ele>337</ele><time>2020-08-05T13:17:33Z</time><name>PT13047</name></trkpt>
<trkpt lat="53.367822" lon="-1.829694"><ele>337</ele><time>2020-08-05T13:17:34Z</time><name>PT13048</name></trkpt>
<trkpt lat="53.367819" lon="-1.829711"><ele>336</ele><time>2020-08-05T13:17:34Z</time><name>PT13049</name></trkpt>
<trkpt lat="53.367813" lon="-1.829726"><ele>334</ele><time>2020-08-05T13:17:36Z</time><name>PT13050</name></trkpt>
<trkpt lat="53.367809" lon="-1.829741"><ele>334</ele><time>2020-08-05T13:17:37Z</time><name>PT13051</name></trkpt>
<trkpt lat="53.367809" lon="-1.829758"><ele>334</ele><time>2020-08-05T13:17:37Z</time><name>PT13052</name></trkpt>
<trkpt lat="53.367809" lon="-1.829779"><ele>334</ele><time>2020-08-05T13:17:39Z</time><name>PT13053</name></trkpt>
<trkpt lat="53.367811" lon="-1.829801"><ele>335</ele><time>2020-08-05T13:17:40Z</time><name>PT13054</name></trkpt>
<trkpt lat="53.367809" lon="-1.829815"><ele>335</ele><time>2020-08-05T13:17:40Z</time><name>PT13055</name></trkpt>
<trkpt lat="53.367810" lon="-1.829831"><ele>335</ele><time>2020-08-05T13:17:42Z</time><name>PT13056</name></trkpt>
<trkpt lat="53.367809" lon="-1.829845"><ele>335</ele><time>2020-08-05T13:17:43Z</time><name>PT13057</name></trkpt>
<trkpt lat="53.367807" lon="-1.829858"><ele>336</ele><time>2020-08-05T13:17:43Z</time><name>PT13058</name></trkpt>
<trkpt lat="53.367806" lon="-1.829866"><ele>336</ele><time>2020-08-05T13:17:45Z</time><name>PT13059</name></trkpt>
<trkpt lat="53.367805" lon="-1.829874"><ele>336</ele><time>2020-08-05T13:17:46Z</time><name>PT13060</name></trkpt>
<trkpt lat="53.367799" lon="-1.829877"><ele>336</ele><time>2020-08-05T13:17:46Z</time><name>PT13061</name></trkpt>
<trkpt lat="53.367795" lon="-1.829882"><ele>337</ele><time>2020-08-05T13:17:48Z</time><name>PT13062</name></trkpt>
<trkpt lat="53.367790" lon="-1.829886"><ele>336</ele><time>2020-08-05T13:17:49Z</time><name>PT13063</name></trkpt>
<trkpt lat="53.367787" lon="-1.829891"><ele>337</ele><time>2020-08-05T13:17:49Z</time><name>PT13064</name></trkpt>
<trkpt lat="53.367785" lon="-1.829899"><ele>337</ele><time>2020-08-05T13:17:51Z</time><name>PT13065</name></trkpt>
<trkpt lat="53.367785" lon="-1.829905"><ele>337</ele><time>2020-08-05T13:17:52Z</time><name>PT13066</name></trkpt>
<trkpt lat="53.367786" lon="-1.829908"><ele>337</ele><time>2020-08-05T13:17:52Z</time><name>PT13067</name></trkpt>
<trkpt lat="53.367785" lon="-1.829911"><ele>337</ele><time>2020-08-05T13:17:54Z</time><name>PT13068</name></trkpt>
<trkpt lat="53.367779" lon="-1.829924"><ele>336</ele><time>2020-08-05T13:17:55Z</time><name>PT13069</name></trkpt>
<trkpt lat="53.367770" lon="-1.829937"><ele>336</ele><time>2020-08-05T13:17:55Z</time><name>PT13070</name></trkpt>
<trkpt lat="53.367761" lon="-1.829948"><ele>336</ele><time>2020-08-05T13:17:57Z</time><name>PT13071</name></trkpt>
<trkpt lat="53.367749" lon="-1.829966"><ele>337</ele><time>2020-08-05T13:17:58Z</time><name>PT13072</name></trkpt>
<trkpt lat="53.367738" lon="-1.829984"><ele>337</ele><time>2020-08-05T13:17:58Z</time><name>PT13073</name></trkpt>
<trkpt lat="53.367731" lon="-1.829999"><ele>337</ele><time>2020-08-05T13:18:00Z</time><name>PT13074</name></trkpt>
<trkpt lat="53.367726" lon="-1.830015"><ele>337</ele><time>2020-08-05T13:18:01Z</time><name>PT13075</name></trkpt>
<trkpt lat="53.367721" lon="-1.830034"><ele>338</ele><time>2020-08-05T13:18:01Z</time><name>PT13076</name></trkpt>
<trkpt lat="53.367713" lon="-1.830050"><ele>337</ele><time>2020-08-05T13:18:03Z</time><name>PT13077</name></trkpt>
<trkpt lat="53.367704" lon="-1.830066"><ele>337</ele><time>2020-08-05T13:18:04Z</time><name>PT13078</name></trkpt>
<trkpt lat="53.367693" lon="-1.830085"><ele>337</ele><time>2020-08-05T13:18:04Z</time><name>PT13079</name></trkpt>
<trkpt lat="53.367688" lon="-1.830101"><ele>337</ele><time>2020-08-05T13:18:06Z</time><name>PT13080</name></trkpt>
<trkpt lat="53.367679" lon="-1.830116"><ele>337</ele><time>2020-08-05T13:18:07Z</time><name>PT13081</name></trkpt>
<trkpt lat="53.367674" lon="-1.830135"><ele>337</ele><time>2020-08-05T13:18:07Z</time><name>PT13082</name></trkpt>
<trkpt lat="53.367668" lon="-1.830155"><ele>337</ele><time>2020-08-05T13:18:09Z</time><name>PT13083</name></trkpt>
<trkpt lat="53.367662" lon="-1.830174"><ele>337</ele><time>2020-08-05T13:18:10Z</time><name>PT13084</name></trkpt>
<trkpt lat="53.367657" lon="-1.830190"><ele>337</ele><time>2020-08-05T13:18:10Z</time><name>PT13085</name></trkpt>
<trkpt lat="53.367651" lon="-1.830210"><ele>337</ele><time>2020-08-05T13:18:12Z</time><name>PT13086</name></trkpt>
<trkpt lat="53.367648" lon="-1.830228"><ele>337</ele><time>2020-08-05T13:18:13Z</time><name>PT13087</name></trkpt>
<trkpt lat="53.367643" lon="-1.830247"><ele>337</ele><time>2020-08-05T13:18:13Z</time><name>PT13088</name></trkpt>
<trkpt lat="53.367642" lon="-1.830266"><ele>337</ele><time>2020-08-05T13:18:15Z</time><name>PT13089</name></trkpt>
<trkpt lat="53.367636" lon="-1.830283"><ele>337</ele><time>2020-08-05T13:18:16Z</time><name>PT13090</name></trkpt>
<trkpt lat="53.367628" lon="-1.830302"><ele>338</ele><time>2020-08-05T13:18:16Z</time><name>PT13091</name></trkpt>
<trkpt lat="53.367622" lon="-1.830325"><ele>338</ele><time>2020-08-05T13:18:18Z</time><name>PT13092</name></trkpt>
<trkpt lat="53.367618" lon="-1.830344"><ele>338</ele><time>2020-08-05T13:18:19Z</time><name>PT13093</name></trkpt>
<trkpt lat="53.367615" lon="-1.830362"><ele>339</ele><time>2020-08-05T13:18:19Z</time><name>PT13094</name></trkpt>
<trkpt lat="53.367611" lon="-1.830382"><ele>339</ele><time>2020-08-05T13:18:21Z</time><name>PT13095</name></trkpt>
<trkpt lat="53.367607" lon="-1.830400"><ele>339</ele><time>2020-08-05T13:18:22Z</time><name>PT13096</name></trkpt>
<trkpt lat="53.367602" lon="-1.830416"><ele>338</ele><time>2020-08-05T13:18:22Z</time><name>PT13097</name></trkpt>
<trkpt lat="53.367599" lon="-1.830435"><ele>338</ele><time>2020-08-05T13:18:24Z</time><name>PT13098</name></trkpt>
<trkpt lat="53.367593" lon="-1.830454"><ele>338</ele><time>2020-08-05T13:18:25Z</time><name>PT13099</name></trkpt>
<trkpt lat="53.367589" lon="-1.830471"><ele>338</ele><time>2020-08-05T13:18:25Z</time><name>PT13100</name></trkpt>
<trkpt lat="53.367584" lon="-1.830490"><ele>338</ele><time>2020-08-05T13:18:27Z</time><name>PT13101</name></trkpt>
<trkpt lat="53.367578" lon="-1.830508"><ele>339</ele><time>2020-08-05T13:18:28Z</time><name>PT13102</name></trkpt>
<trkpt lat="53.367571" lon="-1.830525"><ele>339</ele><time>2020-08-05T13:18:28Z</time><name>PT13103</name></trkpt>
<trkpt lat="53.367565" lon="-1.830541"><ele>339</ele><time>2020-08-05T13:18:30Z</time><name>PT13104</name></trkpt>
<trkpt lat="53.367563" lon="-1.830550"><ele>339</ele><time>2020-08-05T13:18:31Z</time><name>PT13105</name></trkpt>
<trkpt lat="53.367557" lon="-1.830564"><ele>339</ele><time>2020-08-05T13:18:32Z</time><name>PT13106</name></trkpt>
<trkpt lat="53.367555" lon="-1.830581"><ele>340</ele><time>2020-08-05T13:18:33Z</time><name>PT13107</name></trkpt>
<trkpt lat="53.367551" lon="-1.830599"><ele>340</ele><time>2020-08-05T13:18:34Z</time><name>PT13108</name></trkpt>
<trkpt lat="53.367542" lon="-1.830618"><ele>340</ele><time>2020-08-05T13:18:35Z</time><name>PT13109</name></trkpt>
<trkpt lat="53.367538" lon="-1.830635"><ele>340</ele><time>2020-08-05T13:18:36Z</time><name>PT13110</name></trkpt>
<trkpt lat="53.367531" lon="-1.830652"><ele>340</ele><time>2020-08-05T13:18:37Z</time><name>PT13111</name></trkpt>
<trkpt lat="53.367523" lon="-1.830672"><ele>339</ele><time>2020-08-05T13:18:38Z</time><name>PT13112</name></trkpt>
<trkpt lat="53.367518" lon="-1.830691"><ele>340</ele><time>2020-08-05T13:18:39Z</time><name>PT13113</name></trkpt>
<trkpt lat="53.367513" lon="-1.830709"><ele>340</ele><time>2020-08-05T13:18:40Z</time><name>PT13114</name></trkpt>
<trkpt lat="53.367507" lon="-1.830729"><ele>340</ele><time>2020-08-05T13:18:41Z</time><name>PT13115</name></trkpt>
<trkpt lat="53.367499" lon="-1.830750"><ele>341</ele><time>2020-08-05T13:18:42Z</time><name>PT13116</name></trkpt>
<trkpt lat="53.367490" lon="-1.830767"><ele>342</ele><time>2020-08-05T13:18:43Z</time><name>PT13117</name></trkpt>
<trkpt lat="53.367482" lon="-1.830787"><ele>342</ele><time>2020-08-05T13:18:44Z</time><name>PT13118</name></trkpt>
<trkpt lat="53.367477" lon="-1.830806"><ele>342</ele><time>2020-08-05T13:18:45Z</time><name>PT13119</name></trkpt>
<trkpt lat="53.367471" lon="-1.830825"><ele>342</ele><time>2020-08-05T13:18:46Z</time><name>PT13120</name></trkpt>
<trkpt lat="53.367464" lon="-1.830845"><ele>343</ele><time>2020-08-05T13:18:46Z</time><name>PT13121</name></trkpt>
<trkpt lat="53.367458" lon="-1.830866"><ele>344</ele><time>2020-08-05T13:18:48Z</time><name>PT13122</name></trkpt>
<trkpt lat="53.367452" lon="-1.830885"><ele>345</ele><time>2020-08-05T13:18:49Z</time><name>PT13123</name></trkpt>
<trkpt lat="53.367447" lon="-1.830905"><ele>345</ele><time>2020-08-05T13:18:49Z</time><name>PT13124</name></trkpt>
<trkpt lat="53.367441" lon="-1.830927"><ele>345</ele><time>2020-08-05T13:18:51Z</time><name>PT13125</name></trkpt>
<trkpt lat="53.367440" lon="-1.830947"><ele>345</ele><time>2020-08-05T13:18:52Z</time><name>PT13126</name></trkpt>
<trkpt lat="53.367437" lon="-1.830963"><ele>345</ele><time>2020-08-05T13:18:52Z</time><name>PT13127</name></trkpt>
<trkpt lat="53.367433" lon="-1.830980"><ele>345</ele><time>2020-08-05T13:18:54Z</time><name>PT13128</name></trkpt>
<trkpt lat="53.367429" lon="-1.830999"><ele>346</ele><time>2020-08-05T13:18:55Z</time><name>PT13129</name></trkpt>
<trkpt lat="53.367422" lon="-1.831016"><ele>345</ele><time>2020-08-05T13:18:55Z</time><name>PT13130</name></trkpt>
<trkpt lat="53.367416" lon="-1.831036"><ele>345</ele><time>2020-08-05T13:18:57Z</time><name>PT13131</name></trkpt>
<trkpt lat="53.367410" lon="-1.831055"><ele>345</ele><time>2020-08-05T13:18:58Z</time><name>PT13132</name></trkpt>
<trkpt lat="53.367404" lon="-1.831075"><ele>345</ele><time>2020-08-05T13:18:58Z</time><name>PT13133</name></trkpt>
<trkpt lat="53.367399" lon="-1.831094"><ele>345</ele><time>2020-08-05T13:19:00Z</time><name>PT13134</name></trkpt>
<trkpt lat="53.367396" lon="-1.831114"><ele>345</ele><time>2020-08-05T13:19:01Z</time><name>PT13135</name></trkpt>
<trkpt lat="53.367390" lon="-1.831136"><ele>345</ele><time>2020-08-05T13:19:01Z</time><name>PT13136</name></trkpt>
<trkpt lat="53.367385" lon="-1.831157"><ele>346</ele><time>2020-08-05T13:19:03Z</time><name>PT13137</name></trkpt>
<trkpt lat="53.367380" lon="-1.831175"><ele>346</ele><time>2020-08-05T13:19:04Z</time><name>PT13138</name></trkpt>
<trkpt lat="53.367376" lon="-1.831194"><ele>346</ele><time>2020-08-05T13:19:04Z</time><name>PT13139</name></trkpt>
<trkpt lat="53.367370" lon="-1.831211"><ele>346</ele><time>2020-08-05T13:19:06Z</time><name>PT13140</name></trkpt>
<trkpt lat="53.367368" lon="-1.831225"><ele>345</ele><time>2020-08-05T13:19:07Z</time><name>PT13141</name></trkpt>
<trkpt lat="53.367362" lon="-1.831242"><ele>345</ele><time>2020-08-05T13:19:07Z</time><name>PT13142</name></trkpt>
<trkpt lat="53.367357" lon="-1.831259"><ele>345</ele><time>2020-08-05T13:19:09Z</time><name>PT13143</name></trkpt>
<trkpt lat="53.367350" lon="-1.831277"><ele>344</ele><time>2020-08-05T13:19:10Z</time><name>PT13144</name></trkpt>
<trkpt lat="53.367343" lon="-1.831293"><ele>345</ele><time>2020-08-05T13:19:10Z</time><name>PT13145</name></trkpt>
<trkpt lat="53.367340" lon="-1.831309"><ele>345</ele><time>2020-08-05T13:19:12Z</time><name>PT13146</name></trkpt>
<trkpt lat="53.367335" lon="-1.831332"><ele>345</ele><time>2020-08-05T13:19:13Z</time><name>PT13147</name></trkpt>
<trkpt lat="53.367329" lon="-1.831353"><ele>345</ele><time>2020-08-05T13:19:13Z</time><name>PT13148</name></trkpt>
<trkpt lat="53.367323" lon="-1.831375"><ele>345</ele><time>2020-08-05T13:19:15Z</time><name>PT13149</name></trkpt>
<trkpt lat="53.367316" lon="-1.831393"><ele>345</ele><time>2020-08-05T13:19:16Z</time><name>PT13150</name></trkpt>
<trkpt lat="53.367308" lon="-1.831411"><ele>345</ele><time>2020-08-05T13:19:17Z</time><name>PT13151</name></trkpt>
<trkpt lat="53.367298" lon="-1.831429"><ele>344</ele><time>2020-08-05T13:19:18Z</time><name>PT13152</name></trkpt>
<trkpt lat="53.367292" lon="-1.831448"><ele>344</ele><time>2020-08-05T13:19:19Z</time><name>PT13153</name></trkpt>
<trkpt lat="53.367287" lon="-1.831466"><ele>344</ele><time>2020-08-05T13:19:19Z</time><name>PT13154</name></trkpt>
<trkpt lat="53.367280" lon="-1.831489"><ele>344</ele><time>2020-08-05T13:19:21Z</time><name>PT13155</name></trkpt>
<trkpt lat="53.367272" lon="-1.831508"><ele>344</ele><time>2020-08-05T13:19:22Z</time><name>PT13156</name></trkpt>
<trkpt lat="53.367261" lon="-1.831526"><ele>345</ele><time>2020-08-05T13:19:22Z</time><name>PT13157</name></trkpt>
<trkpt lat="53.367250" lon="-1.831548"><ele>345</ele><time>2020-08-05T13:19:24Z</time><name>PT13158</name></trkpt>
<trkpt lat="53.367239" lon="-1.831566"><ele>345</ele><time>2020-08-05T13:19:25Z</time><name>PT13159</name></trkpt>
<trkpt lat="53.367232" lon="-1.831583"><ele>345</ele><time>2020-08-05T13:19:25Z</time><name>PT13160</name></trkpt>
<trkpt lat="53.367224" lon="-1.831602"><ele>346</ele><time>2020-08-05T13:19:27Z</time><name>PT13161</name></trkpt>
<trkpt lat="53.367216" lon="-1.831618"><ele>346</ele><time>2020-08-05T13:19:28Z</time><name>PT13162</name></trkpt>
<trkpt lat="53.367211" lon="-1.831632"><ele>346</ele><time>2020-08-05T13:19:29Z</time><name>PT13163</name></trkpt>
<trkpt lat="53.367203" lon="-1.831646"><ele>346</ele><time>2020-08-05T13:19:30Z</time><name>PT13164</name></trkpt>
<trkpt lat="53.367195" lon="-1.831663"><ele>346</ele><time>2020-08-05T13:19:31Z</time><name>PT13165</name></trkpt>
<trkpt lat="53.367188" lon="-1.831679"><ele>346</ele><time>2020-08-05T13:19:31Z</time><name>PT13166</name></trkpt>
<trkpt lat="53.367185" lon="-1.831697"><ele>347</ele><time>2020-08-05T13:19:33Z</time><name>PT13167</name></trkpt>
<trkpt lat="53.367181" lon="-1.831717"><ele>347</ele><time>2020-08-05T13:19:34Z</time><name>PT13168</name></trkpt>
<trkpt lat="53.367172" lon="-1.831734"><ele>347</ele><time>2020-08-05T13:19:34Z</time><name>PT13169</name></trkpt>
<trkpt lat="53.367164" lon="-1.831752"><ele>347</ele><time>2020-08-05T13:19:36Z</time><name>PT13170</name></trkpt>
<trkpt lat="53.367158" lon="-1.831772"><ele>347</ele><time>2020-08-05T13:19:37Z</time><name>PT13171</name></trkpt>
<trkpt lat="53.367152" lon="-1.831790"><ele>347</ele><time>2020-08-05T13:19:37Z</time><name>PT13172</name></trkpt>
<trkpt lat="53.367148" lon="-1.831809"><ele>348</ele><time>2020-08-05T13:19:39Z</time><name>PT13173</name></trkpt>
<trkpt lat="53.367142" lon="-1.831831"><ele>348</ele><time>2020-08-05T13:19:40Z</time><name>PT13174</name></trkpt>
<trkpt lat="53.367134" lon="-1.831850"><ele>347</ele><time>2020-08-05T13:19:40Z</time><name>PT13175</name></trkpt>
<trkpt lat="53.367126" lon="-1.831867"><ele>348</ele><time>2020-08-05T13:19:42Z</time><name>PT13176</name></trkpt>
<trkpt lat="53.367125" lon="-1.831882"><ele>348</ele><time>2020-08-05T13:19:43Z</time><name>PT13177</name></trkpt>
<trkpt lat="53.367124" lon="-1.831899"><ele>348</ele><time>2020-08-05T13:19:43Z</time><name>PT13178</name></trkpt>
<trkpt lat="53.367122" lon="-1.831919"><ele>348</ele><time>2020-08-05T13:19:45Z</time><name>PT13179</name></trkpt>
<trkpt lat="53.367118" lon="-1.831940"><ele>348</ele><time>2020-08-05T13:19:46Z</time><name>PT13180</name></trkpt>
<trkpt lat="53.367112" lon="-1.831959"><ele>347</ele><time>2020-08-05T13:19:47Z</time><name>PT13181</name></trkpt>
<trkpt lat="53.367104" lon="-1.831979"><ele>348</ele><time>2020-08-05T13:19:48Z</time><name>PT13182</name></trkpt>
<trkpt lat="53.367100" lon="-1.832001"><ele>347</ele><time>2020-08-05T13:19:49Z</time><name>PT13183</name></trkpt>
<trkpt lat="53.367097" lon="-1.832020"><ele>347</ele><time>2020-08-05T13:19:50Z</time><name>PT13184</name></trkpt>
<trkpt lat="53.367094" lon="-1.832041"><ele>347</ele><time>2020-08-05T13:19:51Z</time><name>PT13185</name></trkpt>
<trkpt lat="53.367091" lon="-1.832063"><ele>347</ele><time>2020-08-05T13:19:52Z</time><name>PT13186</name></trkpt>
<trkpt lat="53.367089" lon="-1.832081"><ele>346</ele><time>2020-08-05T13:19:52Z</time><name>PT13187</name></trkpt>
<trkpt lat="53.367085" lon="-1.832099"><ele>346</ele><time>2020-08-05T13:19:54Z</time><name>PT13188</name></trkpt>
<trkpt lat="53.367080" lon="-1.832121"><ele>346</ele><time>2020-08-05T13:19:55Z</time><name>PT13189</name></trkpt>
<trkpt lat="53.367076" lon="-1.832142"><ele>346</ele><time>2020-08-05T13:19:55Z</time><name>PT13190</name></trkpt>
<trkpt lat="53.367072" lon="-1.832164"><ele>346</ele><time>2020-08-05T13:19:57Z</time><name>PT13191</name></trkpt>
<trkpt lat="53.367067" lon="-1.832187"><ele>346</ele><time>2020-08-05T13:19:58Z</time><name>PT13192</name></trkpt>
<trkpt lat="53.367063" lon="-1.832205"><ele>346</ele><time>2020-08-05T13:19:58Z</time><name>PT13193</name></trkpt>
<trkpt lat="53.367060" lon="-1.832224"><ele>346</ele><time>2020-08-05T13:20:00Z</time><name>PT13194</name></trkpt>
<trkpt lat="53.367055" lon="-1.832246"><ele>346</ele><time>2020-08-05T13:20:01Z</time><name>PT13195</name></trkpt>
<trkpt lat="53.367053" lon="-1.832264"><ele>346</ele><time>2020-08-05T13:20:01Z</time><name>PT13196</name></trkpt>
<trkpt lat="53.367052" lon="-1.832281"><ele>346</ele><time>2020-08-05T13:20:03Z</time><name>PT13197</name></trkpt>
<trkpt lat="53.367047" lon="-1.832301"><ele>347</ele><time>2020-08-05T13:20:04Z</time><name>PT13198</name></trkpt>
<trkpt lat="53.367042" lon="-1.832322"><ele>347</ele><time>2020-08-05T13:20:04Z</time><name>PT13199</name></trkpt>
<trkpt lat="53.367035" lon="-1.832342"><ele>346</ele><time>2020-08-05T13:20:06Z</time><name>PT13200</name></trkpt>
<trkpt lat="53.367027" lon="-1.832362"><ele>346</ele><time>2020-08-05T13:20:07Z</time><name>PT13201</name></trkpt>
<trkpt lat="53.367020" lon="-1.832383"><ele>346</ele><time>2020-08-05T13:20:07Z</time><name>PT13202</name></trkpt>
<trkpt lat="53.367014" lon="-1.832397"><ele>346</ele><time>2020-08-05T13:20:09Z</time><name>PT13203</name></trkpt>
<trkpt lat="53.367009" lon="-1.832415"><ele>346</ele><time>2020-08-05T13:20:10Z</time><name>PT13204</name></trkpt>
<trkpt lat="53.367002" lon="-1.832437"><ele>346</ele><time>2020-08-05T13:20:10Z</time><name>PT13205</name></trkpt>
<trkpt lat="53.366995" lon="-1.832456"><ele>346</ele><time>2020-08-05T13:20:12Z</time><name>PT13206</name></trkpt>
<trkpt lat="53.366990" lon="-1.832471"><ele>347</ele><time>2020-08-05T13:20:13Z</time><name>PT13207</name></trkpt>
<trkpt lat="53.366981" lon="-1.832491"><ele>347</ele><time>2020-08-05T13:20:13Z</time><name>PT13208</name></trkpt>
<trkpt lat="53.366976" lon="-1.832509"><ele>347</ele><time>2020-08-05T13:20:15Z</time><name>PT13209</name></trkpt>
<trkpt lat="53.366973" lon="-1.832528"><ele>347</ele><time>2020-08-05T13:20:16Z</time><name>PT13210</name></trkpt>
<trkpt lat="53.366967" lon="-1.832549"><ele>347</ele><time>2020-08-05T13:20:16Z</time><name>PT13211</name></trkpt>
<trkpt lat="53.366961" lon="-1.832569"><ele>347</ele><time>2020-08-05T13:20:18Z</time><name>PT13212</name></trkpt>
<trkpt lat="53.366954" lon="-1.832587"><ele>347</ele><time>2020-08-05T13:20:19Z</time><name>PT13213</name></trkpt>
<trkpt lat="53.366949" lon="-1.832601"><ele>348</ele><time>2020-08-05T13:20:19Z</time><name>PT13214</name></trkpt>
<trkpt lat="53.366942" lon="-1.832619"><ele>347</ele><time>2020-08-05T13:20:21Z</time><name>PT13215</name></trkpt>
<trkpt lat="53.366937" lon="-1.832639"><ele>347</ele><time>2020-08-05T13:20:22Z</time><name>PT13216</name></trkpt>
<trkpt lat="53.366931" lon="-1.832658"><ele>347</ele><time>2020-08-05T13:20:22Z</time><name>PT13217</name></trkpt>
<trkpt lat="53.366925" lon="-1.832678"><ele>347</ele><time>2020-08-05T13:20:24Z</time><name>PT13218</name></trkpt>
<trkpt lat="53.366917" lon="-1.832703"><ele>346</ele><time>2020-08-05T13:20:25Z</time><name>PT13219</name></trkpt>
<trkpt lat="53.366910" lon="-1.832723"><ele>346</ele><time>2020-08-05T13:20:25Z</time><name>PT13220</name></trkpt>
<trkpt lat="53.366904" lon="-1.832741"><ele>346</ele><time>2020-08-05T13:20:27Z</time><name>PT13221</name></trkpt>
<trkpt lat="53.366897" lon="-1.832761"><ele>346</ele><time>2020-08-05T13:20:28Z</time><name>PT13222</name></trkpt>
<trkpt lat="53.366891" lon="-1.832781"><ele>346</ele><time>2020-08-05T13:20:28Z</time><name>PT13223</name></trkpt>
<trkpt lat="53.366886" lon="-1.832804"><ele>346</ele><time>2020-08-05T13:20:30Z</time><name>PT13224</name></trkpt>
<trkpt lat="53.366883" lon="-1.832825"><ele>346</ele><time>2020-08-05T13:20:31Z</time><name>PT13225</name></trkpt>
<trkpt lat="53.366882" lon="-1.832849"><ele>347</ele><time>2020-08-05T13:20:31Z</time><name>PT13226</name></trkpt>
<trkpt lat="53.366875" lon="-1.832871"><ele>347</ele><time>2020-08-05T13:20:33Z</time><name>PT13227</name></trkpt>
<trkpt lat="53.366868" lon="-1.832892"><ele>347</ele><time>2020-08-05T13:20:34Z</time><name>PT13228</name></trkpt>
<trkpt lat="53.366863" lon="-1.832913"><ele>347</ele><time>2020-08-05T13:20:34Z</time><name>PT13229</name></trkpt>
<trkpt lat="53.366862" lon="-1.832930"><ele>347</ele><time>2020-08-05T13:20:36Z</time><name>PT13230</name></trkpt>
<trkpt lat="53.366860" lon="-1.832950"><ele>348</ele><time>2020-08-05T13:20:37Z</time><name>PT13231</name></trkpt>
<trkpt lat="53.366858" lon="-1.832970"><ele>348</ele><time>2020-08-05T13:20:37Z</time><name>PT13232</name></trkpt>
<trkpt lat="53.366855" lon="-1.832987"><ele>348</ele><time>2020-08-05T13:20:39Z</time><name>PT13233</name></trkpt>
<trkpt lat="53.366850" lon="-1.833010"><ele>348</ele><time>2020-08-05T13:20:40Z</time><name>PT13234</name></trkpt>
<trkpt lat="53.366847" lon="-1.833033"><ele>348</ele><time>2020-08-05T13:20:40Z</time><name>PT13235</name></trkpt>
<trkpt lat="53.366847" lon="-1.833052"><ele>348</ele><time>2020-08-05T13:20:42Z</time><name>PT13236</name></trkpt>
<trkpt lat="53.366849" lon="-1.833073"><ele>348</ele><time>2020-08-05T13:20:43Z</time><name>PT13237</name></trkpt>
<trkpt lat="53.366848" lon="-1.833092"><ele>349</ele><time>2020-08-05T13:20:43Z</time><name>PT13238</name></trkpt>
<trkpt lat="53.366846" lon="-1.833113"><ele>348</ele><time>2020-08-05T13:20:45Z</time><name>PT13239</name></trkpt>
<trkpt lat="53.366844" lon="-1.833131"><ele>348</ele><time>2020-08-05T13:20:46Z</time><name>PT13240</name></trkpt>
<trkpt lat="53.366840" lon="-1.833154"><ele>348</ele><time>2020-08-05T13:20:46Z</time><name>PT13241</name></trkpt>
<trkpt lat="53.366836" lon="-1.833173"><ele>348</ele><time>2020-08-05T13:20:48Z</time><name>PT13242</name></trkpt>
<trkpt lat="53.366835" lon="-1.833190"><ele>348</ele><time>2020-08-05T13:20:49Z</time><name>PT13243</name></trkpt>
<trkpt lat="53.366833" lon="-1.833214"><ele>349</ele><time>2020-08-05T13:20:49Z</time><name>PT13244</name></trkpt>
<trkpt lat="53.366832" lon="-1.833232"><ele>349</ele><time>2020-08-05T13:20:51Z</time><name>PT13245</name></trkpt>
<trkpt lat="53.366829" lon="-1.833249"><ele>348</ele><time>2020-08-05T13:20:52Z</time><name>PT13246</name></trkpt>
<trkpt lat="53.366828" lon="-1.833271"><ele>349</ele><time>2020-08-05T13:20:52Z</time><name>PT13247</name></trkpt>
<trkpt lat="53.366828" lon="-1.833289"><ele>349</ele><time>2020-08-05T13:20:54Z</time><name>PT13248</name></trkpt>
<trkpt lat="53.366827" lon="-1.833308"><ele>349</ele><time>2020-08-05T13:20:55Z</time><name>PT13249</name></trkpt>
<trkpt lat="53.366825" lon="-1.833331"><ele>350</ele><time>2020-08-05T13:20:55Z</time><name>PT13250</name></trkpt>
<trkpt lat="53.366824" lon="-1.833349"><ele>349</ele><time>2020-08-05T13:20:57Z</time><name>PT13251</name></trkpt>
<trkpt lat="53.366823" lon="-1.833366"><ele>349</ele><time>2020-08-05T13:20:58Z</time><name>PT13252</name></trkpt>
<trkpt lat="53.366820" lon="-1.833384"><ele>349</ele><time>2020-08-05T13:20:59Z</time><name>PT13253</name></trkpt>
<trkpt lat="53.366817" lon="-1.833402"><ele>349</ele><time>2020-08-05T13:21:00Z</time><name>PT13254</name></trkpt>
<trkpt lat="53.366817" lon="-1.833420"><ele>349</ele><time>2020-08-05T13:21:01Z</time><name>PT13255</name></trkpt>
<trkpt lat="53.366818" lon="-1.833439"><ele>349</ele><time>2020-08-05T13:21:02Z</time><name>PT13256</name></trkpt>
<trkpt lat="53.366820" lon="-1.833460"><ele>350</ele><time>2020-08-05T13:21:03Z</time><name>PT13257</name></trkpt>
<trkpt lat="53.366823" lon="-1.833478"><ele>351</ele><time>2020-08-05T13:21:04Z</time><name>PT13258</name></trkpt>
<trkpt lat="53.366823" lon="-1.833497"><ele>351</ele><time>2020-08-05T13:21:04Z</time><name>PT13259</name></trkpt>
<trkpt lat="53.366824" lon="-1.833512"><ele>353</ele><time>2020-08-05T13:21:06Z</time><name>PT13260</name></trkpt>
<trkpt lat="53.366825" lon="-1.833529"><ele>353</ele><time>2020-08-05T13:21:07Z</time><name>PT13261</name></trkpt>
<trkpt lat="53.366824" lon="-1.833551"><ele>353</ele><time>2020-08-05T13:21:07Z</time><name>PT13262</name></trkpt>
<trkpt lat="53.366826" lon="-1.833570"><ele>353</ele><time>2020-08-05T13:21:09Z</time><name>PT13263</name></trkpt>
<trkpt lat="53.366823" lon="-1.833589"><ele>353</ele><time>2020-08-05T13:21:10Z</time><name>PT13264</name></trkpt>
<trkpt lat="53.366822" lon="-1.833599"><ele>352</ele><time>2020-08-05T13:21:10Z</time><name>PT13265</name></trkpt>
<trkpt lat="53.366824" lon="-1.833612"><ele>353</ele><time>2020-08-05T13:21:12Z</time><name>PT13266</name></trkpt>
<trkpt lat="53.366824" lon="-1.833627"><ele>353</ele><time>2020-08-05T13:21:13Z</time><name>PT13267</name></trkpt>
<trkpt lat="53.366825" lon="-1.833645"><ele>353</ele><time>2020-08-05T13:21:13Z</time><name>PT13268</name></trkpt>
<trkpt lat="53.366823" lon="-1.833660"><ele>353</ele><time>2020-08-05T13:21:15Z</time><name>PT13269</name></trkpt>
<trkpt lat="53.366820" lon="-1.833675"><ele>353</ele><time>2020-08-05T13:21:16Z</time><name>PT13270</name></trkpt>
<trkpt lat="53.366818" lon="-1.833688"><ele>353</ele><time>2020-08-05T13:21:16Z</time><name>PT13271</name></trkpt>
<trkpt lat="53.366817" lon="-1.833699"><ele>353</ele><time>2020-08-05T13:21:18Z</time><name>PT13272</name></trkpt>
<trkpt lat="53.366817" lon="-1.833706"><ele>353</ele><time>2020-08-05T13:21:19Z</time><name>PT13273</name></trkpt>
<trkpt lat="53.366817" lon="-1.833714"><ele>353</ele><time>2020-08-05T13:21:19Z</time><name>PT13274</name></trkpt>
<trkpt lat="53.366812" lon="-1.833724"><ele>352</ele><time>2020-08-05T13:21:21Z</time><name>PT13275</name></trkpt>
<trkpt lat="53.366811" lon="-1.833730"><ele>352</ele><time>2020-08-05T13:21:22Z</time><name>PT13276</name></trkpt>
<trkpt lat="53.366814" lon="-1.833737"><ele>352</ele><time>2020-08-05T13:21:22Z</time><name>PT13277</name></trkpt>
<trkpt lat="53.366819" lon="-1.833754"><ele>351</ele><time>2020-08-05T13:21:24Z</time><name>PT13278</name></trkpt>
<trkpt lat="53.366816" lon="-1.833776"><ele>351</ele><time>2020-08-05T13:21:25Z</time><name>PT13279</name></trkpt>
<trkpt lat="53.366805" lon="-1.833798"><ele>351</ele><time>2020-08-05T13:21:25Z</time><name>PT13280</name></trkpt>
<trkpt lat="53.366796" lon="-1.833819"><ele>351</ele><time>2020-08-05T13:21:27Z</time><name>PT13281</name></trkpt>
<trkpt lat="53.366785" lon="-1.833837"><ele>351</ele><time>2020-08-05T13:21:28Z</time><name>PT13282</name></trkpt>
<trkpt lat="53.366777" lon="-1.833853"><ele>350</ele><time>2020-08-05T13:21:28Z</time><name>PT13283</name></trkpt>
<trkpt lat="53.366771" lon="-1.833870"><ele>350</ele><time>2020-08-05T13:21:30Z</time><name>PT13284</name></trkpt>
<trkpt lat="53.366766" lon="-1.833891"><ele>350</ele><time>2020-08-05T13:21:31Z</time><name>PT13285</name></trkpt>
<trkpt lat="53.366759" lon="-1.833913"><ele>350</ele><time>2020-08-05T13:21:31Z</time><name>PT13286</name></trkpt>
<trkpt lat="53.366754" lon="-1.833940"><ele>349</ele><time>2020-08-05T13:21:33Z</time><name>PT13287</name></trkpt>
<trkpt lat="53.366751" lon="-1.833961"><ele>349</ele><time>2020-08-05T13:21:34Z</time><name>PT13288</name></trkpt>
<trkpt lat="53.366750" lon="-1.833983"><ele>349</ele><time>2020-08-05T13:21:34Z</time><name>PT13289</name></trkpt>
<trkpt lat="53.366754" lon="-1.834001"><ele>349</ele><time>2020-08-05T13:21:36Z</time><name>PT13290</name></trkpt>
<trkpt lat="53.366760" lon="-1.834019"><ele>350</ele><time>2020-08-05T13:21:37Z</time><name>PT13291</name></trkpt>
<trkpt lat="53.366763" lon="-1.834036"><ele>349</ele><time>2020-08-05T13:21:37Z</time><name>PT13292</name></trkpt>
<trkpt lat="53.366763" lon="-1.834058"><ele>350</ele><time>2020-08-05T13:21:39Z</time><name>PT13293</name></trkpt>
<trkpt lat="53.366764" lon="-1.834076"><ele>350</ele><time>2020-08-05T13:21:40Z</time><name>PT13294</name></trkpt>
<trkpt lat="53.366766" lon="-1.834097"><ele>351</ele><time>2020-08-05T13:21:40Z</time><name>PT13295</name></trkpt>
<trkpt lat="53.366765" lon="-1.834117"><ele>352</ele><time>2020-08-05T13:21:42Z</time><name>PT13296</name></trkpt>
<trkpt lat="53.366753" lon="-1.834136"><ele>353</ele><time>2020-08-05T13:21:43Z</time><name>PT13297</name></trkpt>
<trkpt lat="53.366747" lon="-1.834153"><ele>353</ele><time>2020-08-05T13:21:44Z</time><name>PT13298</name></trkpt>
<trkpt lat="53.366743" lon="-1.834170"><ele>351</ele><time>2020-08-05T13:21:45Z</time><name>PT13299</name></trkpt>
<trkpt lat="53.366741" lon="-1.834187"><ele>352</ele><time>2020-08-05T13:21:46Z</time><name>PT13300</name></trkpt>
<trkpt lat="53.366737" lon="-1.834208"><ele>352</ele><time>2020-08-05T13:21:47Z</time><name>PT13301</name></trkpt>
<trkpt lat="53.366730" lon="-1.834224"><ele>351</ele><time>2020-08-05T13:21:48Z</time><name>PT13302</name></trkpt>
<trkpt lat="53.366721" lon="-1.834241"><ele>351</ele><time>2020-08-05T13:21:49Z</time><name>PT13303</name></trkpt>
<trkpt lat="53.366717" lon="-1.834258"><ele>351</ele><time>2020-08-05T13:21:50Z</time><name>PT13304</name></trkpt>
<trkpt lat="53.366714" lon="-1.834279"><ele>351</ele><time>2020-08-05T13:21:51Z</time><name>PT13305</name></trkpt>
<trkpt lat="53.366711" lon="-1.834299"><ele>351</ele><time>2020-08-05T13:21:52Z</time><name>PT13306</name></trkpt>
<trkpt lat="53.366705" lon="-1.834318"><ele>352</ele><time>2020-08-05T13:21:52Z</time><name>PT13307</name></trkpt>
<trkpt lat="53.366699" lon="-1.834332"><ele>352</ele><time>2020-08-05T13:21:54Z</time><name>PT13308</name></trkpt>
<trkpt lat="53.366693" lon="-1.834348"><ele>352</ele><time>2020-08-05T13:21:55Z</time><name>PT13309</name></trkpt>
<trkpt lat="53.366687" lon="-1.834364"><ele>352</ele><time>2020-08-05T13:21:55Z</time><name>PT13310</name></trkpt>
<trkpt lat="53.366682" lon="-1.834378"><ele>352</ele><time>2020-08-05T13:21:57Z</time><name>PT13311</name></trkpt>
<trkpt lat="53.366678" lon="-1.834398"><ele>352</ele><time>2020-08-05T13:21:58Z</time><name>PT13312</name></trkpt>
<trkpt lat="53.366677" lon="-1.834415"><ele>353</ele><time>2020-08-05T13:21:58Z</time><name>PT13313</name></trkpt>
<trkpt lat="53.366673" lon="-1.834431"><ele>352</ele><time>2020-08-05T13:22:00Z</time><name>PT13314</name></trkpt>
<trkpt lat="53.366669" lon="-1.834450"><ele>352</ele><time>2020-08-05T13:22:01Z</time><name>PT13315</name></trkpt>
<trkpt lat="53.366664" lon="-1.834467"><ele>352</ele><time>2020-08-05T13:22:01Z</time><name>PT13316</name></trkpt>
<trkpt lat="53.366662" lon="-1.834481"><ele>352</ele><time>2020-08-05T13:22:03Z</time><name>PT13317</name></trkpt>
<trkpt lat="53.366660" lon="-1.834499"><ele>352</ele><time>2020-08-05T13:22:04Z</time><name>PT13318</name></trkpt>
<trkpt lat="53.366658" lon="-1.834517"><ele>352</ele><time>2020-08-05T13:22:04Z</time><name>PT13319</name></trkpt>
<trkpt lat="53.366656" lon="-1.834531"><ele>352</ele><time>2020-08-05T13:22:06Z</time><name>PT13320</name></trkpt>
<trkpt lat="53.366653" lon="-1.834548"><ele>352</ele><time>2020-08-05T13:22:07Z</time><name>PT13321</name></trkpt>
<trkpt lat="53.366653" lon="-1.834564"><ele>352</ele><time>2020-08-05T13:22:07Z</time><name>PT13322</name></trkpt>
<trkpt lat="53.366653" lon="-1.834578"><ele>352</ele><time>2020-08-05T13:22:09Z</time><name>PT13323</name></trkpt>
<trkpt lat="53.366656" lon="-1.834590"><ele>351</ele><time>2020-08-05T13:22:10Z</time><name>PT13324</name></trkpt>
<trkpt lat="53.366655" lon="-1.834605"><ele>351</ele><time>2020-08-05T13:22:10Z</time><name>PT13325</name></trkpt>
<trkpt lat="53.366655" lon="-1.834620"><ele>350</ele><time>2020-08-05T13:22:12Z</time><name>PT13326</name></trkpt>
<trkpt lat="53.366654" lon="-1.834634"><ele>350</ele><time>2020-08-05T13:22:13Z</time><name>PT13327</name></trkpt>
<trkpt lat="53.366656" lon="-1.834649"><ele>351</ele><time>2020-08-05T13:22:13Z</time><name>PT13328</name></trkpt>
<trkpt lat="53.366655" lon="-1.834666"><ele>351</ele><time>2020-08-05T13:22:15Z</time><name>PT13329</name></trkpt>
<trkpt lat="53.366655" lon="-1.834681"><ele>352</ele><time>2020-08-05T13:22:16Z</time><name>PT13330</name></trkpt>
<trkpt lat="53.366659" lon="-1.834689"><ele>352</ele><time>2020-08-05T13:22:16Z</time><name>PT13331</name></trkpt>
<trkpt lat="53.366661" lon="-1.834703"><ele>352</ele><time>2020-08-05T13:22:18Z</time><name>PT13332</name></trkpt>
<trkpt lat="53.366658" lon="-1.834716"><ele>351</ele><time>2020-08-05T13:22:19Z</time><name>PT13333</name></trkpt>
<trkpt lat="53.366661" lon="-1.834732"><ele>351</ele><time>2020-08-05T13:22:19Z</time><name>PT13334</name></trkpt>
<trkpt lat="53.366665" lon="-1.834748"><ele>352</ele><time>2020-08-05T13:22:21Z</time><name>PT13335</name></trkpt>
<trkpt lat="53.366668" lon="-1.834765"><ele>352</ele><time>2020-08-05T13:22:22Z</time><name>PT13336</name></trkpt>
<trkpt lat="53.366676" lon="-1.834775"><ele>351</ele><time>2020-08-05T13:22:22Z</time><name>PT13337</name></trkpt>
<trkpt lat="53.366677" lon="-1.834793"><ele>351</ele><time>2020-08-05T13:22:24Z</time><name>PT13338</name></trkpt>
<trkpt lat="53.366674" lon="-1.834811"><ele>351</ele><time>2020-08-05T13:22:25Z</time><name>PT13339</name></trkpt>
<trkpt lat="53.366674" lon="-1.834832"><ele>352</ele><time>2020-08-05T13:22:25Z</time><name>PT13340</name></trkpt>
<trkpt lat="53.366672" lon="-1.834853"><ele>352</ele><time>2020-08-05T13:22:27Z</time><name>PT13341</name></trkpt>
<trkpt lat="53.366673" lon="-1.834876"><ele>354</ele><time>2020-08-05T13:22:28Z</time><name>PT13342</name></trkpt>
<trkpt lat="53.366672" lon="-1.834897"><ele>355</ele><time>2020-08-05T13:22:28Z</time><name>PT13343</name></trkpt>
<trkpt lat="53.366671" lon="-1.834916"><ele>355</ele><time>2020-08-05T13:22:30Z</time><name>PT13344</name></trkpt>
<trkpt lat="53.366671" lon="-1.834937"><ele>355</ele><time>2020-08-05T13:22:31Z</time><name>PT13345</name></trkpt>
<trkpt lat="53.366669" lon="-1.834955"><ele>355</ele><time>2020-08-05T13:22:31Z</time><name>PT13346</name></trkpt>
<trkpt lat="53.366667" lon="-1.834975"><ele>356</ele><time>2020-08-05T13:22:33Z</time><name>PT13347</name></trkpt>
<trkpt lat="53.366663" lon="-1.834993"><ele>356</ele><time>2020-08-05T13:22:34Z</time><name>PT13348</name></trkpt>
<trkpt lat="53.366658" lon="-1.835009"><ele>357</ele><time>2020-08-05T13:22:34Z</time><name>PT13349</name></trkpt>
<trkpt lat="53.366654" lon="-1.835028"><ele>357</ele><time>2020-08-05T13:22:36Z</time><name>PT13350</name></trkpt>
<trkpt lat="53.366652" lon="-1.835048"><ele>357</ele><time>2020-08-05T13:22:37Z</time><name>PT13351</name></trkpt>
<trkpt lat="53.366650" lon="-1.835068"><ele>357</ele><time>2020-08-05T13:22:37Z</time><name>PT13352</name></trkpt>
<trkpt lat="53.366648" lon="-1.835088"><ele>358</ele><time>2020-08-05T13:22:39Z</time><name>PT13353</name></trkpt>
<trkpt lat="53.366650" lon="-1.835110"><ele>359</ele><time>2020-08-05T13:22:40Z</time><name>PT13354</name></trkpt>
<trkpt lat="53.366646" lon="-1.835131"><ele>358</ele><time>2020-08-05T13:22:40Z</time><name>PT13355</name></trkpt>
<trkpt lat="53.366641" lon="-1.835148"><ele>358</ele><time>2020-08-05T13:22:42Z</time><name>PT13356</name></trkpt>
<trkpt lat="53.366635" lon="-1.835170"><ele>358</ele><time>2020-08-05T13:22:43Z</time><name>PT13357</name></trkpt>
<trkpt lat="53.366632" lon="-1.835193"><ele>358</ele><time>2020-08-05T13:22:43Z</time><name>PT13358</name></trkpt>
<trkpt lat="53.366630" lon="-1.835219"><ele>358</ele><time>2020-08-05T13:22:45Z</time><name>PT13359</name></trkpt>
<trkpt lat="53.366629" lon="-1.835242"><ele>358</ele><time>2020-08-05T13:22:46Z</time><name>PT13360</name></trkpt>
<trkpt lat="53.366633" lon="-1.835261"><ele>359</ele><time>2020-08-05T13:22:46Z</time><name>PT13361</name></trkpt>
<trkpt lat="53.366634" lon="-1.835283"><ele>359</ele><time>2020-08-05T13:22:48Z</time><name>PT13362</name></trkpt>
<trkpt lat="53.366633" lon="-1.835306"><ele>358</ele><time>2020-08-05T13:22:49Z</time><name>PT13363</name></trkpt>
<trkpt lat="53.366634" lon="-1.835329"><ele>359</ele><time>2020-08-05T13:22:49Z</time><name>PT13364</name></trkpt>
<trkpt lat="53.366634" lon="-1.835353"><ele>358</ele><time>2020-08-05T13:22:51Z</time><name>PT13365</name></trkpt>
<trkpt lat="53.366635" lon="-1.835373"><ele>358</ele><time>2020-08-05T13:22:52Z</time><name>PT13366</name></trkpt>
<trkpt lat="53.366636" lon="-1.835392"><ele>358</ele><time>2020-08-05T13:22:52Z</time><name>PT13367</name></trkpt>
<trkpt lat="53.366639" lon="-1.835413"><ele>359</ele><time>2020-08-05T13:22:54Z</time><name>PT13368</name></trkpt>
<trkpt lat="53.366642" lon="-1.835433"><ele>358</ele><time>2020-08-05T13:22:55Z</time><name>PT13369</name></trkpt>
<trkpt lat="53.366642" lon="-1.835455"><ele>360</ele><time>2020-08-05T13:22:55Z</time><name>PT13370</name></trkpt>
<trkpt lat="53.366642" lon="-1.835478"><ele>360</ele><time>2020-08-05T13:22:57Z</time><name>PT13371</name></trkpt>
<trkpt lat="53.366640" lon="-1.835502"><ele>361</ele><time>2020-08-05T13:22:58Z</time><name>PT13372</name></trkpt>
<trkpt lat="53.366639" lon="-1.835525"><ele>361</ele><time>2020-08-05T13:22:58Z</time><name>PT13373</name></trkpt>
<trkpt lat="53.366639" lon="-1.835546"><ele>361</ele><time>2020-08-05T13:23:00Z</time><name>PT13374</name></trkpt>
<trkpt lat="53.366639" lon="-1.835564"><ele>361</ele><time>2020-08-05T13:23:01Z</time><name>PT13375</name></trkpt>
<trkpt lat="53.366638" lon="-1.835586"><ele>360</ele><time>2020-08-05T13:23:01Z</time><name>PT13376</name></trkpt>
<trkpt lat="53.366632" lon="-1.835610"><ele>360</ele><time>2020-08-05T13:23:03Z</time><name>PT13377</name></trkpt>
<trkpt lat="53.366629" lon="-1.835632"><ele>360</ele><time>2020-08-05T13:23:04Z</time><name>PT13378</name></trkpt>
<trkpt lat="53.366629" lon="-1.835654"><ele>360</ele><time>2020-08-05T13:23:05Z</time><name>PT13379</name></trkpt>
<trkpt lat="53.366631" lon="-1.835674"><ele>361</ele><time>2020-08-05T13:23:06Z</time><name>PT13380</name></trkpt>
<trkpt lat="53.366630" lon="-1.835695"><ele>361</ele><time>2020-08-05T13:23:07Z</time><name>PT13381</name></trkpt>
<trkpt lat="53.366632" lon="-1.835718"><ele>362</ele><time>2020-08-05T13:23:07Z</time><name>PT13382</name></trkpt>
<trkpt lat="53.366630" lon="-1.835739"><ele>361</ele><time>2020-08-05T13:23:09Z</time><name>PT13383</name></trkpt>
<trkpt lat="53.366628" lon="-1.835760"><ele>361</ele><time>2020-08-05T13:23:10Z</time><name>PT13384</name></trkpt>
<trkpt lat="53.366624" lon="-1.835780"><ele>361</ele><time>2020-08-05T13:23:10Z</time><name>PT13385</name></trkpt>
<trkpt lat="53.366622" lon="-1.835805"><ele>361</ele><time>2020-08-05T13:23:12Z</time><name>PT13386</name></trkpt>
<trkpt lat="53.366620" lon="-1.835825"><ele>362</ele><time>2020-08-05T13:23:13Z</time><name>PT13387</name></trkpt>
<trkpt lat="53.366618" lon="-1.835841"><ele>362</ele><time>2020-08-05T13:23:13Z</time><name>PT13388</name></trkpt>
<trkpt lat="53.366615" lon="-1.835860"><ele>362</ele><time>2020-08-05T13:23:15Z</time><name>PT13389</name></trkpt>
<trkpt lat="53.366614" lon="-1.835880"><ele>362</ele><time>2020-08-05T13:23:16Z</time><name>PT13390</name></trkpt>
<trkpt lat="53.366615" lon="-1.835900"><ele>362</ele><time>2020-08-05T13:23:16Z</time><name>PT13391</name></trkpt>
<trkpt lat="53.366616" lon="-1.835913"><ele>361</ele><time>2020-08-05T13:23:18Z</time><name>PT13392</name></trkpt>
<trkpt lat="53.366617" lon="-1.835929"><ele>362</ele><time>2020-08-05T13:23:19Z</time><name>PT13393</name></trkpt>
<trkpt lat="53.366619" lon="-1.835947"><ele>362</ele><time>2020-08-05T13:23:20Z</time><name>PT13394</name></trkpt>
<trkpt lat="53.366622" lon="-1.835965"><ele>362</ele><time>2020-08-05T13:23:21Z</time><name>PT13395</name></trkpt>
<trkpt lat="53.366629" lon="-1.835983"><ele>361</ele><time>2020-08-05T13:23:22Z</time><name>PT13396</name></trkpt>
<trkpt lat="53.366634" lon="-1.836000"><ele>361</ele><time>2020-08-05T13:23:22Z</time><name>PT13397</name></trkpt>
<trkpt lat="53.366639" lon="-1.836017"><ele>361</ele><time>2020-08-05T13:23:24Z</time><name>PT13398</name></trkpt>
<trkpt lat="53.366645" lon="-1.836029"><ele>360</ele><time>2020-08-05T13:23:25Z</time><name>PT13399</name></trkpt>
<trkpt lat="53.366646" lon="-1.836037"><ele>360</ele><time>2020-08-05T13:23:25Z</time><name>PT13400</name></trkpt>
<trkpt lat="53.366649" lon="-1.836044"><ele>361</ele><time>2020-08-05T13:23:27Z</time><name>PT13401</name></trkpt>
<trkpt lat="53.366647" lon="-1.836062"><ele>361</ele><time>2020-08-05T13:23:28Z</time><name>PT13402</name></trkpt>
<trkpt lat="53.366647" lon="-1.836083"><ele>360</ele><time>2020-08-05T13:23:28Z</time><name>PT13403</name></trkpt>
<trkpt lat="53.366646" lon="-1.836102"><ele>359</ele><time>2020-08-05T13:23:30Z</time><name>PT13404</name></trkpt>
<trkpt lat="53.366644" lon="-1.836124"><ele>360</ele><time>2020-08-05T13:23:31Z</time><name>PT13405</name></trkpt>
<trkpt lat="53.366643" lon="-1.836150"><ele>360</ele><time>2020-08-05T13:23:31Z</time><name>PT13406</name></trkpt>
<trkpt lat="53.366640" lon="-1.836175"><ele>360</ele><time>2020-08-05T13:23:33Z</time><name>PT13407</name></trkpt>
<trkpt lat="53.366640" lon="-1.836196"><ele>359</ele><time>2020-08-05T13:23:34Z</time><name>PT13408</name></trkpt>
<trkpt lat="53.366640" lon="-1.836215"><ele>360</ele><time>2020-08-05T13:23:34Z</time><name>PT13409</name></trkpt>
<trkpt lat="53.366642" lon="-1.836232"><ele>359</ele><time>2020-08-05T13:23:36Z</time><name>PT13410</name></trkpt>
<trkpt lat="53.366641" lon="-1.836250"><ele>359</ele><time>2020-08-05T13:23:37Z</time><name>PT13411</name></trkpt>
<trkpt lat="53.366636" lon="-1.836265"><ele>359</ele><time>2020-08-05T13:23:37Z</time><name>PT13412</name></trkpt>
<trkpt lat="53.366628" lon="-1.836276"><ele>359</ele><time>2020-08-05T13:23:39Z</time><name>PT13413</name></trkpt>
<trkpt lat="53.366623" lon="-1.836290"><ele>359</ele><time>2020-08-05T13:23:40Z</time><name>PT13414</name></trkpt>
<trkpt lat="53.366620" lon="-1.836306"><ele>359</ele><time>2020-08-05T13:23:40Z</time><name>PT13415</name></trkpt>
<trkpt lat="53.366614" lon="-1.836322"><ele>359</ele><time>2020-08-05T13:23:42Z</time><name>PT13416</name></trkpt>
<trkpt lat="53.366607" lon="-1.836339"><ele>359</ele><time>2020-08-05T13:23:43Z</time><name>PT13417</name></trkpt>
<trkpt lat="53.366605" lon="-1.836358"><ele>359</ele><time>2020-08-05T13:23:43Z</time><name>PT13418</name></trkpt>
<trkpt lat="53.366603" lon="-1.836380"><ele>359</ele><time>2020-08-05T13:23:45Z</time><name>PT13419</name></trkpt>
<trkpt lat="53.366602" lon="-1.836399"><ele>359</ele><time>2020-08-05T13:23:46Z</time><name>PT13420</name></trkpt>
<trkpt lat="53.366603" lon="-1.836418"><ele>359</ele><time>2020-08-05T13:23:46Z</time><name>PT13421</name></trkpt>
<trkpt lat="53.366606" lon="-1.836440"><ele>359</ele><time>2020-08-05T13:23:48Z</time><name>PT13422</name></trkpt>
<trkpt lat="53.366608" lon="-1.836453"><ele>357</ele><time>2020-08-05T13:23:49Z</time><name>PT13423</name></trkpt>
<trkpt lat="53.366610" lon="-1.836474"><ele>357</ele><time>2020-08-05T13:23:49Z</time><name>PT13424</name></trkpt>
<trkpt lat="53.366613" lon="-1.836494"><ele>357</ele><time>2020-08-05T13:23:51Z</time><name>PT13425</name></trkpt>
<trkpt lat="53.366617" lon="-1.836511"><ele>357</ele><time>2020-08-05T13:23:52Z</time><name>PT13426</name></trkpt>
<trkpt lat="53.366621" lon="-1.836523"><ele>357</ele><time>2020-08-05T13:23:52Z</time><name>PT13427</name></trkpt>
<trkpt lat="53.366622" lon="-1.836539"><ele>357</ele><time>2020-08-05T13:23:54Z</time><name>PT13428</name></trkpt>
<trkpt lat="53.366626" lon="-1.836551"><ele>356</ele><time>2020-08-05T13:23:55Z</time><name>PT13429</name></trkpt>
<trkpt lat="53.366630" lon="-1.836569"><ele>356</ele><time>2020-08-05T13:23:55Z</time><name>PT13430</name></trkpt>
<trkpt lat="53.366635" lon="-1.836588"><ele>355</ele><time>2020-08-05T13:23:57Z</time><name>PT13431</name></trkpt>
<trkpt lat="53.366635" lon="-1.836608"><ele>356</ele><time>2020-08-05T13:23:58Z</time><name>PT13432</name></trkpt>
<trkpt lat="53.366635" lon="-1.836627"><ele>356</ele><time>2020-08-05T13:23:58Z</time><name>PT13433</name></trkpt>
<trkpt lat="53.366632" lon="-1.836650"><ele>355</ele><time>2020-08-05T13:24:00Z</time><name>PT13434</name></trkpt>
<trkpt lat="53.366629" lon="-1.836672"><ele>355</ele><time>2020-08-05T13:24:01Z</time><name>PT13435</name></trkpt>
<trkpt lat="53.366626" lon="-1.836694"><ele>355</ele><time>2020-08-05T13:24:01Z</time><name>PT13436</name></trkpt>
<trkpt lat="53.366625" lon="-1.836714"><ele>356</ele><time>2020-08-05T13:24:03Z</time><name>PT13437</name></trkpt>
<trkpt lat="53.366624" lon="-1.836731"><ele>355</ele><time>2020-08-05T13:24:04Z</time><name>PT13438</name></trkpt>
<trkpt lat="53.366621" lon="-1.836748"><ele>355</ele><time>2020-08-05T13:24:04Z</time><name>PT13439</name></trkpt>
<trkpt lat="53.366617" lon="-1.836770"><ele>355</ele><time>2020-08-05T13:24:06Z</time><name>PT13440</name></trkpt>
<trkpt lat="53.366612" lon="-1.836788"><ele>355</ele><time>2020-08-05T13:24:07Z</time><name>PT13441</name></trkpt>
<trkpt lat="53.366607" lon="-1.836804"><ele>355</ele><time>2020-08-05T13:24:07Z</time><name>PT13442</name></trkpt>
<trkpt lat="53.366602" lon="-1.836817"><ele>355</ele><time>2020-08-05T13:24:09Z</time><name>PT13443</name></trkpt>
<trkpt lat="53.366599" lon="-1.836833"><ele>355</ele><time>2020-08-05T13:24:10Z</time><name>PT13444</name></trkpt>
<trkpt lat="53.366595" lon="-1.836846"><ele>355</ele><time>2020-08-05T13:24:10Z</time><name>PT13445</name></trkpt>
<trkpt lat="53.366593" lon="-1.836863"><ele>355</ele><time>2020-08-05T13:24:12Z</time><name>PT13446</name></trkpt>
<trkpt lat="53.366591" lon="-1.836883"><ele>354</ele><time>2020-08-05T13:24:13Z</time><name>PT13447</name></trkpt>
<trkpt lat="53.366588" lon="-1.836903"><ele>354</ele><time>2020-08-05T13:24:13Z</time><name>PT13448</name></trkpt>
<trkpt lat="53.366586" lon="-1.836922"><ele>354</ele><time>2020-08-05T13:24:15Z</time><name>PT13449</name></trkpt>
<trkpt lat="53.366584" lon="-1.836939"><ele>354</ele><time>2020-08-05T13:24:16Z</time><name>PT13450</name></trkpt>
<trkpt lat="53.366585" lon="-1.836953"><ele>354</ele><time>2020-08-05T13:24:16Z</time><name>PT13451</name></trkpt>
<trkpt lat="53.366589" lon="-1.836970"><ele>353</ele><time>2020-08-05T13:24:18Z</time><name>PT13452</name></trkpt>
<trkpt lat="53.366588" lon="-1.836982"><ele>353</ele><time>2020-08-05T13:24:19Z</time><name>PT13453</name></trkpt>
<trkpt lat="53.366589" lon="-1.836998"><ele>352</ele><time>2020-08-05T13:24:19Z</time><name>PT13454</name></trkpt>
<trkpt lat="53.366593" lon="-1.837015"><ele>352</ele><time>2020-08-05T13:24:21Z</time><name>PT13455</name></trkpt>
<trkpt lat="53.366598" lon="-1.837030"><ele>352</ele><time>2020-08-05T13:24:22Z</time><name>PT13456</name></trkpt>
<trkpt lat="53.366603" lon="-1.837047"><ele>352</ele><time>2020-08-05T13:24:22Z</time><name>PT13457</name></trkpt>
<trkpt lat="53.366608" lon="-1.837063"><ele>352</ele><time>2020-08-05T13:24:24Z</time><name>PT13458</name></trkpt>
<trkpt lat="53.366615" lon="-1.837078"><ele>351</ele><time>2020-08-05T13:24:25Z</time><name>PT13459</name></trkpt>
<trkpt lat="53.366617" lon="-1.837094"><ele>351</ele><time>2020-08-05T13:24:25Z</time><name>PT13460</name></trkpt>
<trkpt lat="53.366619" lon="-1.837108"><ele>351</ele><time>2020-08-05T13:24:27Z</time><name>PT13461</name></trkpt>
<trkpt lat="53.366622" lon="-1.837121"><ele>350</ele><time>2020-08-05T13:24:28Z</time><name>PT13462</name></trkpt>
<trkpt lat="53.366623" lon="-1.837137"><ele>350</ele><time>2020-08-05T13:24:28Z</time><name>PT13463</name></trkpt>
<trkpt lat="53.366626" lon="-1.837154"><ele>350</ele><time>2020-08-05T13:24:30Z</time><name>PT13464</name></trkpt>
<trkpt lat="53.366629" lon="-1.837173"><ele>350</ele><time>2020-08-05T13:24:31Z</time><name>PT13465</name></trkpt>
<trkpt lat="53.366634" lon="-1.837193"><ele>350</ele><time>2020-08-05T13:24:32Z</time><name>PT13466</name></trkpt>
<trkpt lat="53.366638" lon="-1.837209"><ele>349</ele><time>2020-08-05T13:24:33Z</time><name>PT13467</name></trkpt>
<trkpt lat="53.366641" lon="-1.837226"><ele>349</ele><time>2020-08-05T13:24:34Z</time><name>PT13468</name></trkpt>
<trkpt lat="53.366644" lon="-1.837243"><ele>349</ele><time>2020-08-05T13:24:35Z</time><name>PT13469</name></trkpt>
<trkpt lat="53.366645" lon="-1.837259"><ele>349</ele><time>2020-08-05T13:24:36Z</time><name>PT13470</name></trkpt>
<trkpt lat="53.366644" lon="-1.837272"><ele>349</ele><time>2020-08-05T13:24:37Z</time><name>PT13471</name></trkpt>
<trkpt lat="53.366643" lon="-1.837282"><ele>348</ele><time>2020-08-05T13:24:37Z</time><name>PT13472</name></trkpt>
<trkpt lat="53.366639" lon="-1.837298"><ele>348</ele><time>2020-08-05T13:24:39Z</time><name>PT13473</name></trkpt>
<trkpt lat="53.366634" lon="-1.837313"><ele>348</ele><time>2020-08-05T13:24:40Z</time><name>PT13474</name></trkpt>
<trkpt lat="53.366622" lon="-1.837338"><ele>346</ele><time>2020-08-05T13:24:40Z</time><name>PT13475</name></trkpt>
<trkpt lat="53.366613" lon="-1.837361"><ele>345</ele><time>2020-08-05T13:24:42Z</time><name>PT13476</name></trkpt>
<trkpt lat="53.366606" lon="-1.837384"><ele>346</ele><time>2020-08-05T13:24:43Z</time><name>PT13477</name></trkpt>
<trkpt lat="53.366601" lon="-1.837404"><ele>345</ele><time>2020-08-05T13:24:43Z</time><name>PT13478</name></trkpt>
<trkpt lat="53.366596" lon="-1.837428"><ele>345</ele><time>2020-08-05T13:24:45Z</time><name>PT13479</name></trkpt>
<trkpt lat="53.366595" lon="-1.837453"><ele>345</ele><time>2020-08-05T13:24:46Z</time><name>PT13480</name></trkpt>
<trkpt lat="53.366593" lon="-1.837475"><ele>345</ele><time>2020-08-05T13:24:46Z</time><name>PT13481</name></trkpt>
<trkpt lat="53.366592" lon="-1.837497"><ele>345</ele><time>2020-08-05T13:24:48Z</time><name>PT13482</name></trkpt>
<trkpt lat="53.366592" lon="-1.837518"><ele>345</ele><time>2020-08-05T13:24:49Z</time><name>PT13483</name></trkpt>
<trkpt lat="53.366590" lon="-1.837543"><ele>345</ele><time>2020-08-05T13:24:49Z</time><name>PT13484</name></trkpt>
<trkpt lat="53.366589" lon="-1.837568"><ele>345</ele><time>2020-08-05T13:24:51Z</time><name>PT13485</name></trkpt>
<trkpt lat="53.366585" lon="-1.837590"><ele>344</ele><time>2020-08-05T13:24:52Z</time><name>PT13486</name></trkpt>
<trkpt lat="53.366579" lon="-1.837609"><ele>344</ele><time>2020-08-05T13:24:52Z</time><name>PT13487</name></trkpt>
<trkpt lat="53.366576" lon="-1.837631"><ele>343</ele><time>2020-08-05T13:24:54Z</time><name>PT13488</name></trkpt>
<trkpt lat="53.366574" lon="-1.837654"><ele>343</ele><time>2020-08-05T13:24:55Z</time><name>PT13489</name></trkpt>
<trkpt lat="53.366575" lon="-1.837671"><ele>341</ele><time>2020-08-05T13:24:55Z</time><name>PT13490</name></trkpt>
<trkpt lat="53.366577" lon="-1.837687"><ele>341</ele><time>2020-08-05T13:24:57Z</time><name>PT13491</name></trkpt>
<trkpt lat="53.366578" lon="-1.837703"><ele>342</ele><time>2020-08-05T13:24:58Z</time><name>PT13492</name></trkpt>
<trkpt lat="53.366578" lon="-1.837722"><ele>342</ele><time>2020-08-05T13:24:58Z</time><name>PT13493</name></trkpt>
<trkpt lat="53.366578" lon="-1.837742"><ele>341</ele><time>2020-08-05T13:25:00Z</time><name>PT13494</name></trkpt>
<trkpt lat="53.366577" lon="-1.837763"><ele>341</ele><time>2020-08-05T13:25:01Z</time><name>PT13495</name></trkpt>
<trkpt lat="53.366579" lon="-1.837783"><ele>341</ele><time>2020-08-05T13:25:01Z</time><name>PT13496</name></trkpt>
<trkpt lat="53.366579" lon="-1.837807"><ele>341</ele><time>2020-08-05T13:25:03Z</time><name>PT13497</name></trkpt>
<trkpt lat="53.366579" lon="-1.837827"><ele>341</ele><time>2020-08-05T13:25:04Z</time><name>PT13498</name></trkpt>
<trkpt lat="53.366582" lon="-1.837845"><ele>341</ele><time>2020-08-05T13:25:04Z</time><name>PT13499</name></trkpt>
<trkpt lat="53.366583" lon="-1.837865"><ele>342</ele><time>2020-08-05T13:25:06Z</time><name>PT13500</name></trkpt>
<trkpt lat="53.366586" lon="-1.837883"><ele>342</ele><time>2020-08-05T13:25:07Z</time><name>PT13501</name></trkpt>
<trkpt lat="53.366586" lon="-1.837900"><ele>342</ele><time>2020-08-05T13:25:07Z</time><name>PT13502</name></trkpt>
<trkpt lat="53.366586" lon="-1.837920"><ele>341</ele><time>2020-08-05T13:25:09Z</time><name>PT13503</name></trkpt>
<trkpt lat="53.366591" lon="-1.837937"><ele>341</ele><time>2020-08-05T13:25:10Z</time><name>PT13504</name></trkpt>
<trkpt lat="53.366594" lon="-1.837959"><ele>341</ele><time>2020-08-05T13:25:10Z</time><name>PT13505</name></trkpt>
<trkpt lat="53.366599" lon="-1.837981"><ele>341</ele><time>2020-08-05T13:25:12Z</time><name>PT13506</name></trkpt>
<trkpt lat="53.366603" lon="-1.838000"><ele>341</ele><time>2020-08-05T13:25:13Z</time><name>PT13507</name></trkpt>
<trkpt lat="53.366607" lon="-1.838016"><ele>341</ele><time>2020-08-05T13:25:13Z</time><name>PT13508</name></trkpt>
<trkpt lat="53.366611" lon="-1.838029"><ele>341</ele><time>2020-08-05T13:25:15Z</time><name>PT13509</name></trkpt>
<trkpt lat="53.366615" lon="-1.838043"><ele>340</ele><time>2020-08-05T13:25:16Z</time><name>PT13510</name></trkpt>
<trkpt lat="53.366620" lon="-1.838057"><ele>340</ele><time>2020-08-05T13:25:16Z</time><name>PT13511</name></trkpt>
<trkpt lat="53.366629" lon="-1.838068"><ele>339</ele><time>2020-08-05T13:25:18Z</time><name>PT13512</name></trkpt>
<trkpt lat="53.366639" lon="-1.838079"><ele>338</ele><time>2020-08-05T13:25:19Z</time><name>PT13513</name></trkpt>
<trkpt lat="53.366650" lon="-1.838091"><ele>339</ele><time>2020-08-05T13:25:19Z</time><name>PT13514</name></trkpt>
<trkpt lat="53.366658" lon="-1.838103"><ele>338</ele><time>2020-08-05T13:25:21Z</time><name>PT13515</name></trkpt>
<trkpt lat="53.366667" lon="-1.838119"><ele>339</ele><time>2020-08-05T13:25:22Z</time><name>PT13516</name></trkpt>
<trkpt lat="53.366672" lon="-1.838137"><ele>338</ele><time>2020-08-05T13:25:22Z</time><name>PT13517</name></trkpt>
<trkpt lat="53.366676" lon="-1.838153"><ele>338</ele><time>2020-08-05T13:25:24Z</time><name>PT13518</name></trkpt>
<trkpt lat="53.366679" lon="-1.838169"><ele>338</ele><time>2020-08-05T13:25:25Z</time><name>PT13519</name></trkpt>
<trkpt lat="53.366681" lon="-1.838183"><ele>338</ele><time>2020-08-05T13:25:25Z</time><name>PT13520</name></trkpt>
<trkpt lat="53.366685" lon="-1.838197"><ele>338</ele><time>2020-08-05T13:25:27Z</time><name>PT13521</name></trkpt>
<trkpt lat="53.366689" lon="-1.838206"><ele>337</ele><time>2020-08-05T13:25:28Z</time><name>PT13522</name></trkpt>
<trkpt lat="53.366694" lon="-1.838215"><ele>337</ele><time>2020-08-05T13:25:29Z</time><name>PT13523</name></trkpt>
<trkpt lat="53.366697" lon="-1.838229"><ele>337</ele><time>2020-08-05T13:25:30Z</time><name>PT13524</name></trkpt>
<trkpt lat="53.366699" lon="-1.838245"><ele>337</ele><time>2020-08-05T13:25:31Z</time><name>PT13525</name></trkpt>
<trkpt lat="53.366700" lon="-1.838259"><ele>337</ele><time>2020-08-05T13:25:31Z</time><name>PT13526</name></trkpt>
<trkpt lat="53.366702" lon="-1.838268"><ele>337</ele><time>2020-08-05T13:25:33Z</time><name>PT13527</name></trkpt>
<trkpt lat="53.366702" lon="-1.838280"><ele>337</ele><time>2020-08-05T13:25:34Z</time><name>PT13528</name></trkpt>
<trkpt lat="53.366700" lon="-1.838292"><ele>337</ele><time>2020-08-05T13:25:34Z</time><name>PT13529</name></trkpt>
<trkpt lat="53.366699" lon="-1.838307"><ele>336</ele><time>2020-08-05T13:25:36Z</time><name>PT13530</name></trkpt>
<trkpt lat="53.366698" lon="-1.838320"><ele>337</ele><time>2020-08-05T13:25:37Z</time><name>PT13531</name></trkpt>
<trkpt lat="53.366697" lon="-1.838331"><ele>337</ele><time>2020-08-05T13:25:37Z</time><name>PT13532</name></trkpt>
<trkpt lat="53.366698" lon="-1.838346"><ele>336</ele><time>2020-08-05T13:25:39Z</time><name>PT13533</name></trkpt>
<trkpt lat="53.366699" lon="-1.838361"><ele>336</ele><time>2020-08-05T13:25:40Z</time><name>PT13534</name></trkpt>
<trkpt lat="53.366701" lon="-1.838376"><ele>336</ele><time>2020-08-05T13:25:41Z</time><name>PT13535</name></trkpt>
<trkpt lat="53.366698" lon="-1.838392"><ele>335</ele><time>2020-08-05T13:25:42Z</time><name>PT13536</name></trkpt>
<trkpt lat="53.366693" lon="-1.838407"><ele>335</ele><time>2020-08-05T13:25:43Z</time><name>PT13537</name></trkpt>
<trkpt lat="53.366690" lon="-1.838422"><ele>336</ele><time>2020-08-05T13:25:43Z</time><name>PT13538</name></trkpt>
<trkpt lat="53.366688" lon="-1.838437"><ele>336</ele><time>2020-08-05T13:25:45Z</time><name>PT13539</name></trkpt>
<trkpt lat="53.366687" lon="-1.838449"><ele>336</ele><time>2020-08-05T13:25:46Z</time><name>PT13540</name></trkpt>
<trkpt lat="53.366686" lon="-1.838462"><ele>335</ele><time>2020-08-05T13:25:47Z</time><name>PT13541</name></trkpt>
<trkpt lat="53.366684" lon="-1.838468"><ele>334</ele><time>2020-08-05T13:25:48Z</time><name>PT13542</name></trkpt>
<trkpt lat="53.366683" lon="-1.838473"><ele>334</ele><time>2020-08-05T13:25:49Z</time><name>PT13543</name></trkpt>
<trkpt lat="53.366683" lon="-1.838476"><ele>334</ele><time>2020-08-05T13:25:50Z</time><name>PT13544</name></trkpt>
<trkpt lat="53.366683" lon="-1.838476"><ele>334</ele><time>2020-08-05T13:25:51Z</time><name>PT13545</name></trkpt>
<trkpt lat="53.366686" lon="-1.838485"><ele>334</ele><time>2020-08-05T13:26:15Z</time><name>PT13546</name></trkpt>
<trkpt lat="53.366689" lon="-1.838506"><ele>334</ele><time>2020-08-05T13:26:16Z</time><name>PT13547</name></trkpt>
<trkpt lat="53.366688" lon="-1.838525"><ele>335</ele><time>2020-08-05T13:26:16Z</time><name>PT13548</name></trkpt>
<trkpt lat="53.366681" lon="-1.838539"><ele>334</ele><time>2020-08-05T13:26:18Z</time><name>PT13549</name></trkpt>
<trkpt lat="53.366677" lon="-1.838559"><ele>334</ele><time>2020-08-05T13:26:19Z</time><name>PT13550</name></trkpt>
<trkpt lat="53.366670" lon="-1.838576"><ele>333</ele><time>2020-08-05T13:26:19Z</time><name>PT13551</name></trkpt>
<trkpt lat="53.366664" lon="-1.838594"><ele>333</ele><time>2020-08-05T13:26:21Z</time><name>PT13552</name></trkpt>
<trkpt lat="53.366657" lon="-1.838611"><ele>333</ele><time>2020-08-05T13:26:22Z</time><name>PT13553</name></trkpt>
<trkpt lat="53.366649" lon="-1.838629"><ele>332</ele><time>2020-08-05T13:26:22Z</time><name>PT13554</name></trkpt>
<trkpt lat="53.366642" lon="-1.838644"><ele>332</ele><time>2020-08-05T13:26:24Z</time><name>PT13555</name></trkpt>
<trkpt lat="53.366636" lon="-1.838663"><ele>332</ele><time>2020-08-05T13:26:25Z</time><name>PT13556</name></trkpt>
<trkpt lat="53.366631" lon="-1.838679"><ele>332</ele><time>2020-08-05T13:26:25Z</time><name>PT13557</name></trkpt>
<trkpt lat="53.366624" lon="-1.838693"><ele>331</ele><time>2020-08-05T13:26:27Z</time><name>PT13558</name></trkpt>
<trkpt lat="53.366616" lon="-1.838711"><ele>330</ele><time>2020-08-05T13:26:28Z</time><name>PT13559</name></trkpt>
<trkpt lat="53.366607" lon="-1.838732"><ele>330</ele><time>2020-08-05T13:26:28Z</time><name>PT13560</name></trkpt>
<trkpt lat="53.366602" lon="-1.838750"><ele>330</ele><time>2020-08-05T13:26:30Z</time><name>PT13561</name></trkpt>
<trkpt lat="53.366599" lon="-1.838771"><ele>330</ele><time>2020-08-05T13:26:31Z</time><name>PT13562</name></trkpt>
<trkpt lat="53.366595" lon="-1.838790"><ele>330</ele><time>2020-08-05T13:26:31Z</time><name>PT13563</name></trkpt>
<trkpt lat="53.366586" lon="-1.838809"><ele>330</ele><time>2020-08-05T13:26:33Z</time><name>PT13564</name></trkpt>
<trkpt lat="53.366576" lon="-1.838825"><ele>329</ele><time>2020-08-05T13:26:34Z</time><name>PT13565</name></trkpt>
<trkpt lat="53.366569" lon="-1.838848"><ele>329</ele><time>2020-08-05T13:26:34Z</time><name>PT13566</name></trkpt>
<trkpt lat="53.366563" lon="-1.838873"><ele>329</ele><time>2020-08-05T13:26:36Z</time><name>PT13567</name></trkpt>
<trkpt lat="53.366557" lon="-1.838895"><ele>328</ele><time>2020-08-05T13:26:37Z</time><name>PT13568</name></trkpt>
<trkpt lat="53.366555" lon="-1.838919"><ele>328</ele><time>2020-08-05T13:26:37Z</time><name>PT13569</name></trkpt>
<trkpt lat="53.366549" lon="-1.838937"><ele>328</ele><time>2020-08-05T13:26:39Z</time><name>PT13570</name></trkpt>
<trkpt lat="53.366540" lon="-1.838952"><ele>327</ele><time>2020-08-05T13:26:40Z</time><name>PT13571</name></trkpt>
<trkpt lat="53.366532" lon="-1.838970"><ele>327</ele><time>2020-08-05T13:26:41Z</time><name>PT13572</name></trkpt>
<trkpt lat="53.366525" lon="-1.838986"><ele>327</ele><time>2020-08-05T13:26:42Z</time><name>PT13573</name></trkpt>
<trkpt lat="53.366521" lon="-1.839005"><ele>327</ele><time>2020-08-05T13:26:43Z</time><name>PT13574</name></trkpt>
<trkpt lat="53.366516" lon="-1.839024"><ele>326</ele><time>2020-08-05T13:26:43Z</time><name>PT13575</name></trkpt>
<trkpt lat="53.366513" lon="-1.839041"><ele>326</ele><time>2020-08-05T13:26:45Z</time><name>PT13576</name></trkpt>
<trkpt lat="53.366510" lon="-1.839058"><ele>326</ele><time>2020-08-05T13:26:46Z</time><name>PT13577</name></trkpt>
<trkpt lat="53.366507" lon="-1.839076"><ele>326</ele><time>2020-08-05T13:26:47Z</time><name>PT13578</name></trkpt>
<trkpt lat="53.366507" lon="-1.839100"><ele>326</ele><time>2020-08-05T13:26:48Z</time><name>PT13579</name></trkpt>
<trkpt lat="53.366503" lon="-1.839122"><ele>326</ele><time>2020-08-05T13:26:49Z</time><name>PT13580</name></trkpt>
<trkpt lat="53.366499" lon="-1.839142"><ele>326</ele><time>2020-08-05T13:26:50Z</time><name>PT13581</name></trkpt>
<trkpt lat="53.366493" lon="-1.839164"><ele>326</ele><time>2020-08-05T13:26:51Z</time><name>PT13582</name></trkpt>
<trkpt lat="53.366486" lon="-1.839184"><ele>326</ele><time>2020-08-05T13:26:52Z</time><name>PT13583</name></trkpt>
<trkpt lat="53.366479" lon="-1.839202"><ele>326</ele><time>2020-08-05T13:26:53Z</time><name>PT13584</name></trkpt>
<trkpt lat="53.366471" lon="-1.839219"><ele>326</ele><time>2020-08-05T13:26:54Z</time><name>PT13585</name></trkpt>
<trkpt lat="53.366463" lon="-1.839237"><ele>326</ele><time>2020-08-05T13:26:55Z</time><name>PT13586</name></trkpt>
<trkpt lat="53.366455" lon="-1.839258"><ele>326</ele><time>2020-08-05T13:26:55Z</time><name>PT13587</name></trkpt>
<trkpt lat="53.366449" lon="-1.839279"><ele>325</ele><time>2020-08-05T13:26:57Z</time><name>PT13588</name></trkpt>
<trkpt lat="53.366442" lon="-1.839300"><ele>325</ele><time>2020-08-05T13:26:58Z</time><name>PT13589</name></trkpt>
<trkpt lat="53.366437" lon="-1.839314"><ele>325</ele><time>2020-08-05T13:26:58Z</time><name>PT13590</name></trkpt>
<trkpt lat="53.366433" lon="-1.839333"><ele>325</ele><time>2020-08-05T13:27:00Z</time><name>PT13591</name></trkpt>
<trkpt lat="53.366425" lon="-1.839351"><ele>324</ele><time>2020-08-05T13:27:01Z</time><name>PT13592</name></trkpt>
<trkpt lat="53.366418" lon="-1.839368"><ele>324</ele><time>2020-08-05T13:27:01Z</time><name>PT13593</name></trkpt>
<trkpt lat="53.366413" lon="-1.839385"><ele>324</ele><time>2020-08-05T13:27:03Z</time><name>PT13594</name></trkpt>
<trkpt lat="53.366407" lon="-1.839401"><ele>324</ele><time>2020-08-05T13:27:04Z</time><name>PT13595</name></trkpt>
<trkpt lat="53.366399" lon="-1.839414"><ele>323</ele><time>2020-08-05T13:27:04Z</time><name>PT13596</name></trkpt>
<trkpt lat="53.366392" lon="-1.839428"><ele>323</ele><time>2020-08-05T13:27:06Z</time><name>PT13597</name></trkpt>
<trkpt lat="53.366385" lon="-1.839443"><ele>323</ele><time>2020-08-05T13:27:07Z</time><name>PT13598</name></trkpt>
<trkpt lat="53.366380" lon="-1.839458"><ele>322</ele><time>2020-08-05T13:27:07Z</time><name>PT13599</name></trkpt>
<trkpt lat="53.366376" lon="-1.839470"><ele>322</ele><time>2020-08-05T13:27:09Z</time><name>PT13600</name></trkpt>
<trkpt lat="53.366373" lon="-1.839481"><ele>322</ele><time>2020-08-05T13:27:10Z</time><name>PT13601</name></trkpt>
<trkpt lat="53.366369" lon="-1.839489"><ele>322</ele><time>2020-08-05T13:27:10Z</time><name>PT13602</name></trkpt>
<trkpt lat="53.366365" lon="-1.839502"><ele>322</ele><time>2020-08-05T13:27:12Z</time><name>PT13603</name></trkpt>
<trkpt lat="53.366362" lon="-1.839508"><ele>322</ele><time>2020-08-05T13:27:13Z</time><name>PT13604</name></trkpt>
<trkpt lat="53.366362" lon="-1.839511"><ele>322</ele><time>2020-08-05T13:27:13Z</time><name>PT13605</name></trkpt>
<trkpt lat="53.366362" lon="-1.839507"><ele>322</ele><time>2020-08-05T13:27:15Z</time><name>PT13606</name></trkpt>
<trkpt lat="53.366362" lon="-1.839505"><ele>322</ele><time>2020-08-05T13:27:16Z</time><name>PT13607</name></trkpt>
<trkpt lat="53.366361" lon="-1.839511"><ele>322</ele><time>2020-08-05T13:27:22Z</time><name>PT13608</name></trkpt>
<trkpt lat="53.366356" lon="-1.839527"><ele>322</ele><time>2020-08-05T13:27:24Z</time><name>PT13609</name></trkpt>
<trkpt lat="53.366349" lon="-1.839544"><ele>322</ele><time>2020-08-05T13:27:25Z</time><name>PT13610</name></trkpt>
<trkpt lat="53.366341" lon="-1.839565"><ele>322</ele><time>2020-08-05T13:27:25Z</time><name>PT13611</name></trkpt>
<trkpt lat="53.366337" lon="-1.839589"><ele>322</ele><time>2020-08-05T13:27:27Z</time><name>PT13612</name></trkpt>
<trkpt lat="53.366332" lon="-1.839608"><ele>322</ele><time>2020-08-05T13:27:28Z</time><name>PT13613</name></trkpt>
<trkpt lat="53.366325" lon="-1.839628"><ele>322</ele><time>2020-08-05T13:27:28Z</time><name>PT13614</name></trkpt>
<trkpt lat="53.366318" lon="-1.839648"><ele>322</ele><time>2020-08-05T13:27:30Z</time><name>PT13615</name></trkpt>
<trkpt lat="53.366309" lon="-1.839671"><ele>322</ele><time>2020-08-05T13:27:31Z</time><name>PT13616</name></trkpt>
<trkpt lat="53.366301" lon="-1.839692"><ele>322</ele><time>2020-08-05T13:27:32Z</time><name>PT13617</name></trkpt>
<trkpt lat="53.366292" lon="-1.839711"><ele>322</ele><time>2020-08-05T13:27:33Z</time><name>PT13618</name></trkpt>
<trkpt lat="53.366286" lon="-1.839730"><ele>322</ele><time>2020-08-05T13:27:34Z</time><name>PT13619</name></trkpt>
<trkpt lat="53.366277" lon="-1.839750"><ele>321</ele><time>2020-08-05T13:27:35Z</time><name>PT13620</name></trkpt>
<trkpt lat="53.366270" lon="-1.839766"><ele>321</ele><time>2020-08-05T13:27:36Z</time><name>PT13621</name></trkpt>
<trkpt lat="53.366263" lon="-1.839784"><ele>321</ele><time>2020-08-05T13:27:37Z</time><name>PT13622</name></trkpt>
<trkpt lat="53.366258" lon="-1.839803"><ele>321</ele><time>2020-08-05T13:27:37Z</time><name>PT13623</name></trkpt>
<trkpt lat="53.366252" lon="-1.839823"><ele>321</ele><time>2020-08-05T13:27:39Z</time><name>PT13624</name></trkpt>
<trkpt lat="53.366244" lon="-1.839846"><ele>321</ele><time>2020-08-05T13:27:40Z</time><name>PT13625</name></trkpt>
<trkpt lat="53.366237" lon="-1.839865"><ele>321</ele><time>2020-08-05T13:27:40Z</time><name>PT13626</name></trkpt>
<trkpt lat="53.366231" lon="-1.839885"><ele>321</ele><time>2020-08-05T13:27:42Z</time><name>PT13627</name></trkpt>
<trkpt lat="53.366224" lon="-1.839902"><ele>321</ele><time>2020-08-05T13:27:43Z</time><name>PT13628</name></trkpt>
<trkpt lat="53.366219" lon="-1.839919"><ele>320</ele><time>2020-08-05T13:27:43Z</time><name>PT13629</name></trkpt>
<trkpt lat="53.366216" lon="-1.839938"><ele>320</ele><time>2020-08-05T13:27:45Z</time><name>PT13630</name></trkpt>
<trkpt lat="53.366214" lon="-1.839961"><ele>320</ele><time>2020-08-05T13:27:46Z</time><name>PT13631</name></trkpt>
<trkpt lat="53.366210" lon="-1.839985"><ele>320</ele><time>2020-08-05T13:27:46Z</time><name>PT13632</name></trkpt>
<trkpt lat="53.366206" lon="-1.840005"><ele>320</ele><time>2020-08-05T13:27:48Z</time><name>PT13633</name></trkpt>
<trkpt lat="53.366201" lon="-1.840021"><ele>320</ele><time>2020-08-05T13:27:49Z</time><name>PT13634</name></trkpt>
<trkpt lat="53.366193" lon="-1.840044"><ele>319</ele><time>2020-08-05T13:27:49Z</time><name>PT13635</name></trkpt>
<trkpt lat="53.366190" lon="-1.840063"><ele>319</ele><time>2020-08-05T13:27:51Z</time><name>PT13636</name></trkpt>
<trkpt lat="53.366186" lon="-1.840082"><ele>319</ele><time>2020-08-05T13:27:52Z</time><name>PT13637</name></trkpt>
<trkpt lat="53.366184" lon="-1.840103"><ele>319</ele><time>2020-08-05T13:27:52Z</time><name>PT13638</name></trkpt>
<trkpt lat="53.366181" lon="-1.840125"><ele>319</ele><time>2020-08-05T13:27:54Z</time><name>PT13639</name></trkpt>
<trkpt lat="53.366178" lon="-1.840153"><ele>319</ele><time>2020-08-05T13:27:55Z</time><name>PT13640</name></trkpt>
<trkpt lat="53.366174" lon="-1.840178"><ele>319</ele><time>2020-08-05T13:27:55Z</time><name>PT13641</name></trkpt>
<trkpt lat="53.366168" lon="-1.840200"><ele>319</ele><time>2020-08-05T13:27:57Z</time><name>PT13642</name></trkpt>
<trkpt lat="53.366161" lon="-1.840223"><ele>319</ele><time>2020-08-05T13:27:58Z</time><name>PT13643</name></trkpt>
<trkpt lat="53.366158" lon="-1.840246"><ele>319</ele><time>2020-08-05T13:27:59Z</time><name>PT13644</name></trkpt>
<trkpt lat="53.366153" lon="-1.840270"><ele>318</ele><time>2020-08-05T13:28:00Z</time><name>PT13645</name></trkpt>
<trkpt lat="53.366149" lon="-1.840283"><ele>317</ele><time>2020-08-05T13:28:01Z</time><name>PT13646</name></trkpt>
<trkpt lat="53.366144" lon="-1.840305"><ele>317</ele><time>2020-08-05T13:28:02Z</time><name>PT13647</name></trkpt>
<trkpt lat="53.366136" lon="-1.840331"><ele>316</ele><time>2020-08-05T13:28:03Z</time><name>PT13648</name></trkpt>
<trkpt lat="53.366129" lon="-1.840353"><ele>316</ele><time>2020-08-05T13:28:04Z</time><name>PT13649</name></trkpt>
<trkpt lat="53.366119" lon="-1.840374"><ele>316</ele><time>2020-08-05T13:28:04Z</time><name>PT13650</name></trkpt>
<trkpt lat="53.366111" lon="-1.840394"><ele>316</ele><time>2020-08-05T13:28:06Z</time><name>PT13651</name></trkpt>
<trkpt lat="53.366101" lon="-1.840418"><ele>315</ele><time>2020-08-05T13:28:07Z</time><name>PT13652</name></trkpt>
<trkpt lat="53.366095" lon="-1.840437"><ele>315</ele><time>2020-08-05T13:28:08Z</time><name>PT13653</name></trkpt>
<trkpt lat="53.366090" lon="-1.840457"><ele>315</ele><time>2020-08-05T13:28:09Z</time><name>PT13654</name></trkpt>
<trkpt lat="53.366085" lon="-1.840478"><ele>315</ele><time>2020-08-05T13:28:10Z</time><name>PT13655</name></trkpt>
<trkpt lat="53.366081" lon="-1.840496"><ele>315</ele><time>2020-08-05T13:28:10Z</time><name>PT13656</name></trkpt>
<trkpt lat="53.366075" lon="-1.840512"><ele>314</ele><time>2020-08-05T13:28:12Z</time><name>PT13657</name></trkpt>
<trkpt lat="53.366070" lon="-1.840522"><ele>314</ele><time>2020-08-05T13:28:13Z</time><name>PT13658</name></trkpt>
<trkpt lat="53.366062" lon="-1.840529"><ele>314</ele><time>2020-08-05T13:28:13Z</time><name>PT13659</name></trkpt>
<trkpt lat="53.366058" lon="-1.840531"><ele>314</ele><time>2020-08-05T13:28:15Z</time><name>PT13660</name></trkpt>
<trkpt lat="53.366053" lon="-1.840532"><ele>314</ele><time>2020-08-05T13:28:16Z</time><name>PT13661</name></trkpt>
<trkpt lat="53.366047" lon="-1.840539"><ele>314</ele><time>2020-08-05T13:28:16Z</time><name>PT13662</name></trkpt>
<trkpt lat="53.366047" lon="-1.840551"><ele>314</ele><time>2020-08-05T13:28:18Z</time><name>PT13663</name></trkpt>
<trkpt lat="53.366042" lon="-1.840566"><ele>314</ele><time>2020-08-05T13:28:19Z</time><name>PT13664</name></trkpt>
<trkpt lat="53.366037" lon="-1.840584"><ele>314</ele><time>2020-08-05T13:28:19Z</time><name>PT13665</name></trkpt>
<trkpt lat="53.366030" lon="-1.840603"><ele>313</ele><time>2020-08-05T13:28:21Z</time><name>PT13666</name></trkpt>
<trkpt lat="53.366023" lon="-1.840621"><ele>313</ele><time>2020-08-05T13:28:22Z</time><name>PT13667</name></trkpt>
<trkpt lat="53.366017" lon="-1.840642"><ele>312</ele><time>2020-08-05T13:28:22Z</time><name>PT13668</name></trkpt>
<trkpt lat="53.366010" lon="-1.840661"><ele>312</ele><time>2020-08-05T13:28:24Z</time><name>PT13669</name></trkpt>
<trkpt lat="53.366003" lon="-1.840680"><ele>312</ele><time>2020-08-05T13:28:25Z</time><name>PT13670</name></trkpt>
<trkpt lat="53.365995" lon="-1.840694"><ele>312</ele><time>2020-08-05T13:28:25Z</time><name>PT13671</name></trkpt>
<trkpt lat="53.365987" lon="-1.840707"><ele>312</ele><time>2020-08-05T13:28:27Z</time><name>PT13672</name></trkpt>
<trkpt lat="53.365979" lon="-1.840719"><ele>312</ele><time>2020-08-05T13:28:28Z</time><name>PT13673</name></trkpt>
<trkpt lat="53.365974" lon="-1.840730"><ele>312</ele><time>2020-08-05T13:28:28Z</time><name>PT13674</name></trkpt>
<trkpt lat="53.365976" lon="-1.840731"><ele>312</ele><time>2020-08-05T13:28:30Z</time><name>PT13675</name></trkpt>
<trkpt lat="53.365967" lon="-1.840738"><ele>312</ele><time>2020-08-05T13:28:31Z</time><name>PT13676</name></trkpt>
<trkpt lat="53.365957" lon="-1.840750"><ele>311</ele><time>2020-08-05T13:28:31Z</time><name>PT13677</name></trkpt>
<trkpt lat="53.365951" lon="-1.840767"><ele>311</ele><time>2020-08-05T13:28:33Z</time><name>PT13678</name></trkpt>
<trkpt lat="53.365942" lon="-1.840783"><ele>311</ele><time>2020-08-05T13:28:34Z</time><name>PT13679</name></trkpt>
<trkpt lat="53.365933" lon="-1.840799"><ele>311</ele><time>2020-08-05T13:28:34Z</time><name>PT13680</name></trkpt>
<trkpt lat="53.365927" lon="-1.840815"><ele>312</ele><time>2020-08-05T13:28:36Z</time><name>PT13681</name></trkpt>
<trkpt lat="53.365919" lon="-1.840832"><ele>312</ele><time>2020-08-05T13:28:37Z</time><name>PT13682</name></trkpt>
<trkpt lat="53.365911" lon="-1.840849"><ele>312</ele><time>2020-08-05T13:28:37Z</time><name>PT13683</name></trkpt>
<trkpt lat="53.365904" lon="-1.840863"><ele>311</ele><time>2020-08-05T13:28:39Z</time><name>PT13684</name></trkpt>
<trkpt lat="53.365897" lon="-1.840876"><ele>311</ele><time>2020-08-05T13:28:40Z</time><name>PT13685</name></trkpt>
<trkpt lat="53.365892" lon="-1.840891"><ele>311</ele><time>2020-08-05T13:28:40Z</time><name>PT13686</name></trkpt>
<trkpt lat="53.365886" lon="-1.840908"><ele>310</ele><time>2020-08-05T13:28:42Z</time><name>PT13687</name></trkpt>
<trkpt lat="53.365881" lon="-1.840925"><ele>310</ele><time>2020-08-05T13:28:43Z</time><name>PT13688</name></trkpt>
<trkpt lat="53.365877" lon="-1.840942"><ele>311</ele><time>2020-08-05T13:28:43Z</time><name>PT13689</name></trkpt>
<trkpt lat="53.365869" lon="-1.840965"><ele>311</ele><time>2020-08-05T13:28:45Z</time><name>PT13690</name></trkpt>
<trkpt lat="53.365862" lon="-1.840986"><ele>311</ele><time>2020-08-05T13:28:46Z</time><name>PT13691</name></trkpt>
<trkpt lat="53.365854" lon="-1.841005"><ele>311</ele><time>2020-08-05T13:28:46Z</time><name>PT13692</name></trkpt>
<trkpt lat="53.365846" lon="-1.841023"><ele>311</ele><time>2020-08-05T13:28:48Z</time><name>PT13693</name></trkpt>
<trkpt lat="53.365838" lon="-1.841041"><ele>311</ele><time>2020-08-05T13:28:49Z</time><name>PT13694</name></trkpt>
<trkpt lat="53.365829" lon="-1.841060"><ele>310</ele><time>2020-08-05T13:28:49Z</time><name>PT13695</name></trkpt>
<trkpt lat="53.365822" lon="-1.841077"><ele>310</ele><time>2020-08-05T13:28:51Z</time><name>PT13696</name></trkpt>
<trkpt lat="53.365816" lon="-1.841093"><ele>309</ele><time>2020-08-05T13:28:52Z</time><name>PT13697</name></trkpt>
<trkpt lat="53.365810" lon="-1.841110"><ele>309</ele><time>2020-08-05T13:28:52Z</time><name>PT13698</name></trkpt>
<trkpt lat="53.365804" lon="-1.841128"><ele>309</ele><time>2020-08-05T13:28:54Z</time><name>PT13699</name></trkpt>
<trkpt lat="53.365801" lon="-1.841149"><ele>309</ele><time>2020-08-05T13:28:55Z</time><name>PT13700</name></trkpt>
<trkpt lat="53.365796" lon="-1.841165"><ele>308</ele><time>2020-08-05T13:28:55Z</time><name>PT13701</name></trkpt>
<trkpt lat="53.365795" lon="-1.841182"><ele>308</ele><time>2020-08-05T13:28:57Z</time><name>PT13702</name></trkpt>
<trkpt lat="53.365794" lon="-1.841204"><ele>309</ele><time>2020-08-05T13:28:58Z</time><name>PT13703</name></trkpt>
<trkpt lat="53.365795" lon="-1.841224"><ele>308</ele><time>2020-08-05T13:28:58Z</time><name>PT13704</name></trkpt>
<trkpt lat="53.365800" lon="-1.841240"><ele>308</ele><time>2020-08-05T13:29:00Z</time><name>PT13705</name></trkpt>
<trkpt lat="53.365805" lon="-1.841259"><ele>308</ele><time>2020-08-05T13:29:01Z</time><name>PT13706</name></trkpt>
<trkpt lat="53.365810" lon="-1.841279"><ele>308</ele><time>2020-08-05T13:29:01Z</time><name>PT13707</name></trkpt>
<trkpt lat="53.365815" lon="-1.841300"><ele>308</ele><time>2020-08-05T13:29:03Z</time><name>PT13708</name></trkpt>
<trkpt lat="53.365818" lon="-1.841314"><ele>308</ele><time>2020-08-05T13:29:04Z</time><name>PT13709</name></trkpt>
<trkpt lat="53.365820" lon="-1.841328"><ele>307</ele><time>2020-08-05T13:29:04Z</time><name>PT13710</name></trkpt>
<trkpt lat="53.365818" lon="-1.841346"><ele>306</ele><time>2020-08-05T13:29:06Z</time><name>PT13711</name></trkpt>
<trkpt lat="53.365816" lon="-1.841367"><ele>306</ele><time>2020-08-05T13:29:07Z</time><name>PT13712</name></trkpt>
<trkpt lat="53.365814" lon="-1.841382"><ele>305</ele><time>2020-08-05T13:29:07Z</time><name>PT13713</name></trkpt>
<trkpt lat="53.365808" lon="-1.841401"><ele>305</ele><time>2020-08-05T13:29:09Z</time><name>PT13714</name></trkpt>
<trkpt lat="53.365801" lon="-1.841420"><ele>306</ele><time>2020-08-05T13:29:10Z</time><name>PT13715</name></trkpt>
<trkpt lat="53.365793" lon="-1.841438"><ele>305</ele><time>2020-08-05T13:29:10Z</time><name>PT13716</name></trkpt>
<trkpt lat="53.365785" lon="-1.841456"><ele>305</ele><time>2020-08-05T13:29:12Z</time><name>PT13717</name></trkpt>
<trkpt lat="53.365778" lon="-1.841474"><ele>305</ele><time>2020-08-05T13:29:13Z</time><name>PT13718</name></trkpt>
<trkpt lat="53.365777" lon="-1.841487"><ele>304</ele><time>2020-08-05T13:29:13Z</time><name>PT13719</name></trkpt>
<trkpt lat="53.365772" lon="-1.841505"><ele>304</ele><time>2020-08-05T13:29:15Z</time><name>PT13720</name></trkpt>
<trkpt lat="53.365764" lon="-1.841527"><ele>303</ele><time>2020-08-05T13:29:16Z</time><name>PT13721</name></trkpt>
<trkpt lat="53.365757" lon="-1.841548"><ele>303</ele><time>2020-08-05T13:29:16Z</time><name>PT13722</name></trkpt>
<trkpt lat="53.365750" lon="-1.841570"><ele>303</ele><time>2020-08-05T13:29:18Z</time><name>PT13723</name></trkpt>
<trkpt lat="53.365742" lon="-1.841592"><ele>303</ele><time>2020-08-05T13:29:19Z</time><name>PT13724</name></trkpt>
<trkpt lat="53.365736" lon="-1.841611"><ele>303</ele><time>2020-08-05T13:29:20Z</time><name>PT13725</name></trkpt>
<trkpt lat="53.365731" lon="-1.841631"><ele>303</ele><time>2020-08-05T13:29:21Z</time><name>PT13726</name></trkpt>
<trkpt lat="53.365723" lon="-1.841650"><ele>303</ele><time>2020-08-05T13:29:22Z</time><name>PT13727</name></trkpt>
<trkpt lat="53.365715" lon="-1.841667"><ele>304</ele><time>2020-08-05T13:29:22Z</time><name>PT13728</name></trkpt>
<trkpt lat="53.365709" lon="-1.841687"><ele>304</ele><time>2020-08-05T13:29:24Z</time><name>PT13729</name></trkpt>
<trkpt lat="53.365702" lon="-1.841708"><ele>304</ele><time>2020-08-05T13:29:25Z</time><name>PT13730</name></trkpt>
<trkpt lat="53.365695" lon="-1.841728"><ele>304</ele><time>2020-08-05T13:29:26Z</time><name>PT13731</name></trkpt>
<trkpt lat="53.365690" lon="-1.841747"><ele>303</ele><time>2020-08-05T13:29:27Z</time><name>PT13732</name></trkpt>
<trkpt lat="53.365681" lon="-1.841766"><ele>304</ele><time>2020-08-05T13:29:28Z</time><name>PT13733</name></trkpt>
<trkpt lat="53.365673" lon="-1.841787"><ele>304</ele><time>2020-08-05T13:29:28Z</time><name>PT13734</name></trkpt>
<trkpt lat="53.365667" lon="-1.841808"><ele>303</ele><time>2020-08-05T13:29:30Z</time><name>PT13735</name></trkpt>
<trkpt lat="53.365660" lon="-1.841829"><ele>303</ele><time>2020-08-05T13:29:31Z</time><name>PT13736</name></trkpt>
<trkpt lat="53.365652" lon="-1.841846"><ele>303</ele><time>2020-08-05T13:29:31Z</time><name>PT13737</name></trkpt>
<trkpt lat="53.365642" lon="-1.841863"><ele>303</ele><time>2020-08-05T13:29:33Z</time><name>PT13738</name></trkpt>
<trkpt lat="53.365634" lon="-1.841882"><ele>303</ele><time>2020-08-05T13:29:34Z</time><name>PT13739</name></trkpt>
<trkpt lat="53.365626" lon="-1.841901"><ele>303</ele><time>2020-08-05T13:29:34Z</time><name>PT13740</name></trkpt>
<trkpt lat="53.365617" lon="-1.841919"><ele>303</ele><time>2020-08-05T13:29:36Z</time><name>PT13741</name></trkpt>
<trkpt lat="53.365608" lon="-1.841934"><ele>303</ele><time>2020-08-05T13:29:37Z</time><name>PT13742</name></trkpt>
<trkpt lat="53.365599" lon="-1.841952"><ele>303</ele><time>2020-08-05T13:29:37Z</time><name>PT13743</name></trkpt>
<trkpt lat="53.365591" lon="-1.841968"><ele>303</ele><time>2020-08-05T13:29:39Z</time><name>PT13744</name></trkpt>
<trkpt lat="53.365586" lon="-1.841981"><ele>303</ele><time>2020-08-05T13:29:40Z</time><name>PT13745</name></trkpt>
<trkpt lat="53.365578" lon="-1.841994"><ele>303</ele><time>2020-08-05T13:29:40Z</time><name>PT13746</name></trkpt>
<trkpt lat="53.365570" lon="-1.842011"><ele>303</ele><time>2020-08-05T13:29:42Z</time><name>PT13747</name></trkpt>
<trkpt lat="53.365562" lon="-1.842029"><ele>303</ele><time>2020-08-05T13:29:43Z</time><name>PT13748</name></trkpt>
<trkpt lat="53.365554" lon="-1.842046"><ele>303</ele><time>2020-08-05T13:29:43Z</time><name>PT13749</name></trkpt>
<trkpt lat="53.365547" lon="-1.842062"><ele>303</ele><time>2020-08-05T13:29:45Z</time><name>PT13750</name></trkpt>
<trkpt lat="53.365538" lon="-1.842079"><ele>303</ele><time>2020-08-05T13:29:46Z</time><name>PT13751</name></trkpt>
<trkpt lat="53.365530" lon="-1.842096"><ele>302</ele><time>2020-08-05T13:29:46Z</time><name>PT13752</name></trkpt>
<trkpt lat="53.365522" lon="-1.842108"><ele>302</ele><time>2020-08-05T13:29:48Z</time><name>PT13753</name></trkpt>
<trkpt lat="53.365514" lon="-1.842123"><ele>302</ele><time>2020-08-05T13:29:49Z</time><name>PT13754</name></trkpt>
<trkpt lat="53.365506" lon="-1.842139"><ele>302</ele><time>2020-08-05T13:29:49Z</time><name>PT13755</name></trkpt>
<trkpt lat="53.365498" lon="-1.842157"><ele>302</ele><time>2020-08-05T13:29:51Z</time><name>PT13756</name></trkpt>
<trkpt lat="53.365490" lon="-1.842174"><ele>303</ele><time>2020-08-05T13:29:52Z</time><name>PT13757</name></trkpt>
<trkpt lat="53.365483" lon="-1.842191"><ele>303</ele><time>2020-08-05T13:29:52Z</time><name>PT13758</name></trkpt>
<trkpt lat="53.365475" lon="-1.842209"><ele>303</ele><time>2020-08-05T13:29:54Z</time><name>PT13759</name></trkpt>
<trkpt lat="53.365469" lon="-1.842225"><ele>303</ele><time>2020-08-05T13:29:55Z</time><name>PT13760</name></trkpt>
<trkpt lat="53.365462" lon="-1.842241"><ele>302</ele><time>2020-08-05T13:29:56Z</time><name>PT13761</name></trkpt>
<trkpt lat="53.365455" lon="-1.842256"><ele>302</ele><time>2020-08-05T13:29:57Z</time><name>PT13762</name></trkpt>
<trkpt lat="53.365448" lon="-1.842273"><ele>302</ele><time>2020-08-05T13:29:58Z</time><name>PT13763</name></trkpt>
<trkpt lat="53.365440" lon="-1.842291"><ele>302</ele><time>2020-08-05T13:29:58Z</time><name>PT13764</name></trkpt>
<trkpt lat="53.365432" lon="-1.842308"><ele>301</ele><time>2020-08-05T13:30:00Z</time><name>PT13765</name></trkpt>
<trkpt lat="53.365424" lon="-1.842328"><ele>301</ele><time>2020-08-05T13:30:01Z</time><name>PT13766</name></trkpt>
<trkpt lat="53.365417" lon="-1.842349"><ele>301</ele><time>2020-08-05T13:30:01Z</time><name>PT13767</name></trkpt>
<trkpt lat="53.365410" lon="-1.842368"><ele>301</ele><time>2020-08-05T13:30:03Z</time><name>PT13768</name></trkpt>
<trkpt lat="53.365404" lon="-1.842384"><ele>301</ele><time>2020-08-05T13:30:04Z</time><name>PT13769</name></trkpt>
<trkpt lat="53.365395" lon="-1.842402"><ele>300</ele><time>2020-08-05T13:30:04Z</time><name>PT13770</name></trkpt>
<trkpt lat="53.365390" lon="-1.842414"><ele>300</ele><time>2020-08-05T13:30:06Z</time><name>PT13771</name></trkpt>
<trkpt lat="53.365386" lon="-1.842424"><ele>299</ele><time>2020-08-05T13:30:07Z</time><name>PT13772</name></trkpt>
<trkpt lat="53.365381" lon="-1.842439"><ele>299</ele><time>2020-08-05T13:30:07Z</time><name>PT13773</name></trkpt>
<trkpt lat="53.365372" lon="-1.842455"><ele>298</ele><time>2020-08-05T13:30:09Z</time><name>PT13774</name></trkpt>
<trkpt lat="53.365362" lon="-1.842474"><ele>298</ele><time>2020-08-05T13:30:10Z</time><name>PT13775</name></trkpt>
<trkpt lat="53.365353" lon="-1.842492"><ele>298</ele><time>2020-08-05T13:30:11Z</time><name>PT13776</name></trkpt>
<trkpt lat="53.365345" lon="-1.842510"><ele>298</ele><time>2020-08-05T13:30:12Z</time><name>PT13777</name></trkpt>
<trkpt lat="53.365338" lon="-1.842526"><ele>298</ele><time>2020-08-05T13:30:13Z</time><name>PT13778</name></trkpt>
<trkpt lat="53.365332" lon="-1.842541"><ele>297</ele><time>2020-08-05T13:30:14Z</time><name>PT13779</name></trkpt>
<trkpt lat="53.365323" lon="-1.842552"><ele>297</ele><time>2020-08-05T13:30:15Z</time><name>PT13780</name></trkpt>
<trkpt lat="53.365316" lon="-1.842569"><ele>297</ele><time>2020-08-05T13:30:16Z</time><name>PT13781</name></trkpt>
<trkpt lat="53.365308" lon="-1.842586"><ele>297</ele><time>2020-08-05T13:30:16Z</time><name>PT13782</name></trkpt>
<trkpt lat="53.365302" lon="-1.842603"><ele>296</ele><time>2020-08-05T13:30:18Z</time><name>PT13783</name></trkpt>
<trkpt lat="53.365292" lon="-1.842619"><ele>297</ele><time>2020-08-05T13:30:19Z</time><name>PT13784</name></trkpt>
<trkpt lat="53.365283" lon="-1.842636"><ele>296</ele><time>2020-08-05T13:30:19Z</time><name>PT13785</name></trkpt>
<trkpt lat="53.365271" lon="-1.842654"><ele>296</ele><time>2020-08-05T13:30:21Z</time><name>PT13786</name></trkpt>
<trkpt lat="53.365262" lon="-1.842670"><ele>296</ele><time>2020-08-05T13:30:22Z</time><name>PT13787</name></trkpt>
<trkpt lat="53.365254" lon="-1.842680"><ele>296</ele><time>2020-08-05T13:30:22Z</time><name>PT13788</name></trkpt>
<trkpt lat="53.365245" lon="-1.842692"><ele>296</ele><time>2020-08-05T13:30:24Z</time><name>PT13789</name></trkpt>
<trkpt lat="53.365236" lon="-1.842706"><ele>295</ele><time>2020-08-05T13:30:25Z</time><name>PT13790</name></trkpt>
<trkpt lat="53.365225" lon="-1.842725"><ele>295</ele><time>2020-08-05T13:30:25Z</time><name>PT13791</name></trkpt>
<trkpt lat="53.365214" lon="-1.842744"><ele>295</ele><time>2020-08-05T13:30:27Z</time><name>PT13792</name></trkpt>
<trkpt lat="53.365204" lon="-1.842763"><ele>293</ele><time>2020-08-05T13:30:28Z</time><name>PT13793</name></trkpt>
<trkpt lat="53.365196" lon="-1.842782"><ele>293</ele><time>2020-08-05T13:30:28Z</time><name>PT13794</name></trkpt>
<trkpt lat="53.365187" lon="-1.842801"><ele>293</ele><time>2020-08-05T13:30:30Z</time><name>PT13795</name></trkpt>
<trkpt lat="53.365179" lon="-1.842816"><ele>293</ele><time>2020-08-05T13:30:31Z</time><name>PT13796</name></trkpt>
<trkpt lat="53.365171" lon="-1.842828"><ele>293</ele><time>2020-08-05T13:30:31Z</time><name>PT13797</name></trkpt>
<trkpt lat="53.365163" lon="-1.842844"><ele>293</ele><time>2020-08-05T13:30:33Z</time><name>PT13798</name></trkpt>
<trkpt lat="53.365154" lon="-1.842860"><ele>293</ele><time>2020-08-05T13:30:34Z</time><name>PT13799</name></trkpt>
<trkpt lat="53.365145" lon="-1.842876"><ele>293</ele><time>2020-08-05T13:30:34Z</time><name>PT13800</name></trkpt>
<trkpt lat="53.365136" lon="-1.842893"><ele>293</ele><time>2020-08-05T13:30:36Z</time><name>PT13801</name></trkpt>
<trkpt lat="53.365128" lon="-1.842908"><ele>293</ele><time>2020-08-05T13:30:37Z</time><name>PT13802</name></trkpt>
<trkpt lat="53.365119" lon="-1.842924"><ele>293</ele><time>2020-08-05T13:30:37Z</time><name>PT13803</name></trkpt>
<trkpt lat="53.365112" lon="-1.842938"><ele>293</ele><time>2020-08-05T13:30:39Z</time><name>PT13804</name></trkpt>
<trkpt lat="53.365105" lon="-1.842951"><ele>293</ele><time>2020-08-05T13:30:40Z</time><name>PT13805</name></trkpt>
<trkpt lat="53.365098" lon="-1.842965"><ele>293</ele><time>2020-08-05T13:30:40Z</time><name>PT13806</name></trkpt>
<trkpt lat="53.365091" lon="-1.842981"><ele>293</ele><time>2020-08-05T13:30:42Z</time><name>PT13807</name></trkpt>
<trkpt lat="53.365084" lon="-1.842995"><ele>292</ele><time>2020-08-05T13:30:43Z</time><name>PT13808</name></trkpt>
<trkpt lat="53.365079" lon="-1.843008"><ele>292</ele><time>2020-08-05T13:30:43Z</time><name>PT13809</name></trkpt>
<trkpt lat="53.365075" lon="-1.843022"><ele>292</ele><time>2020-08-05T13:30:45Z</time><name>PT13810</name></trkpt>
<trkpt lat="53.365071" lon="-1.843035"><ele>292</ele><time>2020-08-05T13:30:46Z</time><name>PT13811</name></trkpt>
<trkpt lat="53.365066" lon="-1.843045"><ele>292</ele><time>2020-08-05T13:30:46Z</time><name>PT13812</name></trkpt>
<trkpt lat="53.365061" lon="-1.843056"><ele>291</ele><time>2020-08-05T13:30:48Z</time><name>PT13813</name></trkpt>
<trkpt lat="53.365057" lon="-1.843066"><ele>291</ele><time>2020-08-05T13:30:49Z</time><name>PT13814</name></trkpt>
<trkpt lat="53.365052" lon="-1.843081"><ele>291</ele><time>2020-08-05T13:30:49Z</time><name>PT13815</name></trkpt>
<trkpt lat="53.365048" lon="-1.843100"><ele>290</ele><time>2020-08-05T13:30:51Z</time><name>PT13816</name></trkpt>
<trkpt lat="53.365049" lon="-1.843114"><ele>290</ele><time>2020-08-05T13:30:52Z</time><name>PT13817</name></trkpt>
<trkpt lat="53.365049" lon="-1.843132"><ele>290</ele><time>2020-08-05T13:30:52Z</time><name>PT13818</name></trkpt>
<trkpt lat="53.365051" lon="-1.843151"><ele>290</ele><time>2020-08-05T13:30:54Z</time><name>PT13819</name></trkpt>
<trkpt lat="53.365049" lon="-1.843171"><ele>290</ele><time>2020-08-05T13:30:55Z</time><name>PT13820</name></trkpt>
<trkpt lat="53.365047" lon="-1.843189"><ele>290</ele><time>2020-08-05T13:30:55Z</time><name>PT13821</name></trkpt>
<trkpt lat="53.365045" lon="-1.843207"><ele>291</ele><time>2020-08-05T13:30:57Z</time><name>PT13822</name></trkpt>
<trkpt lat="53.365045" lon="-1.843214"><ele>290</ele><time>2020-08-05T13:30:58Z</time><name>PT13823</name></trkpt>
<trkpt lat="53.365045" lon="-1.843223"><ele>290</ele><time>2020-08-05T13:30:58Z</time><name>PT13824</name></trkpt>
<trkpt lat="53.365046" lon="-1.843229"><ele>290</ele><time>2020-08-05T13:31:00Z</time><name>PT13825</name></trkpt>
<trkpt lat="53.365055" lon="-1.843229"><ele>290</ele><time>2020-08-05T13:31:01Z</time><name>PT13826</name></trkpt>
<trkpt lat="53.365053" lon="-1.843228"><ele>290</ele><time>2020-08-05T13:31:03Z</time><name>PT13827</name></trkpt>
<trkpt lat="53.365052" lon="-1.843228"><ele>290</ele><time>2020-08-05T13:31:04Z</time><name>PT13828</name></trkpt>
<trkpt lat="53.365052" lon="-1.843227"><ele>290</ele><time>2020-08-05T13:31:04Z</time><name>PT13829</name></trkpt>
<trkpt lat="53.365051" lon="-1.843228"><ele>290</ele><time>2020-08-05T13:31:06Z</time><name>PT13830</name></trkpt>
<trkpt lat="53.365046" lon="-1.843223"><ele>290</ele><time>2020-08-05T13:31:07Z</time><name>PT13831</name></trkpt>
<trkpt lat="53.365042" lon="-1.843243"><ele>289</ele><time>2020-08-05T13:31:09Z</time><name>PT13832</name></trkpt>
<trkpt lat="53.365038" lon="-1.843269"><ele>289</ele><time>2020-08-05T13:31:10Z</time><name>PT13833</name></trkpt>
<trkpt lat="53.365035" lon="-1.843298"><ele>289</ele><time>2020-08-05T13:31:10Z</time><name>PT13834</name></trkpt>
<trkpt lat="53.365033" lon="-1.843321"><ele>289</ele><time>2020-08-05T13:31:12Z</time><name>PT13835</name></trkpt>
<trkpt lat="53.365031" lon="-1.843344"><ele>289</ele><time>2020-08-05T13:31:13Z</time><name>PT13836</name></trkpt>
<trkpt lat="53.365031" lon="-1.843368"><ele>289</ele><time>2020-08-05T13:31:13Z</time><name>PT13837</name></trkpt>
<trkpt lat="53.365028" lon="-1.843395"><ele>289</ele><time>2020-08-05T13:31:15Z</time><name>PT13838</name></trkpt>
<trkpt lat="53.365027" lon="-1.843424"><ele>290</ele><time>2020-08-05T13:31:16Z</time><name>PT13839</name></trkpt>
<trkpt lat="53.365024" lon="-1.843443"><ele>290</ele><time>2020-08-05T13:31:16Z</time><name>PT13840</name></trkpt>
<trkpt lat="53.365017" lon="-1.843467"><ele>290</ele><time>2020-08-05T13:31:18Z</time><name>PT13841</name></trkpt>
<trkpt lat="53.365011" lon="-1.843490"><ele>289</ele><time>2020-08-05T13:31:19Z</time><name>PT13842</name></trkpt>
<trkpt lat="53.365006" lon="-1.843516"><ele>289</ele><time>2020-08-05T13:31:19Z</time><name>PT13843</name></trkpt>
<trkpt lat="53.365006" lon="-1.843542"><ele>289</ele><time>2020-08-05T13:31:21Z</time><name>PT13844</name></trkpt>
<trkpt lat="53.365004" lon="-1.843567"><ele>289</ele><time>2020-08-05T13:31:22Z</time><name>PT13845</name></trkpt>
<trkpt lat="53.365007" lon="-1.843585"><ele>289</ele><time>2020-08-05T13:31:22Z</time><name>PT13846</name></trkpt>
<trkpt lat="53.365008" lon="-1.843606"><ele>289</ele><time>2020-08-05T13:31:24Z</time><name>PT13847</name></trkpt>
<trkpt lat="53.365009" lon="-1.843629"><ele>289</ele><time>2020-08-05T13:31:25Z</time><name>PT13848</name></trkpt>
<trkpt lat="53.365011" lon="-1.843653"><ele>289</ele><time>2020-08-05T13:31:25Z</time><name>PT13849</name></trkpt>
<trkpt lat="53.365007" lon="-1.843674"><ele>289</ele><time>2020-08-05T13:31:27Z</time><name>PT13850</name></trkpt>
<trkpt lat="53.365007" lon="-1.843695"><ele>289</ele><time>2020-08-05T13:31:28Z</time><name>PT13851</name></trkpt>
<trkpt lat="53.365007" lon="-1.843718"><ele>290</ele><time>2020-08-05T13:31:28Z</time><name>PT13852</name></trkpt>
<trkpt lat="53.365008" lon="-1.843740"><ele>289</ele><time>2020-08-05T13:31:30Z</time><name>PT13853</name></trkpt>
<trkpt lat="53.365008" lon="-1.843764"><ele>289</ele><time>2020-08-05T13:31:31Z</time><name>PT13854</name></trkpt>
<trkpt lat="53.365007" lon="-1.843786"><ele>289</ele><time>2020-08-05T13:31:31Z</time><name>PT13855</name></trkpt>
<trkpt lat="53.365005" lon="-1.843810"><ele>289</ele><time>2020-08-05T13:31:33Z</time><name>PT13856</name></trkpt>
<trkpt lat="53.365004" lon="-1.843835"><ele>289</ele><time>2020-08-05T13:31:34Z</time><name>PT13857</name></trkpt>
<trkpt lat="53.365007" lon="-1.843854"><ele>289</ele><time>2020-08-05T13:31:34Z</time><name>PT13858</name></trkpt>
<trkpt lat="53.365008" lon="-1.843878"><ele>289</ele><time>2020-08-05T13:31:36Z</time><name>PT13859</name></trkpt>
<trkpt lat="53.365008" lon="-1.843901"><ele>288</ele><time>2020-08-05T13:31:37Z</time><name>PT13860</name></trkpt>
<trkpt lat="53.365009" lon="-1.843921"><ele>288</ele><time>2020-08-05T13:31:37Z</time><name>PT13861</name></trkpt>
<trkpt lat="53.365009" lon="-1.843946"><ele>288</ele><time>2020-08-05T13:31:39Z</time><name>PT13862</name></trkpt>
<trkpt lat="53.365005" lon="-1.843968"><ele>288</ele><time>2020-08-05T13:31:40Z</time><name>PT13863</name></trkpt>
<trkpt lat="53.365005" lon="-1.843990"><ele>289</ele><time>2020-08-05T13:31:40Z</time><name>PT13864</name></trkpt>
<trkpt lat="53.365003" lon="-1.844014"><ele>289</ele><time>2020-08-05T13:31:42Z</time><name>PT13865</name></trkpt>
<trkpt lat="53.365003" lon="-1.844033"><ele>289</ele><time>2020-08-05T13:31:43Z</time><name>PT13866</name></trkpt>
<trkpt lat="53.365005" lon="-1.844050"><ele>289</ele><time>2020-08-05T13:31:43Z</time><name>PT13867</name></trkpt>
<trkpt lat="53.365004" lon="-1.844075"><ele>289</ele><time>2020-08-05T13:31:45Z</time><name>PT13868</name></trkpt>
<trkpt lat="53.365006" lon="-1.844096"><ele>289</ele><time>2020-08-05T13:31:46Z</time><name>PT13869</name></trkpt>
<trkpt lat="53.365004" lon="-1.844117"><ele>289</ele><time>2020-08-05T13:31:46Z</time><name>PT13870</name></trkpt>
<trkpt lat="53.365002" lon="-1.844136"><ele>289</ele><time>2020-08-05T13:31:48Z</time><name>PT13871</name></trkpt>
<trkpt lat="53.365001" lon="-1.844160"><ele>289</ele><time>2020-08-05T13:31:49Z</time><name>PT13872</name></trkpt>
<trkpt lat="53.365004" lon="-1.844181"><ele>289</ele><time>2020-08-05T13:31:49Z</time><name>PT13873</name></trkpt>
<trkpt lat="53.365007" lon="-1.844195"><ele>289</ele><time>2020-08-05T13:31:51Z</time><name>PT13874</name></trkpt>
<trkpt lat="53.365008" lon="-1.844217"><ele>288</ele><time>2020-08-05T13:31:52Z</time><name>PT13875</name></trkpt>
<trkpt lat="53.365009" lon="-1.844241"><ele>289</ele><time>2020-08-05T13:31:53Z</time><name>PT13876</name></trkpt>
<trkpt lat="53.365009" lon="-1.844264"><ele>289</ele><time>2020-08-05T13:31:54Z</time><name>PT13877</name></trkpt>
<trkpt lat="53.365009" lon="-1.844286"><ele>288</ele><time>2020-08-05T13:31:55Z</time><name>PT13878</name></trkpt>
<trkpt lat="53.365007" lon="-1.844309"><ele>288</ele><time>2020-08-05T13:31:56Z</time><name>PT13879</name></trkpt>
<trkpt lat="53.365004" lon="-1.844333"><ele>289</ele><time>2020-08-05T13:31:57Z</time><name>PT13880</name></trkpt>
<trkpt lat="53.365002" lon="-1.844360"><ele>289</ele><time>2020-08-05T13:31:58Z</time><name>PT13881</name></trkpt>
<trkpt lat="53.365001" lon="-1.844380"><ele>289</ele><time>2020-08-05T13:31:59Z</time><name>PT13882</name></trkpt>
<trkpt lat="53.365000" lon="-1.844400"><ele>289</ele><time>2020-08-05T13:32:00Z</time><name>PT13883</name></trkpt>
<trkpt lat="53.365000" lon="-1.844423"><ele>290</ele><time>2020-08-05T13:32:01Z</time><name>PT13884</name></trkpt>
<trkpt lat="53.365000" lon="-1.844447"><ele>289</ele><time>2020-08-05T13:32:01Z</time><name>PT13885</name></trkpt>
<trkpt lat="53.364998" lon="-1.844470"><ele>288</ele><time>2020-08-05T13:32:03Z</time><name>PT13886</name></trkpt>
<trkpt lat="53.364996" lon="-1.844493"><ele>288</ele><time>2020-08-05T13:32:04Z</time><name>PT13887</name></trkpt>
<trkpt lat="53.364995" lon="-1.844516"><ele>288</ele><time>2020-08-05T13:32:04Z</time><name>PT13888</name></trkpt>
<trkpt lat="53.364996" lon="-1.844538"><ele>287</ele><time>2020-08-05T13:32:06Z</time><name>PT13889</name></trkpt>
<trkpt lat="53.364997" lon="-1.844560"><ele>287</ele><time>2020-08-05T13:32:07Z</time><name>PT13890</name></trkpt>
<trkpt lat="53.364997" lon="-1.844583"><ele>287</ele><time>2020-08-05T13:32:07Z</time><name>PT13891</name></trkpt>
<trkpt lat="53.364997" lon="-1.844608"><ele>287</ele><time>2020-08-05T13:32:09Z</time><name>PT13892</name></trkpt>
<trkpt lat="53.364997" lon="-1.844629"><ele>287</ele><time>2020-08-05T13:32:10Z</time><name>PT13893</name></trkpt>
<trkpt lat="53.364996" lon="-1.844645"><ele>287</ele><time>2020-08-05T13:32:10Z</time><name>PT13894</name></trkpt>
<trkpt lat="53.364993" lon="-1.844663"><ele>287</ele><time>2020-08-05T13:32:12Z</time><name>PT13895</name></trkpt>
<trkpt lat="53.364990" lon="-1.844681"><ele>287</ele><time>2020-08-05T13:32:13Z</time><name>PT13896</name></trkpt>
<trkpt lat="53.364991" lon="-1.844701"><ele>286</ele><time>2020-08-05T13:32:13Z</time><name>PT13897</name></trkpt>
<trkpt lat="53.364993" lon="-1.844723"><ele>287</ele><time>2020-08-05T13:32:15Z</time><name>PT13898</name></trkpt>
<trkpt lat="53.364996" lon="-1.844740"><ele>286</ele><time>2020-08-05T13:32:16Z</time><name>PT13899</name></trkpt>
<trkpt lat="53.364999" lon="-1.844755"><ele>286</ele><time>2020-08-05T13:32:16Z</time><name>PT13900</name></trkpt>
<trkpt lat="53.364999" lon="-1.844774"><ele>285</ele><time>2020-08-05T13:32:18Z</time><name>PT13901</name></trkpt>
<trkpt lat="53.364997" lon="-1.844793"><ele>285</ele><time>2020-08-05T13:32:19Z</time><name>PT13902</name></trkpt>
<trkpt lat="53.364993" lon="-1.844814"><ele>285</ele><time>2020-08-05T13:32:19Z</time><name>PT13903</name></trkpt>
<trkpt lat="53.364990" lon="-1.844831"><ele>285</ele><time>2020-08-05T13:32:21Z</time><name>PT13904</name></trkpt>
<trkpt lat="53.364983" lon="-1.844853"><ele>285</ele><time>2020-08-05T13:32:22Z</time><name>PT13905</name></trkpt>
<trkpt lat="53.364982" lon="-1.844875"><ele>285</ele><time>2020-08-05T13:32:22Z</time><name>PT13906</name></trkpt>
<trkpt lat="53.364986" lon="-1.844895"><ele>285</ele><time>2020-08-05T13:32:24Z</time><name>PT13907</name></trkpt>
<trkpt lat="53.364990" lon="-1.844915"><ele>285</ele><time>2020-08-05T13:32:25Z</time><name>PT13908</name></trkpt>
<trkpt lat="53.364994" lon="-1.844935"><ele>284</ele><time>2020-08-05T13:32:25Z</time><name>PT13909</name></trkpt>
<trkpt lat="53.364994" lon="-1.844953"><ele>284</ele><time>2020-08-05T13:32:27Z</time><name>PT13910</name></trkpt>
<trkpt lat="53.364995" lon="-1.844973"><ele>283</ele><time>2020-08-05T13:32:28Z</time><name>PT13911</name></trkpt>
<trkpt lat="53.364993" lon="-1.844994"><ele>284</ele><time>2020-08-05T13:32:28Z</time><name>PT13912</name></trkpt>
<trkpt lat="53.364997" lon="-1.845017"><ele>284</ele><time>2020-08-05T13:32:30Z</time><name>PT13913</name></trkpt>
<trkpt lat="53.364999" lon="-1.845041"><ele>284</ele><time>2020-08-05T13:32:31Z</time><name>PT13914</name></trkpt>
<trkpt lat="53.365001" lon="-1.845066"><ele>285</ele><time>2020-08-05T13:32:31Z</time><name>PT13915</name></trkpt>
<trkpt lat="53.365002" lon="-1.845097"><ele>286</ele><time>2020-08-05T13:32:33Z</time><name>PT13916</name></trkpt>
<trkpt lat="53.365003" lon="-1.845113"><ele>287</ele><time>2020-08-05T13:32:34Z</time><name>PT13917</name></trkpt>
<trkpt lat="53.365002" lon="-1.845133"><ele>287</ele><time>2020-08-05T13:32:34Z</time><name>PT13918</name></trkpt>
<trkpt lat="53.364999" lon="-1.845158"><ele>287</ele><time>2020-08-05T13:32:36Z</time><name>PT13919</name></trkpt>
<trkpt lat="53.364998" lon="-1.845179"><ele>287</ele><time>2020-08-05T13:32:37Z</time><name>PT13920</name></trkpt>
<trkpt lat="53.364998" lon="-1.845189"><ele>287</ele><time>2020-08-05T13:32:37Z</time><name>PT13921</name></trkpt>
<trkpt lat="53.365001" lon="-1.845210"><ele>287</ele><time>2020-08-05T13:32:39Z</time><name>PT13922</name></trkpt>
<trkpt lat="53.365000" lon="-1.845230"><ele>287</ele><time>2020-08-05T13:32:40Z</time><name>PT13923</name></trkpt>
<trkpt lat="53.365004" lon="-1.845245"><ele>286</ele><time>2020-08-05T13:32:40Z</time><name>PT13924</name></trkpt>
<trkpt lat="53.365004" lon="-1.845262"><ele>286</ele><time>2020-08-05T13:32:42Z</time><name>PT13925</name></trkpt>
<trkpt lat="53.365002" lon="-1.845281"><ele>286</ele><time>2020-08-05T13:32:43Z</time><name>PT13926</name></trkpt>
<trkpt lat="53.365006" lon="-1.845295"><ele>286</ele><time>2020-08-05T13:32:43Z</time><name>PT13927</name></trkpt>
<trkpt lat="53.365006" lon="-1.845301"><ele>286</ele><time>2020-08-05T13:32:45Z</time><name>PT13928</name></trkpt>
<trkpt lat="53.365008" lon="-1.845317"><ele>287</ele><time>2020-08-05T13:32:46Z</time><name>PT13929</name></trkpt>
<trkpt lat="53.365009" lon="-1.845337"><ele>287</ele><time>2020-08-05T13:32:46Z</time><name>PT13930</name></trkpt>
<trkpt lat="53.365008" lon="-1.845357"><ele>287</ele><time>2020-08-05T13:32:48Z</time><name>PT13931</name></trkpt>
<trkpt lat="53.365006" lon="-1.845375"><ele>287</ele><time>2020-08-05T13:32:49Z</time><name>PT13932</name></trkpt>
<trkpt lat="53.365003" lon="-1.845396"><ele>287</ele><time>2020-08-05T13:32:49Z</time><name>PT13933</name></trkpt>
<trkpt lat="53.365003" lon="-1.845415"><ele>287</ele><time>2020-08-05T13:32:51Z</time><name>PT13934</name></trkpt>
<trkpt lat="53.365004" lon="-1.845438"><ele>287</ele><time>2020-08-05T13:32:52Z</time><name>PT13935</name></trkpt>
<trkpt lat="53.365001" lon="-1.845457"><ele>287</ele><time>2020-08-05T13:32:52Z</time><name>PT13936</name></trkpt>
<trkpt lat="53.365001" lon="-1.845480"><ele>286</ele><time>2020-08-05T13:32:54Z</time><name>PT13937</name></trkpt>
<trkpt lat="53.365006" lon="-1.845499"><ele>285</ele><time>2020-08-05T13:32:55Z</time><name>PT13938</name></trkpt>
<trkpt lat="53.365004" lon="-1.845520"><ele>285</ele><time>2020-08-05T13:32:55Z</time><name>PT13939</name></trkpt>
<trkpt lat="53.365003" lon="-1.845543"><ele>285</ele><time>2020-08-05T13:32:57Z</time><name>PT13940</name></trkpt>
<trkpt lat="53.365002" lon="-1.845565"><ele>285</ele><time>2020-08-05T13:32:58Z</time><name>PT13941</name></trkpt>
<trkpt lat="53.365001" lon="-1.845586"><ele>285</ele><time>2020-08-05T13:32:58Z</time><name>PT13942</name></trkpt>
<trkpt lat="53.364999" lon="-1.845607"><ele>285</ele><time>2020-08-05T13:33:00Z</time><name>PT13943</name></trkpt>
<trkpt lat="53.364996" lon="-1.845626"><ele>286</ele><time>2020-08-05T13:33:01Z</time><name>PT13944</name></trkpt>
<trkpt lat="53.364994" lon="-1.845646"><ele>286</ele><time>2020-08-05T13:33:01Z</time><name>PT13945</name></trkpt>
<trkpt lat="53.364988" lon="-1.845664"><ele>284</ele><time>2020-08-05T13:33:03Z</time><name>PT13946</name></trkpt>
<trkpt lat="53.364988" lon="-1.845686"><ele>284</ele><time>2020-08-05T13:33:04Z</time><name>PT13947</name></trkpt>
<trkpt lat="53.364984" lon="-1.845709"><ele>285</ele><time>2020-08-05T13:33:04Z</time><name>PT13948</name></trkpt>
<trkpt lat="53.364987" lon="-1.845733"><ele>285</ele><time>2020-08-05T13:33:06Z</time><name>PT13949</name></trkpt>
<trkpt lat="53.364989" lon="-1.845754"><ele>285</ele><time>2020-08-05T13:33:07Z</time><name>PT13950</name></trkpt>
<trkpt lat="53.364990" lon="-1.845774"><ele>285</ele><time>2020-08-05T13:33:07Z</time><name>PT13951</name></trkpt>
<trkpt lat="53.364989" lon="-1.845799"><ele>284</ele><time>2020-08-05T13:33:09Z</time><name>PT13952</name></trkpt>
<trkpt lat="53.364990" lon="-1.845831"><ele>285</ele><time>2020-08-05T13:33:10Z</time><name>PT13953</name></trkpt>
<trkpt lat="53.364992" lon="-1.845857"><ele>285</ele><time>2020-08-05T13:33:10Z</time><name>PT13954</name></trkpt>
<trkpt lat="53.364989" lon="-1.845880"><ele>285</ele><time>2020-08-05T13:33:12Z</time><name>PT13955</name></trkpt>
<trkpt lat="53.364986" lon="-1.845896"><ele>284</ele><time>2020-08-05T13:33:13Z</time><name>PT13956</name></trkpt>
<trkpt lat="53.364981" lon="-1.845923"><ele>283</ele><time>2020-08-05T13:33:13Z</time><name>PT13957</name></trkpt>
<trkpt lat="53.364976" lon="-1.845941"><ele>282</ele><time>2020-08-05T13:33:15Z</time><name>PT13958</name></trkpt>
<trkpt lat="53.364970" lon="-1.845962"><ele>281</ele><time>2020-08-05T13:33:16Z</time><name>PT13959</name></trkpt>
<trkpt lat="53.364966" lon="-1.845977"><ele>281</ele><time>2020-08-05T13:33:16Z</time><name>PT13960</name></trkpt>
<trkpt lat="53.364965" lon="-1.845997"><ele>281</ele><time>2020-08-05T13:33:18Z</time><name>PT13961</name></trkpt>
<trkpt lat="53.364967" lon="-1.846015"><ele>281</ele><time>2020-08-05T13:33:19Z</time><name>PT13962</name></trkpt>
<trkpt lat="53.364959" lon="-1.846039"><ele>282</ele><time>2020-08-05T13:33:19Z</time><name>PT13963</name></trkpt>
<trkpt lat="53.364952" lon="-1.846057"><ele>282</ele><time>2020-08-05T13:33:21Z</time><name>PT13964</name></trkpt>
<trkpt lat="53.364945" lon="-1.846094"><ele>283</ele><time>2020-08-05T13:33:22Z</time><name>PT13965</name></trkpt>
<trkpt lat="53.364942" lon="-1.846117"><ele>283</ele><time>2020-08-05T13:33:22Z</time><name>PT13966</name></trkpt>
<trkpt lat="53.364937" lon="-1.846132"><ele>283</ele><time>2020-08-05T13:33:24Z</time><name>PT13967</name></trkpt>
<trkpt lat="53.364933" lon="-1.846147"><ele>284</ele><time>2020-08-05T13:33:25Z</time><name>PT13968</name></trkpt>
<trkpt lat="53.364928" lon="-1.846159"><ele>284</ele><time>2020-08-05T13:33:26Z</time><name>PT13969</name></trkpt>
<trkpt lat="53.364923" lon="-1.846170"><ele>284</ele><time>2020-08-05T13:33:27Z</time><name>PT13970</name></trkpt>
<trkpt lat="53.364920" lon="-1.846177"><ele>284</ele><time>2020-08-05T13:33:28Z</time><name>PT13971</name></trkpt>
<trkpt lat="53.364917" lon="-1.846185"><ele>284</ele><time>2020-08-05T13:33:28Z</time><name>PT13972</name></trkpt>
<trkpt lat="53.364917" lon="-1.846199"><ele>284</ele><time>2020-08-05T13:33:30Z</time><name>PT13973</name></trkpt>
<trkpt lat="53.364918" lon="-1.846218"><ele>284</ele><time>2020-08-05T13:33:31Z</time><name>PT13974</name></trkpt>
<trkpt lat="53.364920" lon="-1.846237"><ele>284</ele><time>2020-08-05T13:33:32Z</time><name>PT13975</name></trkpt>
<trkpt lat="53.364921" lon="-1.846252"><ele>282</ele><time>2020-08-05T13:33:33Z</time><name>PT13976</name></trkpt>
<trkpt lat="53.364918" lon="-1.846271"><ele>282</ele><time>2020-08-05T13:33:34Z</time><name>PT13977</name></trkpt>
<trkpt lat="53.364915" lon="-1.846288"><ele>282</ele><time>2020-08-05T13:33:34Z</time><name>PT13978</name></trkpt>
<trkpt lat="53.364907" lon="-1.846311"><ele>282</ele><time>2020-08-05T13:33:36Z</time><name>PT13979</name></trkpt>
<trkpt lat="53.364901" lon="-1.846329"><ele>282</ele><time>2020-08-05T13:33:37Z</time><name>PT13980</name></trkpt>
<trkpt lat="53.364890" lon="-1.846347"><ele>281</ele><time>2020-08-05T13:33:37Z</time><name>PT13981</name></trkpt>
<trkpt lat="53.364872" lon="-1.846371"><ele>281</ele><time>2020-08-05T13:33:39Z</time><name>PT13982</name></trkpt>
<trkpt lat="53.364856" lon="-1.846390"><ele>282</ele><time>2020-08-05T13:33:40Z</time><name>PT13983</name></trkpt>
<trkpt lat="53.364842" lon="-1.846402"><ele>282</ele><time>2020-08-05T13:33:40Z</time><name>PT13984</name></trkpt>
<trkpt lat="53.364824" lon="-1.846414"><ele>282</ele><time>2020-08-05T13:33:42Z</time><name>PT13985</name></trkpt>
<trkpt lat="53.364809" lon="-1.846428"><ele>282</ele><time>2020-08-05T13:33:43Z</time><name>PT13986</name></trkpt>
<trkpt lat="53.364800" lon="-1.846435"><ele>281</ele><time>2020-08-05T13:33:43Z</time><name>PT13987</name></trkpt>
<trkpt lat="53.364791" lon="-1.846443"><ele>281</ele><time>2020-08-05T13:33:45Z</time><name>PT13988</name></trkpt>
<trkpt lat="53.364781" lon="-1.846454"><ele>278</ele><time>2020-08-05T13:33:46Z</time><name>PT13989</name></trkpt>
<trkpt lat="53.364774" lon="-1.846465"><ele>277</ele><time>2020-08-05T13:33:46Z</time><name>PT13990</name></trkpt>
<trkpt lat="53.364767" lon="-1.846480"><ele>277</ele><time>2020-08-05T13:33:48Z</time><name>PT13991</name></trkpt>
<trkpt lat="53.364762" lon="-1.846495"><ele>278</ele><time>2020-08-05T13:33:49Z</time><name>PT13992</name></trkpt>
<trkpt lat="53.364758" lon="-1.846509"><ele>278</ele><time>2020-08-05T13:33:49Z</time><name>PT13993</name></trkpt>
<trkpt lat="53.364761" lon="-1.846508"><ele>277</ele><time>2020-08-05T13:33:51Z</time><name>PT13994</name></trkpt>
<trkpt lat="53.364759" lon="-1.846518"><ele>278</ele><time>2020-08-05T13:33:52Z</time><name>PT13995</name></trkpt>
<trkpt lat="53.364756" lon="-1.846537"><ele>278</ele><time>2020-08-05T13:33:52Z</time><name>PT13996</name></trkpt>
<trkpt lat="53.364757" lon="-1.846554"><ele>278</ele><time>2020-08-05T13:33:54Z</time><name>PT13997</name></trkpt>
<trkpt lat="53.364758" lon="-1.846572"><ele>278</ele><time>2020-08-05T13:33:55Z</time><name>PT13998</name></trkpt>
<trkpt lat="53.364758" lon="-1.846591"><ele>278</ele><time>2020-08-05T13:33:55Z</time><name>PT13999</name></trkpt>
<trkpt lat="53.364757" lon="-1.846604"><ele>278</ele><time>2020-08-05T13:33:57Z</time><name>PT14000</name></trkpt>
<trkpt lat="53.364756" lon="-1.846619"><ele>278</ele><time>2020-08-05T13:33:58Z</time><name>PT14001</name></trkpt>
<trkpt lat="53.364753" lon="-1.846639"><ele>277</ele><time>2020-08-05T13:33:58Z</time><name>PT14002</name></trkpt>
<trkpt lat="53.364754" lon="-1.846660"><ele>277</ele><time>2020-08-05T13:34:00Z</time><name>PT14003</name></trkpt>
<trkpt lat="53.364758" lon="-1.846676"><ele>277</ele><time>2020-08-05T13:34:01Z</time><name>PT14004</name></trkpt>
<trkpt lat="53.364761" lon="-1.846696"><ele>277</ele><time>2020-08-05T13:34:02Z</time><name>PT14005</name></trkpt>
<trkpt lat="53.364763" lon="-1.846713"><ele>277</ele><time>2020-08-05T13:34:03Z</time><name>PT14006</name></trkpt>
<trkpt lat="53.364761" lon="-1.846729"><ele>277</ele><time>2020-08-05T13:34:04Z</time><name>PT14007</name></trkpt>
<trkpt lat="53.364759" lon="-1.846747"><ele>277</ele><time>2020-08-05T13:34:04Z</time><name>PT14008</name></trkpt>
<trkpt lat="53.364755" lon="-1.846769"><ele>277</ele><time>2020-08-05T13:34:06Z</time><name>PT14009</name></trkpt>
<trkpt lat="53.364753" lon="-1.846788"><ele>276</ele><time>2020-08-05T13:34:07Z</time><name>PT14010</name></trkpt>
<trkpt lat="53.364753" lon="-1.846809"><ele>275</ele><time>2020-08-05T13:34:08Z</time><name>PT14011</name></trkpt>
<trkpt lat="53.364749" lon="-1.846833"><ele>275</ele><time>2020-08-05T13:34:09Z</time><name>PT14012</name></trkpt>
<trkpt lat="53.364742" lon="-1.846857"><ele>275</ele><time>2020-08-05T13:34:10Z</time><name>PT14013</name></trkpt>
<trkpt lat="53.364739" lon="-1.846873"><ele>275</ele><time>2020-08-05T13:34:10Z</time><name>PT14014</name></trkpt>
<trkpt lat="53.364733" lon="-1.846891"><ele>276</ele><time>2020-08-05T13:34:12Z</time><name>PT14015</name></trkpt>
<trkpt lat="53.364724" lon="-1.846908"><ele>276</ele><time>2020-08-05T13:34:13Z</time><name>PT14016</name></trkpt>
<trkpt lat="53.364709" lon="-1.846948"><ele>277</ele><time>2020-08-05T13:34:13Z</time><name>PT14017</name></trkpt>
<trkpt lat="53.364688" lon="-1.846971"><ele>277</ele><time>2020-08-05T13:34:15Z</time><name>PT14018</name></trkpt>
<trkpt lat="53.364677" lon="-1.846987"><ele>275</ele><time>2020-08-05T13:34:16Z</time><name>PT14019</name></trkpt>
<trkpt lat="53.364666" lon="-1.846997"><ele>275</ele><time>2020-08-05T13:34:16Z</time><name>PT14020</name></trkpt>
<trkpt lat="53.364654" lon="-1.847007"><ele>276</ele><time>2020-08-05T13:34:18Z</time><name>PT14021</name></trkpt>
<trkpt lat="53.364640" lon="-1.847023"><ele>275</ele><time>2020-08-05T13:34:19Z</time><name>PT14022</name></trkpt>
<trkpt lat="53.364628" lon="-1.847035"><ele>275</ele><time>2020-08-05T13:34:19Z</time><name>PT14023</name></trkpt>
<trkpt lat="53.364615" lon="-1.847044"><ele>275</ele><time>2020-08-05T13:34:21Z</time><name>PT14024</name></trkpt>
<trkpt lat="53.364605" lon="-1.847056"><ele>275</ele><time>2020-08-05T13:34:22Z</time><name>PT14025</name></trkpt>
<trkpt lat="53.364593" lon="-1.847074"><ele>274</ele><time>2020-08-05T13:34:22Z</time><name>PT14026</name></trkpt>
<trkpt lat="53.364580" lon="-1.847094"><ele>273</ele><time>2020-08-05T13:34:24Z</time><name>PT14027</name></trkpt>
<trkpt lat="53.364567" lon="-1.847108"><ele>274</ele><time>2020-08-05T13:34:25Z</time><name>PT14028</name></trkpt>
<trkpt lat="53.364557" lon="-1.847123"><ele>274</ele><time>2020-08-05T13:34:25Z</time><name>PT14029</name></trkpt>
<trkpt lat="53.364554" lon="-1.847141"><ele>273</ele><time>2020-08-05T13:34:27Z</time><name>PT14030</name></trkpt>
<trkpt lat="53.364545" lon="-1.847150"><ele>273</ele><time>2020-08-05T13:34:28Z</time><name>PT14031</name></trkpt>
<trkpt lat="53.364536" lon="-1.847154"><ele>273</ele><time>2020-08-05T13:34:28Z</time><name>PT14032</name></trkpt>
<trkpt lat="53.364527" lon="-1.847157"><ele>273</ele><time>2020-08-05T13:34:30Z</time><name>PT14033</name></trkpt>
<trkpt lat="53.364521" lon="-1.847164"><ele>273</ele><time>2020-08-05T13:34:31Z</time><name>PT14034</name></trkpt>
<trkpt lat="53.364513" lon="-1.847170"><ele>274</ele><time>2020-08-05T13:34:31Z</time><name>PT14035</name></trkpt>
<trkpt lat="53.364498" lon="-1.847179"><ele>274</ele><time>2020-08-05T13:34:33Z</time><name>PT14036</name></trkpt>
<trkpt lat="53.364485" lon="-1.847188"><ele>274</ele><time>2020-08-05T13:34:34Z</time><name>PT14037</name></trkpt>
<trkpt lat="53.364475" lon="-1.847198"><ele>274</ele><time>2020-08-05T13:34:34Z</time><name>PT14038</name></trkpt>
<trkpt lat="53.364469" lon="-1.847208"><ele>274</ele><time>2020-08-05T13:34:36Z</time><name>PT14039</name></trkpt>
<trkpt lat="53.364460" lon="-1.847220"><ele>275</ele><time>2020-08-05T13:34:37Z</time><name>PT14040</name></trkpt>
<trkpt lat="53.364454" lon="-1.847226"><ele>275</ele><time>2020-08-05T13:34:37Z</time><name>PT14041</name></trkpt>
<trkpt lat="53.364445" lon="-1.847231"><ele>276</ele><time>2020-08-05T13:34:39Z</time><name>PT14042</name></trkpt>
<trkpt lat="53.364434" lon="-1.847234"><ele>276</ele><time>2020-08-05T13:34:40Z</time><name>PT14043</name></trkpt>
<trkpt lat="53.364423" lon="-1.847239"><ele>276</ele><time>2020-08-05T13:34:40Z</time><name>PT14044</name></trkpt>
<trkpt lat="53.364417" lon="-1.847245"><ele>276</ele><time>2020-08-05T13:34:42Z</time><name>PT14045</name></trkpt>
<trkpt lat="53.364412" lon="-1.847250"><ele>276</ele><time>2020-08-05T13:34:43Z</time><name>PT14046</name></trkpt>
<trkpt lat="53.364407" lon="-1.847253"><ele>275</ele><time>2020-08-05T13:34:43Z</time><name>PT14047</name></trkpt>
<trkpt lat="53.364409" lon="-1.847256"><ele>275</ele><time>2020-08-05T13:34:48Z</time><name>PT14048</name></trkpt>
<trkpt lat="53.364401" lon="-1.847268"><ele>275</ele><time>2020-08-05T13:34:49Z</time><name>PT14049</name></trkpt>
<trkpt lat="53.364384" lon="-1.847283"><ele>275</ele><time>2020-08-05T13:34:49Z</time><name>PT14050</name></trkpt>
<trkpt lat="53.364375" lon="-1.847294"><ele>275</ele><time>2020-08-05T13:34:51Z</time><name>PT14051</name></trkpt>
<trkpt lat="53.364369" lon="-1.847304"><ele>275</ele><time>2020-08-05T13:34:52Z</time><name>PT14052</name></trkpt>
<trkpt lat="53.364354" lon="-1.847314"><ele>275</ele><time>2020-08-05T13:34:52Z</time><name>PT14053</name></trkpt>
<trkpt lat="53.364349" lon="-1.847324"><ele>275</ele><time>2020-08-05T13:34:54Z</time><name>PT14054</name></trkpt>
<trkpt lat="53.364343" lon="-1.847334"><ele>274</ele><time>2020-08-05T13:34:55Z</time><name>PT14055</name></trkpt>
<trkpt lat="53.364334" lon="-1.847340"><ele>274</ele><time>2020-08-05T13:34:55Z</time><name>PT14056</name></trkpt>
<trkpt lat="53.364329" lon="-1.847347"><ele>273</ele><time>2020-08-05T13:34:57Z</time><name>PT14057</name></trkpt>
<trkpt lat="53.364325" lon="-1.847351"><ele>273</ele><time>2020-08-05T13:34:58Z</time><name>PT14058</name></trkpt>
<trkpt lat="53.364317" lon="-1.847356"><ele>273</ele><time>2020-08-05T13:34:58Z</time><name>PT14059</name></trkpt>
<trkpt lat="53.364312" lon="-1.847362"><ele>273</ele><time>2020-08-05T13:35:00Z</time><name>PT14060</name></trkpt>
<trkpt lat="53.364305" lon="-1.847368"><ele>274</ele><time>2020-08-05T13:35:01Z</time><name>PT14061</name></trkpt>
<trkpt lat="53.364301" lon="-1.847377"><ele>274</ele><time>2020-08-05T13:35:01Z</time><name>PT14062</name></trkpt>
<trkpt lat="53.364298" lon="-1.847381"><ele>275</ele><time>2020-08-05T13:35:03Z</time><name>PT14063</name></trkpt>
<trkpt lat="53.364297" lon="-1.847387"><ele>275</ele><time>2020-08-05T13:35:04Z</time><name>PT14064</name></trkpt>
<trkpt lat="53.364294" lon="-1.847393"><ele>274</ele><time>2020-08-05T13:35:04Z</time><name>PT14065</name></trkpt>
<trkpt lat="53.364290" lon="-1.847396"><ele>274</ele><time>2020-08-05T13:35:06Z</time><name>PT14066</name></trkpt>
<trkpt lat="53.364286" lon="-1.847396"><ele>274</ele><time>2020-08-05T13:35:07Z</time><name>PT14067</name></trkpt>
<trkpt lat="53.364282" lon="-1.847401"><ele>275</ele><time>2020-08-05T13:35:08Z</time><name>PT14068</name></trkpt>
<trkpt lat="53.364280" lon="-1.847405"><ele>275</ele><time>2020-08-05T13:35:09Z</time><name>PT14069</name></trkpt>
<trkpt lat="53.364275" lon="-1.847410"><ele>275</ele><time>2020-08-05T13:35:10Z</time><name>PT14070</name></trkpt>
<trkpt lat="53.364271" lon="-1.847412"><ele>275</ele><time>2020-08-05T13:35:13Z</time><name>PT14071</name></trkpt>
<trkpt lat="53.364257" lon="-1.847424"><ele>275</ele><time>2020-08-05T13:35:14Z</time><name>PT14072</name></trkpt>
<trkpt lat="53.364243" lon="-1.847424"><ele>275</ele><time>2020-08-05T13:35:15Z</time><name>PT14073</name></trkpt>
<trkpt lat="53.364234" lon="-1.847434"><ele>275</ele><time>2020-08-05T13:35:16Z</time><name>PT14074</name></trkpt>
<trkpt lat="53.364228" lon="-1.847441"><ele>275</ele><time>2020-08-05T13:35:17Z</time><name>PT14075</name></trkpt>
<trkpt lat="53.364223" lon="-1.847447"><ele>275</ele><time>2020-08-05T13:35:18Z</time><name>PT14076</name></trkpt>
<trkpt lat="53.364221" lon="-1.847454"><ele>275</ele><time>2020-08-05T13:35:19Z</time><name>PT14077</name></trkpt>
<trkpt lat="53.364220" lon="-1.847462"><ele>275</ele><time>2020-08-05T13:35:19Z</time><name>PT14078</name></trkpt>
<trkpt lat="53.364218" lon="-1.847471"><ele>275</ele><time>2020-08-05T13:35:21Z</time><name>PT14079</name></trkpt>
<trkpt lat="53.364218" lon="-1.847483"><ele>274</ele><time>2020-08-05T13:35:22Z</time><name>PT14080</name></trkpt>
<trkpt lat="53.364213" lon="-1.847509"><ele>275</ele><time>2020-08-05T13:35:24Z</time><name>PT14081</name></trkpt>
<trkpt lat="53.364208" lon="-1.847522"><ele>274</ele><time>2020-08-05T13:35:25Z</time><name>PT14082</name></trkpt>
<trkpt lat="53.364205" lon="-1.847527"><ele>273</ele><time>2020-08-05T13:35:25Z</time><name>PT14083</name></trkpt>
<trkpt lat="53.364201" lon="-1.847533"><ele>273</ele><time>2020-08-05T13:35:27Z</time><name>PT14084</name></trkpt>
<trkpt lat="53.364192" lon="-1.847533"><ele>272</ele><time>2020-08-05T13:35:28Z</time><name>PT14085</name></trkpt>
<trkpt lat="53.364186" lon="-1.847546"><ele>272</ele><time>2020-08-05T13:35:28Z</time><name>PT14086</name></trkpt>
<trkpt lat="53.364184" lon="-1.847557"><ele>273</ele><time>2020-08-05T13:35:30Z</time><name>PT14087</name></trkpt>
<trkpt lat="53.364176" lon="-1.847573"><ele>272</ele><time>2020-08-05T13:35:31Z</time><name>PT14088</name></trkpt>
<trkpt lat="53.364177" lon="-1.847582"><ele>273</ele><time>2020-08-05T13:35:31Z</time><name>PT14089</name></trkpt>
<trkpt lat="53.364172" lon="-1.847589"><ele>273</ele><time>2020-08-05T13:35:33Z</time><name>PT14090</name></trkpt>
<trkpt lat="53.364170" lon="-1.847594"><ele>273</ele><time>2020-08-05T13:35:34Z</time><name>PT14091</name></trkpt>
<trkpt lat="53.364168" lon="-1.847599"><ele>273</ele><time>2020-08-05T13:35:35Z</time><name>PT14092</name></trkpt>
<trkpt lat="53.364167" lon="-1.847605"><ele>274</ele><time>2020-08-05T13:35:36Z</time><name>PT14093</name></trkpt>
<trkpt lat="53.364160" lon="-1.847622"><ele>274</ele><time>2020-08-05T13:35:37Z</time><name>PT14094</name></trkpt>
<trkpt lat="53.364156" lon="-1.847635"><ele>274</ele><time>2020-08-05T13:35:37Z</time><name>PT14095</name></trkpt>
<trkpt lat="53.364154" lon="-1.847645"><ele>275</ele><time>2020-08-05T13:35:39Z</time><name>PT14096</name></trkpt>
<trkpt lat="53.364149" lon="-1.847656"><ele>274</ele><time>2020-08-05T13:35:40Z</time><name>PT14097</name></trkpt>
<trkpt lat="53.364141" lon="-1.847657"><ele>274</ele><time>2020-08-05T13:35:40Z</time><name>PT14098</name></trkpt>
<trkpt lat="53.364138" lon="-1.847665"><ele>273</ele><time>2020-08-05T13:35:42Z</time><name>PT14099</name></trkpt>
<trkpt lat="53.364134" lon="-1.847675"><ele>273</ele><time>2020-08-05T13:35:43Z</time><name>PT14100</name></trkpt>
<trkpt lat="53.364130" lon="-1.847680"><ele>273</ele><time>2020-08-05T13:35:43Z</time><name>PT14101</name></trkpt>
<trkpt lat="53.364126" lon="-1.847686"><ele>273</ele><time>2020-08-05T13:35:45Z</time><name>PT14102</name></trkpt>
<trkpt lat="53.364120" lon="-1.847695"><ele>273</ele><time>2020-08-05T13:35:46Z</time><name>PT14103</name></trkpt>
<trkpt lat="53.364107" lon="-1.847706"><ele>273</ele><time>2020-08-05T13:35:46Z</time><name>PT14104</name></trkpt>
<trkpt lat="53.364103" lon="-1.847715"><ele>273</ele><time>2020-08-05T13:35:48Z</time><name>PT14105</name></trkpt>
<trkpt lat="53.364096" lon="-1.847719"><ele>273</ele><time>2020-08-05T13:35:49Z</time><name>PT14106</name></trkpt>
<trkpt lat="53.364081" lon="-1.847733"><ele>274</ele><time>2020-08-05T13:35:49Z</time><name>PT14107</name></trkpt>
<trkpt lat="53.364070" lon="-1.847739"><ele>274</ele><time>2020-08-05T13:35:51Z</time><name>PT14108</name></trkpt>
<trkpt lat="53.364063" lon="-1.847746"><ele>273</ele><time>2020-08-05T13:35:52Z</time><name>PT14109</name></trkpt>
<trkpt lat="53.364056" lon="-1.847754"><ele>271</ele><time>2020-08-05T13:35:52Z</time><name>PT14110</name></trkpt>
<trkpt lat="53.364052" lon="-1.847772"><ele>271</ele><time>2020-08-05T13:35:54Z</time><name>PT14111</name></trkpt>
<trkpt lat="53.364042" lon="-1.847799"><ele>270</ele><time>2020-08-05T13:35:55Z</time><name>PT14112</name></trkpt>
<trkpt lat="53.364039" lon="-1.847816"><ele>269</ele><time>2020-08-05T13:35:55Z</time><name>PT14113</name></trkpt>
<trkpt lat="53.364038" lon="-1.847832"><ele>269</ele><time>2020-08-05T13:35:57Z</time><name>PT14114</name></trkpt>
<trkpt lat="53.364035" lon="-1.847849"><ele>269</ele><time>2020-08-05T13:35:58Z</time><name>PT14115</name></trkpt>
<trkpt lat="53.364033" lon="-1.847867"><ele>269</ele><time>2020-08-05T13:35:58Z</time><name>PT14116</name></trkpt>
<trkpt lat="53.364026" lon="-1.847886"><ele>270</ele><time>2020-08-05T13:36:00Z</time><name>PT14117</name></trkpt>
<trkpt lat="53.364019" lon="-1.847903"><ele>271</ele><time>2020-08-05T13:36:01Z</time><name>PT14118</name></trkpt>
<trkpt lat="53.364014" lon="-1.847915"><ele>272</ele><time>2020-08-05T13:36:01Z</time><name>PT14119</name></trkpt>
<trkpt lat="53.364007" lon="-1.847926"><ele>273</ele><time>2020-08-05T13:36:03Z</time><name>PT14120</name></trkpt>
<trkpt lat="53.364005" lon="-1.847933"><ele>273</ele><time>2020-08-05T13:36:04Z</time><name>PT14121</name></trkpt>
<trkpt lat="53.364000" lon="-1.847948"><ele>274</ele><time>2020-08-05T13:36:04Z</time><name>PT14122</name></trkpt>
<trkpt lat="53.363999" lon="-1.847959"><ele>272</ele><time>2020-08-05T13:36:06Z</time><name>PT14123</name></trkpt>
<trkpt lat="53.363996" lon="-1.847971"><ele>273</ele><time>2020-08-05T13:36:07Z</time><name>PT14124</name></trkpt>
<trkpt lat="53.363993" lon="-1.847978"><ele>273</ele><time>2020-08-05T13:36:07Z</time><name>PT14125</name></trkpt>
<trkpt lat="53.363994" lon="-1.847991"><ele>273</ele><time>2020-08-05T13:36:09Z</time><name>PT14126</name></trkpt>
<trkpt lat="53.363993" lon="-1.848007"><ele>273</ele><time>2020-08-05T13:36:10Z</time><name>PT14127</name></trkpt>
<trkpt lat="53.363993" lon="-1.848021"><ele>274</ele><time>2020-08-05T13:36:10Z</time><name>PT14128</name></trkpt>
<trkpt lat="53.363994" lon="-1.848045"><ele>273</ele><time>2020-08-05T13:36:15Z</time><name>PT14129</name></trkpt>
<trkpt lat="53.363994" lon="-1.848097"><ele>275</ele><time>2020-08-05T13:36:16Z</time><name>PT14130</name></trkpt>
<trkpt lat="53.363988" lon="-1.848116"><ele>275</ele><time>2020-08-05T13:36:16Z</time><name>PT14131</name></trkpt>
<trkpt lat="53.363986" lon="-1.848130"><ele>275</ele><time>2020-08-05T13:36:18Z</time><name>PT14132</name></trkpt>
<trkpt lat="53.363981" lon="-1.848148"><ele>275</ele><time>2020-08-05T13:36:19Z</time><name>PT14133</name></trkpt>
<trkpt lat="53.363972" lon="-1.848169"><ele>275</ele><time>2020-08-05T13:36:19Z</time><name>PT14134</name></trkpt>
<trkpt lat="53.363959" lon="-1.848196"><ele>275</ele><time>2020-08-05T13:36:21Z</time><name>PT14135</name></trkpt>
<trkpt lat="53.363952" lon="-1.848212"><ele>275</ele><time>2020-08-05T13:36:22Z</time><name>PT14136</name></trkpt>
<trkpt lat="53.363946" lon="-1.848225"><ele>275</ele><time>2020-08-05T13:36:23Z</time><name>PT14137</name></trkpt>
<trkpt lat="53.363939" lon="-1.848233"><ele>275</ele><time>2020-08-05T13:36:24Z</time><name>PT14138</name></trkpt>
<trkpt lat="53.363930" lon="-1.848255"><ele>274</ele><time>2020-08-05T13:36:25Z</time><name>PT14139</name></trkpt>
<trkpt lat="53.363920" lon="-1.848272"><ele>273</ele><time>2020-08-05T13:36:25Z</time><name>PT14140</name></trkpt>
<trkpt lat="53.363918" lon="-1.848282"><ele>274</ele><time>2020-08-05T13:36:27Z</time><name>PT14141</name></trkpt>
<trkpt lat="53.363909" lon="-1.848293"><ele>273</ele><time>2020-08-05T13:36:28Z</time><name>PT14142</name></trkpt>
<trkpt lat="53.363894" lon="-1.848314"><ele>274</ele><time>2020-08-05T13:36:28Z</time><name>PT14143</name></trkpt>
<trkpt lat="53.363881" lon="-1.848312"><ele>274</ele><time>2020-08-05T13:36:30Z</time><name>PT14144</name></trkpt>
<trkpt lat="53.363870" lon="-1.848318"><ele>274</ele><time>2020-08-05T13:36:31Z</time><name>PT14145</name></trkpt>
<trkpt lat="53.363861" lon="-1.848321"><ele>275</ele><time>2020-08-05T13:36:31Z</time><name>PT14146</name></trkpt>
<trkpt lat="53.363850" lon="-1.848326"><ele>273</ele><time>2020-08-05T13:36:33Z</time><name>PT14147</name></trkpt>
<trkpt lat="53.363839" lon="-1.848324"><ele>273</ele><time>2020-08-05T13:36:34Z</time><name>PT14148</name></trkpt>
<trkpt lat="53.363830" lon="-1.848337"><ele>274</ele><time>2020-08-05T13:36:34Z</time><name>PT14149</name></trkpt>
<trkpt lat="53.363823" lon="-1.848340"><ele>273</ele><time>2020-08-05T13:36:36Z</time><name>PT14150</name></trkpt>
<trkpt lat="53.363818" lon="-1.848342"><ele>273</ele><time>2020-08-05T13:36:37Z</time><name>PT14151</name></trkpt>
<trkpt lat="53.363812" lon="-1.848342"><ele>274</ele><time>2020-08-05T13:36:38Z</time><name>PT14152</name></trkpt>
<trkpt lat="53.363805" lon="-1.848340"><ele>273</ele><time>2020-08-05T13:36:39Z</time><name>PT14153</name></trkpt>
<trkpt lat="53.363803" lon="-1.848335"><ele>272</ele><time>2020-08-05T13:36:40Z</time><name>PT14154</name></trkpt>
<trkpt lat="53.363800" lon="-1.848336"><ele>272</ele><time>2020-08-05T13:36:40Z</time><name>PT14155</name></trkpt>
<trkpt lat="53.363797" lon="-1.848333"><ele>273</ele><time>2020-08-05T13:36:42Z</time><name>PT14156</name></trkpt>
<trkpt lat="53.363795" lon="-1.848332"><ele>273</ele><time>2020-08-05T13:36:43Z</time><name>PT14157</name></trkpt>
<trkpt lat="53.363793" lon="-1.848334"><ele>273</ele><time>2020-08-05T13:36:44Z</time><name>PT14158</name></trkpt>
<trkpt lat="53.363787" lon="-1.848338"><ele>274</ele><time>2020-08-05T13:36:45Z</time><name>PT14159</name></trkpt>
<trkpt lat="53.363780" lon="-1.848337"><ele>274</ele><time>2020-08-05T13:36:46Z</time><name>PT14160</name></trkpt>
<trkpt lat="53.363772" lon="-1.848335"><ele>275</ele><time>2020-08-05T13:36:46Z</time><name>PT14161</name></trkpt>
<trkpt lat="53.363763" lon="-1.848337"><ele>275</ele><time>2020-08-05T13:36:48Z</time><name>PT14162</name></trkpt>
<trkpt lat="53.363759" lon="-1.848340"><ele>275</ele><time>2020-08-05T13:36:49Z</time><name>PT14163</name></trkpt>
<trkpt lat="53.363756" lon="-1.848336"><ele>275</ele><time>2020-08-05T13:36:50Z</time><name>PT14164</name></trkpt>
<trkpt lat="53.363749" lon="-1.848332"><ele>275</ele><time>2020-08-05T13:36:51Z</time><name>PT14165</name></trkpt>
<trkpt lat="53.363743" lon="-1.848331"><ele>276</ele><time>2020-08-05T13:36:52Z</time><name>PT14166</name></trkpt>
<trkpt lat="53.363739" lon="-1.848335"><ele>276</ele><time>2020-08-05T13:36:53Z</time><name>PT14167</name></trkpt>
<trkpt lat="53.363736" lon="-1.848338"><ele>276</ele><time>2020-08-05T13:36:54Z</time><name>PT14168</name></trkpt>
<trkpt lat="53.363731" lon="-1.848338"><ele>276</ele><time>2020-08-05T13:36:55Z</time><name>PT14169</name></trkpt>
<trkpt lat="53.363725" lon="-1.848337"><ele>276</ele><time>2020-08-05T13:36:56Z</time><name>PT14170</name></trkpt>
<trkpt lat="53.363715" lon="-1.848341"><ele>276</ele><time>2020-08-05T13:36:57Z</time><name>PT14171</name></trkpt>
<trkpt lat="53.363712" lon="-1.848345"><ele>275</ele><time>2020-08-05T13:36:58Z</time><name>PT14172</name></trkpt>
<trkpt lat="53.363709" lon="-1.848343"><ele>274</ele><time>2020-08-05T13:36:59Z</time><name>PT14173</name></trkpt>
<trkpt lat="53.363706" lon="-1.848343"><ele>275</ele><time>2020-08-05T13:37:00Z</time><name>PT14174</name></trkpt>
<trkpt lat="53.363702" lon="-1.848340"><ele>275</ele><time>2020-08-05T13:37:01Z</time><name>PT14175</name></trkpt>
<trkpt lat="53.363693" lon="-1.848343"><ele>274</ele><time>2020-08-05T13:37:01Z</time><name>PT14176</name></trkpt>
<trkpt lat="53.363686" lon="-1.848341"><ele>274</ele><time>2020-08-05T13:37:03Z</time><name>PT14177</name></trkpt>
<trkpt lat="53.363679" lon="-1.848342"><ele>274</ele><time>2020-08-05T13:37:04Z</time><name>PT14178</name></trkpt>
<trkpt lat="53.363675" lon="-1.848344"><ele>274</ele><time>2020-08-05T13:37:04Z</time><name>PT14179</name></trkpt>
<trkpt lat="53.363672" lon="-1.848346"><ele>274</ele><time>2020-08-05T13:37:06Z</time><name>PT14180</name></trkpt>
<trkpt lat="53.363667" lon="-1.848349"><ele>274</ele><time>2020-08-05T13:37:07Z</time><name>PT14181</name></trkpt>
<trkpt lat="53.363662" lon="-1.848351"><ele>275</ele><time>2020-08-05T13:37:07Z</time><name>PT14182</name></trkpt>
<trkpt lat="53.363656" lon="-1.848348"><ele>276</ele><time>2020-08-05T13:37:09Z</time><name>PT14183</name></trkpt>
<trkpt lat="53.363645" lon="-1.848352"><ele>276</ele><time>2020-08-05T13:37:10Z</time><name>PT14184</name></trkpt>
<trkpt lat="53.363640" lon="-1.848357"><ele>277</ele><time>2020-08-05T13:37:10Z</time><name>PT14185</name></trkpt>
<trkpt lat="53.363631" lon="-1.848360"><ele>279</ele><time>2020-08-05T13:37:12Z</time><name>PT14186</name></trkpt>
<trkpt lat="53.363628" lon="-1.848363"><ele>279</ele><time>2020-08-05T13:37:13Z</time><name>PT14187</name></trkpt>
<trkpt lat="53.363628" lon="-1.848365"><ele>280</ele><time>2020-08-05T13:37:13Z</time><name>PT14188</name></trkpt>
<trkpt lat="53.363627" lon="-1.848370"><ele>282</ele><time>2020-08-05T13:37:15Z</time><name>PT14189</name></trkpt>
<trkpt lat="53.363623" lon="-1.848371"><ele>282</ele><time>2020-08-05T13:37:16Z</time><name>PT14190</name></trkpt>
<trkpt lat="53.363616" lon="-1.848371"><ele>282</ele><time>2020-08-05T13:37:16Z</time><name>PT14191</name></trkpt>
<trkpt lat="53.363610" lon="-1.848374"><ele>283</ele><time>2020-08-05T13:37:18Z</time><name>PT14192</name></trkpt>
<trkpt lat="53.363609" lon="-1.848377"><ele>283</ele><time>2020-08-05T13:37:19Z</time><name>PT14193</name></trkpt>
<trkpt lat="53.363607" lon="-1.848384"><ele>284</ele><time>2020-08-05T13:37:19Z</time><name>PT14194</name></trkpt>
<trkpt lat="53.363604" lon="-1.848395"><ele>284</ele><time>2020-08-05T13:37:21Z</time><name>PT14195</name></trkpt>
<trkpt lat="53.363600" lon="-1.848403"><ele>284</ele><time>2020-08-05T13:37:22Z</time><name>PT14196</name></trkpt>
<trkpt lat="53.363597" lon="-1.848412"><ele>284</ele><time>2020-08-05T13:37:22Z</time><name>PT14197</name></trkpt>
<trkpt lat="53.363590" lon="-1.848419"><ele>283</ele><time>2020-08-05T13:37:24Z</time><name>PT14198</name></trkpt>
<trkpt lat="53.363582" lon="-1.848428"><ele>284</ele><time>2020-08-05T13:37:25Z</time><name>PT14199</name></trkpt>
<trkpt lat="53.363575" lon="-1.848433"><ele>284</ele><time>2020-08-05T13:37:25Z</time><name>PT14200</name></trkpt>
<trkpt lat="53.363568" lon="-1.848442"><ele>285</ele><time>2020-08-05T13:37:27Z</time><name>PT14201</name></trkpt>
<trkpt lat="53.363561" lon="-1.848445"><ele>286</ele><time>2020-08-05T13:37:28Z</time><name>PT14202</name></trkpt>
<trkpt lat="53.363553" lon="-1.848453"><ele>287</ele><time>2020-08-05T13:37:28Z</time><name>PT14203</name></trkpt>
<trkpt lat="53.363543" lon="-1.848463"><ele>288</ele><time>2020-08-05T13:37:30Z</time><name>PT14204</name></trkpt>
<trkpt lat="53.363532" lon="-1.848466"><ele>289</ele><time>2020-08-05T13:37:31Z</time><name>PT14205</name></trkpt>
<trkpt lat="53.363522" lon="-1.848470"><ele>289</ele><time>2020-08-05T13:37:31Z</time><name>PT14206</name></trkpt>
<trkpt lat="53.363512" lon="-1.848476"><ele>289</ele><time>2020-08-05T13:37:33Z</time><name>PT14207</name></trkpt>
<trkpt lat="53.363503" lon="-1.848483"><ele>289</ele><time>2020-08-05T13:37:34Z</time><name>PT14208</name></trkpt>
<trkpt lat="53.363494" lon="-1.848487"><ele>289</ele><time>2020-08-05T13:37:34Z</time><name>PT14209</name></trkpt>
<trkpt lat="53.363485" lon="-1.848493"><ele>289</ele><time>2020-08-05T13:37:36Z</time><name>PT14210</name></trkpt>
<trkpt lat="53.363474" lon="-1.848496"><ele>289</ele><time>2020-08-05T13:37:37Z</time><name>PT14211</name></trkpt>
<trkpt lat="53.363464" lon="-1.848501"><ele>289</ele><time>2020-08-05T13:37:37Z</time><name>PT14212</name></trkpt>
<trkpt lat="53.363456" lon="-1.848504"><ele>289</ele><time>2020-08-05T13:37:39Z</time><name>PT14213</name></trkpt>
<trkpt lat="53.363447" lon="-1.848506"><ele>289</ele><time>2020-08-05T13:37:40Z</time><name>PT14214</name></trkpt>
<trkpt lat="53.363439" lon="-1.848507"><ele>289</ele><time>2020-08-05T13:37:40Z</time><name>PT14215</name></trkpt>
<trkpt lat="53.363431" lon="-1.848509"><ele>289</ele><time>2020-08-05T13:37:42Z</time><name>PT14216</name></trkpt>
<trkpt lat="53.363425" lon="-1.848510"><ele>289</ele><time>2020-08-05T13:37:43Z</time><name>PT14217</name></trkpt>
<trkpt lat="53.363417" lon="-1.848513"><ele>290</ele><time>2020-08-05T13:37:43Z</time><name>PT14218</name></trkpt>
<trkpt lat="53.363410" lon="-1.848516"><ele>289</ele><time>2020-08-05T13:37:45Z</time><name>PT14219</name></trkpt>
<trkpt lat="53.363405" lon="-1.848519"><ele>289</ele><time>2020-08-05T13:37:46Z</time><name>PT14220</name></trkpt>
<trkpt lat="53.363395" lon="-1.848523"><ele>289</ele><time>2020-08-05T13:37:46Z</time><name>PT14221</name></trkpt>
<trkpt lat="53.363389" lon="-1.848523"><ele>290</ele><time>2020-08-05T13:37:48Z</time><name>PT14222</name></trkpt>
<trkpt lat="53.363382" lon="-1.848526"><ele>290</ele><time>2020-08-05T13:37:49Z</time><name>PT14223</name></trkpt>
<trkpt lat="53.363374" lon="-1.848529"><ele>290</ele><time>2020-08-05T13:37:50Z</time><name>PT14224</name></trkpt>
<trkpt lat="53.363367" lon="-1.848533"><ele>291</ele><time>2020-08-05T13:37:51Z</time><name>PT14225</name></trkpt>
<trkpt lat="53.363360" lon="-1.848535"><ele>291</ele><time>2020-08-05T13:37:52Z</time><name>PT14226</name></trkpt>
<trkpt lat="53.363352" lon="-1.848538"><ele>291</ele><time>2020-08-05T13:37:53Z</time><name>PT14227</name></trkpt>
<trkpt lat="53.363343" lon="-1.848543"><ele>291</ele><time>2020-08-05T13:37:54Z</time><name>PT14228</name></trkpt>
<trkpt lat="53.363335" lon="-1.848548"><ele>291</ele><time>2020-08-05T13:37:55Z</time><name>PT14229</name></trkpt>
<trkpt lat="53.363329" lon="-1.848555"><ele>291</ele><time>2020-08-05T13:37:56Z</time><name>PT14230</name></trkpt>
<trkpt lat="53.363323" lon="-1.848561"><ele>291</ele><time>2020-08-05T13:37:57Z</time><name>PT14231</name></trkpt>
<trkpt lat="53.363314" lon="-1.848567"><ele>292</ele><time>2020-08-05T13:37:58Z</time><name>PT14232</name></trkpt>
<trkpt lat="53.363305" lon="-1.848575"><ele>291</ele><time>2020-08-05T13:37:58Z</time><name>PT14233</name></trkpt>
<trkpt lat="53.363294" lon="-1.848580"><ele>291</ele><time>2020-08-05T13:38:00Z</time><name>PT14234</name></trkpt>
<trkpt lat="53.363287" lon="-1.848582"><ele>292</ele><time>2020-08-05T13:38:01Z</time><name>PT14235</name></trkpt>
<trkpt lat="53.363277" lon="-1.848582"><ele>292</ele><time>2020-08-05T13:38:01Z</time><name>PT14236</name></trkpt>
<trkpt lat="53.363272" lon="-1.848586"><ele>292</ele><time>2020-08-05T13:38:03Z</time><name>PT14237</name></trkpt>
<trkpt lat="53.363265" lon="-1.848593"><ele>292</ele><time>2020-08-05T13:38:04Z</time><name>PT14238</name></trkpt>
<trkpt lat="53.363257" lon="-1.848602"><ele>292</ele><time>2020-08-05T13:38:04Z</time><name>PT14239</name></trkpt>
<trkpt lat="53.363252" lon="-1.848608"><ele>292</ele><time>2020-08-05T13:38:06Z</time><name>PT14240</name></trkpt>
<trkpt lat="53.363244" lon="-1.848613"><ele>292</ele><time>2020-08-05T13:38:07Z</time><name>PT14241</name></trkpt>
<trkpt lat="53.363238" lon="-1.848619"><ele>293</ele><time>2020-08-05T13:38:07Z</time><name>PT14242</name></trkpt>
<trkpt lat="53.363232" lon="-1.848628"><ele>293</ele><time>2020-08-05T13:38:09Z</time><name>PT14243</name></trkpt>
<trkpt lat="53.363227" lon="-1.848631"><ele>293</ele><time>2020-08-05T13:38:10Z</time><name>PT14244</name></trkpt>
<trkpt lat="53.363221" lon="-1.848636"><ele>293</ele><time>2020-08-05T13:38:10Z</time><name>PT14245</name></trkpt>
<trkpt lat="53.363215" lon="-1.848640"><ele>293</ele><time>2020-08-05T13:38:12Z</time><name>PT14246</name></trkpt>
<trkpt lat="53.363207" lon="-1.848642"><ele>293</ele><time>2020-08-05T13:38:13Z</time><name>PT14247</name></trkpt>
<trkpt lat="53.363200" lon="-1.848645"><ele>294</ele><time>2020-08-05T13:38:13Z</time><name>PT14248</name></trkpt>
<trkpt lat="53.363194" lon="-1.848648"><ele>293</ele><time>2020-08-05T13:38:15Z</time><name>PT14249</name></trkpt>
<trkpt lat="53.363188" lon="-1.848652"><ele>293</ele><time>2020-08-05T13:38:16Z</time><name>PT14250</name></trkpt>
<trkpt lat="53.363181" lon="-1.848656"><ele>293</ele><time>2020-08-05T13:38:16Z</time><name>PT14251</name></trkpt>
<trkpt lat="53.363174" lon="-1.848662"><ele>293</ele><time>2020-08-05T13:38:18Z</time><name>PT14252</name></trkpt>
<trkpt lat="53.363165" lon="-1.848666"><ele>294</ele><time>2020-08-05T13:38:19Z</time><name>PT14253</name></trkpt>
<trkpt lat="53.363156" lon="-1.848668"><ele>294</ele><time>2020-08-05T13:38:19Z</time><name>PT14254</name></trkpt>
<trkpt lat="53.363148" lon="-1.848674"><ele>294</ele><time>2020-08-05T13:38:21Z</time><name>PT14255</name></trkpt>
<trkpt lat="53.363138" lon="-1.848680"><ele>294</ele><time>2020-08-05T13:38:22Z</time><name>PT14256</name></trkpt>
<trkpt lat="53.363131" lon="-1.848683"><ele>294</ele><time>2020-08-05T13:38:22Z</time><name>PT14257</name></trkpt>
<trkpt lat="53.363124" lon="-1.848688"><ele>294</ele><time>2020-08-05T13:38:24Z</time><name>PT14258</name></trkpt>
<trkpt lat="53.363114" lon="-1.848694"><ele>294</ele><time>2020-08-05T13:38:25Z</time><name>PT14259</name></trkpt>
<trkpt lat="53.363107" lon="-1.848701"><ele>294</ele><time>2020-08-05T13:38:25Z</time><name>PT14260</name></trkpt>
<trkpt lat="53.363099" lon="-1.848707"><ele>294</ele><time>2020-08-05T13:38:27Z</time><name>PT14261</name></trkpt>
<trkpt lat="53.363087" lon="-1.848711"><ele>294</ele><time>2020-08-05T13:38:28Z</time><name>PT14262</name></trkpt>
<trkpt lat="53.363077" lon="-1.848718"><ele>295</ele><time>2020-08-05T13:38:28Z</time><name>PT14263</name></trkpt>
<trkpt lat="53.363067" lon="-1.848723"><ele>295</ele><time>2020-08-05T13:38:30Z</time><name>PT14264</name></trkpt>
<trkpt lat="53.363058" lon="-1.848727"><ele>296</ele><time>2020-08-05T13:38:31Z</time><name>PT14265</name></trkpt>
<trkpt lat="53.363045" lon="-1.848730"><ele>297</ele><time>2020-08-05T13:38:31Z</time><name>PT14266</name></trkpt>
<trkpt lat="53.363037" lon="-1.848728"><ele>297</ele><time>2020-08-05T13:38:33Z</time><name>PT14267</name></trkpt>
<trkpt lat="53.363028" lon="-1.848730"><ele>297</ele><time>2020-08-05T13:38:34Z</time><name>PT14268</name></trkpt>
<trkpt lat="53.363019" lon="-1.848732"><ele>297</ele><time>2020-08-05T13:38:34Z</time><name>PT14269</name></trkpt>
<trkpt lat="53.363010" lon="-1.848733"><ele>297</ele><time>2020-08-05T13:38:36Z</time><name>PT14270</name></trkpt>
<trkpt lat="53.363003" lon="-1.848733"><ele>297</ele><time>2020-08-05T13:38:37Z</time><name>PT14271</name></trkpt>
<trkpt lat="53.362996" lon="-1.848733"><ele>297</ele><time>2020-08-05T13:38:38Z</time><name>PT14272</name></trkpt>
<trkpt lat="53.362988" lon="-1.848737"><ele>297</ele><time>2020-08-05T13:38:39Z</time><name>PT14273</name></trkpt>
<trkpt lat="53.362981" lon="-1.848742"><ele>297</ele><time>2020-08-05T13:38:40Z</time><name>PT14274</name></trkpt>
<trkpt lat="53.362972" lon="-1.848747"><ele>297</ele><time>2020-08-05T13:38:41Z</time><name>PT14275</name></trkpt>
<trkpt lat="53.362965" lon="-1.848751"><ele>297</ele><time>2020-08-05T13:38:42Z</time><name>PT14276</name></trkpt>
<trkpt lat="53.362956" lon="-1.848756"><ele>297</ele><time>2020-08-05T13:38:43Z</time><name>PT14277</name></trkpt>
<trkpt lat="53.362948" lon="-1.848763"><ele>298</ele><time>2020-08-05T13:38:43Z</time><name>PT14278</name></trkpt>
<trkpt lat="53.362939" lon="-1.848771"><ele>298</ele><time>2020-08-05T13:38:45Z</time><name>PT14279</name></trkpt>
<trkpt lat="53.362934" lon="-1.848777"><ele>298</ele><time>2020-08-05T13:38:46Z</time><name>PT14280</name></trkpt>
<trkpt lat="53.362926" lon="-1.848781"><ele>299</ele><time>2020-08-05T13:38:46Z</time><name>PT14281</name></trkpt>
<trkpt lat="53.362919" lon="-1.848788"><ele>299</ele><time>2020-08-05T13:38:48Z</time><name>PT14282</name></trkpt>
<trkpt lat="53.362914" lon="-1.848796"><ele>299</ele><time>2020-08-05T13:38:49Z</time><name>PT14283</name></trkpt>
<trkpt lat="53.362905" lon="-1.848801"><ele>298</ele><time>2020-08-05T13:38:49Z</time><name>PT14284</name></trkpt>
<trkpt lat="53.362896" lon="-1.848802"><ele>298</ele><time>2020-08-05T13:38:51Z</time><name>PT14285</name></trkpt>
<trkpt lat="53.362887" lon="-1.848804"><ele>297</ele><time>2020-08-05T13:38:52Z</time><name>PT14286</name></trkpt>
<trkpt lat="53.362879" lon="-1.848804"><ele>298</ele><time>2020-08-05T13:38:52Z</time><name>PT14287</name></trkpt>
<trkpt lat="53.362870" lon="-1.848806"><ele>297</ele><time>2020-08-05T13:38:54Z</time><name>PT14288</name></trkpt>
<trkpt lat="53.362860" lon="-1.848811"><ele>297</ele><time>2020-08-05T13:38:55Z</time><name>PT14289</name></trkpt>
<trkpt lat="53.362850" lon="-1.848816"><ele>297</ele><time>2020-08-05T13:38:55Z</time><name>PT14290</name></trkpt>
<trkpt lat="53.362840" lon="-1.848822"><ele>297</ele><time>2020-08-05T13:38:57Z</time><name>PT14291</name></trkpt>
<trkpt lat="53.362829" lon="-1.848822"><ele>296</ele><time>2020-08-05T13:38:58Z</time><name>PT14292</name></trkpt>
<trkpt lat="53.362817" lon="-1.848828"><ele>296</ele><time>2020-08-05T13:38:58Z</time><name>PT14293</name></trkpt>
<trkpt lat="53.362805" lon="-1.848833"><ele>296</ele><time>2020-08-05T13:39:00Z</time><name>PT14294</name></trkpt>
<trkpt lat="53.362794" lon="-1.848838"><ele>296</ele><time>2020-08-05T13:39:01Z</time><name>PT14295</name></trkpt>
<trkpt lat="53.362782" lon="-1.848844"><ele>296</ele><time>2020-08-05T13:39:01Z</time><name>PT14296</name></trkpt>
<trkpt lat="53.362772" lon="-1.848845"><ele>296</ele><time>2020-08-05T13:39:03Z</time><name>PT14297</name></trkpt>
<trkpt lat="53.362760" lon="-1.848847"><ele>296</ele><time>2020-08-05T13:39:04Z</time><name>PT14298</name></trkpt>
<trkpt lat="53.362748" lon="-1.848851"><ele>296</ele><time>2020-08-05T13:39:04Z</time><name>PT14299</name></trkpt>
<trkpt lat="53.362739" lon="-1.848850"><ele>295</ele><time>2020-08-05T13:39:06Z</time><name>PT14300</name></trkpt>
<trkpt lat="53.362729" lon="-1.848848"><ele>294</ele><time>2020-08-05T13:39:07Z</time><name>PT14301</name></trkpt>
<trkpt lat="53.362717" lon="-1.848847"><ele>294</ele><time>2020-08-05T13:39:07Z</time><name>PT14302</name></trkpt>
<trkpt lat="53.362709" lon="-1.848848"><ele>294</ele><time>2020-08-05T13:39:09Z</time><name>PT14303</name></trkpt>
<trkpt lat="53.362701" lon="-1.848852"><ele>294</ele><time>2020-08-05T13:39:10Z</time><name>PT14304</name></trkpt>
<trkpt lat="53.362691" lon="-1.848856"><ele>294</ele><time>2020-08-05T13:39:10Z</time><name>PT14305</name></trkpt>
<trkpt lat="53.362682" lon="-1.848860"><ele>294</ele><time>2020-08-05T13:39:12Z</time><name>PT14306</name></trkpt>
<trkpt lat="53.362673" lon="-1.848862"><ele>294</ele><time>2020-08-05T13:39:13Z</time><name>PT14307</name></trkpt>
<trkpt lat="53.362664" lon="-1.848862"><ele>294</ele><time>2020-08-05T13:39:13Z</time><name>PT14308</name></trkpt>
<trkpt lat="53.362652" lon="-1.848863"><ele>295</ele><time>2020-08-05T13:39:15Z</time><name>PT14309</name></trkpt>
<trkpt lat="53.362640" lon="-1.848865"><ele>295</ele><time>2020-08-05T13:39:16Z</time><name>PT14310</name></trkpt>
<trkpt lat="53.362630" lon="-1.848867"><ele>295</ele><time>2020-08-05T13:39:16Z</time><name>PT14311</name></trkpt>
<trkpt lat="53.362620" lon="-1.848868"><ele>296</ele><time>2020-08-05T13:39:18Z</time><name>PT14312</name></trkpt>
<trkpt lat="53.362608" lon="-1.848873"><ele>296</ele><time>2020-08-05T13:39:19Z</time><name>PT14313</name></trkpt>
<trkpt lat="53.362597" lon="-1.848876"><ele>297</ele><time>2020-08-05T13:39:19Z</time><name>PT14314</name></trkpt>
<trkpt lat="53.362586" lon="-1.848880"><ele>297</ele><time>2020-08-05T13:39:21Z</time><name>PT14315</name></trkpt>
<trkpt lat="53.362575" lon="-1.848882"><ele>297</ele><time>2020-08-05T13:39:22Z</time><name>PT14316</name></trkpt>
<trkpt lat="53.362564" lon="-1.848882"><ele>296</ele><time>2020-08-05T13:39:22Z</time><name>PT14317</name></trkpt>
<trkpt lat="53.362554" lon="-1.848886"><ele>296</ele><time>2020-08-05T13:39:24Z</time><name>PT14318</name></trkpt>
<trkpt lat="53.362544" lon="-1.848890"><ele>296</ele><time>2020-08-05T13:39:25Z</time><name>PT14319</name></trkpt>
<trkpt lat="53.362533" lon="-1.848892"><ele>296</ele><time>2020-08-05T13:39:25Z</time><name>PT14320</name></trkpt>
<trkpt lat="53.362524" lon="-1.848896"><ele>296</ele><time>2020-08-05T13:39:27Z</time><name>PT14321</name></trkpt>
<trkpt lat="53.362513" lon="-1.848898"><ele>296</ele><time>2020-08-05T13:39:28Z</time><name>PT14322</name></trkpt>
<trkpt lat="53.362504" lon="-1.848901"><ele>296</ele><time>2020-08-05T13:39:28Z</time><name>PT14323</name></trkpt>
<trkpt lat="53.362496" lon="-1.848901"><ele>296</ele><time>2020-08-05T13:39:30Z</time><name>PT14324</name></trkpt>
<trkpt lat="53.362484" lon="-1.848903"><ele>296</ele><time>2020-08-05T13:39:31Z</time><name>PT14325</name></trkpt>
<trkpt lat="53.362472" lon="-1.848907"><ele>296</ele><time>2020-08-05T13:39:31Z</time><name>PT14326</name></trkpt>
<trkpt lat="53.362462" lon="-1.848912"><ele>296</ele><time>2020-08-05T13:39:33Z</time><name>PT14327</name></trkpt>
<trkpt lat="53.362452" lon="-1.848918"><ele>296</ele><time>2020-08-05T13:39:34Z</time><name>PT14328</name></trkpt>
<trkpt lat="53.362442" lon="-1.848921"><ele>296</ele><time>2020-08-05T13:39:34Z</time><name>PT14329</name></trkpt>
<trkpt lat="53.362430" lon="-1.848928"><ele>296</ele><time>2020-08-05T13:39:36Z</time><name>PT14330</name></trkpt>
<trkpt lat="53.362418" lon="-1.848933"><ele>296</ele><time>2020-08-05T13:39:37Z</time><name>PT14331</name></trkpt>
<trkpt lat="53.362409" lon="-1.848935"><ele>296</ele><time>2020-08-05T13:39:37Z</time><name>PT14332</name></trkpt>
<trkpt lat="53.362398" lon="-1.848934"><ele>296</ele><time>2020-08-05T13:39:39Z</time><name>PT14333</name></trkpt>
<trkpt lat="53.362387" lon="-1.848937"><ele>296</ele><time>2020-08-05T13:39:40Z</time><name>PT14334</name></trkpt>
<trkpt lat="53.362375" lon="-1.848938"><ele>297</ele><time>2020-08-05T13:39:40Z</time><name>PT14335</name></trkpt>
<trkpt lat="53.362364" lon="-1.848937"><ele>297</ele><time>2020-08-05T13:39:42Z</time><name>PT14336</name></trkpt>
<trkpt lat="53.362356" lon="-1.848937"><ele>297</ele><time>2020-08-05T13:39:43Z</time><name>PT14337</name></trkpt>
<trkpt lat="53.362344" lon="-1.848937"><ele>297</ele><time>2020-08-05T13:39:43Z</time><name>PT14338</name></trkpt>
<trkpt lat="53.362331" lon="-1.848938"><ele>297</ele><time>2020-08-05T13:39:45Z</time><name>PT14339</name></trkpt>
<trkpt lat="53.362322" lon="-1.848940"><ele>297</ele><time>2020-08-05T13:39:46Z</time><name>PT14340</name></trkpt>
<trkpt lat="53.362315" lon="-1.848945"><ele>297</ele><time>2020-08-05T13:39:46Z</time><name>PT14341</name></trkpt>
<trkpt lat="53.362309" lon="-1.848949"><ele>297</ele><time>2020-08-05T13:39:48Z</time><name>PT14342</name></trkpt>
<trkpt lat="53.362305" lon="-1.848953"><ele>298</ele><time>2020-08-05T13:39:49Z</time><name>PT14343</name></trkpt>
<trkpt lat="53.362304" lon="-1.848959"><ele>298</ele><time>2020-08-05T13:39:49Z</time><name>PT14344</name></trkpt>
<trkpt lat="53.362304" lon="-1.848965"><ele>299</ele><time>2020-08-05T13:39:51Z</time><name>PT14345</name></trkpt>
<trkpt lat="53.362301" lon="-1.848968"><ele>299</ele><time>2020-08-05T13:39:52Z</time><name>PT14346</name></trkpt>
<trkpt lat="53.362299" lon="-1.848969"><ele>299</ele><time>2020-08-05T13:39:52Z</time><name>PT14347</name></trkpt>
<trkpt lat="53.362295" lon="-1.848980"><ele>299</ele><time>2020-08-05T13:39:54Z</time><name>PT14348</name></trkpt>
<trkpt lat="53.362297" lon="-1.848994"><ele>298</ele><time>2020-08-05T13:39:55Z</time><name>PT14349</name></trkpt>
<trkpt lat="53.362299" lon="-1.849006"><ele>299</ele><time>2020-08-05T13:39:55Z</time><name>PT14350</name></trkpt>
<trkpt lat="53.362301" lon="-1.849022"><ele>299</ele><time>2020-08-05T13:39:57Z</time><name>PT14351</name></trkpt>
<trkpt lat="53.362300" lon="-1.849034"><ele>299</ele><time>2020-08-05T13:39:58Z</time><name>PT14352</name></trkpt>
<trkpt lat="53.362295" lon="-1.849049"><ele>299</ele><time>2020-08-05T13:39:58Z</time><name>PT14353</name></trkpt>
<trkpt lat="53.362292" lon="-1.849061"><ele>299</ele><time>2020-08-05T13:40:00Z</time><name>PT14354</name></trkpt>
<trkpt lat="53.362287" lon="-1.849070"><ele>300</ele><time>2020-08-05T13:40:01Z</time><name>PT14355</name></trkpt>
<trkpt lat="53.362281" lon="-1.849080"><ele>300</ele><time>2020-08-05T13:40:01Z</time><name>PT14356</name></trkpt>
<trkpt lat="53.362276" lon="-1.849084"><ele>300</ele><time>2020-08-05T13:40:03Z</time><name>PT14357</name></trkpt>
<trkpt lat="53.362271" lon="-1.849090"><ele>300</ele><time>2020-08-05T13:40:04Z</time><name>PT14358</name></trkpt>
<trkpt lat="53.362265" lon="-1.849097"><ele>300</ele><time>2020-08-05T13:40:04Z</time><name>PT14359</name></trkpt>
<trkpt lat="53.362260" lon="-1.849105"><ele>300</ele><time>2020-08-05T13:40:06Z</time><name>PT14360</name></trkpt>
<trkpt lat="53.362254" lon="-1.849111"><ele>300</ele><time>2020-08-05T13:40:07Z</time><name>PT14361</name></trkpt>
<trkpt lat="53.362245" lon="-1.849114"><ele>300</ele><time>2020-08-05T13:40:07Z</time><name>PT14362</name></trkpt>
<trkpt lat="53.362238" lon="-1.849119"><ele>300</ele><time>2020-08-05T13:40:09Z</time><name>PT14363</name></trkpt>
<trkpt lat="53.362235" lon="-1.849125"><ele>300</ele><time>2020-08-05T13:40:10Z</time><name>PT14364</name></trkpt>
<trkpt lat="53.362232" lon="-1.849135"><ele>300</ele><time>2020-08-05T13:40:10Z</time><name>PT14365</name></trkpt>
<trkpt lat="53.362233" lon="-1.849145"><ele>301</ele><time>2020-08-05T13:40:12Z</time><name>PT14366</name></trkpt>
<trkpt lat="53.362232" lon="-1.849155"><ele>302</ele><time>2020-08-05T13:40:13Z</time><name>PT14367</name></trkpt>
<trkpt lat="53.362229" lon="-1.849170"><ele>302</ele><time>2020-08-05T13:40:13Z</time><name>PT14368</name></trkpt>
<trkpt lat="53.362227" lon="-1.849182"><ele>302</ele><time>2020-08-05T13:40:15Z</time><name>PT14369</name></trkpt>
<trkpt lat="53.362226" lon="-1.849197"><ele>302</ele><time>2020-08-05T13:40:16Z</time><name>PT14370</name></trkpt>
<trkpt lat="53.362225" lon="-1.849208"><ele>302</ele><time>2020-08-05T13:40:16Z</time><name>PT14371</name></trkpt>
<trkpt lat="53.362225" lon="-1.849219"><ele>302</ele><time>2020-08-05T13:40:18Z</time><name>PT14372</name></trkpt>
<trkpt lat="53.362223" lon="-1.849232"><ele>302</ele><time>2020-08-05T13:40:19Z</time><name>PT14373</name></trkpt>
<trkpt lat="53.362223" lon="-1.849244"><ele>302</ele><time>2020-08-05T13:40:19Z</time><name>PT14374</name></trkpt>
<trkpt lat="53.362224" lon="-1.849258"><ele>302</ele><time>2020-08-05T13:40:21Z</time><name>PT14375</name></trkpt>
<trkpt lat="53.362223" lon="-1.849269"><ele>302</ele><time>2020-08-05T13:40:22Z</time><name>PT14376</name></trkpt>
<trkpt lat="53.362222" lon="-1.849282"><ele>302</ele><time>2020-08-05T13:40:22Z</time><name>PT14377</name></trkpt>
<trkpt lat="53.362222" lon="-1.849294"><ele>302</ele><time>2020-08-05T13:40:24Z</time><name>PT14378</name></trkpt>
<trkpt lat="53.362225" lon="-1.849303"><ele>302</ele><time>2020-08-05T13:40:25Z</time><name>PT14379</name></trkpt>
<trkpt lat="53.362228" lon="-1.849314"><ele>302</ele><time>2020-08-05T13:40:25Z</time><name>PT14380</name></trkpt>
<trkpt lat="53.362227" lon="-1.849325"><ele>302</ele><time>2020-08-05T13:40:27Z</time><name>PT14381</name></trkpt>
<trkpt lat="53.362225" lon="-1.849336"><ele>302</ele><time>2020-08-05T13:40:28Z</time><name>PT14382</name></trkpt>
<trkpt lat="53.362223" lon="-1.849348"><ele>301</ele><time>2020-08-05T13:40:28Z</time><name>PT14383</name></trkpt>
<trkpt lat="53.362220" lon="-1.849361"><ele>302</ele><time>2020-08-05T13:40:30Z</time><name>PT14384</name></trkpt>
<trkpt lat="53.362216" lon="-1.849374"><ele>302</ele><time>2020-08-05T13:40:31Z</time><name>PT14385</name></trkpt>
<trkpt lat="53.362214" lon="-1.849386"><ele>303</ele><time>2020-08-05T13:40:31Z</time><name>PT14386</name></trkpt>
<trkpt lat="53.362214" lon="-1.849399"><ele>302</ele><time>2020-08-05T13:40:33Z</time><name>PT14387</name></trkpt>
<trkpt lat="53.362216" lon="-1.849412"><ele>302</ele><time>2020-08-05T13:40:34Z</time><name>PT14388</name></trkpt>
<trkpt lat="53.362216" lon="-1.849423"><ele>302</ele><time>2020-08-05T13:40:34Z</time><name>PT14389</name></trkpt>
<trkpt lat="53.362216" lon="-1.849439"><ele>302</ele><time>2020-08-05T13:40:36Z</time><name>PT14390</name></trkpt>
<trkpt lat="53.362217" lon="-1.849454"><ele>302</ele><time>2020-08-05T13:40:37Z</time><name>PT14391</name></trkpt>
<trkpt lat="53.362219" lon="-1.849465"><ele>302</ele><time>2020-08-05T13:40:37Z</time><name>PT14392</name></trkpt>
<trkpt lat="53.362219" lon="-1.849473"><ele>303</ele><time>2020-08-05T13:40:39Z</time><name>PT14393</name></trkpt>
<trkpt lat="53.362216" lon="-1.849483"><ele>303</ele><time>2020-08-05T13:40:40Z</time><name>PT14394</name></trkpt>
<trkpt lat="53.362215" lon="-1.849494"><ele>303</ele><time>2020-08-05T13:40:40Z</time><name>PT14395</name></trkpt>
<trkpt lat="53.362216" lon="-1.849504"><ele>303</ele><time>2020-08-05T13:40:42Z</time><name>PT14396</name></trkpt>
<trkpt lat="53.362214" lon="-1.849514"><ele>303</ele><time>2020-08-05T13:40:43Z</time><name>PT14397</name></trkpt>
<trkpt lat="53.362214" lon="-1.849522"><ele>304</ele><time>2020-08-05T13:40:43Z</time><name>PT14398</name></trkpt>
<trkpt lat="53.362213" lon="-1.849534"><ele>304</ele><time>2020-08-05T13:40:45Z</time><name>PT14399</name></trkpt>
<trkpt lat="53.362209" lon="-1.849547"><ele>304</ele><time>2020-08-05T13:40:46Z</time><name>PT14400</name></trkpt>
<trkpt lat="53.362205" lon="-1.849554"><ele>305</ele><time>2020-08-05T13:40:46Z</time><name>PT14401</name></trkpt>
<trkpt lat="53.362198" lon="-1.849559"><ele>305</ele><time>2020-08-05T13:40:48Z</time><name>PT14402</name></trkpt>
<trkpt lat="53.362193" lon="-1.849561"><ele>304</ele><time>2020-08-05T13:40:49Z</time><name>PT14403</name></trkpt>
<trkpt lat="53.362183" lon="-1.849560"><ele>305</ele><time>2020-08-05T13:40:49Z</time><name>PT14404</name></trkpt>
<trkpt lat="53.362173" lon="-1.849569"><ele>306</ele><time>2020-08-05T13:40:51Z</time><name>PT14405</name></trkpt>
<trkpt lat="53.362161" lon="-1.849566"><ele>306</ele><time>2020-08-05T13:40:52Z</time><name>PT14406</name></trkpt>
<trkpt lat="53.362152" lon="-1.849565"><ele>307</ele><time>2020-08-05T13:40:52Z</time><name>PT14407</name></trkpt>
<trkpt lat="53.362143" lon="-1.849565"><ele>307</ele><time>2020-08-05T13:40:54Z</time><name>PT14408</name></trkpt>
<trkpt lat="53.362132" lon="-1.849565"><ele>307</ele><time>2020-08-05T13:40:55Z</time><name>PT14409</name></trkpt>
<trkpt lat="53.362121" lon="-1.849567"><ele>308</ele><time>2020-08-05T13:40:56Z</time><name>PT14410</name></trkpt>
<trkpt lat="53.362111" lon="-1.849566"><ele>308</ele><time>2020-08-05T13:40:57Z</time><name>PT14411</name></trkpt>
<trkpt lat="53.362102" lon="-1.849562"><ele>308</ele><time>2020-08-05T13:40:58Z</time><name>PT14412</name></trkpt>
<trkpt lat="53.362091" lon="-1.849558"><ele>308</ele><time>2020-08-05T13:40:59Z</time><name>PT14413</name></trkpt>
<trkpt lat="53.362083" lon="-1.849556"><ele>309</ele><time>2020-08-05T13:41:00Z</time><name>PT14414</name></trkpt>
<trkpt lat="53.362081" lon="-1.849552"><ele>309</ele><time>2020-08-05T13:41:01Z</time><name>PT14415</name></trkpt>
<trkpt lat="53.362078" lon="-1.849552"><ele>309</ele><time>2020-08-05T13:41:02Z</time><name>PT14416</name></trkpt>
<trkpt lat="53.362074" lon="-1.849550"><ele>309</ele><time>2020-08-05T13:41:03Z</time><name>PT14417</name></trkpt>
<trkpt lat="53.362067" lon="-1.849549"><ele>309</ele><time>2020-08-05T13:41:04Z</time><name>PT14418</name></trkpt>
<trkpt lat="53.362057" lon="-1.849550"><ele>309</ele><time>2020-08-05T13:41:05Z</time><name>PT14419</name></trkpt>
<trkpt lat="53.362049" lon="-1.849551"><ele>310</ele><time>2020-08-05T13:41:06Z</time><name>PT14420</name></trkpt>
<trkpt lat="53.362043" lon="-1.849549"><ele>310</ele><time>2020-08-05T13:41:07Z</time><name>PT14421</name></trkpt>
<trkpt lat="53.362042" lon="-1.849546"><ele>309</ele><time>2020-08-05T13:41:07Z</time><name>PT14422</name></trkpt>
<trkpt lat="53.362042" lon="-1.849543"><ele>310</ele><time>2020-08-05T13:41:09Z</time><name>PT14423</name></trkpt>
<trkpt lat="53.362043" lon="-1.849544"><ele>310</ele><time>2020-08-05T13:41:10Z</time><name>PT14424</name></trkpt>
<trkpt lat="53.362043" lon="-1.849545"><ele>310</ele><time>2020-08-05T13:41:10Z</time><name>PT14425</name></trkpt>
<trkpt lat="53.362043" lon="-1.849543"><ele>310</ele><time>2020-08-05T13:41:12Z</time><name>PT14426</name></trkpt>
<trkpt lat="53.362042" lon="-1.849541"><ele>310</ele><time>2020-08-05T13:41:13Z</time><name>PT14427</name></trkpt>
<trkpt lat="53.362036" lon="-1.849545"><ele>310</ele><time>2020-08-05T13:41:19Z</time><name>PT14428</name></trkpt>
<trkpt lat="53.362024" lon="-1.849549"><ele>310</ele><time>2020-08-05T13:41:19Z</time><name>PT14429</name></trkpt>
<trkpt lat="53.362014" lon="-1.849550"><ele>310</ele><time>2020-08-05T13:41:21Z</time><name>PT14430</name></trkpt>
<trkpt lat="53.362005" lon="-1.849552"><ele>310</ele><time>2020-08-05T13:41:22Z</time><name>PT14431</name></trkpt>
<trkpt lat="53.361999" lon="-1.849562"><ele>310</ele><time>2020-08-05T13:41:22Z</time><name>PT14432</name></trkpt>
<trkpt lat="53.361989" lon="-1.849564"><ele>310</ele><time>2020-08-05T13:41:24Z</time><name>PT14433</name></trkpt>
<trkpt lat="53.361976" lon="-1.849564"><ele>310</ele><time>2020-08-05T13:41:25Z</time><name>PT14434</name></trkpt>
<trkpt lat="53.361966" lon="-1.849563"><ele>311</ele><time>2020-08-05T13:41:25Z</time><name>PT14435</name></trkpt>
<trkpt lat="53.361951" lon="-1.849562"><ele>311</ele><time>2020-08-05T13:41:27Z</time><name>PT14436</name></trkpt>
<trkpt lat="53.361940" lon="-1.849563"><ele>310</ele><time>2020-08-05T13:41:28Z</time><name>PT14437</name></trkpt>
<trkpt lat="53.361930" lon="-1.849564"><ele>310</ele><time>2020-08-05T13:41:28Z</time><name>PT14438</name></trkpt>
<trkpt lat="53.361922" lon="-1.849566"><ele>311</ele><time>2020-08-05T13:41:30Z</time><name>PT14439</name></trkpt>
<trkpt lat="53.361911" lon="-1.849566"><ele>311</ele><time>2020-08-05T13:41:31Z</time><name>PT14440</name></trkpt>
<trkpt lat="53.361899" lon="-1.849566"><ele>311</ele><time>2020-08-05T13:41:31Z</time><name>PT14441</name></trkpt>
<trkpt lat="53.361888" lon="-1.849567"><ele>312</ele><time>2020-08-05T13:41:33Z</time><name>PT14442</name></trkpt>
<trkpt lat="53.361875" lon="-1.849568"><ele>313</ele><time>2020-08-05T13:41:34Z</time><name>PT14443</name></trkpt>
<trkpt lat="53.361864" lon="-1.849571"><ele>312</ele><time>2020-08-05T13:41:34Z</time><name>PT14444</name></trkpt>
<trkpt lat="53.361854" lon="-1.849576"><ele>312</ele><time>2020-08-05T13:41:36Z</time><name>PT14445</name></trkpt>
<trkpt lat="53.361845" lon="-1.849579"><ele>312</ele><time>2020-08-05T13:41:37Z</time><name>PT14446</name></trkpt>
<trkpt lat="53.361836" lon="-1.849582"><ele>312</ele><time>2020-08-05T13:41:37Z</time><name>PT14447</name></trkpt>
<trkpt lat="53.361826" lon="-1.849586"><ele>312</ele><time>2020-08-05T13:41:39Z</time><name>PT14448</name></trkpt>
<trkpt lat="53.361817" lon="-1.849587"><ele>312</ele><time>2020-08-05T13:41:40Z</time><name>PT14449</name></trkpt>
<trkpt lat="53.361807" lon="-1.849591"><ele>310</ele><time>2020-08-05T13:41:40Z</time><name>PT14450</name></trkpt>
<trkpt lat="53.361795" lon="-1.849592"><ele>310</ele><time>2020-08-05T13:41:42Z</time><name>PT14451</name></trkpt>
<trkpt lat="53.361783" lon="-1.849595"><ele>310</ele><time>2020-08-05T13:41:43Z</time><name>PT14452</name></trkpt>
<trkpt lat="53.361770" lon="-1.849600"><ele>310</ele><time>2020-08-05T13:41:43Z</time><name>PT14453</name></trkpt>
<trkpt lat="53.361760" lon="-1.849604"><ele>310</ele><time>2020-08-05T13:41:45Z</time><name>PT14454</name></trkpt>
<trkpt lat="53.361750" lon="-1.849606"><ele>310</ele><time>2020-08-05T13:41:46Z</time><name>PT14455</name></trkpt>
<trkpt lat="53.361737" lon="-1.849610"><ele>311</ele><time>2020-08-05T13:41:46Z</time><name>PT14456</name></trkpt>
<trkpt lat="53.361726" lon="-1.849614"><ele>311</ele><time>2020-08-05T13:41:48Z</time><name>PT14457</name></trkpt>
<trkpt lat="53.361718" lon="-1.849620"><ele>311</ele><time>2020-08-05T13:41:49Z</time><name>PT14458</name></trkpt>
<trkpt lat="53.361706" lon="-1.849622"><ele>311</ele><time>2020-08-05T13:41:49Z</time><name>PT14459</name></trkpt>
<trkpt lat="53.361695" lon="-1.849625"><ele>311</ele><time>2020-08-05T13:41:51Z</time><name>PT14460</name></trkpt>
<trkpt lat="53.361683" lon="-1.849630"><ele>311</ele><time>2020-08-05T13:41:52Z</time><name>PT14461</name></trkpt>
<trkpt lat="53.361675" lon="-1.849636"><ele>311</ele><time>2020-08-05T13:41:52Z</time><name>PT14462</name></trkpt>
<trkpt lat="53.361666" lon="-1.849639"><ele>311</ele><time>2020-08-05T13:41:54Z</time><name>PT14463</name></trkpt>
<trkpt lat="53.361656" lon="-1.849644"><ele>312</ele><time>2020-08-05T13:41:55Z</time><name>PT14464</name></trkpt>
<trkpt lat="53.361647" lon="-1.849649"><ele>311</ele><time>2020-08-05T13:41:55Z</time><name>PT14465</name></trkpt>
<trkpt lat="53.361633" lon="-1.849653"><ele>312</ele><time>2020-08-05T13:41:57Z</time><name>PT14466</name></trkpt>
<trkpt lat="53.361624" lon="-1.849659"><ele>311</ele><time>2020-08-05T13:41:58Z</time><name>PT14467</name></trkpt>
<trkpt lat="53.361611" lon="-1.849666"><ele>312</ele><time>2020-08-05T13:41:58Z</time><name>PT14468</name></trkpt>
<trkpt lat="53.361601" lon="-1.849671"><ele>312</ele><time>2020-08-05T13:42:00Z</time><name>PT14469</name></trkpt>
<trkpt lat="53.361591" lon="-1.849678"><ele>312</ele><time>2020-08-05T13:42:01Z</time><name>PT14470</name></trkpt>
<trkpt lat="53.361582" lon="-1.849681"><ele>312</ele><time>2020-08-05T13:42:01Z</time><name>PT14471</name></trkpt>
<trkpt lat="53.361573" lon="-1.849686"><ele>312</ele><time>2020-08-05T13:42:03Z</time><name>PT14472</name></trkpt>
<trkpt lat="53.361562" lon="-1.849692"><ele>312</ele><time>2020-08-05T13:42:04Z</time><name>PT14473</name></trkpt>
<trkpt lat="53.361551" lon="-1.849698"><ele>312</ele><time>2020-08-05T13:42:04Z</time><name>PT14474</name></trkpt>
<trkpt lat="53.361542" lon="-1.849704"><ele>311</ele><time>2020-08-05T13:42:06Z</time><name>PT14475</name></trkpt>
<trkpt lat="53.361532" lon="-1.849711"><ele>312</ele><time>2020-08-05T13:42:07Z</time><name>PT14476</name></trkpt>
<trkpt lat="53.361522" lon="-1.849716"><ele>312</ele><time>2020-08-05T13:42:07Z</time><name>PT14477</name></trkpt>
<trkpt lat="53.361511" lon="-1.849722"><ele>312</ele><time>2020-08-05T13:42:09Z</time><name>PT14478</name></trkpt>
<trkpt lat="53.361499" lon="-1.849728"><ele>311</ele><time>2020-08-05T13:42:10Z</time><name>PT14479</name></trkpt>
<trkpt lat="53.361489" lon="-1.849732"><ele>312</ele><time>2020-08-05T13:42:10Z</time><name>PT14480</name></trkpt>
<trkpt lat="53.361479" lon="-1.849738"><ele>312</ele><time>2020-08-05T13:42:12Z</time><name>PT14481</name></trkpt>
<trkpt lat="53.361469" lon="-1.849739"><ele>313</ele><time>2020-08-05T13:42:13Z</time><name>PT14482</name></trkpt>
<trkpt lat="53.361459" lon="-1.849746"><ele>313</ele><time>2020-08-05T13:42:13Z</time><name>PT14483</name></trkpt>
<trkpt lat="53.361447" lon="-1.849752"><ele>313</ele><time>2020-08-05T13:42:15Z</time><name>PT14484</name></trkpt>
<trkpt lat="53.361437" lon="-1.849758"><ele>313</ele><time>2020-08-05T13:42:16Z</time><name>PT14485</name></trkpt>
<trkpt lat="53.361426" lon="-1.849765"><ele>313</ele><time>2020-08-05T13:42:16Z</time><name>PT14486</name></trkpt>
<trkpt lat="53.361417" lon="-1.849772"><ele>314</ele><time>2020-08-05T13:42:18Z</time><name>PT14487</name></trkpt>
<trkpt lat="53.361410" lon="-1.849783"><ele>313</ele><time>2020-08-05T13:42:19Z</time><name>PT14488</name></trkpt>
<trkpt lat="53.361402" lon="-1.849788"><ele>313</ele><time>2020-08-05T13:42:19Z</time><name>PT14489</name></trkpt>
<trkpt lat="53.361393" lon="-1.849795"><ele>313</ele><time>2020-08-05T13:42:21Z</time><name>PT14490</name></trkpt>
<trkpt lat="53.361386" lon="-1.849803"><ele>314</ele><time>2020-08-05T13:42:22Z</time><name>PT14491</name></trkpt>
<trkpt lat="53.361374" lon="-1.849814"><ele>313</ele><time>2020-08-05T13:42:22Z</time><name>PT14492</name></trkpt>
<trkpt lat="53.361363" lon="-1.849819"><ele>313</ele><time>2020-08-05T13:42:24Z</time><name>PT14493</name></trkpt>
<trkpt lat="53.361353" lon="-1.849825"><ele>313</ele><time>2020-08-05T13:42:25Z</time><name>PT14494</name></trkpt>
<trkpt lat="53.361347" lon="-1.849833"><ele>314</ele><time>2020-08-05T13:42:25Z</time><name>PT14495</name></trkpt>
<trkpt lat="53.361338" lon="-1.849839"><ele>314</ele><time>2020-08-05T13:42:27Z</time><name>PT14496</name></trkpt>
<trkpt lat="53.361328" lon="-1.849842"><ele>314</ele><time>2020-08-05T13:42:28Z</time><name>PT14497</name></trkpt>
<trkpt lat="53.361320" lon="-1.849846"><ele>313</ele><time>2020-08-05T13:42:28Z</time><name>PT14498</name></trkpt>
<trkpt lat="53.361313" lon="-1.849846"><ele>313</ele><time>2020-08-05T13:42:30Z</time><name>PT14499</name></trkpt>
<trkpt lat="53.361302" lon="-1.849845"><ele>313</ele><time>2020-08-05T13:42:31Z</time><name>PT14500</name></trkpt>
<trkpt lat="53.361293" lon="-1.849837"><ele>313</ele><time>2020-08-05T13:42:31Z</time><name>PT14501</name></trkpt>
<trkpt lat="53.361287" lon="-1.849827"><ele>313</ele><time>2020-08-05T13:42:33Z</time><name>PT14502</name></trkpt>
<trkpt lat="53.361282" lon="-1.849816"><ele>314</ele><time>2020-08-05T13:42:34Z</time><name>PT14503</name></trkpt>
<trkpt lat="53.361281" lon="-1.849816"><ele>313</ele><time>2020-08-05T13:42:34Z</time><name>PT14504</name></trkpt>
<trkpt lat="53.361281" lon="-1.849828"><ele>314</ele><time>2020-08-05T13:42:36Z</time><name>PT14505</name></trkpt>
<trkpt lat="53.361284" lon="-1.849844"><ele>314</ele><time>2020-08-05T13:42:37Z</time><name>PT14506</name></trkpt>
<trkpt lat="53.361287" lon="-1.849863"><ele>314</ele><time>2020-08-05T13:42:37Z</time><name>PT14507</name></trkpt>
<trkpt lat="53.361288" lon="-1.849879"><ele>315</ele><time>2020-08-05T13:42:39Z</time><name>PT14508</name></trkpt>
<trkpt lat="53.361287" lon="-1.849896"><ele>315</ele><time>2020-08-05T13:42:40Z</time><name>PT14509</name></trkpt>
<trkpt lat="53.361286" lon="-1.849911"><ele>315</ele><time>2020-08-05T13:42:40Z</time><name>PT14510</name></trkpt>
<trkpt lat="53.361284" lon="-1.849926"><ele>315</ele><time>2020-08-05T13:42:42Z</time><name>PT14511</name></trkpt>
<trkpt lat="53.361279" lon="-1.849939"><ele>316</ele><time>2020-08-05T13:42:43Z</time><name>PT14512</name></trkpt>
<trkpt lat="53.361275" lon="-1.849947"><ele>316</ele><time>2020-08-05T13:42:43Z</time><name>PT14513</name></trkpt>
<trkpt lat="53.361265" lon="-1.849955"><ele>315</ele><time>2020-08-05T13:42:45Z</time><name>PT14514</name></trkpt>
<trkpt lat="53.361256" lon="-1.849957"><ele>315</ele><time>2020-08-05T13:42:46Z</time><name>PT14515</name></trkpt>
<trkpt lat="53.361245" lon="-1.849960"><ele>315</ele><time>2020-08-05T13:42:46Z</time><name>PT14516</name></trkpt>
<trkpt lat="53.361237" lon="-1.849955"><ele>315</ele><time>2020-08-05T13:42:48Z</time><name>PT14517</name></trkpt>
<trkpt lat="53.361226" lon="-1.849956"><ele>315</ele><time>2020-08-05T13:42:49Z</time><name>PT14518</name></trkpt>
<trkpt lat="53.361215" lon="-1.849951"><ele>314</ele><time>2020-08-05T13:42:49Z</time><name>PT14519</name></trkpt>
<trkpt lat="53.361208" lon="-1.849946"><ele>313</ele><time>2020-08-05T13:42:51Z</time><name>PT14520</name></trkpt>
<trkpt lat="53.361201" lon="-1.849939"><ele>313</ele><time>2020-08-05T13:42:52Z</time><name>PT14521</name></trkpt>
<trkpt lat="53.361192" lon="-1.849940"><ele>312</ele><time>2020-08-05T13:42:52Z</time><name>PT14522</name></trkpt>
<trkpt lat="53.361186" lon="-1.849943"><ele>312</ele><time>2020-08-05T13:42:54Z</time><name>PT14523</name></trkpt>
<trkpt lat="53.361180" lon="-1.849946"><ele>311</ele><time>2020-08-05T13:42:55Z</time><name>PT14524</name></trkpt>
<trkpt lat="53.361170" lon="-1.849945"><ele>312</ele><time>2020-08-05T13:42:55Z</time><name>PT14525</name></trkpt>
<trkpt lat="53.361160" lon="-1.849946"><ele>313</ele><time>2020-08-05T13:42:57Z</time><name>PT14526</name></trkpt>
<trkpt lat="53.361152" lon="-1.849952"><ele>314</ele><time>2020-08-05T13:42:58Z</time><name>PT14527</name></trkpt>
<trkpt lat="53.361144" lon="-1.849957"><ele>314</ele><time>2020-08-05T13:42:58Z</time><name>PT14528</name></trkpt>
<trkpt lat="53.361136" lon="-1.849962"><ele>314</ele><time>2020-08-05T13:43:00Z</time><name>PT14529</name></trkpt>
<trkpt lat="53.361132" lon="-1.849971"><ele>314</ele><time>2020-08-05T13:43:01Z</time><name>PT14530</name></trkpt>
<trkpt lat="53.361133" lon="-1.849974"><ele>314</ele><time>2020-08-05T13:43:01Z</time><name>PT14531</name></trkpt>
<trkpt lat="53.361132" lon="-1.849967"><ele>314</ele><time>2020-08-05T13:43:03Z</time><name>PT14532</name></trkpt>
<trkpt lat="53.361131" lon="-1.849968"><ele>314</ele><time>2020-08-05T13:43:04Z</time><name>PT14533</name></trkpt>
<trkpt lat="53.361124" lon="-1.849965"><ele>314</ele><time>2020-08-05T13:43:04Z</time><name>PT14534</name></trkpt>
<trkpt lat="53.361118" lon="-1.849961"><ele>315</ele><time>2020-08-05T13:43:06Z</time><name>PT14535</name></trkpt>
<trkpt lat="53.361113" lon="-1.849959"><ele>315</ele><time>2020-08-05T13:43:07Z</time><name>PT14536</name></trkpt>
<trkpt lat="53.361111" lon="-1.849959"><ele>315</ele><time>2020-08-05T13:43:07Z</time><name>PT14537</name></trkpt>
<trkpt lat="53.361108" lon="-1.849955"><ele>314</ele><time>2020-08-05T13:43:10Z</time><name>PT14538</name></trkpt>
<trkpt lat="53.361099" lon="-1.849964"><ele>314</ele><time>2020-08-05T13:43:12Z</time><name>PT14539</name></trkpt>
<trkpt lat="53.361093" lon="-1.849975"><ele>314</ele><time>2020-08-05T13:43:13Z</time><name>PT14540</name></trkpt>
<trkpt lat="53.361088" lon="-1.849985"><ele>314</ele><time>2020-08-05T13:43:13Z</time><name>PT14541</name></trkpt>
<trkpt lat="53.361079" lon="-1.849995"><ele>315</ele><time>2020-08-05T13:43:15Z</time><name>PT14542</name></trkpt>
<trkpt lat="53.361075" lon="-1.850013"><ele>314</ele><time>2020-08-05T13:43:16Z</time><name>PT14543</name></trkpt>
<trkpt lat="53.361068" lon="-1.850029"><ele>314</ele><time>2020-08-05T13:43:16Z</time><name>PT14544</name></trkpt>
<trkpt lat="53.361062" lon="-1.850048"><ele>314</ele><time>2020-08-05T13:43:18Z</time><name>PT14545</name></trkpt>
<trkpt lat="53.361055" lon="-1.850063"><ele>314</ele><time>2020-08-05T13:43:19Z</time><name>PT14546</name></trkpt>
<trkpt lat="53.361042" lon="-1.850077"><ele>314</ele><time>2020-08-05T13:43:19Z</time><name>PT14547</name></trkpt>
<trkpt lat="53.361031" lon="-1.850084"><ele>314</ele><time>2020-08-05T13:43:21Z</time><name>PT14548</name></trkpt>
<trkpt lat="53.361022" lon="-1.850092"><ele>315</ele><time>2020-08-05T13:43:22Z</time><name>PT14549</name></trkpt>
<trkpt lat="53.361011" lon="-1.850104"><ele>315</ele><time>2020-08-05T13:43:22Z</time><name>PT14550</name></trkpt>
<trkpt lat="53.361004" lon="-1.850116"><ele>315</ele><time>2020-08-05T13:43:24Z</time><name>PT14551</name></trkpt>
<trkpt lat="53.360995" lon="-1.850123"><ele>315</ele><time>2020-08-05T13:43:25Z</time><name>PT14552</name></trkpt>
<trkpt lat="53.360991" lon="-1.850128"><ele>315</ele><time>2020-08-05T13:43:25Z</time><name>PT14553</name></trkpt>
<trkpt lat="53.360989" lon="-1.850127"><ele>316</ele><time>2020-08-05T13:43:27Z</time><name>PT14554</name></trkpt>
<trkpt lat="53.360992" lon="-1.850121"><ele>316</ele><time>2020-08-05T13:43:28Z</time><name>PT14555</name></trkpt>
<trkpt lat="53.360990" lon="-1.850118"><ele>316</ele><time>2020-08-05T13:43:28Z</time><name>PT14556</name></trkpt>
<trkpt lat="53.360986" lon="-1.850116"><ele>315</ele><time>2020-08-05T13:43:30Z</time><name>PT14557</name></trkpt>
<trkpt lat="53.360975" lon="-1.850116"><ele>316</ele><time>2020-08-05T13:43:31Z</time><name>PT14558</name></trkpt>
<trkpt lat="53.360963" lon="-1.850117"><ele>316</ele><time>2020-08-05T13:43:31Z</time><name>PT14559</name></trkpt>
<trkpt lat="53.360949" lon="-1.850118"><ele>316</ele><time>2020-08-05T13:43:33Z</time><name>PT14560</name></trkpt>
<trkpt lat="53.360939" lon="-1.850117"><ele>316</ele><time>2020-08-05T13:43:34Z</time><name>PT14561</name></trkpt>
<trkpt lat="53.360925" lon="-1.850118"><ele>315</ele><time>2020-08-05T13:43:34Z</time><name>PT14562</name></trkpt>
<trkpt lat="53.360910" lon="-1.850118"><ele>316</ele><time>2020-08-05T13:43:36Z</time><name>PT14563</name></trkpt>
<trkpt lat="53.360896" lon="-1.850120"><ele>316</ele><time>2020-08-05T13:43:37Z</time><name>PT14564</name></trkpt>
<trkpt lat="53.360887" lon="-1.850122"><ele>317</ele><time>2020-08-05T13:43:37Z</time><name>PT14565</name></trkpt>
<trkpt lat="53.360875" lon="-1.850124"><ele>316</ele><time>2020-08-05T13:43:39Z</time><name>PT14566</name></trkpt>
<trkpt lat="53.360862" lon="-1.850125"><ele>317</ele><time>2020-08-05T13:43:40Z</time><name>PT14567</name></trkpt>
<trkpt lat="53.360848" lon="-1.850120"><ele>317</ele><time>2020-08-05T13:43:40Z</time><name>PT14568</name></trkpt>
<trkpt lat="53.360834" lon="-1.850119"><ele>317</ele><time>2020-08-05T13:43:42Z</time><name>PT14569</name></trkpt>
<trkpt lat="53.360820" lon="-1.850129"><ele>315</ele><time>2020-08-05T13:43:43Z</time><name>PT14570</name></trkpt>
<trkpt lat="53.360805" lon="-1.850132"><ele>316</ele><time>2020-08-05T13:43:43Z</time><name>PT14571</name></trkpt>
<trkpt lat="53.360794" lon="-1.850130"><ele>316</ele><time>2020-08-05T13:43:45Z</time><name>PT14572</name></trkpt>
<trkpt lat="53.360784" lon="-1.850128"><ele>317</ele><time>2020-08-05T13:43:46Z</time><name>PT14573</name></trkpt>
<trkpt lat="53.360772" lon="-1.850128"><ele>317</ele><time>2020-08-05T13:43:46Z</time><name>PT14574</name></trkpt>
<trkpt lat="53.360763" lon="-1.850123"><ele>318</ele><time>2020-08-05T13:43:48Z</time><name>PT14575</name></trkpt>
<trkpt lat="53.360749" lon="-1.850120"><ele>319</ele><time>2020-08-05T13:43:49Z</time><name>PT14576</name></trkpt>
<trkpt lat="53.360737" lon="-1.850121"><ele>320</ele><time>2020-08-05T13:43:49Z</time><name>PT14577</name></trkpt>
<trkpt lat="53.360725" lon="-1.850124"><ele>319</ele><time>2020-08-05T13:43:51Z</time><name>PT14578</name></trkpt>
<trkpt lat="53.360715" lon="-1.850125"><ele>319</ele><time>2020-08-05T13:43:52Z</time><name>PT14579</name></trkpt>
<trkpt lat="53.360704" lon="-1.850124"><ele>319</ele><time>2020-08-05T13:43:53Z</time><name>PT14580</name></trkpt>
<trkpt lat="53.360689" lon="-1.850126"><ele>319</ele><time>2020-08-05T13:43:54Z</time><name>PT14581</name></trkpt>
<trkpt lat="53.360677" lon="-1.850128"><ele>319</ele><time>2020-08-05T13:43:55Z</time><name>PT14582</name></trkpt>
<trkpt lat="53.360665" lon="-1.850130"><ele>318</ele><time>2020-08-05T13:43:56Z</time><name>PT14583</name></trkpt>
<trkpt lat="53.360658" lon="-1.850130"><ele>318</ele><time>2020-08-05T13:43:57Z</time><name>PT14584</name></trkpt>
<trkpt lat="53.360647" lon="-1.850129"><ele>318</ele><time>2020-08-05T13:43:58Z</time><name>PT14585</name></trkpt>
<trkpt lat="53.360636" lon="-1.850132"><ele>318</ele><time>2020-08-05T13:43:59Z</time><name>PT14586</name></trkpt>
<trkpt lat="53.360625" lon="-1.850137"><ele>317</ele><time>2020-08-05T13:44:00Z</time><name>PT14587</name></trkpt>
<trkpt lat="53.360613" lon="-1.850139"><ele>317</ele><time>2020-08-05T13:44:01Z</time><name>PT14588</name></trkpt>
<trkpt lat="53.360603" lon="-1.850139"><ele>317</ele><time>2020-08-05T13:44:01Z</time><name>PT14589</name></trkpt>
<trkpt lat="53.360591" lon="-1.850137"><ele>317</ele><time>2020-08-05T13:44:03Z</time><name>PT14590</name></trkpt>
<trkpt lat="53.360579" lon="-1.850136"><ele>317</ele><time>2020-08-05T13:44:04Z</time><name>PT14591</name></trkpt>
<trkpt lat="53.360568" lon="-1.850138"><ele>318</ele><time>2020-08-05T13:44:04Z</time><name>PT14592</name></trkpt>
<trkpt lat="53.360557" lon="-1.850142"><ele>318</ele><time>2020-08-05T13:44:06Z</time><name>PT14593</name></trkpt>
<trkpt lat="53.360547" lon="-1.850145"><ele>318</ele><time>2020-08-05T13:44:07Z</time><name>PT14594</name></trkpt>
<trkpt lat="53.360538" lon="-1.850148"><ele>318</ele><time>2020-08-05T13:44:07Z</time><name>PT14595</name></trkpt>
<trkpt lat="53.360526" lon="-1.850153"><ele>318</ele><time>2020-08-05T13:44:09Z</time><name>PT14596</name></trkpt>
<trkpt lat="53.360517" lon="-1.850158"><ele>318</ele><time>2020-08-05T13:44:10Z</time><name>PT14597</name></trkpt>
<trkpt lat="53.360506" lon="-1.850162"><ele>318</ele><time>2020-08-05T13:44:10Z</time><name>PT14598</name></trkpt>
<trkpt lat="53.360496" lon="-1.850168"><ele>318</ele><time>2020-08-05T13:44:12Z</time><name>PT14599</name></trkpt>
<trkpt lat="53.360487" lon="-1.850176"><ele>317</ele><time>2020-08-05T13:44:13Z</time><name>PT14600</name></trkpt>
<trkpt lat="53.360481" lon="-1.850188"><ele>317</ele><time>2020-08-05T13:44:13Z</time><name>PT14601</name></trkpt>
<trkpt lat="53.360474" lon="-1.850197"><ele>317</ele><time>2020-08-05T13:44:15Z</time><name>PT14602</name></trkpt>
<trkpt lat="53.360467" lon="-1.850202"><ele>318</ele><time>2020-08-05T13:44:16Z</time><name>PT14603</name></trkpt>
<trkpt lat="53.360463" lon="-1.850207"><ele>318</ele><time>2020-08-05T13:44:16Z</time><name>PT14604</name></trkpt>
<trkpt lat="53.360459" lon="-1.850210"><ele>318</ele><time>2020-08-05T13:44:18Z</time><name>PT14605</name></trkpt>
<trkpt lat="53.360454" lon="-1.850216"><ele>318</ele><time>2020-08-05T13:44:19Z</time><name>PT14606</name></trkpt>
<trkpt lat="53.360450" lon="-1.850226"><ele>318</ele><time>2020-08-05T13:44:19Z</time><name>PT14607</name></trkpt>
<trkpt lat="53.360445" lon="-1.850231"><ele>318</ele><time>2020-08-05T13:44:21Z</time><name>PT14608</name></trkpt>
<trkpt lat="53.360443" lon="-1.850235"><ele>318</ele><time>2020-08-05T13:44:22Z</time><name>PT14609</name></trkpt>
<trkpt lat="53.360442" lon="-1.850236"><ele>319</ele><time>2020-08-05T13:44:22Z</time><name>PT14610</name></trkpt>
<trkpt lat="53.360443" lon="-1.850235"><ele>319</ele><time>2020-08-05T13:44:24Z</time><name>PT14611</name></trkpt>
<trkpt lat="53.360444" lon="-1.850237"><ele>318</ele><time>2020-08-05T13:44:31Z</time><name>PT14612</name></trkpt>
<trkpt lat="53.360441" lon="-1.850248"><ele>319</ele><time>2020-08-05T13:44:31Z</time><name>PT14613</name></trkpt>
<trkpt lat="53.360437" lon="-1.850263"><ele>318</ele><time>2020-08-05T13:44:33Z</time><name>PT14614</name></trkpt>
<trkpt lat="53.360430" lon="-1.850270"><ele>318</ele><time>2020-08-05T13:44:34Z</time><name>PT14615</name></trkpt>
<trkpt lat="53.360423" lon="-1.850270"><ele>318</ele><time>2020-08-05T13:44:34Z</time><name>PT14616</name></trkpt>
<trkpt lat="53.360416" lon="-1.850278"><ele>318</ele><time>2020-08-05T13:44:36Z</time><name>PT14617</name></trkpt>
<trkpt lat="53.360415" lon="-1.850279"><ele>318</ele><time>2020-08-05T13:44:37Z</time><name>PT14618</name></trkpt>
<trkpt lat="53.360409" lon="-1.850287"><ele>318</ele><time>2020-08-05T13:44:37Z</time><name>PT14619</name></trkpt>
<trkpt lat="53.360403" lon="-1.850294"><ele>318</ele><time>2020-08-05T13:44:39Z</time><name>PT14620</name></trkpt>
<trkpt lat="53.360390" lon="-1.850292"><ele>318</ele><time>2020-08-05T13:44:40Z</time><name>PT14621</name></trkpt>
<trkpt lat="53.360382" lon="-1.850285"><ele>318</ele><time>2020-08-05T13:44:40Z</time><name>PT14622</name></trkpt>
<trkpt lat="53.360373" lon="-1.850280"><ele>319</ele><time>2020-08-05T13:44:42Z</time><name>PT14623</name></trkpt>
<trkpt lat="53.360363" lon="-1.850273"><ele>319</ele><time>2020-08-05T13:44:43Z</time><name>PT14624</name></trkpt>
<trkpt lat="53.360358" lon="-1.850263"><ele>318</ele><time>2020-08-05T13:44:43Z</time><name>PT14625</name></trkpt>
<trkpt lat="53.360352" lon="-1.850255"><ele>318</ele><time>2020-08-05T13:44:45Z</time><name>PT14626</name></trkpt>
<trkpt lat="53.360345" lon="-1.850246"><ele>319</ele><time>2020-08-05T13:44:46Z</time><name>PT14627</name></trkpt>
<trkpt lat="53.360337" lon="-1.850237"><ele>318</ele><time>2020-08-05T13:44:46Z</time><name>PT14628</name></trkpt>
<trkpt lat="53.360329" lon="-1.850225"><ele>318</ele><time>2020-08-05T13:44:48Z</time><name>PT14629</name></trkpt>
<trkpt lat="53.360321" lon="-1.850211"><ele>318</ele><time>2020-08-05T13:44:49Z</time><name>PT14630</name></trkpt>
<trkpt lat="53.360314" lon="-1.850205"><ele>319</ele><time>2020-08-05T13:44:49Z</time><name>PT14631</name></trkpt>
<trkpt lat="53.360303" lon="-1.850201"><ele>319</ele><time>2020-08-05T13:44:51Z</time><name>PT14632</name></trkpt>
<trkpt lat="53.360293" lon="-1.850197"><ele>318</ele><time>2020-08-05T13:44:52Z</time><name>PT14633</name></trkpt>
<trkpt lat="53.360284" lon="-1.850195"><ele>318</ele><time>2020-08-05T13:44:52Z</time><name>PT14634</name></trkpt>
<trkpt lat="53.360275" lon="-1.850186"><ele>318</ele><time>2020-08-05T13:44:54Z</time><name>PT14635</name></trkpt>
<trkpt lat="53.360268" lon="-1.850186"><ele>318</ele><time>2020-08-05T13:44:55Z</time><name>PT14636</name></trkpt>
<trkpt lat="53.360260" lon="-1.850185"><ele>318</ele><time>2020-08-05T13:44:55Z</time><name>PT14637</name></trkpt>
<trkpt lat="53.360250" lon="-1.850182"><ele>317</ele><time>2020-08-05T13:44:57Z</time><name>PT14638</name></trkpt>
<trkpt lat="53.360241" lon="-1.850181"><ele>316</ele><time>2020-08-05T13:44:58Z</time><name>PT14639</name></trkpt>
<trkpt lat="53.360228" lon="-1.850185"><ele>316</ele><time>2020-08-05T13:44:58Z</time><name>PT14640</name></trkpt>
<trkpt lat="53.360214" lon="-1.850189"><ele>316</ele><time>2020-08-05T13:45:00Z</time><name>PT14641</name></trkpt>
<trkpt lat="53.360199" lon="-1.850187"><ele>316</ele><time>2020-08-05T13:45:01Z</time><name>PT14642</name></trkpt>
<trkpt lat="53.360187" lon="-1.850181"><ele>316</ele><time>2020-08-05T13:45:01Z</time><name>PT14643</name></trkpt>
<trkpt lat="53.360174" lon="-1.850173"><ele>317</ele><time>2020-08-05T13:45:03Z</time><name>PT14644</name></trkpt>
<trkpt lat="53.360165" lon="-1.850172"><ele>317</ele><time>2020-08-05T13:45:04Z</time><name>PT14645</name></trkpt>
<trkpt lat="53.360153" lon="-1.850170"><ele>318</ele><time>2020-08-05T13:45:04Z</time><name>PT14646</name></trkpt>
<trkpt lat="53.360143" lon="-1.850165"><ele>318</ele><time>2020-08-05T13:45:06Z</time><name>PT14647</name></trkpt>
<trkpt lat="53.360131" lon="-1.850160"><ele>318</ele><time>2020-08-05T13:45:07Z</time><name>PT14648</name></trkpt>
<trkpt lat="53.360119" lon="-1.850157"><ele>318</ele><time>2020-08-05T13:45:07Z</time><name>PT14649</name></trkpt>
<trkpt lat="53.360108" lon="-1.850153"><ele>318</ele><time>2020-08-05T13:45:09Z</time><name>PT14650</name></trkpt>
<trkpt lat="53.360095" lon="-1.850150"><ele>317</ele><time>2020-08-05T13:45:10Z</time><name>PT14651</name></trkpt>
<trkpt lat="53.360083" lon="-1.850147"><ele>317</ele><time>2020-08-05T13:45:11Z</time><name>PT14652</name></trkpt>
<trkpt lat="53.360069" lon="-1.850148"><ele>317</ele><time>2020-08-05T13:45:12Z</time><name>PT14653</name></trkpt>
<trkpt lat="53.360054" lon="-1.850148"><ele>317</ele><time>2020-08-05T13:45:13Z</time><name>PT14654</name></trkpt>
<trkpt lat="53.360041" lon="-1.850144"><ele>318</ele><time>2020-08-05T13:45:14Z</time><name>PT14655</name></trkpt>
<trkpt lat="53.360030" lon="-1.850142"><ele>318</ele><time>2020-08-05T13:45:15Z</time><name>PT14656</name></trkpt>
<trkpt lat="53.360020" lon="-1.850142"><ele>318</ele><time>2020-08-05T13:45:16Z</time><name>PT14657</name></trkpt>
<trkpt lat="53.360011" lon="-1.850139"><ele>318</ele><time>2020-08-05T13:45:17Z</time><name>PT14658</name></trkpt>
<trkpt lat="53.360000" lon="-1.850133"><ele>318</ele><time>2020-08-05T13:45:18Z</time><name>PT14659</name></trkpt>
<trkpt lat="53.359992" lon="-1.850131"><ele>318</ele><time>2020-08-05T13:45:19Z</time><name>PT14660</name></trkpt>
<trkpt lat="53.359982" lon="-1.850133"><ele>318</ele><time>2020-08-05T13:45:19Z</time><name>PT14661</name></trkpt>
<trkpt lat="53.359972" lon="-1.850137"><ele>318</ele><time>2020-08-05T13:45:21Z</time><name>PT14662</name></trkpt>
<trkpt lat="53.359961" lon="-1.850139"><ele>318</ele><time>2020-08-05T13:45:22Z</time><name>PT14663</name></trkpt>
<trkpt lat="53.359950" lon="-1.850138"><ele>318</ele><time>2020-08-05T13:45:22Z</time><name>PT14664</name></trkpt>
<trkpt lat="53.359940" lon="-1.850133"><ele>319</ele><time>2020-08-05T13:45:24Z</time><name>PT14665</name></trkpt>
<trkpt lat="53.359930" lon="-1.850129"><ele>318</ele><time>2020-08-05T13:45:25Z</time><name>PT14666</name></trkpt>
<trkpt lat="53.359917" lon="-1.850121"><ele>318</ele><time>2020-08-05T13:45:25Z</time><name>PT14667</name></trkpt>
<trkpt lat="53.359903" lon="-1.850121"><ele>318</ele><time>2020-08-05T13:45:27Z</time><name>PT14668</name></trkpt>
<trkpt lat="53.359888" lon="-1.850123"><ele>317</ele><time>2020-08-05T13:45:28Z</time><name>PT14669</name></trkpt>
<trkpt lat="53.359876" lon="-1.850123"><ele>317</ele><time>2020-08-05T13:45:28Z</time><name>PT14670</name></trkpt>
<trkpt lat="53.359864" lon="-1.850122"><ele>317</ele><time>2020-08-05T13:45:30Z</time><name>PT14671</name></trkpt>
<trkpt lat="53.359854" lon="-1.850125"><ele>317</ele><time>2020-08-05T13:45:31Z</time><name>PT14672</name></trkpt>
<trkpt lat="53.359844" lon="-1.850130"><ele>317</ele><time>2020-08-05T13:45:31Z</time><name>PT14673</name></trkpt>
<trkpt lat="53.359834" lon="-1.850134"><ele>316</ele><time>2020-08-05T13:45:33Z</time><name>PT14674</name></trkpt>
<trkpt lat="53.359823" lon="-1.850137"><ele>316</ele><time>2020-08-05T13:45:34Z</time><name>PT14675</name></trkpt>
<trkpt lat="53.359812" lon="-1.850141"><ele>316</ele><time>2020-08-05T13:45:34Z</time><name>PT14676</name></trkpt>
<trkpt lat="53.359802" lon="-1.850146"><ele>317</ele><time>2020-08-05T13:45:36Z</time><name>PT14677</name></trkpt>
<trkpt lat="53.359793" lon="-1.850153"><ele>317</ele><time>2020-08-05T13:45:37Z</time><name>PT14678</name></trkpt>
<trkpt lat="53.359783" lon="-1.850155"><ele>317</ele><time>2020-08-05T13:45:37Z</time><name>PT14679</name></trkpt>
<trkpt lat="53.359773" lon="-1.850157"><ele>316</ele><time>2020-08-05T13:45:39Z</time><name>PT14680</name></trkpt>
<trkpt lat="53.359762" lon="-1.850163"><ele>316</ele><time>2020-08-05T13:45:40Z</time><name>PT14681</name></trkpt>
<trkpt lat="53.359751" lon="-1.850169"><ele>316</ele><time>2020-08-05T13:45:40Z</time><name>PT14682</name></trkpt>
<trkpt lat="53.359739" lon="-1.850173"><ele>317</ele><time>2020-08-05T13:45:42Z</time><name>PT14683</name></trkpt>
<trkpt lat="53.359728" lon="-1.850178"><ele>316</ele><time>2020-08-05T13:45:43Z</time><name>PT14684</name></trkpt>
<trkpt lat="53.359716" lon="-1.850182"><ele>317</ele><time>2020-08-05T13:45:43Z</time><name>PT14685</name></trkpt>
<trkpt lat="53.359705" lon="-1.850185"><ele>316</ele><time>2020-08-05T13:45:45Z</time><name>PT14686</name></trkpt>
<trkpt lat="53.359690" lon="-1.850189"><ele>316</ele><time>2020-08-05T13:45:46Z</time><name>PT14687</name></trkpt>
<trkpt lat="53.359677" lon="-1.850194"><ele>317</ele><time>2020-08-05T13:45:46Z</time><name>PT14688</name></trkpt>
<trkpt lat="53.359668" lon="-1.850195"><ele>317</ele><time>2020-08-05T13:45:48Z</time><name>PT14689</name></trkpt>
<trkpt lat="53.359658" lon="-1.850191"><ele>317</ele><time>2020-08-05T13:45:49Z</time><name>PT14690</name></trkpt>
<trkpt lat="53.359646" lon="-1.850192"><ele>317</ele><time>2020-08-05T13:45:49Z</time><name>PT14691</name></trkpt>
<trkpt lat="53.359637" lon="-1.850193"><ele>317</ele><time>2020-08-05T13:45:51Z</time><name>PT14692</name></trkpt>
<trkpt lat="53.359627" lon="-1.850191"><ele>317</ele><time>2020-08-05T13:45:52Z</time><name>PT14693</name></trkpt>
<trkpt lat="53.359619" lon="-1.850185"><ele>317</ele><time>2020-08-05T13:45:52Z</time><name>PT14694</name></trkpt>
<trkpt lat="53.359616" lon="-1.850182"><ele>316</ele><time>2020-08-05T13:45:54Z</time><name>PT14695</name></trkpt>
<trkpt lat="53.359611" lon="-1.850178"><ele>316</ele><time>2020-08-05T13:45:55Z</time><name>PT14696</name></trkpt>
<trkpt lat="53.359604" lon="-1.850177"><ele>316</ele><time>2020-08-05T13:45:55Z</time><name>PT14697</name></trkpt>
<trkpt lat="53.359594" lon="-1.850175"><ele>316</ele><time>2020-08-05T13:45:57Z</time><name>PT14698</name></trkpt>
<trkpt lat="53.359585" lon="-1.850168"><ele>317</ele><time>2020-08-05T13:45:58Z</time><name>PT14699</name></trkpt>
<trkpt lat="53.359576" lon="-1.850154"><ele>317</ele><time>2020-08-05T13:45:58Z</time><name>PT14700</name></trkpt>
<trkpt lat="53.359568" lon="-1.850147"><ele>317</ele><time>2020-08-05T13:46:00Z</time><name>PT14701</name></trkpt>
<trkpt lat="53.359560" lon="-1.850146"><ele>316</ele><time>2020-08-05T13:46:01Z</time><name>PT14702</name></trkpt>
<trkpt lat="53.359552" lon="-1.850143"><ele>317</ele><time>2020-08-05T13:46:02Z</time><name>PT14703</name></trkpt>
<trkpt lat="53.359545" lon="-1.850141"><ele>317</ele><time>2020-08-05T13:46:03Z</time><name>PT14704</name></trkpt>
<trkpt lat="53.359536" lon="-1.850140"><ele>317</ele><time>2020-08-05T13:46:04Z</time><name>PT14705</name></trkpt>
<trkpt lat="53.359529" lon="-1.850148"><ele>317</ele><time>2020-08-05T13:46:05Z</time><name>PT14706</name></trkpt>
<trkpt lat="53.359520" lon="-1.850156"><ele>317</ele><time>2020-08-05T13:46:06Z</time><name>PT14707</name></trkpt>
<trkpt lat="53.359510" lon="-1.850164"><ele>318</ele><time>2020-08-05T13:46:07Z</time><name>PT14708</name></trkpt>
<trkpt lat="53.359502" lon="-1.850172"><ele>317</ele><time>2020-08-05T13:46:07Z</time><name>PT14709</name></trkpt>
<trkpt lat="53.359493" lon="-1.850182"><ele>317</ele><time>2020-08-05T13:46:09Z</time><name>PT14710</name></trkpt>
<trkpt lat="53.359486" lon="-1.850194"><ele>318</ele><time>2020-08-05T13:46:10Z</time><name>PT14711</name></trkpt>
<trkpt lat="53.359479" lon="-1.850206"><ele>318</ele><time>2020-08-05T13:46:10Z</time><name>PT14712</name></trkpt>
<trkpt lat="53.359475" lon="-1.850218"><ele>318</ele><time>2020-08-05T13:46:12Z</time><name>PT14713</name></trkpt>
<trkpt lat="53.359471" lon="-1.850230"><ele>318</ele><time>2020-08-05T13:46:13Z</time><name>PT14714</name></trkpt>
<trkpt lat="53.359464" lon="-1.850241"><ele>318</ele><time>2020-08-05T13:46:13Z</time><name>PT14715</name></trkpt>
<trkpt lat="53.359455" lon="-1.850248"><ele>319</ele><time>2020-08-05T13:46:15Z</time><name>PT14716</name></trkpt>
<trkpt lat="53.359447" lon="-1.850259"><ele>319</ele><time>2020-08-05T13:46:16Z</time><name>PT14717</name></trkpt>
<trkpt lat="53.359445" lon="-1.850262"><ele>319</ele><time>2020-08-05T13:46:16Z</time><name>PT14718</name></trkpt>
<trkpt lat="53.359439" lon="-1.850266"><ele>320</ele><time>2020-08-05T13:46:18Z</time><name>PT14719</name></trkpt>
<trkpt lat="53.359431" lon="-1.850272"><ele>321</ele><time>2020-08-05T13:46:19Z</time><name>PT14720</name></trkpt>
<trkpt lat="53.359422" lon="-1.850279"><ele>321</ele><time>2020-08-05T13:46:19Z</time><name>PT14721</name></trkpt>
<trkpt lat="53.359417" lon="-1.850281"><ele>321</ele><time>2020-08-05T13:46:21Z</time><name>PT14722</name></trkpt>
<trkpt lat="53.359411" lon="-1.850284"><ele>322</ele><time>2020-08-05T13:46:22Z</time><name>PT14723</name></trkpt>
<trkpt lat="53.359406" lon="-1.850287"><ele>322</ele><time>2020-08-05T13:46:22Z</time><name>PT14724</name></trkpt>
<trkpt lat="53.359401" lon="-1.850287"><ele>322</ele><time>2020-08-05T13:46:24Z</time><name>PT14725</name></trkpt>
<trkpt lat="53.359394" lon="-1.850294"><ele>322</ele><time>2020-08-05T13:46:25Z</time><name>PT14726</name></trkpt>
<trkpt lat="53.359389" lon="-1.850302"><ele>322</ele><time>2020-08-05T13:46:25Z</time><name>PT14727</name></trkpt>
<trkpt lat="53.359384" lon="-1.850313"><ele>322</ele><time>2020-08-05T13:46:27Z</time><name>PT14728</name></trkpt>
<trkpt lat="53.359374" lon="-1.850322"><ele>322</ele><time>2020-08-05T13:46:28Z</time><name>PT14729</name></trkpt>
<trkpt lat="53.359363" lon="-1.850329"><ele>322</ele><time>2020-08-05T13:46:28Z</time><name>PT14730</name></trkpt>
<trkpt lat="53.359357" lon="-1.850338"><ele>322</ele><time>2020-08-05T13:46:30Z</time><name>PT14731</name></trkpt>
<trkpt lat="53.359347" lon="-1.850347"><ele>322</ele><time>2020-08-05T13:46:31Z</time><name>PT14732</name></trkpt>
<trkpt lat="53.359339" lon="-1.850354"><ele>322</ele><time>2020-08-05T13:46:31Z</time><name>PT14733</name></trkpt>
<trkpt lat="53.359328" lon="-1.850359"><ele>323</ele><time>2020-08-05T13:46:33Z</time><name>PT14734</name></trkpt>
<trkpt lat="53.359314" lon="-1.850363"><ele>323</ele><time>2020-08-05T13:46:34Z</time><name>PT14735</name></trkpt>
<trkpt lat="53.359301" lon="-1.850367"><ele>322</ele><time>2020-08-05T13:46:35Z</time><name>PT14736</name></trkpt>
<trkpt lat="53.359289" lon="-1.850368"><ele>323</ele><time>2020-08-05T13:46:36Z</time><name>PT14737</name></trkpt>
<trkpt lat="53.359278" lon="-1.850368"><ele>323</ele><time>2020-08-05T13:46:37Z</time><name>PT14738</name></trkpt>
<trkpt lat="53.359266" lon="-1.850369"><ele>324</ele><time>2020-08-05T13:46:38Z</time><name>PT14739</name></trkpt>
<trkpt lat="53.359254" lon="-1.850369"><ele>324</ele><time>2020-08-05T13:46:39Z</time><name>PT14740</name></trkpt>
<trkpt lat="53.359242" lon="-1.850366"><ele>323</ele><time>2020-08-05T13:46:40Z</time><name>PT14741</name></trkpt>
<trkpt lat="53.359231" lon="-1.850360"><ele>323</ele><time>2020-08-05T13:46:40Z</time><name>PT14742</name></trkpt>
<trkpt lat="53.359219" lon="-1.850357"><ele>323</ele><time>2020-08-05T13:46:42Z</time><name>PT14743</name></trkpt>
<trkpt lat="53.359208" lon="-1.850355"><ele>323</ele><time>2020-08-05T13:46:43Z</time><name>PT14744</name></trkpt>
<trkpt lat="53.359197" lon="-1.850353"><ele>324</ele><time>2020-08-05T13:46:44Z</time><name>PT14745</name></trkpt>
<trkpt lat="53.359188" lon="-1.850356"><ele>323</ele><time>2020-08-05T13:46:45Z</time><name>PT14746</name></trkpt>
<trkpt lat="53.359178" lon="-1.850358"><ele>323</ele><time>2020-08-05T13:46:46Z</time><name>PT14747</name></trkpt>
<trkpt lat="53.359164" lon="-1.850357"><ele>323</ele><time>2020-08-05T13:46:46Z</time><name>PT14748</name></trkpt>
<trkpt lat="53.359152" lon="-1.850353"><ele>323</ele><time>2020-08-05T13:46:48Z</time><name>PT14749</name></trkpt>
<trkpt lat="53.359141" lon="-1.850348"><ele>323</ele><time>2020-08-05T13:46:49Z</time><name>PT14750</name></trkpt>
<trkpt lat="53.359132" lon="-1.850347"><ele>323</ele><time>2020-08-05T13:46:49Z</time><name>PT14751</name></trkpt>
<trkpt lat="53.359123" lon="-1.850339"><ele>324</ele><time>2020-08-05T13:46:51Z</time><name>PT14752</name></trkpt>
<trkpt lat="53.359113" lon="-1.850327"><ele>325</ele><time>2020-08-05T13:46:52Z</time><name>PT14753</name></trkpt>
<trkpt lat="53.359104" lon="-1.850313"><ele>325</ele><time>2020-08-05T13:46:52Z</time><name>PT14754</name></trkpt>
<trkpt lat="53.359098" lon="-1.850298"><ele>325</ele><time>2020-08-05T13:46:54Z</time><name>PT14755</name></trkpt>
<trkpt lat="53.359091" lon="-1.850288"><ele>325</ele><time>2020-08-05T13:46:55Z</time><name>PT14756</name></trkpt>
<trkpt lat="53.359082" lon="-1.850276"><ele>325</ele><time>2020-08-05T13:46:55Z</time><name>PT14757</name></trkpt>
<trkpt lat="53.359075" lon="-1.850265"><ele>326</ele><time>2020-08-05T13:46:57Z</time><name>PT14758</name></trkpt>
<trkpt lat="53.359065" lon="-1.850255"><ele>326</ele><time>2020-08-05T13:46:58Z</time><name>PT14759</name></trkpt>
<trkpt lat="53.359057" lon="-1.850244"><ele>326</ele><time>2020-08-05T13:46:58Z</time><name>PT14760</name></trkpt>
<trkpt lat="53.359046" lon="-1.850234"><ele>326</ele><time>2020-08-05T13:47:00Z</time><name>PT14761</name></trkpt>
<trkpt lat="53.359036" lon="-1.850225"><ele>326</ele><time>2020-08-05T13:47:01Z</time><name>PT14762</name></trkpt>
<trkpt lat="53.359027" lon="-1.850216"><ele>326</ele><time>2020-08-05T13:47:01Z</time><name>PT14763</name></trkpt>
<trkpt lat="53.359017" lon="-1.850208"><ele>326</ele><time>2020-08-05T13:47:03Z</time><name>PT14764</name></trkpt>
<trkpt lat="53.359007" lon="-1.850201"><ele>327</ele><time>2020-08-05T13:47:04Z</time><name>PT14765</name></trkpt>
<trkpt lat="53.358999" lon="-1.850199"><ele>327</ele><time>2020-08-05T13:47:05Z</time><name>PT14766</name></trkpt>
<trkpt lat="53.358990" lon="-1.850195"><ele>327</ele><time>2020-08-05T13:47:06Z</time><name>PT14767</name></trkpt>
<trkpt lat="53.358982" lon="-1.850188"><ele>327</ele><time>2020-08-05T13:47:07Z</time><name>PT14768</name></trkpt>
<trkpt lat="53.358972" lon="-1.850181"><ele>327</ele><time>2020-08-05T13:47:08Z</time><name>PT14769</name></trkpt>
<trkpt lat="53.358964" lon="-1.850176"><ele>327</ele><time>2020-08-05T13:47:09Z</time><name>PT14770</name></trkpt>
<trkpt lat="53.358953" lon="-1.850171"><ele>327</ele><time>2020-08-05T13:47:10Z</time><name>PT14771</name></trkpt>
<trkpt lat="53.358939" lon="-1.850167"><ele>327</ele><time>2020-08-05T13:47:10Z</time><name>PT14772</name></trkpt>
<trkpt lat="53.358928" lon="-1.850158"><ele>326</ele><time>2020-08-05T13:47:12Z</time><name>PT14773</name></trkpt>
<trkpt lat="53.358917" lon="-1.850154"><ele>326</ele><time>2020-08-05T13:47:13Z</time><name>PT14774</name></trkpt>
<trkpt lat="53.358904" lon="-1.850151"><ele>327</ele><time>2020-08-05T13:47:14Z</time><name>PT14775</name></trkpt>
<trkpt lat="53.358892" lon="-1.850148"><ele>326</ele><time>2020-08-05T13:47:15Z</time><name>PT14776</name></trkpt>
<trkpt lat="53.358879" lon="-1.850143"><ele>326</ele><time>2020-08-05T13:47:16Z</time><name>PT14777</name></trkpt>
<trkpt lat="53.358868" lon="-1.850138"><ele>326</ele><time>2020-08-05T13:47:16Z</time><name>PT14778</name></trkpt>
<trkpt lat="53.358857" lon="-1.850132"><ele>326</ele><time>2020-08-05T13:47:18Z</time><name>PT14779</name></trkpt>
<trkpt lat="53.358849" lon="-1.850124"><ele>326</ele><time>2020-08-05T13:47:19Z</time><name>PT14780</name></trkpt>
<trkpt lat="53.358837" lon="-1.850113"><ele>325</ele><time>2020-08-05T13:47:19Z</time><name>PT14781</name></trkpt>
<trkpt lat="53.358828" lon="-1.850110"><ele>324</ele><time>2020-08-05T13:47:21Z</time><name>PT14782</name></trkpt>
<trkpt lat="53.358818" lon="-1.850109"><ele>324</ele><time>2020-08-05T13:47:22Z</time><name>PT14783</name></trkpt>
<trkpt lat="53.358810" lon="-1.850106"><ele>323</ele><time>2020-08-05T13:47:22Z</time><name>PT14784</name></trkpt>
<trkpt lat="53.358804" lon="-1.850114"><ele>324</ele><time>2020-08-05T13:47:24Z</time><name>PT14785</name></trkpt>
<trkpt lat="53.358796" lon="-1.850123"><ele>324</ele><time>2020-08-05T13:47:25Z</time><name>PT14786</name></trkpt>
<trkpt lat="53.358789" lon="-1.850133"><ele>323</ele><time>2020-08-05T13:47:25Z</time><name>PT14787</name></trkpt>
<trkpt lat="53.358780" lon="-1.850146"><ele>323</ele><time>2020-08-05T13:47:27Z</time><name>PT14788</name></trkpt>
<trkpt lat="53.358770" lon="-1.850159"><ele>323</ele><time>2020-08-05T13:47:28Z</time><name>PT14789</name></trkpt>
<trkpt lat="53.358759" lon="-1.850168"><ele>323</ele><time>2020-08-05T13:47:28Z</time><name>PT14790</name></trkpt>
<trkpt lat="53.358749" lon="-1.850178"><ele>323</ele><time>2020-08-05T13:47:30Z</time><name>PT14791</name></trkpt>
<trkpt lat="53.358740" lon="-1.850186"><ele>323</ele><time>2020-08-05T13:47:31Z</time><name>PT14792</name></trkpt>
<trkpt lat="53.358730" lon="-1.850199"><ele>324</ele><time>2020-08-05T13:47:31Z</time><name>PT14793</name></trkpt>
<trkpt lat="53.358722" lon="-1.850211"><ele>324</ele><time>2020-08-05T13:47:33Z</time><name>PT14794</name></trkpt>
<trkpt lat="53.358716" lon="-1.850224"><ele>324</ele><time>2020-08-05T13:47:34Z</time><name>PT14795</name></trkpt>
<trkpt lat="53.358706" lon="-1.850238"><ele>324</ele><time>2020-08-05T13:47:34Z</time><name>PT14796</name></trkpt>
<trkpt lat="53.358696" lon="-1.850253"><ele>324</ele><time>2020-08-05T13:47:36Z</time><name>PT14797</name></trkpt>
<trkpt lat="53.358687" lon="-1.850264"><ele>324</ele><time>2020-08-05T13:47:37Z</time><name>PT14798</name></trkpt>
<trkpt lat="53.358678" lon="-1.850278"><ele>324</ele><time>2020-08-05T13:47:37Z</time><name>PT14799</name></trkpt>
<trkpt lat="53.358669" lon="-1.850293"><ele>324</ele><time>2020-08-05T13:47:39Z</time><name>PT14800</name></trkpt>
<trkpt lat="53.358659" lon="-1.850306"><ele>324</ele><time>2020-08-05T13:47:40Z</time><name>PT14801</name></trkpt>
<trkpt lat="53.358651" lon="-1.850317"><ele>324</ele><time>2020-08-05T13:47:40Z</time><name>PT14802</name></trkpt>
<trkpt lat="53.358643" lon="-1.850328"><ele>324</ele><time>2020-08-05T13:47:42Z</time><name>PT14803</name></trkpt>
<trkpt lat="53.358634" lon="-1.850335"><ele>326</ele><time>2020-08-05T13:47:43Z</time><name>PT14804</name></trkpt>
<trkpt lat="53.358627" lon="-1.850343"><ele>326</ele><time>2020-08-05T13:47:43Z</time><name>PT14805</name></trkpt>
<trkpt lat="53.358621" lon="-1.850349"><ele>326</ele><time>2020-08-05T13:47:45Z</time><name>PT14806</name></trkpt>
<trkpt lat="53.358615" lon="-1.850355"><ele>326</ele><time>2020-08-05T13:47:46Z</time><name>PT14807</name></trkpt>
<trkpt lat="53.358607" lon="-1.850362"><ele>326</ele><time>2020-08-05T13:47:47Z</time><name>PT14808</name></trkpt>
<trkpt lat="53.358600" lon="-1.850368"><ele>326</ele><time>2020-08-05T13:47:48Z</time><name>PT14809</name></trkpt>
<trkpt lat="53.358594" lon="-1.850376"><ele>326</ele><time>2020-08-05T13:47:49Z</time><name>PT14810</name></trkpt>
<trkpt lat="53.358588" lon="-1.850383"><ele>327</ele><time>2020-08-05T13:47:50Z</time><name>PT14811</name></trkpt>
<trkpt lat="53.358584" lon="-1.850388"><ele>326</ele><time>2020-08-05T13:47:51Z</time><name>PT14812</name></trkpt>
<trkpt lat="53.358580" lon="-1.850398"><ele>326</ele><time>2020-08-05T13:47:52Z</time><name>PT14813</name></trkpt>
<trkpt lat="53.358575" lon="-1.850402"><ele>326</ele><time>2020-08-05T13:47:53Z</time><name>PT14814</name></trkpt>
<trkpt lat="53.358569" lon="-1.850409"><ele>326</ele><time>2020-08-05T13:47:54Z</time><name>PT14815</name></trkpt>
<trkpt lat="53.358562" lon="-1.850414"><ele>326</ele><time>2020-08-05T13:47:55Z</time><name>PT14816</name></trkpt>
<trkpt lat="53.358557" lon="-1.850417"><ele>326</ele><time>2020-08-05T13:47:55Z</time><name>PT14817</name></trkpt>
<trkpt lat="53.358551" lon="-1.850421"><ele>326</ele><time>2020-08-05T13:47:57Z</time><name>PT14818</name></trkpt>
<trkpt lat="53.358545" lon="-1.850426"><ele>326</ele><time>2020-08-05T13:47:58Z</time><name>PT14819</name></trkpt>
<trkpt lat="53.358536" lon="-1.850434"><ele>326</ele><time>2020-08-05T13:47:58Z</time><name>PT14820</name></trkpt>
<trkpt lat="53.358526" lon="-1.850446"><ele>326</ele><time>2020-08-05T13:48:00Z</time><name>PT14821</name></trkpt>
<trkpt lat="53.358515" lon="-1.850454"><ele>326</ele><time>2020-08-05T13:48:01Z</time><name>PT14822</name></trkpt>
<trkpt lat="53.358503" lon="-1.850460"><ele>326</ele><time>2020-08-05T13:48:01Z</time><name>PT14823</name></trkpt>
<trkpt lat="53.358493" lon="-1.850465"><ele>326</ele><time>2020-08-05T13:48:03Z</time><name>PT14824</name></trkpt>
<trkpt lat="53.358485" lon="-1.850467"><ele>326</ele><time>2020-08-05T13:48:04Z</time><name>PT14825</name></trkpt>
<trkpt lat="53.358475" lon="-1.850471"><ele>326</ele><time>2020-08-05T13:48:04Z</time><name>PT14826</name></trkpt>
<trkpt lat="53.358468" lon="-1.850471"><ele>326</ele><time>2020-08-05T13:48:06Z</time><name>PT14827</name></trkpt>
<trkpt lat="53.358462" lon="-1.850468"><ele>326</ele><time>2020-08-05T13:48:07Z</time><name>PT14828</name></trkpt>
<trkpt lat="53.358454" lon="-1.850464"><ele>326</ele><time>2020-08-05T13:48:07Z</time><name>PT14829</name></trkpt>
<trkpt lat="53.358449" lon="-1.850461"><ele>326</ele><time>2020-08-05T13:48:09Z</time><name>PT14830</name></trkpt>
<trkpt lat="53.358440" lon="-1.850460"><ele>326</ele><time>2020-08-05T13:48:10Z</time><name>PT14831</name></trkpt>
<trkpt lat="53.358432" lon="-1.850460"><ele>325</ele><time>2020-08-05T13:48:10Z</time><name>PT14832</name></trkpt>
<trkpt lat="53.358423" lon="-1.850459"><ele>325</ele><time>2020-08-05T13:48:12Z</time><name>PT14833</name></trkpt>
<trkpt lat="53.358414" lon="-1.850456"><ele>325</ele><time>2020-08-05T13:48:13Z</time><name>PT14834</name></trkpt>
<trkpt lat="53.358407" lon="-1.850457"><ele>325</ele><time>2020-08-05T13:48:13Z</time><name>PT14835</name></trkpt>
<trkpt lat="53.358399" lon="-1.850457"><ele>325</ele><time>2020-08-05T13:48:15Z</time><name>PT14836</name></trkpt>
<trkpt lat="53.358390" lon="-1.850457"><ele>325</ele><time>2020-08-05T13:48:16Z</time><name>PT14837</name></trkpt>
<trkpt lat="53.358382" lon="-1.850453"><ele>324</ele><time>2020-08-05T13:48:16Z</time><name>PT14838</name></trkpt>
<trkpt lat="53.358375" lon="-1.850450"><ele>323</ele><time>2020-08-05T13:48:18Z</time><name>PT14839</name></trkpt>
<trkpt lat="53.358366" lon="-1.850450"><ele>324</ele><time>2020-08-05T13:48:19Z</time><name>PT14840</name></trkpt>
<trkpt lat="53.358357" lon="-1.850447"><ele>324</ele><time>2020-08-05T13:48:19Z</time><name>PT14841</name></trkpt>
<trkpt lat="53.358349" lon="-1.850443"><ele>324</ele><time>2020-08-05T13:48:21Z</time><name>PT14842</name></trkpt>
<trkpt lat="53.358342" lon="-1.850440"><ele>324</ele><time>2020-08-05T13:48:22Z</time><name>PT14843</name></trkpt>
<trkpt lat="53.358338" lon="-1.850438"><ele>324</ele><time>2020-08-05T13:48:22Z</time><name>PT14844</name></trkpt>
<trkpt lat="53.358333" lon="-1.850433"><ele>324</ele><time>2020-08-05T13:48:24Z</time><name>PT14845</name></trkpt>
<trkpt lat="53.358332" lon="-1.850431"><ele>324</ele><time>2020-08-05T13:48:25Z</time><name>PT14846</name></trkpt>
<trkpt lat="53.358330" lon="-1.850430"><ele>323</ele><time>2020-08-05T13:48:25Z</time><name>PT14847</name></trkpt>
<trkpt lat="53.358330" lon="-1.850412"><ele>324</ele><time>2020-08-05T13:49:22Z</time><name>PT14848</name></trkpt>
<trkpt lat="53.358324" lon="-1.850419"><ele>324</ele><time>2020-08-05T13:49:22Z</time><name>PT14849</name></trkpt>
<trkpt lat="53.358319" lon="-1.850428"><ele>324</ele><time>2020-08-05T13:49:24Z</time><name>PT14850</name></trkpt>
<trkpt lat="53.358319" lon="-1.850436"><ele>324</ele><time>2020-08-05T13:49:25Z</time><name>PT14851</name></trkpt>
<trkpt lat="53.358316" lon="-1.850438"><ele>325</ele><time>2020-08-05T13:49:25Z</time><name>PT14852</name></trkpt>
<trkpt lat="53.358319" lon="-1.850433"><ele>324</ele><time>2020-08-05T13:49:30Z</time><name>PT14853</name></trkpt>
<trkpt lat="53.358321" lon="-1.850435"><ele>324</ele><time>2020-08-05T13:49:31Z</time><name>PT14854</name></trkpt>
<trkpt lat="53.358324" lon="-1.850438"><ele>324</ele><time>2020-08-05T13:49:48Z</time><name>PT14855</name></trkpt>
<trkpt lat="53.358324" lon="-1.850443"><ele>324</ele><time>2020-08-05T13:49:49Z</time><name>PT14856</name></trkpt>
<trkpt lat="53.358325" lon="-1.850445"><ele>324</ele><time>2020-08-05T13:49:49Z</time><name>PT14857</name></trkpt>
<trkpt lat="53.358321" lon="-1.850444"><ele>324</ele><time>2020-08-05T13:50:15Z</time><name>PT14858</name></trkpt>
<trkpt lat="53.358319" lon="-1.850441"><ele>324</ele><time>2020-08-05T13:50:16Z</time><name>PT14859</name></trkpt>
<trkpt lat="53.358317" lon="-1.850440"><ele>323</ele><time>2020-08-05T13:50:16Z</time><name>PT14860</name></trkpt>
<trkpt lat="53.358316" lon="-1.850435"><ele>323</ele><time>2020-08-05T13:50:18Z</time><name>PT14861</name></trkpt>
<trkpt lat="53.358313" lon="-1.850436"><ele>323</ele><time>2020-08-05T13:50:19Z</time><name>PT14862</name></trkpt>
<trkpt lat="53.358311" lon="-1.850436"><ele>323</ele><time>2020-08-05T13:50:19Z</time><name>PT14863</name></trkpt>
<trkpt lat="53.358312" lon="-1.850432"><ele>324</ele><time>2020-08-05T13:50:21Z</time><name>PT14864</name></trkpt>
<trkpt lat="53.358308" lon="-1.850430"><ele>324</ele><time>2020-08-05T13:50:22Z</time><name>PT14865</name></trkpt>
<trkpt lat="53.358305" lon="-1.850435"><ele>324</ele><time>2020-08-05T13:50:22Z</time><name>PT14866</name></trkpt>
<trkpt lat="53.358299" lon="-1.850435"><ele>324</ele><time>2020-08-05T13:50:24Z</time><name>PT14867</name></trkpt>
<trkpt lat="53.358302" lon="-1.850432"><ele>323</ele><time>2020-08-05T13:50:25Z</time><name>PT14868</name></trkpt>
<trkpt lat="53.358299" lon="-1.850428"><ele>324</ele><time>2020-08-05T13:50:25Z</time><name>PT14869</name></trkpt>
<trkpt lat="53.358298" lon="-1.850428"><ele>324</ele><time>2020-08-05T13:50:27Z</time><name>PT14870</name></trkpt>
<trkpt lat="53.358299" lon="-1.850425"><ele>323</ele><time>2020-08-05T13:50:40Z</time><name>PT14871</name></trkpt>
<trkpt lat="53.358296" lon="-1.850422"><ele>324</ele><time>2020-08-05T13:50:40Z</time><name>PT14872</name></trkpt>
<trkpt lat="53.358296" lon="-1.850420"><ele>324</ele><time>2020-08-05T13:50:42Z</time><name>PT14873</name></trkpt>
<trkpt lat="53.358302" lon="-1.850419"><ele>323</ele><time>2020-08-05T13:50:52Z</time><name>PT14874</name></trkpt>
<trkpt lat="53.358304" lon="-1.850415"><ele>323</ele><time>2020-08-05T13:50:52Z</time><name>PT14875</name></trkpt>
<trkpt lat="53.358301" lon="-1.850405"><ele>323</ele><time>2020-08-05T13:50:54Z</time><name>PT14876</name></trkpt>
<trkpt lat="53.358298" lon="-1.850391"><ele>323</ele><time>2020-08-05T13:50:55Z</time><name>PT14877</name></trkpt>
<trkpt lat="53.358286" lon="-1.850385"><ele>323</ele><time>2020-08-05T13:50:55Z</time><name>PT14878</name></trkpt>
<trkpt lat="53.358276" lon="-1.850379"><ele>323</ele><time>2020-08-05T13:50:57Z</time><name>PT14879</name></trkpt>
<trkpt lat="53.358268" lon="-1.850369"><ele>323</ele><time>2020-08-05T13:50:58Z</time><name>PT14880</name></trkpt>
<trkpt lat="53.358264" lon="-1.850353"><ele>322</ele><time>2020-08-05T13:50:58Z</time><name>PT14881</name></trkpt>
<trkpt lat="53.358259" lon="-1.850342"><ele>322</ele><time>2020-08-05T13:51:00Z</time><name>PT14882</name></trkpt>
<trkpt lat="53.358257" lon="-1.850333"><ele>322</ele><time>2020-08-05T13:51:01Z</time><name>PT14883</name></trkpt>
<trkpt lat="53.358254" lon="-1.850332"><ele>323</ele><time>2020-08-05T13:51:03Z</time><name>PT14884</name></trkpt>
<trkpt lat="53.358253" lon="-1.850332"><ele>322</ele><time>2020-08-05T13:51:10Z</time><name>PT14885</name></trkpt>
<trkpt lat="53.358244" lon="-1.850322"><ele>322</ele><time>2020-08-05T13:51:10Z</time><name>PT14886</name></trkpt>
<trkpt lat="53.358234" lon="-1.850317"><ele>322</ele><time>2020-08-05T13:51:12Z</time><name>PT14887</name></trkpt>
<trkpt lat="53.358223" lon="-1.850306"><ele>322</ele><time>2020-08-05T13:51:13Z</time><name>PT14888</name></trkpt>
<trkpt lat="53.358200" lon="-1.850287"><ele>322</ele><time>2020-08-05T13:51:15Z</time><name>PT14889</name></trkpt>
<trkpt lat="53.358191" lon="-1.850276"><ele>322</ele><time>2020-08-05T13:51:16Z</time><name>PT14890</name></trkpt>
<trkpt lat="53.358180" lon="-1.850269"><ele>321</ele><time>2020-08-05T13:51:16Z</time><name>PT14891</name></trkpt>
<trkpt lat="53.358173" lon="-1.850260"><ele>321</ele><time>2020-08-05T13:51:18Z</time><name>PT14892</name></trkpt>
<trkpt lat="53.358166" lon="-1.850255"><ele>321</ele><time>2020-08-05T13:51:19Z</time><name>PT14893</name></trkpt>
<trkpt lat="53.358159" lon="-1.850251"><ele>321</ele><time>2020-08-05T13:51:19Z</time><name>PT14894</name></trkpt>
<trkpt lat="53.358147" lon="-1.850244"><ele>320</ele><time>2020-08-05T13:51:21Z</time><name>PT14895</name></trkpt>
<trkpt lat="53.358134" lon="-1.850239"><ele>320</ele><time>2020-08-05T13:51:22Z</time><name>PT14896</name></trkpt>
<trkpt lat="53.358123" lon="-1.850227"><ele>321</ele><time>2020-08-05T13:51:22Z</time><name>PT14897</name></trkpt>
<trkpt lat="53.358113" lon="-1.850219"><ele>321</ele><time>2020-08-05T13:51:24Z</time><name>PT14898</name></trkpt>
<trkpt lat="53.358104" lon="-1.850212"><ele>320</ele><time>2020-08-05T13:51:25Z</time><name>PT14899</name></trkpt>
<trkpt lat="53.358095" lon="-1.850203"><ele>320</ele><time>2020-08-05T13:51:25Z</time><name>PT14900</name></trkpt>
<trkpt lat="53.358086" lon="-1.850193"><ele>320</ele><time>2020-08-05T13:51:27Z</time><name>PT14901</name></trkpt>
<trkpt lat="53.358077" lon="-1.850185"><ele>320</ele><time>2020-08-05T13:51:28Z</time><name>PT14902</name></trkpt>
<trkpt lat="53.358067" lon="-1.850170"><ele>320</ele><time>2020-08-05T13:51:28Z</time><name>PT14903</name></trkpt>
<trkpt lat="53.358059" lon="-1.850158"><ele>320</ele><time>2020-08-05T13:51:30Z</time><name>PT14904</name></trkpt>
<trkpt lat="53.358050" lon="-1.850147"><ele>320</ele><time>2020-08-05T13:51:31Z</time><name>PT14905</name></trkpt>
<trkpt lat="53.358044" lon="-1.850144"><ele>320</ele><time>2020-08-05T13:51:32Z</time><name>PT14906</name></trkpt>
<trkpt lat="53.358040" lon="-1.850141"><ele>320</ele><time>2020-08-05T13:51:33Z</time><name>PT14907</name></trkpt>
<trkpt lat="53.358036" lon="-1.850135"><ele>321</ele><time>2020-08-05T13:51:34Z</time><name>PT14908</name></trkpt>
<trkpt lat="53.358029" lon="-1.850122"><ele>320</ele><time>2020-08-05T13:51:34Z</time><name>PT14909</name></trkpt>
<trkpt lat="53.358026" lon="-1.850107"><ele>321</ele><time>2020-08-05T13:51:36Z</time><name>PT14910</name></trkpt>
<trkpt lat="53.358016" lon="-1.850095"><ele>320</ele><time>2020-08-05T13:51:37Z</time><name>PT14911</name></trkpt>
<trkpt lat="53.358006" lon="-1.850084"><ele>320</ele><time>2020-08-05T13:51:37Z</time><name>PT14912</name></trkpt>
<trkpt lat="53.357999" lon="-1.850078"><ele>320</ele><time>2020-08-05T13:51:39Z</time><name>PT14913</name></trkpt>
<trkpt lat="53.357996" lon="-1.850077"><ele>320</ele><time>2020-08-05T13:51:40Z</time><name>PT14914</name></trkpt>
<trkpt lat="53.357992" lon="-1.850068"><ele>321</ele><time>2020-08-05T13:51:40Z</time><name>PT14915</name></trkpt>
<trkpt lat="53.357985" lon="-1.850056"><ele>321</ele><time>2020-08-05T13:51:42Z</time><name>PT14916</name></trkpt>
<trkpt lat="53.357977" lon="-1.850046"><ele>320</ele><time>2020-08-05T13:51:43Z</time><name>PT14917</name></trkpt>
<trkpt lat="53.357970" lon="-1.850038"><ele>320</ele><time>2020-08-05T13:51:44Z</time><name>PT14918</name></trkpt>
<trkpt lat="53.357962" lon="-1.850030"><ele>319</ele><time>2020-08-05T13:51:45Z</time><name>PT14919</name></trkpt>
<trkpt lat="53.357956" lon="-1.850020"><ele>319</ele><time>2020-08-05T13:51:46Z</time><name>PT14920</name></trkpt>
<trkpt lat="53.357951" lon="-1.850005"><ele>319</ele><time>2020-08-05T13:51:46Z</time><name>PT14921</name></trkpt>
<trkpt lat="53.357945" lon="-1.849991"><ele>319</ele><time>2020-08-05T13:51:48Z</time><name>PT14922</name></trkpt>
<trkpt lat="53.357943" lon="-1.849982"><ele>319</ele><time>2020-08-05T13:51:49Z</time><name>PT14923</name></trkpt>
<trkpt lat="53.357935" lon="-1.849970"><ele>319</ele><time>2020-08-05T13:51:49Z</time><name>PT14924</name></trkpt>
<trkpt lat="53.357927" lon="-1.849957"><ele>319</ele><time>2020-08-05T13:51:51Z</time><name>PT14925</name></trkpt>
<trkpt lat="53.357918" lon="-1.849946"><ele>319</ele><time>2020-08-05T13:51:52Z</time><name>PT14926</name></trkpt>
<trkpt lat="53.357906" lon="-1.849938"><ele>319</ele><time>2020-08-05T13:51:52Z</time><name>PT14927</name></trkpt>
<trkpt lat="53.357893" lon="-1.849931"><ele>319</ele><time>2020-08-05T13:51:54Z</time><name>PT14928</name></trkpt>
<trkpt lat="53.357880" lon="-1.849921"><ele>319</ele><time>2020-08-05T13:51:55Z</time><name>PT14929</name></trkpt>
<trkpt lat="53.357867" lon="-1.849913"><ele>318</ele><time>2020-08-05T13:51:55Z</time><name>PT14930</name></trkpt>
<trkpt lat="53.357856" lon="-1.849914"><ele>319</ele><time>2020-08-05T13:51:57Z</time><name>PT14931</name></trkpt>
<trkpt lat="53.357839" lon="-1.849913"><ele>318</ele><time>2020-08-05T13:51:58Z</time><name>PT14932</name></trkpt>
<trkpt lat="53.357826" lon="-1.849906"><ele>319</ele><time>2020-08-05T13:51:58Z</time><name>PT14933</name></trkpt>
<trkpt lat="53.357809" lon="-1.849895"><ele>318</ele><time>2020-08-05T13:52:00Z</time><name>PT14934</name></trkpt>
<trkpt lat="53.357801" lon="-1.849891"><ele>316</ele><time>2020-08-05T13:52:01Z</time><name>PT14935</name></trkpt>
<trkpt lat="53.357789" lon="-1.849889"><ele>316</ele><time>2020-08-05T13:52:01Z</time><name>PT14936</name></trkpt>
<trkpt lat="53.357775" lon="-1.849892"><ele>316</ele><time>2020-08-05T13:52:03Z</time><name>PT14937</name></trkpt>
<trkpt lat="53.357759" lon="-1.849896"><ele>316</ele><time>2020-08-05T13:52:04Z</time><name>PT14938</name></trkpt>
<trkpt lat="53.357745" lon="-1.849895"><ele>317</ele><time>2020-08-05T13:52:04Z</time><name>PT14939</name></trkpt>
<trkpt lat="53.357732" lon="-1.849896"><ele>316</ele><time>2020-08-05T13:52:06Z</time><name>PT14940</name></trkpt>
<trkpt lat="53.357717" lon="-1.849894"><ele>315</ele><time>2020-08-05T13:52:07Z</time><name>PT14941</name></trkpt>
<trkpt lat="53.357705" lon="-1.849895"><ele>315</ele><time>2020-08-05T13:52:07Z</time><name>PT14942</name></trkpt>
<trkpt lat="53.357690" lon="-1.849900"><ele>315</ele><time>2020-08-05T13:52:09Z</time><name>PT14943</name></trkpt>
<trkpt lat="53.357678" lon="-1.849902"><ele>315</ele><time>2020-08-05T13:52:10Z</time><name>PT14944</name></trkpt>
<trkpt lat="53.357664" lon="-1.849906"><ele>315</ele><time>2020-08-05T13:52:10Z</time><name>PT14945</name></trkpt>
<trkpt lat="53.357652" lon="-1.849904"><ele>315</ele><time>2020-08-05T13:52:12Z</time><name>PT14946</name></trkpt>
<trkpt lat="53.357641" lon="-1.849900"><ele>315</ele><time>2020-08-05T13:52:13Z</time><name>PT14947</name></trkpt>
<trkpt lat="53.357629" lon="-1.849894"><ele>315</ele><time>2020-08-05T13:52:13Z</time><name>PT14948</name></trkpt>
<trkpt lat="53.357610" lon="-1.849877"><ele>315</ele><time>2020-08-05T13:52:15Z</time><name>PT14949</name></trkpt>
<trkpt lat="53.357599" lon="-1.849869"><ele>315</ele><time>2020-08-05T13:52:16Z</time><name>PT14950</name></trkpt>
<trkpt lat="53.357589" lon="-1.849856"><ele>315</ele><time>2020-08-05T13:52:16Z</time><name>PT14951</name></trkpt>
<trkpt lat="53.357581" lon="-1.849843"><ele>315</ele><time>2020-08-05T13:52:18Z</time><name>PT14952</name></trkpt>
<trkpt lat="53.357576" lon="-1.849831"><ele>315</ele><time>2020-08-05T13:52:19Z</time><name>PT14953</name></trkpt>
<trkpt lat="53.357571" lon="-1.849816"><ele>315</ele><time>2020-08-05T13:52:19Z</time><name>PT14954</name></trkpt>
<trkpt lat="53.357563" lon="-1.849802"><ele>315</ele><time>2020-08-05T13:52:21Z</time><name>PT14955</name></trkpt>
<trkpt lat="53.357555" lon="-1.849786"><ele>315</ele><time>2020-08-05T13:52:22Z</time><name>PT14956</name></trkpt>
<trkpt lat="53.357539" lon="-1.849761"><ele>316</ele><time>2020-08-05T13:52:24Z</time><name>PT14957</name></trkpt>
<trkpt lat="53.357531" lon="-1.849746"><ele>316</ele><time>2020-08-05T13:52:25Z</time><name>PT14958</name></trkpt>
<trkpt lat="53.357522" lon="-1.849735"><ele>315</ele><time>2020-08-05T13:52:25Z</time><name>PT14959</name></trkpt>
<trkpt lat="53.357512" lon="-1.849729"><ele>315</ele><time>2020-08-05T13:52:27Z</time><name>PT14960</name></trkpt>
<trkpt lat="53.357499" lon="-1.849725"><ele>315</ele><time>2020-08-05T13:52:28Z</time><name>PT14961</name></trkpt>
<trkpt lat="53.357488" lon="-1.849730"><ele>315</ele><time>2020-08-05T13:52:28Z</time><name>PT14962</name></trkpt>
<trkpt lat="53.357478" lon="-1.849734"><ele>315</ele><time>2020-08-05T13:52:30Z</time><name>PT14963</name></trkpt>
<trkpt lat="53.357467" lon="-1.849738"><ele>315</ele><time>2020-08-05T13:52:31Z</time><name>PT14964</name></trkpt>
<trkpt lat="53.357457" lon="-1.849738"><ele>315</ele><time>2020-08-05T13:52:31Z</time><name>PT14965</name></trkpt>
<trkpt lat="53.357444" lon="-1.849732"><ele>315</ele><time>2020-08-05T13:52:33Z</time><name>PT14966</name></trkpt>
<trkpt lat="53.357429" lon="-1.849725"><ele>315</ele><time>2020-08-05T13:52:34Z</time><name>PT14967</name></trkpt>
<trkpt lat="53.357418" lon="-1.849722"><ele>314</ele><time>2020-08-05T13:52:34Z</time><name>PT14968</name></trkpt>
<trkpt lat="53.357406" lon="-1.849720"><ele>314</ele><time>2020-08-05T13:52:36Z</time><name>PT14969</name></trkpt>
<trkpt lat="53.357389" lon="-1.849722"><ele>314</ele><time>2020-08-05T13:52:37Z</time><name>PT14970</name></trkpt>
<trkpt lat="53.357377" lon="-1.849722"><ele>314</ele><time>2020-08-05T13:52:37Z</time><name>PT14971</name></trkpt>
<trkpt lat="53.357367" lon="-1.849723"><ele>314</ele><time>2020-08-05T13:52:39Z</time><name>PT14972</name></trkpt>
<trkpt lat="53.357356" lon="-1.849724"><ele>315</ele><time>2020-08-05T13:52:40Z</time><name>PT14973</name></trkpt>
<trkpt lat="53.357345" lon="-1.849725"><ele>314</ele><time>2020-08-05T13:52:40Z</time><name>PT14974</name></trkpt>
<trkpt lat="53.357332" lon="-1.849722"><ele>314</ele><time>2020-08-05T13:52:42Z</time><name>PT14975</name></trkpt>
<trkpt lat="53.357321" lon="-1.849719"><ele>315</ele><time>2020-08-05T13:52:43Z</time><name>PT14976</name></trkpt>
<trkpt lat="53.357309" lon="-1.849720"><ele>315</ele><time>2020-08-05T13:52:43Z</time><name>PT14977</name></trkpt>
<trkpt lat="53.357294" lon="-1.849719"><ele>315</ele><time>2020-08-05T13:52:45Z</time><name>PT14978</name></trkpt>
<trkpt lat="53.357283" lon="-1.849722"><ele>315</ele><time>2020-08-05T13:52:46Z</time><name>PT14979</name></trkpt>
<trkpt lat="53.357269" lon="-1.849726"><ele>316</ele><time>2020-08-05T13:52:47Z</time><name>PT14980</name></trkpt>
<trkpt lat="53.357259" lon="-1.849728"><ele>316</ele><time>2020-08-05T13:52:48Z</time><name>PT14981</name></trkpt>
<trkpt lat="53.357250" lon="-1.849733"><ele>316</ele><time>2020-08-05T13:52:49Z</time><name>PT14982</name></trkpt>
<trkpt lat="53.357238" lon="-1.849737"><ele>315</ele><time>2020-08-05T13:52:49Z</time><name>PT14983</name></trkpt>
<trkpt lat="53.357228" lon="-1.849738"><ele>315</ele><time>2020-08-05T13:52:51Z</time><name>PT14984</name></trkpt>
<trkpt lat="53.357219" lon="-1.849734"><ele>315</ele><time>2020-08-05T13:52:52Z</time><name>PT14985</name></trkpt>
<trkpt lat="53.357210" lon="-1.849730"><ele>315</ele><time>2020-08-05T13:52:52Z</time><name>PT14986</name></trkpt>
<trkpt lat="53.357196" lon="-1.849720"><ele>315</ele><time>2020-08-05T13:52:54Z</time><name>PT14987</name></trkpt>
<trkpt lat="53.357185" lon="-1.849717"><ele>315</ele><time>2020-08-05T13:52:55Z</time><name>PT14988</name></trkpt>
<trkpt lat="53.357173" lon="-1.849708"><ele>315</ele><time>2020-08-05T13:52:56Z</time><name>PT14989</name></trkpt>
<trkpt lat="53.357159" lon="-1.849705"><ele>315</ele><time>2020-08-05T13:52:57Z</time><name>PT14990</name></trkpt>
<trkpt lat="53.357144" lon="-1.849704"><ele>315</ele><time>2020-08-05T13:52:58Z</time><name>PT14991</name></trkpt>
<trkpt lat="53.357125" lon="-1.849697"><ele>315</ele><time>2020-08-05T13:52:59Z</time><name>PT14992</name></trkpt>
<trkpt lat="53.357107" lon="-1.849695"><ele>315</ele><time>2020-08-05T13:53:00Z</time><name>PT14993</name></trkpt>
<trkpt lat="53.357096" lon="-1.849700"><ele>314</ele><time>2020-08-05T13:53:01Z</time><name>PT14994</name></trkpt>
<trkpt lat="53.357087" lon="-1.849702"><ele>314</ele><time>2020-08-05T13:53:02Z</time><name>PT14995</name></trkpt>
<trkpt lat="53.357075" lon="-1.849699"><ele>314</ele><time>2020-08-05T13:53:03Z</time><name>PT14996</name></trkpt>
<trkpt lat="53.357066" lon="-1.849699"><ele>314</ele><time>2020-08-05T13:53:04Z</time><name>PT14997</name></trkpt>
<trkpt lat="53.357056" lon="-1.849698"><ele>314</ele><time>2020-08-05T13:53:05Z</time><name>PT14998</name></trkpt>
<trkpt lat="53.357047" lon="-1.849699"><ele>313</ele><time>2020-08-05T13:53:06Z</time><name>PT14999</name></trkpt>
<trkpt lat="53.357037" lon="-1.849698"><ele>313</ele><time>2020-08-05T13:53:07Z</time><name>PT15000</name></trkpt>
<trkpt lat="53.357027" lon="-1.849698"><ele>313</ele><time>2020-08-05T13:53:08Z</time><name>PT15001</name></trkpt>
<trkpt lat="53.357016" lon="-1.849696"><ele>314</ele><time>2020-08-05T13:53:09Z</time><name>PT15002</name></trkpt>
<trkpt lat="53.357005" lon="-1.849698"><ele>314</ele><time>2020-08-05T13:53:10Z</time><name>PT15003</name></trkpt>
<trkpt lat="53.356996" lon="-1.849698"><ele>314</ele><time>2020-08-05T13:53:11Z</time><name>PT15004</name></trkpt>
<trkpt lat="53.356982" lon="-1.849701"><ele>314</ele><time>2020-08-05T13:53:12Z</time><name>PT15005</name></trkpt>
<trkpt lat="53.356968" lon="-1.849701"><ele>314</ele><time>2020-08-05T13:53:13Z</time><name>PT15006</name></trkpt>
<trkpt lat="53.356956" lon="-1.849700"><ele>314</ele><time>2020-08-05T13:53:14Z</time><name>PT15007</name></trkpt>
<trkpt lat="53.356945" lon="-1.849700"><ele>314</ele><time>2020-08-05T13:53:15Z</time><name>PT15008</name></trkpt>
<trkpt lat="53.356932" lon="-1.849698"><ele>313</ele><time>2020-08-05T13:53:16Z</time><name>PT15009</name></trkpt>
<trkpt lat="53.356910" lon="-1.849692"><ele>313</ele><time>2020-08-05T13:53:18Z</time><name>PT15010</name></trkpt>
<trkpt lat="53.356901" lon="-1.849692"><ele>312</ele><time>2020-08-05T13:53:19Z</time><name>PT15011</name></trkpt>
<trkpt lat="53.356889" lon="-1.849689"><ele>312</ele><time>2020-08-05T13:53:19Z</time><name>PT15012</name></trkpt>
<trkpt lat="53.356881" lon="-1.849688"><ele>312</ele><time>2020-08-05T13:53:21Z</time><name>PT15013</name></trkpt>
<trkpt lat="53.356869" lon="-1.849689"><ele>311</ele><time>2020-08-05T13:53:22Z</time><name>PT15014</name></trkpt>
<trkpt lat="53.356858" lon="-1.849688"><ele>311</ele><time>2020-08-05T13:53:22Z</time><name>PT15015</name></trkpt>
<trkpt lat="53.356846" lon="-1.849682"><ele>311</ele><time>2020-08-05T13:53:24Z</time><name>PT15016</name></trkpt>
<trkpt lat="53.356831" lon="-1.849668"><ele>311</ele><time>2020-08-05T13:53:25Z</time><name>PT15017</name></trkpt>
<trkpt lat="53.356822" lon="-1.849661"><ele>311</ele><time>2020-08-05T13:53:25Z</time><name>PT15018</name></trkpt>
<trkpt lat="53.356812" lon="-1.849654"><ele>310</ele><time>2020-08-05T13:53:27Z</time><name>PT15019</name></trkpt>
<trkpt lat="53.356806" lon="-1.849648"><ele>311</ele><time>2020-08-05T13:53:28Z</time><name>PT15020</name></trkpt>
<trkpt lat="53.356798" lon="-1.849635"><ele>311</ele><time>2020-08-05T13:53:28Z</time><name>PT15021</name></trkpt>
<trkpt lat="53.356792" lon="-1.849625"><ele>310</ele><time>2020-08-05T13:53:30Z</time><name>PT15022</name></trkpt>
<trkpt lat="53.356785" lon="-1.849611"><ele>310</ele><time>2020-08-05T13:53:31Z</time><name>PT15023</name></trkpt>
<trkpt lat="53.356778" lon="-1.849595"><ele>310</ele><time>2020-08-05T13:53:31Z</time><name>PT15024</name></trkpt>
<trkpt lat="53.356773" lon="-1.849579"><ele>310</ele><time>2020-08-05T13:53:33Z</time><name>PT15025</name></trkpt>
<trkpt lat="53.356767" lon="-1.849563"><ele>309</ele><time>2020-08-05T13:53:34Z</time><name>PT15026</name></trkpt>
<trkpt lat="53.356761" lon="-1.849552"><ele>309</ele><time>2020-08-05T13:53:34Z</time><name>PT15027</name></trkpt>
<trkpt lat="53.356754" lon="-1.849542"><ele>309</ele><time>2020-08-05T13:53:36Z</time><name>PT15028</name></trkpt>
<trkpt lat="53.356748" lon="-1.849530"><ele>309</ele><time>2020-08-05T13:53:37Z</time><name>PT15029</name></trkpt>
<trkpt lat="53.356740" lon="-1.849518"><ele>308</ele><time>2020-08-05T13:53:37Z</time><name>PT15030</name></trkpt>
<trkpt lat="53.356736" lon="-1.849508"><ele>308</ele><time>2020-08-05T13:53:39Z</time><name>PT15031</name></trkpt>
<trkpt lat="53.356728" lon="-1.849499"><ele>308</ele><time>2020-08-05T13:53:40Z</time><name>PT15032</name></trkpt>
<trkpt lat="53.356715" lon="-1.849491"><ele>308</ele><time>2020-08-05T13:53:40Z</time><name>PT15033</name></trkpt>
<trkpt lat="53.356705" lon="-1.849486"><ele>308</ele><time>2020-08-05T13:53:42Z</time><name>PT15034</name></trkpt>
<trkpt lat="53.356697" lon="-1.849483"><ele>308</ele><time>2020-08-05T13:53:43Z</time><name>PT15035</name></trkpt>
<trkpt lat="53.356688" lon="-1.849485"><ele>308</ele><time>2020-08-05T13:53:43Z</time><name>PT15036</name></trkpt>
<trkpt lat="53.356677" lon="-1.849489"><ele>308</ele><time>2020-08-05T13:53:45Z</time><name>PT15037</name></trkpt>
<trkpt lat="53.356666" lon="-1.849488"><ele>308</ele><time>2020-08-05T13:53:46Z</time><name>PT15038</name></trkpt>
<trkpt lat="53.356654" lon="-1.849486"><ele>308</ele><time>2020-08-05T13:53:46Z</time><name>PT15039</name></trkpt>
<trkpt lat="53.356642" lon="-1.849484"><ele>308</ele><time>2020-08-05T13:53:48Z</time><name>PT15040</name></trkpt>
<trkpt lat="53.356622" lon="-1.849489"><ele>309</ele><time>2020-08-05T13:53:49Z</time><name>PT15041</name></trkpt>
<trkpt lat="53.356610" lon="-1.849494"><ele>309</ele><time>2020-08-05T13:53:51Z</time><name>PT15042</name></trkpt>
<trkpt lat="53.356597" lon="-1.849491"><ele>310</ele><time>2020-08-05T13:53:52Z</time><name>PT15043</name></trkpt>
<trkpt lat="53.356584" lon="-1.849493"><ele>309</ele><time>2020-08-05T13:53:52Z</time><name>PT15044</name></trkpt>
<trkpt lat="53.356573" lon="-1.849498"><ele>309</ele><time>2020-08-05T13:53:54Z</time><name>PT15045</name></trkpt>
<trkpt lat="53.356567" lon="-1.849507"><ele>309</ele><time>2020-08-05T13:53:55Z</time><name>PT15046</name></trkpt>
<trkpt lat="53.356555" lon="-1.849515"><ele>309</ele><time>2020-08-05T13:53:55Z</time><name>PT15047</name></trkpt>
<trkpt lat="53.356543" lon="-1.849523"><ele>309</ele><time>2020-08-05T13:53:57Z</time><name>PT15048</name></trkpt>
<trkpt lat="53.356532" lon="-1.849528"><ele>309</ele><time>2020-08-05T13:53:58Z</time><name>PT15049</name></trkpt>
<trkpt lat="53.356519" lon="-1.849532"><ele>309</ele><time>2020-08-05T13:53:58Z</time><name>PT15050</name></trkpt>
<trkpt lat="53.356505" lon="-1.849533"><ele>309</ele><time>2020-08-05T13:54:00Z</time><name>PT15051</name></trkpt>
<trkpt lat="53.356492" lon="-1.849535"><ele>309</ele><time>2020-08-05T13:54:01Z</time><name>PT15052</name></trkpt>
<trkpt lat="53.356481" lon="-1.849538"><ele>309</ele><time>2020-08-05T13:54:01Z</time><name>PT15053</name></trkpt>
<trkpt lat="53.356470" lon="-1.849543"><ele>309</ele><time>2020-08-05T13:54:03Z</time><name>PT15054</name></trkpt>
<trkpt lat="53.356458" lon="-1.849547"><ele>309</ele><time>2020-08-05T13:54:04Z</time><name>PT15055</name></trkpt>
<trkpt lat="53.356443" lon="-1.849545"><ele>309</ele><time>2020-08-05T13:54:04Z</time><name>PT15056</name></trkpt>
<trkpt lat="53.356432" lon="-1.849544"><ele>309</ele><time>2020-08-05T13:54:06Z</time><name>PT15057</name></trkpt>
<trkpt lat="53.356422" lon="-1.849545"><ele>309</ele><time>2020-08-05T13:54:07Z</time><name>PT15058</name></trkpt>
<trkpt lat="53.356412" lon="-1.849549"><ele>309</ele><time>2020-08-05T13:54:08Z</time><name>PT15059</name></trkpt>
<trkpt lat="53.356400" lon="-1.849551"><ele>309</ele><time>2020-08-05T13:54:09Z</time><name>PT15060</name></trkpt>
<trkpt lat="53.356388" lon="-1.849553"><ele>309</ele><time>2020-08-05T13:54:10Z</time><name>PT15061</name></trkpt>
<trkpt lat="53.356378" lon="-1.849553"><ele>309</ele><time>2020-08-05T13:54:10Z</time><name>PT15062</name></trkpt>
<trkpt lat="53.356368" lon="-1.849558"><ele>309</ele><time>2020-08-05T13:54:12Z</time><name>PT15063</name></trkpt>
<trkpt lat="53.356357" lon="-1.849570"><ele>309</ele><time>2020-08-05T13:54:13Z</time><name>PT15064</name></trkpt>
<trkpt lat="53.356351" lon="-1.849580"><ele>310</ele><time>2020-08-05T13:54:14Z</time><name>PT15065</name></trkpt>
<trkpt lat="53.356340" lon="-1.849582"><ele>310</ele><time>2020-08-05T13:54:15Z</time><name>PT15066</name></trkpt>
<trkpt lat="53.356331" lon="-1.849582"><ele>310</ele><time>2020-08-05T13:54:16Z</time><name>PT15067</name></trkpt>
<trkpt lat="53.356325" lon="-1.849584"><ele>310</ele><time>2020-08-05T13:54:17Z</time><name>PT15068</name></trkpt>
<trkpt lat="53.356321" lon="-1.849587"><ele>310</ele><time>2020-08-05T13:54:18Z</time><name>PT15069</name></trkpt>
<trkpt lat="53.356311" lon="-1.849588"><ele>310</ele><time>2020-08-05T13:54:19Z</time><name>PT15070</name></trkpt>
<trkpt lat="53.356298" lon="-1.849590"><ele>310</ele><time>2020-08-05T13:54:20Z</time><name>PT15071</name></trkpt>
<trkpt lat="53.356284" lon="-1.849587"><ele>310</ele><time>2020-08-05T13:54:21Z</time><name>PT15072</name></trkpt>
<trkpt lat="53.356260" lon="-1.849593"><ele>308</ele><time>2020-08-05T13:54:22Z</time><name>PT15073</name></trkpt>
<trkpt lat="53.356250" lon="-1.849598"><ele>308</ele><time>2020-08-05T13:54:24Z</time><name>PT15074</name></trkpt>
<trkpt lat="53.356241" lon="-1.849605"><ele>309</ele><time>2020-08-05T13:54:25Z</time><name>PT15075</name></trkpt>
<trkpt lat="53.356231" lon="-1.849614"><ele>309</ele><time>2020-08-05T13:54:25Z</time><name>PT15076</name></trkpt>
<trkpt lat="53.356217" lon="-1.849625"><ele>308</ele><time>2020-08-05T13:54:27Z</time><name>PT15077</name></trkpt>
<trkpt lat="53.356201" lon="-1.849632"><ele>309</ele><time>2020-08-05T13:54:28Z</time><name>PT15078</name></trkpt>
<trkpt lat="53.356188" lon="-1.849638"><ele>310</ele><time>2020-08-05T13:54:28Z</time><name>PT15079</name></trkpt>
<trkpt lat="53.356176" lon="-1.849643"><ele>308</ele><time>2020-08-05T13:54:30Z</time><name>PT15080</name></trkpt>
<trkpt lat="53.356166" lon="-1.849650"><ele>308</ele><time>2020-08-05T13:54:31Z</time><name>PT15081</name></trkpt>
<trkpt lat="53.356156" lon="-1.849658"><ele>308</ele><time>2020-08-05T13:54:31Z</time><name>PT15082</name></trkpt>
<trkpt lat="53.356149" lon="-1.849663"><ele>308</ele><time>2020-08-05T13:54:33Z</time><name>PT15083</name></trkpt>
<trkpt lat="53.356142" lon="-1.849666"><ele>308</ele><time>2020-08-05T13:54:34Z</time><name>PT15084</name></trkpt>
<trkpt lat="53.356129" lon="-1.849668"><ele>308</ele><time>2020-08-05T13:54:34Z</time><name>PT15085</name></trkpt>
<trkpt lat="53.356115" lon="-1.849674"><ele>308</ele><time>2020-08-05T13:54:36Z</time><name>PT15086</name></trkpt>
<trkpt lat="53.356104" lon="-1.849680"><ele>308</ele><time>2020-08-05T13:54:37Z</time><name>PT15087</name></trkpt>
<trkpt lat="53.356092" lon="-1.849683"><ele>309</ele><time>2020-08-05T13:54:37Z</time><name>PT15088</name></trkpt>
<trkpt lat="53.356080" lon="-1.849686"><ele>309</ele><time>2020-08-05T13:54:39Z</time><name>PT15089</name></trkpt>
<trkpt lat="53.356065" lon="-1.849691"><ele>309</ele><time>2020-08-05T13:54:40Z</time><name>PT15090</name></trkpt>
<trkpt lat="53.356053" lon="-1.849696"><ele>310</ele><time>2020-08-05T13:54:40Z</time><name>PT15091</name></trkpt>
<trkpt lat="53.356045" lon="-1.849705"><ele>310</ele><time>2020-08-05T13:54:42Z</time><name>PT15092</name></trkpt>
<trkpt lat="53.356035" lon="-1.849710"><ele>310</ele><time>2020-08-05T13:54:43Z</time><name>PT15093</name></trkpt>
<trkpt lat="53.356022" lon="-1.849713"><ele>310</ele><time>2020-08-05T13:54:43Z</time><name>PT15094</name></trkpt>
<trkpt lat="53.356009" lon="-1.849717"><ele>311</ele><time>2020-08-05T13:54:45Z</time><name>PT15095</name></trkpt>
<trkpt lat="53.355997" lon="-1.849719"><ele>311</ele><time>2020-08-05T13:54:46Z</time><name>PT15096</name></trkpt>
<trkpt lat="53.355986" lon="-1.849722"><ele>311</ele><time>2020-08-05T13:54:47Z</time><name>PT15097</name></trkpt>
<trkpt lat="53.355959" lon="-1.849717"><ele>310</ele><time>2020-08-05T13:54:49Z</time><name>PT15098</name></trkpt>
<trkpt lat="53.355947" lon="-1.849718"><ele>310</ele><time>2020-08-05T13:54:50Z</time><name>PT15099</name></trkpt>
<trkpt lat="53.355932" lon="-1.849713"><ele>310</ele><time>2020-08-05T13:54:51Z</time><name>PT15100</name></trkpt>
<trkpt lat="53.355920" lon="-1.849711"><ele>311</ele><time>2020-08-05T13:54:52Z</time><name>PT15101</name></trkpt>
<trkpt lat="53.355905" lon="-1.849711"><ele>311</ele><time>2020-08-05T13:54:52Z</time><name>PT15102</name></trkpt>
<trkpt lat="53.355894" lon="-1.849712"><ele>311</ele><time>2020-08-05T13:54:54Z</time><name>PT15103</name></trkpt>
<trkpt lat="53.355880" lon="-1.849716"><ele>311</ele><time>2020-08-05T13:54:55Z</time><name>PT15104</name></trkpt>
<trkpt lat="53.355866" lon="-1.849720"><ele>311</ele><time>2020-08-05T13:54:55Z</time><name>PT15105</name></trkpt>
<trkpt lat="53.355851" lon="-1.849719"><ele>311</ele><time>2020-08-05T13:54:57Z</time><name>PT15106</name></trkpt>
<trkpt lat="53.355837" lon="-1.849719"><ele>311</ele><time>2020-08-05T13:54:58Z</time><name>PT15107</name></trkpt>
<trkpt lat="53.355824" lon="-1.849718"><ele>311</ele><time>2020-08-05T13:54:58Z</time><name>PT15108</name></trkpt>
<trkpt lat="53.355811" lon="-1.849717"><ele>311</ele><time>2020-08-05T13:55:00Z</time><name>PT15109</name></trkpt>
<trkpt lat="53.355800" lon="-1.849719"><ele>311</ele><time>2020-08-05T13:55:01Z</time><name>PT15110</name></trkpt>
<trkpt lat="53.355789" lon="-1.849721"><ele>311</ele><time>2020-08-05T13:55:01Z</time><name>PT15111</name></trkpt>
<trkpt lat="53.355777" lon="-1.849724"><ele>311</ele><time>2020-08-05T13:55:03Z</time><name>PT15112</name></trkpt>
<trkpt lat="53.355765" lon="-1.849723"><ele>312</ele><time>2020-08-05T13:55:04Z</time><name>PT15113</name></trkpt>
<trkpt lat="53.355752" lon="-1.849719"><ele>312</ele><time>2020-08-05T13:55:04Z</time><name>PT15114</name></trkpt>
<trkpt lat="53.355743" lon="-1.849720"><ele>312</ele><time>2020-08-05T13:55:06Z</time><name>PT15115</name></trkpt>
<trkpt lat="53.355730" lon="-1.849719"><ele>312</ele><time>2020-08-05T13:55:07Z</time><name>PT15116</name></trkpt>
<trkpt lat="53.355719" lon="-1.849724"><ele>312</ele><time>2020-08-05T13:55:07Z</time><name>PT15117</name></trkpt>
<trkpt lat="53.355708" lon="-1.849725"><ele>312</ele><time>2020-08-05T13:55:09Z</time><name>PT15118</name></trkpt>
<trkpt lat="53.355683" lon="-1.849726"><ele>313</ele><time>2020-08-05T13:55:10Z</time><name>PT15119</name></trkpt>
<trkpt lat="53.355670" lon="-1.849729"><ele>313</ele><time>2020-08-05T13:55:12Z</time><name>PT15120</name></trkpt>
<trkpt lat="53.355659" lon="-1.849732"><ele>313</ele><time>2020-08-05T13:55:13Z</time><name>PT15121</name></trkpt>
<trkpt lat="53.355649" lon="-1.849736"><ele>313</ele><time>2020-08-05T13:55:13Z</time><name>PT15122</name></trkpt>
<trkpt lat="53.355637" lon="-1.849741"><ele>314</ele><time>2020-08-05T13:55:15Z</time><name>PT15123</name></trkpt>
<trkpt lat="53.355625" lon="-1.849741"><ele>313</ele><time>2020-08-05T13:55:16Z</time><name>PT15124</name></trkpt>
<trkpt lat="53.355612" lon="-1.849739"><ele>313</ele><time>2020-08-05T13:55:16Z</time><name>PT15125</name></trkpt>
<trkpt lat="53.355598" lon="-1.849740"><ele>313</ele><time>2020-08-05T13:55:18Z</time><name>PT15126</name></trkpt>
<trkpt lat="53.355586" lon="-1.849740"><ele>312</ele><time>2020-08-05T13:55:19Z</time><name>PT15127</name></trkpt>
<trkpt lat="53.355577" lon="-1.849741"><ele>313</ele><time>2020-08-05T13:55:19Z</time><name>PT15128</name></trkpt>
<trkpt lat="53.355567" lon="-1.849746"><ele>313</ele><time>2020-08-05T13:55:21Z</time><name>PT15129</name></trkpt>
<trkpt lat="53.355556" lon="-1.849750"><ele>313</ele><time>2020-08-05T13:55:22Z</time><name>PT15130</name></trkpt>
<trkpt lat="53.355545" lon="-1.849752"><ele>313</ele><time>2020-08-05T13:55:22Z</time><name>PT15131</name></trkpt>
<trkpt lat="53.355532" lon="-1.849752"><ele>313</ele><time>2020-08-05T13:55:24Z</time><name>PT15132</name></trkpt>
<trkpt lat="53.355520" lon="-1.849752"><ele>313</ele><time>2020-08-05T13:55:25Z</time><name>PT15133</name></trkpt>
<trkpt lat="53.355508" lon="-1.849753"><ele>313</ele><time>2020-08-05T13:55:25Z</time><name>PT15134</name></trkpt>
<trkpt lat="53.355501" lon="-1.849755"><ele>314</ele><time>2020-08-05T13:55:27Z</time><name>PT15135</name></trkpt>
<trkpt lat="53.355489" lon="-1.849753"><ele>314</ele><time>2020-08-05T13:55:28Z</time><name>PT15136</name></trkpt>
<trkpt lat="53.355477" lon="-1.849753"><ele>314</ele><time>2020-08-05T13:55:28Z</time><name>PT15137</name></trkpt>
<trkpt lat="53.355461" lon="-1.849753"><ele>313</ele><time>2020-08-05T13:55:30Z</time><name>PT15138</name></trkpt>
<trkpt lat="53.355448" lon="-1.849753"><ele>313</ele><time>2020-08-05T13:55:31Z</time><name>PT15139</name></trkpt>
<trkpt lat="53.355435" lon="-1.849755"><ele>312</ele><time>2020-08-05T13:55:32Z</time><name>PT15140</name></trkpt>
<trkpt lat="53.355424" lon="-1.849758"><ele>312</ele><time>2020-08-05T13:55:33Z</time><name>PT15141</name></trkpt>
<trkpt lat="53.355412" lon="-1.849761"><ele>312</ele><time>2020-08-05T13:55:34Z</time><name>PT15142</name></trkpt>
<trkpt lat="53.355400" lon="-1.849761"><ele>312</ele><time>2020-08-05T13:55:35Z</time><name>PT15143</name></trkpt>
<trkpt lat="53.355391" lon="-1.849761"><ele>313</ele><time>2020-08-05T13:55:36Z</time><name>PT15144</name></trkpt>
<trkpt lat="53.355385" lon="-1.849765"><ele>313</ele><time>2020-08-05T13:55:37Z</time><name>PT15145</name></trkpt>
<trkpt lat="53.355383" lon="-1.849763"><ele>313</ele><time>2020-08-05T13:55:38Z</time><name>PT15146</name></trkpt>
<trkpt lat="53.355382" lon="-1.849762"><ele>312</ele><time>2020-08-05T13:55:39Z</time><name>PT15147</name></trkpt>
<trkpt lat="53.355378" lon="-1.849758"><ele>313</ele><time>2020-08-05T13:55:40Z</time><name>PT15148</name></trkpt>
<trkpt lat="53.355375" lon="-1.849754"><ele>312</ele><time>2020-08-05T13:55:41Z</time><name>PT15149</name></trkpt>
<trkpt lat="53.355369" lon="-1.849741"><ele>312</ele><time>2020-08-05T13:55:42Z</time><name>PT15150</name></trkpt>
<trkpt lat="53.355366" lon="-1.849725"><ele>312</ele><time>2020-08-05T13:55:43Z</time><name>PT15151</name></trkpt>
<trkpt lat="53.355363" lon="-1.849708"><ele>312</ele><time>2020-08-05T13:55:43Z</time><name>PT15152</name></trkpt>
<trkpt lat="53.355361" lon="-1.849692"><ele>312</ele><time>2020-08-05T13:55:45Z</time><name>PT15153</name></trkpt>
<trkpt lat="53.355361" lon="-1.849681"><ele>312</ele><time>2020-08-05T13:55:46Z</time><name>PT15154</name></trkpt>
<trkpt lat="53.355360" lon="-1.849672"><ele>312</ele><time>2020-08-05T13:55:47Z</time><name>PT15155</name></trkpt>
<trkpt lat="53.355359" lon="-1.849659"><ele>312</ele><time>2020-08-05T13:55:48Z</time><name>PT15156</name></trkpt>
<trkpt lat="53.355354" lon="-1.849647"><ele>311</ele><time>2020-08-05T13:55:49Z</time><name>PT15157</name></trkpt>
<trkpt lat="53.355352" lon="-1.849616"><ele>310</ele><time>2020-08-05T13:55:51Z</time><name>PT15158</name></trkpt>
<trkpt lat="53.355353" lon="-1.849606"><ele>310</ele><time>2020-08-05T13:55:52Z</time><name>PT15159</name></trkpt>
<trkpt lat="53.355354" lon="-1.849597"><ele>310</ele><time>2020-08-05T13:55:52Z</time><name>PT15160</name></trkpt>
<trkpt lat="53.355356" lon="-1.849572"><ele>310</ele><time>2020-08-05T13:55:54Z</time><name>PT15161</name></trkpt>
<trkpt lat="53.355355" lon="-1.849549"><ele>310</ele><time>2020-08-05T13:55:55Z</time><name>PT15162</name></trkpt>
<trkpt lat="53.355354" lon="-1.849529"><ele>311</ele><time>2020-08-05T13:55:55Z</time><name>PT15163</name></trkpt>
<trkpt lat="53.355355" lon="-1.849513"><ele>311</ele><time>2020-08-05T13:55:57Z</time><name>PT15164</name></trkpt>
<trkpt lat="53.355355" lon="-1.849499"><ele>311</ele><time>2020-08-05T13:55:58Z</time><name>PT15165</name></trkpt>
<trkpt lat="53.355358" lon="-1.849488"><ele>312</ele><time>2020-08-05T13:55:58Z</time><name>PT15166</name></trkpt>
<trkpt lat="53.355363" lon="-1.849466"><ele>312</ele><time>2020-08-05T13:56:00Z</time><name>PT15167</name></trkpt>
<trkpt lat="53.355364" lon="-1.849459"><ele>311</ele><time>2020-08-05T13:56:01Z</time><name>PT15168</name></trkpt>
<trkpt lat="53.355364" lon="-1.849437"><ele>309</ele><time>2020-08-05T13:56:03Z</time><name>PT15169</name></trkpt>
<trkpt lat="53.355366" lon="-1.849424"><ele>309</ele><time>2020-08-05T13:56:04Z</time><name>PT15170</name></trkpt>
<trkpt lat="53.355364" lon="-1.849408"><ele>308</ele><time>2020-08-05T13:56:04Z</time><name>PT15171</name></trkpt>
<trkpt lat="53.355367" lon="-1.849389"><ele>307</ele><time>2020-08-05T13:56:06Z</time><name>PT15172</name></trkpt>
<trkpt lat="53.355365" lon="-1.849368"><ele>307</ele><time>2020-08-05T13:56:07Z</time><name>PT15173</name></trkpt>
<trkpt lat="53.355361" lon="-1.849363"><ele>306</ele><time>2020-08-05T13:56:08Z</time><name>PT15174</name></trkpt>
<trkpt lat="53.355355" lon="-1.849361"><ele>306</ele><time>2020-08-05T13:56:09Z</time><name>PT15175</name></trkpt>
<trkpt lat="53.355347" lon="-1.849352"><ele>306</ele><time>2020-08-05T13:56:10Z</time><name>PT15176</name></trkpt>
<trkpt lat="53.355340" lon="-1.849344"><ele>306</ele><time>2020-08-05T13:56:11Z</time><name>PT15177</name></trkpt>
<trkpt lat="53.355332" lon="-1.849340"><ele>305</ele><time>2020-08-05T13:56:12Z</time><name>PT15178</name></trkpt>
<trkpt lat="53.355319" lon="-1.849334"><ele>306</ele><time>2020-08-05T13:56:13Z</time><name>PT15179</name></trkpt>
<trkpt lat="53.355309" lon="-1.849327"><ele>306</ele><time>2020-08-05T13:56:14Z</time><name>PT15180</name></trkpt>
<trkpt lat="53.355299" lon="-1.849328"><ele>305</ele><time>2020-08-05T13:56:15Z</time><name>PT15181</name></trkpt>
<trkpt lat="53.355293" lon="-1.849331"><ele>305</ele><time>2020-08-05T13:56:16Z</time><name>PT15182</name></trkpt>
<trkpt lat="53.355287" lon="-1.849338"><ele>305</ele><time>2020-08-05T13:56:16Z</time><name>PT15183</name></trkpt>
<trkpt lat="53.355278" lon="-1.849344"><ele>305</ele><time>2020-08-05T13:56:18Z</time><name>PT15184</name></trkpt>
<trkpt lat="53.355268" lon="-1.849336"><ele>306</ele><time>2020-08-05T13:56:19Z</time><name>PT15185</name></trkpt>
<trkpt lat="53.355257" lon="-1.849332"><ele>306</ele><time>2020-08-05T13:56:19Z</time><name>PT15186</name></trkpt>
<trkpt lat="53.355242" lon="-1.849325"><ele>306</ele><time>2020-08-05T13:56:21Z</time><name>PT15187</name></trkpt>
<trkpt lat="53.355239" lon="-1.849311"><ele>308</ele><time>2020-08-05T13:56:22Z</time><name>PT15188</name></trkpt>
<trkpt lat="53.355231" lon="-1.849307"><ele>309</ele><time>2020-08-05T13:56:22Z</time><name>PT15189</name></trkpt>
<trkpt lat="53.355221" lon="-1.849300"><ele>309</ele><time>2020-08-05T13:56:24Z</time><name>PT15190</name></trkpt>
<trkpt lat="53.355200" lon="-1.849287"><ele>309</ele><time>2020-08-05T13:56:25Z</time><name>PT15191</name></trkpt>
<trkpt lat="53.355191" lon="-1.849288"><ele>308</ele><time>2020-08-05T13:56:27Z</time><name>PT15192</name></trkpt>
<trkpt lat="53.355182" lon="-1.849289"><ele>308</ele><time>2020-08-05T13:56:28Z</time><name>PT15193</name></trkpt>
<trkpt lat="53.355175" lon="-1.849291"><ele>307</ele><time>2020-08-05T13:56:28Z</time><name>PT15194</name></trkpt>
<trkpt lat="53.355162" lon="-1.849290"><ele>307</ele><time>2020-08-05T13:56:30Z</time><name>PT15195</name></trkpt>
<trkpt lat="53.355150" lon="-1.849276"><ele>307</ele><time>2020-08-05T13:56:31Z</time><name>PT15196</name></trkpt>
<trkpt lat="53.355144" lon="-1.849269"><ele>306</ele><time>2020-08-05T13:56:31Z</time><name>PT15197</name></trkpt>
<trkpt lat="53.355138" lon="-1.849264"><ele>304</ele><time>2020-08-05T13:56:33Z</time><name>PT15198</name></trkpt>
<trkpt lat="53.355131" lon="-1.849258"><ele>303</ele><time>2020-08-05T13:56:34Z</time><name>PT15199</name></trkpt>
<trkpt lat="53.355122" lon="-1.849245"><ele>303</ele><time>2020-08-05T13:56:34Z</time><name>PT15200</name></trkpt>
<trkpt lat="53.355116" lon="-1.849228"><ele>303</ele><time>2020-08-05T13:56:36Z</time><name>PT15201</name></trkpt>
<trkpt lat="53.355111" lon="-1.849213"><ele>303</ele><time>2020-08-05T13:56:37Z</time><name>PT15202</name></trkpt>
<trkpt lat="53.355105" lon="-1.849195"><ele>303</ele><time>2020-08-05T13:56:37Z</time><name>PT15203</name></trkpt>
<trkpt lat="53.355099" lon="-1.849185"><ele>302</ele><time>2020-08-05T13:56:39Z</time><name>PT15204</name></trkpt>
<trkpt lat="53.355096" lon="-1.849173"><ele>303</ele><time>2020-08-05T13:56:40Z</time><name>PT15205</name></trkpt>
<trkpt lat="53.355093" lon="-1.849170"><ele>303</ele><time>2020-08-05T13:56:40Z</time><name>PT15206</name></trkpt>
<trkpt lat="53.355091" lon="-1.849167"><ele>303</ele><time>2020-08-05T13:56:43Z</time><name>PT15207</name></trkpt>
<trkpt lat="53.355088" lon="-1.849159"><ele>304</ele><time>2020-08-05T13:56:45Z</time><name>PT15208</name></trkpt>
<trkpt lat="53.355086" lon="-1.849153"><ele>304</ele><time>2020-08-05T13:56:46Z</time><name>PT15209</name></trkpt>
<trkpt lat="53.355086" lon="-1.849150"><ele>304</ele><time>2020-08-05T13:56:46Z</time><name>PT15210</name></trkpt>
<trkpt lat="53.355083" lon="-1.849146"><ele>305</ele><time>2020-08-05T13:56:48Z</time><name>PT15211</name></trkpt>
<trkpt lat="53.355082" lon="-1.849134"><ele>306</ele><time>2020-08-05T13:56:49Z</time><name>PT15212</name></trkpt>
<trkpt lat="53.355081" lon="-1.849119"><ele>307</ele><time>2020-08-05T13:56:49Z</time><name>PT15213</name></trkpt>
<trkpt lat="53.355075" lon="-1.849102"><ele>307</ele><time>2020-08-05T13:56:51Z</time><name>PT15214</name></trkpt>
<trkpt lat="53.355073" lon="-1.849086"><ele>307</ele><time>2020-08-05T13:56:52Z</time><name>PT15215</name></trkpt>
<trkpt lat="53.355069" lon="-1.849072"><ele>307</ele><time>2020-08-05T13:56:52Z</time><name>PT15216</name></trkpt>
<trkpt lat="53.355063" lon="-1.849059"><ele>306</ele><time>2020-08-05T13:56:54Z</time><name>PT15217</name></trkpt>
<trkpt lat="53.355065" lon="-1.849043"><ele>305</ele><time>2020-08-05T13:56:55Z</time><name>PT15218</name></trkpt>
<trkpt lat="53.355063" lon="-1.849029"><ele>305</ele><time>2020-08-05T13:56:55Z</time><name>PT15219</name></trkpt>
<trkpt lat="53.355058" lon="-1.849015"><ele>303</ele><time>2020-08-05T13:56:57Z</time><name>PT15220</name></trkpt>
<trkpt lat="53.355046" lon="-1.848983"><ele>305</ele><time>2020-08-05T13:56:58Z</time><name>PT15221</name></trkpt>
<trkpt lat="53.355041" lon="-1.848964"><ele>305</ele><time>2020-08-05T13:57:00Z</time><name>PT15222</name></trkpt>
<trkpt lat="53.355040" lon="-1.848949"><ele>306</ele><time>2020-08-05T13:57:01Z</time><name>PT15223</name></trkpt>
<trkpt lat="53.355038" lon="-1.848929"><ele>307</ele><time>2020-08-05T13:57:01Z</time><name>PT15224</name></trkpt>
<trkpt lat="53.355033" lon="-1.848916"><ele>307</ele><time>2020-08-05T13:57:03Z</time><name>PT15225</name></trkpt>
<trkpt lat="53.355030" lon="-1.848904"><ele>307</ele><time>2020-08-05T13:57:04Z</time><name>PT15226</name></trkpt>
<trkpt lat="53.355029" lon="-1.848895"><ele>307</ele><time>2020-08-05T13:57:04Z</time><name>PT15227</name></trkpt>
<trkpt lat="53.355026" lon="-1.848882"><ele>307</ele><time>2020-08-05T13:57:06Z</time><name>PT15228</name></trkpt>
<trkpt lat="53.355017" lon="-1.848872"><ele>305</ele><time>2020-08-05T13:57:07Z</time><name>PT15229</name></trkpt>
<trkpt lat="53.355018" lon="-1.848859"><ele>306</ele><time>2020-08-05T13:57:07Z</time><name>PT15230</name></trkpt>
<trkpt lat="53.355016" lon="-1.848848"><ele>306</ele><time>2020-08-05T13:57:09Z</time><name>PT15231</name></trkpt>
<trkpt lat="53.355010" lon="-1.848833"><ele>306</ele><time>2020-08-05T13:57:10Z</time><name>PT15232</name></trkpt>
<trkpt lat="53.355006" lon="-1.848823"><ele>306</ele><time>2020-08-05T13:57:10Z</time><name>PT15233</name></trkpt>
<trkpt lat="53.354997" lon="-1.848808"><ele>306</ele><time>2020-08-05T13:57:12Z</time><name>PT15234</name></trkpt>
<trkpt lat="53.354991" lon="-1.848790"><ele>306</ele><time>2020-08-05T13:57:13Z</time><name>PT15235</name></trkpt>
<trkpt lat="53.354984" lon="-1.848779"><ele>306</ele><time>2020-08-05T13:57:14Z</time><name>PT15236</name></trkpt>
<trkpt lat="53.354985" lon="-1.848778"><ele>307</ele><time>2020-08-05T13:57:15Z</time><name>PT15237</name></trkpt>
<trkpt lat="53.354984" lon="-1.848775"><ele>306</ele><time>2020-08-05T13:57:16Z</time><name>PT15238</name></trkpt>
<trkpt lat="53.354984" lon="-1.848770"><ele>306</ele><time>2020-08-05T13:57:17Z</time><name>PT15239</name></trkpt>
<trkpt lat="53.354984" lon="-1.848765"><ele>307</ele><time>2020-08-05T13:57:18Z</time><name>PT15240</name></trkpt>
<trkpt lat="53.354983" lon="-1.848762"><ele>307</ele><time>2020-08-05T13:57:19Z</time><name>PT15241</name></trkpt>
<trkpt lat="53.354983" lon="-1.848760"><ele>306</ele><time>2020-08-05T13:57:19Z</time><name>PT15242</name></trkpt>
<trkpt lat="53.354980" lon="-1.848760"><ele>307</ele><time>2020-08-05T13:57:21Z</time><name>PT15243</name></trkpt>
<trkpt lat="53.354977" lon="-1.848759"><ele>306</ele><time>2020-08-05T13:57:22Z</time><name>PT15244</name></trkpt>
<trkpt lat="53.354978" lon="-1.848758"><ele>307</ele><time>2020-08-05T13:57:22Z</time><name>PT15245</name></trkpt>
<trkpt lat="53.354978" lon="-1.848745"><ele>307</ele><time>2020-08-05T13:57:28Z</time><name>PT15246</name></trkpt>
<trkpt lat="53.354967" lon="-1.848729"><ele>307</ele><time>2020-08-05T13:57:28Z</time><name>PT15247</name></trkpt>
<trkpt lat="53.354960" lon="-1.848722"><ele>307</ele><time>2020-08-05T13:57:30Z</time><name>PT15248</name></trkpt>
<trkpt lat="53.354960" lon="-1.848713"><ele>307</ele><time>2020-08-05T13:57:31Z</time><name>PT15249</name></trkpt>
<trkpt lat="53.354957" lon="-1.848708"><ele>307</ele><time>2020-08-05T13:57:31Z</time><name>PT15250</name></trkpt>
<trkpt lat="53.354956" lon="-1.848702"><ele>307</ele><time>2020-08-05T13:57:33Z</time><name>PT15251</name></trkpt>
<trkpt lat="53.354960" lon="-1.848693"><ele>306</ele><time>2020-08-05T13:57:34Z</time><name>PT15252</name></trkpt>
<trkpt lat="53.354963" lon="-1.848674"><ele>305</ele><time>2020-08-05T13:57:36Z</time><name>PT15253</name></trkpt>
<trkpt lat="53.354962" lon="-1.848652"><ele>305</ele><time>2020-08-05T13:57:37Z</time><name>PT15254</name></trkpt>
<trkpt lat="53.354958" lon="-1.848631"><ele>305</ele><time>2020-08-05T13:57:37Z</time><name>PT15255</name></trkpt>
<trkpt lat="53.354952" lon="-1.848613"><ele>306</ele><time>2020-08-05T13:57:39Z</time><name>PT15256</name></trkpt>
<trkpt lat="53.354952" lon="-1.848593"><ele>306</ele><time>2020-08-05T13:57:40Z</time><name>PT15257</name></trkpt>
<trkpt lat="53.354946" lon="-1.848582"><ele>307</ele><time>2020-08-05T13:57:40Z</time><name>PT15258</name></trkpt>
<trkpt lat="53.354941" lon="-1.848570"><ele>306</ele><time>2020-08-05T13:57:42Z</time><name>PT15259</name></trkpt>
<trkpt lat="53.354939" lon="-1.848558"><ele>306</ele><time>2020-08-05T13:57:43Z</time><name>PT15260</name></trkpt>
<trkpt lat="53.354936" lon="-1.848544"><ele>305</ele><time>2020-08-05T13:57:43Z</time><name>PT15261</name></trkpt>
<trkpt lat="53.354932" lon="-1.848522"><ele>305</ele><time>2020-08-05T13:57:45Z</time><name>PT15262</name></trkpt>
<trkpt lat="53.354928" lon="-1.848506"><ele>306</ele><time>2020-08-05T13:57:46Z</time><name>PT15263</name></trkpt>
<trkpt lat="53.354921" lon="-1.848493"><ele>307</ele><time>2020-08-05T13:57:46Z</time><name>PT15264</name></trkpt>
<trkpt lat="53.354918" lon="-1.848482"><ele>307</ele><time>2020-08-05T13:57:48Z</time><name>PT15265</name></trkpt>
<trkpt lat="53.354916" lon="-1.848467"><ele>308</ele><time>2020-08-05T13:57:49Z</time><name>PT15266</name></trkpt>
<trkpt lat="53.354908" lon="-1.848445"><ele>308</ele><time>2020-08-05T13:57:49Z</time><name>PT15267</name></trkpt>
<trkpt lat="53.354899" lon="-1.848428"><ele>308</ele><time>2020-08-05T13:57:51Z</time><name>PT15268</name></trkpt>
<trkpt lat="53.354895" lon="-1.848419"><ele>307</ele><time>2020-08-05T13:57:52Z</time><name>PT15269</name></trkpt>
<trkpt lat="53.354892" lon="-1.848403"><ele>308</ele><time>2020-08-05T13:57:52Z</time><name>PT15270</name></trkpt>
<trkpt lat="53.354887" lon="-1.848387"><ele>308</ele><time>2020-08-05T13:57:54Z</time><name>PT15271</name></trkpt>
<trkpt lat="53.354881" lon="-1.848375"><ele>308</ele><time>2020-08-05T13:57:55Z</time><name>PT15272</name></trkpt>
<trkpt lat="53.354875" lon="-1.848368"><ele>308</ele><time>2020-08-05T13:57:55Z</time><name>PT15273</name></trkpt>
<trkpt lat="53.354867" lon="-1.848356"><ele>308</ele><time>2020-08-05T13:57:57Z</time><name>PT15274</name></trkpt>
<trkpt lat="53.354862" lon="-1.848337"><ele>309</ele><time>2020-08-05T13:57:58Z</time><name>PT15275</name></trkpt>
<trkpt lat="53.354853" lon="-1.848318"><ele>308</ele><time>2020-08-05T13:57:58Z</time><name>PT15276</name></trkpt>
<trkpt lat="53.354844" lon="-1.848303"><ele>308</ele><time>2020-08-05T13:58:00Z</time><name>PT15277</name></trkpt>
<trkpt lat="53.354834" lon="-1.848294"><ele>308</ele><time>2020-08-05T13:58:01Z</time><name>PT15278</name></trkpt>
<trkpt lat="53.354818" lon="-1.848288"><ele>306</ele><time>2020-08-05T13:58:01Z</time><name>PT15279</name></trkpt>
<trkpt lat="53.354793" lon="-1.848257"><ele>305</ele><time>2020-08-05T13:58:04Z</time><name>PT15280</name></trkpt>
<trkpt lat="53.354787" lon="-1.848240"><ele>305</ele><time>2020-08-05T13:58:04Z</time><name>PT15281</name></trkpt>
<trkpt lat="53.354781" lon="-1.848223"><ele>304</ele><time>2020-08-05T13:58:06Z</time><name>PT15282</name></trkpt>
<trkpt lat="53.354772" lon="-1.848208"><ele>304</ele><time>2020-08-05T13:58:07Z</time><name>PT15283</name></trkpt>
<trkpt lat="53.354765" lon="-1.848199"><ele>304</ele><time>2020-08-05T13:58:07Z</time><name>PT15284</name></trkpt>
<trkpt lat="53.354755" lon="-1.848186"><ele>304</ele><time>2020-08-05T13:58:09Z</time><name>PT15285</name></trkpt>
<trkpt lat="53.354745" lon="-1.848168"><ele>304</ele><time>2020-08-05T13:58:10Z</time><name>PT15286</name></trkpt>
<trkpt lat="53.354738" lon="-1.848150"><ele>304</ele><time>2020-08-05T13:58:10Z</time><name>PT15287</name></trkpt>
<trkpt lat="53.354732" lon="-1.848126"><ele>305</ele><time>2020-08-05T13:58:12Z</time><name>PT15288</name></trkpt>
<trkpt lat="53.354723" lon="-1.848106"><ele>305</ele><time>2020-08-05T13:58:13Z</time><name>PT15289</name></trkpt>
<trkpt lat="53.354714" lon="-1.848094"><ele>306</ele><time>2020-08-05T13:58:13Z</time><name>PT15290</name></trkpt>
<trkpt lat="53.354706" lon="-1.848075"><ele>305</ele><time>2020-08-05T13:58:15Z</time><name>PT15291</name></trkpt>
<trkpt lat="53.354700" lon="-1.848053"><ele>306</ele><time>2020-08-05T13:58:16Z</time><name>PT15292</name></trkpt>
<trkpt lat="53.354692" lon="-1.848033"><ele>306</ele><time>2020-08-05T13:58:16Z</time><name>PT15293</name></trkpt>
<trkpt lat="53.354688" lon="-1.848011"><ele>307</ele><time>2020-08-05T13:58:18Z</time><name>PT15294</name></trkpt>
<trkpt lat="53.354681" lon="-1.847989"><ele>306</ele><time>2020-08-05T13:58:19Z</time><name>PT15295</name></trkpt>
<trkpt lat="53.354676" lon="-1.847976"><ele>306</ele><time>2020-08-05T13:58:19Z</time><name>PT15296</name></trkpt>
<trkpt lat="53.354669" lon="-1.847962"><ele>306</ele><time>2020-08-05T13:58:21Z</time><name>PT15297</name></trkpt>
<trkpt lat="53.354659" lon="-1.847948"><ele>305</ele><time>2020-08-05T13:58:22Z</time><name>PT15298</name></trkpt>
<trkpt lat="53.354652" lon="-1.847929"><ele>305</ele><time>2020-08-05T13:58:22Z</time><name>PT15299</name></trkpt>
<trkpt lat="53.354647" lon="-1.847910"><ele>305</ele><time>2020-08-05T13:58:24Z</time><name>PT15300</name></trkpt>
<trkpt lat="53.354639" lon="-1.847890"><ele>305</ele><time>2020-08-05T13:58:25Z</time><name>PT15301</name></trkpt>
<trkpt lat="53.354633" lon="-1.847875"><ele>304</ele><time>2020-08-05T13:58:25Z</time><name>PT15302</name></trkpt>
<trkpt lat="53.354626" lon="-1.847863"><ele>304</ele><time>2020-08-05T13:58:27Z</time><name>PT15303</name></trkpt>
<trkpt lat="53.354621" lon="-1.847851"><ele>304</ele><time>2020-08-05T13:58:28Z</time><name>PT15304</name></trkpt>
<trkpt lat="53.354613" lon="-1.847835"><ele>304</ele><time>2020-08-05T13:58:28Z</time><name>PT15305</name></trkpt>
<trkpt lat="53.354607" lon="-1.847815"><ele>305</ele><time>2020-08-05T13:58:30Z</time><name>PT15306</name></trkpt>
<trkpt lat="53.354599" lon="-1.847802"><ele>305</ele><time>2020-08-05T13:58:31Z</time><name>PT15307</name></trkpt>
<trkpt lat="53.354591" lon="-1.847792"><ele>305</ele><time>2020-08-05T13:58:31Z</time><name>PT15308</name></trkpt>
<trkpt lat="53.354575" lon="-1.847765"><ele>305</ele><time>2020-08-05T13:58:34Z</time><name>PT15309</name></trkpt>
<trkpt lat="53.354569" lon="-1.847749"><ele>305</ele><time>2020-08-05T13:58:34Z</time><name>PT15310</name></trkpt>
<trkpt lat="53.354563" lon="-1.847735"><ele>305</ele><time>2020-08-05T13:58:36Z</time><name>PT15311</name></trkpt>
<trkpt lat="53.354556" lon="-1.847721"><ele>305</ele><time>2020-08-05T13:58:37Z</time><name>PT15312</name></trkpt>
<trkpt lat="53.354549" lon="-1.847708"><ele>305</ele><time>2020-08-05T13:58:37Z</time><name>PT15313</name></trkpt>
<trkpt lat="53.354541" lon="-1.847690"><ele>305</ele><time>2020-08-05T13:58:39Z</time><name>PT15314</name></trkpt>
<trkpt lat="53.354535" lon="-1.847673"><ele>305</ele><time>2020-08-05T13:58:40Z</time><name>PT15315</name></trkpt>
<trkpt lat="53.354531" lon="-1.847654"><ele>305</ele><time>2020-08-05T13:58:41Z</time><name>PT15316</name></trkpt>
<trkpt lat="53.354524" lon="-1.847637"><ele>305</ele><time>2020-08-05T13:58:42Z</time><name>PT15317</name></trkpt>
<trkpt lat="53.354519" lon="-1.847623"><ele>305</ele><time>2020-08-05T13:58:43Z</time><name>PT15318</name></trkpt>
<trkpt lat="53.354503" lon="-1.847597"><ele>306</ele><time>2020-08-05T13:58:45Z</time><name>PT15319</name></trkpt>
<trkpt lat="53.354496" lon="-1.847576"><ele>306</ele><time>2020-08-05T13:58:46Z</time><name>PT15320</name></trkpt>
<trkpt lat="53.354491" lon="-1.847558"><ele>306</ele><time>2020-08-05T13:58:46Z</time><name>PT15321</name></trkpt>
<trkpt lat="53.354486" lon="-1.847539"><ele>306</ele><time>2020-08-05T13:58:48Z</time><name>PT15322</name></trkpt>
<trkpt lat="53.354479" lon="-1.847523"><ele>306</ele><time>2020-08-05T13:58:49Z</time><name>PT15323</name></trkpt>
<trkpt lat="53.354474" lon="-1.847507"><ele>306</ele><time>2020-08-05T13:58:50Z</time><name>PT15324</name></trkpt>
<trkpt lat="53.354470" lon="-1.847497"><ele>306</ele><time>2020-08-05T13:58:51Z</time><name>PT15325</name></trkpt>
<trkpt lat="53.354463" lon="-1.847475"><ele>306</ele><time>2020-08-05T13:58:52Z</time><name>PT15326</name></trkpt>
<trkpt lat="53.354460" lon="-1.847458"><ele>305</ele><time>2020-08-05T13:58:53Z</time><name>PT15327</name></trkpt>
<trkpt lat="53.354458" lon="-1.847442"><ele>306</ele><time>2020-08-05T13:58:54Z</time><name>PT15328</name></trkpt>
<trkpt lat="53.354456" lon="-1.847422"><ele>306</ele><time>2020-08-05T13:58:55Z</time><name>PT15329</name></trkpt>
<trkpt lat="53.354450" lon="-1.847409"><ele>306</ele><time>2020-08-05T13:58:56Z</time><name>PT15330</name></trkpt>
<trkpt lat="53.354443" lon="-1.847394"><ele>306</ele><time>2020-08-05T13:58:57Z</time><name>PT15331</name></trkpt>
<trkpt lat="53.354434" lon="-1.847377"><ele>306</ele><time>2020-08-05T13:58:58Z</time><name>PT15332</name></trkpt>
<trkpt lat="53.354427" lon="-1.847367"><ele>306</ele><time>2020-08-05T13:58:59Z</time><name>PT15333</name></trkpt>
<trkpt lat="53.354420" lon="-1.847352"><ele>306</ele><time>2020-08-05T13:59:00Z</time><name>PT15334</name></trkpt>
<trkpt lat="53.354413" lon="-1.847334"><ele>306</ele><time>2020-08-05T13:59:01Z</time><name>PT15335</name></trkpt>
<trkpt lat="53.354411" lon="-1.847324"><ele>306</ele><time>2020-08-05T13:59:01Z</time><name>PT15336</name></trkpt>
<trkpt lat="53.354406" lon="-1.847310"><ele>306</ele><time>2020-08-05T13:59:03Z</time><name>PT15337</name></trkpt>
<trkpt lat="53.354399" lon="-1.847300"><ele>305</ele><time>2020-08-05T13:59:04Z</time><name>PT15338</name></trkpt>
<trkpt lat="53.354392" lon="-1.847289"><ele>305</ele><time>2020-08-05T13:59:04Z</time><name>PT15339</name></trkpt>
<trkpt lat="53.354379" lon="-1.847275"><ele>305</ele><time>2020-08-05T13:59:06Z</time><name>PT15340</name></trkpt>
<trkpt lat="53.354369" lon="-1.847262"><ele>305</ele><time>2020-08-05T13:59:07Z</time><name>PT15341</name></trkpt>
<trkpt lat="53.354359" lon="-1.847254"><ele>305</ele><time>2020-08-05T13:59:07Z</time><name>PT15342</name></trkpt>
<trkpt lat="53.354348" lon="-1.847248"><ele>304</ele><time>2020-08-05T13:59:09Z</time><name>PT15343</name></trkpt>
<trkpt lat="53.354336" lon="-1.847242"><ele>303</ele><time>2020-08-05T13:59:10Z</time><name>PT15344</name></trkpt>
<trkpt lat="53.354324" lon="-1.847238"><ele>303</ele><time>2020-08-05T13:59:10Z</time><name>PT15345</name></trkpt>
<trkpt lat="53.354311" lon="-1.847238"><ele>303</ele><time>2020-08-05T13:59:12Z</time><name>PT15346</name></trkpt>
<trkpt lat="53.354286" lon="-1.847241"><ele>303</ele><time>2020-08-05T13:59:13Z</time><name>PT15347</name></trkpt>
<trkpt lat="53.354274" lon="-1.847246"><ele>303</ele><time>2020-08-05T13:59:15Z</time><name>PT15348</name></trkpt>
<trkpt lat="53.354263" lon="-1.847251"><ele>304</ele><time>2020-08-05T13:59:16Z</time><name>PT15349</name></trkpt>
<trkpt lat="53.354255" lon="-1.847249"><ele>303</ele><time>2020-08-05T13:59:16Z</time><name>PT15350</name></trkpt>
<trkpt lat="53.354247" lon="-1.847246"><ele>304</ele><time>2020-08-05T13:59:18Z</time><name>PT15351</name></trkpt>
<trkpt lat="53.354237" lon="-1.847255"><ele>303</ele><time>2020-08-05T13:59:19Z</time><name>PT15352</name></trkpt>
<trkpt lat="53.354230" lon="-1.847262"><ele>303</ele><time>2020-08-05T13:59:19Z</time><name>PT15353</name></trkpt>
<trkpt lat="53.354221" lon="-1.847263"><ele>303</ele><time>2020-08-05T13:59:21Z</time><name>PT15354</name></trkpt>
<trkpt lat="53.354213" lon="-1.847265"><ele>302</ele><time>2020-08-05T13:59:22Z</time><name>PT15355</name></trkpt>
<trkpt lat="53.354206" lon="-1.847265"><ele>303</ele><time>2020-08-05T13:59:22Z</time><name>PT15356</name></trkpt>
<trkpt lat="53.354197" lon="-1.847265"><ele>302</ele><time>2020-08-05T13:59:24Z</time><name>PT15357</name></trkpt>
<trkpt lat="53.354188" lon="-1.847266"><ele>302</ele><time>2020-08-05T13:59:25Z</time><name>PT15358</name></trkpt>
<trkpt lat="53.354180" lon="-1.847265"><ele>302</ele><time>2020-08-05T13:59:25Z</time><name>PT15359</name></trkpt>
<trkpt lat="53.354175" lon="-1.847263"><ele>302</ele><time>2020-08-05T13:59:27Z</time><name>PT15360</name></trkpt>
<trkpt lat="53.354173" lon="-1.847262"><ele>302</ele><time>2020-08-05T13:59:28Z</time><name>PT15361</name></trkpt>
<trkpt lat="53.354173" lon="-1.847261"><ele>302</ele><time>2020-08-05T13:59:28Z</time><name>PT15362</name></trkpt>
<trkpt lat="53.354169" lon="-1.847261"><ele>302</ele><time>2020-08-05T13:59:30Z</time><name>PT15363</name></trkpt>
<trkpt lat="53.354167" lon="-1.847258"><ele>302</ele><time>2020-08-05T13:59:31Z</time><name>PT15364</name></trkpt>
<trkpt lat="53.354167" lon="-1.847255"><ele>302</ele><time>2020-08-05T13:59:31Z</time><name>PT15365</name></trkpt>
<trkpt lat="53.354162" lon="-1.847253"><ele>302</ele><time>2020-08-05T13:59:33Z</time><name>PT15366</name></trkpt>
<trkpt lat="53.354159" lon="-1.847247"><ele>302</ele><time>2020-08-05T13:59:34Z</time><name>PT15367</name></trkpt>
<trkpt lat="53.354155" lon="-1.847242"><ele>301</ele><time>2020-08-05T13:59:36Z</time><name>PT15368</name></trkpt>
<trkpt lat="53.354153" lon="-1.847241"><ele>302</ele><time>2020-08-05T13:59:37Z</time><name>PT15369</name></trkpt>
<trkpt lat="53.354146" lon="-1.847249"><ele>302</ele><time>2020-08-05T13:59:37Z</time><name>PT15370</name></trkpt>
<trkpt lat="53.354141" lon="-1.847262"><ele>302</ele><time>2020-08-05T13:59:39Z</time><name>PT15371</name></trkpt>
<trkpt lat="53.354132" lon="-1.847269"><ele>301</ele><time>2020-08-05T13:59:40Z</time><name>PT15372</name></trkpt>
<trkpt lat="53.354121" lon="-1.847272"><ele>300</ele><time>2020-08-05T13:59:40Z</time><name>PT15373</name></trkpt>
<trkpt lat="53.354109" lon="-1.847275"><ele>301</ele><time>2020-08-05T13:59:42Z</time><name>PT15374</name></trkpt>
<trkpt lat="53.354099" lon="-1.847282"><ele>301</ele><time>2020-08-05T13:59:43Z</time><name>PT15375</name></trkpt>
<trkpt lat="53.354088" lon="-1.847292"><ele>300</ele><time>2020-08-05T13:59:44Z</time><name>PT15376</name></trkpt>
<trkpt lat="53.354078" lon="-1.847303"><ele>299</ele><time>2020-08-05T13:59:45Z</time><name>PT15377</name></trkpt>
<trkpt lat="53.354071" lon="-1.847312"><ele>300</ele><time>2020-08-05T13:59:46Z</time><name>PT15378</name></trkpt>
<trkpt lat="53.354060" lon="-1.847323"><ele>298</ele><time>2020-08-05T13:59:46Z</time><name>PT15379</name></trkpt>
<trkpt lat="53.354049" lon="-1.847331"><ele>299</ele><time>2020-08-05T13:59:48Z</time><name>PT15380</name></trkpt>
<trkpt lat="53.354041" lon="-1.847335"><ele>298</ele><time>2020-08-05T13:59:49Z</time><name>PT15381</name></trkpt>
<trkpt lat="53.354034" lon="-1.847337"><ele>298</ele><time>2020-08-05T13:59:49Z</time><name>PT15382</name></trkpt>
<trkpt lat="53.354027" lon="-1.847338"><ele>298</ele><time>2020-08-05T13:59:51Z</time><name>PT15383</name></trkpt>
<trkpt lat="53.354020" lon="-1.847341"><ele>298</ele><time>2020-08-05T13:59:52Z</time><name>PT15384</name></trkpt>
<trkpt lat="53.354014" lon="-1.847344"><ele>298</ele><time>2020-08-05T13:59:52Z</time><name>PT15385</name></trkpt>
<trkpt lat="53.354007" lon="-1.847346"><ele>298</ele><time>2020-08-05T13:59:54Z</time><name>PT15386</name></trkpt>
<trkpt lat="53.353998" lon="-1.847347"><ele>297</ele><time>2020-08-05T13:59:55Z</time><name>PT15387</name></trkpt>
<trkpt lat="53.353988" lon="-1.847350"><ele>297</ele><time>2020-08-05T13:59:55Z</time><name>PT15388</name></trkpt>
<trkpt lat="53.353979" lon="-1.847351"><ele>296</ele><time>2020-08-05T13:59:57Z</time><name>PT15389</name></trkpt>
<trkpt lat="53.353976" lon="-1.847354"><ele>297</ele><time>2020-08-05T13:59:58Z</time><name>PT15390</name></trkpt>
<trkpt lat="53.353967" lon="-1.847359"><ele>297</ele><time>2020-08-05T13:59:58Z</time><name>PT15391</name></trkpt>
<trkpt lat="53.353957" lon="-1.847359"><ele>297</ele><time>2020-08-05T14:00:00Z</time><name>PT15392</name></trkpt>
<trkpt lat="53.353948" lon="-1.847362"><ele>297</ele><time>2020-08-05T14:00:01Z</time><name>PT15393</name></trkpt>
<trkpt lat="53.353938" lon="-1.847363"><ele>296</ele><time>2020-08-05T14:00:01Z</time><name>PT15394</name></trkpt>
<trkpt lat="53.353926" lon="-1.847366"><ele>295</ele><time>2020-08-05T14:00:03Z</time><name>PT15395</name></trkpt>
<trkpt lat="53.353913" lon="-1.847371"><ele>295</ele><time>2020-08-05T14:00:04Z</time><name>PT15396</name></trkpt>
<trkpt lat="53.353903" lon="-1.847378"><ele>294</ele><time>2020-08-05T14:00:05Z</time><name>PT15397</name></trkpt>
<trkpt lat="53.353896" lon="-1.847392"><ele>294</ele><time>2020-08-05T14:00:06Z</time><name>PT15398</name></trkpt>
<trkpt lat="53.353890" lon="-1.847401"><ele>293</ele><time>2020-08-05T14:00:07Z</time><name>PT15399</name></trkpt>
<trkpt lat="53.353878" lon="-1.847406"><ele>293</ele><time>2020-08-05T14:00:08Z</time><name>PT15400</name></trkpt>
<trkpt lat="53.353872" lon="-1.847416"><ele>292</ele><time>2020-08-05T14:00:09Z</time><name>PT15401</name></trkpt>
<trkpt lat="53.353866" lon="-1.847424"><ele>292</ele><time>2020-08-05T14:00:10Z</time><name>PT15402</name></trkpt>
<trkpt lat="53.353861" lon="-1.847427"><ele>292</ele><time>2020-08-05T14:00:10Z</time><name>PT15403</name></trkpt>
<trkpt lat="53.353857" lon="-1.847432"><ele>292</ele><time>2020-08-05T14:00:12Z</time><name>PT15404</name></trkpt>
<trkpt lat="53.353848" lon="-1.847439"><ele>292</ele><time>2020-08-05T14:00:13Z</time><name>PT15405</name></trkpt>
<trkpt lat="53.353838" lon="-1.847447"><ele>291</ele><time>2020-08-05T14:00:14Z</time><name>PT15406</name></trkpt>
<trkpt lat="53.353831" lon="-1.847455"><ele>291</ele><time>2020-08-05T14:00:15Z</time><name>PT15407</name></trkpt>
<trkpt lat="53.353818" lon="-1.847462"><ele>291</ele><time>2020-08-05T14:00:16Z</time><name>PT15408</name></trkpt>
<trkpt lat="53.353808" lon="-1.847472"><ele>291</ele><time>2020-08-05T14:00:16Z</time><name>PT15409</name></trkpt>
<trkpt lat="53.353802" lon="-1.847482"><ele>292</ele><time>2020-08-05T14:00:18Z</time><name>PT15410</name></trkpt>
<trkpt lat="53.353796" lon="-1.847495"><ele>290</ele><time>2020-08-05T14:00:19Z</time><name>PT15411</name></trkpt>
<trkpt lat="53.353790" lon="-1.847508"><ele>290</ele><time>2020-08-05T14:00:20Z</time><name>PT15412</name></trkpt>
<trkpt lat="53.353785" lon="-1.847528"><ele>289</ele><time>2020-08-05T14:00:21Z</time><name>PT15413</name></trkpt>
<trkpt lat="53.353776" lon="-1.847533"><ele>290</ele><time>2020-08-05T14:00:22Z</time><name>PT15414</name></trkpt>
<trkpt lat="53.353770" lon="-1.847537"><ele>290</ele><time>2020-08-05T14:00:22Z</time><name>PT15415</name></trkpt>
<trkpt lat="53.353764" lon="-1.847546"><ele>290</ele><time>2020-08-05T14:00:24Z</time><name>PT15416</name></trkpt>
<trkpt lat="53.353754" lon="-1.847553"><ele>290</ele><time>2020-08-05T14:00:25Z</time><name>PT15417</name></trkpt>
<trkpt lat="53.353745" lon="-1.847556"><ele>291</ele><time>2020-08-05T14:00:25Z</time><name>PT15418</name></trkpt>
<trkpt lat="53.353735" lon="-1.847557"><ele>290</ele><time>2020-08-05T14:00:27Z</time><name>PT15419</name></trkpt>
<trkpt lat="53.353727" lon="-1.847550"><ele>288</ele><time>2020-08-05T14:00:28Z</time><name>PT15420</name></trkpt>
<trkpt lat="53.353717" lon="-1.847544"><ele>288</ele><time>2020-08-05T14:00:28Z</time><name>PT15421</name></trkpt>
<trkpt lat="53.353704" lon="-1.847538"><ele>288</ele><time>2020-08-05T14:00:30Z</time><name>PT15422</name></trkpt>
<trkpt lat="53.353695" lon="-1.847536"><ele>289</ele><time>2020-08-05T14:00:31Z</time><name>PT15423</name></trkpt>
<trkpt lat="53.353692" lon="-1.847538"><ele>289</ele><time>2020-08-05T14:00:31Z</time><name>PT15424</name></trkpt>
<trkpt lat="53.353687" lon="-1.847526"><ele>290</ele><time>2020-08-05T14:00:33Z</time><name>PT15425</name></trkpt>
<trkpt lat="53.353689" lon="-1.847515"><ele>291</ele><time>2020-08-05T14:00:34Z</time><name>PT15426</name></trkpt>
<trkpt lat="53.353691" lon="-1.847504"><ele>291</ele><time>2020-08-05T14:00:34Z</time><name>PT15427</name></trkpt>
<trkpt lat="53.353692" lon="-1.847498"><ele>291</ele><time>2020-08-05T14:00:36Z</time><name>PT15428</name></trkpt>
<trkpt lat="53.353692" lon="-1.847492"><ele>292</ele><time>2020-08-05T14:00:37Z</time><name>PT15429</name></trkpt>
<trkpt lat="53.353693" lon="-1.847489"><ele>293</ele><time>2020-08-05T14:00:37Z</time><name>PT15430</name></trkpt>
<trkpt lat="53.353693" lon="-1.847475"><ele>292</ele><time>2020-08-05T14:00:39Z</time><name>PT15431</name></trkpt>
<trkpt lat="53.353707" lon="-1.847468"><ele>293</ele><time>2020-08-05T14:00:40Z</time><name>PT15432</name></trkpt>
<trkpt lat="53.353712" lon="-1.847458"><ele>294</ele><time>2020-08-05T14:00:40Z</time><name>PT15433</name></trkpt>
<trkpt lat="53.353717" lon="-1.847449"><ele>295</ele><time>2020-08-05T14:00:42Z</time><name>PT15434</name></trkpt>
<trkpt lat="53.353717" lon="-1.847441"><ele>295</ele><time>2020-08-05T14:00:43Z</time><name>PT15435</name></trkpt>
<trkpt lat="53.353716" lon="-1.847433"><ele>295</ele><time>2020-08-05T14:00:43Z</time><name>PT15436</name></trkpt>
<trkpt lat="53.353723" lon="-1.847421"><ele>296</ele><time>2020-08-05T14:00:45Z</time><name>PT15437</name></trkpt>
<trkpt lat="53.353722" lon="-1.847417"><ele>297</ele><time>2020-08-05T14:00:46Z</time><name>PT15438</name></trkpt>
<trkpt lat="53.353719" lon="-1.847412"><ele>296</ele><time>2020-08-05T14:00:46Z</time><name>PT15439</name></trkpt>
<trkpt lat="53.353725" lon="-1.847402"><ele>297</ele><time>2020-08-05T14:00:48Z</time><name>PT15440</name></trkpt>
<trkpt lat="53.353723" lon="-1.847390"><ele>298</ele><time>2020-08-05T14:00:49Z</time><name>PT15441</name></trkpt>
<trkpt lat="53.353724" lon="-1.847384"><ele>299</ele><time>2020-08-05T14:00:49Z</time><name>PT15442</name></trkpt>
<trkpt lat="53.353724" lon="-1.847373"><ele>300</ele><time>2020-08-05T14:00:51Z</time><name>PT15443</name></trkpt>
<trkpt lat="53.353724" lon="-1.847361"><ele>301</ele><time>2020-08-05T14:00:52Z</time><name>PT15444</name></trkpt>
<trkpt lat="53.353724" lon="-1.847351"><ele>300</ele><time>2020-08-05T14:00:52Z</time><name>PT15445</name></trkpt>
<trkpt lat="53.353726" lon="-1.847338"><ele>300</ele><time>2020-08-05T14:00:54Z</time><name>PT15446</name></trkpt>
<trkpt lat="53.353730" lon="-1.847322"><ele>301</ele><time>2020-08-05T14:00:55Z</time><name>PT15447</name></trkpt>
<trkpt lat="53.353736" lon="-1.847310"><ele>302</ele><time>2020-08-05T14:00:55Z</time><name>PT15448</name></trkpt>
<trkpt lat="53.353743" lon="-1.847300"><ele>302</ele><time>2020-08-05T14:00:57Z</time><name>PT15449</name></trkpt>
<trkpt lat="53.353747" lon="-1.847282"><ele>304</ele><time>2020-08-05T14:00:58Z</time><name>PT15450</name></trkpt>
<trkpt lat="53.353748" lon="-1.847265"><ele>303</ele><time>2020-08-05T14:00:58Z</time><name>PT15451</name></trkpt>
<trkpt lat="53.353748" lon="-1.847243"><ele>302</ele><time>2020-08-05T14:01:00Z</time><name>PT15452</name></trkpt>
<trkpt lat="53.353752" lon="-1.847231"><ele>303</ele><time>2020-08-05T14:01:01Z</time><name>PT15453</name></trkpt>
<trkpt lat="53.353749" lon="-1.847224"><ele>304</ele><time>2020-08-05T14:01:01Z</time><name>PT15454</name></trkpt>
<trkpt lat="53.353751" lon="-1.847213"><ele>306</ele><time>2020-08-05T14:01:03Z</time><name>PT15455</name></trkpt>
<trkpt lat="53.353751" lon="-1.847204"><ele>306</ele><time>2020-08-05T14:01:04Z</time><name>PT15456</name></trkpt>
<trkpt lat="53.353760" lon="-1.847201"><ele>307</ele><time>2020-08-05T14:01:04Z</time><name>PT15457</name></trkpt>
<trkpt lat="53.353768" lon="-1.847187"><ele>307</ele><time>2020-08-05T14:01:06Z</time><name>PT15458</name></trkpt>
<trkpt lat="53.353772" lon="-1.847171"><ele>307</ele><time>2020-08-05T14:01:07Z</time><name>PT15459</name></trkpt>
<trkpt lat="53.353774" lon="-1.847161"><ele>307</ele><time>2020-08-05T14:01:07Z</time><name>PT15460</name></trkpt>
<trkpt lat="53.353782" lon="-1.847152"><ele>306</ele><time>2020-08-05T14:01:09Z</time><name>PT15461</name></trkpt>
<trkpt lat="53.353786" lon="-1.847142"><ele>306</ele><time>2020-08-05T14:01:10Z</time><name>PT15462</name></trkpt>
<trkpt lat="53.353788" lon="-1.847131"><ele>306</ele><time>2020-08-05T14:01:11Z</time><name>PT15463</name></trkpt>
<trkpt lat="53.353790" lon="-1.847120"><ele>305</ele><time>2020-08-05T14:01:12Z</time><name>PT15464</name></trkpt>
<trkpt lat="53.353795" lon="-1.847110"><ele>305</ele><time>2020-08-05T14:01:13Z</time><name>PT15465</name></trkpt>
<trkpt lat="53.353799" lon="-1.847098"><ele>304</ele><time>2020-08-05T14:01:14Z</time><name>PT15466</name></trkpt>
<trkpt lat="53.353809" lon="-1.847083"><ele>304</ele><time>2020-08-05T14:01:15Z</time><name>PT15467</name></trkpt>
<trkpt lat="53.353816" lon="-1.847065"><ele>304</ele><time>2020-08-05T14:01:16Z</time><name>PT15468</name></trkpt>
<trkpt lat="53.353821" lon="-1.847048"><ele>302</ele><time>2020-08-05T14:01:17Z</time><name>PT15469</name></trkpt>
<trkpt lat="53.353823" lon="-1.847033"><ele>303</ele><time>2020-08-05T14:01:18Z</time><name>PT15470</name></trkpt>
<trkpt lat="53.353823" lon="-1.847014"><ele>303</ele><time>2020-08-05T14:01:19Z</time><name>PT15471</name></trkpt>
<trkpt lat="53.353822" lon="-1.846998"><ele>302</ele><time>2020-08-05T14:01:19Z</time><name>PT15472</name></trkpt>
<trkpt lat="53.353826" lon="-1.846988"><ele>302</ele><time>2020-08-05T14:01:21Z</time><name>PT15473</name></trkpt>
<trkpt lat="53.353828" lon="-1.846973"><ele>302</ele><time>2020-08-05T14:01:22Z</time><name>PT15474</name></trkpt>
<trkpt lat="53.353827" lon="-1.846960"><ele>302</ele><time>2020-08-05T14:01:22Z</time><name>PT15475</name></trkpt>
<trkpt lat="53.353831" lon="-1.846948"><ele>303</ele><time>2020-08-05T14:01:24Z</time><name>PT15476</name></trkpt>
<trkpt lat="53.353836" lon="-1.846935"><ele>303</ele><time>2020-08-05T14:01:25Z</time><name>PT15477</name></trkpt>
<trkpt lat="53.353843" lon="-1.846923"><ele>303</ele><time>2020-08-05T14:01:25Z</time><name>PT15478</name></trkpt>
<trkpt lat="53.353850" lon="-1.846859"><ele>302</ele><time>2020-08-05T14:01:28Z</time><name>PT15479</name></trkpt>
<trkpt lat="53.353859" lon="-1.846821"><ele>301</ele><time>2020-08-05T14:01:30Z</time><name>PT15480</name></trkpt>
<trkpt lat="53.353867" lon="-1.846765"><ele>301</ele><time>2020-08-05T14:01:31Z</time><name>PT15481</name></trkpt>
<trkpt lat="53.353869" lon="-1.846737"><ele>301</ele><time>2020-08-05T14:01:31Z</time><name>PT15482</name></trkpt>
<trkpt lat="53.353871" lon="-1.846718"><ele>300</ele><time>2020-08-05T14:01:33Z</time><name>PT15483</name></trkpt>
<trkpt lat="53.353875" lon="-1.846702"><ele>301</ele><time>2020-08-05T14:01:34Z</time><name>PT15484</name></trkpt>
<trkpt lat="53.353875" lon="-1.846687"><ele>300</ele><time>2020-08-05T14:01:34Z</time><name>PT15485</name></trkpt>
<trkpt lat="53.353883" lon="-1.846669"><ele>300</ele><time>2020-08-05T14:01:36Z</time><name>PT15486</name></trkpt>
<trkpt lat="53.353887" lon="-1.846647"><ele>300</ele><time>2020-08-05T14:01:37Z</time><name>PT15487</name></trkpt>
<trkpt lat="53.353895" lon="-1.846642"><ele>299</ele><time>2020-08-05T14:01:37Z</time><name>PT15488</name></trkpt>
<trkpt lat="53.353898" lon="-1.846630"><ele>300</ele><time>2020-08-05T14:01:39Z</time><name>PT15489</name></trkpt>
<trkpt lat="53.353898" lon="-1.846612"><ele>300</ele><time>2020-08-05T14:01:40Z</time><name>PT15490</name></trkpt>
<trkpt lat="53.353895" lon="-1.846598"><ele>300</ele><time>2020-08-05T14:01:40Z</time><name>PT15491</name></trkpt>
<trkpt lat="53.353895" lon="-1.846578"><ele>300</ele><time>2020-08-05T14:01:42Z</time><name>PT15492</name></trkpt>
<trkpt lat="53.353895" lon="-1.846558"><ele>300</ele><time>2020-08-05T14:01:43Z</time><name>PT15493</name></trkpt>
<trkpt lat="53.353895" lon="-1.846547"><ele>299</ele><time>2020-08-05T14:01:43Z</time><name>PT15494</name></trkpt>
<trkpt lat="53.353894" lon="-1.846540"><ele>299</ele><time>2020-08-05T14:01:45Z</time><name>PT15495</name></trkpt>
<trkpt lat="53.353889" lon="-1.846529"><ele>299</ele><time>2020-08-05T14:01:46Z</time><name>PT15496</name></trkpt>
<trkpt lat="53.353886" lon="-1.846514"><ele>300</ele><time>2020-08-05T14:01:46Z</time><name>PT15497</name></trkpt>
<trkpt lat="53.353883" lon="-1.846502"><ele>301</ele><time>2020-08-05T14:01:48Z</time><name>PT15498</name></trkpt>
<trkpt lat="53.353881" lon="-1.846492"><ele>301</ele><time>2020-08-05T14:01:49Z</time><name>PT15499</name></trkpt>
<trkpt lat="53.353877" lon="-1.846486"><ele>301</ele><time>2020-08-05T14:01:49Z</time><name>PT15500</name></trkpt>
<trkpt lat="53.353873" lon="-1.846476"><ele>301</ele><time>2020-08-05T14:01:51Z</time><name>PT15501</name></trkpt>
<trkpt lat="53.353869" lon="-1.846461"><ele>301</ele><time>2020-08-05T14:01:52Z</time><name>PT15502</name></trkpt>
<trkpt lat="53.353866" lon="-1.846448"><ele>301</ele><time>2020-08-05T14:01:52Z</time><name>PT15503</name></trkpt>
<trkpt lat="53.353866" lon="-1.846441"><ele>300</ele><time>2020-08-05T14:01:54Z</time><name>PT15504</name></trkpt>
<trkpt lat="53.353857" lon="-1.846432"><ele>300</ele><time>2020-08-05T14:01:55Z</time><name>PT15505</name></trkpt>
<trkpt lat="53.353851" lon="-1.846422"><ele>300</ele><time>2020-08-05T14:01:55Z</time><name>PT15506</name></trkpt>
<trkpt lat="53.353848" lon="-1.846415"><ele>300</ele><time>2020-08-05T14:01:57Z</time><name>PT15507</name></trkpt>
<trkpt lat="53.353844" lon="-1.846402"><ele>299</ele><time>2020-08-05T14:01:58Z</time><name>PT15508</name></trkpt>
<trkpt lat="53.353842" lon="-1.846383"><ele>300</ele><time>2020-08-05T14:01:58Z</time><name>PT15509</name></trkpt>
<trkpt lat="53.353849" lon="-1.846367"><ele>302</ele><time>2020-08-05T14:02:00Z</time><name>PT15510</name></trkpt>
<trkpt lat="53.353852" lon="-1.846354"><ele>303</ele><time>2020-08-05T14:02:01Z</time><name>PT15511</name></trkpt>
<trkpt lat="53.353853" lon="-1.846345"><ele>303</ele><time>2020-08-05T14:02:02Z</time><name>PT15512</name></trkpt>
<trkpt lat="53.353851" lon="-1.846341"><ele>303</ele><time>2020-08-05T14:02:03Z</time><name>PT15513</name></trkpt>
<trkpt lat="53.353846" lon="-1.846340"><ele>303</ele><time>2020-08-05T14:02:16Z</time><name>PT15514</name></trkpt>
<trkpt lat="53.353842" lon="-1.846340"><ele>304</ele><time>2020-08-05T14:02:17Z</time><name>PT15515</name></trkpt>
<trkpt lat="53.353839" lon="-1.846335"><ele>304</ele><time>2020-08-05T14:02:18Z</time><name>PT15516</name></trkpt>
<trkpt lat="53.353839" lon="-1.846331"><ele>304</ele><time>2020-08-05T14:02:19Z</time><name>PT15517</name></trkpt>
<trkpt lat="53.353839" lon="-1.846326"><ele>304</ele><time>2020-08-05T14:02:19Z</time><name>PT15518</name></trkpt>
<trkpt lat="53.353838" lon="-1.846321"><ele>304</ele><time>2020-08-05T14:02:21Z</time><name>PT15519</name></trkpt>
<trkpt lat="53.353830" lon="-1.846322"><ele>304</ele><time>2020-08-05T14:02:30Z</time><name>PT15520</name></trkpt>
<trkpt lat="53.353825" lon="-1.846326"><ele>303</ele><time>2020-08-05T14:02:31Z</time><name>PT15521</name></trkpt>
<trkpt lat="53.353823" lon="-1.846330"><ele>303</ele><time>2020-08-05T14:02:31Z</time><name>PT15522</name></trkpt>
<trkpt lat="53.353821" lon="-1.846326"><ele>303</ele><time>2020-08-05T14:02:33Z</time><name>PT15523</name></trkpt>
<trkpt lat="53.353820" lon="-1.846317"><ele>303</ele><time>2020-08-05T14:02:34Z</time><name>PT15524</name></trkpt>
<trkpt lat="53.353815" lon="-1.846327"><ele>303</ele><time>2020-08-05T14:02:39Z</time><name>PT15525</name></trkpt>
<trkpt lat="53.353807" lon="-1.846356"><ele>304</ele><time>2020-08-05T14:02:40Z</time><name>PT15526</name></trkpt>
<trkpt lat="53.353808" lon="-1.846369"><ele>304</ele><time>2020-08-05T14:02:41Z</time><name>PT15527</name></trkpt>
<trkpt lat="53.353805" lon="-1.846383"><ele>303</ele><time>2020-08-05T14:02:42Z</time><name>PT15528</name></trkpt>
<trkpt lat="53.353800" lon="-1.846393"><ele>303</ele><time>2020-08-05T14:02:43Z</time><name>PT15529</name></trkpt>
<trkpt lat="53.353796" lon="-1.846399"><ele>303</ele><time>2020-08-05T14:02:44Z</time><name>PT15530</name></trkpt>
<trkpt lat="53.353793" lon="-1.846411"><ele>303</ele><time>2020-08-05T14:02:45Z</time><name>PT15531</name></trkpt>
<trkpt lat="53.353790" lon="-1.846421"><ele>303</ele><time>2020-08-05T14:02:46Z</time><name>PT15532</name></trkpt>
<trkpt lat="53.353781" lon="-1.846428"><ele>303</ele><time>2020-08-05T14:02:46Z</time><name>PT15533</name></trkpt>
<trkpt lat="53.353770" lon="-1.846434"><ele>303</ele><time>2020-08-05T14:02:48Z</time><name>PT15534</name></trkpt>
<trkpt lat="53.353760" lon="-1.846439"><ele>303</ele><time>2020-08-05T14:02:49Z</time><name>PT15535</name></trkpt>
<trkpt lat="53.353752" lon="-1.846448"><ele>304</ele><time>2020-08-05T14:02:49Z</time><name>PT15536</name></trkpt>
<trkpt lat="53.353740" lon="-1.846445"><ele>305</ele><time>2020-08-05T14:02:51Z</time><name>PT15537</name></trkpt>
<trkpt lat="53.353733" lon="-1.846447"><ele>305</ele><time>2020-08-05T14:02:52Z</time><name>PT15538</name></trkpt>
<trkpt lat="53.353728" lon="-1.846448"><ele>304</ele><time>2020-08-05T14:02:52Z</time><name>PT15539</name></trkpt>
<trkpt lat="53.353718" lon="-1.846455"><ele>304</ele><time>2020-08-05T14:02:54Z</time><name>PT15540</name></trkpt>
<trkpt lat="53.353705" lon="-1.846456"><ele>304</ele><time>2020-08-05T14:02:55Z</time><name>PT15541</name></trkpt>
<trkpt lat="53.353698" lon="-1.846459"><ele>304</ele><time>2020-08-05T14:02:55Z</time><name>PT15542</name></trkpt>
<trkpt lat="53.353690" lon="-1.846461"><ele>305</ele><time>2020-08-05T14:02:57Z</time><name>PT15543</name></trkpt>
<trkpt lat="53.353681" lon="-1.846464"><ele>305</ele><time>2020-08-05T14:02:58Z</time><name>PT15544</name></trkpt>
<trkpt lat="53.353672" lon="-1.846469"><ele>305</ele><time>2020-08-05T14:02:58Z</time><name>PT15545</name></trkpt>
<trkpt lat="53.353663" lon="-1.846474"><ele>305</ele><time>2020-08-05T14:03:00Z</time><name>PT15546</name></trkpt>
<trkpt lat="53.353655" lon="-1.846482"><ele>305</ele><time>2020-08-05T14:03:01Z</time><name>PT15547</name></trkpt>
<trkpt lat="53.353642" lon="-1.846490"><ele>305</ele><time>2020-08-05T14:03:02Z</time><name>PT15548</name></trkpt>
<trkpt lat="53.353633" lon="-1.846492"><ele>305</ele><time>2020-08-05T14:03:03Z</time><name>PT15549</name></trkpt>
<trkpt lat="53.353622" lon="-1.846495"><ele>304</ele><time>2020-08-05T14:03:04Z</time><name>PT15550</name></trkpt>
<trkpt lat="53.353613" lon="-1.846491"><ele>304</ele><time>2020-08-05T14:03:05Z</time><name>PT15551</name></trkpt>
<trkpt lat="53.353613" lon="-1.846491"><ele>304</ele><time>2020-08-05T14:03:06Z</time><name>PT15552</name></trkpt>
<trkpt lat="53.353607" lon="-1.846491"><ele>304</ele><time>2020-08-05T14:03:07Z</time><name>PT15553</name></trkpt>
<trkpt lat="53.353612" lon="-1.846482"><ele>305</ele><time>2020-08-05T14:03:07Z</time><name>PT15554</name></trkpt>
<trkpt lat="53.353603" lon="-1.846479"><ele>305</ele><time>2020-08-05T14:03:09Z</time><name>PT15555</name></trkpt>
<trkpt lat="53.353598" lon="-1.846469"><ele>305</ele><time>2020-08-05T14:03:10Z</time><name>PT15556</name></trkpt>
<trkpt lat="53.353580" lon="-1.846458"><ele>304</ele><time>2020-08-05T14:03:12Z</time><name>PT15557</name></trkpt>
<trkpt lat="53.353576" lon="-1.846450"><ele>306</ele><time>2020-08-05T14:03:13Z</time><name>PT15558</name></trkpt>
<trkpt lat="53.353571" lon="-1.846443"><ele>306</ele><time>2020-08-05T14:03:13Z</time><name>PT15559</name></trkpt>
<trkpt lat="53.353568" lon="-1.846438"><ele>307</ele><time>2020-08-05T14:03:15Z</time><name>PT15560</name></trkpt>
<trkpt lat="53.353563" lon="-1.846435"><ele>307</ele><time>2020-08-05T14:03:16Z</time><name>PT15561</name></trkpt>
<trkpt lat="53.353556" lon="-1.846437"><ele>307</ele><time>2020-08-05T14:03:16Z</time><name>PT15562</name></trkpt>
<trkpt lat="53.353550" lon="-1.846432"><ele>307</ele><time>2020-08-05T14:03:18Z</time><name>PT15563</name></trkpt>
<trkpt lat="53.353544" lon="-1.846422"><ele>308</ele><time>2020-08-05T14:03:19Z</time><name>PT15564</name></trkpt>
<trkpt lat="53.353538" lon="-1.846419"><ele>309</ele><time>2020-08-05T14:03:19Z</time><name>PT15565</name></trkpt>
<trkpt lat="53.353531" lon="-1.846412"><ele>309</ele><time>2020-08-05T14:03:21Z</time><name>PT15566</name></trkpt>
<trkpt lat="53.353527" lon="-1.846406"><ele>310</ele><time>2020-08-05T14:03:22Z</time><name>PT15567</name></trkpt>
<trkpt lat="53.353521" lon="-1.846403"><ele>310</ele><time>2020-08-05T14:03:22Z</time><name>PT15568</name></trkpt>
<trkpt lat="53.353514" lon="-1.846397"><ele>310</ele><time>2020-08-05T14:03:24Z</time><name>PT15569</name></trkpt>
<trkpt lat="53.353509" lon="-1.846391"><ele>310</ele><time>2020-08-05T14:03:25Z</time><name>PT15570</name></trkpt>
<trkpt lat="53.353509" lon="-1.846382"><ele>312</ele><time>2020-08-05T14:03:25Z</time><name>PT15571</name></trkpt>
<trkpt lat="53.353505" lon="-1.846377"><ele>311</ele><time>2020-08-05T14:03:27Z</time><name>PT15572</name></trkpt>
<trkpt lat="53.353503" lon="-1.846371"><ele>311</ele><time>2020-08-05T14:03:28Z</time><name>PT15573</name></trkpt>
<trkpt lat="53.353502" lon="-1.846361"><ele>311</ele><time>2020-08-05T14:03:28Z</time><name>PT15574</name></trkpt>
<trkpt lat="53.353495" lon="-1.846337"><ele>313</ele><time>2020-08-05T14:03:30Z</time><name>PT15575</name></trkpt>
<trkpt lat="53.353496" lon="-1.846330"><ele>312</ele><time>2020-08-05T14:03:31Z</time><name>PT15576</name></trkpt>
<trkpt lat="53.353495" lon="-1.846314"><ele>312</ele><time>2020-08-05T14:03:31Z</time><name>PT15577</name></trkpt>
<trkpt lat="53.353496" lon="-1.846299"><ele>313</ele><time>2020-08-05T14:03:33Z</time><name>PT15578</name></trkpt>
<trkpt lat="53.353496" lon="-1.846288"><ele>312</ele><time>2020-08-05T14:03:34Z</time><name>PT15579</name></trkpt>
<trkpt lat="53.353496" lon="-1.846268"><ele>313</ele><time>2020-08-05T14:03:34Z</time><name>PT15580</name></trkpt>
<trkpt lat="53.353498" lon="-1.846256"><ele>313</ele><time>2020-08-05T14:03:36Z</time><name>PT15581</name></trkpt>
<trkpt lat="53.353494" lon="-1.846239"><ele>313</ele><time>2020-08-05T14:03:37Z</time><name>PT15582</name></trkpt>
<trkpt lat="53.353490" lon="-1.846222"><ele>313</ele><time>2020-08-05T14:03:37Z</time><name>PT15583</name></trkpt>
<trkpt lat="53.353486" lon="-1.846204"><ele>313</ele><time>2020-08-05T14:03:39Z</time><name>PT15584</name></trkpt>
<trkpt lat="53.353487" lon="-1.846197"><ele>313</ele><time>2020-08-05T14:03:40Z</time><name>PT15585</name></trkpt>
<trkpt lat="53.353487" lon="-1.846193"><ele>312</ele><time>2020-08-05T14:03:40Z</time><name>PT15586</name></trkpt>
<trkpt lat="53.353492" lon="-1.846181"><ele>312</ele><time>2020-08-05T14:03:42Z</time><name>PT15587</name></trkpt>
<trkpt lat="53.353500" lon="-1.846152"><ele>313</ele><time>2020-08-05T14:03:43Z</time><name>PT15588</name></trkpt>
<trkpt lat="53.353505" lon="-1.846145"><ele>314</ele><time>2020-08-05T14:03:45Z</time><name>PT15589</name></trkpt>
<trkpt lat="53.353505" lon="-1.846133"><ele>314</ele><time>2020-08-05T14:03:46Z</time><name>PT15590</name></trkpt>
<trkpt lat="53.353502" lon="-1.846127"><ele>313</ele><time>2020-08-05T14:03:46Z</time><name>PT15591</name></trkpt>
<trkpt lat="53.353501" lon="-1.846125"><ele>313</ele><time>2020-08-05T14:03:48Z</time><name>PT15592</name></trkpt>
<trkpt lat="53.353498" lon="-1.846114"><ele>312</ele><time>2020-08-05T14:03:49Z</time><name>PT15593</name></trkpt>
<trkpt lat="53.353492" lon="-1.846110"><ele>312</ele><time>2020-08-05T14:03:49Z</time><name>PT15594</name></trkpt>
<trkpt lat="53.353489" lon="-1.846108"><ele>311</ele><time>2020-08-05T14:03:51Z</time><name>PT15595</name></trkpt>
<trkpt lat="53.353485" lon="-1.846095"><ele>311</ele><time>2020-08-05T14:03:52Z</time><name>PT15596</name></trkpt>
<trkpt lat="53.353481" lon="-1.846086"><ele>310</ele><time>2020-08-05T14:03:52Z</time><name>PT15597</name></trkpt>
<trkpt lat="53.353476" lon="-1.846081"><ele>311</ele><time>2020-08-05T14:03:54Z</time><name>PT15598</name></trkpt>
<trkpt lat="53.353468" lon="-1.846071"><ele>311</ele><time>2020-08-05T14:03:55Z</time><name>PT15599</name></trkpt>
<trkpt lat="53.353464" lon="-1.846059"><ele>310</ele><time>2020-08-05T14:03:55Z</time><name>PT15600</name></trkpt>
<trkpt lat="53.353467" lon="-1.846046"><ele>311</ele><time>2020-08-05T14:03:57Z</time><name>PT15601</name></trkpt>
<trkpt lat="53.353468" lon="-1.846036"><ele>310</ele><time>2020-08-05T14:03:58Z</time><name>PT15602</name></trkpt>
<trkpt lat="53.353471" lon="-1.846019"><ele>312</ele><time>2020-08-05T14:03:58Z</time><name>PT15603</name></trkpt>
<trkpt lat="53.353469" lon="-1.846005"><ele>312</ele><time>2020-08-05T14:04:00Z</time><name>PT15604</name></trkpt>
<trkpt lat="53.353469" lon="-1.845995"><ele>312</ele><time>2020-08-05T14:04:01Z</time><name>PT15605</name></trkpt>
<trkpt lat="53.353465" lon="-1.845984"><ele>311</ele><time>2020-08-05T14:04:01Z</time><name>PT15606</name></trkpt>
<trkpt lat="53.353464" lon="-1.845963"><ele>311</ele><time>2020-08-05T14:04:03Z</time><name>PT15607</name></trkpt>
<trkpt lat="53.353467" lon="-1.845952"><ele>311</ele><time>2020-08-05T14:04:04Z</time><name>PT15608</name></trkpt>
<trkpt lat="53.353469" lon="-1.845939"><ele>311</ele><time>2020-08-05T14:04:04Z</time><name>PT15609</name></trkpt>
<trkpt lat="53.353472" lon="-1.845923"><ele>311</ele><time>2020-08-05T14:04:06Z</time><name>PT15610</name></trkpt>
<trkpt lat="53.353471" lon="-1.845902"><ele>312</ele><time>2020-08-05T14:04:07Z</time><name>PT15611</name></trkpt>
<trkpt lat="53.353469" lon="-1.845868"><ele>312</ele><time>2020-08-05T14:04:09Z</time><name>PT15612</name></trkpt>
<trkpt lat="53.353469" lon="-1.845857"><ele>312</ele><time>2020-08-05T14:04:10Z</time><name>PT15613</name></trkpt>
<trkpt lat="53.353469" lon="-1.845840"><ele>312</ele><time>2020-08-05T14:04:10Z</time><name>PT15614</name></trkpt>
<trkpt lat="53.353467" lon="-1.845825"><ele>312</ele><time>2020-08-05T14:04:12Z</time><name>PT15615</name></trkpt>
<trkpt lat="53.353463" lon="-1.845806"><ele>312</ele><time>2020-08-05T14:04:13Z</time><name>PT15616</name></trkpt>
<trkpt lat="53.353460" lon="-1.845782"><ele>312</ele><time>2020-08-05T14:04:13Z</time><name>PT15617</name></trkpt>
<trkpt lat="53.353457" lon="-1.845768"><ele>312</ele><time>2020-08-05T14:04:15Z</time><name>PT15618</name></trkpt>
<trkpt lat="53.353453" lon="-1.845755"><ele>312</ele><time>2020-08-05T14:04:16Z</time><name>PT15619</name></trkpt>
<trkpt lat="53.353451" lon="-1.845741"><ele>313</ele><time>2020-08-05T14:04:16Z</time><name>PT15620</name></trkpt>
<trkpt lat="53.353452" lon="-1.845740"><ele>313</ele><time>2020-08-05T14:04:18Z</time><name>PT15621</name></trkpt>
<trkpt lat="53.353449" lon="-1.845729"><ele>313</ele><time>2020-08-05T14:04:19Z</time><name>PT15622</name></trkpt>
<trkpt lat="53.353446" lon="-1.845722"><ele>313</ele><time>2020-08-05T14:04:19Z</time><name>PT15623</name></trkpt>
<trkpt lat="53.353438" lon="-1.845723"><ele>313</ele><time>2020-08-05T14:04:21Z</time><name>PT15624</name></trkpt>
<trkpt lat="53.353432" lon="-1.845720"><ele>312</ele><time>2020-08-05T14:04:22Z</time><name>PT15625</name></trkpt>
<trkpt lat="53.353427" lon="-1.845715"><ele>312</ele><time>2020-08-05T14:04:22Z</time><name>PT15626</name></trkpt>
<trkpt lat="53.353424" lon="-1.845713"><ele>312</ele><time>2020-08-05T14:04:24Z</time><name>PT15627</name></trkpt>
<trkpt lat="53.353423" lon="-1.845711"><ele>312</ele><time>2020-08-05T14:04:25Z</time><name>PT15628</name></trkpt>
<trkpt lat="53.353427" lon="-1.845704"><ele>312</ele><time>2020-08-05T14:04:26Z</time><name>PT15629</name></trkpt>
<trkpt lat="53.353427" lon="-1.845698"><ele>312</ele><time>2020-08-05T14:04:27Z</time><name>PT15630</name></trkpt>
<trkpt lat="53.353426" lon="-1.845687"><ele>313</ele><time>2020-08-05T14:04:28Z</time><name>PT15631</name></trkpt>
<trkpt lat="53.353425" lon="-1.845681"><ele>313</ele><time>2020-08-05T14:04:29Z</time><name>PT15632</name></trkpt>
<trkpt lat="53.353423" lon="-1.845685"><ele>314</ele><time>2020-08-05T14:04:30Z</time><name>PT15633</name></trkpt>
<trkpt lat="53.353420" lon="-1.845689"><ele>313</ele><time>2020-08-05T14:04:31Z</time><name>PT15634</name></trkpt>
<trkpt lat="53.353413" lon="-1.845688"><ele>313</ele><time>2020-08-05T14:04:33Z</time><name>PT15635</name></trkpt>
<trkpt lat="53.353414" lon="-1.845687"><ele>313</ele><time>2020-08-05T14:04:34Z</time><name>PT15636</name></trkpt>
<trkpt lat="53.353413" lon="-1.845688"><ele>313</ele><time>2020-08-05T14:04:35Z</time><name>PT15637</name></trkpt>
<trkpt lat="53.353411" lon="-1.845693"><ele>313</ele><time>2020-08-05T14:04:36Z</time><name>PT15638</name></trkpt>
<trkpt lat="53.353409" lon="-1.845695"><ele>312</ele><time>2020-08-05T14:04:37Z</time><name>PT15639</name></trkpt>
<trkpt lat="53.353409" lon="-1.845695"><ele>312</ele><time>2020-08-05T14:04:37Z</time><name>PT15640</name></trkpt>
<trkpt lat="53.353412" lon="-1.845690"><ele>313</ele><time>2020-08-05T14:04:39Z</time><name>PT15641</name></trkpt>
<trkpt lat="53.353412" lon="-1.845692"><ele>313</ele><time>2020-08-05T14:04:40Z</time><name>PT15642</name></trkpt>
<trkpt lat="53.353410" lon="-1.845685"><ele>313</ele><time>2020-08-05T14:05:13Z</time><name>PT15643</name></trkpt>
<trkpt lat="53.353397" lon="-1.845671"><ele>314</ele><time>2020-08-05T14:05:13Z</time><name>PT15644</name></trkpt>
<trkpt lat="53.353384" lon="-1.845657"><ele>315</ele><time>2020-08-05T14:05:15Z</time><name>PT15645</name></trkpt>
<trkpt lat="53.353377" lon="-1.845654"><ele>315</ele><time>2020-08-05T14:05:16Z</time><name>PT15646</name></trkpt>
<trkpt lat="53.353370" lon="-1.845656"><ele>315</ele><time>2020-08-05T14:05:16Z</time><name>PT15647</name></trkpt>
<trkpt lat="53.353360" lon="-1.845645"><ele>316</ele><time>2020-08-05T14:05:18Z</time><name>PT15648</name></trkpt>
<trkpt lat="53.353348" lon="-1.845644"><ele>316</ele><time>2020-08-05T14:05:19Z</time><name>PT15649</name></trkpt>
<trkpt lat="53.353313" lon="-1.845627"><ele>316</ele><time>2020-08-05T14:05:22Z</time><name>PT15650</name></trkpt>
<trkpt lat="53.353303" lon="-1.845622"><ele>316</ele><time>2020-08-05T14:05:22Z</time><name>PT15651</name></trkpt>
<trkpt lat="53.353294" lon="-1.845622"><ele>316</ele><time>2020-08-05T14:05:24Z</time><name>PT15652</name></trkpt>
<trkpt lat="53.353287" lon="-1.845624"><ele>316</ele><time>2020-08-05T14:05:25Z</time><name>PT15653</name></trkpt>
<trkpt lat="53.353285" lon="-1.845626"><ele>316</ele><time>2020-08-05T14:05:26Z</time><name>PT15654</name></trkpt>
<trkpt lat="53.353279" lon="-1.845626"><ele>317</ele><time>2020-08-05T14:05:27Z</time><name>PT15655</name></trkpt>
<trkpt lat="53.353269" lon="-1.845624"><ele>317</ele><time>2020-08-05T14:05:28Z</time><name>PT15656</name></trkpt>
<trkpt lat="53.353261" lon="-1.845616"><ele>318</ele><time>2020-08-05T14:05:28Z</time><name>PT15657</name></trkpt>
<trkpt lat="53.353255" lon="-1.845611"><ele>318</ele><time>2020-08-05T14:05:30Z</time><name>PT15658</name></trkpt>
<trkpt lat="53.353252" lon="-1.845603"><ele>319</ele><time>2020-08-05T14:05:31Z</time><name>PT15659</name></trkpt>
<trkpt lat="53.353251" lon="-1.845599"><ele>319</ele><time>2020-08-05T14:05:31Z</time><name>PT15660</name></trkpt>
<trkpt lat="53.353246" lon="-1.845597"><ele>320</ele><time>2020-08-05T14:05:33Z</time><name>PT15661</name></trkpt>
<trkpt lat="53.353239" lon="-1.845592"><ele>320</ele><time>2020-08-05T14:05:34Z</time><name>PT15662</name></trkpt>
<trkpt lat="53.353231" lon="-1.845589"><ele>320</ele><time>2020-08-05T14:05:34Z</time><name>PT15663</name></trkpt>
<trkpt lat="53.353222" lon="-1.845590"><ele>321</ele><time>2020-08-05T14:05:36Z</time><name>PT15664</name></trkpt>
<trkpt lat="53.353215" lon="-1.845592"><ele>321</ele><time>2020-08-05T14:05:37Z</time><name>PT15665</name></trkpt>
<trkpt lat="53.353209" lon="-1.845592"><ele>321</ele><time>2020-08-05T14:05:37Z</time><name>PT15666</name></trkpt>
<trkpt lat="53.353203" lon="-1.845590"><ele>321</ele><time>2020-08-05T14:05:39Z</time><name>PT15667</name></trkpt>
<trkpt lat="53.353197" lon="-1.845588"><ele>320</ele><time>2020-08-05T14:05:40Z</time><name>PT15668</name></trkpt>
<trkpt lat="53.353194" lon="-1.845588"><ele>320</ele><time>2020-08-05T14:05:40Z</time><name>PT15669</name></trkpt>
<trkpt lat="53.353187" lon="-1.845579"><ele>321</ele><time>2020-08-05T14:05:42Z</time><name>PT15670</name></trkpt>
<trkpt lat="53.353179" lon="-1.845577"><ele>321</ele><time>2020-08-05T14:05:43Z</time><name>PT15671</name></trkpt>
<trkpt lat="53.353169" lon="-1.845577"><ele>321</ele><time>2020-08-05T14:05:43Z</time><name>PT15672</name></trkpt>
<trkpt lat="53.353165" lon="-1.845578"><ele>321</ele><time>2020-08-05T14:05:45Z</time><name>PT15673</name></trkpt>
<trkpt lat="53.353161" lon="-1.845578"><ele>321</ele><time>2020-08-05T14:05:46Z</time><name>PT15674</name></trkpt>
<trkpt lat="53.353157" lon="-1.845573"><ele>322</ele><time>2020-08-05T14:05:46Z</time><name>PT15675</name></trkpt>
<trkpt lat="53.353142" lon="-1.845573"><ele>322</ele><time>2020-08-05T14:05:49Z</time><name>PT15676</name></trkpt>
<trkpt lat="53.353132" lon="-1.845573"><ele>322</ele><time>2020-08-05T14:05:49Z</time><name>PT15677</name></trkpt>
<trkpt lat="53.353128" lon="-1.845568"><ele>322</ele><time>2020-08-05T14:05:51Z</time><name>PT15678</name></trkpt>
<trkpt lat="53.353123" lon="-1.845562"><ele>322</ele><time>2020-08-05T14:05:52Z</time><name>PT15679</name></trkpt>
<trkpt lat="53.353117" lon="-1.845562"><ele>323</ele><time>2020-08-05T14:05:52Z</time><name>PT15680</name></trkpt>
<trkpt lat="53.353108" lon="-1.845566"><ele>323</ele><time>2020-08-05T14:05:54Z</time><name>PT15681</name></trkpt>
<trkpt lat="53.353102" lon="-1.845564"><ele>323</ele><time>2020-08-05T14:05:55Z</time><name>PT15682</name></trkpt>
<trkpt lat="53.353100" lon="-1.845566"><ele>323</ele><time>2020-08-05T14:05:55Z</time><name>PT15683</name></trkpt>
<trkpt lat="53.353095" lon="-1.845561"><ele>323</ele><time>2020-08-05T14:05:57Z</time><name>PT15684</name></trkpt>
<trkpt lat="53.353095" lon="-1.845561"><ele>324</ele><time>2020-08-05T14:05:58Z</time><name>PT15685</name></trkpt>
<trkpt lat="53.353090" lon="-1.845562"><ele>324</ele><time>2020-08-05T14:05:59Z</time><name>PT15686</name></trkpt>
<trkpt lat="53.353082" lon="-1.845555"><ele>325</ele><time>2020-08-05T14:06:00Z</time><name>PT15687</name></trkpt>
<trkpt lat="53.353076" lon="-1.845551"><ele>325</ele><time>2020-08-05T14:06:01Z</time><name>PT15688</name></trkpt>
<trkpt lat="53.353068" lon="-1.845548"><ele>324</ele><time>2020-08-05T14:06:02Z</time><name>PT15689</name></trkpt>
<trkpt lat="53.353054" lon="-1.845541"><ele>326</ele><time>2020-08-05T14:06:03Z</time><name>PT15690</name></trkpt>
<trkpt lat="53.353041" lon="-1.845539"><ele>325</ele><time>2020-08-05T14:06:05Z</time><name>PT15691</name></trkpt>
<trkpt lat="53.353037" lon="-1.845545"><ele>324</ele><time>2020-08-05T14:06:06Z</time><name>PT15692</name></trkpt>
<trkpt lat="53.353033" lon="-1.845546"><ele>324</ele><time>2020-08-05T14:06:07Z</time><name>PT15693</name></trkpt>
<trkpt lat="53.353027" lon="-1.845544"><ele>323</ele><time>2020-08-05T14:06:07Z</time><name>PT15694</name></trkpt>
<trkpt lat="53.353023" lon="-1.845543"><ele>323</ele><time>2020-08-05T14:06:09Z</time><name>PT15695</name></trkpt>
<trkpt lat="53.353018" lon="-1.845541"><ele>323</ele><time>2020-08-05T14:06:10Z</time><name>PT15696</name></trkpt>
<trkpt lat="53.353012" lon="-1.845538"><ele>323</ele><time>2020-08-05T14:06:10Z</time><name>PT15697</name></trkpt>
<trkpt lat="53.353006" lon="-1.845537"><ele>323</ele><time>2020-08-05T14:06:12Z</time><name>PT15698</name></trkpt>
<trkpt lat="53.353001" lon="-1.845535"><ele>323</ele><time>2020-08-05T14:06:13Z</time><name>PT15699</name></trkpt>
<trkpt lat="53.352994" lon="-1.845536"><ele>324</ele><time>2020-08-05T14:06:13Z</time><name>PT15700</name></trkpt>
<trkpt lat="53.352988" lon="-1.845537"><ele>324</ele><time>2020-08-05T14:06:15Z</time><name>PT15701</name></trkpt>
<trkpt lat="53.352984" lon="-1.845537"><ele>324</ele><time>2020-08-05T14:06:16Z</time><name>PT15702</name></trkpt>
<trkpt lat="53.352979" lon="-1.845537"><ele>325</ele><time>2020-08-05T14:06:16Z</time><name>PT15703</name></trkpt>
<trkpt lat="53.352972" lon="-1.845535"><ele>325</ele><time>2020-08-05T14:06:18Z</time><name>PT15704</name></trkpt>
<trkpt lat="53.352968" lon="-1.845533"><ele>325</ele><time>2020-08-05T14:06:19Z</time><name>PT15705</name></trkpt>
<trkpt lat="53.352962" lon="-1.845531"><ele>325</ele><time>2020-08-05T14:06:19Z</time><name>PT15706</name></trkpt>
<trkpt lat="53.352954" lon="-1.845529"><ele>326</ele><time>2020-08-05T14:06:21Z</time><name>PT15707</name></trkpt>
<trkpt lat="53.352948" lon="-1.845529"><ele>326</ele><time>2020-08-05T14:06:22Z</time><name>PT15708</name></trkpt>
<trkpt lat="53.352945" lon="-1.845529"><ele>327</ele><time>2020-08-05T14:06:22Z</time><name>PT15709</name></trkpt>
<trkpt lat="53.352939" lon="-1.845528"><ele>327</ele><time>2020-08-05T14:06:24Z</time><name>PT15710</name></trkpt>
<trkpt lat="53.352932" lon="-1.845530"><ele>327</ele><time>2020-08-05T14:06:25Z</time><name>PT15711</name></trkpt>
<trkpt lat="53.352927" lon="-1.845526"><ele>328</ele><time>2020-08-05T14:06:25Z</time><name>PT15712</name></trkpt>
<trkpt lat="53.352924" lon="-1.845522"><ele>328</ele><time>2020-08-05T14:06:27Z</time><name>PT15713</name></trkpt>
<trkpt lat="53.352920" lon="-1.845521"><ele>328</ele><time>2020-08-05T14:06:28Z</time><name>PT15714</name></trkpt>
<trkpt lat="53.352917" lon="-1.845519"><ele>329</ele><time>2020-08-05T14:06:28Z</time><name>PT15715</name></trkpt>
<trkpt lat="53.352915" lon="-1.845521"><ele>329</ele><time>2020-08-05T14:06:30Z</time><name>PT15716</name></trkpt>
<trkpt lat="53.352910" lon="-1.845522"><ele>329</ele><time>2020-08-05T14:06:31Z</time><name>PT15717</name></trkpt>
<trkpt lat="53.352904" lon="-1.845520"><ele>329</ele><time>2020-08-05T14:06:31Z</time><name>PT15718</name></trkpt>
<trkpt lat="53.352901" lon="-1.845522"><ele>329</ele><time>2020-08-05T14:06:33Z</time><name>PT15719</name></trkpt>
<trkpt lat="53.352898" lon="-1.845520"><ele>330</ele><time>2020-08-05T14:06:34Z</time><name>PT15720</name></trkpt>
<trkpt lat="53.352893" lon="-1.845526"><ele>329</ele><time>2020-08-05T14:06:34Z</time><name>PT15721</name></trkpt>
<trkpt lat="53.352888" lon="-1.845529"><ele>329</ele><time>2020-08-05T14:06:36Z</time><name>PT15722</name></trkpt>
<trkpt lat="53.352885" lon="-1.845529"><ele>330</ele><time>2020-08-05T14:06:37Z</time><name>PT15723</name></trkpt>
<trkpt lat="53.352882" lon="-1.845530"><ele>330</ele><time>2020-08-05T14:06:37Z</time><name>PT15724</name></trkpt>
<trkpt lat="53.352881" lon="-1.845529"><ele>330</ele><time>2020-08-05T14:06:39Z</time><name>PT15725</name></trkpt>
<trkpt lat="53.352879" lon="-1.845529"><ele>331</ele><time>2020-08-05T14:06:40Z</time><name>PT15726</name></trkpt>
<trkpt lat="53.352881" lon="-1.845536"><ele>330</ele><time>2020-08-05T14:06:40Z</time><name>PT15727</name></trkpt>
<trkpt lat="53.352876" lon="-1.845539"><ele>330</ele><time>2020-08-05T14:06:42Z</time><name>PT15728</name></trkpt>
<trkpt lat="53.352871" lon="-1.845536"><ele>330</ele><time>2020-08-05T14:06:43Z</time><name>PT15729</name></trkpt>
<trkpt lat="53.352865" lon="-1.845535"><ele>330</ele><time>2020-08-05T14:06:43Z</time><name>PT15730</name></trkpt>
<trkpt lat="53.352861" lon="-1.845539"><ele>330</ele><time>2020-08-05T14:06:45Z</time><name>PT15731</name></trkpt>
<trkpt lat="53.352855" lon="-1.845543"><ele>330</ele><time>2020-08-05T14:06:46Z</time><name>PT15732</name></trkpt>
<trkpt lat="53.352856" lon="-1.845547"><ele>330</ele><time>2020-08-05T14:06:47Z</time><name>PT15733</name></trkpt>
<trkpt lat="53.352857" lon="-1.845550"><ele>331</ele><time>2020-08-05T14:06:48Z</time><name>PT15734</name></trkpt>
<trkpt lat="53.352853" lon="-1.845550"><ele>331</ele><time>2020-08-05T14:06:49Z</time><name>PT15735</name></trkpt>
<trkpt lat="53.352849" lon="-1.845548"><ele>331</ele><time>2020-08-05T14:06:49Z</time><name>PT15736</name></trkpt>
<trkpt lat="53.352845" lon="-1.845542"><ele>331</ele><time>2020-08-05T14:06:51Z</time><name>PT15737</name></trkpt>
<trkpt lat="53.352843" lon="-1.845539"><ele>331</ele><time>2020-08-05T14:06:52Z</time><name>PT15738</name></trkpt>
<trkpt lat="53.352840" lon="-1.845540"><ele>331</ele><time>2020-08-05T14:06:52Z</time><name>PT15739</name></trkpt>
<trkpt lat="53.352838" lon="-1.845539"><ele>331</ele><time>2020-08-05T14:06:54Z</time><name>PT15740</name></trkpt>
<trkpt lat="53.352834" lon="-1.845535"><ele>332</ele><time>2020-08-05T14:06:55Z</time><name>PT15741</name></trkpt>
<trkpt lat="53.352832" lon="-1.845532"><ele>332</ele><time>2020-08-05T14:06:55Z</time><name>PT15742</name></trkpt>
<trkpt lat="53.352830" lon="-1.845532"><ele>332</ele><time>2020-08-05T14:06:57Z</time><name>PT15743</name></trkpt>
<trkpt lat="53.352827" lon="-1.845529"><ele>332</ele><time>2020-08-05T14:06:58Z</time><name>PT15744</name></trkpt>
<trkpt lat="53.352823" lon="-1.845524"><ele>333</ele><time>2020-08-05T14:06:58Z</time><name>PT15745</name></trkpt>
<trkpt lat="53.352821" lon="-1.845522"><ele>333</ele><time>2020-08-05T14:07:01Z</time><name>PT15746</name></trkpt>
<trkpt lat="53.352810" lon="-1.845520"><ele>334</ele><time>2020-08-05T14:07:03Z</time><name>PT15747</name></trkpt>
<trkpt lat="53.352806" lon="-1.845527"><ele>334</ele><time>2020-08-05T14:07:04Z</time><name>PT15748</name></trkpt>
<trkpt lat="53.352800" lon="-1.845529"><ele>334</ele><time>2020-08-05T14:07:04Z</time><name>PT15749</name></trkpt>
<trkpt lat="53.352795" lon="-1.845534"><ele>334</ele><time>2020-08-05T14:07:05Z</time><name>PT15750</name></trkpt>
<trkpt lat="53.352790" lon="-1.845539"><ele>334</ele><time>2020-08-05T14:07:07Z</time><name>PT15751</name></trkpt>
<trkpt lat="53.352788" lon="-1.845539"><ele>334</ele><time>2020-08-05T14:07:07Z</time><name>PT15752</name></trkpt>
<trkpt lat="53.352783" lon="-1.845542"><ele>334</ele><time>2020-08-05T14:07:09Z</time><name>PT15753</name></trkpt>
<trkpt lat="53.352781" lon="-1.845543"><ele>334</ele><time>2020-08-05T14:07:10Z</time><name>PT15754</name></trkpt>
<trkpt lat="53.352778" lon="-1.845539"><ele>335</ele><time>2020-08-05T14:07:10Z</time><name>PT15755</name></trkpt>
<trkpt lat="53.352778" lon="-1.845543"><ele>336</ele><time>2020-08-05T14:07:12Z</time><name>PT15756</name></trkpt>
<trkpt lat="53.352771" lon="-1.845545"><ele>335</ele><time>2020-08-05T14:07:13Z</time><name>PT15757</name></trkpt>
<trkpt lat="53.352767" lon="-1.845545"><ele>336</ele><time>2020-08-05T14:07:13Z</time><name>PT15758</name></trkpt>
<trkpt lat="53.352768" lon="-1.845539"><ele>337</ele><time>2020-08-05T14:07:15Z</time><name>PT15759</name></trkpt>
<trkpt lat="53.352765" lon="-1.845534"><ele>337</ele><time>2020-08-05T14:07:16Z</time><name>PT15760</name></trkpt>
<trkpt lat="53.352757" lon="-1.845535"><ele>336</ele><time>2020-08-05T14:07:16Z</time><name>PT15761</name></trkpt>
<trkpt lat="53.352751" lon="-1.845535"><ele>337</ele><time>2020-08-05T14:07:18Z</time><name>PT15762</name></trkpt>
<trkpt lat="53.352744" lon="-1.845537"><ele>336</ele><time>2020-08-05T14:07:19Z</time><name>PT15763</name></trkpt>
<trkpt lat="53.352739" lon="-1.845537"><ele>336</ele><time>2020-08-05T14:07:19Z</time><name>PT15764</name></trkpt>
<trkpt lat="53.352735" lon="-1.845540"><ele>336</ele><time>2020-08-05T14:07:21Z</time><name>PT15765</name></trkpt>
<trkpt lat="53.352733" lon="-1.845539"><ele>336</ele><time>2020-08-05T14:07:22Z</time><name>PT15766</name></trkpt>
<trkpt lat="53.352727" lon="-1.845548"><ele>336</ele><time>2020-08-05T14:07:24Z</time><name>PT15767</name></trkpt>
<trkpt lat="53.352721" lon="-1.845543"><ele>336</ele><time>2020-08-05T14:07:25Z</time><name>PT15768</name></trkpt>
<trkpt lat="53.352715" lon="-1.845533"><ele>335</ele><time>2020-08-05T14:07:26Z</time><name>PT15769</name></trkpt>
<trkpt lat="53.352708" lon="-1.845528"><ele>335</ele><time>2020-08-05T14:07:27Z</time><name>PT15770</name></trkpt>
<trkpt lat="53.352706" lon="-1.845521"><ele>335</ele><time>2020-08-05T14:07:28Z</time><name>PT15771</name></trkpt>
<trkpt lat="53.352702" lon="-1.845520"><ele>335</ele><time>2020-08-05T14:07:28Z</time><name>PT15772</name></trkpt>
<trkpt lat="53.352699" lon="-1.845520"><ele>336</ele><time>2020-08-05T14:07:30Z</time><name>PT15773</name></trkpt>
<trkpt lat="53.352693" lon="-1.845518"><ele>336</ele><time>2020-08-05T14:07:31Z</time><name>PT15774</name></trkpt>
<trkpt lat="53.352687" lon="-1.845521"><ele>335</ele><time>2020-08-05T14:07:31Z</time><name>PT15775</name></trkpt>
<trkpt lat="53.352681" lon="-1.845527"><ele>335</ele><time>2020-08-05T14:07:32Z</time><name>PT15776</name></trkpt>
<trkpt lat="53.352683" lon="-1.845515"><ele>337</ele><time>2020-08-05T14:07:34Z</time><name>PT15777</name></trkpt>
<trkpt lat="53.352680" lon="-1.845511"><ele>336</ele><time>2020-08-05T14:07:34Z</time><name>PT15778</name></trkpt>
<trkpt lat="53.352678" lon="-1.845509"><ele>337</ele><time>2020-08-05T14:07:36Z</time><name>PT15779</name></trkpt>
<trkpt lat="53.352674" lon="-1.845508"><ele>337</ele><time>2020-08-05T14:07:37Z</time><name>PT15780</name></trkpt>
<trkpt lat="53.352671" lon="-1.845508"><ele>337</ele><time>2020-08-05T14:07:37Z</time><name>PT15781</name></trkpt>
<trkpt lat="53.352667" lon="-1.845507"><ele>337</ele><time>2020-08-05T14:07:39Z</time><name>PT15782</name></trkpt>
<trkpt lat="53.352666" lon="-1.845506"><ele>338</ele><time>2020-08-05T14:07:40Z</time><name>PT15783</name></trkpt>
<trkpt lat="53.352666" lon="-1.845502"><ele>339</ele><time>2020-08-05T14:07:41Z</time><name>PT15784</name></trkpt>
<trkpt lat="53.352664" lon="-1.845500"><ele>339</ele><time>2020-08-05T14:07:41Z</time><name>PT15785</name></trkpt>
<trkpt lat="53.352666" lon="-1.845498"><ele>338</ele><time>2020-08-05T14:07:43Z</time><name>PT15786</name></trkpt>
<trkpt lat="53.352659" lon="-1.845488"><ele>338</ele><time>2020-08-05T14:07:43Z</time><name>PT15787</name></trkpt>
<trkpt lat="53.352658" lon="-1.845482"><ele>340</ele><time>2020-08-05T14:07:45Z</time><name>PT15788</name></trkpt>
<trkpt lat="53.352658" lon="-1.845477"><ele>341</ele><time>2020-08-05T14:07:46Z</time><name>PT15789</name></trkpt>
<trkpt lat="53.352656" lon="-1.845475"><ele>341</ele><time>2020-08-05T14:07:47Z</time><name>PT15790</name></trkpt>
<trkpt lat="53.352653" lon="-1.845476"><ele>342</ele><time>2020-08-05T14:07:48Z</time><name>PT15791</name></trkpt>
<trkpt lat="53.352650" lon="-1.845481"><ele>342</ele><time>2020-08-05T14:07:49Z</time><name>PT15792</name></trkpt>
<trkpt lat="53.352645" lon="-1.845481"><ele>342</ele><time>2020-08-05T14:07:50Z</time><name>PT15793</name></trkpt>
<trkpt lat="53.352642" lon="-1.845484"><ele>342</ele><time>2020-08-05T14:07:51Z</time><name>PT15794</name></trkpt>
<trkpt lat="53.352641" lon="-1.845484"><ele>342</ele><time>2020-08-05T14:07:52Z</time><name>PT15795</name></trkpt>
<trkpt lat="53.352640" lon="-1.845483"><ele>343</ele><time>2020-08-05T14:07:53Z</time><name>PT15796</name></trkpt>
<trkpt lat="53.352636" lon="-1.845484"><ele>342</ele><time>2020-08-05T14:07:54Z</time><name>PT15797</name></trkpt>
<trkpt lat="53.352628" lon="-1.845489"><ele>343</ele><time>2020-08-05T14:07:55Z</time><name>PT15798</name></trkpt>
<trkpt lat="53.352619" lon="-1.845489"><ele>343</ele><time>2020-08-05T14:07:55Z</time><name>PT15799</name></trkpt>
<trkpt lat="53.352612" lon="-1.845490"><ele>343</ele><time>2020-08-05T14:07:57Z</time><name>PT15800</name></trkpt>
<trkpt lat="53.352613" lon="-1.845491"><ele>343</ele><time>2020-08-05T14:07:58Z</time><name>PT15801</name></trkpt>
<trkpt lat="53.352610" lon="-1.845490"><ele>343</ele><time>2020-08-05T14:07:58Z</time><name>PT15802</name></trkpt>
<trkpt lat="53.352612" lon="-1.845487"><ele>343</ele><time>2020-08-05T14:08:00Z</time><name>PT15803</name></trkpt>
<trkpt lat="53.352610" lon="-1.845490"><ele>343</ele><time>2020-08-05T14:08:01Z</time><name>PT15804</name></trkpt>
<trkpt lat="53.352608" lon="-1.845490"><ele>343</ele><time>2020-08-05T14:08:01Z</time><name>PT15805</name></trkpt>
<trkpt lat="53.352607" lon="-1.845487"><ele>344</ele><time>2020-08-05T14:08:02Z</time><name>PT15806</name></trkpt>
<trkpt lat="53.352607" lon="-1.845489"><ele>344</ele><time>2020-08-05T14:08:04Z</time><name>PT15807</name></trkpt>
<trkpt lat="53.352603" lon="-1.845486"><ele>344</ele><time>2020-08-05T14:08:04Z</time><name>PT15808</name></trkpt>
<trkpt lat="53.352600" lon="-1.845483"><ele>345</ele><time>2020-08-05T14:08:06Z</time><name>PT15809</name></trkpt>
<trkpt lat="53.352595" lon="-1.845485"><ele>344</ele><time>2020-08-05T14:08:07Z</time><name>PT15810</name></trkpt>
<trkpt lat="53.352596" lon="-1.845485"><ele>344</ele><time>2020-08-05T14:08:07Z</time><name>PT15811</name></trkpt>
<trkpt lat="53.352587" lon="-1.845479"><ele>346</ele><time>2020-08-05T14:08:10Z</time><name>PT15812</name></trkpt>
<trkpt lat="53.352583" lon="-1.845480"><ele>346</ele><time>2020-08-05T14:08:10Z</time><name>PT15813</name></trkpt>
<trkpt lat="53.352580" lon="-1.845481"><ele>347</ele><time>2020-08-05T14:08:12Z</time><name>PT15814</name></trkpt>
<trkpt lat="53.352577" lon="-1.845483"><ele>347</ele><time>2020-08-05T14:08:13Z</time><name>PT15815</name></trkpt>
<trkpt lat="53.352579" lon="-1.845483"><ele>348</ele><time>2020-08-05T14:08:13Z</time><name>PT15816</name></trkpt>
<trkpt lat="53.352578" lon="-1.845484"><ele>348</ele><time>2020-08-05T14:08:15Z</time><name>PT15817</name></trkpt>
<trkpt lat="53.352579" lon="-1.845483"><ele>348</ele><time>2020-08-05T14:08:16Z</time><name>PT15818</name></trkpt>
<trkpt lat="53.352578" lon="-1.845485"><ele>348</ele><time>2020-08-05T14:08:17Z</time><name>PT15819</name></trkpt>
<trkpt lat="53.352569" lon="-1.845489"><ele>348</ele><time>2020-08-05T14:08:18Z</time><name>PT15820</name></trkpt>
<trkpt lat="53.352562" lon="-1.845487"><ele>348</ele><time>2020-08-05T14:08:19Z</time><name>PT15821</name></trkpt>
<trkpt lat="53.352560" lon="-1.845496"><ele>348</ele><time>2020-08-05T14:08:20Z</time><name>PT15822</name></trkpt>
<trkpt lat="53.352558" lon="-1.845502"><ele>347</ele><time>2020-08-05T14:08:21Z</time><name>PT15823</name></trkpt>
<trkpt lat="53.352553" lon="-1.845497"><ele>346</ele><time>2020-08-05T14:08:22Z</time><name>PT15824</name></trkpt>
<trkpt lat="53.352548" lon="-1.845497"><ele>345</ele><time>2020-08-05T14:08:23Z</time><name>PT15825</name></trkpt>
<trkpt lat="53.352548" lon="-1.845499"><ele>346</ele><time>2020-08-05T14:08:24Z</time><name>PT15826</name></trkpt>
<trkpt lat="53.352547" lon="-1.845494"><ele>347</ele><time>2020-08-05T14:08:25Z</time><name>PT15827</name></trkpt>
<trkpt lat="53.352542" lon="-1.845494"><ele>346</ele><time>2020-08-05T14:08:26Z</time><name>PT15828</name></trkpt>
<trkpt lat="53.352534" lon="-1.845493"><ele>346</ele><time>2020-08-05T14:08:27Z</time><name>PT15829</name></trkpt>
<trkpt lat="53.352531" lon="-1.845494"><ele>347</ele><time>2020-08-05T14:08:28Z</time><name>PT15830</name></trkpt>
<trkpt lat="53.352530" lon="-1.845494"><ele>347</ele><time>2020-08-05T14:08:28Z</time><name>PT15831</name></trkpt>
<trkpt lat="53.352528" lon="-1.845493"><ele>347</ele><time>2020-08-05T14:08:30Z</time><name>PT15832</name></trkpt>
<trkpt lat="53.352522" lon="-1.845487"><ele>348</ele><time>2020-08-05T14:08:31Z</time><name>PT15833</name></trkpt>
<trkpt lat="53.352515" lon="-1.845485"><ele>349</ele><time>2020-08-05T14:08:31Z</time><name>PT15834</name></trkpt>
<trkpt lat="53.352511" lon="-1.845483"><ele>349</ele><time>2020-08-05T14:08:33Z</time><name>PT15835</name></trkpt>
<trkpt lat="53.352507" lon="-1.845488"><ele>350</ele><time>2020-08-05T14:08:34Z</time><name>PT15836</name></trkpt>
<trkpt lat="53.352505" lon="-1.845492"><ele>350</ele><time>2020-08-05T14:08:34Z</time><name>PT15837</name></trkpt>
<trkpt lat="53.352499" lon="-1.845491"><ele>350</ele><time>2020-08-05T14:08:36Z</time><name>PT15838</name></trkpt>
<trkpt lat="53.352495" lon="-1.845498"><ele>349</ele><time>2020-08-05T14:08:37Z</time><name>PT15839</name></trkpt>
<trkpt lat="53.352490" lon="-1.845496"><ele>349</ele><time>2020-08-05T14:08:37Z</time><name>PT15840</name></trkpt>
<trkpt lat="53.352488" lon="-1.845498"><ele>350</ele><time>2020-08-05T14:08:39Z</time><name>PT15841</name></trkpt>
<trkpt lat="53.352486" lon="-1.845500"><ele>350</ele><time>2020-08-05T14:08:40Z</time><name>PT15842</name></trkpt>
<trkpt lat="53.352483" lon="-1.845493"><ele>351</ele><time>2020-08-05T14:08:40Z</time><name>PT15843</name></trkpt>
<trkpt lat="53.352480" lon="-1.845492"><ele>351</ele><time>2020-08-05T14:08:42Z</time><name>PT15844</name></trkpt>
<trkpt lat="53.352472" lon="-1.845493"><ele>352</ele><time>2020-08-05T14:08:43Z</time><name>PT15845</name></trkpt>
<trkpt lat="53.352467" lon="-1.845489"><ele>353</ele><time>2020-08-05T14:08:43Z</time><name>PT15846</name></trkpt>
<trkpt lat="53.352462" lon="-1.845485"><ele>353</ele><time>2020-08-05T14:08:45Z</time><name>PT15847</name></trkpt>
<trkpt lat="53.352464" lon="-1.845484"><ele>353</ele><time>2020-08-05T14:08:46Z</time><name>PT15848</name></trkpt>
<trkpt lat="53.352457" lon="-1.845482"><ele>353</ele><time>2020-08-05T14:08:46Z</time><name>PT15849</name></trkpt>
<trkpt lat="53.352450" lon="-1.845475"><ele>353</ele><time>2020-08-05T14:08:48Z</time><name>PT15850</name></trkpt>
<trkpt lat="53.352447" lon="-1.845476"><ele>354</ele><time>2020-08-05T14:08:49Z</time><name>PT15851</name></trkpt>
<trkpt lat="53.352444" lon="-1.845477"><ele>354</ele><time>2020-08-05T14:08:49Z</time><name>PT15852</name></trkpt>
<trkpt lat="53.352442" lon="-1.845473"><ele>354</ele><time>2020-08-05T14:08:50Z</time><name>PT15853</name></trkpt>
<trkpt lat="53.352437" lon="-1.845471"><ele>354</ele><time>2020-08-05T14:08:52Z</time><name>PT15854</name></trkpt>
<trkpt lat="53.352432" lon="-1.845468"><ele>354</ele><time>2020-08-05T14:08:52Z</time><name>PT15855</name></trkpt>
<trkpt lat="53.352428" lon="-1.845463"><ele>354</ele><time>2020-08-05T14:08:54Z</time><name>PT15856</name></trkpt>
<trkpt lat="53.352425" lon="-1.845461"><ele>354</ele><time>2020-08-05T14:08:55Z</time><name>PT15857</name></trkpt>
<trkpt lat="53.352421" lon="-1.845457"><ele>354</ele><time>2020-08-05T14:08:55Z</time><name>PT15858</name></trkpt>
<trkpt lat="53.352418" lon="-1.845456"><ele>355</ele><time>2020-08-05T14:08:57Z</time><name>PT15859</name></trkpt>
<trkpt lat="53.352413" lon="-1.845454"><ele>355</ele><time>2020-08-05T14:08:58Z</time><name>PT15860</name></trkpt>
<trkpt lat="53.352409" lon="-1.845454"><ele>355</ele><time>2020-08-05T14:08:58Z</time><name>PT15861</name></trkpt>
<trkpt lat="53.352402" lon="-1.845452"><ele>355</ele><time>2020-08-05T14:08:59Z</time><name>PT15862</name></trkpt>
<trkpt lat="53.352397" lon="-1.845452"><ele>355</ele><time>2020-08-05T14:09:01Z</time><name>PT15863</name></trkpt>
<trkpt lat="53.352403" lon="-1.845446"><ele>355</ele><time>2020-08-05T14:09:07Z</time><name>PT15864</name></trkpt>
<trkpt lat="53.352399" lon="-1.845448"><ele>355</ele><time>2020-08-05T14:09:08Z</time><name>PT15865</name></trkpt>
<trkpt lat="53.352393" lon="-1.845449"><ele>355</ele><time>2020-08-05T14:09:09Z</time><name>PT15866</name></trkpt>
<trkpt lat="53.352391" lon="-1.845449"><ele>355</ele><time>2020-08-05T14:09:10Z</time><name>PT15867</name></trkpt>
<trkpt lat="53.352382" lon="-1.845440"><ele>356</ele><time>2020-08-05T14:09:11Z</time><name>PT15868</name></trkpt>
<trkpt lat="53.352376" lon="-1.845436"><ele>356</ele><time>2020-08-05T14:09:11Z</time><name>PT15869</name></trkpt>
<trkpt lat="53.352371" lon="-1.845431"><ele>356</ele><time>2020-08-05T14:09:13Z</time><name>PT15870</name></trkpt>
<trkpt lat="53.352361" lon="-1.845425"><ele>355</ele><time>2020-08-05T14:09:14Z</time><name>PT15871</name></trkpt>
<trkpt lat="53.352358" lon="-1.845422"><ele>356</ele><time>2020-08-05T14:09:15Z</time><name>PT15872</name></trkpt>
<trkpt lat="53.352357" lon="-1.845419"><ele>356</ele><time>2020-08-05T14:09:16Z</time><name>PT15873</name></trkpt>
<trkpt lat="53.352352" lon="-1.845419"><ele>356</ele><time>2020-08-05T14:09:17Z</time><name>PT15874</name></trkpt>
<trkpt lat="53.352348" lon="-1.845418"><ele>356</ele><time>2020-08-05T14:09:18Z</time><name>PT15875</name></trkpt>
<trkpt lat="53.352344" lon="-1.845417"><ele>357</ele><time>2020-08-05T14:09:19Z</time><name>PT15876</name></trkpt>
<trkpt lat="53.352342" lon="-1.845414"><ele>357</ele><time>2020-08-05T14:09:19Z</time><name>PT15877</name></trkpt>
<trkpt lat="53.352335" lon="-1.845417"><ele>357</ele><time>2020-08-05T14:09:21Z</time><name>PT15878</name></trkpt>
<trkpt lat="53.352331" lon="-1.845420"><ele>357</ele><time>2020-08-05T14:09:22Z</time><name>PT15879</name></trkpt>
<trkpt lat="53.352326" lon="-1.845418"><ele>357</ele><time>2020-08-05T14:09:22Z</time><name>PT15880</name></trkpt>
<trkpt lat="53.352319" lon="-1.845414"><ele>357</ele><time>2020-08-05T14:09:24Z</time><name>PT15881</name></trkpt>
<trkpt lat="53.352315" lon="-1.845414"><ele>357</ele><time>2020-08-05T14:09:25Z</time><name>PT15882</name></trkpt>
<trkpt lat="53.352309" lon="-1.845415"><ele>357</ele><time>2020-08-05T14:09:25Z</time><name>PT15883</name></trkpt>
<trkpt lat="53.352305" lon="-1.845413"><ele>358</ele><time>2020-08-05T14:09:26Z</time><name>PT15884</name></trkpt>
<trkpt lat="53.352299" lon="-1.845406"><ele>359</ele><time>2020-08-05T14:09:28Z</time><name>PT15885</name></trkpt>
<trkpt lat="53.352297" lon="-1.845402"><ele>359</ele><time>2020-08-05T14:09:28Z</time><name>PT15886</name></trkpt>
<trkpt lat="53.352293" lon="-1.845398"><ele>359</ele><time>2020-08-05T14:09:30Z</time><name>PT15887</name></trkpt>
<trkpt lat="53.352288" lon="-1.845401"><ele>358</ele><time>2020-08-05T14:09:31Z</time><name>PT15888</name></trkpt>
<trkpt lat="53.352283" lon="-1.845399"><ele>357</ele><time>2020-08-05T14:09:31Z</time><name>PT15889</name></trkpt>
<trkpt lat="53.352277" lon="-1.845395"><ele>357</ele><time>2020-08-05T14:09:33Z</time><name>PT15890</name></trkpt>
<trkpt lat="53.352273" lon="-1.845389"><ele>358</ele><time>2020-08-05T14:09:34Z</time><name>PT15891</name></trkpt>
<trkpt lat="53.352271" lon="-1.845387"><ele>358</ele><time>2020-08-05T14:09:34Z</time><name>PT15892</name></trkpt>
<trkpt lat="53.352269" lon="-1.845390"><ele>358</ele><time>2020-08-05T14:09:36Z</time><name>PT15893</name></trkpt>
<trkpt lat="53.352262" lon="-1.845385"><ele>358</ele><time>2020-08-05T14:09:37Z</time><name>PT15894</name></trkpt>
<trkpt lat="53.352264" lon="-1.845388"><ele>359</ele><time>2020-08-05T14:09:37Z</time><name>PT15895</name></trkpt>
<trkpt lat="53.352263" lon="-1.845382"><ele>359</ele><time>2020-08-05T14:09:39Z</time><name>PT15896</name></trkpt>
<trkpt lat="53.352265" lon="-1.845382"><ele>359</ele><time>2020-08-05T14:09:40Z</time><name>PT15897</name></trkpt>
<trkpt lat="53.352265" lon="-1.845384"><ele>360</ele><time>2020-08-05T14:09:40Z</time><name>PT15898</name></trkpt>
<trkpt lat="53.352261" lon="-1.845386"><ele>360</ele><time>2020-08-05T14:09:42Z</time><name>PT15899</name></trkpt>
<trkpt lat="53.352254" lon="-1.845389"><ele>359</ele><time>2020-08-05T14:09:43Z</time><name>PT15900</name></trkpt>
<trkpt lat="53.352250" lon="-1.845385"><ele>360</ele><time>2020-08-05T14:09:43Z</time><name>PT15901</name></trkpt>
<trkpt lat="53.352246" lon="-1.845381"><ele>361</ele><time>2020-08-05T14:09:45Z</time><name>PT15902</name></trkpt>
<trkpt lat="53.352243" lon="-1.845379"><ele>362</ele><time>2020-08-05T14:09:46Z</time><name>PT15903</name></trkpt>
<trkpt lat="53.352237" lon="-1.845379"><ele>362</ele><time>2020-08-05T14:09:46Z</time><name>PT15904</name></trkpt>
<trkpt lat="53.352235" lon="-1.845376"><ele>362</ele><time>2020-08-05T14:09:48Z</time><name>PT15905</name></trkpt>
<trkpt lat="53.352237" lon="-1.845382"><ele>362</ele><time>2020-08-05T14:09:49Z</time><name>PT15906</name></trkpt>
<trkpt lat="53.352235" lon="-1.845379"><ele>362</ele><time>2020-08-05T14:09:49Z</time><name>PT15907</name></trkpt>
<trkpt lat="53.352230" lon="-1.845376"><ele>362</ele><time>2020-08-05T14:09:51Z</time><name>PT15908</name></trkpt>
<trkpt lat="53.352224" lon="-1.845379"><ele>362</ele><time>2020-08-05T14:09:52Z</time><name>PT15909</name></trkpt>
<trkpt lat="53.352219" lon="-1.845379"><ele>362</ele><time>2020-08-05T14:09:52Z</time><name>PT15910</name></trkpt>
<trkpt lat="53.352217" lon="-1.845377"><ele>362</ele><time>2020-08-05T14:09:54Z</time><name>PT15911</name></trkpt>
<trkpt lat="53.352216" lon="-1.845374"><ele>363</ele><time>2020-08-05T14:09:55Z</time><name>PT15912</name></trkpt>
<trkpt lat="53.352221" lon="-1.845370"><ele>364</ele><time>2020-08-05T14:09:55Z</time><name>PT15913</name></trkpt>
<trkpt lat="53.352224" lon="-1.845366"><ele>363</ele><time>2020-08-05T14:09:57Z</time><name>PT15914</name></trkpt>
<trkpt lat="53.352219" lon="-1.845365"><ele>363</ele><time>2020-08-05T14:09:58Z</time><name>PT15915</name></trkpt>
<trkpt lat="53.352217" lon="-1.845360"><ele>364</ele><time>2020-08-05T14:09:58Z</time><name>PT15916</name></trkpt>
<trkpt lat="53.352214" lon="-1.845354"><ele>364</ele><time>2020-08-05T14:09:59Z</time><name>PT15917</name></trkpt>
<trkpt lat="53.352203" lon="-1.845349"><ele>364</ele><time>2020-08-05T14:10:01Z</time><name>PT15918</name></trkpt>
<trkpt lat="53.352198" lon="-1.845347"><ele>365</ele><time>2020-08-05T14:10:01Z</time><name>PT15919</name></trkpt>
<trkpt lat="53.352193" lon="-1.845338"><ele>365</ele><time>2020-08-05T14:10:03Z</time><name>PT15920</name></trkpt>
<trkpt lat="53.352191" lon="-1.845328"><ele>365</ele><time>2020-08-05T14:10:04Z</time><name>PT15921</name></trkpt>
<trkpt lat="53.352186" lon="-1.845322"><ele>366</ele><time>2020-08-05T14:10:04Z</time><name>PT15922</name></trkpt>
<trkpt lat="53.352183" lon="-1.845319"><ele>366</ele><time>2020-08-05T14:10:06Z</time><name>PT15923</name></trkpt>
<trkpt lat="53.352181" lon="-1.845314"><ele>366</ele><time>2020-08-05T14:10:07Z</time><name>PT15924</name></trkpt>
<trkpt lat="53.352177" lon="-1.845314"><ele>366</ele><time>2020-08-05T14:10:07Z</time><name>PT15925</name></trkpt>
<trkpt lat="53.352176" lon="-1.845311"><ele>366</ele><time>2020-08-05T14:10:09Z</time><name>PT15926</name></trkpt>
<trkpt lat="53.352172" lon="-1.845308"><ele>367</ele><time>2020-08-05T14:10:10Z</time><name>PT15927</name></trkpt>
<trkpt lat="53.352173" lon="-1.845307"><ele>367</ele><time>2020-08-05T14:10:10Z</time><name>PT15928</name></trkpt>
<trkpt lat="53.352174" lon="-1.845308"><ele>367</ele><time>2020-08-05T14:10:13Z</time><name>PT15929</name></trkpt>
<trkpt lat="53.352174" lon="-1.845306"><ele>368</ele><time>2020-08-05T14:10:15Z</time><name>PT15930</name></trkpt>
<trkpt lat="53.352170" lon="-1.845304"><ele>368</ele><time>2020-08-05T14:10:16Z</time><name>PT15931</name></trkpt>
<trkpt lat="53.352166" lon="-1.845301"><ele>368</ele><time>2020-08-05T14:10:17Z</time><name>PT15932</name></trkpt>
<trkpt lat="53.352156" lon="-1.845304"><ele>369</ele><time>2020-08-05T14:10:18Z</time><name>PT15933</name></trkpt>
<trkpt lat="53.352149" lon="-1.845302"><ele>368</ele><time>2020-08-05T14:10:19Z</time><name>PT15934</name></trkpt>
<trkpt lat="53.352144" lon="-1.845293"><ele>369</ele><time>2020-08-05T14:10:19Z</time><name>PT15935</name></trkpt>
<trkpt lat="53.352140" lon="-1.845291"><ele>369</ele><time>2020-08-05T14:10:21Z</time><name>PT15936</name></trkpt>
<trkpt lat="53.352135" lon="-1.845294"><ele>369</ele><time>2020-08-05T14:10:22Z</time><name>PT15937</name></trkpt>
<trkpt lat="53.352131" lon="-1.845295"><ele>370</ele><time>2020-08-05T14:10:22Z</time><name>PT15938</name></trkpt>
<trkpt lat="53.352130" lon="-1.845296"><ele>371</ele><time>2020-08-05T14:10:23Z</time><name>PT15939</name></trkpt>
<trkpt lat="53.352130" lon="-1.845300"><ele>371</ele><time>2020-08-05T14:10:25Z</time><name>PT15940</name></trkpt>
<trkpt lat="53.352127" lon="-1.845303"><ele>371</ele><time>2020-08-05T14:10:25Z</time><name>PT15941</name></trkpt>
<trkpt lat="53.352119" lon="-1.845305"><ele>371</ele><time>2020-08-05T14:10:27Z</time><name>PT15942</name></trkpt>
<trkpt lat="53.352115" lon="-1.845309"><ele>371</ele><time>2020-08-05T14:10:28Z</time><name>PT15943</name></trkpt>
<trkpt lat="53.352112" lon="-1.845313"><ele>371</ele><time>2020-08-05T14:10:28Z</time><name>PT15944</name></trkpt>
<trkpt lat="53.352109" lon="-1.845310"><ele>370</ele><time>2020-08-05T14:10:30Z</time><name>PT15945</name></trkpt>
<trkpt lat="53.352108" lon="-1.845310"><ele>371</ele><time>2020-08-05T14:10:31Z</time><name>PT15946</name></trkpt>
<trkpt lat="53.352103" lon="-1.845309"><ele>370</ele><time>2020-08-05T14:10:31Z</time><name>PT15947</name></trkpt>
<trkpt lat="53.352098" lon="-1.845305"><ele>371</ele><time>2020-08-05T14:10:33Z</time><name>PT15948</name></trkpt>
<trkpt lat="53.352095" lon="-1.845302"><ele>371</ele><time>2020-08-05T14:10:34Z</time><name>PT15949</name></trkpt>
<trkpt lat="53.352092" lon="-1.845297"><ele>371</ele><time>2020-08-05T14:10:34Z</time><name>PT15950</name></trkpt>
<trkpt lat="53.352090" lon="-1.845295"><ele>371</ele><time>2020-08-05T14:10:35Z</time><name>PT15951</name></trkpt>
<trkpt lat="53.352089" lon="-1.845295"><ele>371</ele><time>2020-08-05T14:10:37Z</time><name>PT15952</name></trkpt>
<trkpt lat="53.352087" lon="-1.845295"><ele>371</ele><time>2020-08-05T14:10:37Z</time><name>PT15953</name></trkpt>
<trkpt lat="53.352087" lon="-1.845284"><ele>371</ele><time>2020-08-05T14:10:43Z</time><name>PT15954</name></trkpt>
<trkpt lat="53.352084" lon="-1.845273"><ele>371</ele><time>2020-08-05T14:10:43Z</time><name>PT15955</name></trkpt>
<trkpt lat="53.352077" lon="-1.845269"><ele>371</ele><time>2020-08-05T14:10:45Z</time><name>PT15956</name></trkpt>
<trkpt lat="53.352074" lon="-1.845271"><ele>372</ele><time>2020-08-05T14:10:46Z</time><name>PT15957</name></trkpt>
<trkpt lat="53.352073" lon="-1.845273"><ele>372</ele><time>2020-08-05T14:10:47Z</time><name>PT15958</name></trkpt>
<trkpt lat="53.352072" lon="-1.845273"><ele>372</ele><time>2020-08-05T14:10:48Z</time><name>PT15959</name></trkpt>
<trkpt lat="53.352067" lon="-1.845282"><ele>371</ele><time>2020-08-05T14:10:50Z</time><name>PT15960</name></trkpt>
<trkpt lat="53.352065" lon="-1.845282"><ele>371</ele><time>2020-08-05T14:10:51Z</time><name>PT15961</name></trkpt>
<trkpt lat="53.352057" lon="-1.845290"><ele>371</ele><time>2020-08-05T14:10:52Z</time><name>PT15962</name></trkpt>
<trkpt lat="53.352057" lon="-1.845290"><ele>370</ele><time>2020-08-05T14:10:53Z</time><name>PT15963</name></trkpt>
<trkpt lat="53.352054" lon="-1.845287"><ele>370</ele><time>2020-08-05T14:10:54Z</time><name>PT15964</name></trkpt>
<trkpt lat="53.352050" lon="-1.845284"><ele>371</ele><time>2020-08-05T14:10:55Z</time><name>PT15965</name></trkpt>
<trkpt lat="53.352044" lon="-1.845277"><ele>371</ele><time>2020-08-05T14:10:55Z</time><name>PT15966</name></trkpt>
<trkpt lat="53.352039" lon="-1.845271"><ele>371</ele><time>2020-08-05T14:10:57Z</time><name>PT15967</name></trkpt>
<trkpt lat="53.352033" lon="-1.845270"><ele>371</ele><time>2020-08-05T14:10:58Z</time><name>PT15968</name></trkpt>
<trkpt lat="53.352030" lon="-1.845265"><ele>371</ele><time>2020-08-05T14:10:58Z</time><name>PT15969</name></trkpt>
<trkpt lat="53.352029" lon="-1.845264"><ele>372</ele><time>2020-08-05T14:11:00Z</time><name>PT15970</name></trkpt>
<trkpt lat="53.352025" lon="-1.845258"><ele>372</ele><time>2020-08-05T14:11:01Z</time><name>PT15971</name></trkpt>
<trkpt lat="53.352023" lon="-1.845256"><ele>372</ele><time>2020-08-05T14:11:01Z</time><name>PT15972</name></trkpt>
<trkpt lat="53.352019" lon="-1.845252"><ele>372</ele><time>2020-08-05T14:11:03Z</time><name>PT15973</name></trkpt>
<trkpt lat="53.352017" lon="-1.845251"><ele>372</ele><time>2020-08-05T14:11:04Z</time><name>PT15974</name></trkpt>
<trkpt lat="53.352016" lon="-1.845248"><ele>372</ele><time>2020-08-05T14:11:04Z</time><name>PT15975</name></trkpt>
<trkpt lat="53.352015" lon="-1.845251"><ele>372</ele><time>2020-08-05T14:11:06Z</time><name>PT15976</name></trkpt>
<trkpt lat="53.352011" lon="-1.845245"><ele>372</ele><time>2020-08-05T14:11:07Z</time><name>PT15977</name></trkpt>
<trkpt lat="53.352006" lon="-1.845248"><ele>371</ele><time>2020-08-05T14:11:07Z</time><name>PT15978</name></trkpt>
<trkpt lat="53.352000" lon="-1.845245"><ele>372</ele><time>2020-08-05T14:11:09Z</time><name>PT15979</name></trkpt>
<trkpt lat="53.351996" lon="-1.845240"><ele>372</ele><time>2020-08-05T14:11:10Z</time><name>PT15980</name></trkpt>
<trkpt lat="53.351994" lon="-1.845238"><ele>373</ele><time>2020-08-05T14:11:10Z</time><name>PT15981</name></trkpt>
<trkpt lat="53.351993" lon="-1.845237"><ele>373</ele><time>2020-08-05T14:11:12Z</time><name>PT15982</name></trkpt>
<trkpt lat="53.351993" lon="-1.845235"><ele>373</ele><time>2020-08-05T14:11:13Z</time><name>PT15983</name></trkpt>
<trkpt lat="53.351995" lon="-1.845228"><ele>373</ele><time>2020-08-05T14:11:14Z</time><name>PT15984</name></trkpt>
<trkpt lat="53.351986" lon="-1.845236"><ele>373</ele><time>2020-08-05T14:11:16Z</time><name>PT15985</name></trkpt>
<trkpt lat="53.351986" lon="-1.845231"><ele>374</ele><time>2020-08-05T14:11:16Z</time><name>PT15986</name></trkpt>
<trkpt lat="53.351987" lon="-1.845228"><ele>374</ele><time>2020-08-05T14:11:19Z</time><name>PT15987</name></trkpt>
<trkpt lat="53.351984" lon="-1.845225"><ele>374</ele><time>2020-08-05T14:11:19Z</time><name>PT15988</name></trkpt>
<trkpt lat="53.351981" lon="-1.845224"><ele>374</ele><time>2020-08-05T14:11:20Z</time><name>PT15989</name></trkpt>
<trkpt lat="53.351977" lon="-1.845224"><ele>374</ele><time>2020-08-05T14:11:22Z</time><name>PT15990</name></trkpt>
<trkpt lat="53.351975" lon="-1.845224"><ele>374</ele><time>2020-08-05T14:11:22Z</time><name>PT15991</name></trkpt>
<trkpt lat="53.351970" lon="-1.845221"><ele>374</ele><time>2020-08-05T14:11:24Z</time><name>PT15992</name></trkpt>
<trkpt lat="53.351965" lon="-1.845214"><ele>373</ele><time>2020-08-05T14:11:25Z</time><name>PT15993</name></trkpt>
<trkpt lat="53.351959" lon="-1.845211"><ele>374</ele><time>2020-08-05T14:11:26Z</time><name>PT15994</name></trkpt>
<trkpt lat="53.351952" lon="-1.845209"><ele>375</ele><time>2020-08-05T14:11:26Z</time><name>PT15995</name></trkpt>
<trkpt lat="53.351942" lon="-1.845210"><ele>375</ele><time>2020-08-05T14:11:28Z</time><name>PT15996</name></trkpt>
<trkpt lat="53.351938" lon="-1.845212"><ele>375</ele><time>2020-08-05T14:11:29Z</time><name>PT15997</name></trkpt>
<trkpt lat="53.351933" lon="-1.845211"><ele>376</ele><time>2020-08-05T14:11:29Z</time><name>PT15998</name></trkpt>
<trkpt lat="53.351928" lon="-1.845215"><ele>376</ele><time>2020-08-05T14:11:31Z</time><name>PT15999</name></trkpt>
<trkpt lat="53.351928" lon="-1.845217"><ele>376</ele><time>2020-08-05T14:11:31Z</time><name>PT16000</name></trkpt>
<trkpt lat="53.351926" lon="-1.845223"><ele>377</ele><time>2020-08-05T14:11:32Z</time><name>PT16001</name></trkpt>
<trkpt lat="53.351922" lon="-1.845227"><ele>377</ele><time>2020-08-05T14:11:34Z</time><name>PT16002</name></trkpt>
<trkpt lat="53.351919" lon="-1.845228"><ele>377</ele><time>2020-08-05T14:11:34Z</time><name>PT16003</name></trkpt>
<trkpt lat="53.351916" lon="-1.845226"><ele>377</ele><time>2020-08-05T14:11:36Z</time><name>PT16004</name></trkpt>
<trkpt lat="53.351912" lon="-1.845226"><ele>377</ele><time>2020-08-05T14:11:37Z</time><name>PT16005</name></trkpt>
<trkpt lat="53.351907" lon="-1.845227"><ele>377</ele><time>2020-08-05T14:11:38Z</time><name>PT16006</name></trkpt>
<trkpt lat="53.351903" lon="-1.845231"><ele>377</ele><time>2020-08-05T14:11:39Z</time><name>PT16007</name></trkpt>
<trkpt lat="53.351900" lon="-1.845229"><ele>377</ele><time>2020-08-05T14:11:40Z</time><name>PT16008</name></trkpt>
<trkpt lat="53.351896" lon="-1.845224"><ele>378</ele><time>2020-08-05T14:11:40Z</time><name>PT16009</name></trkpt>
<trkpt lat="53.351897" lon="-1.845223"><ele>378</ele><time>2020-08-05T14:11:42Z</time><name>PT16010</name></trkpt>
<trkpt lat="53.351897" lon="-1.845219"><ele>377</ele><time>2020-08-05T14:11:43Z</time><name>PT16011</name></trkpt>
<trkpt lat="53.351895" lon="-1.845215"><ele>377</ele><time>2020-08-05T14:11:43Z</time><name>PT16012</name></trkpt>
<trkpt lat="53.351892" lon="-1.845214"><ele>377</ele><time>2020-08-05T14:11:45Z</time><name>PT16013</name></trkpt>
<trkpt lat="53.351886" lon="-1.845216"><ele>377</ele><time>2020-08-05T14:11:46Z</time><name>PT16014</name></trkpt>
<trkpt lat="53.351880" lon="-1.845215"><ele>377</ele><time>2020-08-05T14:11:46Z</time><name>PT16015</name></trkpt>
<trkpt lat="53.351876" lon="-1.845217"><ele>377</ele><time>2020-08-05T14:11:47Z</time><name>PT16016</name></trkpt>
<trkpt lat="53.351875" lon="-1.845216"><ele>378</ele><time>2020-08-05T14:11:49Z</time><name>PT16017</name></trkpt>
<trkpt lat="53.351874" lon="-1.845224"><ele>378</ele><time>2020-08-05T14:11:49Z</time><name>PT16018</name></trkpt>
<trkpt lat="53.351872" lon="-1.845222"><ele>377</ele><time>2020-08-05T14:11:50Z</time><name>PT16019</name></trkpt>
<trkpt lat="53.351870" lon="-1.845220"><ele>377</ele><time>2020-08-05T14:11:52Z</time><name>PT16020</name></trkpt>
<trkpt lat="53.351867" lon="-1.845221"><ele>377</ele><time>2020-08-05T14:11:52Z</time><name>PT16021</name></trkpt>
<trkpt lat="53.351863" lon="-1.845216"><ele>377</ele><time>2020-08-05T14:11:53Z</time><name>PT16022</name></trkpt>
<trkpt lat="53.351861" lon="-1.845209"><ele>378</ele><time>2020-08-05T14:11:55Z</time><name>PT16023</name></trkpt>
<trkpt lat="53.351858" lon="-1.845201"><ele>378</ele><time>2020-08-05T14:11:55Z</time><name>PT16024</name></trkpt>
<trkpt lat="53.351856" lon="-1.845195"><ele>378</ele><time>2020-08-05T14:11:57Z</time><name>PT16025</name></trkpt>
<trkpt lat="53.351851" lon="-1.845196"><ele>378</ele><time>2020-08-05T14:11:58Z</time><name>PT16026</name></trkpt>
<trkpt lat="53.351849" lon="-1.845189"><ele>379</ele><time>2020-08-05T14:11:58Z</time><name>PT16027</name></trkpt>
<trkpt lat="53.351848" lon="-1.845184"><ele>379</ele><time>2020-08-05T14:11:59Z</time><name>PT16028</name></trkpt>
<trkpt lat="53.351843" lon="-1.845175"><ele>380</ele><time>2020-08-05T14:12:01Z</time><name>PT16029</name></trkpt>
<trkpt lat="53.351841" lon="-1.845171"><ele>380</ele><time>2020-08-05T14:12:01Z</time><name>PT16030</name></trkpt>
<trkpt lat="53.351840" lon="-1.845166"><ele>380</ele><time>2020-08-05T14:12:02Z</time><name>PT16031</name></trkpt>
<trkpt lat="53.351840" lon="-1.845168"><ele>381</ele><time>2020-08-05T14:12:04Z</time><name>PT16032</name></trkpt>
<trkpt lat="53.351839" lon="-1.845168"><ele>381</ele><time>2020-08-05T14:12:04Z</time><name>PT16033</name></trkpt>
<trkpt lat="53.351834" lon="-1.845162"><ele>382</ele><time>2020-08-05T14:12:05Z</time><name>PT16034</name></trkpt>
<trkpt lat="53.351830" lon="-1.845160"><ele>382</ele><time>2020-08-05T14:12:07Z</time><name>PT16035</name></trkpt>
<trkpt lat="53.351828" lon="-1.845158"><ele>382</ele><time>2020-08-05T14:12:08Z</time><name>PT16036</name></trkpt>
<trkpt lat="53.351827" lon="-1.845158"><ele>382</ele><time>2020-08-05T14:12:08Z</time><name>PT16037</name></trkpt>
<trkpt lat="53.351824" lon="-1.845155"><ele>382</ele><time>2020-08-05T14:12:10Z</time><name>PT16038</name></trkpt>
<trkpt lat="53.351825" lon="-1.845163"><ele>382</ele><time>2020-08-05T14:12:13Z</time><name>PT16039</name></trkpt>
<trkpt lat="53.351820" lon="-1.845149"><ele>382</ele><time>2020-08-05T14:12:15Z</time><name>PT16040</name></trkpt>
<trkpt lat="53.351820" lon="-1.845149"><ele>382</ele><time>2020-08-05T14:12:16Z</time><name>PT16041</name></trkpt>
<trkpt lat="53.351816" lon="-1.845138"><ele>383</ele><time>2020-08-05T14:12:16Z</time><name>PT16042</name></trkpt>
<trkpt lat="53.351818" lon="-1.845125"><ele>384</ele><time>2020-08-05T14:12:18Z</time><name>PT16043</name></trkpt>
<trkpt lat="53.351817" lon="-1.845126"><ele>385</ele><time>2020-08-05T14:12:19Z</time><name>PT16044</name></trkpt>
<trkpt lat="53.351817" lon="-1.845118"><ele>385</ele><time>2020-08-05T14:12:19Z</time><name>PT16045</name></trkpt>
<trkpt lat="53.351816" lon="-1.845113"><ele>385</ele><time>2020-08-05T14:12:21Z</time><name>PT16046</name></trkpt>
<trkpt lat="53.351811" lon="-1.845106"><ele>385</ele><time>2020-08-05T14:12:22Z</time><name>PT16047</name></trkpt>
<trkpt lat="53.351810" lon="-1.845101"><ele>384</ele><time>2020-08-05T14:12:23Z</time><name>PT16048</name></trkpt>
<trkpt lat="53.351810" lon="-1.845091"><ele>384</ele><time>2020-08-05T14:12:24Z</time><name>PT16049</name></trkpt>
<trkpt lat="53.351812" lon="-1.845085"><ele>383</ele><time>2020-08-05T14:12:25Z</time><name>PT16050</name></trkpt>
<trkpt lat="53.351810" lon="-1.845066"><ele>384</ele><time>2020-08-05T14:12:25Z</time><name>PT16051</name></trkpt>
<trkpt lat="53.351805" lon="-1.845057"><ele>384</ele><time>2020-08-05T14:12:27Z</time><name>PT16052</name></trkpt>
<trkpt lat="53.351802" lon="-1.845052"><ele>384</ele><time>2020-08-05T14:12:28Z</time><name>PT16053</name></trkpt>
<trkpt lat="53.351800" lon="-1.845050"><ele>383</ele><time>2020-08-05T14:12:29Z</time><name>PT16054</name></trkpt>
<trkpt lat="53.351798" lon="-1.845049"><ele>383</ele><time>2020-08-05T14:12:30Z</time><name>PT16055</name></trkpt>
<trkpt lat="53.351797" lon="-1.845044"><ele>383</ele><time>2020-08-05T14:12:31Z</time><name>PT16056</name></trkpt>
<trkpt lat="53.351797" lon="-1.845041"><ele>383</ele><time>2020-08-05T14:12:31Z</time><name>PT16057</name></trkpt>
<trkpt lat="53.351793" lon="-1.845042"><ele>383</ele><time>2020-08-05T14:12:34Z</time><name>PT16058</name></trkpt>
<trkpt lat="53.351791" lon="-1.845034"><ele>383</ele><time>2020-08-05T14:12:39Z</time><name>PT16059</name></trkpt>
<trkpt lat="53.351792" lon="-1.845032"><ele>383</ele><time>2020-08-05T14:12:40Z</time><name>PT16060</name></trkpt>
<trkpt lat="53.351792" lon="-1.845021"><ele>383</ele><time>2020-08-05T14:12:40Z</time><name>PT16061</name></trkpt>
<trkpt lat="53.351791" lon="-1.845020"><ele>383</ele><time>2020-08-05T14:12:41Z</time><name>PT16062</name></trkpt>
<trkpt lat="53.351789" lon="-1.845018"><ele>383</ele><time>2020-08-05T14:12:43Z</time><name>PT16063</name></trkpt>
<trkpt lat="53.351789" lon="-1.845016"><ele>383</ele><time>2020-08-05T14:12:43Z</time><name>PT16064</name></trkpt>
<trkpt lat="53.351796" lon="-1.845022"><ele>383</ele><time>2020-08-05T14:12:49Z</time><name>PT16065</name></trkpt>
<trkpt lat="53.351795" lon="-1.845025"><ele>383</ele><time>2020-08-05T14:12:49Z</time><name>PT16066</name></trkpt>
<trkpt lat="53.351794" lon="-1.845025"><ele>383</ele><time>2020-08-05T14:12:51Z</time><name>PT16067</name></trkpt>
<trkpt lat="53.351794" lon="-1.845026"><ele>383</ele><time>2020-08-05T14:12:52Z</time><name>PT16068</name></trkpt>
<trkpt lat="53.351795" lon="-1.845020"><ele>383</ele><time>2020-08-05T14:12:57Z</time><name>PT16069</name></trkpt>
<trkpt lat="53.351796" lon="-1.845017"><ele>383</ele><time>2020-08-05T14:12:58Z</time><name>PT16070</name></trkpt>
<trkpt lat="53.351796" lon="-1.845014"><ele>383</ele><time>2020-08-05T14:12:58Z</time><name>PT16071</name></trkpt>
<trkpt lat="53.351796" lon="-1.845010"><ele>383</ele><time>2020-08-05T14:13:00Z</time><name>PT16072</name></trkpt>
<trkpt lat="53.351790" lon="-1.845006"><ele>384</ele><time>2020-08-05T14:13:31Z</time><name>PT16073</name></trkpt>
<trkpt lat="53.351779" lon="-1.845008"><ele>384</ele><time>2020-08-05T14:13:31Z</time><name>PT16074</name></trkpt>
<trkpt lat="53.351771" lon="-1.845019"><ele>385</ele><time>2020-08-05T14:13:33Z</time><name>PT16075</name></trkpt>
<trkpt lat="53.351759" lon="-1.845018"><ele>384</ele><time>2020-08-05T14:13:34Z</time><name>PT16076</name></trkpt>
<trkpt lat="53.351751" lon="-1.845032"><ele>385</ele><time>2020-08-05T14:13:34Z</time><name>PT16077</name></trkpt>
<trkpt lat="53.351745" lon="-1.845044"><ele>385</ele><time>2020-08-05T14:13:35Z</time><name>PT16078</name></trkpt>
<trkpt lat="53.351743" lon="-1.845057"><ele>384</ele><time>2020-08-05T14:13:37Z</time><name>PT16079</name></trkpt>
<trkpt lat="53.351741" lon="-1.845064"><ele>385</ele><time>2020-08-05T14:13:37Z</time><name>PT16080</name></trkpt>
<trkpt lat="53.351734" lon="-1.845071"><ele>385</ele><time>2020-08-05T14:13:38Z</time><name>PT16081</name></trkpt>
<trkpt lat="53.351723" lon="-1.845081"><ele>385</ele><time>2020-08-05T14:13:40Z</time><name>PT16082</name></trkpt>
<trkpt lat="53.351715" lon="-1.845092"><ele>385</ele><time>2020-08-05T14:13:40Z</time><name>PT16083</name></trkpt>
<trkpt lat="53.351707" lon="-1.845095"><ele>385</ele><time>2020-08-05T14:13:42Z</time><name>PT16084</name></trkpt>
<trkpt lat="53.351699" lon="-1.845100"><ele>386</ele><time>2020-08-05T14:13:43Z</time><name>PT16085</name></trkpt>
<trkpt lat="53.351689" lon="-1.845109"><ele>386</ele><time>2020-08-05T14:13:43Z</time><name>PT16086</name></trkpt>
<trkpt lat="53.351682" lon="-1.845118"><ele>387</ele><time>2020-08-05T14:13:45Z</time><name>PT16087</name></trkpt>
<trkpt lat="53.351673" lon="-1.845130"><ele>386</ele><time>2020-08-05T14:13:46Z</time><name>PT16088</name></trkpt>
<trkpt lat="53.351666" lon="-1.845142"><ele>386</ele><time>2020-08-05T14:13:46Z</time><name>PT16089</name></trkpt>
<trkpt lat="53.351659" lon="-1.845154"><ele>387</ele><time>2020-08-05T14:13:48Z</time><name>PT16090</name></trkpt>
<trkpt lat="53.351651" lon="-1.845163"><ele>387</ele><time>2020-08-05T14:13:49Z</time><name>PT16091</name></trkpt>
<trkpt lat="53.351646" lon="-1.845174"><ele>387</ele><time>2020-08-05T14:13:49Z</time><name>PT16092</name></trkpt>
<trkpt lat="53.351643" lon="-1.845185"><ele>388</ele><time>2020-08-05T14:13:51Z</time><name>PT16093</name></trkpt>
<trkpt lat="53.351636" lon="-1.845194"><ele>387</ele><time>2020-08-05T14:13:52Z</time><name>PT16094</name></trkpt>
<trkpt lat="53.351631" lon="-1.845202"><ele>387</ele><time>2020-08-05T14:13:52Z</time><name>PT16095</name></trkpt>
<trkpt lat="53.351626" lon="-1.845215"><ele>387</ele><time>2020-08-05T14:13:54Z</time><name>PT16096</name></trkpt>
<trkpt lat="53.351620" lon="-1.845226"><ele>387</ele><time>2020-08-05T14:13:55Z</time><name>PT16097</name></trkpt>
<trkpt lat="53.351614" lon="-1.845237"><ele>387</ele><time>2020-08-05T14:13:55Z</time><name>PT16098</name></trkpt>
<trkpt lat="53.351611" lon="-1.845247"><ele>387</ele><time>2020-08-05T14:13:57Z</time><name>PT16099</name></trkpt>
<trkpt lat="53.351605" lon="-1.845255"><ele>387</ele><time>2020-08-05T14:13:58Z</time><name>PT16100</name></trkpt>
<trkpt lat="53.351601" lon="-1.845267"><ele>388</ele><time>2020-08-05T14:13:59Z</time><name>PT16101</name></trkpt>
<trkpt lat="53.351596" lon="-1.845273"><ele>388</ele><time>2020-08-05T14:14:00Z</time><name>PT16102</name></trkpt>
<trkpt lat="53.351593" lon="-1.845279"><ele>388</ele><time>2020-08-05T14:14:01Z</time><name>PT16103</name></trkpt>
<trkpt lat="53.351588" lon="-1.845289"><ele>388</ele><time>2020-08-05T14:14:02Z</time><name>PT16104</name></trkpt>
<trkpt lat="53.351580" lon="-1.845300"><ele>388</ele><time>2020-08-05T14:14:03Z</time><name>PT16105</name></trkpt>
<trkpt lat="53.351574" lon="-1.845311"><ele>388</ele><time>2020-08-05T14:14:04Z</time><name>PT16106</name></trkpt>
<trkpt lat="53.351569" lon="-1.845323"><ele>388</ele><time>2020-08-05T14:14:04Z</time><name>PT16107</name></trkpt>
<trkpt lat="53.351564" lon="-1.845334"><ele>388</ele><time>2020-08-05T14:14:06Z</time><name>PT16108</name></trkpt>
<trkpt lat="53.351557" lon="-1.845344"><ele>388</ele><time>2020-08-05T14:14:07Z</time><name>PT16109</name></trkpt>
<trkpt lat="53.351552" lon="-1.845354"><ele>388</ele><time>2020-08-05T14:14:07Z</time><name>PT16110</name></trkpt>
<trkpt lat="53.351546" lon="-1.845357"><ele>388</ele><time>2020-08-05T14:14:09Z</time><name>PT16111</name></trkpt>
<trkpt lat="53.351538" lon="-1.845366"><ele>388</ele><time>2020-08-05T14:14:10Z</time><name>PT16112</name></trkpt>
<trkpt lat="53.351533" lon="-1.845372"><ele>389</ele><time>2020-08-05T14:14:10Z</time><name>PT16113</name></trkpt>
<trkpt lat="53.351522" lon="-1.845382"><ele>388</ele><time>2020-08-05T14:14:12Z</time><name>PT16114</name></trkpt>
<trkpt lat="53.351514" lon="-1.845389"><ele>388</ele><time>2020-08-05T14:14:13Z</time><name>PT16115</name></trkpt>
<trkpt lat="53.351507" lon="-1.845393"><ele>388</ele><time>2020-08-05T14:14:13Z</time><name>PT16116</name></trkpt>
<trkpt lat="53.351501" lon="-1.845404"><ele>388</ele><time>2020-08-05T14:14:14Z</time><name>PT16117</name></trkpt>
<trkpt lat="53.351491" lon="-1.845413"><ele>388</ele><time>2020-08-05T14:14:16Z</time><name>PT16118</name></trkpt>
<trkpt lat="53.351480" lon="-1.845419"><ele>387</ele><time>2020-08-05T14:14:16Z</time><name>PT16119</name></trkpt>
<trkpt lat="53.351472" lon="-1.845425"><ele>388</ele><time>2020-08-05T14:14:18Z</time><name>PT16120</name></trkpt>
<trkpt lat="53.351464" lon="-1.845429"><ele>388</ele><time>2020-08-05T14:14:19Z</time><name>PT16121</name></trkpt>
<trkpt lat="53.351455" lon="-1.845435"><ele>388</ele><time>2020-08-05T14:14:20Z</time><name>PT16122</name></trkpt>
<trkpt lat="53.351448" lon="-1.845439"><ele>389</ele><time>2020-08-05T14:14:20Z</time><name>PT16123</name></trkpt>
<trkpt lat="53.351441" lon="-1.845446"><ele>388</ele><time>2020-08-05T14:14:22Z</time><name>PT16124</name></trkpt>
<trkpt lat="53.351432" lon="-1.845456"><ele>388</ele><time>2020-08-05T14:14:22Z</time><name>PT16125</name></trkpt>
<trkpt lat="53.351424" lon="-1.845464"><ele>388</ele><time>2020-08-05T14:14:24Z</time><name>PT16126</name></trkpt>
<trkpt lat="53.351415" lon="-1.845470"><ele>388</ele><time>2020-08-05T14:14:25Z</time><name>PT16127</name></trkpt>
<trkpt lat="53.351406" lon="-1.845478"><ele>388</ele><time>2020-08-05T14:14:25Z</time><name>PT16128</name></trkpt>
<trkpt lat="53.351398" lon="-1.845485"><ele>388</ele><time>2020-08-05T14:14:27Z</time><name>PT16129</name></trkpt>
<trkpt lat="53.351389" lon="-1.845495"><ele>389</ele><time>2020-08-05T14:14:28Z</time><name>PT16130</name></trkpt>
<trkpt lat="53.351383" lon="-1.845503"><ele>389</ele><time>2020-08-05T14:14:28Z</time><name>PT16131</name></trkpt>
<trkpt lat="53.351376" lon="-1.845507"><ele>389</ele><time>2020-08-05T14:14:29Z</time><name>PT16132</name></trkpt>
<trkpt lat="53.351371" lon="-1.845513"><ele>389</ele><time>2020-08-05T14:14:31Z</time><name>PT16133</name></trkpt>
<trkpt lat="53.351363" lon="-1.845521"><ele>389</ele><time>2020-08-05T14:14:31Z</time><name>PT16134</name></trkpt>
<trkpt lat="53.351358" lon="-1.845528"><ele>391</ele><time>2020-08-05T14:14:33Z</time><name>PT16135</name></trkpt>
<trkpt lat="53.351350" lon="-1.845534"><ele>390</ele><time>2020-08-05T14:14:34Z</time><name>PT16136</name></trkpt>
<trkpt lat="53.351344" lon="-1.845544"><ele>391</ele><time>2020-08-05T14:14:35Z</time><name>PT16137</name></trkpt>
<trkpt lat="53.351336" lon="-1.845553"><ele>391</ele><time>2020-08-05T14:14:36Z</time><name>PT16138</name></trkpt>
<trkpt lat="53.351328" lon="-1.845562"><ele>390</ele><time>2020-08-05T14:14:37Z</time><name>PT16139</name></trkpt>
<trkpt lat="53.351318" lon="-1.845570"><ele>390</ele><time>2020-08-05T14:14:37Z</time><name>PT16140</name></trkpt>
<trkpt lat="53.351312" lon="-1.845579"><ele>390</ele><time>2020-08-05T14:14:39Z</time><name>PT16141</name></trkpt>
<trkpt lat="53.351303" lon="-1.845589"><ele>390</ele><time>2020-08-05T14:14:40Z</time><name>PT16142</name></trkpt>
<trkpt lat="53.351294" lon="-1.845599"><ele>390</ele><time>2020-08-05T14:14:40Z</time><name>PT16143</name></trkpt>
<trkpt lat="53.351286" lon="-1.845606"><ele>390</ele><time>2020-08-05T14:14:42Z</time><name>PT16144</name></trkpt>
<trkpt lat="53.351278" lon="-1.845617"><ele>390</ele><time>2020-08-05T14:14:43Z</time><name>PT16145</name></trkpt>
<trkpt lat="53.351271" lon="-1.845625"><ele>390</ele><time>2020-08-05T14:14:43Z</time><name>PT16146</name></trkpt>
<trkpt lat="53.351265" lon="-1.845636"><ele>390</ele><time>2020-08-05T14:14:45Z</time><name>PT16147</name></trkpt>
<trkpt lat="53.351259" lon="-1.845647"><ele>390</ele><time>2020-08-05T14:14:46Z</time><name>PT16148</name></trkpt>
<trkpt lat="53.351254" lon="-1.845663"><ele>391</ele><time>2020-08-05T14:14:46Z</time><name>PT16149</name></trkpt>
<trkpt lat="53.351247" lon="-1.845675"><ele>391</ele><time>2020-08-05T14:14:48Z</time><name>PT16150</name></trkpt>
<trkpt lat="53.351242" lon="-1.845682"><ele>391</ele><time>2020-08-05T14:14:49Z</time><name>PT16151</name></trkpt>
<trkpt lat="53.351234" lon="-1.845691"><ele>391</ele><time>2020-08-05T14:14:49Z</time><name>PT16152</name></trkpt>
<trkpt lat="53.351228" lon="-1.845698"><ele>392</ele><time>2020-08-05T14:14:50Z</time><name>PT16153</name></trkpt>
<trkpt lat="53.351222" lon="-1.845703"><ele>391</ele><time>2020-08-05T14:14:52Z</time><name>PT16154</name></trkpt>
<trkpt lat="53.351215" lon="-1.845709"><ele>391</ele><time>2020-08-05T14:14:52Z</time><name>PT16155</name></trkpt>
<trkpt lat="53.351207" lon="-1.845717"><ele>391</ele><time>2020-08-05T14:14:53Z</time><name>PT16156</name></trkpt>
<trkpt lat="53.351201" lon="-1.845726"><ele>391</ele><time>2020-08-05T14:14:55Z</time><name>PT16157</name></trkpt>
<trkpt lat="53.351194" lon="-1.845732"><ele>391</ele><time>2020-08-05T14:14:55Z</time><name>PT16158</name></trkpt>
<trkpt lat="53.351188" lon="-1.845739"><ele>390</ele><time>2020-08-05T14:14:57Z</time><name>PT16159</name></trkpt>
<trkpt lat="53.351186" lon="-1.845745"><ele>391</ele><time>2020-08-05T14:14:58Z</time><name>PT16160</name></trkpt>
<trkpt lat="53.351182" lon="-1.845750"><ele>391</ele><time>2020-08-05T14:14:58Z</time><name>PT16161</name></trkpt>
<trkpt lat="53.351178" lon="-1.845754"><ele>391</ele><time>2020-08-05T14:15:00Z</time><name>PT16162</name></trkpt>
<trkpt lat="53.351177" lon="-1.845764"><ele>392</ele><time>2020-08-05T14:15:01Z</time><name>PT16163</name></trkpt>
<trkpt lat="53.351175" lon="-1.845770"><ele>392</ele><time>2020-08-05T14:15:01Z</time><name>PT16164</name></trkpt>
<trkpt lat="53.351172" lon="-1.845774"><ele>392</ele><time>2020-08-05T14:15:03Z</time><name>PT16165</name></trkpt>
<trkpt lat="53.351167" lon="-1.845777"><ele>392</ele><time>2020-08-05T14:15:04Z</time><name>PT16166</name></trkpt>
<trkpt lat="53.351164" lon="-1.845784"><ele>392</ele><time>2020-08-05T14:15:04Z</time><name>PT16167</name></trkpt>
<trkpt lat="53.351160" lon="-1.845788"><ele>392</ele><time>2020-08-05T14:15:06Z</time><name>PT16168</name></trkpt>
<trkpt lat="53.351160" lon="-1.845791"><ele>392</ele><time>2020-08-05T14:15:07Z</time><name>PT16169</name></trkpt>
<trkpt lat="53.351159" lon="-1.845799"><ele>392</ele><time>2020-08-05T14:15:07Z</time><name>PT16170</name></trkpt>
<trkpt lat="53.351158" lon="-1.845805"><ele>392</ele><time>2020-08-05T14:15:09Z</time><name>PT16171</name></trkpt>
<trkpt lat="53.351153" lon="-1.845814"><ele>392</ele><time>2020-08-05T14:15:10Z</time><name>PT16172</name></trkpt>
<trkpt lat="53.351153" lon="-1.845820"><ele>392</ele><time>2020-08-05T14:15:10Z</time><name>PT16173</name></trkpt>
<trkpt lat="53.351150" lon="-1.845830"><ele>393</ele><time>2020-08-05T14:15:12Z</time><name>PT16174</name></trkpt>
<trkpt lat="53.351144" lon="-1.845839"><ele>393</ele><time>2020-08-05T14:15:13Z</time><name>PT16175</name></trkpt>
<trkpt lat="53.351129" lon="-1.845854"><ele>394</ele><time>2020-08-05T14:15:15Z</time><name>PT16176</name></trkpt>
<trkpt lat="53.351118" lon="-1.845861"><ele>394</ele><time>2020-08-05T14:15:16Z</time><name>PT16177</name></trkpt>
<trkpt lat="53.351108" lon="-1.845871"><ele>394</ele><time>2020-08-05T14:15:16Z</time><name>PT16178</name></trkpt>
<trkpt lat="53.351097" lon="-1.845884"><ele>394</ele><time>2020-08-05T14:15:18Z</time><name>PT16179</name></trkpt>
<trkpt lat="53.351086" lon="-1.845896"><ele>395</ele><time>2020-08-05T14:15:19Z</time><name>PT16180</name></trkpt>
<trkpt lat="53.351073" lon="-1.845901"><ele>395</ele><time>2020-08-05T14:15:19Z</time><name>PT16181</name></trkpt>
<trkpt lat="53.351061" lon="-1.845906"><ele>395</ele><time>2020-08-05T14:15:20Z</time><name>PT16182</name></trkpt>
<trkpt lat="53.351054" lon="-1.845913"><ele>395</ele><time>2020-08-05T14:15:22Z</time><name>PT16183</name></trkpt>
<trkpt lat="53.351047" lon="-1.845921"><ele>395</ele><time>2020-08-05T14:15:22Z</time><name>PT16184</name></trkpt>
<trkpt lat="53.351036" lon="-1.845932"><ele>395</ele><time>2020-08-05T14:15:23Z</time><name>PT16185</name></trkpt>
<trkpt lat="53.351025" lon="-1.845939"><ele>395</ele><time>2020-08-05T14:15:25Z</time><name>PT16186</name></trkpt>
<trkpt lat="53.351014" lon="-1.845942"><ele>395</ele><time>2020-08-05T14:15:25Z</time><name>PT16187</name></trkpt>
<trkpt lat="53.351007" lon="-1.845948"><ele>395</ele><time>2020-08-05T14:15:27Z</time><name>PT16188</name></trkpt>
<trkpt lat="53.350996" lon="-1.845958"><ele>395</ele><time>2020-08-05T14:15:28Z</time><name>PT16189</name></trkpt>
<trkpt lat="53.350982" lon="-1.845966"><ele>395</ele><time>2020-08-05T14:15:28Z</time><name>PT16190</name></trkpt>
<trkpt lat="53.350972" lon="-1.845971"><ele>395</ele><time>2020-08-05T14:15:30Z</time><name>PT16191</name></trkpt>
<trkpt lat="53.350965" lon="-1.845975"><ele>395</ele><time>2020-08-05T14:15:31Z</time><name>PT16192</name></trkpt>
<trkpt lat="53.350956" lon="-1.845981"><ele>395</ele><time>2020-08-05T14:15:31Z</time><name>PT16193</name></trkpt>
<trkpt lat="53.350945" lon="-1.845987"><ele>394</ele><time>2020-08-05T14:15:33Z</time><name>PT16194</name></trkpt>
<trkpt lat="53.350935" lon="-1.845991"><ele>394</ele><time>2020-08-05T14:15:34Z</time><name>PT16195</name></trkpt>
<trkpt lat="53.350931" lon="-1.845994"><ele>395</ele><time>2020-08-05T14:15:34Z</time><name>PT16196</name></trkpt>
<trkpt lat="53.350921" lon="-1.845997"><ele>395</ele><time>2020-08-05T14:15:35Z</time><name>PT16197</name></trkpt>
<trkpt lat="53.350910" lon="-1.846003"><ele>396</ele><time>2020-08-05T14:15:37Z</time><name>PT16198</name></trkpt>
<trkpt lat="53.350898" lon="-1.846008"><ele>395</ele><time>2020-08-05T14:15:37Z</time><name>PT16199</name></trkpt>
<trkpt lat="53.350889" lon="-1.846008"><ele>395</ele><time>2020-08-05T14:15:39Z</time><name>PT16200</name></trkpt>
<trkpt lat="53.350881" lon="-1.846015"><ele>396</ele><time>2020-08-05T14:15:40Z</time><name>PT16201</name></trkpt>
<trkpt lat="53.350874" lon="-1.846023"><ele>397</ele><time>2020-08-05T14:15:41Z</time><name>PT16202</name></trkpt>
<trkpt lat="53.350864" lon="-1.846030"><ele>397</ele><time>2020-08-05T14:15:42Z</time><name>PT16203</name></trkpt>
<trkpt lat="53.350856" lon="-1.846034"><ele>398</ele><time>2020-08-05T14:15:43Z</time><name>PT16204</name></trkpt>
<trkpt lat="53.350852" lon="-1.846039"><ele>399</ele><time>2020-08-05T14:15:43Z</time><name>PT16205</name></trkpt>
<trkpt lat="53.350845" lon="-1.846047"><ele>399</ele><time>2020-08-05T14:15:44Z</time><name>PT16206</name></trkpt>
<trkpt lat="53.350832" lon="-1.846048"><ele>399</ele><time>2020-08-05T14:15:46Z</time><name>PT16207</name></trkpt>
<trkpt lat="53.350825" lon="-1.846049"><ele>399</ele><time>2020-08-05T14:15:46Z</time><name>PT16208</name></trkpt>
<trkpt lat="53.350819" lon="-1.846051"><ele>400</ele><time>2020-08-05T14:15:48Z</time><name>PT16209</name></trkpt>
<trkpt lat="53.350813" lon="-1.846056"><ele>400</ele><time>2020-08-05T14:15:49Z</time><name>PT16210</name></trkpt>
<trkpt lat="53.350806" lon="-1.846059"><ele>400</ele><time>2020-08-05T14:15:49Z</time><name>PT16211</name></trkpt>
<trkpt lat="53.350800" lon="-1.846059"><ele>400</ele><time>2020-08-05T14:15:50Z</time><name>PT16212</name></trkpt>
<trkpt lat="53.350794" lon="-1.846058"><ele>400</ele><time>2020-08-05T14:15:52Z</time><name>PT16213</name></trkpt>
<trkpt lat="53.350785" lon="-1.846065"><ele>400</ele><time>2020-08-05T14:15:52Z</time><name>PT16214</name></trkpt>
<trkpt lat="53.350777" lon="-1.846072"><ele>400</ele><time>2020-08-05T14:15:53Z</time><name>PT16215</name></trkpt>
<trkpt lat="53.350767" lon="-1.846074"><ele>400</ele><time>2020-08-05T14:15:55Z</time><name>PT16216</name></trkpt>
<trkpt lat="53.350760" lon="-1.846076"><ele>400</ele><time>2020-08-05T14:15:55Z</time><name>PT16217</name></trkpt>
<trkpt lat="53.350756" lon="-1.846079"><ele>401</ele><time>2020-08-05T14:15:56Z</time><name>PT16218</name></trkpt>
<trkpt lat="53.350748" lon="-1.846083"><ele>401</ele><time>2020-08-05T14:15:58Z</time><name>PT16219</name></trkpt>
<trkpt lat="53.350738" lon="-1.846087"><ele>401</ele><time>2020-08-05T14:15:58Z</time><name>PT16220</name></trkpt>
<trkpt lat="53.350733" lon="-1.846089"><ele>402</ele><time>2020-08-05T14:16:00Z</time><name>PT16221</name></trkpt>
<trkpt lat="53.350725" lon="-1.846095"><ele>402</ele><time>2020-08-05T14:16:01Z</time><name>PT16222</name></trkpt>
<trkpt lat="53.350719" lon="-1.846100"><ele>402</ele><time>2020-08-05T14:16:01Z</time><name>PT16223</name></trkpt>
<trkpt lat="53.350712" lon="-1.846102"><ele>402</ele><time>2020-08-05T14:16:02Z</time><name>PT16224</name></trkpt>
<trkpt lat="53.350703" lon="-1.846103"><ele>402</ele><time>2020-08-05T14:16:04Z</time><name>PT16225</name></trkpt>
<trkpt lat="53.350695" lon="-1.846102"><ele>403</ele><time>2020-08-05T14:16:04Z</time><name>PT16226</name></trkpt>
<trkpt lat="53.350686" lon="-1.846104"><ele>403</ele><time>2020-08-05T14:16:05Z</time><name>PT16227</name></trkpt>
<trkpt lat="53.350677" lon="-1.846109"><ele>402</ele><time>2020-08-05T14:16:07Z</time><name>PT16228</name></trkpt>
<trkpt lat="53.350669" lon="-1.846115"><ele>402</ele><time>2020-08-05T14:16:07Z</time><name>PT16229</name></trkpt>
<trkpt lat="53.350660" lon="-1.846119"><ele>403</ele><time>2020-08-05T14:16:09Z</time><name>PT16230</name></trkpt>
<trkpt lat="53.350651" lon="-1.846123"><ele>403</ele><time>2020-08-05T14:16:10Z</time><name>PT16231</name></trkpt>
<trkpt lat="53.350645" lon="-1.846125"><ele>402</ele><time>2020-08-05T14:16:11Z</time><name>PT16232</name></trkpt>
<trkpt lat="53.350639" lon="-1.846128"><ele>402</ele><time>2020-08-05T14:16:12Z</time><name>PT16233</name></trkpt>
<trkpt lat="53.350634" lon="-1.846131"><ele>403</ele><time>2020-08-05T14:16:13Z</time><name>PT16234</name></trkpt>
<trkpt lat="53.350630" lon="-1.846132"><ele>403</ele><time>2020-08-05T14:16:14Z</time><name>PT16235</name></trkpt>
<trkpt lat="53.350623" lon="-1.846134"><ele>403</ele><time>2020-08-05T14:16:15Z</time><name>PT16236</name></trkpt>
<trkpt lat="53.350616" lon="-1.846137"><ele>403</ele><time>2020-08-05T14:16:16Z</time><name>PT16237</name></trkpt>
<trkpt lat="53.350606" lon="-1.846138"><ele>403</ele><time>2020-08-05T14:16:17Z</time><name>PT16238</name></trkpt>
<trkpt lat="53.350601" lon="-1.846138"><ele>403</ele><time>2020-08-05T14:16:18Z</time><name>PT16239</name></trkpt>
<trkpt lat="53.350595" lon="-1.846140"><ele>403</ele><time>2020-08-05T14:16:19Z</time><name>PT16240</name></trkpt>
<trkpt lat="53.350589" lon="-1.846141"><ele>404</ele><time>2020-08-05T14:16:19Z</time><name>PT16241</name></trkpt>
<trkpt lat="53.350583" lon="-1.846142"><ele>404</ele><time>2020-08-05T14:16:21Z</time><name>PT16242</name></trkpt>
<trkpt lat="53.350579" lon="-1.846143"><ele>405</ele><time>2020-08-05T14:16:22Z</time><name>PT16243</name></trkpt>
<trkpt lat="53.350572" lon="-1.846146"><ele>405</ele><time>2020-08-05T14:16:22Z</time><name>PT16244</name></trkpt>
<trkpt lat="53.350562" lon="-1.846150"><ele>405</ele><time>2020-08-05T14:16:23Z</time><name>PT16245</name></trkpt>
<trkpt lat="53.350556" lon="-1.846151"><ele>405</ele><time>2020-08-05T14:16:25Z</time><name>PT16246</name></trkpt>
<trkpt lat="53.350550" lon="-1.846153"><ele>405</ele><time>2020-08-05T14:16:25Z</time><name>PT16247</name></trkpt>
<trkpt lat="53.350545" lon="-1.846151"><ele>406</ele><time>2020-08-05T14:16:27Z</time><name>PT16248</name></trkpt>
<trkpt lat="53.350537" lon="-1.846154"><ele>406</ele><time>2020-08-05T14:16:28Z</time><name>PT16249</name></trkpt>
<trkpt lat="53.350530" lon="-1.846153"><ele>406</ele><time>2020-08-05T14:16:28Z</time><name>PT16250</name></trkpt>
<trkpt lat="53.350522" lon="-1.846152"><ele>406</ele><time>2020-08-05T14:16:30Z</time><name>PT16251</name></trkpt>
<trkpt lat="53.350513" lon="-1.846152"><ele>406</ele><time>2020-08-05T14:16:31Z</time><name>PT16252</name></trkpt>
<trkpt lat="53.350505" lon="-1.846152"><ele>407</ele><time>2020-08-05T14:16:31Z</time><name>PT16253</name></trkpt>
<trkpt lat="53.350497" lon="-1.846150"><ele>406</ele><time>2020-08-05T14:16:33Z</time><name>PT16254</name></trkpt>
<trkpt lat="53.350491" lon="-1.846148"><ele>407</ele><time>2020-08-05T14:16:34Z</time><name>PT16255</name></trkpt>
<trkpt lat="53.350483" lon="-1.846141"><ele>406</ele><time>2020-08-05T14:16:34Z</time><name>PT16256</name></trkpt>
<trkpt lat="53.350475" lon="-1.846137"><ele>407</ele><time>2020-08-05T14:16:36Z</time><name>PT16257</name></trkpt>
<trkpt lat="53.350469" lon="-1.846139"><ele>408</ele><time>2020-08-05T14:16:37Z</time><name>PT16258</name></trkpt>
<trkpt lat="53.350465" lon="-1.846139"><ele>408</ele><time>2020-08-05T14:16:37Z</time><name>PT16259</name></trkpt>
<trkpt lat="53.350459" lon="-1.846139"><ele>408</ele><time>2020-08-05T14:16:39Z</time><name>PT16260</name></trkpt>
<trkpt lat="53.350450" lon="-1.846135"><ele>408</ele><time>2020-08-05T14:16:40Z</time><name>PT16261</name></trkpt>
<trkpt lat="53.350443" lon="-1.846135"><ele>408</ele><time>2020-08-05T14:16:40Z</time><name>PT16262</name></trkpt>
<trkpt lat="53.350438" lon="-1.846135"><ele>408</ele><time>2020-08-05T14:16:42Z</time><name>PT16263</name></trkpt>
<trkpt lat="53.350435" lon="-1.846138"><ele>409</ele><time>2020-08-05T14:16:43Z</time><name>PT16264</name></trkpt>
<trkpt lat="53.350429" lon="-1.846142"><ele>409</ele><time>2020-08-05T14:16:43Z</time><name>PT16265</name></trkpt>
<trkpt lat="53.350423" lon="-1.846156"><ele>410</ele><time>2020-08-05T14:16:44Z</time><name>PT16266</name></trkpt>
<trkpt lat="53.350418" lon="-1.846163"><ele>409</ele><time>2020-08-05T14:16:46Z</time><name>PT16267</name></trkpt>
<trkpt lat="53.350412" lon="-1.846172"><ele>409</ele><time>2020-08-05T14:16:46Z</time><name>PT16268</name></trkpt>
<trkpt lat="53.350407" lon="-1.846178"><ele>410</ele><time>2020-08-05T14:16:47Z</time><name>PT16269</name></trkpt>
<trkpt lat="53.350400" lon="-1.846186"><ele>410</ele><time>2020-08-05T14:16:49Z</time><name>PT16270</name></trkpt>
<trkpt lat="53.350393" lon="-1.846194"><ele>410</ele><time>2020-08-05T14:16:49Z</time><name>PT16271</name></trkpt>
<trkpt lat="53.350387" lon="-1.846201"><ele>411</ele><time>2020-08-05T14:16:50Z</time><name>PT16272</name></trkpt>
<trkpt lat="53.350382" lon="-1.846209"><ele>411</ele><time>2020-08-05T14:16:52Z</time><name>PT16273</name></trkpt>
<trkpt lat="53.350377" lon="-1.846216"><ele>411</ele><time>2020-08-05T14:16:52Z</time><name>PT16274</name></trkpt>
<trkpt lat="53.350370" lon="-1.846221"><ele>410</ele><time>2020-08-05T14:16:54Z</time><name>PT16275</name></trkpt>
<trkpt lat="53.350365" lon="-1.846224"><ele>410</ele><time>2020-08-05T14:16:55Z</time><name>PT16276</name></trkpt>
<trkpt lat="53.350358" lon="-1.846227"><ele>410</ele><time>2020-08-05T14:16:55Z</time><name>PT16277</name></trkpt>
<trkpt lat="53.350351" lon="-1.846236"><ele>410</ele><time>2020-08-05T14:16:57Z</time><name>PT16278</name></trkpt>
<trkpt lat="53.350344" lon="-1.846242"><ele>410</ele><time>2020-08-05T14:16:58Z</time><name>PT16279</name></trkpt>
<trkpt lat="53.350336" lon="-1.846250"><ele>410</ele><time>2020-08-05T14:16:58Z</time><name>PT16280</name></trkpt>
<trkpt lat="53.350333" lon="-1.846257"><ele>410</ele><time>2020-08-05T14:16:59Z</time><name>PT16281</name></trkpt>
<trkpt lat="53.350328" lon="-1.846265"><ele>410</ele><time>2020-08-05T14:17:01Z</time><name>PT16282</name></trkpt>
<trkpt lat="53.350317" lon="-1.846274"><ele>409</ele><time>2020-08-05T14:17:01Z</time><name>PT16283</name></trkpt>
<trkpt lat="53.350311" lon="-1.846282"><ele>410</ele><time>2020-08-05T14:17:03Z</time><name>PT16284</name></trkpt>
<trkpt lat="53.350303" lon="-1.846290"><ele>410</ele><time>2020-08-05T14:17:04Z</time><name>PT16285</name></trkpt>
<trkpt lat="53.350295" lon="-1.846301"><ele>410</ele><time>2020-08-05T14:17:04Z</time><name>PT16286</name></trkpt>
<trkpt lat="53.350287" lon="-1.846309"><ele>410</ele><time>2020-08-05T14:17:06Z</time><name>PT16287</name></trkpt>
<trkpt lat="53.350282" lon="-1.846315"><ele>409</ele><time>2020-08-05T14:17:07Z</time><name>PT16288</name></trkpt>
<trkpt lat="53.350278" lon="-1.846322"><ele>410</ele><time>2020-08-05T14:17:07Z</time><name>PT16289</name></trkpt>
<trkpt lat="53.350275" lon="-1.846331"><ele>409</ele><time>2020-08-05T14:17:08Z</time><name>PT16290</name></trkpt>
<trkpt lat="53.350271" lon="-1.846338"><ele>409</ele><time>2020-08-05T14:17:10Z</time><name>PT16291</name></trkpt>
<trkpt lat="53.350264" lon="-1.846342"><ele>408</ele><time>2020-08-05T14:17:10Z</time><name>PT16292</name></trkpt>
<trkpt lat="53.350260" lon="-1.846347"><ele>409</ele><time>2020-08-05T14:17:12Z</time><name>PT16293</name></trkpt>
<trkpt lat="53.350249" lon="-1.846358"><ele>408</ele><time>2020-08-05T14:17:13Z</time><name>PT16294</name></trkpt>
<trkpt lat="53.350245" lon="-1.846361"><ele>409</ele><time>2020-08-05T14:17:14Z</time><name>PT16295</name></trkpt>
<trkpt lat="53.350240" lon="-1.846361"><ele>409</ele><time>2020-08-05T14:17:14Z</time><name>PT16296</name></trkpt>
<trkpt lat="53.350234" lon="-1.846363"><ele>409</ele><time>2020-08-05T14:17:16Z</time><name>PT16297</name></trkpt>
<trkpt lat="53.350228" lon="-1.846368"><ele>410</ele><time>2020-08-05T14:17:17Z</time><name>PT16298</name></trkpt>
<trkpt lat="53.350223" lon="-1.846372"><ele>410</ele><time>2020-08-05T14:17:18Z</time><name>PT16299</name></trkpt>
<trkpt lat="53.350217" lon="-1.846378"><ele>411</ele><time>2020-08-05T14:17:19Z</time><name>PT16300</name></trkpt>
<trkpt lat="53.350211" lon="-1.846385"><ele>411</ele><time>2020-08-05T14:17:19Z</time><name>PT16301</name></trkpt>
<trkpt lat="53.350203" lon="-1.846393"><ele>411</ele><time>2020-08-05T14:17:21Z</time><name>PT16302</name></trkpt>
<trkpt lat="53.350198" lon="-1.846400"><ele>412</ele><time>2020-08-05T14:17:22Z</time><name>PT16303</name></trkpt>
<trkpt lat="53.350189" lon="-1.846408"><ele>412</ele><time>2020-08-05T14:17:22Z</time><name>PT16304</name></trkpt>
<trkpt lat="53.350179" lon="-1.846418"><ele>411</ele><time>2020-08-05T14:17:23Z</time><name>PT16305</name></trkpt>
<trkpt lat="53.350173" lon="-1.846424"><ele>411</ele><time>2020-08-05T14:17:25Z</time><name>PT16306</name></trkpt>
<trkpt lat="53.350167" lon="-1.846432"><ele>411</ele><time>2020-08-05T14:17:25Z</time><name>PT16307</name></trkpt>
<trkpt lat="53.350161" lon="-1.846437"><ele>411</ele><time>2020-08-05T14:17:26Z</time><name>PT16308</name></trkpt>
<trkpt lat="53.350155" lon="-1.846443"><ele>411</ele><time>2020-08-05T14:17:28Z</time><name>PT16309</name></trkpt>
<trkpt lat="53.350150" lon="-1.846445"><ele>411</ele><time>2020-08-05T14:17:28Z</time><name>PT16310</name></trkpt>
<trkpt lat="53.350143" lon="-1.846456"><ele>412</ele><time>2020-08-05T14:17:29Z</time><name>PT16311</name></trkpt>
<trkpt lat="53.350135" lon="-1.846466"><ele>411</ele><time>2020-08-05T14:17:31Z</time><name>PT16312</name></trkpt>
<trkpt lat="53.350131" lon="-1.846472"><ele>411</ele><time>2020-08-05T14:17:31Z</time><name>PT16313</name></trkpt>
<trkpt lat="53.350127" lon="-1.846478"><ele>411</ele><time>2020-08-05T14:17:33Z</time><name>PT16314</name></trkpt>
<trkpt lat="53.350121" lon="-1.846484"><ele>411</ele><time>2020-08-05T14:17:34Z</time><name>PT16315</name></trkpt>
<trkpt lat="53.350116" lon="-1.846491"><ele>411</ele><time>2020-08-05T14:17:34Z</time><name>PT16316</name></trkpt>
<trkpt lat="53.350108" lon="-1.846497"><ele>411</ele><time>2020-08-05T14:17:35Z</time><name>PT16317</name></trkpt>
<trkpt lat="53.350102" lon="-1.846506"><ele>411</ele><time>2020-08-05T14:17:37Z</time><name>PT16318</name></trkpt>
<trkpt lat="53.350092" lon="-1.846519"><ele>411</ele><time>2020-08-05T14:17:37Z</time><name>PT16319</name></trkpt>
<trkpt lat="53.350085" lon="-1.846524"><ele>411</ele><time>2020-08-05T14:17:38Z</time><name>PT16320</name></trkpt>
<trkpt lat="53.350079" lon="-1.846530"><ele>412</ele><time>2020-08-05T14:17:40Z</time><name>PT16321</name></trkpt>
<trkpt lat="53.350072" lon="-1.846536"><ele>412</ele><time>2020-08-05T14:17:40Z</time><name>PT16322</name></trkpt>
<trkpt lat="53.350067" lon="-1.846541"><ele>412</ele><time>2020-08-05T14:17:42Z</time><name>PT16323</name></trkpt>
<trkpt lat="53.350060" lon="-1.846547"><ele>413</ele><time>2020-08-05T14:17:43Z</time><name>PT16324</name></trkpt>
<trkpt lat="53.350055" lon="-1.846556"><ele>413</ele><time>2020-08-05T14:17:43Z</time><name>PT16325</name></trkpt>
<trkpt lat="53.350045" lon="-1.846567"><ele>413</ele><time>2020-08-05T14:17:44Z</time><name>PT16326</name></trkpt>
<trkpt lat="53.350038" lon="-1.846576"><ele>413</ele><time>2020-08-05T14:17:46Z</time><name>PT16327</name></trkpt>
<trkpt lat="53.350031" lon="-1.846579"><ele>413</ele><time>2020-08-05T14:17:46Z</time><name>PT16328</name></trkpt>
<trkpt lat="53.350021" lon="-1.846587"><ele>413</ele><time>2020-08-05T14:17:47Z</time><name>PT16329</name></trkpt>
<trkpt lat="53.350013" lon="-1.846598"><ele>414</ele><time>2020-08-05T14:17:49Z</time><name>PT16330</name></trkpt>
<trkpt lat="53.350009" lon="-1.846602"><ele>414</ele><time>2020-08-05T14:17:49Z</time><name>PT16331</name></trkpt>
<trkpt lat="53.350002" lon="-1.846604"><ele>414</ele><time>2020-08-05T14:17:51Z</time><name>PT16332</name></trkpt>
<trkpt lat="53.349996" lon="-1.846608"><ele>414</ele><time>2020-08-05T14:17:52Z</time><name>PT16333</name></trkpt>
<trkpt lat="53.349990" lon="-1.846618"><ele>415</ele><time>2020-08-05T14:17:52Z</time><name>PT16334</name></trkpt>
<trkpt lat="53.349982" lon="-1.846627"><ele>415</ele><time>2020-08-05T14:17:54Z</time><name>PT16335</name></trkpt>
<trkpt lat="53.349976" lon="-1.846632"><ele>415</ele><time>2020-08-05T14:17:55Z</time><name>PT16336</name></trkpt>
<trkpt lat="53.349972" lon="-1.846638"><ele>415</ele><time>2020-08-05T14:17:55Z</time><name>PT16337</name></trkpt>
<trkpt lat="53.349970" lon="-1.846647"><ele>415</ele><time>2020-08-05T14:17:57Z</time><name>PT16338</name></trkpt>
<trkpt lat="53.349964" lon="-1.846653"><ele>416</ele><time>2020-08-05T14:17:58Z</time><name>PT16339</name></trkpt>
<trkpt lat="53.349957" lon="-1.846659"><ele>415</ele><time>2020-08-05T14:17:59Z</time><name>PT16340</name></trkpt>
<trkpt lat="53.349951" lon="-1.846664"><ele>415</ele><time>2020-08-05T14:18:00Z</time><name>PT16341</name></trkpt>
<trkpt lat="53.349950" lon="-1.846667"><ele>415</ele><time>2020-08-05T14:18:01Z</time><name>PT16342</name></trkpt>
<trkpt lat="53.349949" lon="-1.846670"><ele>415</ele><time>2020-08-05T14:18:01Z</time><name>PT16343</name></trkpt>
<trkpt lat="53.349949" lon="-1.846676"><ele>416</ele><time>2020-08-05T14:18:03Z</time><name>PT16344</name></trkpt>
<trkpt lat="53.349948" lon="-1.846685"><ele>416</ele><time>2020-08-05T14:18:07Z</time><name>PT16345</name></trkpt>
<trkpt lat="53.349941" lon="-1.846700"><ele>417</ele><time>2020-08-05T14:18:09Z</time><name>PT16346</name></trkpt>
<trkpt lat="53.349934" lon="-1.846709"><ele>417</ele><time>2020-08-05T14:18:10Z</time><name>PT16347</name></trkpt>
<trkpt lat="53.349926" lon="-1.846720"><ele>417</ele><time>2020-08-05T14:18:10Z</time><name>PT16348</name></trkpt>
<trkpt lat="53.349918" lon="-1.846731"><ele>417</ele><time>2020-08-05T14:18:12Z</time><name>PT16349</name></trkpt>
<trkpt lat="53.349913" lon="-1.846737"><ele>418</ele><time>2020-08-05T14:18:13Z</time><name>PT16350</name></trkpt>
<trkpt lat="53.349909" lon="-1.846747"><ele>418</ele><time>2020-08-05T14:18:13Z</time><name>PT16351</name></trkpt>
<trkpt lat="53.349904" lon="-1.846758"><ele>419</ele><time>2020-08-05T14:18:14Z</time><name>PT16352</name></trkpt>
<trkpt lat="53.349896" lon="-1.846766"><ele>419</ele><time>2020-08-05T14:18:16Z</time><name>PT16353</name></trkpt>
<trkpt lat="53.349889" lon="-1.846774"><ele>420</ele><time>2020-08-05T14:18:16Z</time><name>PT16354</name></trkpt>
<trkpt lat="53.349887" lon="-1.846782"><ele>420</ele><time>2020-08-05T14:18:17Z</time><name>PT16355</name></trkpt>
<trkpt lat="53.349878" lon="-1.846792"><ele>421</ele><time>2020-08-05T14:18:19Z</time><name>PT16356</name></trkpt>
<trkpt lat="53.349871" lon="-1.846800"><ele>421</ele><time>2020-08-05T14:18:19Z</time><name>PT16357</name></trkpt>
<trkpt lat="53.349864" lon="-1.846809"><ele>421</ele><time>2020-08-05T14:18:21Z</time><name>PT16358</name></trkpt>
<trkpt lat="53.349853" lon="-1.846827"><ele>422</ele><time>2020-08-05T14:18:22Z</time><name>PT16359</name></trkpt>
<trkpt lat="53.349848" lon="-1.846843"><ele>423</ele><time>2020-08-05T14:18:23Z</time><name>PT16360</name></trkpt>
<trkpt lat="53.349845" lon="-1.846852"><ele>422</ele><time>2020-08-05T14:18:24Z</time><name>PT16361</name></trkpt>
<trkpt lat="53.349841" lon="-1.846867"><ele>423</ele><time>2020-08-05T14:18:25Z</time><name>PT16362</name></trkpt>
<trkpt lat="53.349836" lon="-1.846886"><ele>424</ele><time>2020-08-05T14:18:25Z</time><name>PT16363</name></trkpt>
<trkpt lat="53.349830" lon="-1.846901"><ele>424</ele><time>2020-08-05T14:18:27Z</time><name>PT16364</name></trkpt>
<trkpt lat="53.349826" lon="-1.846917"><ele>423</ele><time>2020-08-05T14:18:28Z</time><name>PT16365</name></trkpt>
<trkpt lat="53.349826" lon="-1.846934"><ele>424</ele><time>2020-08-05T14:18:28Z</time><name>PT16366</name></trkpt>
<trkpt lat="53.349824" lon="-1.846951"><ele>423</ele><time>2020-08-05T14:18:30Z</time><name>PT16367</name></trkpt>
<trkpt lat="53.349821" lon="-1.846967"><ele>424</ele><time>2020-08-05T14:18:31Z</time><name>PT16368</name></trkpt>
<trkpt lat="53.349821" lon="-1.846982"><ele>424</ele><time>2020-08-05T14:18:31Z</time><name>PT16369</name></trkpt>
<trkpt lat="53.349819" lon="-1.847001"><ele>425</ele><time>2020-08-05T14:18:33Z</time><name>PT16370</name></trkpt>
<trkpt lat="53.349814" lon="-1.847022"><ele>425</ele><time>2020-08-05T14:18:34Z</time><name>PT16371</name></trkpt>
<trkpt lat="53.349811" lon="-1.847042"><ele>425</ele><time>2020-08-05T14:18:34Z</time><name>PT16372</name></trkpt>
<trkpt lat="53.349808" lon="-1.847056"><ele>425</ele><time>2020-08-05T14:18:36Z</time><name>PT16373</name></trkpt>
<trkpt lat="53.349804" lon="-1.847071"><ele>425</ele><time>2020-08-05T14:18:37Z</time><name>PT16374</name></trkpt>
<trkpt lat="53.349799" lon="-1.847082"><ele>425</ele><time>2020-08-05T14:18:37Z</time><name>PT16375</name></trkpt>
<trkpt lat="53.349795" lon="-1.847099"><ele>425</ele><time>2020-08-05T14:18:39Z</time><name>PT16376</name></trkpt>
<trkpt lat="53.349791" lon="-1.847109"><ele>425</ele><time>2020-08-05T14:18:40Z</time><name>PT16377</name></trkpt>
<trkpt lat="53.349787" lon="-1.847121"><ele>425</ele><time>2020-08-05T14:18:40Z</time><name>PT16378</name></trkpt>
<trkpt lat="53.349781" lon="-1.847134"><ele>425</ele><time>2020-08-05T14:18:42Z</time><name>PT16379</name></trkpt>
<trkpt lat="53.349774" lon="-1.847151"><ele>425</ele><time>2020-08-05T14:18:43Z</time><name>PT16380</name></trkpt>
<trkpt lat="53.349768" lon="-1.847162"><ele>425</ele><time>2020-08-05T14:18:43Z</time><name>PT16381</name></trkpt>
<trkpt lat="53.349764" lon="-1.847177"><ele>425</ele><time>2020-08-05T14:18:45Z</time><name>PT16382</name></trkpt>
<trkpt lat="53.349755" lon="-1.847195"><ele>425</ele><time>2020-08-05T14:18:46Z</time><name>PT16383</name></trkpt>
<trkpt lat="53.349746" lon="-1.847209"><ele>425</ele><time>2020-08-05T14:18:46Z</time><name>PT16384</name></trkpt>
<trkpt lat="53.349743" lon="-1.847222"><ele>425</ele><time>2020-08-05T14:18:48Z</time><name>PT16385</name></trkpt>
<trkpt lat="53.349736" lon="-1.847233"><ele>426</ele><time>2020-08-05T14:18:49Z</time><name>PT16386</name></trkpt>
<trkpt lat="53.349734" lon="-1.847239"><ele>426</ele><time>2020-08-05T14:18:49Z</time><name>PT16387</name></trkpt>
<trkpt lat="53.349726" lon="-1.847243"><ele>425</ele><time>2020-08-05T14:18:50Z</time><name>PT16388</name></trkpt>
<trkpt lat="53.349720" lon="-1.847253"><ele>426</ele><time>2020-08-05T14:18:52Z</time><name>PT16389</name></trkpt>
<trkpt lat="53.349717" lon="-1.847263"><ele>426</ele><time>2020-08-05T14:18:52Z</time><name>PT16390</name></trkpt>
<trkpt lat="53.349710" lon="-1.847276"><ele>427</ele><time>2020-08-05T14:18:54Z</time><name>PT16391</name></trkpt>
<trkpt lat="53.349706" lon="-1.847284"><ele>427</ele><time>2020-08-05T14:18:55Z</time><name>PT16392</name></trkpt>
<trkpt lat="53.349701" lon="-1.847297"><ele>427</ele><time>2020-08-05T14:18:56Z</time><name>PT16393</name></trkpt>
<trkpt lat="53.349697" lon="-1.847305"><ele>428</ele><time>2020-08-05T14:18:57Z</time><name>PT16394</name></trkpt>
<trkpt lat="53.349693" lon="-1.847318"><ele>428</ele><time>2020-08-05T14:18:58Z</time><name>PT16395</name></trkpt>
<trkpt lat="53.349684" lon="-1.847334"><ele>428</ele><time>2020-08-05T14:18:58Z</time><name>PT16396</name></trkpt>
<trkpt lat="53.349675" lon="-1.847345"><ele>428</ele><time>2020-08-05T14:19:00Z</time><name>PT16397</name></trkpt>
<trkpt lat="53.349668" lon="-1.847353"><ele>428</ele><time>2020-08-05T14:19:01Z</time><name>PT16398</name></trkpt>
<trkpt lat="53.349662" lon="-1.847363"><ele>428</ele><time>2020-08-05T14:19:01Z</time><name>PT16399</name></trkpt>
<trkpt lat="53.349657" lon="-1.847373"><ele>429</ele><time>2020-08-05T14:19:03Z</time><name>PT16400</name></trkpt>
<trkpt lat="53.349652" lon="-1.847384"><ele>428</ele><time>2020-08-05T14:19:04Z</time><name>PT16401</name></trkpt>
<trkpt lat="53.349646" lon="-1.847395"><ele>428</ele><time>2020-08-05T14:19:05Z</time><name>PT16402</name></trkpt>
<trkpt lat="53.349640" lon="-1.847410"><ele>430</ele><time>2020-08-05T14:19:06Z</time><name>PT16403</name></trkpt>
<trkpt lat="53.349633" lon="-1.847421"><ele>430</ele><time>2020-08-05T14:19:07Z</time><name>PT16404</name></trkpt>
<trkpt lat="53.349630" lon="-1.847430"><ele>430</ele><time>2020-08-05T14:19:08Z</time><name>PT16405</name></trkpt>
<trkpt lat="53.349623" lon="-1.847442"><ele>430</ele><time>2020-08-05T14:19:09Z</time><name>PT16406</name></trkpt>
<trkpt lat="53.349616" lon="-1.847452"><ele>430</ele><time>2020-08-05T14:19:10Z</time><name>PT16407</name></trkpt>
<trkpt lat="53.349610" lon="-1.847464"><ele>430</ele><time>2020-08-05T14:19:10Z</time><name>PT16408</name></trkpt>
<trkpt lat="53.349603" lon="-1.847472"><ele>429</ele><time>2020-08-05T14:19:12Z</time><name>PT16409</name></trkpt>
<trkpt lat="53.349597" lon="-1.847483"><ele>430</ele><time>2020-08-05T14:19:13Z</time><name>PT16410</name></trkpt>
<trkpt lat="53.349594" lon="-1.847490"><ele>430</ele><time>2020-08-05T14:19:13Z</time><name>PT16411</name></trkpt>
<trkpt lat="53.349587" lon="-1.847496"><ele>430</ele><time>2020-08-05T14:19:15Z</time><name>PT16412</name></trkpt>
<trkpt lat="53.349579" lon="-1.847510"><ele>431</ele><time>2020-08-05T14:19:16Z</time><name>PT16413</name></trkpt>
<trkpt lat="53.349572" lon="-1.847519"><ele>431</ele><time>2020-08-05T14:19:16Z</time><name>PT16414</name></trkpt>
<trkpt lat="53.349565" lon="-1.847530"><ele>431</ele><time>2020-08-05T14:19:18Z</time><name>PT16415</name></trkpt>
<trkpt lat="53.349561" lon="-1.847537"><ele>431</ele><time>2020-08-05T14:19:19Z</time><name>PT16416</name></trkpt>
<trkpt lat="53.349553" lon="-1.847546"><ele>430</ele><time>2020-08-05T14:19:19Z</time><name>PT16417</name></trkpt>
<trkpt lat="53.349548" lon="-1.847555"><ele>430</ele><time>2020-08-05T14:19:21Z</time><name>PT16418</name></trkpt>
<trkpt lat="53.349541" lon="-1.847567"><ele>430</ele><time>2020-08-05T14:19:22Z</time><name>PT16419</name></trkpt>
<trkpt lat="53.349535" lon="-1.847577"><ele>430</ele><time>2020-08-05T14:19:22Z</time><name>PT16420</name></trkpt>
<trkpt lat="53.349531" lon="-1.847585"><ele>430</ele><time>2020-08-05T14:19:24Z</time><name>PT16421</name></trkpt>
<trkpt lat="53.349525" lon="-1.847592"><ele>429</ele><time>2020-08-05T14:19:25Z</time><name>PT16422</name></trkpt>
<trkpt lat="53.349525" lon="-1.847595"><ele>429</ele><time>2020-08-05T14:19:25Z</time><name>PT16423</name></trkpt>
<trkpt lat="53.349522" lon="-1.847603"><ele>429</ele><time>2020-08-05T14:19:27Z</time><name>PT16424</name></trkpt>
<trkpt lat="53.349522" lon="-1.847608"><ele>430</ele><time>2020-08-05T14:19:28Z</time><name>PT16425</name></trkpt>
<trkpt lat="53.349522" lon="-1.847611"><ele>430</ele><time>2020-08-05T14:19:28Z</time><name>PT16426</name></trkpt>
<trkpt lat="53.349521" lon="-1.847617"><ele>431</ele><time>2020-08-05T14:19:40Z</time><name>PT16427</name></trkpt>
<trkpt lat="53.349513" lon="-1.847631"><ele>431</ele><time>2020-08-05T14:19:42Z</time><name>PT16428</name></trkpt>
<trkpt lat="53.349509" lon="-1.847637"><ele>431</ele><time>2020-08-05T14:19:43Z</time><name>PT16429</name></trkpt>
<trkpt lat="53.349504" lon="-1.847650"><ele>431</ele><time>2020-08-05T14:19:44Z</time><name>PT16430</name></trkpt>
<trkpt lat="53.349500" lon="-1.847663"><ele>431</ele><time>2020-08-05T14:19:45Z</time><name>PT16431</name></trkpt>
<trkpt lat="53.349492" lon="-1.847670"><ele>431</ele><time>2020-08-05T14:19:46Z</time><name>PT16432</name></trkpt>
<trkpt lat="53.349488" lon="-1.847679"><ele>431</ele><time>2020-08-05T14:19:47Z</time><name>PT16433</name></trkpt>
<trkpt lat="53.349483" lon="-1.847685"><ele>431</ele><time>2020-08-05T14:19:48Z</time><name>PT16434</name></trkpt>
<trkpt lat="53.349477" lon="-1.847695"><ele>432</ele><time>2020-08-05T14:19:49Z</time><name>PT16435</name></trkpt>
<trkpt lat="53.349471" lon="-1.847707"><ele>432</ele><time>2020-08-05T14:19:50Z</time><name>PT16436</name></trkpt>
<trkpt lat="53.349461" lon="-1.847721"><ele>432</ele><time>2020-08-05T14:19:51Z</time><name>PT16437</name></trkpt>
<trkpt lat="53.349448" lon="-1.847738"><ele>433</ele><time>2020-08-05T14:19:52Z</time><name>PT16438</name></trkpt>
<trkpt lat="53.349445" lon="-1.847752"><ele>433</ele><time>2020-08-05T14:19:54Z</time><name>PT16439</name></trkpt>
<trkpt lat="53.349441" lon="-1.847766"><ele>433</ele><time>2020-08-05T14:19:55Z</time><name>PT16440</name></trkpt>
<trkpt lat="53.349437" lon="-1.847783"><ele>434</ele><time>2020-08-05T14:19:55Z</time><name>PT16441</name></trkpt>
<trkpt lat="53.349433" lon="-1.847794"><ele>434</ele><time>2020-08-05T14:19:57Z</time><name>PT16442</name></trkpt>
<trkpt lat="53.349429" lon="-1.847803"><ele>434</ele><time>2020-08-05T14:19:58Z</time><name>PT16443</name></trkpt>
<trkpt lat="53.349425" lon="-1.847810"><ele>434</ele><time>2020-08-05T14:19:58Z</time><name>PT16444</name></trkpt>
<trkpt lat="53.349420" lon="-1.847818"><ele>435</ele><time>2020-08-05T14:20:00Z</time><name>PT16445</name></trkpt>
<trkpt lat="53.349414" lon="-1.847823"><ele>434</ele><time>2020-08-05T14:20:01Z</time><name>PT16446</name></trkpt>
<trkpt lat="53.349409" lon="-1.847831"><ele>435</ele><time>2020-08-05T14:20:01Z</time><name>PT16447</name></trkpt>
<trkpt lat="53.349403" lon="-1.847839"><ele>435</ele><time>2020-08-05T14:20:03Z</time><name>PT16448</name></trkpt>
<trkpt lat="53.349400" lon="-1.847843"><ele>435</ele><time>2020-08-05T14:20:04Z</time><name>PT16449</name></trkpt>
<trkpt lat="53.349396" lon="-1.847851"><ele>435</ele><time>2020-08-05T14:20:04Z</time><name>PT16450</name></trkpt>
<trkpt lat="53.349390" lon="-1.847863"><ele>434</ele><time>2020-08-05T14:20:05Z</time><name>PT16451</name></trkpt>
<trkpt lat="53.349386" lon="-1.847874"><ele>435</ele><time>2020-08-05T14:20:07Z</time><name>PT16452</name></trkpt>
<trkpt lat="53.349377" lon="-1.847885"><ele>434</ele><time>2020-08-05T14:20:07Z</time><name>PT16453</name></trkpt>
<trkpt lat="53.349371" lon="-1.847892"><ele>434</ele><time>2020-08-05T14:20:08Z</time><name>PT16454</name></trkpt>
<trkpt lat="53.349365" lon="-1.847901"><ele>434</ele><time>2020-08-05T14:20:10Z</time><name>PT16455</name></trkpt>
<trkpt lat="53.349361" lon="-1.847909"><ele>435</ele><time>2020-08-05T14:20:10Z</time><name>PT16456</name></trkpt>
<trkpt lat="53.349357" lon="-1.847916"><ele>435</ele><time>2020-08-05T14:20:12Z</time><name>PT16457</name></trkpt>
<trkpt lat="53.349353" lon="-1.847925"><ele>435</ele><time>2020-08-05T14:20:13Z</time><name>PT16458</name></trkpt>
<trkpt lat="53.349348" lon="-1.847929"><ele>434</ele><time>2020-08-05T14:20:13Z</time><name>PT16459</name></trkpt>
<trkpt lat="53.349343" lon="-1.847937"><ele>435</ele><time>2020-08-05T14:20:15Z</time><name>PT16460</name></trkpt>
<trkpt lat="53.349342" lon="-1.847949"><ele>436</ele><time>2020-08-05T14:20:16Z</time><name>PT16461</name></trkpt>
<trkpt lat="53.349338" lon="-1.847962"><ele>436</ele><time>2020-08-05T14:20:16Z</time><name>PT16462</name></trkpt>
<trkpt lat="53.349334" lon="-1.847977"><ele>435</ele><time>2020-08-05T14:20:17Z</time><name>PT16463</name></trkpt>
<trkpt lat="53.349326" lon="-1.847999"><ele>435</ele><time>2020-08-05T14:20:20Z</time><name>PT16464</name></trkpt>
<trkpt lat="53.349321" lon="-1.848011"><ele>435</ele><time>2020-08-05T14:20:21Z</time><name>PT16465</name></trkpt>
<trkpt lat="53.349316" lon="-1.848024"><ele>436</ele><time>2020-08-05T14:20:22Z</time><name>PT16466</name></trkpt>
<trkpt lat="53.349313" lon="-1.848040"><ele>436</ele><time>2020-08-05T14:20:22Z</time><name>PT16467</name></trkpt>
<trkpt lat="53.349309" lon="-1.848050"><ele>436</ele><time>2020-08-05T14:20:24Z</time><name>PT16468</name></trkpt>
<trkpt lat="53.349303" lon="-1.848054"><ele>435</ele><time>2020-08-05T14:20:25Z</time><name>PT16469</name></trkpt>
<trkpt lat="53.349300" lon="-1.848060"><ele>435</ele><time>2020-08-05T14:20:25Z</time><name>PT16470</name></trkpt>
<trkpt lat="53.349297" lon="-1.848066"><ele>434</ele><time>2020-08-05T14:20:27Z</time><name>PT16471</name></trkpt>
<trkpt lat="53.349292" lon="-1.848074"><ele>434</ele><time>2020-08-05T14:20:28Z</time><name>PT16472</name></trkpt>
<trkpt lat="53.349287" lon="-1.848088"><ele>435</ele><time>2020-08-05T14:20:29Z</time><name>PT16473</name></trkpt>
<trkpt lat="53.349274" lon="-1.848105"><ele>435</ele><time>2020-08-05T14:20:30Z</time><name>PT16474</name></trkpt>
<trkpt lat="53.349265" lon="-1.848118"><ele>435</ele><time>2020-08-05T14:20:31Z</time><name>PT16475</name></trkpt>
<trkpt lat="53.349260" lon="-1.848128"><ele>435</ele><time>2020-08-05T14:20:31Z</time><name>PT16476</name></trkpt>
<trkpt lat="53.349255" lon="-1.848139"><ele>436</ele><time>2020-08-05T14:20:33Z</time><name>PT16477</name></trkpt>
<trkpt lat="53.349249" lon="-1.848151"><ele>436</ele><time>2020-08-05T14:20:34Z</time><name>PT16478</name></trkpt>
<trkpt lat="53.349243" lon="-1.848163"><ele>436</ele><time>2020-08-05T14:20:34Z</time><name>PT16479</name></trkpt>
<trkpt lat="53.349241" lon="-1.848173"><ele>437</ele><time>2020-08-05T14:20:36Z</time><name>PT16480</name></trkpt>
<trkpt lat="53.349236" lon="-1.848185"><ele>437</ele><time>2020-08-05T14:20:37Z</time><name>PT16481</name></trkpt>
<trkpt lat="53.349230" lon="-1.848192"><ele>437</ele><time>2020-08-05T14:20:37Z</time><name>PT16482</name></trkpt>
<trkpt lat="53.349224" lon="-1.848199"><ele>437</ele><time>2020-08-05T14:20:39Z</time><name>PT16483</name></trkpt>
<trkpt lat="53.349218" lon="-1.848209"><ele>437</ele><time>2020-08-05T14:20:40Z</time><name>PT16484</name></trkpt>
<trkpt lat="53.349213" lon="-1.848214"><ele>438</ele><time>2020-08-05T14:20:40Z</time><name>PT16485</name></trkpt>
<trkpt lat="53.349206" lon="-1.848223"><ele>438</ele><time>2020-08-05T14:20:41Z</time><name>PT16486</name></trkpt>
<trkpt lat="53.349200" lon="-1.848235"><ele>438</ele><time>2020-08-05T14:20:43Z</time><name>PT16487</name></trkpt>
<trkpt lat="53.349197" lon="-1.848241"><ele>438</ele><time>2020-08-05T14:20:43Z</time><name>PT16488</name></trkpt>
<trkpt lat="53.349193" lon="-1.848245"><ele>438</ele><time>2020-08-05T14:20:45Z</time><name>PT16489</name></trkpt>
<trkpt lat="53.349188" lon="-1.848256"><ele>438</ele><time>2020-08-05T14:20:46Z</time><name>PT16490</name></trkpt>
<trkpt lat="53.349184" lon="-1.848264"><ele>438</ele><time>2020-08-05T14:20:46Z</time><name>PT16491</name></trkpt>
<trkpt lat="53.349179" lon="-1.848272"><ele>439</ele><time>2020-08-05T14:20:47Z</time><name>PT16492</name></trkpt>
<trkpt lat="53.349173" lon="-1.848281"><ele>439</ele><time>2020-08-05T14:20:49Z</time><name>PT16493</name></trkpt>
<trkpt lat="53.349167" lon="-1.848290"><ele>439</ele><time>2020-08-05T14:20:49Z</time><name>PT16494</name></trkpt>
<trkpt lat="53.349158" lon="-1.848304"><ele>439</ele><time>2020-08-05T14:20:51Z</time><name>PT16495</name></trkpt>
<trkpt lat="53.349152" lon="-1.848318"><ele>439</ele><time>2020-08-05T14:20:52Z</time><name>PT16496</name></trkpt>
<trkpt lat="53.349149" lon="-1.848328"><ele>439</ele><time>2020-08-05T14:20:53Z</time><name>PT16497</name></trkpt>
<trkpt lat="53.349144" lon="-1.848339"><ele>439</ele><time>2020-08-05T14:20:54Z</time><name>PT16498</name></trkpt>
<trkpt lat="53.349140" lon="-1.848350"><ele>440</ele><time>2020-08-05T14:20:55Z</time><name>PT16499</name></trkpt>
<trkpt lat="53.349135" lon="-1.848362"><ele>440</ele><time>2020-08-05T14:20:55Z</time><name>PT16500</name></trkpt>
<trkpt lat="53.349129" lon="-1.848371"><ele>440</ele><time>2020-08-05T14:20:57Z</time><name>PT16501</name></trkpt>
<trkpt lat="53.349119" lon="-1.848379"><ele>440</ele><time>2020-08-05T14:20:58Z</time><name>PT16502</name></trkpt>
<trkpt lat="53.349115" lon="-1.848384"><ele>440</ele><time>2020-08-05T14:20:58Z</time><name>PT16503</name></trkpt>
<trkpt lat="53.349103" lon="-1.848399"><ele>440</ele><time>2020-08-05T14:21:00Z</time><name>PT16504</name></trkpt>
<trkpt lat="53.349095" lon="-1.848410"><ele>440</ele><time>2020-08-05T14:21:01Z</time><name>PT16505</name></trkpt>
<trkpt lat="53.349090" lon="-1.848417"><ele>440</ele><time>2020-08-05T14:21:01Z</time><name>PT16506</name></trkpt>
<trkpt lat="53.349085" lon="-1.848424"><ele>440</ele><time>2020-08-05T14:21:03Z</time><name>PT16507</name></trkpt>
<trkpt lat="53.349076" lon="-1.848439"><ele>441</ele><time>2020-08-05T14:21:04Z</time><name>PT16508</name></trkpt>
<trkpt lat="53.349070" lon="-1.848445"><ele>441</ele><time>2020-08-05T14:21:05Z</time><name>PT16509</name></trkpt>
<trkpt lat="53.349063" lon="-1.848454"><ele>441</ele><time>2020-08-05T14:21:07Z</time><name>PT16510</name></trkpt>
<trkpt lat="53.349058" lon="-1.848462"><ele>442</ele><time>2020-08-05T14:21:08Z</time><name>PT16511</name></trkpt>
<trkpt lat="53.349054" lon="-1.848467"><ele>442</ele><time>2020-08-05T14:21:09Z</time><name>PT16512</name></trkpt>
<trkpt lat="53.349047" lon="-1.848475"><ele>442</ele><time>2020-08-05T14:21:10Z</time><name>PT16513</name></trkpt>
<trkpt lat="53.349042" lon="-1.848483"><ele>443</ele><time>2020-08-05T14:21:10Z</time><name>PT16514</name></trkpt>
<trkpt lat="53.349041" lon="-1.848490"><ele>443</ele><time>2020-08-05T14:21:12Z</time><name>PT16515</name></trkpt>
<trkpt lat="53.349036" lon="-1.848495"><ele>443</ele><time>2020-08-05T14:21:13Z</time><name>PT16516</name></trkpt>
<trkpt lat="53.349028" lon="-1.848503"><ele>443</ele><time>2020-08-05T14:21:13Z</time><name>PT16517</name></trkpt>
<trkpt lat="53.349024" lon="-1.848510"><ele>444</ele><time>2020-08-05T14:21:15Z</time><name>PT16518</name></trkpt>
<trkpt lat="53.349018" lon="-1.848520"><ele>444</ele><time>2020-08-05T14:21:16Z</time><name>PT16519</name></trkpt>
<trkpt lat="53.349012" lon="-1.848532"><ele>445</ele><time>2020-08-05T14:21:16Z</time><name>PT16520</name></trkpt>
<trkpt lat="53.349006" lon="-1.848540"><ele>444</ele><time>2020-08-05T14:21:17Z</time><name>PT16521</name></trkpt>
<trkpt lat="53.348998" lon="-1.848551"><ele>445</ele><time>2020-08-05T14:21:19Z</time><name>PT16522</name></trkpt>
<trkpt lat="53.348990" lon="-1.848558"><ele>445</ele><time>2020-08-05T14:21:19Z</time><name>PT16523</name></trkpt>
<trkpt lat="53.348984" lon="-1.848562"><ele>444</ele><time>2020-08-05T14:21:20Z</time><name>PT16524</name></trkpt>
<trkpt lat="53.348978" lon="-1.848565"><ele>445</ele><time>2020-08-05T14:21:22Z</time><name>PT16525</name></trkpt>
<trkpt lat="53.348963" lon="-1.848573"><ele>445</ele><time>2020-08-05T14:21:24Z</time><name>PT16526</name></trkpt>
<trkpt lat="53.348955" lon="-1.848575"><ele>445</ele><time>2020-08-05T14:21:25Z</time><name>PT16527</name></trkpt>
<trkpt lat="53.348947" lon="-1.848581"><ele>445</ele><time>2020-08-05T14:21:25Z</time><name>PT16528</name></trkpt>
<trkpt lat="53.348945" lon="-1.848585"><ele>446</ele><time>2020-08-05T14:21:27Z</time><name>PT16529</name></trkpt>
<trkpt lat="53.348943" lon="-1.848590"><ele>446</ele><time>2020-08-05T14:21:28Z</time><name>PT16530</name></trkpt>
<trkpt lat="53.348936" lon="-1.848597"><ele>446</ele><time>2020-08-05T14:21:28Z</time><name>PT16531</name></trkpt>
<trkpt lat="53.348926" lon="-1.848607"><ele>446</ele><time>2020-08-05T14:21:30Z</time><name>PT16532</name></trkpt>
<trkpt lat="53.348918" lon="-1.848616"><ele>446</ele><time>2020-08-05T14:21:31Z</time><name>PT16533</name></trkpt>
<trkpt lat="53.348909" lon="-1.848624"><ele>445</ele><time>2020-08-05T14:21:31Z</time><name>PT16534</name></trkpt>
<trkpt lat="53.348902" lon="-1.848634"><ele>445</ele><time>2020-08-05T14:21:33Z</time><name>PT16535</name></trkpt>
<trkpt lat="53.348896" lon="-1.848644"><ele>445</ele><time>2020-08-05T14:21:34Z</time><name>PT16536</name></trkpt>
<trkpt lat="53.348881" lon="-1.848668"><ele>445</ele><time>2020-08-05T14:21:35Z</time><name>PT16537</name></trkpt>
<trkpt lat="53.348876" lon="-1.848678"><ele>446</ele><time>2020-08-05T14:21:37Z</time><name>PT16538</name></trkpt>
<trkpt lat="53.348869" lon="-1.848686"><ele>446</ele><time>2020-08-05T14:21:37Z</time><name>PT16539</name></trkpt>
<trkpt lat="53.348864" lon="-1.848691"><ele>446</ele><time>2020-08-05T14:21:39Z</time><name>PT16540</name></trkpt>
<trkpt lat="53.348860" lon="-1.848696"><ele>446</ele><time>2020-08-05T14:21:40Z</time><name>PT16541</name></trkpt>
<trkpt lat="53.348851" lon="-1.848709"><ele>445</ele><time>2020-08-05T14:21:40Z</time><name>PT16542</name></trkpt>
<trkpt lat="53.348847" lon="-1.848716"><ele>446</ele><time>2020-08-05T14:21:42Z</time><name>PT16543</name></trkpt>
<trkpt lat="53.348843" lon="-1.848726"><ele>447</ele><time>2020-08-05T14:21:43Z</time><name>PT16544</name></trkpt>
<trkpt lat="53.348837" lon="-1.848734"><ele>447</ele><time>2020-08-05T14:21:43Z</time><name>PT16545</name></trkpt>
<trkpt lat="53.348823" lon="-1.848759"><ele>447</ele><time>2020-08-05T14:21:46Z</time><name>PT16546</name></trkpt>
<trkpt lat="53.348819" lon="-1.848769"><ele>447</ele><time>2020-08-05T14:21:46Z</time><name>PT16547</name></trkpt>
<trkpt lat="53.348814" lon="-1.848783"><ele>447</ele><time>2020-08-05T14:21:48Z</time><name>PT16548</name></trkpt>
<trkpt lat="53.348807" lon="-1.848795"><ele>446</ele><time>2020-08-05T14:21:49Z</time><name>PT16549</name></trkpt>
<trkpt lat="53.348804" lon="-1.848803"><ele>447</ele><time>2020-08-05T14:21:49Z</time><name>PT16550</name></trkpt>
<trkpt lat="53.348798" lon="-1.848813"><ele>447</ele><time>2020-08-05T14:21:50Z</time><name>PT16551</name></trkpt>
<trkpt lat="53.348791" lon="-1.848823"><ele>447</ele><time>2020-08-05T14:21:52Z</time><name>PT16552</name></trkpt>
<trkpt lat="53.348784" lon="-1.848832"><ele>447</ele><time>2020-08-05T14:21:52Z</time><name>PT16553</name></trkpt>
<trkpt lat="53.348779" lon="-1.848840"><ele>448</ele><time>2020-08-05T14:21:54Z</time><name>PT16554</name></trkpt>
<trkpt lat="53.348772" lon="-1.848847"><ele>448</ele><time>2020-08-05T14:21:55Z</time><name>PT16555</name></trkpt>
<trkpt lat="53.348758" lon="-1.848862"><ele>448</ele><time>2020-08-05T14:21:57Z</time><name>PT16556</name></trkpt>
<trkpt lat="53.348753" lon="-1.848870"><ele>449</ele><time>2020-08-05T14:21:58Z</time><name>PT16557</name></trkpt>
<trkpt lat="53.348747" lon="-1.848877"><ele>449</ele><time>2020-08-05T14:21:58Z</time><name>PT16558</name></trkpt>
<trkpt lat="53.348741" lon="-1.848885"><ele>449</ele><time>2020-08-05T14:22:00Z</time><name>PT16559</name></trkpt>
<trkpt lat="53.348735" lon="-1.848895"><ele>449</ele><time>2020-08-05T14:22:01Z</time><name>PT16560</name></trkpt>
<trkpt lat="53.348729" lon="-1.848904"><ele>450</ele><time>2020-08-05T14:22:01Z</time><name>PT16561</name></trkpt>
<trkpt lat="53.348722" lon="-1.848916"><ele>450</ele><time>2020-08-05T14:22:02Z</time><name>PT16562</name></trkpt>
<trkpt lat="53.348714" lon="-1.848923"><ele>450</ele><time>2020-08-05T14:22:04Z</time><name>PT16563</name></trkpt>
<trkpt lat="53.348707" lon="-1.848931"><ele>450</ele><time>2020-08-05T14:22:04Z</time><name>PT16564</name></trkpt>
<trkpt lat="53.348702" lon="-1.848938"><ele>451</ele><time>2020-08-05T14:22:06Z</time><name>PT16565</name></trkpt>
<trkpt lat="53.348697" lon="-1.848946"><ele>451</ele><time>2020-08-05T14:22:07Z</time><name>PT16566</name></trkpt>
<trkpt lat="53.348693" lon="-1.848951"><ele>451</ele><time>2020-08-05T14:22:08Z</time><name>PT16567</name></trkpt>
<trkpt lat="53.348687" lon="-1.848955"><ele>451</ele><time>2020-08-05T14:22:09Z</time><name>PT16568</name></trkpt>
<trkpt lat="53.348680" lon="-1.848961"><ele>452</ele><time>2020-08-05T14:22:10Z</time><name>PT16569</name></trkpt>
<trkpt lat="53.348677" lon="-1.848968"><ele>452</ele><time>2020-08-05T14:22:11Z</time><name>PT16570</name></trkpt>
<trkpt lat="53.348673" lon="-1.848978"><ele>452</ele><time>2020-08-05T14:22:11Z</time><name>PT16571</name></trkpt>
<trkpt lat="53.348663" lon="-1.848988"><ele>452</ele><time>2020-08-05T14:22:13Z</time><name>PT16572</name></trkpt>
<trkpt lat="53.348656" lon="-1.848995"><ele>452</ele><time>2020-08-05T14:22:13Z</time><name>PT16573</name></trkpt>
<trkpt lat="53.348651" lon="-1.849002"><ele>452</ele><time>2020-08-05T14:22:14Z</time><name>PT16574</name></trkpt>
<trkpt lat="53.348643" lon="-1.849009"><ele>452</ele><time>2020-08-05T14:22:16Z</time><name>PT16575</name></trkpt>
<trkpt lat="53.348636" lon="-1.849018"><ele>452</ele><time>2020-08-05T14:22:16Z</time><name>PT16576</name></trkpt>
<trkpt lat="53.348627" lon="-1.849029"><ele>452</ele><time>2020-08-05T14:22:18Z</time><name>PT16577</name></trkpt>
<trkpt lat="53.348623" lon="-1.849041"><ele>452</ele><time>2020-08-05T14:22:19Z</time><name>PT16578</name></trkpt>
<trkpt lat="53.348618" lon="-1.849052"><ele>452</ele><time>2020-08-05T14:22:19Z</time><name>PT16579</name></trkpt>
<trkpt lat="53.348615" lon="-1.849062"><ele>452</ele><time>2020-08-05T14:22:21Z</time><name>PT16580</name></trkpt>
<trkpt lat="53.348610" lon="-1.849070"><ele>452</ele><time>2020-08-05T14:22:22Z</time><name>PT16581</name></trkpt>
<trkpt lat="53.348612" lon="-1.849081"><ele>452</ele><time>2020-08-05T14:22:22Z</time><name>PT16582</name></trkpt>
<trkpt lat="53.348610" lon="-1.849094"><ele>452</ele><time>2020-08-05T14:22:23Z</time><name>PT16583</name></trkpt>
<trkpt lat="53.348601" lon="-1.849110"><ele>451</ele><time>2020-08-05T14:22:25Z</time><name>PT16584</name></trkpt>
<trkpt lat="53.348593" lon="-1.849125"><ele>451</ele><time>2020-08-05T14:22:26Z</time><name>PT16585</name></trkpt>
<trkpt lat="53.348585" lon="-1.849140"><ele>451</ele><time>2020-08-05T14:22:27Z</time><name>PT16586</name></trkpt>
<trkpt lat="53.348579" lon="-1.849152"><ele>451</ele><time>2020-08-05T14:22:28Z</time><name>PT16587</name></trkpt>
<trkpt lat="53.348575" lon="-1.849162"><ele>451</ele><time>2020-08-05T14:22:28Z</time><name>PT16588</name></trkpt>
<trkpt lat="53.348573" lon="-1.849169"><ele>452</ele><time>2020-08-05T14:22:30Z</time><name>PT16589</name></trkpt>
<trkpt lat="53.348573" lon="-1.849182"><ele>452</ele><time>2020-08-05T14:22:31Z</time><name>PT16590</name></trkpt>
<trkpt lat="53.348570" lon="-1.849193"><ele>453</ele><time>2020-08-05T14:22:32Z</time><name>PT16591</name></trkpt>
<trkpt lat="53.348565" lon="-1.849207"><ele>453</ele><time>2020-08-05T14:22:33Z</time><name>PT16592</name></trkpt>
<trkpt lat="53.348560" lon="-1.849219"><ele>453</ele><time>2020-08-05T14:22:34Z</time><name>PT16593</name></trkpt>
<trkpt lat="53.348559" lon="-1.849231"><ele>454</ele><time>2020-08-05T14:22:35Z</time><name>PT16594</name></trkpt>
<trkpt lat="53.348555" lon="-1.849243"><ele>454</ele><time>2020-08-05T14:22:36Z</time><name>PT16595</name></trkpt>
<trkpt lat="53.348551" lon="-1.849254"><ele>453</ele><time>2020-08-05T14:22:37Z</time><name>PT16596</name></trkpt>
<trkpt lat="53.348544" lon="-1.849268"><ele>453</ele><time>2020-08-05T14:22:37Z</time><name>PT16597</name></trkpt>
<trkpt lat="53.348529" lon="-1.849296"><ele>453</ele><time>2020-08-05T14:22:40Z</time><name>PT16598</name></trkpt>
<trkpt lat="53.348524" lon="-1.849314"><ele>452</ele><time>2020-08-05T14:22:40Z</time><name>PT16599</name></trkpt>
<trkpt lat="53.348523" lon="-1.849332"><ele>453</ele><time>2020-08-05T14:22:42Z</time><name>PT16600</name></trkpt>
<trkpt lat="53.348520" lon="-1.849344"><ele>453</ele><time>2020-08-05T14:22:43Z</time><name>PT16601</name></trkpt>
<trkpt lat="53.348516" lon="-1.849355"><ele>453</ele><time>2020-08-05T14:22:43Z</time><name>PT16602</name></trkpt>
<trkpt lat="53.348514" lon="-1.849366"><ele>453</ele><time>2020-08-05T14:22:45Z</time><name>PT16603</name></trkpt>
<trkpt lat="53.348513" lon="-1.849384"><ele>454</ele><time>2020-08-05T14:22:46Z</time><name>PT16604</name></trkpt>
<trkpt lat="53.348509" lon="-1.849402"><ele>454</ele><time>2020-08-05T14:22:46Z</time><name>PT16605</name></trkpt>
<trkpt lat="53.348507" lon="-1.849415"><ele>454</ele><time>2020-08-05T14:22:48Z</time><name>PT16606</name></trkpt>
<trkpt lat="53.348503" lon="-1.849432"><ele>455</ele><time>2020-08-05T14:22:49Z</time><name>PT16607</name></trkpt>
<trkpt lat="53.348502" lon="-1.849446"><ele>456</ele><time>2020-08-05T14:22:49Z</time><name>PT16608</name></trkpt>
<trkpt lat="53.348499" lon="-1.849458"><ele>456</ele><time>2020-08-05T14:22:51Z</time><name>PT16609</name></trkpt>
<trkpt lat="53.348496" lon="-1.849476"><ele>456</ele><time>2020-08-05T14:22:52Z</time><name>PT16610</name></trkpt>
<trkpt lat="53.348492" lon="-1.849488"><ele>456</ele><time>2020-08-05T14:22:52Z</time><name>PT16611</name></trkpt>
<trkpt lat="53.348489" lon="-1.849499"><ele>456</ele><time>2020-08-05T14:22:54Z</time><name>PT16612</name></trkpt>
<trkpt lat="53.348484" lon="-1.849511"><ele>456</ele><time>2020-08-05T14:22:55Z</time><name>PT16613</name></trkpt>
<trkpt lat="53.348480" lon="-1.849524"><ele>457</ele><time>2020-08-05T14:22:55Z</time><name>PT16614</name></trkpt>
<trkpt lat="53.348475" lon="-1.849533"><ele>456</ele><time>2020-08-05T14:22:56Z</time><name>PT16615</name></trkpt>
<trkpt lat="53.348472" lon="-1.849545"><ele>457</ele><time>2020-08-05T14:22:58Z</time><name>PT16616</name></trkpt>
<trkpt lat="53.348468" lon="-1.849554"><ele>457</ele><time>2020-08-05T14:22:58Z</time><name>PT16617</name></trkpt>
<trkpt lat="53.348462" lon="-1.849569"><ele>457</ele><time>2020-08-05T14:22:59Z</time><name>PT16618</name></trkpt>
<trkpt lat="53.348461" lon="-1.849582"><ele>458</ele><time>2020-08-05T14:23:01Z</time><name>PT16619</name></trkpt>
<trkpt lat="53.348459" lon="-1.849592"><ele>458</ele><time>2020-08-05T14:23:01Z</time><name>PT16620</name></trkpt>
<trkpt lat="53.348455" lon="-1.849606"><ele>457</ele><time>2020-08-05T14:23:02Z</time><name>PT16621</name></trkpt>
<trkpt lat="53.348451" lon="-1.849615"><ele>458</ele><time>2020-08-05T14:23:04Z</time><name>PT16622</name></trkpt>
<trkpt lat="53.348449" lon="-1.849624"><ele>459</ele><time>2020-08-05T14:23:04Z</time><name>PT16623</name></trkpt>
<trkpt lat="53.348449" lon="-1.849631"><ele>459</ele><time>2020-08-05T14:23:05Z</time><name>PT16624</name></trkpt>
<trkpt lat="53.348445" lon="-1.849644"><ele>460</ele><time>2020-08-05T14:23:07Z</time><name>PT16625</name></trkpt>
<trkpt lat="53.348439" lon="-1.849657"><ele>460</ele><time>2020-08-05T14:23:07Z</time><name>PT16626</name></trkpt>
<trkpt lat="53.348433" lon="-1.849668"><ele>459</ele><time>2020-08-05T14:23:08Z</time><name>PT16627</name></trkpt>
<trkpt lat="53.348429" lon="-1.849684"><ele>460</ele><time>2020-08-05T14:23:10Z</time><name>PT16628</name></trkpt>
<trkpt lat="53.348421" lon="-1.849696"><ele>459</ele><time>2020-08-05T14:23:10Z</time><name>PT16629</name></trkpt>
<trkpt lat="53.348418" lon="-1.849707"><ele>460</ele><time>2020-08-05T14:23:12Z</time><name>PT16630</name></trkpt>
<trkpt lat="53.348412" lon="-1.849729"><ele>460</ele><time>2020-08-05T14:23:13Z</time><name>PT16631</name></trkpt>
<trkpt lat="53.348409" lon="-1.849743"><ele>460</ele><time>2020-08-05T14:23:14Z</time><name>PT16632</name></trkpt>
<trkpt lat="53.348406" lon="-1.849760"><ele>460</ele><time>2020-08-05T14:23:16Z</time><name>PT16633</name></trkpt>
<trkpt lat="53.348403" lon="-1.849779"><ele>461</ele><time>2020-08-05T14:23:16Z</time><name>PT16634</name></trkpt>
<trkpt lat="53.348394" lon="-1.849796"><ele>460</ele><time>2020-08-05T14:23:18Z</time><name>PT16635</name></trkpt>
<trkpt lat="53.348388" lon="-1.849811"><ele>460</ele><time>2020-08-05T14:23:19Z</time><name>PT16636</name></trkpt>
<trkpt lat="53.348385" lon="-1.849825"><ele>461</ele><time>2020-08-05T14:23:19Z</time><name>PT16637</name></trkpt>
<trkpt lat="53.348382" lon="-1.849835"><ele>461</ele><time>2020-08-05T14:23:21Z</time><name>PT16638</name></trkpt>
<trkpt lat="53.348378" lon="-1.849849"><ele>460</ele><time>2020-08-05T14:23:22Z</time><name>PT16639</name></trkpt>
<trkpt lat="53.348372" lon="-1.849877"><ele>461</ele><time>2020-08-05T14:23:24Z</time><name>PT16640</name></trkpt>
<trkpt lat="53.348370" lon="-1.849886"><ele>461</ele><time>2020-08-05T14:23:25Z</time><name>PT16641</name></trkpt>
<trkpt lat="53.348365" lon="-1.849895"><ele>461</ele><time>2020-08-05T14:23:25Z</time><name>PT16642</name></trkpt>
<trkpt lat="53.348361" lon="-1.849912"><ele>461</ele><time>2020-08-05T14:23:27Z</time><name>PT16643</name></trkpt>
<trkpt lat="53.348358" lon="-1.849929"><ele>462</ele><time>2020-08-05T14:23:28Z</time><name>PT16644</name></trkpt>
<trkpt lat="53.348353" lon="-1.849946"><ele>463</ele><time>2020-08-05T14:23:28Z</time><name>PT16645</name></trkpt>
<trkpt lat="53.348347" lon="-1.849966"><ele>463</ele><time>2020-08-05T14:23:30Z</time><name>PT16646</name></trkpt>
<trkpt lat="53.348343" lon="-1.849979"><ele>463</ele><time>2020-08-05T14:23:31Z</time><name>PT16647</name></trkpt>
<trkpt lat="53.348341" lon="-1.849999"><ele>464</ele><time>2020-08-05T14:23:31Z</time><name>PT16648</name></trkpt>
<trkpt lat="53.348338" lon="-1.850016"><ele>465</ele><time>2020-08-05T14:23:33Z</time><name>PT16649</name></trkpt>
<trkpt lat="53.348331" lon="-1.850050"><ele>465</ele><time>2020-08-05T14:23:34Z</time><name>PT16650</name></trkpt>
<trkpt lat="53.348326" lon="-1.850068"><ele>465</ele><time>2020-08-05T14:23:36Z</time><name>PT16651</name></trkpt>
<trkpt lat="53.348322" lon="-1.850082"><ele>466</ele><time>2020-08-05T14:23:37Z</time><name>PT16652</name></trkpt>
<trkpt lat="53.348317" lon="-1.850092"><ele>466</ele><time>2020-08-05T14:23:37Z</time><name>PT16653</name></trkpt>
<trkpt lat="53.348314" lon="-1.850106"><ele>466</ele><time>2020-08-05T14:23:38Z</time><name>PT16654</name></trkpt>
<trkpt lat="53.348310" lon="-1.850126"><ele>466</ele><time>2020-08-05T14:23:40Z</time><name>PT16655</name></trkpt>
<trkpt lat="53.348307" lon="-1.850142"><ele>466</ele><time>2020-08-05T14:23:40Z</time><name>PT16656</name></trkpt>
<trkpt lat="53.348307" lon="-1.850156"><ele>467</ele><time>2020-08-05T14:23:42Z</time><name>PT16657</name></trkpt>
<trkpt lat="53.348303" lon="-1.850170"><ele>467</ele><time>2020-08-05T14:23:43Z</time><name>PT16658</name></trkpt>
<trkpt lat="53.348300" lon="-1.850186"><ele>467</ele><time>2020-08-05T14:23:43Z</time><name>PT16659</name></trkpt>
<trkpt lat="53.348296" lon="-1.850205"><ele>467</ele><time>2020-08-05T14:23:44Z</time><name>PT16660</name></trkpt>
<trkpt lat="53.348292" lon="-1.850224"><ele>467</ele><time>2020-08-05T14:23:46Z</time><name>PT16661</name></trkpt>
<trkpt lat="53.348290" lon="-1.850241"><ele>467</ele><time>2020-08-05T14:23:46Z</time><name>PT16662</name></trkpt>
<trkpt lat="53.348286" lon="-1.850262"><ele>466</ele><time>2020-08-05T14:23:47Z</time><name>PT16663</name></trkpt>
<trkpt lat="53.348286" lon="-1.850279"><ele>467</ele><time>2020-08-05T14:23:49Z</time><name>PT16664</name></trkpt>
<trkpt lat="53.348283" lon="-1.850297"><ele>467</ele><time>2020-08-05T14:23:49Z</time><name>PT16665</name></trkpt>
<trkpt lat="53.348277" lon="-1.850312"><ele>466</ele><time>2020-08-05T14:23:51Z</time><name>PT16666</name></trkpt>
<trkpt lat="53.348271" lon="-1.850329"><ele>467</ele><time>2020-08-05T14:23:52Z</time><name>PT16667</name></trkpt>
<trkpt lat="53.348268" lon="-1.850347"><ele>467</ele><time>2020-08-05T14:23:52Z</time><name>PT16668</name></trkpt>
<trkpt lat="53.348263" lon="-1.850367"><ele>467</ele><time>2020-08-05T14:23:53Z</time><name>PT16669</name></trkpt>
<trkpt lat="53.348259" lon="-1.850386"><ele>467</ele><time>2020-08-05T14:23:55Z</time><name>PT16670</name></trkpt>
<trkpt lat="53.348252" lon="-1.850425"><ele>468</ele><time>2020-08-05T14:23:57Z</time><name>PT16671</name></trkpt>
<trkpt lat="53.348249" lon="-1.850441"><ele>468</ele><time>2020-08-05T14:23:58Z</time><name>PT16672</name></trkpt>
<trkpt lat="53.348245" lon="-1.850459"><ele>469</ele><time>2020-08-05T14:23:58Z</time><name>PT16673</name></trkpt>
<trkpt lat="53.348235" lon="-1.850490"><ele>468</ele><time>2020-08-05T14:24:01Z</time><name>PT16674</name></trkpt>
<trkpt lat="53.348230" lon="-1.850506"><ele>468</ele><time>2020-08-05T14:24:01Z</time><name>PT16675</name></trkpt>
<trkpt lat="53.348227" lon="-1.850519"><ele>468</ele><time>2020-08-05T14:24:02Z</time><name>PT16676</name></trkpt>
<trkpt lat="53.348221" lon="-1.850535"><ele>468</ele><time>2020-08-05T14:24:04Z</time><name>PT16677</name></trkpt>
<trkpt lat="53.348216" lon="-1.850547"><ele>468</ele><time>2020-08-05T14:24:04Z</time><name>PT16678</name></trkpt>
<trkpt lat="53.348213" lon="-1.850564"><ele>470</ele><time>2020-08-05T14:24:05Z</time><name>PT16679</name></trkpt>
<trkpt lat="53.348208" lon="-1.850579"><ele>470</ele><time>2020-08-05T14:24:07Z</time><name>PT16680</name></trkpt>
<trkpt lat="53.348204" lon="-1.850589"><ele>470</ele><time>2020-08-05T14:24:07Z</time><name>PT16681</name></trkpt>
<trkpt lat="53.348197" lon="-1.850602"><ele>471</ele><time>2020-08-05T14:24:09Z</time><name>PT16682</name></trkpt>
<trkpt lat="53.348191" lon="-1.850615"><ele>471</ele><time>2020-08-05T14:24:10Z</time><name>PT16683</name></trkpt>
<trkpt lat="53.348183" lon="-1.850630"><ele>471</ele><time>2020-08-05T14:24:10Z</time><name>PT16684</name></trkpt>
<trkpt lat="53.348178" lon="-1.850645"><ele>472</ele><time>2020-08-05T14:24:12Z</time><name>PT16685</name></trkpt>
<trkpt lat="53.348173" lon="-1.850658"><ele>473</ele><time>2020-08-05T14:24:13Z</time><name>PT16686</name></trkpt>
<trkpt lat="53.348167" lon="-1.850670"><ele>472</ele><time>2020-08-05T14:24:13Z</time><name>PT16687</name></trkpt>
<trkpt lat="53.348162" lon="-1.850680"><ele>472</ele><time>2020-08-05T14:24:15Z</time><name>PT16688</name></trkpt>
<trkpt lat="53.348155" lon="-1.850693"><ele>472</ele><time>2020-08-05T14:24:16Z</time><name>PT16689</name></trkpt>
<trkpt lat="53.348152" lon="-1.850709"><ele>472</ele><time>2020-08-05T14:24:16Z</time><name>PT16690</name></trkpt>
<trkpt lat="53.348147" lon="-1.850726"><ele>473</ele><time>2020-08-05T14:24:18Z</time><name>PT16691</name></trkpt>
<trkpt lat="53.348143" lon="-1.850740"><ele>473</ele><time>2020-08-05T14:24:19Z</time><name>PT16692</name></trkpt>
<trkpt lat="53.348138" lon="-1.850758"><ele>473</ele><time>2020-08-05T14:24:19Z</time><name>PT16693</name></trkpt>
<trkpt lat="53.348132" lon="-1.850773"><ele>473</ele><time>2020-08-05T14:24:21Z</time><name>PT16694</name></trkpt>
<trkpt lat="53.348125" lon="-1.850790"><ele>473</ele><time>2020-08-05T14:24:22Z</time><name>PT16695</name></trkpt>
<trkpt lat="53.348118" lon="-1.850808"><ele>473</ele><time>2020-08-05T14:24:22Z</time><name>PT16696</name></trkpt>
<trkpt lat="53.348114" lon="-1.850822"><ele>473</ele><time>2020-08-05T14:24:23Z</time><name>PT16697</name></trkpt>
<trkpt lat="53.348110" lon="-1.850835"><ele>472</ele><time>2020-08-05T14:24:25Z</time><name>PT16698</name></trkpt>
<trkpt lat="53.348105" lon="-1.850851"><ele>473</ele><time>2020-08-05T14:24:25Z</time><name>PT16699</name></trkpt>
<trkpt lat="53.348100" lon="-1.850867"><ele>473</ele><time>2020-08-05T14:24:27Z</time><name>PT16700</name></trkpt>
<trkpt lat="53.348101" lon="-1.850873"><ele>474</ele><time>2020-08-05T14:24:28Z</time><name>PT16701</name></trkpt>
<trkpt lat="53.348098" lon="-1.850884"><ele>474</ele><time>2020-08-05T14:24:28Z</time><name>PT16702</name></trkpt>
<trkpt lat="53.348094" lon="-1.850897"><ele>474</ele><time>2020-08-05T14:24:30Z</time><name>PT16703</name></trkpt>
<trkpt lat="53.348090" lon="-1.850915"><ele>474</ele><time>2020-08-05T14:24:31Z</time><name>PT16704</name></trkpt>
<trkpt lat="53.348085" lon="-1.850928"><ele>474</ele><time>2020-08-05T14:24:31Z</time><name>PT16705</name></trkpt>
<trkpt lat="53.348081" lon="-1.850939"><ele>474</ele><time>2020-08-05T14:24:33Z</time><name>PT16706</name></trkpt>
<trkpt lat="53.348078" lon="-1.850949"><ele>473</ele><time>2020-08-05T14:24:34Z</time><name>PT16707</name></trkpt>
<trkpt lat="53.348074" lon="-1.850963"><ele>473</ele><time>2020-08-05T14:24:34Z</time><name>PT16708</name></trkpt>
<trkpt lat="53.348067" lon="-1.850983"><ele>473</ele><time>2020-08-05T14:24:36Z</time><name>PT16709</name></trkpt>
<trkpt lat="53.348062" lon="-1.850995"><ele>473</ele><time>2020-08-05T14:24:37Z</time><name>PT16710</name></trkpt>
<trkpt lat="53.348060" lon="-1.851005"><ele>473</ele><time>2020-08-05T14:24:37Z</time><name>PT16711</name></trkpt>
<trkpt lat="53.348056" lon="-1.851015"><ele>474</ele><time>2020-08-05T14:24:39Z</time><name>PT16712</name></trkpt>
<trkpt lat="53.348049" lon="-1.851032"><ele>473</ele><time>2020-08-05T14:24:40Z</time><name>PT16713</name></trkpt>
<trkpt lat="53.348044" lon="-1.851049"><ele>474</ele><time>2020-08-05T14:24:40Z</time><name>PT16714</name></trkpt>
<trkpt lat="53.348040" lon="-1.851064"><ele>473</ele><time>2020-08-05T14:24:42Z</time><name>PT16715</name></trkpt>
<trkpt lat="53.348036" lon="-1.851076"><ele>473</ele><time>2020-08-05T14:24:43Z</time><name>PT16716</name></trkpt>
<trkpt lat="53.348032" lon="-1.851091"><ele>473</ele><time>2020-08-05T14:24:43Z</time><name>PT16717</name></trkpt>
<trkpt lat="53.348027" lon="-1.851105"><ele>474</ele><time>2020-08-05T14:24:45Z</time><name>PT16718</name></trkpt>
<trkpt lat="53.348021" lon="-1.851117"><ele>474</ele><time>2020-08-05T14:24:46Z</time><name>PT16719</name></trkpt>
<trkpt lat="53.348015" lon="-1.851129"><ele>474</ele><time>2020-08-05T14:24:46Z</time><name>PT16720</name></trkpt>
<trkpt lat="53.348011" lon="-1.851143"><ele>474</ele><time>2020-08-05T14:24:47Z</time><name>PT16721</name></trkpt>
<trkpt lat="53.348006" lon="-1.851153"><ele>473</ele><time>2020-08-05T14:24:49Z</time><name>PT16722</name></trkpt>
<trkpt lat="53.348001" lon="-1.851165"><ele>474</ele><time>2020-08-05T14:24:49Z</time><name>PT16723</name></trkpt>
<trkpt lat="53.347996" lon="-1.851174"><ele>474</ele><time>2020-08-05T14:24:50Z</time><name>PT16724</name></trkpt>
<trkpt lat="53.347990" lon="-1.851188"><ele>474</ele><time>2020-08-05T14:24:52Z</time><name>PT16725</name></trkpt>
<trkpt lat="53.347985" lon="-1.851202"><ele>474</ele><time>2020-08-05T14:24:52Z</time><name>PT16726</name></trkpt>
<trkpt lat="53.347978" lon="-1.851217"><ele>474</ele><time>2020-08-05T14:24:54Z</time><name>PT16727</name></trkpt>
<trkpt lat="53.347973" lon="-1.851225"><ele>474</ele><time>2020-08-05T14:24:55Z</time><name>PT16728</name></trkpt>
<trkpt lat="53.347969" lon="-1.851235"><ele>474</ele><time>2020-08-05T14:24:55Z</time><name>PT16729</name></trkpt>
<trkpt lat="53.347955" lon="-1.851258"><ele>475</ele><time>2020-08-05T14:24:58Z</time><name>PT16730</name></trkpt>
<trkpt lat="53.347944" lon="-1.851275"><ele>475</ele><time>2020-08-05T14:25:00Z</time><name>PT16731</name></trkpt>
<trkpt lat="53.347938" lon="-1.851286"><ele>475</ele><time>2020-08-05T14:25:01Z</time><name>PT16732</name></trkpt>
<trkpt lat="53.347934" lon="-1.851293"><ele>475</ele><time>2020-08-05T14:25:01Z</time><name>PT16733</name></trkpt>
<trkpt lat="53.347930" lon="-1.851305"><ele>476</ele><time>2020-08-05T14:25:03Z</time><name>PT16734</name></trkpt>
<trkpt lat="53.347925" lon="-1.851315"><ele>475</ele><time>2020-08-05T14:25:04Z</time><name>PT16735</name></trkpt>
<trkpt lat="53.347921" lon="-1.851320"><ele>475</ele><time>2020-08-05T14:25:04Z</time><name>PT16736</name></trkpt>
<trkpt lat="53.347913" lon="-1.851329"><ele>475</ele><time>2020-08-05T14:25:06Z</time><name>PT16737</name></trkpt>
<trkpt lat="53.347907" lon="-1.851336"><ele>475</ele><time>2020-08-05T14:25:07Z</time><name>PT16738</name></trkpt>
<trkpt lat="53.347901" lon="-1.851342"><ele>475</ele><time>2020-08-05T14:25:07Z</time><name>PT16739</name></trkpt>
<trkpt lat="53.347889" lon="-1.851358"><ele>475</ele><time>2020-08-05T14:25:10Z</time><name>PT16740</name></trkpt>
<trkpt lat="53.347884" lon="-1.851366"><ele>475</ele><time>2020-08-05T14:25:10Z</time><name>PT16741</name></trkpt>
<trkpt lat="53.347878" lon="-1.851378"><ele>475</ele><time>2020-08-05T14:25:12Z</time><name>PT16742</name></trkpt>
<trkpt lat="53.347872" lon="-1.851388"><ele>475</ele><time>2020-08-05T14:25:13Z</time><name>PT16743</name></trkpt>
<trkpt lat="53.347867" lon="-1.851398"><ele>476</ele><time>2020-08-05T14:25:13Z</time><name>PT16744</name></trkpt>
<trkpt lat="53.347860" lon="-1.851410"><ele>476</ele><time>2020-08-05T14:25:15Z</time><name>PT16745</name></trkpt>
<trkpt lat="53.347854" lon="-1.851422"><ele>476</ele><time>2020-08-05T14:25:16Z</time><name>PT16746</name></trkpt>
<trkpt lat="53.347848" lon="-1.851430"><ele>476</ele><time>2020-08-05T14:25:16Z</time><name>PT16747</name></trkpt>
<trkpt lat="53.347842" lon="-1.851439"><ele>476</ele><time>2020-08-05T14:25:18Z</time><name>PT16748</name></trkpt>
<trkpt lat="53.347834" lon="-1.851447"><ele>477</ele><time>2020-08-05T14:25:19Z</time><name>PT16749</name></trkpt>
<trkpt lat="53.347826" lon="-1.851455"><ele>477</ele><time>2020-08-05T14:25:19Z</time><name>PT16750</name></trkpt>
<trkpt lat="53.347819" lon="-1.851463"><ele>477</ele><time>2020-08-05T14:25:21Z</time><name>PT16751</name></trkpt>
<trkpt lat="53.347812" lon="-1.851477"><ele>477</ele><time>2020-08-05T14:25:22Z</time><name>PT16752</name></trkpt>
<trkpt lat="53.347804" lon="-1.851491"><ele>477</ele><time>2020-08-05T14:25:22Z</time><name>PT16753</name></trkpt>
<trkpt lat="53.347794" lon="-1.851501"><ele>477</ele><time>2020-08-05T14:25:24Z</time><name>PT16754</name></trkpt>
<trkpt lat="53.347786" lon="-1.851507"><ele>477</ele><time>2020-08-05T14:25:25Z</time><name>PT16755</name></trkpt>
<trkpt lat="53.347777" lon="-1.851513"><ele>478</ele><time>2020-08-05T14:25:25Z</time><name>PT16756</name></trkpt>
<trkpt lat="53.347768" lon="-1.851522"><ele>478</ele><time>2020-08-05T14:25:27Z</time><name>PT16757</name></trkpt>
<trkpt lat="53.347758" lon="-1.851531"><ele>479</ele><time>2020-08-05T14:25:28Z</time><name>PT16758</name></trkpt>
<trkpt lat="53.347741" lon="-1.851545"><ele>479</ele><time>2020-08-05T14:25:30Z</time><name>PT16759</name></trkpt>
<trkpt lat="53.347732" lon="-1.851553"><ele>479</ele><time>2020-08-05T14:25:31Z</time><name>PT16760</name></trkpt>
<trkpt lat="53.347725" lon="-1.851554"><ele>479</ele><time>2020-08-05T14:25:31Z</time><name>PT16761</name></trkpt>
<trkpt lat="53.347716" lon="-1.851559"><ele>479</ele><time>2020-08-05T14:25:33Z</time><name>PT16762</name></trkpt>
<trkpt lat="53.347707" lon="-1.851563"><ele>479</ele><time>2020-08-05T14:25:34Z</time><name>PT16763</name></trkpt>
<trkpt lat="53.347698" lon="-1.851569"><ele>479</ele><time>2020-08-05T14:25:34Z</time><name>PT16764</name></trkpt>
<trkpt lat="53.347691" lon="-1.851572"><ele>480</ele><time>2020-08-05T14:25:35Z</time><name>PT16765</name></trkpt>
<trkpt lat="53.347685" lon="-1.851575"><ele>480</ele><time>2020-08-05T14:25:37Z</time><name>PT16766</name></trkpt>
<trkpt lat="53.347677" lon="-1.851576"><ele>481</ele><time>2020-08-05T14:25:37Z</time><name>PT16767</name></trkpt>
<trkpt lat="53.347668" lon="-1.851579"><ele>480</ele><time>2020-08-05T14:25:39Z</time><name>PT16768</name></trkpt>
<trkpt lat="53.347662" lon="-1.851586"><ele>480</ele><time>2020-08-05T14:25:40Z</time><name>PT16769</name></trkpt>
<trkpt lat="53.347655" lon="-1.851593"><ele>480</ele><time>2020-08-05T14:25:40Z</time><name>PT16770</name></trkpt>
<trkpt lat="53.347644" lon="-1.851603"><ele>480</ele><time>2020-08-05T14:25:42Z</time><name>PT16771</name></trkpt>
<trkpt lat="53.347636" lon="-1.851606"><ele>480</ele><time>2020-08-05T14:25:43Z</time><name>PT16772</name></trkpt>
<trkpt lat="53.347626" lon="-1.851612"><ele>480</ele><time>2020-08-05T14:25:43Z</time><name>PT16773</name></trkpt>
<trkpt lat="53.347619" lon="-1.851616"><ele>480</ele><time>2020-08-05T14:25:45Z</time><name>PT16774</name></trkpt>
<trkpt lat="53.347610" lon="-1.851621"><ele>480</ele><time>2020-08-05T14:25:46Z</time><name>PT16775</name></trkpt>
<trkpt lat="53.347603" lon="-1.851627"><ele>480</ele><time>2020-08-05T14:25:46Z</time><name>PT16776</name></trkpt>
<trkpt lat="53.347587" lon="-1.851647"><ele>481</ele><time>2020-08-05T14:25:49Z</time><name>PT16777</name></trkpt>
<trkpt lat="53.347582" lon="-1.851652"><ele>481</ele><time>2020-08-05T14:25:49Z</time><name>PT16778</name></trkpt>
<trkpt lat="53.347575" lon="-1.851655"><ele>481</ele><time>2020-08-05T14:25:51Z</time><name>PT16779</name></trkpt>
<trkpt lat="53.347569" lon="-1.851661"><ele>481</ele><time>2020-08-05T14:25:52Z</time><name>PT16780</name></trkpt>
<trkpt lat="53.347562" lon="-1.851664"><ele>481</ele><time>2020-08-05T14:25:52Z</time><name>PT16781</name></trkpt>
<trkpt lat="53.347555" lon="-1.851669"><ele>481</ele><time>2020-08-05T14:25:54Z</time><name>PT16782</name></trkpt>
<trkpt lat="53.347547" lon="-1.851678"><ele>481</ele><time>2020-08-05T14:25:55Z</time><name>PT16783</name></trkpt>
<trkpt lat="53.347541" lon="-1.851683"><ele>481</ele><time>2020-08-05T14:25:55Z</time><name>PT16784</name></trkpt>
<trkpt lat="53.347533" lon="-1.851687"><ele>481</ele><time>2020-08-05T14:25:56Z</time><name>PT16785</name></trkpt>
<trkpt lat="53.347524" lon="-1.851694"><ele>481</ele><time>2020-08-05T14:25:58Z</time><name>PT16786</name></trkpt>
<trkpt lat="53.347517" lon="-1.851700"><ele>481</ele><time>2020-08-05T14:25:59Z</time><name>PT16787</name></trkpt>
<trkpt lat="53.347506" lon="-1.851706"><ele>482</ele><time>2020-08-05T14:26:00Z</time><name>PT16788</name></trkpt>
<trkpt lat="53.347496" lon="-1.851710"><ele>481</ele><time>2020-08-05T14:26:01Z</time><name>PT16789</name></trkpt>
<trkpt lat="53.347488" lon="-1.851715"><ele>482</ele><time>2020-08-05T14:26:01Z</time><name>PT16790</name></trkpt>
<trkpt lat="53.347478" lon="-1.851723"><ele>482</ele><time>2020-08-05T14:26:03Z</time><name>PT16791</name></trkpt>
<trkpt lat="53.347470" lon="-1.851729"><ele>481</ele><time>2020-08-05T14:26:04Z</time><name>PT16792</name></trkpt>
<trkpt lat="53.347463" lon="-1.851733"><ele>482</ele><time>2020-08-05T14:26:05Z</time><name>PT16793</name></trkpt>
<trkpt lat="53.347456" lon="-1.851739"><ele>482</ele><time>2020-08-05T14:26:06Z</time><name>PT16794</name></trkpt>
<trkpt lat="53.347448" lon="-1.851746"><ele>482</ele><time>2020-08-05T14:26:07Z</time><name>PT16795</name></trkpt>
<trkpt lat="53.347441" lon="-1.851753"><ele>482</ele><time>2020-08-05T14:26:08Z</time><name>PT16796</name></trkpt>
<trkpt lat="53.347433" lon="-1.851758"><ele>483</ele><time>2020-08-05T14:26:09Z</time><name>PT16797</name></trkpt>
<trkpt lat="53.347424" lon="-1.851764"><ele>483</ele><time>2020-08-05T14:26:10Z</time><name>PT16798</name></trkpt>
<trkpt lat="53.347417" lon="-1.851770"><ele>483</ele><time>2020-08-05T14:26:10Z</time><name>PT16799</name></trkpt>
<trkpt lat="53.347409" lon="-1.851775"><ele>484</ele><time>2020-08-05T14:26:12Z</time><name>PT16800</name></trkpt>
<trkpt lat="53.347403" lon="-1.851780"><ele>484</ele><time>2020-08-05T14:26:13Z</time><name>PT16801</name></trkpt>
<trkpt lat="53.347394" lon="-1.851788"><ele>485</ele><time>2020-08-05T14:26:13Z</time><name>PT16802</name></trkpt>
<trkpt lat="53.347385" lon="-1.851794"><ele>485</ele><time>2020-08-05T14:26:15Z</time><name>PT16803</name></trkpt>
<trkpt lat="53.347380" lon="-1.851793"><ele>486</ele><time>2020-08-05T14:26:16Z</time><name>PT16804</name></trkpt>
<trkpt lat="53.347370" lon="-1.851794"><ele>487</ele><time>2020-08-05T14:26:16Z</time><name>PT16805</name></trkpt>
<trkpt lat="53.347361" lon="-1.851796"><ele>487</ele><time>2020-08-05T14:26:18Z</time><name>PT16806</name></trkpt>
<trkpt lat="53.347351" lon="-1.851798"><ele>487</ele><time>2020-08-05T14:26:19Z</time><name>PT16807</name></trkpt>
<trkpt lat="53.347342" lon="-1.851801"><ele>488</ele><time>2020-08-05T14:26:19Z</time><name>PT16808</name></trkpt>
<trkpt lat="53.347338" lon="-1.851804"><ele>488</ele><time>2020-08-05T14:26:21Z</time><name>PT16809</name></trkpt>
<trkpt lat="53.347330" lon="-1.851809"><ele>488</ele><time>2020-08-05T14:26:22Z</time><name>PT16810</name></trkpt>
<trkpt lat="53.347319" lon="-1.851813"><ele>488</ele><time>2020-08-05T14:26:22Z</time><name>PT16811</name></trkpt>
<trkpt lat="53.347308" lon="-1.851815"><ele>488</ele><time>2020-08-05T14:26:23Z</time><name>PT16812</name></trkpt>
<trkpt lat="53.347300" lon="-1.851819"><ele>488</ele><time>2020-08-05T14:26:25Z</time><name>PT16813</name></trkpt>
<trkpt lat="53.347292" lon="-1.851822"><ele>488</ele><time>2020-08-05T14:26:25Z</time><name>PT16814</name></trkpt>
<trkpt lat="53.347282" lon="-1.851826"><ele>488</ele><time>2020-08-05T14:26:27Z</time><name>PT16815</name></trkpt>
<trkpt lat="53.347275" lon="-1.851827"><ele>487</ele><time>2020-08-05T14:26:28Z</time><name>PT16816</name></trkpt>
<trkpt lat="53.347268" lon="-1.851829"><ele>487</ele><time>2020-08-05T14:26:28Z</time><name>PT16817</name></trkpt>
<trkpt lat="53.347260" lon="-1.851833"><ele>487</ele><time>2020-08-05T14:26:29Z</time><name>PT16818</name></trkpt>
<trkpt lat="53.347254" lon="-1.851839"><ele>487</ele><time>2020-08-05T14:26:31Z</time><name>PT16819</name></trkpt>
<trkpt lat="53.347245" lon="-1.851846"><ele>487</ele><time>2020-08-05T14:26:31Z</time><name>PT16820</name></trkpt>
<trkpt lat="53.347238" lon="-1.851854"><ele>487</ele><time>2020-08-05T14:26:32Z</time><name>PT16821</name></trkpt>
<trkpt lat="53.347229" lon="-1.851856"><ele>487</ele><time>2020-08-05T14:26:34Z</time><name>PT16822</name></trkpt>
<trkpt lat="53.347216" lon="-1.851860"><ele>488</ele><time>2020-08-05T14:26:34Z</time><name>PT16823</name></trkpt>
<trkpt lat="53.347207" lon="-1.851866"><ele>488</ele><time>2020-08-05T14:26:35Z</time><name>PT16824</name></trkpt>
<trkpt lat="53.347197" lon="-1.851872"><ele>487</ele><time>2020-08-05T14:26:37Z</time><name>PT16825</name></trkpt>
<trkpt lat="53.347192" lon="-1.851873"><ele>487</ele><time>2020-08-05T14:26:37Z</time><name>PT16826</name></trkpt>
<trkpt lat="53.347182" lon="-1.851878"><ele>487</ele><time>2020-08-05T14:26:39Z</time><name>PT16827</name></trkpt>
<trkpt lat="53.347171" lon="-1.851882"><ele>487</ele><time>2020-08-05T14:26:40Z</time><name>PT16828</name></trkpt>
<trkpt lat="53.347162" lon="-1.851885"><ele>487</ele><time>2020-08-05T14:26:40Z</time><name>PT16829</name></trkpt>
<trkpt lat="53.347154" lon="-1.851888"><ele>488</ele><time>2020-08-05T14:26:42Z</time><name>PT16830</name></trkpt>
<trkpt lat="53.347144" lon="-1.851895"><ele>488</ele><time>2020-08-05T14:26:43Z</time><name>PT16831</name></trkpt>
<trkpt lat="53.347133" lon="-1.851901"><ele>488</ele><time>2020-08-05T14:26:44Z</time><name>PT16832</name></trkpt>
<trkpt lat="53.347122" lon="-1.851906"><ele>488</ele><time>2020-08-05T14:26:44Z</time><name>PT16833</name></trkpt>
<trkpt lat="53.347111" lon="-1.851911"><ele>488</ele><time>2020-08-05T14:26:46Z</time><name>PT16834</name></trkpt>
<trkpt lat="53.347101" lon="-1.851914"><ele>488</ele><time>2020-08-05T14:26:47Z</time><name>PT16835</name></trkpt>
<trkpt lat="53.347095" lon="-1.851915"><ele>489</ele><time>2020-08-05T14:26:48Z</time><name>PT16836</name></trkpt>
<trkpt lat="53.347085" lon="-1.851920"><ele>489</ele><time>2020-08-05T14:26:49Z</time><name>PT16837</name></trkpt>
<trkpt lat="53.347074" lon="-1.851924"><ele>489</ele><time>2020-08-05T14:26:49Z</time><name>PT16838</name></trkpt>
<trkpt lat="53.347063" lon="-1.851930"><ele>490</ele><time>2020-08-05T14:26:51Z</time><name>PT16839</name></trkpt>
<trkpt lat="53.347053" lon="-1.851933"><ele>490</ele><time>2020-08-05T14:26:52Z</time><name>PT16840</name></trkpt>
<trkpt lat="53.347044" lon="-1.851936"><ele>490</ele><time>2020-08-05T14:26:53Z</time><name>PT16841</name></trkpt>
<trkpt lat="53.347034" lon="-1.851944"><ele>490</ele><time>2020-08-05T14:26:54Z</time><name>PT16842</name></trkpt>
<trkpt lat="53.347026" lon="-1.851950"><ele>490</ele><time>2020-08-05T14:26:55Z</time><name>PT16843</name></trkpt>
<trkpt lat="53.347018" lon="-1.851955"><ele>490</ele><time>2020-08-05T14:26:55Z</time><name>PT16844</name></trkpt>
<trkpt lat="53.347009" lon="-1.851960"><ele>490</ele><time>2020-08-05T14:26:57Z</time><name>PT16845</name></trkpt>
<trkpt lat="53.347001" lon="-1.851963"><ele>490</ele><time>2020-08-05T14:26:58Z</time><name>PT16846</name></trkpt>
<trkpt lat="53.346992" lon="-1.851969"><ele>490</ele><time>2020-08-05T14:26:58Z</time><name>PT16847</name></trkpt>
<trkpt lat="53.346983" lon="-1.851976"><ele>490</ele><time>2020-08-05T14:27:00Z</time><name>PT16848</name></trkpt>
<trkpt lat="53.346972" lon="-1.851979"><ele>490</ele><time>2020-08-05T14:27:01Z</time><name>PT16849</name></trkpt>
<trkpt lat="53.346961" lon="-1.851978"><ele>490</ele><time>2020-08-05T14:27:01Z</time><name>PT16850</name></trkpt>
<trkpt lat="53.346954" lon="-1.851977"><ele>490</ele><time>2020-08-05T14:27:03Z</time><name>PT16851</name></trkpt>
<trkpt lat="53.346945" lon="-1.851985"><ele>491</ele><time>2020-08-05T14:27:04Z</time><name>PT16852</name></trkpt>
<trkpt lat="53.346935" lon="-1.851987"><ele>491</ele><time>2020-08-05T14:27:04Z</time><name>PT16853</name></trkpt>
<trkpt lat="53.346925" lon="-1.851989"><ele>491</ele><time>2020-08-05T14:27:05Z</time><name>PT16854</name></trkpt>
<trkpt lat="53.346915" lon="-1.851989"><ele>491</ele><time>2020-08-05T14:27:07Z</time><name>PT16855</name></trkpt>
<trkpt lat="53.346905" lon="-1.851991"><ele>491</ele><time>2020-08-05T14:27:07Z</time><name>PT16856</name></trkpt>
<trkpt lat="53.346897" lon="-1.851992"><ele>491</ele><time>2020-08-05T14:27:09Z</time><name>PT16857</name></trkpt>
<trkpt lat="53.346886" lon="-1.851994"><ele>491</ele><time>2020-08-05T14:27:10Z</time><name>PT16858</name></trkpt>
<trkpt lat="53.346877" lon="-1.851997"><ele>491</ele><time>2020-08-05T14:27:10Z</time><name>PT16859</name></trkpt>
<trkpt lat="53.346868" lon="-1.851998"><ele>491</ele><time>2020-08-05T14:27:12Z</time><name>PT16860</name></trkpt>
<trkpt lat="53.346855" lon="-1.852000"><ele>491</ele><time>2020-08-05T14:27:13Z</time><name>PT16861</name></trkpt>
<trkpt lat="53.346845" lon="-1.852005"><ele>491</ele><time>2020-08-05T14:27:13Z</time><name>PT16862</name></trkpt>
<trkpt lat="53.346834" lon="-1.852011"><ele>491</ele><time>2020-08-05T14:27:14Z</time><name>PT16863</name></trkpt>
<trkpt lat="53.346821" lon="-1.852018"><ele>491</ele><time>2020-08-05T14:27:16Z</time><name>PT16864</name></trkpt>
<trkpt lat="53.346810" lon="-1.852022"><ele>491</ele><time>2020-08-05T14:27:16Z</time><name>PT16865</name></trkpt>
<trkpt lat="53.346798" lon="-1.852024"><ele>491</ele><time>2020-08-05T14:27:18Z</time><name>PT16866</name></trkpt>
<trkpt lat="53.346785" lon="-1.852027"><ele>491</ele><time>2020-08-05T14:27:19Z</time><name>PT16867</name></trkpt>
<trkpt lat="53.346777" lon="-1.852029"><ele>491</ele><time>2020-08-05T14:27:19Z</time><name>PT16868</name></trkpt>
<trkpt lat="53.346770" lon="-1.852034"><ele>491</ele><time>2020-08-05T14:27:21Z</time><name>PT16869</name></trkpt>
<trkpt lat="53.346762" lon="-1.852036"><ele>491</ele><time>2020-08-05T14:27:22Z</time><name>PT16870</name></trkpt>
<trkpt lat="53.346753" lon="-1.852037"><ele>490</ele><time>2020-08-05T14:27:22Z</time><name>PT16871</name></trkpt>
<trkpt lat="53.346741" lon="-1.852040"><ele>490</ele><time>2020-08-05T14:27:24Z</time><name>PT16872</name></trkpt>
<trkpt lat="53.346730" lon="-1.852041"><ele>491</ele><time>2020-08-05T14:27:25Z</time><name>PT16873</name></trkpt>
<trkpt lat="53.346720" lon="-1.852043"><ele>491</ele><time>2020-08-05T14:27:25Z</time><name>PT16874</name></trkpt>
<trkpt lat="53.346711" lon="-1.852052"><ele>491</ele><time>2020-08-05T14:27:26Z</time><name>PT16875</name></trkpt>
<trkpt lat="53.346701" lon="-1.852057"><ele>490</ele><time>2020-08-05T14:27:28Z</time><name>PT16876</name></trkpt>
<trkpt lat="53.346691" lon="-1.852060"><ele>490</ele><time>2020-08-05T14:27:29Z</time><name>PT16877</name></trkpt>
<trkpt lat="53.346681" lon="-1.852063"><ele>490</ele><time>2020-08-05T14:27:30Z</time><name>PT16878</name></trkpt>
<trkpt lat="53.346669" lon="-1.852064"><ele>490</ele><time>2020-08-05T14:27:31Z</time><name>PT16879</name></trkpt>
<trkpt lat="53.346658" lon="-1.852062"><ele>490</ele><time>2020-08-05T14:27:31Z</time><name>PT16880</name></trkpt>
<trkpt lat="53.346645" lon="-1.852063"><ele>490</ele><time>2020-08-05T14:27:33Z</time><name>PT16881</name></trkpt>
<trkpt lat="53.346634" lon="-1.852064"><ele>490</ele><time>2020-08-05T14:27:34Z</time><name>PT16882</name></trkpt>
<trkpt lat="53.346623" lon="-1.852056"><ele>490</ele><time>2020-08-05T14:27:34Z</time><name>PT16883</name></trkpt>
<trkpt lat="53.346609" lon="-1.852066"><ele>491</ele><time>2020-08-05T14:27:36Z</time><name>PT16884</name></trkpt>
<trkpt lat="53.346594" lon="-1.852075"><ele>492</ele><time>2020-08-05T14:27:37Z</time><name>PT16885</name></trkpt>
<trkpt lat="53.346581" lon="-1.852090"><ele>491</ele><time>2020-08-05T14:27:37Z</time><name>PT16886</name></trkpt>
<trkpt lat="53.346569" lon="-1.852103"><ele>492</ele><time>2020-08-05T14:27:39Z</time><name>PT16887</name></trkpt>
<trkpt lat="53.346557" lon="-1.852108"><ele>492</ele><time>2020-08-05T14:27:40Z</time><name>PT16888</name></trkpt>
<trkpt lat="53.346546" lon="-1.852114"><ele>492</ele><time>2020-08-05T14:27:40Z</time><name>PT16889</name></trkpt>
<trkpt lat="53.346533" lon="-1.852117"><ele>493</ele><time>2020-08-05T14:27:42Z</time><name>PT16890</name></trkpt>
<trkpt lat="53.346521" lon="-1.852122"><ele>493</ele><time>2020-08-05T14:27:43Z</time><name>PT16891</name></trkpt>
<trkpt lat="53.346509" lon="-1.852128"><ele>493</ele><time>2020-08-05T14:27:43Z</time><name>PT16892</name></trkpt>
<trkpt lat="53.346497" lon="-1.852138"><ele>493</ele><time>2020-08-05T14:27:45Z</time><name>PT16893</name></trkpt>
<trkpt lat="53.346486" lon="-1.852145"><ele>493</ele><time>2020-08-05T14:27:46Z</time><name>PT16894</name></trkpt>
<trkpt lat="53.346476" lon="-1.852151"><ele>493</ele><time>2020-08-05T14:27:46Z</time><name>PT16895</name></trkpt>
<trkpt lat="53.346467" lon="-1.852155"><ele>494</ele><time>2020-08-05T14:27:48Z</time><name>PT16896</name></trkpt>
<trkpt lat="53.346459" lon="-1.852156"><ele>494</ele><time>2020-08-05T14:27:49Z</time><name>PT16897</name></trkpt>
<trkpt lat="53.346451" lon="-1.852159"><ele>494</ele><time>2020-08-05T14:27:49Z</time><name>PT16898</name></trkpt>
<trkpt lat="53.346440" lon="-1.852162"><ele>494</ele><time>2020-08-05T14:27:51Z</time><name>PT16899</name></trkpt>
<trkpt lat="53.346428" lon="-1.852168"><ele>494</ele><time>2020-08-05T14:27:52Z</time><name>PT16900</name></trkpt>
<trkpt lat="53.346417" lon="-1.852172"><ele>494</ele><time>2020-08-05T14:27:52Z</time><name>PT16901</name></trkpt>
<trkpt lat="53.346405" lon="-1.852178"><ele>495</ele><time>2020-08-05T14:27:54Z</time><name>PT16902</name></trkpt>
<trkpt lat="53.346394" lon="-1.852186"><ele>495</ele><time>2020-08-05T14:27:55Z</time><name>PT16903</name></trkpt>
<trkpt lat="53.346384" lon="-1.852191"><ele>495</ele><time>2020-08-05T14:27:55Z</time><name>PT16904</name></trkpt>
<trkpt lat="53.346374" lon="-1.852196"><ele>495</ele><time>2020-08-05T14:27:57Z</time><name>PT16905</name></trkpt>
<trkpt lat="53.346362" lon="-1.852199"><ele>495</ele><time>2020-08-05T14:27:58Z</time><name>PT16906</name></trkpt>
<trkpt lat="53.346349" lon="-1.852205"><ele>496</ele><time>2020-08-05T14:27:58Z</time><name>PT16907</name></trkpt>
<trkpt lat="53.346336" lon="-1.852209"><ele>495</ele><time>2020-08-05T14:28:00Z</time><name>PT16908</name></trkpt>
<trkpt lat="53.346324" lon="-1.852213"><ele>496</ele><time>2020-08-05T14:28:01Z</time><name>PT16909</name></trkpt>
<trkpt lat="53.346316" lon="-1.852216"><ele>496</ele><time>2020-08-05T14:28:01Z</time><name>PT16910</name></trkpt>
<trkpt lat="53.346305" lon="-1.852221"><ele>496</ele><time>2020-08-05T14:28:02Z</time><name>PT16911</name></trkpt>
<trkpt lat="53.346292" lon="-1.852226"><ele>496</ele><time>2020-08-05T14:28:04Z</time><name>PT16912</name></trkpt>
<trkpt lat="53.346279" lon="-1.852231"><ele>496</ele><time>2020-08-05T14:28:04Z</time><name>PT16913</name></trkpt>
<trkpt lat="53.346266" lon="-1.852233"><ele>496</ele><time>2020-08-05T14:28:05Z</time><name>PT16914</name></trkpt>
<trkpt lat="53.346257" lon="-1.852235"><ele>496</ele><time>2020-08-05T14:28:07Z</time><name>PT16915</name></trkpt>
<trkpt lat="53.346247" lon="-1.852240"><ele>496</ele><time>2020-08-05T14:28:07Z</time><name>PT16916</name></trkpt>
<trkpt lat="53.346235" lon="-1.852245"><ele>496</ele><time>2020-08-05T14:28:08Z</time><name>PT16917</name></trkpt>
<trkpt lat="53.346221" lon="-1.852248"><ele>497</ele><time>2020-08-05T14:28:10Z</time><name>PT16918</name></trkpt>
<trkpt lat="53.346207" lon="-1.852251"><ele>497</ele><time>2020-08-05T14:28:10Z</time><name>PT16919</name></trkpt>
<trkpt lat="53.346199" lon="-1.852255"><ele>497</ele><time>2020-08-05T14:28:12Z</time><name>PT16920</name></trkpt>
<trkpt lat="53.346190" lon="-1.852262"><ele>497</ele><time>2020-08-05T14:28:13Z</time><name>PT16921</name></trkpt>
<trkpt lat="53.346178" lon="-1.852268"><ele>497</ele><time>2020-08-05T14:28:13Z</time><name>PT16922</name></trkpt>
<trkpt lat="53.346166" lon="-1.852272"><ele>497</ele><time>2020-08-05T14:28:15Z</time><name>PT16923</name></trkpt>
<trkpt lat="53.346156" lon="-1.852279"><ele>497</ele><time>2020-08-05T14:28:16Z</time><name>PT16924</name></trkpt>
<trkpt lat="53.346147" lon="-1.852289"><ele>498</ele><time>2020-08-05T14:28:16Z</time><name>PT16925</name></trkpt>
<trkpt lat="53.346138" lon="-1.852294"><ele>498</ele><time>2020-08-05T14:28:18Z</time><name>PT16926</name></trkpt>
<trkpt lat="53.346126" lon="-1.852301"><ele>498</ele><time>2020-08-05T14:28:19Z</time><name>PT16927</name></trkpt>
<trkpt lat="53.346113" lon="-1.852304"><ele>498</ele><time>2020-08-05T14:28:19Z</time><name>PT16928</name></trkpt>
<trkpt lat="53.346100" lon="-1.852303"><ele>498</ele><time>2020-08-05T14:28:21Z</time><name>PT16929</name></trkpt>
<trkpt lat="53.346085" lon="-1.852310"><ele>499</ele><time>2020-08-05T14:28:22Z</time><name>PT16930</name></trkpt>
<trkpt lat="53.346071" lon="-1.852316"><ele>499</ele><time>2020-08-05T14:28:22Z</time><name>PT16931</name></trkpt>
<trkpt lat="53.346061" lon="-1.852318"><ele>499</ele><time>2020-08-05T14:28:24Z</time><name>PT16932</name></trkpt>
<trkpt lat="53.346049" lon="-1.852327"><ele>499</ele><time>2020-08-05T14:28:25Z</time><name>PT16933</name></trkpt>
<trkpt lat="53.346036" lon="-1.852333"><ele>499</ele><time>2020-08-05T14:28:25Z</time><name>PT16934</name></trkpt>
<trkpt lat="53.346025" lon="-1.852340"><ele>499</ele><time>2020-08-05T14:28:27Z</time><name>PT16935</name></trkpt>
<trkpt lat="53.346014" lon="-1.852347"><ele>499</ele><time>2020-08-05T14:28:28Z</time><name>PT16936</name></trkpt>
<trkpt lat="53.346001" lon="-1.852355"><ele>498</ele><time>2020-08-05T14:28:28Z</time><name>PT16937</name></trkpt>
<trkpt lat="53.345992" lon="-1.852363"><ele>498</ele><time>2020-08-05T14:28:30Z</time><name>PT16938</name></trkpt>
<trkpt lat="53.345982" lon="-1.852372"><ele>498</ele><time>2020-08-05T14:28:31Z</time><name>PT16939</name></trkpt>
<trkpt lat="53.345972" lon="-1.852381"><ele>498</ele><time>2020-08-05T14:28:31Z</time><name>PT16940</name></trkpt>
<trkpt lat="53.345959" lon="-1.852394"><ele>499</ele><time>2020-08-05T14:28:33Z</time><name>PT16941</name></trkpt>
<trkpt lat="53.345949" lon="-1.852404"><ele>499</ele><time>2020-08-05T14:28:34Z</time><name>PT16942</name></trkpt>
<trkpt lat="53.345939" lon="-1.852417"><ele>499</ele><time>2020-08-05T14:28:34Z</time><name>PT16943</name></trkpt>
<trkpt lat="53.345932" lon="-1.852430"><ele>499</ele><time>2020-08-05T14:28:36Z</time><name>PT16944</name></trkpt>
<trkpt lat="53.345922" lon="-1.852446"><ele>498</ele><time>2020-08-05T14:28:37Z</time><name>PT16945</name></trkpt>
<trkpt lat="53.345912" lon="-1.852463"><ele>498</ele><time>2020-08-05T14:28:37Z</time><name>PT16946</name></trkpt>
<trkpt lat="53.345904" lon="-1.852472"><ele>498</ele><time>2020-08-05T14:28:39Z</time><name>PT16947</name></trkpt>
<trkpt lat="53.345894" lon="-1.852488"><ele>498</ele><time>2020-08-05T14:28:40Z</time><name>PT16948</name></trkpt>
<trkpt lat="53.345882" lon="-1.852501"><ele>498</ele><time>2020-08-05T14:28:40Z</time><name>PT16949</name></trkpt>
<trkpt lat="53.345874" lon="-1.852509"><ele>498</ele><time>2020-08-05T14:28:42Z</time><name>PT16950</name></trkpt>
<trkpt lat="53.345863" lon="-1.852525"><ele>498</ele><time>2020-08-05T14:28:43Z</time><name>PT16951</name></trkpt>
<trkpt lat="53.345851" lon="-1.852538"><ele>498</ele><time>2020-08-05T14:28:43Z</time><name>PT16952</name></trkpt>
<trkpt lat="53.345838" lon="-1.852548"><ele>498</ele><time>2020-08-05T14:28:44Z</time><name>PT16953</name></trkpt>
<trkpt lat="53.345826" lon="-1.852556"><ele>498</ele><time>2020-08-05T14:28:46Z</time><name>PT16954</name></trkpt>
<trkpt lat="53.345815" lon="-1.852567"><ele>498</ele><time>2020-08-05T14:28:46Z</time><name>PT16955</name></trkpt>
<trkpt lat="53.345806" lon="-1.852578"><ele>498</ele><time>2020-08-05T14:28:48Z</time><name>PT16956</name></trkpt>
<trkpt lat="53.345796" lon="-1.852590"><ele>498</ele><time>2020-08-05T14:28:49Z</time><name>PT16957</name></trkpt>
<trkpt lat="53.345785" lon="-1.852600"><ele>498</ele><time>2020-08-05T14:28:49Z</time><name>PT16958</name></trkpt>
<trkpt lat="53.345778" lon="-1.852599"><ele>497</ele><time>2020-08-05T14:28:51Z</time><name>PT16959</name></trkpt>
<trkpt lat="53.345767" lon="-1.852608"><ele>497</ele><time>2020-08-05T14:28:52Z</time><name>PT16960</name></trkpt>
<trkpt lat="53.345755" lon="-1.852616"><ele>497</ele><time>2020-08-05T14:28:52Z</time><name>PT16961</name></trkpt>
<trkpt lat="53.345747" lon="-1.852622"><ele>497</ele><time>2020-08-05T14:28:54Z</time><name>PT16962</name></trkpt>
<trkpt lat="53.345740" lon="-1.852632"><ele>497</ele><time>2020-08-05T14:28:55Z</time><name>PT16963</name></trkpt>
<trkpt lat="53.345728" lon="-1.852647"><ele>498</ele><time>2020-08-05T14:28:55Z</time><name>PT16964</name></trkpt>
<trkpt lat="53.345720" lon="-1.852661"><ele>497</ele><time>2020-08-05T14:28:57Z</time><name>PT16965</name></trkpt>
<trkpt lat="53.345711" lon="-1.852671"><ele>497</ele><time>2020-08-05T14:28:58Z</time><name>PT16966</name></trkpt>
<trkpt lat="53.345699" lon="-1.852689"><ele>497</ele><time>2020-08-05T14:28:58Z</time><name>PT16967</name></trkpt>
<trkpt lat="53.345686" lon="-1.852705"><ele>496</ele><time>2020-08-05T14:28:59Z</time><name>PT16968</name></trkpt>
<trkpt lat="53.345674" lon="-1.852720"><ele>496</ele><time>2020-08-05T14:29:01Z</time><name>PT16969</name></trkpt>
<trkpt lat="53.345663" lon="-1.852734"><ele>495</ele><time>2020-08-05T14:29:01Z</time><name>PT16970</name></trkpt>
<trkpt lat="53.345654" lon="-1.852751"><ele>495</ele><time>2020-08-05T14:29:03Z</time><name>PT16971</name></trkpt>
<trkpt lat="53.345646" lon="-1.852766"><ele>495</ele><time>2020-08-05T14:29:04Z</time><name>PT16972</name></trkpt>
<trkpt lat="53.345636" lon="-1.852784"><ele>495</ele><time>2020-08-05T14:29:04Z</time><name>PT16973</name></trkpt>
<trkpt lat="53.345629" lon="-1.852804"><ele>495</ele><time>2020-08-05T14:29:06Z</time><name>PT16974</name></trkpt>
<trkpt lat="53.345622" lon="-1.852822"><ele>495</ele><time>2020-08-05T14:29:07Z</time><name>PT16975</name></trkpt>
<trkpt lat="53.345614" lon="-1.852839"><ele>495</ele><time>2020-08-05T14:29:07Z</time><name>PT16976</name></trkpt>
<trkpt lat="53.345607" lon="-1.852859"><ele>494</ele><time>2020-08-05T14:29:09Z</time><name>PT16977</name></trkpt>
<trkpt lat="53.345603" lon="-1.852877"><ele>494</ele><time>2020-08-05T14:29:10Z</time><name>PT16978</name></trkpt>
<trkpt lat="53.345598" lon="-1.852899"><ele>494</ele><time>2020-08-05T14:29:10Z</time><name>PT16979</name></trkpt>
<trkpt lat="53.345593" lon="-1.852920"><ele>494</ele><time>2020-08-05T14:29:12Z</time><name>PT16980</name></trkpt>
<trkpt lat="53.345588" lon="-1.852939"><ele>494</ele><time>2020-08-05T14:29:13Z</time><name>PT16981</name></trkpt>
<trkpt lat="53.345584" lon="-1.852959"><ele>494</ele><time>2020-08-05T14:29:13Z</time><name>PT16982</name></trkpt>
<trkpt lat="53.345581" lon="-1.852981"><ele>494</ele><time>2020-08-05T14:29:14Z</time><name>PT16983</name></trkpt>
<trkpt lat="53.345578" lon="-1.853003"><ele>493</ele><time>2020-08-05T14:29:16Z</time><name>PT16984</name></trkpt>
<trkpt lat="53.345575" lon="-1.853024"><ele>493</ele><time>2020-08-05T14:29:16Z</time><name>PT16985</name></trkpt>
<trkpt lat="53.345572" lon="-1.853046"><ele>493</ele><time>2020-08-05T14:29:18Z</time><name>PT16986</name></trkpt>
<trkpt lat="53.345568" lon="-1.853066"><ele>493</ele><time>2020-08-05T14:29:19Z</time><name>PT16987</name></trkpt>
<trkpt lat="53.345565" lon="-1.853085"><ele>493</ele><time>2020-08-05T14:29:19Z</time><name>PT16988</name></trkpt>
<trkpt lat="53.345561" lon="-1.853105"><ele>493</ele><time>2020-08-05T14:29:20Z</time><name>PT16989</name></trkpt>
<trkpt lat="53.345558" lon="-1.853126"><ele>493</ele><time>2020-08-05T14:29:22Z</time><name>PT16990</name></trkpt>
<trkpt lat="53.345554" lon="-1.853145"><ele>493</ele><time>2020-08-05T14:29:22Z</time><name>PT16991</name></trkpt>
<trkpt lat="53.345549" lon="-1.853166"><ele>493</ele><time>2020-08-05T14:29:23Z</time><name>PT16992</name></trkpt>
<trkpt lat="53.345542" lon="-1.853185"><ele>492</ele><time>2020-08-05T14:29:25Z</time><name>PT16993</name></trkpt>
<trkpt lat="53.345537" lon="-1.853202"><ele>492</ele><time>2020-08-05T14:29:25Z</time><name>PT16994</name></trkpt>
<trkpt lat="53.345532" lon="-1.853219"><ele>492</ele><time>2020-08-05T14:29:27Z</time><name>PT16995</name></trkpt>
<trkpt lat="53.345523" lon="-1.853236"><ele>492</ele><time>2020-08-05T14:29:28Z</time><name>PT16996</name></trkpt>
<trkpt lat="53.345515" lon="-1.853251"><ele>492</ele><time>2020-08-05T14:29:28Z</time><name>PT16997</name></trkpt>
<trkpt lat="53.345507" lon="-1.853267"><ele>492</ele><time>2020-08-05T14:29:30Z</time><name>PT16998</name></trkpt>
<trkpt lat="53.345498" lon="-1.853285"><ele>492</ele><time>2020-08-05T14:29:31Z</time><name>PT16999</name></trkpt>
<trkpt lat="53.345491" lon="-1.853300"><ele>492</ele><time>2020-08-05T14:29:31Z</time><name>PT17000</name></trkpt>
<trkpt lat="53.345483" lon="-1.853314"><ele>492</ele><time>2020-08-05T14:29:33Z</time><name>PT17001</name></trkpt>
<trkpt lat="53.345475" lon="-1.853326"><ele>492</ele><time>2020-08-05T14:29:34Z</time><name>PT17002</name></trkpt>
<trkpt lat="53.345466" lon="-1.853339"><ele>492</ele><time>2020-08-05T14:29:34Z</time><name>PT17003</name></trkpt>
<trkpt lat="53.345455" lon="-1.853352"><ele>491</ele><time>2020-08-05T14:29:36Z</time><name>PT17004</name></trkpt>
<trkpt lat="53.345445" lon="-1.853362"><ele>491</ele><time>2020-08-05T14:29:37Z</time><name>PT17005</name></trkpt>
<trkpt lat="53.345436" lon="-1.853374"><ele>491</ele><time>2020-08-05T14:29:37Z</time><name>PT17006</name></trkpt>
<trkpt lat="53.345428" lon="-1.853385"><ele>491</ele><time>2020-08-05T14:29:39Z</time><name>PT17007</name></trkpt>
<trkpt lat="53.345417" lon="-1.853395"><ele>491</ele><time>2020-08-05T14:29:40Z</time><name>PT17008</name></trkpt>
<trkpt lat="53.345408" lon="-1.853406"><ele>491</ele><time>2020-08-05T14:29:40Z</time><name>PT17009</name></trkpt>
<trkpt lat="53.345402" lon="-1.853418"><ele>491</ele><time>2020-08-05T14:29:41Z</time><name>PT17010</name></trkpt>
<trkpt lat="53.345397" lon="-1.853431"><ele>491</ele><time>2020-08-05T14:29:43Z</time><name>PT17011</name></trkpt>
<trkpt lat="53.345389" lon="-1.853447"><ele>491</ele><time>2020-08-05T14:29:43Z</time><name>PT17012</name></trkpt>
<trkpt lat="53.345381" lon="-1.853458"><ele>491</ele><time>2020-08-05T14:29:45Z</time><name>PT17013</name></trkpt>
<trkpt lat="53.345378" lon="-1.853461"><ele>491</ele><time>2020-08-05T14:29:46Z</time><name>PT17014</name></trkpt>
<trkpt lat="53.345379" lon="-1.853460"><ele>491</ele><time>2020-08-05T14:29:46Z</time><name>PT17015</name></trkpt>
<trkpt lat="53.345381" lon="-1.853460"><ele>491</ele><time>2020-08-05T14:29:48Z</time><name>PT17016</name></trkpt>
<trkpt lat="53.345381" lon="-1.853461"><ele>491</ele><time>2020-08-05T14:29:49Z</time><name>PT17017</name></trkpt>
<trkpt lat="53.345381" lon="-1.853455"><ele>490</ele><time>2020-08-05T14:30:22Z</time><name>PT17018</name></trkpt>
<trkpt lat="53.345381" lon="-1.853454"><ele>490</ele><time>2020-08-05T14:30:22Z</time><name>PT17019</name></trkpt>
<trkpt lat="53.345380" lon="-1.853451"><ele>490</ele><time>2020-08-05T14:30:24Z</time><name>PT17020</name></trkpt>
<trkpt lat="53.345381" lon="-1.853445"><ele>490</ele><time>2020-08-05T14:30:26Z</time><name>PT17021</name></trkpt>
<trkpt lat="53.345379" lon="-1.853445"><ele>490</ele><time>2020-08-05T14:30:28Z</time><name>PT17022</name></trkpt>
<trkpt lat="53.345380" lon="-1.853438"><ele>489</ele><time>2020-08-05T14:30:28Z</time><name>PT17023</name></trkpt>
<trkpt lat="53.345379" lon="-1.853432"><ele>489</ele><time>2020-08-05T14:30:52Z</time><name>PT17024</name></trkpt>
<trkpt lat="53.345374" lon="-1.853437"><ele>489</ele><time>2020-08-05T14:30:52Z</time><name>PT17025</name></trkpt>
<trkpt lat="53.345365" lon="-1.853452"><ele>489</ele><time>2020-08-05T14:30:54Z</time><name>PT17026</name></trkpt>
<trkpt lat="53.345355" lon="-1.853465"><ele>490</ele><time>2020-08-05T14:30:55Z</time><name>PT17027</name></trkpt>
<trkpt lat="53.345346" lon="-1.853474"><ele>490</ele><time>2020-08-05T14:30:55Z</time><name>PT17028</name></trkpt>
<trkpt lat="53.345338" lon="-1.853479"><ele>490</ele><time>2020-08-05T14:30:57Z</time><name>PT17029</name></trkpt>
<trkpt lat="53.345327" lon="-1.853481"><ele>490</ele><time>2020-08-05T14:30:58Z</time><name>PT17030</name></trkpt>
<trkpt lat="53.345315" lon="-1.853484"><ele>490</ele><time>2020-08-05T14:30:58Z</time><name>PT17031</name></trkpt>
<trkpt lat="53.345300" lon="-1.853487"><ele>490</ele><time>2020-08-05T14:30:59Z</time><name>PT17032</name></trkpt>
<trkpt lat="53.345287" lon="-1.853486"><ele>490</ele><time>2020-08-05T14:31:01Z</time><name>PT17033</name></trkpt>
<trkpt lat="53.345274" lon="-1.853483"><ele>489</ele><time>2020-08-05T14:31:01Z</time><name>PT17034</name></trkpt>
<trkpt lat="53.345259" lon="-1.853481"><ele>489</ele><time>2020-08-05T14:31:03Z</time><name>PT17035</name></trkpt>
<trkpt lat="53.345247" lon="-1.853482"><ele>489</ele><time>2020-08-05T14:31:04Z</time><name>PT17036</name></trkpt>
<trkpt lat="53.345236" lon="-1.853482"><ele>489</ele><time>2020-08-05T14:31:04Z</time><name>PT17037</name></trkpt>
<trkpt lat="53.345223" lon="-1.853482"><ele>489</ele><time>2020-08-05T14:31:05Z</time><name>PT17038</name></trkpt>
<trkpt lat="53.345210" lon="-1.853478"><ele>489</ele><time>2020-08-05T14:31:07Z</time><name>PT17039</name></trkpt>
<trkpt lat="53.345197" lon="-1.853477"><ele>489</ele><time>2020-08-05T14:31:07Z</time><name>PT17040</name></trkpt>
<trkpt lat="53.345181" lon="-1.853479"><ele>490</ele><time>2020-08-05T14:31:08Z</time><name>PT17041</name></trkpt>
<trkpt lat="53.345168" lon="-1.853478"><ele>490</ele><time>2020-08-05T14:31:10Z</time><name>PT17042</name></trkpt>
<trkpt lat="53.345157" lon="-1.853476"><ele>490</ele><time>2020-08-05T14:31:10Z</time><name>PT17043</name></trkpt>
<trkpt lat="53.345146" lon="-1.853475"><ele>490</ele><time>2020-08-05T14:31:11Z</time><name>PT17044</name></trkpt>
<trkpt lat="53.345134" lon="-1.853471"><ele>490</ele><time>2020-08-05T14:31:13Z</time><name>PT17045</name></trkpt>
<trkpt lat="53.345121" lon="-1.853466"><ele>490</ele><time>2020-08-05T14:31:13Z</time><name>PT17046</name></trkpt>
<trkpt lat="53.345108" lon="-1.853461"><ele>490</ele><time>2020-08-05T14:31:15Z</time><name>PT17047</name></trkpt>
<trkpt lat="53.345094" lon="-1.853458"><ele>490</ele><time>2020-08-05T14:31:16Z</time><name>PT17048</name></trkpt>
<trkpt lat="53.345081" lon="-1.853455"><ele>490</ele><time>2020-08-05T14:31:16Z</time><name>PT17049</name></trkpt>
<trkpt lat="53.345071" lon="-1.853450"><ele>491</ele><time>2020-08-05T14:31:18Z</time><name>PT17050</name></trkpt>
<trkpt lat="53.345059" lon="-1.853446"><ele>491</ele><time>2020-08-05T14:31:19Z</time><name>PT17051</name></trkpt>
<trkpt lat="53.345046" lon="-1.853443"><ele>491</ele><time>2020-08-05T14:31:19Z</time><name>PT17052</name></trkpt>
<trkpt lat="53.345034" lon="-1.853435"><ele>491</ele><time>2020-08-05T14:31:20Z</time><name>PT17053</name></trkpt>
<trkpt lat="53.345021" lon="-1.853428"><ele>491</ele><time>2020-08-05T14:31:22Z</time><name>PT17054</name></trkpt>
<trkpt lat="53.345008" lon="-1.853424"><ele>491</ele><time>2020-08-05T14:31:22Z</time><name>PT17055</name></trkpt>
<trkpt lat="53.344997" lon="-1.853425"><ele>491</ele><time>2020-08-05T14:31:24Z</time><name>PT17056</name></trkpt>
<trkpt lat="53.344987" lon="-1.853423"><ele>491</ele><time>2020-08-05T14:31:25Z</time><name>PT17057</name></trkpt>
<trkpt lat="53.344976" lon="-1.853419"><ele>491</ele><time>2020-08-05T14:31:25Z</time><name>PT17058</name></trkpt>
<trkpt lat="53.344963" lon="-1.853414"><ele>491</ele><time>2020-08-05T14:31:27Z</time><name>PT17059</name></trkpt>
<trkpt lat="53.344950" lon="-1.853408"><ele>490</ele><time>2020-08-05T14:31:28Z</time><name>PT17060</name></trkpt>
<trkpt lat="53.344936" lon="-1.853405"><ele>491</ele><time>2020-08-05T14:31:28Z</time><name>PT17061</name></trkpt>
<trkpt lat="53.344921" lon="-1.853403"><ele>491</ele><time>2020-08-05T14:31:30Z</time><name>PT17062</name></trkpt>
<trkpt lat="53.344911" lon="-1.853404"><ele>491</ele><time>2020-08-05T14:31:31Z</time><name>PT17063</name></trkpt>
<trkpt lat="53.344897" lon="-1.853404"><ele>491</ele><time>2020-08-05T14:31:31Z</time><name>PT17064</name></trkpt>
<trkpt lat="53.344880" lon="-1.853405"><ele>491</ele><time>2020-08-05T14:31:33Z</time><name>PT17065</name></trkpt>
<trkpt lat="53.344865" lon="-1.853402"><ele>491</ele><time>2020-08-05T14:31:34Z</time><name>PT17066</name></trkpt>
<trkpt lat="53.344851" lon="-1.853402"><ele>491</ele><time>2020-08-05T14:31:34Z</time><name>PT17067</name></trkpt>
<trkpt lat="53.344836" lon="-1.853397"><ele>491</ele><time>2020-08-05T14:31:36Z</time><name>PT17068</name></trkpt>
<trkpt lat="53.344821" lon="-1.853386"><ele>491</ele><time>2020-08-05T14:31:37Z</time><name>PT17069</name></trkpt>
<trkpt lat="53.344809" lon="-1.853382"><ele>491</ele><time>2020-08-05T14:31:37Z</time><name>PT17070</name></trkpt>
<trkpt lat="53.344799" lon="-1.853378"><ele>491</ele><time>2020-08-05T14:31:39Z</time><name>PT17071</name></trkpt>
<trkpt lat="53.344789" lon="-1.853374"><ele>491</ele><time>2020-08-05T14:31:40Z</time><name>PT17072</name></trkpt>
<trkpt lat="53.344776" lon="-1.853374"><ele>491</ele><time>2020-08-05T14:31:40Z</time><name>PT17073</name></trkpt>
<trkpt lat="53.344763" lon="-1.853369"><ele>491</ele><time>2020-08-05T14:31:42Z</time><name>PT17074</name></trkpt>
<trkpt lat="53.344752" lon="-1.853363"><ele>492</ele><time>2020-08-05T14:31:43Z</time><name>PT17075</name></trkpt>
<trkpt lat="53.344737" lon="-1.853359"><ele>492</ele><time>2020-08-05T14:31:43Z</time><name>PT17076</name></trkpt>
<trkpt lat="53.344726" lon="-1.853352"><ele>492</ele><time>2020-08-05T14:31:45Z</time><name>PT17077</name></trkpt>
<trkpt lat="53.344716" lon="-1.853349"><ele>492</ele><time>2020-08-05T14:31:46Z</time><name>PT17078</name></trkpt>
<trkpt lat="53.344705" lon="-1.853348"><ele>492</ele><time>2020-08-05T14:31:46Z</time><name>PT17079</name></trkpt>
<trkpt lat="53.344692" lon="-1.853348"><ele>492</ele><time>2020-08-05T14:31:48Z</time><name>PT17080</name></trkpt>
<trkpt lat="53.344680" lon="-1.853346"><ele>493</ele><time>2020-08-05T14:31:49Z</time><name>PT17081</name></trkpt>
<trkpt lat="53.344667" lon="-1.853343"><ele>493</ele><time>2020-08-05T14:31:49Z</time><name>PT17082</name></trkpt>
<trkpt lat="53.344654" lon="-1.853337"><ele>493</ele><time>2020-08-05T14:31:51Z</time><name>PT17083</name></trkpt>
<trkpt lat="53.344641" lon="-1.853331"><ele>493</ele><time>2020-08-05T14:31:52Z</time><name>PT17084</name></trkpt>
<trkpt lat="53.344631" lon="-1.853327"><ele>493</ele><time>2020-08-05T14:31:52Z</time><name>PT17085</name></trkpt>
<trkpt lat="53.344620" lon="-1.853326"><ele>493</ele><time>2020-08-05T14:31:54Z</time><name>PT17086</name></trkpt>
<trkpt lat="53.344607" lon="-1.853321"><ele>493</ele><time>2020-08-05T14:31:55Z</time><name>PT17087</name></trkpt>
<trkpt lat="53.344594" lon="-1.853318"><ele>493</ele><time>2020-08-05T14:31:55Z</time><name>PT17088</name></trkpt>
<trkpt lat="53.344582" lon="-1.853313"><ele>493</ele><time>2020-08-05T14:31:57Z</time><name>PT17089</name></trkpt>
<trkpt lat="53.344568" lon="-1.853307"><ele>493</ele><time>2020-08-05T14:31:58Z</time><name>PT17090</name></trkpt>
<trkpt lat="53.344557" lon="-1.853304"><ele>493</ele><time>2020-08-05T14:31:58Z</time><name>PT17091</name></trkpt>
<trkpt lat="53.344546" lon="-1.853303"><ele>493</ele><time>2020-08-05T14:31:59Z</time><name>PT17092</name></trkpt>
<trkpt lat="53.344531" lon="-1.853304"><ele>493</ele><time>2020-08-05T14:32:01Z</time><name>PT17093</name></trkpt>
<trkpt lat="53.344518" lon="-1.853300"><ele>493</ele><time>2020-08-05T14:32:01Z</time><name>PT17094</name></trkpt>
<trkpt lat="53.344503" lon="-1.853300"><ele>494</ele><time>2020-08-05T14:32:03Z</time><name>PT17095</name></trkpt>
<trkpt lat="53.344488" lon="-1.853297"><ele>494</ele><time>2020-08-05T14:32:04Z</time><name>PT17096</name></trkpt>
<trkpt lat="53.344475" lon="-1.853292"><ele>494</ele><time>2020-08-05T14:32:04Z</time><name>PT17097</name></trkpt>
<trkpt lat="53.344466" lon="-1.853287"><ele>494</ele><time>2020-08-05T14:32:06Z</time><name>PT17098</name></trkpt>
<trkpt lat="53.344456" lon="-1.853283"><ele>494</ele><time>2020-08-05T14:32:07Z</time><name>PT17099</name></trkpt>
<trkpt lat="53.344443" lon="-1.853280"><ele>494</ele><time>2020-08-05T14:32:07Z</time><name>PT17100</name></trkpt>
<trkpt lat="53.344429" lon="-1.853275"><ele>494</ele><time>2020-08-05T14:32:09Z</time><name>PT17101</name></trkpt>
<trkpt lat="53.344416" lon="-1.853269"><ele>494</ele><time>2020-08-05T14:32:10Z</time><name>PT17102</name></trkpt>
<trkpt lat="53.344399" lon="-1.853263"><ele>494</ele><time>2020-08-05T14:32:10Z</time><name>PT17103</name></trkpt>
<trkpt lat="53.344382" lon="-1.853252"><ele>494</ele><time>2020-08-05T14:32:12Z</time><name>PT17104</name></trkpt>
<trkpt lat="53.344372" lon="-1.853245"><ele>494</ele><time>2020-08-05T14:32:13Z</time><name>PT17105</name></trkpt>
<trkpt lat="53.344362" lon="-1.853241"><ele>493</ele><time>2020-08-05T14:32:13Z</time><name>PT17106</name></trkpt>
<trkpt lat="53.344348" lon="-1.853238"><ele>494</ele><time>2020-08-05T14:32:15Z</time><name>PT17107</name></trkpt>
<trkpt lat="53.344336" lon="-1.853230"><ele>494</ele><time>2020-08-05T14:32:16Z</time><name>PT17108</name></trkpt>
<trkpt lat="53.344325" lon="-1.853218"><ele>494</ele><time>2020-08-05T14:32:16Z</time><name>PT17109</name></trkpt>
<trkpt lat="53.344314" lon="-1.853207"><ele>494</ele><time>2020-08-05T14:32:18Z</time><name>PT17110</name></trkpt>
<trkpt lat="53.344304" lon="-1.853202"><ele>494</ele><time>2020-08-05T14:32:19Z</time><name>PT17111</name></trkpt>
<trkpt lat="53.344295" lon="-1.853196"><ele>494</ele><time>2020-08-05T14:32:19Z</time><name>PT17112</name></trkpt>
<trkpt lat="53.344284" lon="-1.853191"><ele>494</ele><time>2020-08-05T14:32:21Z</time><name>PT17113</name></trkpt>
<trkpt lat="53.344272" lon="-1.853176"><ele>494</ele><time>2020-08-05T14:32:22Z</time><name>PT17114</name></trkpt>
<trkpt lat="53.344262" lon="-1.853162"><ele>493</ele><time>2020-08-05T14:32:22Z</time><name>PT17115</name></trkpt>
<trkpt lat="53.344250" lon="-1.853151"><ele>493</ele><time>2020-08-05T14:32:24Z</time><name>PT17116</name></trkpt>
<trkpt lat="53.344237" lon="-1.853138"><ele>494</ele><time>2020-08-05T14:32:25Z</time><name>PT17117</name></trkpt>
<trkpt lat="53.344223" lon="-1.853124"><ele>495</ele><time>2020-08-05T14:32:25Z</time><name>PT17118</name></trkpt>
<trkpt lat="53.344213" lon="-1.853113"><ele>495</ele><time>2020-08-05T14:32:27Z</time><name>PT17119</name></trkpt>
<trkpt lat="53.344203" lon="-1.853106"><ele>494</ele><time>2020-08-05T14:32:28Z</time><name>PT17120</name></trkpt>
<trkpt lat="53.344192" lon="-1.853097"><ele>494</ele><time>2020-08-05T14:32:28Z</time><name>PT17121</name></trkpt>
<trkpt lat="53.344181" lon="-1.853083"><ele>494</ele><time>2020-08-05T14:32:30Z</time><name>PT17122</name></trkpt>
<trkpt lat="53.344169" lon="-1.853073"><ele>494</ele><time>2020-08-05T14:32:31Z</time><name>PT17123</name></trkpt>
<trkpt lat="53.344154" lon="-1.853066"><ele>494</ele><time>2020-08-05T14:32:31Z</time><name>PT17124</name></trkpt>
<trkpt lat="53.344141" lon="-1.853060"><ele>494</ele><time>2020-08-05T14:32:33Z</time><name>PT17125</name></trkpt>
<trkpt lat="53.344131" lon="-1.853056"><ele>494</ele><time>2020-08-05T14:32:34Z</time><name>PT17126</name></trkpt>
<trkpt lat="53.344121" lon="-1.853053"><ele>494</ele><time>2020-08-05T14:32:34Z</time><name>PT17127</name></trkpt>
<trkpt lat="53.344108" lon="-1.853045"><ele>494</ele><time>2020-08-05T14:32:35Z</time><name>PT17128</name></trkpt>
<trkpt lat="53.344097" lon="-1.853038"><ele>494</ele><time>2020-08-05T14:32:37Z</time><name>PT17129</name></trkpt>
<trkpt lat="53.344086" lon="-1.853030"><ele>494</ele><time>2020-08-05T14:32:37Z</time><name>PT17130</name></trkpt>
<trkpt lat="53.344072" lon="-1.853019"><ele>494</ele><time>2020-08-05T14:32:39Z</time><name>PT17131</name></trkpt>
<trkpt lat="53.344062" lon="-1.853013"><ele>493</ele><time>2020-08-05T14:32:40Z</time><name>PT17132</name></trkpt>
<trkpt lat="53.344052" lon="-1.853009"><ele>494</ele><time>2020-08-05T14:32:40Z</time><name>PT17133</name></trkpt>
<trkpt lat="53.344040" lon="-1.853007"><ele>493</ele><time>2020-08-05T14:32:42Z</time><name>PT17134</name></trkpt>
<trkpt lat="53.344027" lon="-1.853003"><ele>493</ele><time>2020-08-05T14:32:43Z</time><name>PT17135</name></trkpt>
<trkpt lat="53.344014" lon="-1.852998"><ele>493</ele><time>2020-08-05T14:32:43Z</time><name>PT17136</name></trkpt>
<trkpt lat="53.344000" lon="-1.852994"><ele>493</ele><time>2020-08-05T14:32:45Z</time><name>PT17137</name></trkpt>
<trkpt lat="53.343986" lon="-1.852988"><ele>493</ele><time>2020-08-05T14:32:46Z</time><name>PT17138</name></trkpt>
<trkpt lat="53.343977" lon="-1.852984"><ele>493</ele><time>2020-08-05T14:32:46Z</time><name>PT17139</name></trkpt>
<trkpt lat="53.343965" lon="-1.852984"><ele>493</ele><time>2020-08-05T14:32:48Z</time><name>PT17140</name></trkpt>
<trkpt lat="53.343950" lon="-1.852980"><ele>493</ele><time>2020-08-05T14:32:49Z</time><name>PT17141</name></trkpt>
<trkpt lat="53.343936" lon="-1.852974"><ele>493</ele><time>2020-08-05T14:32:49Z</time><name>PT17142</name></trkpt>
<trkpt lat="53.343923" lon="-1.852967"><ele>493</ele><time>2020-08-05T14:32:50Z</time><name>PT17143</name></trkpt>
<trkpt lat="53.343908" lon="-1.852962"><ele>493</ele><time>2020-08-05T14:32:52Z</time><name>PT17144</name></trkpt>
<trkpt lat="53.343896" lon="-1.852958"><ele>493</ele><time>2020-08-05T14:32:52Z</time><name>PT17145</name></trkpt>
<trkpt lat="53.343886" lon="-1.852956"><ele>493</ele><time>2020-08-05T14:32:53Z</time><name>PT17146</name></trkpt>
<trkpt lat="53.343876" lon="-1.852951"><ele>493</ele><time>2020-08-05T14:32:55Z</time><name>PT17147</name></trkpt>
<trkpt lat="53.343862" lon="-1.852947"><ele>493</ele><time>2020-08-05T14:32:55Z</time><name>PT17148</name></trkpt>
<trkpt lat="53.343849" lon="-1.852942"><ele>493</ele><time>2020-08-05T14:32:57Z</time><name>PT17149</name></trkpt>
<trkpt lat="53.343831" lon="-1.852935"><ele>493</ele><time>2020-08-05T14:32:58Z</time><name>PT17150</name></trkpt>
<trkpt lat="53.343817" lon="-1.852930"><ele>493</ele><time>2020-08-05T14:32:58Z</time><name>PT17151</name></trkpt>
<trkpt lat="53.343806" lon="-1.852926"><ele>493</ele><time>2020-08-05T14:33:00Z</time><name>PT17152</name></trkpt>
<trkpt lat="53.343797" lon="-1.852925"><ele>493</ele><time>2020-08-05T14:33:01Z</time><name>PT17153</name></trkpt>
<trkpt lat="53.343788" lon="-1.852924"><ele>493</ele><time>2020-08-05T14:33:01Z</time><name>PT17154</name></trkpt>
<trkpt lat="53.343774" lon="-1.852920"><ele>493</ele><time>2020-08-05T14:33:03Z</time><name>PT17155</name></trkpt>
<trkpt lat="53.343761" lon="-1.852914"><ele>493</ele><time>2020-08-05T14:33:04Z</time><name>PT17156</name></trkpt>
<trkpt lat="53.343748" lon="-1.852911"><ele>493</ele><time>2020-08-05T14:33:04Z</time><name>PT17157</name></trkpt>
<trkpt lat="53.343734" lon="-1.852907"><ele>493</ele><time>2020-08-05T14:33:05Z</time><name>PT17158</name></trkpt>
<trkpt lat="53.343721" lon="-1.852897"><ele>493</ele><time>2020-08-05T14:33:07Z</time><name>PT17159</name></trkpt>
<trkpt lat="53.343708" lon="-1.852895"><ele>494</ele><time>2020-08-05T14:33:07Z</time><name>PT17160</name></trkpt>
<trkpt lat="53.343684" lon="-1.852890"><ele>493</ele><time>2020-08-05T14:33:09Z</time><name>PT17161</name></trkpt>
<trkpt lat="53.343669" lon="-1.852887"><ele>493</ele><time>2020-08-05T14:33:10Z</time><name>PT17162</name></trkpt>
<trkpt lat="53.343658" lon="-1.852880"><ele>493</ele><time>2020-08-05T14:33:10Z</time><name>PT17163</name></trkpt>
<trkpt lat="53.343647" lon="-1.852881"><ele>493</ele><time>2020-08-05T14:33:12Z</time><name>PT17164</name></trkpt>
<trkpt lat="53.343633" lon="-1.852881"><ele>493</ele><time>2020-08-05T14:33:13Z</time><name>PT17165</name></trkpt>
<trkpt lat="53.343618" lon="-1.852884"><ele>493</ele><time>2020-08-05T14:33:13Z</time><name>PT17166</name></trkpt>
<trkpt lat="53.343606" lon="-1.852877"><ele>493</ele><time>2020-08-05T14:33:15Z</time><name>PT17167</name></trkpt>
<trkpt lat="53.343596" lon="-1.852870"><ele>493</ele><time>2020-08-05T14:33:16Z</time><name>PT17168</name></trkpt>
<trkpt lat="53.343582" lon="-1.852863"><ele>493</ele><time>2020-08-05T14:33:16Z</time><name>PT17169</name></trkpt>
<trkpt lat="53.343569" lon="-1.852855"><ele>493</ele><time>2020-08-05T14:33:18Z</time><name>PT17170</name></trkpt>
<trkpt lat="53.343559" lon="-1.852846"><ele>493</ele><time>2020-08-05T14:33:19Z</time><name>PT17171</name></trkpt>
<trkpt lat="53.343548" lon="-1.852836"><ele>493</ele><time>2020-08-05T14:33:19Z</time><name>PT17172</name></trkpt>
<trkpt lat="53.343533" lon="-1.852829"><ele>494</ele><time>2020-08-05T14:33:20Z</time><name>PT17173</name></trkpt>
<trkpt lat="53.343520" lon="-1.852819"><ele>494</ele><time>2020-08-05T14:33:22Z</time><name>PT17174</name></trkpt>
<trkpt lat="53.343511" lon="-1.852807"><ele>494</ele><time>2020-08-05T14:33:22Z</time><name>PT17175</name></trkpt>
<trkpt lat="53.343503" lon="-1.852797"><ele>494</ele><time>2020-08-05T14:33:23Z</time><name>PT17176</name></trkpt>
<trkpt lat="53.343493" lon="-1.852784"><ele>494</ele><time>2020-08-05T14:33:25Z</time><name>PT17177</name></trkpt>
<trkpt lat="53.343483" lon="-1.852768"><ele>493</ele><time>2020-08-05T14:33:25Z</time><name>PT17178</name></trkpt>
<trkpt lat="53.343472" lon="-1.852752"><ele>493</ele><time>2020-08-05T14:33:27Z</time><name>PT17179</name></trkpt>
<trkpt lat="53.343465" lon="-1.852734"><ele>493</ele><time>2020-08-05T14:33:28Z</time><name>PT17180</name></trkpt>
<trkpt lat="53.343456" lon="-1.852712"><ele>493</ele><time>2020-08-05T14:33:28Z</time><name>PT17181</name></trkpt>
<trkpt lat="53.343446" lon="-1.852692"><ele>493</ele><time>2020-08-05T14:33:30Z</time><name>PT17182</name></trkpt>
<trkpt lat="53.343437" lon="-1.852678"><ele>493</ele><time>2020-08-05T14:33:31Z</time><name>PT17183</name></trkpt>
<trkpt lat="53.343430" lon="-1.852664"><ele>493</ele><time>2020-08-05T14:33:31Z</time><name>PT17184</name></trkpt>
<trkpt lat="53.343423" lon="-1.852651"><ele>493</ele><time>2020-08-05T14:33:33Z</time><name>PT17185</name></trkpt>
<trkpt lat="53.343414" lon="-1.852634"><ele>493</ele><time>2020-08-05T14:33:34Z</time><name>PT17186</name></trkpt>
<trkpt lat="53.343404" lon="-1.852619"><ele>492</ele><time>2020-08-05T14:33:34Z</time><name>PT17187</name></trkpt>
<trkpt lat="53.343394" lon="-1.852602"><ele>493</ele><time>2020-08-05T14:33:36Z</time><name>PT17188</name></trkpt>
<trkpt lat="53.343382" lon="-1.852586"><ele>492</ele><time>2020-08-05T14:33:37Z</time><name>PT17189</name></trkpt>
<trkpt lat="53.343370" lon="-1.852569"><ele>492</ele><time>2020-08-05T14:33:37Z</time><name>PT17190</name></trkpt>
<trkpt lat="53.343361" lon="-1.852559"><ele>492</ele><time>2020-08-05T14:33:39Z</time><name>PT17191</name></trkpt>
<trkpt lat="53.343350" lon="-1.852550"><ele>492</ele><time>2020-08-05T14:33:40Z</time><name>PT17192</name></trkpt>
<trkpt lat="53.343338" lon="-1.852541"><ele>491</ele><time>2020-08-05T14:33:40Z</time><name>PT17193</name></trkpt>
<trkpt lat="53.343325" lon="-1.852532"><ele>491</ele><time>2020-08-05T14:33:42Z</time><name>PT17194</name></trkpt>
<trkpt lat="53.343313" lon="-1.852521"><ele>491</ele><time>2020-08-05T14:33:43Z</time><name>PT17195</name></trkpt>
<trkpt lat="53.343300" lon="-1.852509"><ele>491</ele><time>2020-08-05T14:33:43Z</time><name>PT17196</name></trkpt>
<trkpt lat="53.343286" lon="-1.852499"><ele>491</ele><time>2020-08-05T14:33:45Z</time><name>PT17197</name></trkpt>
<trkpt lat="53.343276" lon="-1.852492"><ele>491</ele><time>2020-08-05T14:33:46Z</time><name>PT17198</name></trkpt>
<trkpt lat="53.343266" lon="-1.852489"><ele>491</ele><time>2020-08-05T14:33:46Z</time><name>PT17199</name></trkpt>
<trkpt lat="53.343253" lon="-1.852486"><ele>490</ele><time>2020-08-05T14:33:48Z</time><name>PT17200</name></trkpt>
<trkpt lat="53.343241" lon="-1.852478"><ele>491</ele><time>2020-08-05T14:33:49Z</time><name>PT17201</name></trkpt>
<trkpt lat="53.343230" lon="-1.852469"><ele>490</ele><time>2020-08-05T14:33:49Z</time><name>PT17202</name></trkpt>
<trkpt lat="53.343217" lon="-1.852457"><ele>490</ele><time>2020-08-05T14:33:51Z</time><name>PT17203</name></trkpt>
<trkpt lat="53.343205" lon="-1.852441"><ele>490</ele><time>2020-08-05T14:33:52Z</time><name>PT17204</name></trkpt>
<trkpt lat="53.343195" lon="-1.852425"><ele>490</ele><time>2020-08-05T14:33:52Z</time><name>PT17205</name></trkpt>
<trkpt lat="53.343186" lon="-1.852411"><ele>490</ele><time>2020-08-05T14:33:54Z</time><name>PT17206</name></trkpt>
<trkpt lat="53.343179" lon="-1.852401"><ele>491</ele><time>2020-08-05T14:33:55Z</time><name>PT17207</name></trkpt>
<trkpt lat="53.343174" lon="-1.852392"><ele>491</ele><time>2020-08-05T14:33:55Z</time><name>PT17208</name></trkpt>
<trkpt lat="53.343167" lon="-1.852377"><ele>490</ele><time>2020-08-05T14:33:57Z</time><name>PT17209</name></trkpt>
<trkpt lat="53.343163" lon="-1.852357"><ele>490</ele><time>2020-08-05T14:33:58Z</time><name>PT17210</name></trkpt>
<trkpt lat="53.343159" lon="-1.852338"><ele>490</ele><time>2020-08-05T14:33:58Z</time><name>PT17211</name></trkpt>
<trkpt lat="53.343152" lon="-1.852319"><ele>490</ele><time>2020-08-05T14:34:00Z</time><name>PT17212</name></trkpt>
<trkpt lat="53.343147" lon="-1.852300"><ele>490</ele><time>2020-08-05T14:34:01Z</time><name>PT17213</name></trkpt>
<trkpt lat="53.343148" lon="-1.852282"><ele>490</ele><time>2020-08-05T14:34:01Z</time><name>PT17214</name></trkpt>
<trkpt lat="53.343150" lon="-1.852266"><ele>490</ele><time>2020-08-05T14:34:03Z</time><name>PT17215</name></trkpt>
<trkpt lat="53.343149" lon="-1.852252"><ele>489</ele><time>2020-08-05T14:34:04Z</time><name>PT17216</name></trkpt>
<trkpt lat="53.343149" lon="-1.852233"><ele>490</ele><time>2020-08-05T14:34:04Z</time><name>PT17217</name></trkpt>
<trkpt lat="53.343151" lon="-1.852212"><ele>490</ele><time>2020-08-05T14:34:05Z</time><name>PT17218</name></trkpt>
<trkpt lat="53.343152" lon="-1.852194"><ele>490</ele><time>2020-08-05T14:34:07Z</time><name>PT17219</name></trkpt>
<trkpt lat="53.343151" lon="-1.852175"><ele>491</ele><time>2020-08-05T14:34:07Z</time><name>PT17220</name></trkpt>
<trkpt lat="53.343150" lon="-1.852154"><ele>491</ele><time>2020-08-05T14:34:08Z</time><name>PT17221</name></trkpt>
<trkpt lat="53.343152" lon="-1.852136"><ele>491</ele><time>2020-08-05T14:34:10Z</time><name>PT17222</name></trkpt>
<trkpt lat="53.343150" lon="-1.852122"><ele>492</ele><time>2020-08-05T14:34:10Z</time><name>PT17223</name></trkpt>
<trkpt lat="53.343147" lon="-1.852106"><ele>492</ele><time>2020-08-05T14:34:12Z</time><name>PT17224</name></trkpt>
<trkpt lat="53.343145" lon="-1.852088"><ele>493</ele><time>2020-08-05T14:34:13Z</time><name>PT17225</name></trkpt>
<trkpt lat="53.343146" lon="-1.852070"><ele>493</ele><time>2020-08-05T14:34:13Z</time><name>PT17226</name></trkpt>
<trkpt lat="53.343148" lon="-1.852048"><ele>493</ele><time>2020-08-05T14:34:15Z</time><name>PT17227</name></trkpt>
<trkpt lat="53.343150" lon="-1.852025"><ele>493</ele><time>2020-08-05T14:34:16Z</time><name>PT17228</name></trkpt>
<trkpt lat="53.343152" lon="-1.852008"><ele>494</ele><time>2020-08-05T14:34:16Z</time><name>PT17229</name></trkpt>
<trkpt lat="53.343153" lon="-1.851993"><ele>494</ele><time>2020-08-05T14:34:18Z</time><name>PT17230</name></trkpt>
<trkpt lat="53.343153" lon="-1.851974"><ele>494</ele><time>2020-08-05T14:34:19Z</time><name>PT17231</name></trkpt>
<trkpt lat="53.343155" lon="-1.851956"><ele>494</ele><time>2020-08-05T14:34:19Z</time><name>PT17232</name></trkpt>
<trkpt lat="53.343157" lon="-1.851932"><ele>494</ele><time>2020-08-05T14:34:21Z</time><name>PT17233</name></trkpt>
<trkpt lat="53.343158" lon="-1.851909"><ele>494</ele><time>2020-08-05T14:34:22Z</time><name>PT17234</name></trkpt>
<trkpt lat="53.343161" lon="-1.851889"><ele>494</ele><time>2020-08-05T14:34:22Z</time><name>PT17235</name></trkpt>
<trkpt lat="53.343165" lon="-1.851868"><ele>494</ele><time>2020-08-05T14:34:23Z</time><name>PT17236</name></trkpt>
<trkpt lat="53.343166" lon="-1.851843"><ele>494</ele><time>2020-08-05T14:34:25Z</time><name>PT17237</name></trkpt>
<trkpt lat="53.343167" lon="-1.851821"><ele>494</ele><time>2020-08-05T14:34:25Z</time><name>PT17238</name></trkpt>
<trkpt lat="53.343167" lon="-1.851809"><ele>494</ele><time>2020-08-05T14:34:27Z</time><name>PT17239</name></trkpt>
<trkpt lat="53.343165" lon="-1.851796"><ele>494</ele><time>2020-08-05T14:34:28Z</time><name>PT17240</name></trkpt>
<trkpt lat="53.343161" lon="-1.851782"><ele>494</ele><time>2020-08-05T14:34:28Z</time><name>PT17241</name></trkpt>
<trkpt lat="53.343156" lon="-1.851766"><ele>494</ele><time>2020-08-05T14:34:29Z</time><name>PT17242</name></trkpt>
<trkpt lat="53.343150" lon="-1.851746"><ele>494</ele><time>2020-08-05T14:34:31Z</time><name>PT17243</name></trkpt>
<trkpt lat="53.343144" lon="-1.851725"><ele>495</ele><time>2020-08-05T14:34:31Z</time><name>PT17244</name></trkpt>
<trkpt lat="53.343142" lon="-1.851702"><ele>495</ele><time>2020-08-05T14:34:32Z</time><name>PT17245</name></trkpt>
<trkpt lat="53.343141" lon="-1.851676"><ele>495</ele><time>2020-08-05T14:34:34Z</time><name>PT17246</name></trkpt>
<trkpt lat="53.343141" lon="-1.851650"><ele>496</ele><time>2020-08-05T14:34:34Z</time><name>PT17247</name></trkpt>
<trkpt lat="53.343141" lon="-1.851630"><ele>496</ele><time>2020-08-05T14:34:35Z</time><name>PT17248</name></trkpt>
<trkpt lat="53.343141" lon="-1.851618"><ele>496</ele><time>2020-08-05T14:34:37Z</time><name>PT17249</name></trkpt>
<trkpt lat="53.343140" lon="-1.851606"><ele>496</ele><time>2020-08-05T14:34:37Z</time><name>PT17250</name></trkpt>
<trkpt lat="53.343141" lon="-1.851592"><ele>495</ele><time>2020-08-05T14:34:39Z</time><name>PT17251</name></trkpt>
<trkpt lat="53.343140" lon="-1.851569"><ele>495</ele><time>2020-08-05T14:34:40Z</time><name>PT17252</name></trkpt>
<trkpt lat="53.343139" lon="-1.851547"><ele>495</ele><time>2020-08-05T14:34:40Z</time><name>PT17253</name></trkpt>
<trkpt lat="53.343137" lon="-1.851523"><ele>495</ele><time>2020-08-05T14:34:42Z</time><name>PT17254</name></trkpt>
<trkpt lat="53.343136" lon="-1.851502"><ele>495</ele><time>2020-08-05T14:34:43Z</time><name>PT17255</name></trkpt>
<trkpt lat="53.343135" lon="-1.851481"><ele>495</ele><time>2020-08-05T14:34:43Z</time><name>PT17256</name></trkpt>
<trkpt lat="53.343139" lon="-1.851466"><ele>495</ele><time>2020-08-05T14:34:45Z</time><name>PT17257</name></trkpt>
<trkpt lat="53.343140" lon="-1.851455"><ele>495</ele><time>2020-08-05T14:34:46Z</time><name>PT17258</name></trkpt>
<trkpt lat="53.343138" lon="-1.851441"><ele>495</ele><time>2020-08-05T14:34:46Z</time><name>PT17259</name></trkpt>
<trkpt lat="53.343138" lon="-1.851423"><ele>494</ele><time>2020-08-05T14:34:47Z</time><name>PT17260</name></trkpt>
<trkpt lat="53.343140" lon="-1.851402"><ele>495</ele><time>2020-08-05T14:34:49Z</time><name>PT17261</name></trkpt>
<trkpt lat="53.343139" lon="-1.851378"><ele>495</ele><time>2020-08-05T14:34:49Z</time><name>PT17262</name></trkpt>
<trkpt lat="53.343138" lon="-1.851355"><ele>495</ele><time>2020-08-05T14:34:51Z</time><name>PT17263</name></trkpt>
<trkpt lat="53.343137" lon="-1.851336"><ele>495</ele><time>2020-08-05T14:34:52Z</time><name>PT17264</name></trkpt>
<trkpt lat="53.343138" lon="-1.851322"><ele>495</ele><time>2020-08-05T14:34:52Z</time><name>PT17265</name></trkpt>
<trkpt lat="53.343139" lon="-1.851307"><ele>495</ele><time>2020-08-05T14:34:54Z</time><name>PT17266</name></trkpt>
<trkpt lat="53.343136" lon="-1.851293"><ele>495</ele><time>2020-08-05T14:34:55Z</time><name>PT17267</name></trkpt>
<trkpt lat="53.343133" lon="-1.851275"><ele>495</ele><time>2020-08-05T14:34:56Z</time><name>PT17268</name></trkpt>
<trkpt lat="53.343134" lon="-1.851256"><ele>495</ele><time>2020-08-05T14:34:57Z</time><name>PT17269</name></trkpt>
<trkpt lat="53.343135" lon="-1.851239"><ele>495</ele><time>2020-08-05T14:34:58Z</time><name>PT17270</name></trkpt>
<trkpt lat="53.343137" lon="-1.851221"><ele>495</ele><time>2020-08-05T14:34:58Z</time><name>PT17271</name></trkpt>
<trkpt lat="53.343138" lon="-1.851206"><ele>495</ele><time>2020-08-05T14:35:00Z</time><name>PT17272</name></trkpt>
<trkpt lat="53.343138" lon="-1.851191"><ele>496</ele><time>2020-08-05T14:35:01Z</time><name>PT17273</name></trkpt>
<trkpt lat="53.343137" lon="-1.851174"><ele>496</ele><time>2020-08-05T14:35:01Z</time><name>PT17274</name></trkpt>
<trkpt lat="53.343137" lon="-1.851154"><ele>496</ele><time>2020-08-05T14:35:02Z</time><name>PT17275</name></trkpt>
<trkpt lat="53.343136" lon="-1.851131"><ele>497</ele><time>2020-08-05T14:35:04Z</time><name>PT17276</name></trkpt>
<trkpt lat="53.343137" lon="-1.851106"><ele>498</ele><time>2020-08-05T14:35:04Z</time><name>PT17277</name></trkpt>
<trkpt lat="53.343137" lon="-1.851083"><ele>498</ele><time>2020-08-05T14:35:06Z</time><name>PT17278</name></trkpt>
<trkpt lat="53.343137" lon="-1.851068"><ele>497</ele><time>2020-08-05T14:35:07Z</time><name>PT17279</name></trkpt>
<trkpt lat="53.343137" lon="-1.851057"><ele>497</ele><time>2020-08-05T14:35:07Z</time><name>PT17280</name></trkpt>
<trkpt lat="53.343137" lon="-1.851043"><ele>497</ele><time>2020-08-05T14:35:09Z</time><name>PT17281</name></trkpt>
<trkpt lat="53.343138" lon="-1.851028"><ele>498</ele><time>2020-08-05T14:35:10Z</time><name>PT17282</name></trkpt>
<trkpt lat="53.343137" lon="-1.851007"><ele>498</ele><time>2020-08-05T14:35:10Z</time><name>PT17283</name></trkpt>
<trkpt lat="53.343137" lon="-1.850983"><ele>498</ele><time>2020-08-05T14:35:12Z</time><name>PT17284</name></trkpt>
<trkpt lat="53.343137" lon="-1.850966"><ele>498</ele><time>2020-08-05T14:35:13Z</time><name>PT17285</name></trkpt>
<trkpt lat="53.343136" lon="-1.850952"><ele>498</ele><time>2020-08-05T14:35:13Z</time><name>PT17286</name></trkpt>
<trkpt lat="53.343136" lon="-1.850937"><ele>498</ele><time>2020-08-05T14:35:14Z</time><name>PT17287</name></trkpt>
<trkpt lat="53.343137" lon="-1.850917"><ele>498</ele><time>2020-08-05T14:35:16Z</time><name>PT17288</name></trkpt>
<trkpt lat="53.343137" lon="-1.850898"><ele>499</ele><time>2020-08-05T14:35:16Z</time><name>PT17289</name></trkpt>
<trkpt lat="53.343137" lon="-1.850879"><ele>499</ele><time>2020-08-05T14:35:18Z</time><name>PT17290</name></trkpt>
<trkpt lat="53.343137" lon="-1.850863"><ele>499</ele><time>2020-08-05T14:35:19Z</time><name>PT17291</name></trkpt>
<trkpt lat="53.343136" lon="-1.850851"><ele>499</ele><time>2020-08-05T14:35:19Z</time><name>PT17292</name></trkpt>
<trkpt lat="53.343135" lon="-1.850840"><ele>498</ele><time>2020-08-05T14:35:20Z</time><name>PT17293</name></trkpt>
<trkpt lat="53.343131" lon="-1.850820"><ele>499</ele><time>2020-08-05T14:35:22Z</time><name>PT17294</name></trkpt>
<trkpt lat="53.343132" lon="-1.850801"><ele>500</ele><time>2020-08-05T14:35:22Z</time><name>PT17295</name></trkpt>
<trkpt lat="53.343134" lon="-1.850780"><ele>499</ele><time>2020-08-05T14:35:23Z</time><name>PT17296</name></trkpt>
<trkpt lat="53.343136" lon="-1.850766"><ele>499</ele><time>2020-08-05T14:35:25Z</time><name>PT17297</name></trkpt>
<trkpt lat="53.343136" lon="-1.850755"><ele>499</ele><time>2020-08-05T14:35:25Z</time><name>PT17298</name></trkpt>
<trkpt lat="53.343135" lon="-1.850741"><ele>499</ele><time>2020-08-05T14:35:26Z</time><name>PT17299</name></trkpt>
<trkpt lat="53.343137" lon="-1.850725"><ele>499</ele><time>2020-08-05T14:35:28Z</time><name>PT17300</name></trkpt>
<trkpt lat="53.343139" lon="-1.850707"><ele>499</ele><time>2020-08-05T14:35:28Z</time><name>PT17301</name></trkpt>
<trkpt lat="53.343140" lon="-1.850688"><ele>500</ele><time>2020-08-05T14:35:29Z</time><name>PT17302</name></trkpt>
<trkpt lat="53.343140" lon="-1.850673"><ele>500</ele><time>2020-08-05T14:35:31Z</time><name>PT17303</name></trkpt>
<trkpt lat="53.343141" lon="-1.850657"><ele>500</ele><time>2020-08-05T14:35:31Z</time><name>PT17304</name></trkpt>
<trkpt lat="53.343142" lon="-1.850641"><ele>499</ele><time>2020-08-05T14:35:32Z</time><name>PT17305</name></trkpt>
<trkpt lat="53.343143" lon="-1.850621"><ele>499</ele><time>2020-08-05T14:35:34Z</time><name>PT17306</name></trkpt>
<trkpt lat="53.343145" lon="-1.850603"><ele>499</ele><time>2020-08-05T14:35:34Z</time><name>PT17307</name></trkpt>
<trkpt lat="53.343147" lon="-1.850581"><ele>500</ele><time>2020-08-05T14:35:36Z</time><name>PT17308</name></trkpt>
<trkpt lat="53.343150" lon="-1.850561"><ele>500</ele><time>2020-08-05T14:35:37Z</time><name>PT17309</name></trkpt>
<trkpt lat="53.343152" lon="-1.850547"><ele>500</ele><time>2020-08-05T14:35:37Z</time><name>PT17310</name></trkpt>
<trkpt lat="53.343153" lon="-1.850534"><ele>500</ele><time>2020-08-05T14:35:39Z</time><name>PT17311</name></trkpt>
<trkpt lat="53.343153" lon="-1.850516"><ele>500</ele><time>2020-08-05T14:35:40Z</time><name>PT17312</name></trkpt>
<trkpt lat="53.343154" lon="-1.850498"><ele>500</ele><time>2020-08-05T14:35:41Z</time><name>PT17313</name></trkpt>
<trkpt lat="53.343157" lon="-1.850483"><ele>501</ele><time>2020-08-05T14:35:42Z</time><name>PT17314</name></trkpt>
<trkpt lat="53.343159" lon="-1.850463"><ele>501</ele><time>2020-08-05T14:35:43Z</time><name>PT17315</name></trkpt>
<trkpt lat="53.343160" lon="-1.850441"><ele>502</ele><time>2020-08-05T14:35:43Z</time><name>PT17316</name></trkpt>
<trkpt lat="53.343163" lon="-1.850425"><ele>502</ele><time>2020-08-05T14:35:45Z</time><name>PT17317</name></trkpt>
<trkpt lat="53.343166" lon="-1.850411"><ele>502</ele><time>2020-08-05T14:35:46Z</time><name>PT17318</name></trkpt>
<trkpt lat="53.343166" lon="-1.850395"><ele>502</ele><time>2020-08-05T14:35:46Z</time><name>PT17319</name></trkpt>
<trkpt lat="53.343166" lon="-1.850375"><ele>502</ele><time>2020-08-05T14:35:48Z</time><name>PT17320</name></trkpt>
<trkpt lat="53.343166" lon="-1.850355"><ele>502</ele><time>2020-08-05T14:35:49Z</time><name>PT17321</name></trkpt>
<trkpt lat="53.343167" lon="-1.850334"><ele>502</ele><time>2020-08-05T14:35:49Z</time><name>PT17322</name></trkpt>
<trkpt lat="53.343172" lon="-1.850312"><ele>502</ele><time>2020-08-05T14:35:51Z</time><name>PT17323</name></trkpt>
<trkpt lat="53.343174" lon="-1.850297"><ele>502</ele><time>2020-08-05T14:35:52Z</time><name>PT17324</name></trkpt>
<trkpt lat="53.343176" lon="-1.850282"><ele>502</ele><time>2020-08-05T14:35:52Z</time><name>PT17325</name></trkpt>
<trkpt lat="53.343179" lon="-1.850265"><ele>503</ele><time>2020-08-05T14:35:53Z</time><name>PT17326</name></trkpt>
<trkpt lat="53.343185" lon="-1.850248"><ele>502</ele><time>2020-08-05T14:35:55Z</time><name>PT17327</name></trkpt>
<trkpt lat="53.343192" lon="-1.850228"><ele>502</ele><time>2020-08-05T14:35:55Z</time><name>PT17328</name></trkpt>
<trkpt lat="53.343196" lon="-1.850208"><ele>503</ele><time>2020-08-05T14:35:56Z</time><name>PT17329</name></trkpt>
<trkpt lat="53.343199" lon="-1.850192"><ele>502</ele><time>2020-08-05T14:35:58Z</time><name>PT17330</name></trkpt>
<trkpt lat="53.343199" lon="-1.850175"><ele>503</ele><time>2020-08-05T14:35:58Z</time><name>PT17331</name></trkpt>
<trkpt lat="53.343200" lon="-1.850156"><ele>502</ele><time>2020-08-05T14:35:59Z</time><name>PT17332</name></trkpt>
<trkpt lat="53.343200" lon="-1.850135"><ele>503</ele><time>2020-08-05T14:36:01Z</time><name>PT17333</name></trkpt>
<trkpt lat="53.343203" lon="-1.850120"><ele>502</ele><time>2020-08-05T14:36:01Z</time><name>PT17334</name></trkpt>
<trkpt lat="53.343204" lon="-1.850098"><ele>502</ele><time>2020-08-05T14:36:02Z</time><name>PT17335</name></trkpt>
<trkpt lat="53.343206" lon="-1.850078"><ele>503</ele><time>2020-08-05T14:36:04Z</time><name>PT17336</name></trkpt>
<trkpt lat="53.343203" lon="-1.850065"><ele>503</ele><time>2020-08-05T14:36:04Z</time><name>PT17337</name></trkpt>
<trkpt lat="53.343200" lon="-1.850046"><ele>503</ele><time>2020-08-05T14:36:06Z</time><name>PT17338</name></trkpt>
<trkpt lat="53.343201" lon="-1.850027"><ele>503</ele><time>2020-08-05T14:36:07Z</time><name>PT17339</name></trkpt>
<trkpt lat="53.343203" lon="-1.850005"><ele>503</ele><time>2020-08-05T14:36:07Z</time><name>PT17340</name></trkpt>
<trkpt lat="53.343205" lon="-1.849980"><ele>504</ele><time>2020-08-05T14:36:09Z</time><name>PT17341</name></trkpt>
<trkpt lat="53.343207" lon="-1.849957"><ele>503</ele><time>2020-08-05T14:36:10Z</time><name>PT17342</name></trkpt>
<trkpt lat="53.343210" lon="-1.849934"><ele>503</ele><time>2020-08-05T14:36:10Z</time><name>PT17343</name></trkpt>
<trkpt lat="53.343211" lon="-1.849916"><ele>503</ele><time>2020-08-05T14:36:11Z</time><name>PT17344</name></trkpt>
<trkpt lat="53.343212" lon="-1.849899"><ele>503</ele><time>2020-08-05T14:36:13Z</time><name>PT17345</name></trkpt>
<trkpt lat="53.343212" lon="-1.849883"><ele>503</ele><time>2020-08-05T14:36:13Z</time><name>PT17346</name></trkpt>
<trkpt lat="53.343212" lon="-1.849862"><ele>503</ele><time>2020-08-05T14:36:14Z</time><name>PT17347</name></trkpt>
<trkpt lat="53.343213" lon="-1.849838"><ele>504</ele><time>2020-08-05T14:36:16Z</time><name>PT17348</name></trkpt>
<trkpt lat="53.343217" lon="-1.849817"><ele>503</ele><time>2020-08-05T14:36:16Z</time><name>PT17349</name></trkpt>
<trkpt lat="53.343217" lon="-1.849799"><ele>503</ele><time>2020-08-05T14:36:17Z</time><name>PT17350</name></trkpt>
<trkpt lat="53.343218" lon="-1.849774"><ele>503</ele><time>2020-08-05T14:36:19Z</time><name>PT17351</name></trkpt>
<trkpt lat="53.343219" lon="-1.849747"><ele>503</ele><time>2020-08-05T14:36:19Z</time><name>PT17352</name></trkpt>
<trkpt lat="53.343219" lon="-1.849728"><ele>503</ele><time>2020-08-05T14:36:21Z</time><name>PT17353</name></trkpt>
<trkpt lat="53.343219" lon="-1.849713"><ele>503</ele><time>2020-08-05T14:36:22Z</time><name>PT17354</name></trkpt>
<trkpt lat="53.343220" lon="-1.849699"><ele>503</ele><time>2020-08-05T14:36:22Z</time><name>PT17355</name></trkpt>
<trkpt lat="53.343219" lon="-1.849684"><ele>503</ele><time>2020-08-05T14:36:24Z</time><name>PT17356</name></trkpt>
<trkpt lat="53.343217" lon="-1.849665"><ele>503</ele><time>2020-08-05T14:36:25Z</time><name>PT17357</name></trkpt>
<trkpt lat="53.343216" lon="-1.849647"><ele>503</ele><time>2020-08-05T14:36:25Z</time><name>PT17358</name></trkpt>
<trkpt lat="53.343217" lon="-1.849627"><ele>503</ele><time>2020-08-05T14:36:27Z</time><name>PT17359</name></trkpt>
<trkpt lat="53.343218" lon="-1.849608"><ele>503</ele><time>2020-08-05T14:36:28Z</time><name>PT17360</name></trkpt>
<trkpt lat="53.343217" lon="-1.849590"><ele>504</ele><time>2020-08-05T14:36:28Z</time><name>PT17361</name></trkpt>
<trkpt lat="53.343216" lon="-1.849573"><ele>504</ele><time>2020-08-05T14:36:30Z</time><name>PT17362</name></trkpt>
<trkpt lat="53.343215" lon="-1.849555"><ele>504</ele><time>2020-08-05T14:36:31Z</time><name>PT17363</name></trkpt>
<trkpt lat="53.343215" lon="-1.849536"><ele>503</ele><time>2020-08-05T14:36:31Z</time><name>PT17364</name></trkpt>
<trkpt lat="53.343214" lon="-1.849516"><ele>504</ele><time>2020-08-05T14:36:32Z</time><name>PT17365</name></trkpt>
<trkpt lat="53.343214" lon="-1.849497"><ele>504</ele><time>2020-08-05T14:36:34Z</time><name>PT17366</name></trkpt>
<trkpt lat="53.343214" lon="-1.849474"><ele>504</ele><time>2020-08-05T14:36:34Z</time><name>PT17367</name></trkpt>
<trkpt lat="53.343214" lon="-1.849451"><ele>504</ele><time>2020-08-05T14:36:35Z</time><name>PT17368</name></trkpt>
<trkpt lat="53.343216" lon="-1.849431"><ele>505</ele><time>2020-08-05T14:36:37Z</time><name>PT17369</name></trkpt>
<trkpt lat="53.343217" lon="-1.849414"><ele>505</ele><time>2020-08-05T14:36:37Z</time><name>PT17370</name></trkpt>
<trkpt lat="53.343217" lon="-1.849402"><ele>506</ele><time>2020-08-05T14:36:39Z</time><name>PT17371</name></trkpt>
<trkpt lat="53.343217" lon="-1.849390"><ele>505</ele><time>2020-08-05T14:36:40Z</time><name>PT17372</name></trkpt>
<trkpt lat="53.343217" lon="-1.849373"><ele>505</ele><time>2020-08-05T14:36:40Z</time><name>PT17373</name></trkpt>
<trkpt lat="53.343217" lon="-1.849353"><ele>506</ele><time>2020-08-05T14:36:41Z</time><name>PT17374</name></trkpt>
<trkpt lat="53.343220" lon="-1.849332"><ele>505</ele><time>2020-08-05T14:36:43Z</time><name>PT17375</name></trkpt>
<trkpt lat="53.343224" lon="-1.849310"><ele>506</ele><time>2020-08-05T14:36:43Z</time><name>PT17376</name></trkpt>
<trkpt lat="53.343225" lon="-1.849294"><ele>506</ele><time>2020-08-05T14:36:44Z</time><name>PT17377</name></trkpt>
<trkpt lat="53.343225" lon="-1.849277"><ele>506</ele><time>2020-08-05T14:36:46Z</time><name>PT17378</name></trkpt>
<trkpt lat="53.343225" lon="-1.849262"><ele>506</ele><time>2020-08-05T14:36:46Z</time><name>PT17379</name></trkpt>
<trkpt lat="53.343226" lon="-1.849241"><ele>506</ele><time>2020-08-05T14:36:48Z</time><name>PT17380</name></trkpt>
<trkpt lat="53.343227" lon="-1.849219"><ele>506</ele><time>2020-08-05T14:36:49Z</time><name>PT17381</name></trkpt>
<trkpt lat="53.343228" lon="-1.849196"><ele>506</ele><time>2020-08-05T14:36:49Z</time><name>PT17382</name></trkpt>
<trkpt lat="53.343229" lon="-1.849177"><ele>507</ele><time>2020-08-05T14:36:50Z</time><name>PT17383</name></trkpt>
<trkpt lat="53.343231" lon="-1.849163"><ele>506</ele><time>2020-08-05T14:36:52Z</time><name>PT17384</name></trkpt>
<trkpt lat="53.343233" lon="-1.849148"><ele>506</ele><time>2020-08-05T14:36:52Z</time><name>PT17385</name></trkpt>
<trkpt lat="53.343234" lon="-1.849131"><ele>506</ele><time>2020-08-05T14:36:53Z</time><name>PT17386</name></trkpt>
<trkpt lat="53.343236" lon="-1.849111"><ele>506</ele><time>2020-08-05T14:36:55Z</time><name>PT17387</name></trkpt>
<trkpt lat="53.343239" lon="-1.849094"><ele>506</ele><time>2020-08-05T14:36:55Z</time><name>PT17388</name></trkpt>
<trkpt lat="53.343242" lon="-1.849075"><ele>506</ele><time>2020-08-05T14:36:57Z</time><name>PT17389</name></trkpt>
<trkpt lat="53.343245" lon="-1.849049"><ele>506</ele><time>2020-08-05T14:36:58Z</time><name>PT17390</name></trkpt>
<trkpt lat="53.343247" lon="-1.849029"><ele>506</ele><time>2020-08-05T14:36:58Z</time><name>PT17391</name></trkpt>
<trkpt lat="53.343250" lon="-1.849014"><ele>506</ele><time>2020-08-05T14:36:59Z</time><name>PT17392</name></trkpt>
<trkpt lat="53.343251" lon="-1.848996"><ele>507</ele><time>2020-08-05T14:37:01Z</time><name>PT17393</name></trkpt>
<trkpt lat="53.343253" lon="-1.848976"><ele>507</ele><time>2020-08-05T14:37:01Z</time><name>PT17394</name></trkpt>
<trkpt lat="53.343258" lon="-1.848956"><ele>507</ele><time>2020-08-05T14:37:02Z</time><name>PT17395</name></trkpt>
<trkpt lat="53.343262" lon="-1.848931"><ele>507</ele><time>2020-08-05T14:37:04Z</time><name>PT17396</name></trkpt>
<trkpt lat="53.343267" lon="-1.848906"><ele>508</ele><time>2020-08-05T14:37:04Z</time><name>PT17397</name></trkpt>
<trkpt lat="53.343272" lon="-1.848884"><ele>508</ele><time>2020-08-05T14:37:06Z</time><name>PT17398</name></trkpt>
<trkpt lat="53.343275" lon="-1.848867"><ele>508</ele><time>2020-08-05T14:37:07Z</time><name>PT17399</name></trkpt>
<trkpt lat="53.343277" lon="-1.848852"><ele>508</ele><time>2020-08-05T14:37:07Z</time><name>PT17400</name></trkpt>
<trkpt lat="53.343279" lon="-1.848828"><ele>509</ele><time>2020-08-05T14:37:09Z</time><name>PT17401</name></trkpt>
<trkpt lat="53.343284" lon="-1.848807"><ele>509</ele><time>2020-08-05T14:37:10Z</time><name>PT17402</name></trkpt>
<trkpt lat="53.343291" lon="-1.848789"><ele>509</ele><time>2020-08-05T14:37:10Z</time><name>PT17403</name></trkpt>
<trkpt lat="53.343297" lon="-1.848768"><ele>509</ele><time>2020-08-05T14:37:12Z</time><name>PT17404</name></trkpt>
<trkpt lat="53.343301" lon="-1.848752"><ele>509</ele><time>2020-08-05T14:37:13Z</time><name>PT17405</name></trkpt>
<trkpt lat="53.343303" lon="-1.848739"><ele>509</ele><time>2020-08-05T14:37:13Z</time><name>PT17406</name></trkpt>
<trkpt lat="53.343309" lon="-1.848723"><ele>509</ele><time>2020-08-05T14:37:14Z</time><name>PT17407</name></trkpt>
<trkpt lat="53.343317" lon="-1.848707"><ele>508</ele><time>2020-08-05T14:37:16Z</time><name>PT17408</name></trkpt>
<trkpt lat="53.343322" lon="-1.848684"><ele>508</ele><time>2020-08-05T14:37:16Z</time><name>PT17409</name></trkpt>
<trkpt lat="53.343327" lon="-1.848661"><ele>509</ele><time>2020-08-05T14:37:17Z</time><name>PT17410</name></trkpt>
<trkpt lat="53.343334" lon="-1.848646"><ele>509</ele><time>2020-08-05T14:37:19Z</time><name>PT17411</name></trkpt>
<trkpt lat="53.343339" lon="-1.848632"><ele>509</ele><time>2020-08-05T14:37:19Z</time><name>PT17412</name></trkpt>
<trkpt lat="53.343342" lon="-1.848611"><ele>509</ele><time>2020-08-05T14:37:20Z</time><name>PT17413</name></trkpt>
<trkpt lat="53.343345" lon="-1.848590"><ele>509</ele><time>2020-08-05T14:37:22Z</time><name>PT17414</name></trkpt>
<trkpt lat="53.343351" lon="-1.848567"><ele>510</ele><time>2020-08-05T14:37:22Z</time><name>PT17415</name></trkpt>
<trkpt lat="53.343359" lon="-1.848545"><ele>510</ele><time>2020-08-05T14:37:23Z</time><name>PT17416</name></trkpt>
<trkpt lat="53.343365" lon="-1.848527"><ele>510</ele><time>2020-08-05T14:37:25Z</time><name>PT17417</name></trkpt>
<trkpt lat="53.343370" lon="-1.848511"><ele>510</ele><time>2020-08-05T14:37:25Z</time><name>PT17418</name></trkpt>
<trkpt lat="53.343374" lon="-1.848494"><ele>510</ele><time>2020-08-05T14:37:27Z</time><name>PT17419</name></trkpt>
<trkpt lat="53.343381" lon="-1.848481"><ele>511</ele><time>2020-08-05T14:37:28Z</time><name>PT17420</name></trkpt>
<trkpt lat="53.343387" lon="-1.848468"><ele>511</ele><time>2020-08-05T14:37:28Z</time><name>PT17421</name></trkpt>
<trkpt lat="53.343396" lon="-1.848451"><ele>511</ele><time>2020-08-05T14:37:30Z</time><name>PT17422</name></trkpt>
<trkpt lat="53.343403" lon="-1.848435"><ele>510</ele><time>2020-08-05T14:37:31Z</time><name>PT17423</name></trkpt>
<trkpt lat="53.343408" lon="-1.848422"><ele>510</ele><time>2020-08-05T14:37:31Z</time><name>PT17424</name></trkpt>
<trkpt lat="53.343412" lon="-1.848407"><ele>510</ele><time>2020-08-05T14:37:33Z</time><name>PT17425</name></trkpt>
<trkpt lat="53.343418" lon="-1.848391"><ele>510</ele><time>2020-08-05T14:37:34Z</time><name>PT17426</name></trkpt>
<trkpt lat="53.343427" lon="-1.848377"><ele>509</ele><time>2020-08-05T14:37:34Z</time><name>PT17427</name></trkpt>
<trkpt lat="53.343437" lon="-1.848361"><ele>510</ele><time>2020-08-05T14:37:35Z</time><name>PT17428</name></trkpt>
<trkpt lat="53.343446" lon="-1.848347"><ele>510</ele><time>2020-08-05T14:37:37Z</time><name>PT17429</name></trkpt>
<trkpt lat="53.343451" lon="-1.848333"><ele>511</ele><time>2020-08-05T14:37:37Z</time><name>PT17430</name></trkpt>
<trkpt lat="53.343457" lon="-1.848316"><ele>510</ele><time>2020-08-05T14:37:39Z</time><name>PT17431</name></trkpt>
<trkpt lat="53.343465" lon="-1.848302"><ele>510</ele><time>2020-08-05T14:37:40Z</time><name>PT17432</name></trkpt>
<trkpt lat="53.343472" lon="-1.848282"><ele>510</ele><time>2020-08-05T14:37:40Z</time><name>PT17433</name></trkpt>
<trkpt lat="53.343476" lon="-1.848264"><ele>511</ele><time>2020-08-05T14:37:41Z</time><name>PT17434</name></trkpt>
<trkpt lat="53.343483" lon="-1.848246"><ele>510</ele><time>2020-08-05T14:37:43Z</time><name>PT17435</name></trkpt>
<trkpt lat="53.343485" lon="-1.848228"><ele>512</ele><time>2020-08-05T14:37:43Z</time><name>PT17436</name></trkpt>
<trkpt lat="53.343485" lon="-1.848210"><ele>512</ele><time>2020-08-05T14:37:44Z</time><name>PT17437</name></trkpt>
<trkpt lat="53.343490" lon="-1.848190"><ele>512</ele><time>2020-08-05T14:37:46Z</time><name>PT17438</name></trkpt>
<trkpt lat="53.343495" lon="-1.848170"><ele>512</ele><time>2020-08-05T14:37:46Z</time><name>PT17439</name></trkpt>
<trkpt lat="53.343500" lon="-1.848149"><ele>512</ele><time>2020-08-05T14:37:47Z</time><name>PT17440</name></trkpt>
<trkpt lat="53.343506" lon="-1.848131"><ele>513</ele><time>2020-08-05T14:37:49Z</time><name>PT17441</name></trkpt>
<trkpt lat="53.343512" lon="-1.848116"><ele>513</ele><time>2020-08-05T14:37:49Z</time><name>PT17442</name></trkpt>
<trkpt lat="53.343517" lon="-1.848101"><ele>513</ele><time>2020-08-05T14:37:51Z</time><name>PT17443</name></trkpt>
<trkpt lat="53.343522" lon="-1.848085"><ele>513</ele><time>2020-08-05T14:37:52Z</time><name>PT17444</name></trkpt>
<trkpt lat="53.343528" lon="-1.848071"><ele>514</ele><time>2020-08-05T14:37:52Z</time><name>PT17445</name></trkpt>
<trkpt lat="53.343535" lon="-1.848054"><ele>514</ele><time>2020-08-05T14:37:53Z</time><name>PT17446</name></trkpt>
<trkpt lat="53.343541" lon="-1.848036"><ele>513</ele><time>2020-08-05T14:37:55Z</time><name>PT17447</name></trkpt>
<trkpt lat="53.343545" lon="-1.848023"><ele>513</ele><time>2020-08-05T14:37:55Z</time><name>PT17448</name></trkpt>
<trkpt lat="53.343550" lon="-1.848009"><ele>513</ele><time>2020-08-05T14:37:56Z</time><name>PT17449</name></trkpt>
<trkpt lat="53.343558" lon="-1.847997"><ele>513</ele><time>2020-08-05T14:37:58Z</time><name>PT17450</name></trkpt>
<trkpt lat="53.343564" lon="-1.847982"><ele>513</ele><time>2020-08-05T14:37:58Z</time><name>PT17451</name></trkpt>
<trkpt lat="53.343570" lon="-1.847963"><ele>513</ele><time>2020-08-05T14:37:59Z</time><name>PT17452</name></trkpt>
<trkpt lat="53.343577" lon="-1.847941"><ele>513</ele><time>2020-08-05T14:38:01Z</time><name>PT17453</name></trkpt>
<trkpt lat="53.343585" lon="-1.847921"><ele>513</ele><time>2020-08-05T14:38:01Z</time><name>PT17454</name></trkpt>
<trkpt lat="53.343591" lon="-1.847905"><ele>513</ele><time>2020-08-05T14:38:03Z</time><name>PT17455</name></trkpt>
<trkpt lat="53.343595" lon="-1.847892"><ele>513</ele><time>2020-08-05T14:38:04Z</time><name>PT17456</name></trkpt>
<trkpt lat="53.343603" lon="-1.847880"><ele>513</ele><time>2020-08-05T14:38:04Z</time><name>PT17457</name></trkpt>
<trkpt lat="53.343616" lon="-1.847865"><ele>512</ele><time>2020-08-05T14:38:06Z</time><name>PT17458</name></trkpt>
<trkpt lat="53.343626" lon="-1.847847"><ele>512</ele><time>2020-08-05T14:38:07Z</time><name>PT17459</name></trkpt>
<trkpt lat="53.343635" lon="-1.847831"><ele>512</ele><time>2020-08-05T14:38:07Z</time><name>PT17460</name></trkpt>
<trkpt lat="53.343640" lon="-1.847819"><ele>512</ele><time>2020-08-05T14:38:09Z</time><name>PT17461</name></trkpt>
<trkpt lat="53.343643" lon="-1.847803"><ele>513</ele><time>2020-08-05T14:38:10Z</time><name>PT17462</name></trkpt>
<trkpt lat="53.343648" lon="-1.847788"><ele>513</ele><time>2020-08-05T14:38:10Z</time><name>PT17463</name></trkpt>
<trkpt lat="53.343654" lon="-1.847769"><ele>513</ele><time>2020-08-05T14:38:12Z</time><name>PT17464</name></trkpt>
<trkpt lat="53.343661" lon="-1.847750"><ele>513</ele><time>2020-08-05T14:38:13Z</time><name>PT17465</name></trkpt>
<trkpt lat="53.343670" lon="-1.847731"><ele>513</ele><time>2020-08-05T14:38:13Z</time><name>PT17466</name></trkpt>
<trkpt lat="53.343678" lon="-1.847717"><ele>513</ele><time>2020-08-05T14:38:14Z</time><name>PT17467</name></trkpt>
<trkpt lat="53.343687" lon="-1.847703"><ele>513</ele><time>2020-08-05T14:38:16Z</time><name>PT17468</name></trkpt>
<trkpt lat="53.343697" lon="-1.847691"><ele>513</ele><time>2020-08-05T14:38:16Z</time><name>PT17469</name></trkpt>
<trkpt lat="53.343703" lon="-1.847679"><ele>514</ele><time>2020-08-05T14:38:17Z</time><name>PT17470</name></trkpt>
<trkpt lat="53.343710" lon="-1.847666"><ele>514</ele><time>2020-08-05T14:38:19Z</time><name>PT17471</name></trkpt>
<trkpt lat="53.343720" lon="-1.847651"><ele>514</ele><time>2020-08-05T14:38:19Z</time><name>PT17472</name></trkpt>
<trkpt lat="53.343728" lon="-1.847636"><ele>514</ele><time>2020-08-05T14:38:21Z</time><name>PT17473</name></trkpt>
<trkpt lat="53.343736" lon="-1.847619"><ele>513</ele><time>2020-08-05T14:38:22Z</time><name>PT17474</name></trkpt>
<trkpt lat="53.343744" lon="-1.847598"><ele>514</ele><time>2020-08-05T14:38:22Z</time><name>PT17475</name></trkpt>
<trkpt lat="53.343749" lon="-1.847586"><ele>514</ele><time>2020-08-05T14:38:24Z</time><name>PT17476</name></trkpt>
<trkpt lat="53.343754" lon="-1.847575"><ele>514</ele><time>2020-08-05T14:38:25Z</time><name>PT17477</name></trkpt>
<trkpt lat="53.343760" lon="-1.847562"><ele>513</ele><time>2020-08-05T14:38:25Z</time><name>PT17478</name></trkpt>
<trkpt lat="53.343769" lon="-1.847552"><ele>513</ele><time>2020-08-05T14:38:26Z</time><name>PT17479</name></trkpt>
<trkpt lat="53.343778" lon="-1.847541"><ele>513</ele><time>2020-08-05T14:38:28Z</time><name>PT17480</name></trkpt>
<trkpt lat="53.343786" lon="-1.847526"><ele>513</ele><time>2020-08-05T14:38:28Z</time><name>PT17481</name></trkpt>
<trkpt lat="53.343792" lon="-1.847509"><ele>513</ele><time>2020-08-05T14:38:29Z</time><name>PT17482</name></trkpt>
<trkpt lat="53.343797" lon="-1.847488"><ele>513</ele><time>2020-08-05T14:38:31Z</time><name>PT17483</name></trkpt>
<trkpt lat="53.343804" lon="-1.847471"><ele>514</ele><time>2020-08-05T14:38:31Z</time><name>PT17484</name></trkpt>
<trkpt lat="53.343807" lon="-1.847465"><ele>514</ele><time>2020-08-05T14:38:33Z</time><name>PT17485</name></trkpt>
<trkpt lat="53.343808" lon="-1.847452"><ele>515</ele><time>2020-08-05T14:38:34Z</time><name>PT17486</name></trkpt>
<trkpt lat="53.343813" lon="-1.847438"><ele>515</ele><time>2020-08-05T14:38:34Z</time><name>PT17487</name></trkpt>
<trkpt lat="53.343818" lon="-1.847418"><ele>515</ele><time>2020-08-05T14:38:35Z</time><name>PT17488</name></trkpt>
<trkpt lat="53.343821" lon="-1.847404"><ele>515</ele><time>2020-08-05T14:38:37Z</time><name>PT17489</name></trkpt>
<trkpt lat="53.343829" lon="-1.847386"><ele>514</ele><time>2020-08-05T14:38:37Z</time><name>PT17490</name></trkpt>
<trkpt lat="53.343836" lon="-1.847375"><ele>514</ele><time>2020-08-05T14:38:38Z</time><name>PT17491</name></trkpt>
<trkpt lat="53.343844" lon="-1.847362"><ele>515</ele><time>2020-08-05T14:38:40Z</time><name>PT17492</name></trkpt>
<trkpt lat="53.343850" lon="-1.847350"><ele>514</ele><time>2020-08-05T14:38:40Z</time><name>PT17493</name></trkpt>
<trkpt lat="53.343856" lon="-1.847335"><ele>514</ele><time>2020-08-05T14:38:41Z</time><name>PT17494</name></trkpt>
<trkpt lat="53.343861" lon="-1.847317"><ele>514</ele><time>2020-08-05T14:38:43Z</time><name>PT17495</name></trkpt>
<trkpt lat="53.343870" lon="-1.847298"><ele>514</ele><time>2020-08-05T14:38:43Z</time><name>PT17496</name></trkpt>
<trkpt lat="53.343877" lon="-1.847281"><ele>514</ele><time>2020-08-05T14:38:44Z</time><name>PT17497</name></trkpt>
<trkpt lat="53.343882" lon="-1.847270"><ele>514</ele><time>2020-08-05T14:38:46Z</time><name>PT17498</name></trkpt>
<trkpt lat="53.343887" lon="-1.847255"><ele>514</ele><time>2020-08-05T14:38:46Z</time><name>PT17499</name></trkpt>
<trkpt lat="53.343896" lon="-1.847244"><ele>514</ele><time>2020-08-05T14:38:47Z</time><name>PT17500</name></trkpt>
<trkpt lat="53.343906" lon="-1.847229"><ele>514</ele><time>2020-08-05T14:38:49Z</time><name>PT17501</name></trkpt>
<trkpt lat="53.343916" lon="-1.847210"><ele>514</ele><time>2020-08-05T14:38:49Z</time><name>PT17502</name></trkpt>
<trkpt lat="53.343926" lon="-1.847190"><ele>514</ele><time>2020-08-05T14:38:50Z</time><name>PT17503</name></trkpt>
<trkpt lat="53.343933" lon="-1.847175"><ele>514</ele><time>2020-08-05T14:38:52Z</time><name>PT17504</name></trkpt>
<trkpt lat="53.343938" lon="-1.847161"><ele>515</ele><time>2020-08-05T14:38:52Z</time><name>PT17505</name></trkpt>
<trkpt lat="53.343942" lon="-1.847144"><ele>515</ele><time>2020-08-05T14:38:54Z</time><name>PT17506</name></trkpt>
<trkpt lat="53.343946" lon="-1.847126"><ele>515</ele><time>2020-08-05T14:38:55Z</time><name>PT17507</name></trkpt>
<trkpt lat="53.343950" lon="-1.847107"><ele>515</ele><time>2020-08-05T14:38:55Z</time><name>PT17508</name></trkpt>
<trkpt lat="53.343953" lon="-1.847086"><ele>515</ele><time>2020-08-05T14:38:57Z</time><name>PT17509</name></trkpt>
<trkpt lat="53.343957" lon="-1.847067"><ele>515</ele><time>2020-08-05T14:38:58Z</time><name>PT17510</name></trkpt>
<trkpt lat="53.343964" lon="-1.847050"><ele>515</ele><time>2020-08-05T14:38:58Z</time><name>PT17511</name></trkpt>
<trkpt lat="53.343969" lon="-1.847037"><ele>515</ele><time>2020-08-05T14:38:59Z</time><name>PT17512</name></trkpt>
<trkpt lat="53.343974" lon="-1.847020"><ele>514</ele><time>2020-08-05T14:39:01Z</time><name>PT17513</name></trkpt>
<trkpt lat="53.343980" lon="-1.847004"><ele>514</ele><time>2020-08-05T14:39:01Z</time><name>PT17514</name></trkpt>
<trkpt lat="53.343986" lon="-1.846985"><ele>515</ele><time>2020-08-05T14:39:03Z</time><name>PT17515</name></trkpt>
<trkpt lat="53.343992" lon="-1.846962"><ele>515</ele><time>2020-08-05T14:39:04Z</time><name>PT17516</name></trkpt>
<trkpt lat="53.343996" lon="-1.846946"><ele>515</ele><time>2020-08-05T14:39:04Z</time><name>PT17517</name></trkpt>
<trkpt lat="53.344001" lon="-1.846935"><ele>515</ele><time>2020-08-05T14:39:05Z</time><name>PT17518</name></trkpt>
<trkpt lat="53.344010" lon="-1.846922"><ele>516</ele><time>2020-08-05T14:39:07Z</time><name>PT17519</name></trkpt>
<trkpt lat="53.344017" lon="-1.846905"><ele>516</ele><time>2020-08-05T14:39:07Z</time><name>PT17520</name></trkpt>
<trkpt lat="53.344023" lon="-1.846887"><ele>516</ele><time>2020-08-05T14:39:09Z</time><name>PT17521</name></trkpt>
<trkpt lat="53.344030" lon="-1.846867"><ele>516</ele><time>2020-08-05T14:39:10Z</time><name>PT17522</name></trkpt>
<trkpt lat="53.344033" lon="-1.846852"><ele>516</ele><time>2020-08-05T14:39:10Z</time><name>PT17523</name></trkpt>
<trkpt lat="53.344036" lon="-1.846838"><ele>517</ele><time>2020-08-05T14:39:12Z</time><name>PT17524</name></trkpt>
<trkpt lat="53.344039" lon="-1.846821"><ele>517</ele><time>2020-08-05T14:39:13Z</time><name>PT17525</name></trkpt>
<trkpt lat="53.344043" lon="-1.846804"><ele>517</ele><time>2020-08-05T14:39:13Z</time><name>PT17526</name></trkpt>
<trkpt lat="53.344045" lon="-1.846786"><ele>518</ele><time>2020-08-05T14:39:15Z</time><name>PT17527</name></trkpt>
<trkpt lat="53.344048" lon="-1.846763"><ele>519</ele><time>2020-08-05T14:39:16Z</time><name>PT17528</name></trkpt>
<trkpt lat="53.344053" lon="-1.846744"><ele>519</ele><time>2020-08-05T14:39:16Z</time><name>PT17529</name></trkpt>
<trkpt lat="53.344058" lon="-1.846731"><ele>518</ele><time>2020-08-05T14:39:18Z</time><name>PT17530</name></trkpt>
<trkpt lat="53.344062" lon="-1.846719"><ele>518</ele><time>2020-08-05T14:39:19Z</time><name>PT17531</name></trkpt>
<trkpt lat="53.344070" lon="-1.846706"><ele>517</ele><time>2020-08-05T14:39:19Z</time><name>PT17532</name></trkpt>
<trkpt lat="53.344077" lon="-1.846693"><ele>517</ele><time>2020-08-05T14:39:20Z</time><name>PT17533</name></trkpt>
<trkpt lat="53.344085" lon="-1.846678"><ele>516</ele><time>2020-08-05T14:39:22Z</time><name>PT17534</name></trkpt>
<trkpt lat="53.344092" lon="-1.846661"><ele>516</ele><time>2020-08-05T14:39:22Z</time><name>PT17535</name></trkpt>
<trkpt lat="53.344097" lon="-1.846646"><ele>516</ele><time>2020-08-05T14:39:24Z</time><name>PT17536</name></trkpt>
<trkpt lat="53.344101" lon="-1.846633"><ele>516</ele><time>2020-08-05T14:39:25Z</time><name>PT17537</name></trkpt>
<trkpt lat="53.344106" lon="-1.846613"><ele>516</ele><time>2020-08-05T14:39:25Z</time><name>PT17538</name></trkpt>
<trkpt lat="53.344111" lon="-1.846593"><ele>516</ele><time>2020-08-05T14:39:26Z</time><name>PT17539</name></trkpt>
<trkpt lat="53.344117" lon="-1.846574"><ele>516</ele><time>2020-08-05T14:39:28Z</time><name>PT17540</name></trkpt>
<trkpt lat="53.344124" lon="-1.846554"><ele>516</ele><time>2020-08-05T14:39:28Z</time><name>PT17541</name></trkpt>
<trkpt lat="53.344128" lon="-1.846533"><ele>516</ele><time>2020-08-05T14:39:29Z</time><name>PT17542</name></trkpt>
<trkpt lat="53.344130" lon="-1.846516"><ele>516</ele><time>2020-08-05T14:39:31Z</time><name>PT17543</name></trkpt>
<trkpt lat="53.344132" lon="-1.846500"><ele>517</ele><time>2020-08-05T14:39:31Z</time><name>PT17544</name></trkpt>
<trkpt lat="53.344132" lon="-1.846484"><ele>517</ele><time>2020-08-05T14:39:33Z</time><name>PT17545</name></trkpt>
<trkpt lat="53.344135" lon="-1.846464"><ele>517</ele><time>2020-08-05T14:39:34Z</time><name>PT17546</name></trkpt>
<trkpt lat="53.344139" lon="-1.846445"><ele>517</ele><time>2020-08-05T14:39:34Z</time><name>PT17547</name></trkpt>
<trkpt lat="53.344142" lon="-1.846429"><ele>517</ele><time>2020-08-05T14:39:35Z</time><name>PT17548</name></trkpt>
<trkpt lat="53.344145" lon="-1.846412"><ele>517</ele><time>2020-08-05T14:39:37Z</time><name>PT17549</name></trkpt>
<trkpt lat="53.344147" lon="-1.846394"><ele>518</ele><time>2020-08-05T14:39:37Z</time><name>PT17550</name></trkpt>
<trkpt lat="53.344151" lon="-1.846380"><ele>518</ele><time>2020-08-05T14:39:38Z</time><name>PT17551</name></trkpt>
<trkpt lat="53.344155" lon="-1.846366"><ele>518</ele><time>2020-08-05T14:39:40Z</time><name>PT17552</name></trkpt>
<trkpt lat="53.344159" lon="-1.846347"><ele>518</ele><time>2020-08-05T14:39:40Z</time><name>PT17553</name></trkpt>
<trkpt lat="53.344165" lon="-1.846326"><ele>519</ele><time>2020-08-05T14:39:41Z</time><name>PT17554</name></trkpt>
<trkpt lat="53.344172" lon="-1.846309"><ele>518</ele><time>2020-08-05T14:39:43Z</time><name>PT17555</name></trkpt>
<trkpt lat="53.344177" lon="-1.846291"><ele>518</ele><time>2020-08-05T14:39:43Z</time><name>PT17556</name></trkpt>
<trkpt lat="53.344179" lon="-1.846275"><ele>519</ele><time>2020-08-05T14:39:44Z</time><name>PT17557</name></trkpt>
<trkpt lat="53.344182" lon="-1.846255"><ele>518</ele><time>2020-08-05T14:39:46Z</time><name>PT17558</name></trkpt>
<trkpt lat="53.344186" lon="-1.846234"><ele>519</ele><time>2020-08-05T14:39:46Z</time><name>PT17559</name></trkpt>
<trkpt lat="53.344188" lon="-1.846213"><ele>519</ele><time>2020-08-05T14:39:47Z</time><name>PT17560</name></trkpt>
<trkpt lat="53.344191" lon="-1.846196"><ele>519</ele><time>2020-08-05T14:39:49Z</time><name>PT17561</name></trkpt>
<trkpt lat="53.344196" lon="-1.846181"><ele>519</ele><time>2020-08-05T14:39:49Z</time><name>PT17562</name></trkpt>
<trkpt lat="53.344201" lon="-1.846165"><ele>520</ele><time>2020-08-05T14:39:50Z</time><name>PT17563</name></trkpt>
<trkpt lat="53.344206" lon="-1.846152"><ele>519</ele><time>2020-08-05T14:39:52Z</time><name>PT17564</name></trkpt>
<trkpt lat="53.344213" lon="-1.846135"><ele>519</ele><time>2020-08-05T14:39:52Z</time><name>PT17565</name></trkpt>
<trkpt lat="53.344220" lon="-1.846118"><ele>519</ele><time>2020-08-05T14:39:54Z</time><name>PT17566</name></trkpt>
<trkpt lat="53.344226" lon="-1.846100"><ele>519</ele><time>2020-08-05T14:39:55Z</time><name>PT17567</name></trkpt>
<trkpt lat="53.344232" lon="-1.846081"><ele>519</ele><time>2020-08-05T14:39:55Z</time><name>PT17568</name></trkpt>
<trkpt lat="53.344236" lon="-1.846063"><ele>519</ele><time>2020-08-05T14:39:56Z</time><name>PT17569</name></trkpt>
<trkpt lat="53.344238" lon="-1.846043"><ele>519</ele><time>2020-08-05T14:39:58Z</time><name>PT17570</name></trkpt>
<trkpt lat="53.344244" lon="-1.846023"><ele>519</ele><time>2020-08-05T14:39:58Z</time><name>PT17571</name></trkpt>
<trkpt lat="53.344250" lon="-1.846004"><ele>519</ele><time>2020-08-05T14:40:00Z</time><name>PT17572</name></trkpt>
<trkpt lat="53.344256" lon="-1.845985"><ele>519</ele><time>2020-08-05T14:40:01Z</time><name>PT17573</name></trkpt>
<trkpt lat="53.344262" lon="-1.845966"><ele>520</ele><time>2020-08-05T14:40:01Z</time><name>PT17574</name></trkpt>
<trkpt lat="53.344265" lon="-1.845951"><ele>520</ele><time>2020-08-05T14:40:02Z</time><name>PT17575</name></trkpt>
<trkpt lat="53.344267" lon="-1.845935"><ele>520</ele><time>2020-08-05T14:40:04Z</time><name>PT17576</name></trkpt>
<trkpt lat="53.344272" lon="-1.845918"><ele>520</ele><time>2020-08-05T14:40:04Z</time><name>PT17577</name></trkpt>
<trkpt lat="53.344276" lon="-1.845895"><ele>521</ele><time>2020-08-05T14:40:05Z</time><name>PT17578</name></trkpt>
<trkpt lat="53.344282" lon="-1.845872"><ele>521</ele><time>2020-08-05T14:40:07Z</time><name>PT17579</name></trkpt>
<trkpt lat="53.344287" lon="-1.845859"><ele>521</ele><time>2020-08-05T14:40:07Z</time><name>PT17580</name></trkpt>
<trkpt lat="53.344290" lon="-1.845846"><ele>521</ele><time>2020-08-05T14:40:09Z</time><name>PT17581</name></trkpt>
<trkpt lat="53.344297" lon="-1.845831"><ele>521</ele><time>2020-08-05T14:40:10Z</time><name>PT17582</name></trkpt>
<trkpt lat="53.344301" lon="-1.845811"><ele>522</ele><time>2020-08-05T14:40:10Z</time><name>PT17583</name></trkpt>
<trkpt lat="53.344305" lon="-1.845788"><ele>522</ele><time>2020-08-05T14:40:11Z</time><name>PT17584</name></trkpt>
<trkpt lat="53.344311" lon="-1.845772"><ele>521</ele><time>2020-08-05T14:40:13Z</time><name>PT17585</name></trkpt>
<trkpt lat="53.344316" lon="-1.845760"><ele>521</ele><time>2020-08-05T14:40:13Z</time><name>PT17586</name></trkpt>
<trkpt lat="53.344321" lon="-1.845745"><ele>521</ele><time>2020-08-05T14:40:14Z</time><name>PT17587</name></trkpt>
<trkpt lat="53.344327" lon="-1.845733"><ele>522</ele><time>2020-08-05T14:40:16Z</time><name>PT17588</name></trkpt>
<trkpt lat="53.344334" lon="-1.845716"><ele>522</ele><time>2020-08-05T14:40:16Z</time><name>PT17589</name></trkpt>
<trkpt lat="53.344341" lon="-1.845700"><ele>521</ele><time>2020-08-05T14:40:17Z</time><name>PT17590</name></trkpt>
<trkpt lat="53.344348" lon="-1.845679"><ele>521</ele><time>2020-08-05T14:40:19Z</time><name>PT17591</name></trkpt>
<trkpt lat="53.344351" lon="-1.845662"><ele>521</ele><time>2020-08-05T14:40:19Z</time><name>PT17592</name></trkpt>
<trkpt lat="53.344355" lon="-1.845645"><ele>521</ele><time>2020-08-05T14:40:21Z</time><name>PT17593</name></trkpt>
<trkpt lat="53.344361" lon="-1.845627"><ele>521</ele><time>2020-08-05T14:40:22Z</time><name>PT17594</name></trkpt>
<trkpt lat="53.344369" lon="-1.845610"><ele>522</ele><time>2020-08-05T14:40:22Z</time><name>PT17595</name></trkpt>
<trkpt lat="53.344379" lon="-1.845594"><ele>522</ele><time>2020-08-05T14:40:23Z</time><name>PT17596</name></trkpt>
<trkpt lat="53.344388" lon="-1.845579"><ele>522</ele><time>2020-08-05T14:40:25Z</time><name>PT17597</name></trkpt>
<trkpt lat="53.344394" lon="-1.845565"><ele>522</ele><time>2020-08-05T14:40:25Z</time><name>PT17598</name></trkpt>
<trkpt lat="53.344400" lon="-1.845551"><ele>522</ele><time>2020-08-05T14:40:26Z</time><name>PT17599</name></trkpt>
<trkpt lat="53.344409" lon="-1.845534"><ele>523</ele><time>2020-08-05T14:40:28Z</time><name>PT17600</name></trkpt>
<trkpt lat="53.344416" lon="-1.845515"><ele>523</ele><time>2020-08-05T14:40:28Z</time><name>PT17601</name></trkpt>
<trkpt lat="53.344424" lon="-1.845498"><ele>523</ele><time>2020-08-05T14:40:29Z</time><name>PT17602</name></trkpt>
<trkpt lat="53.344432" lon="-1.845476"><ele>523</ele><time>2020-08-05T14:40:31Z</time><name>PT17603</name></trkpt>
<trkpt lat="53.344438" lon="-1.845461"><ele>523</ele><time>2020-08-05T14:40:31Z</time><name>PT17604</name></trkpt>
<trkpt lat="53.344442" lon="-1.845443"><ele>523</ele><time>2020-08-05T14:40:32Z</time><name>PT17605</name></trkpt>
<trkpt lat="53.344450" lon="-1.845425"><ele>523</ele><time>2020-08-05T14:40:34Z</time><name>PT17606</name></trkpt>
<trkpt lat="53.344457" lon="-1.845409"><ele>523</ele><time>2020-08-05T14:40:34Z</time><name>PT17607</name></trkpt>
<trkpt lat="53.344465" lon="-1.845393"><ele>522</ele><time>2020-08-05T14:40:35Z</time><name>PT17608</name></trkpt>
<trkpt lat="53.344472" lon="-1.845377"><ele>521</ele><time>2020-08-05T14:40:37Z</time><name>PT17609</name></trkpt>
<trkpt lat="53.344477" lon="-1.845362"><ele>522</ele><time>2020-08-05T14:40:37Z</time><name>PT17610</name></trkpt>
<trkpt lat="53.344482" lon="-1.845348"><ele>522</ele><time>2020-08-05T14:40:38Z</time><name>PT17611</name></trkpt>
<trkpt lat="53.344488" lon="-1.845331"><ele>522</ele><time>2020-08-05T14:40:40Z</time><name>PT17612</name></trkpt>
<trkpt lat="53.344494" lon="-1.845312"><ele>523</ele><time>2020-08-05T14:40:40Z</time><name>PT17613</name></trkpt>
<trkpt lat="53.344502" lon="-1.845292"><ele>524</ele><time>2020-08-05T14:40:41Z</time><name>PT17614</name></trkpt>
<trkpt lat="53.344509" lon="-1.845274"><ele>524</ele><time>2020-08-05T14:40:43Z</time><name>PT17615</name></trkpt>
<trkpt lat="53.344513" lon="-1.845261"><ele>524</ele><time>2020-08-05T14:40:43Z</time><name>PT17616</name></trkpt>
<trkpt lat="53.344517" lon="-1.845243"><ele>524</ele><time>2020-08-05T14:40:44Z</time><name>PT17617</name></trkpt>
<trkpt lat="53.344523" lon="-1.845224"><ele>524</ele><time>2020-08-05T14:40:46Z</time><name>PT17618</name></trkpt>
<trkpt lat="53.344531" lon="-1.845205"><ele>525</ele><time>2020-08-05T14:40:46Z</time><name>PT17619</name></trkpt>
<trkpt lat="53.344541" lon="-1.845187"><ele>525</ele><time>2020-08-05T14:40:47Z</time><name>PT17620</name></trkpt>
<trkpt lat="53.344547" lon="-1.845171"><ele>525</ele><time>2020-08-05T14:40:49Z</time><name>PT17621</name></trkpt>
<trkpt lat="53.344553" lon="-1.845156"><ele>525</ele><time>2020-08-05T14:40:49Z</time><name>PT17622</name></trkpt>
<trkpt lat="53.344558" lon="-1.845135"><ele>525</ele><time>2020-08-05T14:40:51Z</time><name>PT17623</name></trkpt>
<trkpt lat="53.344565" lon="-1.845119"><ele>525</ele><time>2020-08-05T14:40:52Z</time><name>PT17624</name></trkpt>
<trkpt lat="53.344575" lon="-1.845101"><ele>525</ele><time>2020-08-05T14:40:52Z</time><name>PT17625</name></trkpt>
<trkpt lat="53.344583" lon="-1.845083"><ele>525</ele><time>2020-08-05T14:40:54Z</time><name>PT17626</name></trkpt>
<trkpt lat="53.344590" lon="-1.845065"><ele>525</ele><time>2020-08-05T14:40:55Z</time><name>PT17627</name></trkpt>
<trkpt lat="53.344594" lon="-1.845050"><ele>525</ele><time>2020-08-05T14:40:55Z</time><name>PT17628</name></trkpt>
<trkpt lat="53.344598" lon="-1.845036"><ele>525</ele><time>2020-08-05T14:40:56Z</time><name>PT17629</name></trkpt>
<trkpt lat="53.344604" lon="-1.845021"><ele>525</ele><time>2020-08-05T14:40:58Z</time><name>PT17630</name></trkpt>
<trkpt lat="53.344612" lon="-1.845007"><ele>525</ele><time>2020-08-05T14:40:58Z</time><name>PT17631</name></trkpt>
<trkpt lat="53.344619" lon="-1.844987"><ele>525</ele><time>2020-08-05T14:41:00Z</time><name>PT17632</name></trkpt>
<trkpt lat="53.344626" lon="-1.844967"><ele>526</ele><time>2020-08-05T14:41:01Z</time><name>PT17633</name></trkpt>
<trkpt lat="53.344633" lon="-1.844952"><ele>526</ele><time>2020-08-05T14:41:01Z</time><name>PT17634</name></trkpt>
<trkpt lat="53.344637" lon="-1.844940"><ele>526</ele><time>2020-08-05T14:41:03Z</time><name>PT17635</name></trkpt>
<trkpt lat="53.344642" lon="-1.844927"><ele>526</ele><time>2020-08-05T14:41:04Z</time><name>PT17636</name></trkpt>
<trkpt lat="53.344647" lon="-1.844906"><ele>525</ele><time>2020-08-05T14:41:04Z</time><name>PT17637</name></trkpt>
<trkpt lat="53.344652" lon="-1.844888"><ele>525</ele><time>2020-08-05T14:41:05Z</time><name>PT17638</name></trkpt>
<trkpt lat="53.344660" lon="-1.844872"><ele>525</ele><time>2020-08-05T14:41:07Z</time><name>PT17639</name></trkpt>
<trkpt lat="53.344666" lon="-1.844854"><ele>525</ele><time>2020-08-05T14:41:07Z</time><name>PT17640</name></trkpt>
<trkpt lat="53.344673" lon="-1.844836"><ele>526</ele><time>2020-08-05T14:41:09Z</time><name>PT17641</name></trkpt>
<trkpt lat="53.344676" lon="-1.844821"><ele>526</ele><time>2020-08-05T14:41:10Z</time><name>PT17642</name></trkpt>
<trkpt lat="53.344679" lon="-1.844808"><ele>526</ele><time>2020-08-05T14:41:10Z</time><name>PT17643</name></trkpt>
<trkpt lat="53.344684" lon="-1.844790"><ele>526</ele><time>2020-08-05T14:41:12Z</time><name>PT17644</name></trkpt>
<trkpt lat="53.344690" lon="-1.844772"><ele>526</ele><time>2020-08-05T14:41:13Z</time><name>PT17645</name></trkpt>
<trkpt lat="53.344697" lon="-1.844750"><ele>526</ele><time>2020-08-05T14:41:13Z</time><name>PT17646</name></trkpt>
<trkpt lat="53.344704" lon="-1.844729"><ele>526</ele><time>2020-08-05T14:41:14Z</time><name>PT17647</name></trkpt>
<trkpt lat="53.344710" lon="-1.844713"><ele>526</ele><time>2020-08-05T14:41:16Z</time><name>PT17648</name></trkpt>
<trkpt lat="53.344714" lon="-1.844697"><ele>526</ele><time>2020-08-05T14:41:16Z</time><name>PT17649</name></trkpt>
<trkpt lat="53.344718" lon="-1.844678"><ele>527</ele><time>2020-08-05T14:41:17Z</time><name>PT17650</name></trkpt>
<trkpt lat="53.344724" lon="-1.844657"><ele>527</ele><time>2020-08-05T14:41:19Z</time><name>PT17651</name></trkpt>
<trkpt lat="53.344730" lon="-1.844637"><ele>527</ele><time>2020-08-05T14:41:19Z</time><name>PT17652</name></trkpt>
<trkpt lat="53.344737" lon="-1.844615"><ele>528</ele><time>2020-08-05T14:41:20Z</time><name>PT17653</name></trkpt>
<trkpt lat="53.344744" lon="-1.844600"><ele>528</ele><time>2020-08-05T14:41:22Z</time><name>PT17654</name></trkpt>
<trkpt lat="53.344750" lon="-1.844586"><ele>527</ele><time>2020-08-05T14:41:22Z</time><name>PT17655</name></trkpt>
<trkpt lat="53.344756" lon="-1.844571"><ele>527</ele><time>2020-08-05T14:41:23Z</time><name>PT17656</name></trkpt>
<trkpt lat="53.344762" lon="-1.844555"><ele>526</ele><time>2020-08-05T14:41:25Z</time><name>PT17657</name></trkpt>
<trkpt lat="53.344770" lon="-1.844538"><ele>526</ele><time>2020-08-05T14:41:25Z</time><name>PT17658</name></trkpt>
<trkpt lat="53.344777" lon="-1.844517"><ele>526</ele><time>2020-08-05T14:41:26Z</time><name>PT17659</name></trkpt>
<trkpt lat="53.344784" lon="-1.844497"><ele>526</ele><time>2020-08-05T14:41:28Z</time><name>PT17660</name></trkpt>
<trkpt lat="53.344792" lon="-1.844476"><ele>526</ele><time>2020-08-05T14:41:28Z</time><name>PT17661</name></trkpt>
<trkpt lat="53.344801" lon="-1.844457"><ele>527</ele><time>2020-08-05T14:41:29Z</time><name>PT17662</name></trkpt>
<trkpt lat="53.344808" lon="-1.844444"><ele>527</ele><time>2020-08-05T14:41:31Z</time><name>PT17663</name></trkpt>
<trkpt lat="53.344812" lon="-1.844429"><ele>527</ele><time>2020-08-05T14:41:31Z</time><name>PT17664</name></trkpt>
<trkpt lat="53.344817" lon="-1.844412"><ele>526</ele><time>2020-08-05T14:41:33Z</time><name>PT17665</name></trkpt>
<trkpt lat="53.344823" lon="-1.844392"><ele>526</ele><time>2020-08-05T14:41:34Z</time><name>PT17666</name></trkpt>
<trkpt lat="53.344830" lon="-1.844376"><ele>526</ele><time>2020-08-05T14:41:34Z</time><name>PT17667</name></trkpt>
<trkpt lat="53.344837" lon="-1.844358"><ele>526</ele><time>2020-08-05T14:41:36Z</time><name>PT17668</name></trkpt>
<trkpt lat="53.344844" lon="-1.844333"><ele>526</ele><time>2020-08-05T14:41:37Z</time><name>PT17669</name></trkpt>
<trkpt lat="53.344849" lon="-1.844316"><ele>527</ele><time>2020-08-05T14:41:37Z</time><name>PT17670</name></trkpt>
<trkpt lat="53.344853" lon="-1.844302"><ele>527</ele><time>2020-08-05T14:41:38Z</time><name>PT17671</name></trkpt>
<trkpt lat="53.344856" lon="-1.844285"><ele>527</ele><time>2020-08-05T14:41:40Z</time><name>PT17672</name></trkpt>
<trkpt lat="53.344861" lon="-1.844265"><ele>526</ele><time>2020-08-05T14:41:40Z</time><name>PT17673</name></trkpt>
<trkpt lat="53.344868" lon="-1.844247"><ele>526</ele><time>2020-08-05T14:41:41Z</time><name>PT17674</name></trkpt>
<trkpt lat="53.344875" lon="-1.844229"><ele>526</ele><time>2020-08-05T14:41:43Z</time><name>PT17675</name></trkpt>
<trkpt lat="53.344883" lon="-1.844206"><ele>526</ele><time>2020-08-05T14:41:43Z</time><name>PT17676</name></trkpt>
<trkpt lat="53.344890" lon="-1.844185"><ele>526</ele><time>2020-08-05T14:41:44Z</time><name>PT17677</name></trkpt>
<trkpt lat="53.344894" lon="-1.844170"><ele>526</ele><time>2020-08-05T14:41:46Z</time><name>PT17678</name></trkpt>
<trkpt lat="53.344898" lon="-1.844154"><ele>526</ele><time>2020-08-05T14:41:46Z</time><name>PT17679</name></trkpt>
<trkpt lat="53.344904" lon="-1.844135"><ele>526</ele><time>2020-08-05T14:41:47Z</time><name>PT17680</name></trkpt>
<trkpt lat="53.344911" lon="-1.844117"><ele>526</ele><time>2020-08-05T14:41:49Z</time><name>PT17681</name></trkpt>
<trkpt lat="53.344919" lon="-1.844100"><ele>526</ele><time>2020-08-05T14:41:49Z</time><name>PT17682</name></trkpt>
<trkpt lat="53.344926" lon="-1.844085"><ele>527</ele><time>2020-08-05T14:41:50Z</time><name>PT17683</name></trkpt>
<trkpt lat="53.344931" lon="-1.844073"><ele>527</ele><time>2020-08-05T14:41:52Z</time><name>PT17684</name></trkpt>
<trkpt lat="53.344935" lon="-1.844057"><ele>527</ele><time>2020-08-05T14:41:52Z</time><name>PT17685</name></trkpt>
<trkpt lat="53.344940" lon="-1.844040"><ele>527</ele><time>2020-08-05T14:41:53Z</time><name>PT17686</name></trkpt>
<trkpt lat="53.344948" lon="-1.844022"><ele>527</ele><time>2020-08-05T14:41:55Z</time><name>PT17687</name></trkpt>
<trkpt lat="53.344955" lon="-1.844005"><ele>527</ele><time>2020-08-05T14:41:55Z</time><name>PT17688</name></trkpt>
<trkpt lat="53.344963" lon="-1.843990"><ele>527</ele><time>2020-08-05T14:41:56Z</time><name>PT17689</name></trkpt>
<trkpt lat="53.344971" lon="-1.843972"><ele>527</ele><time>2020-08-05T14:41:58Z</time><name>PT17690</name></trkpt>
<trkpt lat="53.344975" lon="-1.843953"><ele>527</ele><time>2020-08-05T14:41:58Z</time><name>PT17691</name></trkpt>
<trkpt lat="53.344979" lon="-1.843938"><ele>527</ele><time>2020-08-05T14:41:59Z</time><name>PT17692</name></trkpt>
<trkpt lat="53.344983" lon="-1.843923"><ele>527</ele><time>2020-08-05T14:42:01Z</time><name>PT17693</name></trkpt>
<trkpt lat="53.344988" lon="-1.843904"><ele>527</ele><time>2020-08-05T14:42:01Z</time><name>PT17694</name></trkpt>
<trkpt lat="53.344996" lon="-1.843889"><ele>527</ele><time>2020-08-05T14:42:03Z</time><name>PT17695</name></trkpt>
<trkpt lat="53.345003" lon="-1.843870"><ele>527</ele><time>2020-08-05T14:42:04Z</time><name>PT17696</name></trkpt>
<trkpt lat="53.345008" lon="-1.843854"><ele>528</ele><time>2020-08-05T14:42:04Z</time><name>PT17697</name></trkpt>
<trkpt lat="53.345012" lon="-1.843840"><ele>528</ele><time>2020-08-05T14:42:05Z</time><name>PT17698</name></trkpt>
<trkpt lat="53.345013" lon="-1.843822"><ele>527</ele><time>2020-08-05T14:42:07Z</time><name>PT17699</name></trkpt>
<trkpt lat="53.345018" lon="-1.843803"><ele>527</ele><time>2020-08-05T14:42:07Z</time><name>PT17700</name></trkpt>
<trkpt lat="53.345025" lon="-1.843782"><ele>528</ele><time>2020-08-05T14:42:08Z</time><name>PT17701</name></trkpt>
<trkpt lat="53.345031" lon="-1.843759"><ele>528</ele><time>2020-08-05T14:42:10Z</time><name>PT17702</name></trkpt>
<trkpt lat="53.345036" lon="-1.843738"><ele>528</ele><time>2020-08-05T14:42:10Z</time><name>PT17703</name></trkpt>
<trkpt lat="53.345039" lon="-1.843721"><ele>528</ele><time>2020-08-05T14:42:11Z</time><name>PT17704</name></trkpt>
<trkpt lat="53.345041" lon="-1.843701"><ele>528</ele><time>2020-08-05T14:42:13Z</time><name>PT17705</name></trkpt>
<trkpt lat="53.345045" lon="-1.843677"><ele>528</ele><time>2020-08-05T14:42:13Z</time><name>PT17706</name></trkpt>
<trkpt lat="53.345049" lon="-1.843657"><ele>528</ele><time>2020-08-05T14:42:14Z</time><name>PT17707</name></trkpt>
<trkpt lat="53.345054" lon="-1.843635"><ele>528</ele><time>2020-08-05T14:42:16Z</time><name>PT17708</name></trkpt>
<trkpt lat="53.345062" lon="-1.843615"><ele>528</ele><time>2020-08-05T14:42:16Z</time><name>PT17709</name></trkpt>
<trkpt lat="53.345067" lon="-1.843600"><ele>528</ele><time>2020-08-05T14:42:17Z</time><name>PT17710</name></trkpt>
<trkpt lat="53.345072" lon="-1.843584"><ele>528</ele><time>2020-08-05T14:42:19Z</time><name>PT17711</name></trkpt>
<trkpt lat="53.345078" lon="-1.843565"><ele>528</ele><time>2020-08-05T14:42:19Z</time><name>PT17712</name></trkpt>
<trkpt lat="53.345084" lon="-1.843543"><ele>529</ele><time>2020-08-05T14:42:20Z</time><name>PT17713</name></trkpt>
<trkpt lat="53.345089" lon="-1.843521"><ele>528</ele><time>2020-08-05T14:42:22Z</time><name>PT17714</name></trkpt>
<trkpt lat="53.345097" lon="-1.843502"><ele>528</ele><time>2020-08-05T14:42:22Z</time><name>PT17715</name></trkpt>
<trkpt lat="53.345101" lon="-1.843486"><ele>529</ele><time>2020-08-05T14:42:24Z</time><name>PT17716</name></trkpt>
<trkpt lat="53.345102" lon="-1.843471"><ele>529</ele><time>2020-08-05T14:42:25Z</time><name>PT17717</name></trkpt>
<trkpt lat="53.345107" lon="-1.843456"><ele>529</ele><time>2020-08-05T14:42:25Z</time><name>PT17718</name></trkpt>
<trkpt lat="53.345114" lon="-1.843442"><ele>529</ele><time>2020-08-05T14:42:26Z</time><name>PT17719</name></trkpt>
<trkpt lat="53.345120" lon="-1.843424"><ele>529</ele><time>2020-08-05T14:42:28Z</time><name>PT17720</name></trkpt>
<trkpt lat="53.345125" lon="-1.843409"><ele>529</ele><time>2020-08-05T14:42:28Z</time><name>PT17721</name></trkpt>
<trkpt lat="53.345131" lon="-1.843393"><ele>529</ele><time>2020-08-05T14:42:30Z</time><name>PT17722</name></trkpt>
<trkpt lat="53.345139" lon="-1.843379"><ele>529</ele><time>2020-08-05T14:42:31Z</time><name>PT17723</name></trkpt>
<trkpt lat="53.345144" lon="-1.843366"><ele>529</ele><time>2020-08-05T14:42:31Z</time><name>PT17724</name></trkpt>
<trkpt lat="53.345151" lon="-1.843352"><ele>529</ele><time>2020-08-05T14:42:32Z</time><name>PT17725</name></trkpt>
<trkpt lat="53.345160" lon="-1.843338"><ele>529</ele><time>2020-08-05T14:42:34Z</time><name>PT17726</name></trkpt>
<trkpt lat="53.345168" lon="-1.843322"><ele>529</ele><time>2020-08-05T14:42:34Z</time><name>PT17727</name></trkpt>
<trkpt lat="53.345177" lon="-1.843301"><ele>529</ele><time>2020-08-05T14:42:35Z</time><name>PT17728</name></trkpt>
<trkpt lat="53.345186" lon="-1.843280"><ele>529</ele><time>2020-08-05T14:42:37Z</time><name>PT17729</name></trkpt>
<trkpt lat="53.345190" lon="-1.843262"><ele>529</ele><time>2020-08-05T14:42:37Z</time><name>PT17730</name></trkpt>
<trkpt lat="53.345194" lon="-1.843246"><ele>529</ele><time>2020-08-05T14:42:38Z</time><name>PT17731</name></trkpt>
<trkpt lat="53.345199" lon="-1.843225"><ele>530</ele><time>2020-08-05T14:42:40Z</time><name>PT17732</name></trkpt>
<trkpt lat="53.345206" lon="-1.843207"><ele>530</ele><time>2020-08-05T14:42:40Z</time><name>PT17733</name></trkpt>
<trkpt lat="53.345215" lon="-1.843182"><ele>530</ele><time>2020-08-05T14:42:41Z</time><name>PT17734</name></trkpt>
<trkpt lat="53.345221" lon="-1.843157"><ele>530</ele><time>2020-08-05T14:42:43Z</time><name>PT17735</name></trkpt>
<trkpt lat="53.345226" lon="-1.843139"><ele>530</ele><time>2020-08-05T14:42:43Z</time><name>PT17736</name></trkpt>
<trkpt lat="53.345230" lon="-1.843127"><ele>530</ele><time>2020-08-05T14:42:44Z</time><name>PT17737</name></trkpt>
<trkpt lat="53.345233" lon="-1.843106"><ele>531</ele><time>2020-08-05T14:42:46Z</time><name>PT17738</name></trkpt>
<trkpt lat="53.345237" lon="-1.843087"><ele>530</ele><time>2020-08-05T14:42:46Z</time><name>PT17739</name></trkpt>
<trkpt lat="53.345242" lon="-1.843071"><ele>531</ele><time>2020-08-05T14:42:47Z</time><name>PT17740</name></trkpt>
<trkpt lat="53.345246" lon="-1.843050"><ele>531</ele><time>2020-08-05T14:42:49Z</time><name>PT17741</name></trkpt>
<trkpt lat="53.345251" lon="-1.843028"><ele>531</ele><time>2020-08-05T14:42:49Z</time><name>PT17742</name></trkpt>
<trkpt lat="53.345256" lon="-1.843010"><ele>531</ele><time>2020-08-05T14:42:50Z</time><name>PT17743</name></trkpt>
<trkpt lat="53.345260" lon="-1.842996"><ele>531</ele><time>2020-08-05T14:42:52Z</time><name>PT17744</name></trkpt>
<trkpt lat="53.345264" lon="-1.842979"><ele>531</ele><time>2020-08-05T14:42:52Z</time><name>PT17745</name></trkpt>
<trkpt lat="53.345270" lon="-1.842963"><ele>532</ele><time>2020-08-05T14:42:53Z</time><name>PT17746</name></trkpt>
<trkpt lat="53.345277" lon="-1.842945"><ele>532</ele><time>2020-08-05T14:42:55Z</time><name>PT17747</name></trkpt>
<trkpt lat="53.345284" lon="-1.842925"><ele>532</ele><time>2020-08-05T14:42:55Z</time><name>PT17748</name></trkpt>
<trkpt lat="53.345289" lon="-1.842909"><ele>532</ele><time>2020-08-05T14:42:57Z</time><name>PT17749</name></trkpt>
<trkpt lat="53.345294" lon="-1.842898"><ele>532</ele><time>2020-08-05T14:42:58Z</time><name>PT17750</name></trkpt>
<trkpt lat="53.345297" lon="-1.842885"><ele>532</ele><time>2020-08-05T14:42:58Z</time><name>PT17751</name></trkpt>
<trkpt lat="53.345303" lon="-1.842870"><ele>533</ele><time>2020-08-05T14:42:59Z</time><name>PT17752</name></trkpt>
<trkpt lat="53.345307" lon="-1.842854"><ele>533</ele><time>2020-08-05T14:43:01Z</time><name>PT17753</name></trkpt>
<trkpt lat="53.345313" lon="-1.842836"><ele>533</ele><time>2020-08-05T14:43:01Z</time><name>PT17754</name></trkpt>
<trkpt lat="53.345318" lon="-1.842821"><ele>533</ele><time>2020-08-05T14:43:02Z</time><name>PT17755</name></trkpt>
<trkpt lat="53.345322" lon="-1.842807"><ele>533</ele><time>2020-08-05T14:43:04Z</time><name>PT17756</name></trkpt>
<trkpt lat="53.345326" lon="-1.842794"><ele>533</ele><time>2020-08-05T14:43:04Z</time><name>PT17757</name></trkpt>
<trkpt lat="53.345331" lon="-1.842776"><ele>532</ele><time>2020-08-05T14:43:06Z</time><name>PT17758</name></trkpt>
<trkpt lat="53.345337" lon="-1.842753"><ele>532</ele><time>2020-08-05T14:43:07Z</time><name>PT17759</name></trkpt>
<trkpt lat="53.345340" lon="-1.842734"><ele>532</ele><time>2020-08-05T14:43:07Z</time><name>PT17760</name></trkpt>
<trkpt lat="53.345345" lon="-1.842715"><ele>532</ele><time>2020-08-05T14:43:08Z</time><name>PT17761</name></trkpt>
<trkpt lat="53.345350" lon="-1.842698"><ele>533</ele><time>2020-08-05T14:43:10Z</time><name>PT17762</name></trkpt>
<trkpt lat="53.345356" lon="-1.842682"><ele>532</ele><time>2020-08-05T14:43:10Z</time><name>PT17763</name></trkpt>
<trkpt lat="53.345363" lon="-1.842665"><ele>533</ele><time>2020-08-05T14:43:11Z</time><name>PT17764</name></trkpt>
<trkpt lat="53.345371" lon="-1.842648"><ele>532</ele><time>2020-08-05T14:43:13Z</time><name>PT17765</name></trkpt>
<trkpt lat="53.345377" lon="-1.842627"><ele>533</ele><time>2020-08-05T14:43:13Z</time><name>PT17766</name></trkpt>
<trkpt lat="53.345384" lon="-1.842607"><ele>533</ele><time>2020-08-05T14:43:14Z</time><name>PT17767</name></trkpt>
<trkpt lat="53.345391" lon="-1.842591"><ele>533</ele><time>2020-08-05T14:43:16Z</time><name>PT17768</name></trkpt>
<trkpt lat="53.345396" lon="-1.842575"><ele>532</ele><time>2020-08-05T14:43:16Z</time><name>PT17769</name></trkpt>
<trkpt lat="53.345398" lon="-1.842556"><ele>532</ele><time>2020-08-05T14:43:18Z</time><name>PT17770</name></trkpt>
<trkpt lat="53.345403" lon="-1.842536"><ele>532</ele><time>2020-08-05T14:43:19Z</time><name>PT17771</name></trkpt>
<trkpt lat="53.345410" lon="-1.842521"><ele>532</ele><time>2020-08-05T14:43:19Z</time><name>PT17772</name></trkpt>
<trkpt lat="53.345416" lon="-1.842502"><ele>532</ele><time>2020-08-05T14:43:20Z</time><name>PT17773</name></trkpt>
<trkpt lat="53.345421" lon="-1.842487"><ele>532</ele><time>2020-08-05T14:43:22Z</time><name>PT17774</name></trkpt>
<trkpt lat="53.345424" lon="-1.842473"><ele>532</ele><time>2020-08-05T14:43:22Z</time><name>PT17775</name></trkpt>
<trkpt lat="53.345426" lon="-1.842458"><ele>532</ele><time>2020-08-05T14:43:23Z</time><name>PT17776</name></trkpt>
<trkpt lat="53.345431" lon="-1.842439"><ele>532</ele><time>2020-08-05T14:43:25Z</time><name>PT17777</name></trkpt>
<trkpt lat="53.345437" lon="-1.842418"><ele>532</ele><time>2020-08-05T14:43:25Z</time><name>PT17778</name></trkpt>
<trkpt lat="53.345444" lon="-1.842399"><ele>532</ele><time>2020-08-05T14:43:26Z</time><name>PT17779</name></trkpt>
<trkpt lat="53.345451" lon="-1.842382"><ele>532</ele><time>2020-08-05T14:43:28Z</time><name>PT17780</name></trkpt>
<trkpt lat="53.345455" lon="-1.842369"><ele>532</ele><time>2020-08-05T14:43:28Z</time><name>PT17781</name></trkpt>
<trkpt lat="53.345461" lon="-1.842354"><ele>532</ele><time>2020-08-05T14:43:29Z</time><name>PT17782</name></trkpt>
<trkpt lat="53.345469" lon="-1.842338"><ele>532</ele><time>2020-08-05T14:43:31Z</time><name>PT17783</name></trkpt>
<trkpt lat="53.345477" lon="-1.842321"><ele>532</ele><time>2020-08-05T14:43:31Z</time><name>PT17784</name></trkpt>
<trkpt lat="53.345485" lon="-1.842304"><ele>532</ele><time>2020-08-05T14:43:32Z</time><name>PT17785</name></trkpt>
<trkpt lat="53.345491" lon="-1.842292"><ele>533</ele><time>2020-08-05T14:43:34Z</time><name>PT17786</name></trkpt>
<trkpt lat="53.345495" lon="-1.842278"><ele>533</ele><time>2020-08-05T14:43:34Z</time><name>PT17787</name></trkpt>
<trkpt lat="53.345501" lon="-1.842259"><ele>532</ele><time>2020-08-05T14:43:35Z</time><name>PT17788</name></trkpt>
<trkpt lat="53.345505" lon="-1.842238"><ele>532</ele><time>2020-08-05T14:43:37Z</time><name>PT17789</name></trkpt>
<trkpt lat="53.345509" lon="-1.842216"><ele>532</ele><time>2020-08-05T14:43:37Z</time><name>PT17790</name></trkpt>
<trkpt lat="53.345513" lon="-1.842197"><ele>533</ele><time>2020-08-05T14:43:38Z</time><name>PT17791</name></trkpt>
<trkpt lat="53.345517" lon="-1.842177"><ele>532</ele><time>2020-08-05T14:43:40Z</time><name>PT17792</name></trkpt>
<trkpt lat="53.345518" lon="-1.842158"><ele>532</ele><time>2020-08-05T14:43:40Z</time><name>PT17793</name></trkpt>
<trkpt lat="53.345520" lon="-1.842140"><ele>532</ele><time>2020-08-05T14:43:41Z</time><name>PT17794</name></trkpt>
<trkpt lat="53.345526" lon="-1.842124"><ele>532</ele><time>2020-08-05T14:43:43Z</time><name>PT17795</name></trkpt>
<trkpt lat="53.345531" lon="-1.842105"><ele>531</ele><time>2020-08-05T14:43:43Z</time><name>PT17796</name></trkpt>
<trkpt lat="53.345535" lon="-1.842083"><ele>531</ele><time>2020-08-05T14:43:44Z</time><name>PT17797</name></trkpt>
<trkpt lat="53.345538" lon="-1.842066"><ele>530</ele><time>2020-08-05T14:43:46Z</time><name>PT17798</name></trkpt>
<trkpt lat="53.345540" lon="-1.842050"><ele>531</ele><time>2020-08-05T14:43:46Z</time><name>PT17799</name></trkpt>
<trkpt lat="53.345544" lon="-1.842039"><ele>531</ele><time>2020-08-05T14:43:47Z</time><name>PT17800</name></trkpt>
<trkpt lat="53.345549" lon="-1.842033"><ele>531</ele><time>2020-08-05T14:43:49Z</time><name>PT17801</name></trkpt>
<trkpt lat="53.345554" lon="-1.842022"><ele>531</ele><time>2020-08-05T14:43:49Z</time><name>PT17802</name></trkpt>
<trkpt lat="53.345556" lon="-1.842011"><ele>531</ele><time>2020-08-05T14:43:50Z</time><name>PT17803</name></trkpt>
<trkpt lat="53.345557" lon="-1.842005"><ele>531</ele><time>2020-08-05T14:43:52Z</time><name>PT17804</name></trkpt>
<trkpt lat="53.345553" lon="-1.841980"><ele>533</ele><time>2020-08-05T14:43:52Z</time><name>PT17805</name></trkpt>
<trkpt lat="53.345553" lon="-1.841982"><ele>533</ele><time>2020-08-05T14:43:53Z</time><name>PT17806</name></trkpt>
<trkpt lat="53.345552" lon="-1.841978"><ele>533</ele><time>2020-08-05T14:43:55Z</time><name>PT17807</name></trkpt>
<trkpt lat="53.345553" lon="-1.841968"><ele>533</ele><time>2020-08-05T14:43:58Z</time><name>PT17808</name></trkpt>
<trkpt lat="53.345554" lon="-1.841970"><ele>533</ele><time>2020-08-05T14:43:58Z</time><name>PT17809</name></trkpt>
<trkpt lat="53.345555" lon="-1.841968"><ele>534</ele><time>2020-08-05T14:43:59Z</time><name>PT17810</name></trkpt>
<trkpt lat="53.345558" lon="-1.841969"><ele>534</ele><time>2020-08-05T14:44:01Z</time><name>PT17811</name></trkpt>
<trkpt lat="53.345558" lon="-1.841975"><ele>534</ele><time>2020-08-05T14:44:01Z</time><name>PT17812</name></trkpt>
<trkpt lat="53.345560" lon="-1.841969"><ele>534</ele><time>2020-08-05T14:44:02Z</time><name>PT17813</name></trkpt>
<trkpt lat="53.345558" lon="-1.841965"><ele>533</ele><time>2020-08-05T14:44:04Z</time><name>PT17814</name></trkpt>
<trkpt lat="53.345560" lon="-1.841952"><ele>533</ele><time>2020-08-05T14:44:04Z</time><name>PT17815</name></trkpt>
<trkpt lat="53.345568" lon="-1.841932"><ele>532</ele><time>2020-08-05T14:44:05Z</time><name>PT17816</name></trkpt>
<trkpt lat="53.345573" lon="-1.841910"><ele>532</ele><time>2020-08-05T14:44:07Z</time><name>PT17817</name></trkpt>
<trkpt lat="53.345576" lon="-1.841892"><ele>533</ele><time>2020-08-05T14:44:07Z</time><name>PT17818</name></trkpt>
<trkpt lat="53.345580" lon="-1.841875"><ele>533</ele><time>2020-08-05T14:44:09Z</time><name>PT17819</name></trkpt>
<trkpt lat="53.345584" lon="-1.841858"><ele>533</ele><time>2020-08-05T14:44:10Z</time><name>PT17820</name></trkpt>
<trkpt lat="53.345594" lon="-1.841841"><ele>533</ele><time>2020-08-05T14:44:10Z</time><name>PT17821</name></trkpt>
<trkpt lat="53.345604" lon="-1.841822"><ele>533</ele><time>2020-08-05T14:44:11Z</time><name>PT17822</name></trkpt>
<trkpt lat="53.345614" lon="-1.841809"><ele>533</ele><time>2020-08-05T14:44:13Z</time><name>PT17823</name></trkpt>
<trkpt lat="53.345624" lon="-1.841792"><ele>533</ele><time>2020-08-05T14:44:13Z</time><name>PT17824</name></trkpt>
<trkpt lat="53.345631" lon="-1.841772"><ele>533</ele><time>2020-08-05T14:44:14Z</time><name>PT17825</name></trkpt>
<trkpt lat="53.345640" lon="-1.841751"><ele>533</ele><time>2020-08-05T14:44:16Z</time><name>PT17826</name></trkpt>
<trkpt lat="53.345647" lon="-1.841732"><ele>534</ele><time>2020-08-05T14:44:16Z</time><name>PT17827</name></trkpt>
<trkpt lat="53.345654" lon="-1.841715"><ele>534</ele><time>2020-08-05T14:44:17Z</time><name>PT17828</name></trkpt>
<trkpt lat="53.345657" lon="-1.841699"><ele>533</ele><time>2020-08-05T14:44:19Z</time><name>PT17829</name></trkpt>
<trkpt lat="53.345662" lon="-1.841683"><ele>533</ele><time>2020-08-05T14:44:19Z</time><name>PT17830</name></trkpt>
<trkpt lat="53.345666" lon="-1.841664"><ele>533</ele><time>2020-08-05T14:44:21Z</time><name>PT17831</name></trkpt>
<trkpt lat="53.345669" lon="-1.841645"><ele>533</ele><time>2020-08-05T14:44:22Z</time><name>PT17832</name></trkpt>
<trkpt lat="53.345675" lon="-1.841624"><ele>533</ele><time>2020-08-05T14:44:22Z</time><name>PT17833</name></trkpt>
<trkpt lat="53.345680" lon="-1.841604"><ele>533</ele><time>2020-08-05T14:44:23Z</time><name>PT17834</name></trkpt>
<trkpt lat="53.345685" lon="-1.841584"><ele>533</ele><time>2020-08-05T14:44:25Z</time><name>PT17835</name></trkpt>
<trkpt lat="53.345692" lon="-1.841558"><ele>533</ele><time>2020-08-05T14:44:25Z</time><name>PT17836</name></trkpt>
<trkpt lat="53.345698" lon="-1.841539"><ele>533</ele><time>2020-08-05T14:44:26Z</time><name>PT17837</name></trkpt>
<trkpt lat="53.345701" lon="-1.841523"><ele>533</ele><time>2020-08-05T14:44:28Z</time><name>PT17838</name></trkpt>
<trkpt lat="53.345705" lon="-1.841508"><ele>533</ele><time>2020-08-05T14:44:28Z</time><name>PT17839</name></trkpt>
<trkpt lat="53.345708" lon="-1.841491"><ele>533</ele><time>2020-08-05T14:44:29Z</time><name>PT17840</name></trkpt>
<trkpt lat="53.345715" lon="-1.841472"><ele>533</ele><time>2020-08-05T14:44:31Z</time><name>PT17841</name></trkpt>
<trkpt lat="53.345723" lon="-1.841453"><ele>533</ele><time>2020-08-05T14:44:31Z</time><name>PT17842</name></trkpt>
<trkpt lat="53.345731" lon="-1.841435"><ele>533</ele><time>2020-08-05T14:44:32Z</time><name>PT17843</name></trkpt>
<trkpt lat="53.345736" lon="-1.841423"><ele>533</ele><time>2020-08-05T14:44:34Z</time><name>PT17844</name></trkpt>
<trkpt lat="53.345740" lon="-1.841407"><ele>533</ele><time>2020-08-05T14:44:34Z</time><name>PT17845</name></trkpt>
<trkpt lat="53.345747" lon="-1.841387"><ele>533</ele><time>2020-08-05T14:44:35Z</time><name>PT17846</name></trkpt>
<trkpt lat="53.345754" lon="-1.841370"><ele>533</ele><time>2020-08-05T14:44:37Z</time><name>PT17847</name></trkpt>
<trkpt lat="53.345762" lon="-1.841348"><ele>533</ele><time>2020-08-05T14:44:37Z</time><name>PT17848</name></trkpt>
<trkpt lat="53.345770" lon="-1.841329"><ele>533</ele><time>2020-08-05T14:44:38Z</time><name>PT17849</name></trkpt>
<trkpt lat="53.345775" lon="-1.841315"><ele>533</ele><time>2020-08-05T14:44:40Z</time><name>PT17850</name></trkpt>
<trkpt lat="53.345778" lon="-1.841301"><ele>533</ele><time>2020-08-05T14:44:40Z</time><name>PT17851</name></trkpt>
<trkpt lat="53.345781" lon="-1.841280"><ele>533</ele><time>2020-08-05T14:44:41Z</time><name>PT17852</name></trkpt>
<trkpt lat="53.345785" lon="-1.841258"><ele>533</ele><time>2020-08-05T14:44:43Z</time><name>PT17853</name></trkpt>
<trkpt lat="53.345791" lon="-1.841241"><ele>533</ele><time>2020-08-05T14:44:43Z</time><name>PT17854</name></trkpt>
<trkpt lat="53.345798" lon="-1.841222"><ele>533</ele><time>2020-08-05T14:44:44Z</time><name>PT17855</name></trkpt>
<trkpt lat="53.345807" lon="-1.841198"><ele>533</ele><time>2020-08-05T14:44:46Z</time><name>PT17856</name></trkpt>
<trkpt lat="53.345813" lon="-1.841183"><ele>533</ele><time>2020-08-05T14:44:46Z</time><name>PT17857</name></trkpt>
<trkpt lat="53.345817" lon="-1.841169"><ele>534</ele><time>2020-08-05T14:44:48Z</time><name>PT17858</name></trkpt>
<trkpt lat="53.345822" lon="-1.841152"><ele>534</ele><time>2020-08-05T14:44:49Z</time><name>PT17859</name></trkpt>
<trkpt lat="53.345827" lon="-1.841129"><ele>535</ele><time>2020-08-05T14:44:49Z</time><name>PT17860</name></trkpt>
<trkpt lat="53.345833" lon="-1.841107"><ele>535</ele><time>2020-08-05T14:44:50Z</time><name>PT17861</name></trkpt>
<trkpt lat="53.345840" lon="-1.841084"><ele>535</ele><time>2020-08-05T14:44:52Z</time><name>PT17862</name></trkpt>
<trkpt lat="53.345846" lon="-1.841068"><ele>535</ele><time>2020-08-05T14:44:52Z</time><name>PT17863</name></trkpt>
<trkpt lat="53.345851" lon="-1.841055"><ele>536</ele><time>2020-08-05T14:44:53Z</time><name>PT17864</name></trkpt>
<trkpt lat="53.345858" lon="-1.841042"><ele>534</ele><time>2020-08-05T14:44:55Z</time><name>PT17865</name></trkpt>
<trkpt lat="53.345864" lon="-1.841028"><ele>534</ele><time>2020-08-05T14:44:55Z</time><name>PT17866</name></trkpt>
<trkpt lat="53.345873" lon="-1.841013"><ele>534</ele><time>2020-08-05T14:44:56Z</time><name>PT17867</name></trkpt>
<trkpt lat="53.345882" lon="-1.840994"><ele>534</ele><time>2020-08-05T14:44:58Z</time><name>PT17868</name></trkpt>
<trkpt lat="53.345889" lon="-1.840972"><ele>535</ele><time>2020-08-05T14:44:58Z</time><name>PT17869</name></trkpt>
<trkpt lat="53.345897" lon="-1.840951"><ele>535</ele><time>2020-08-05T14:44:59Z</time><name>PT17870</name></trkpt>
<trkpt lat="53.345902" lon="-1.840934"><ele>535</ele><time>2020-08-05T14:45:01Z</time><name>PT17871</name></trkpt>
<trkpt lat="53.345904" lon="-1.840920"><ele>535</ele><time>2020-08-05T14:45:01Z</time><name>PT17872</name></trkpt>
<trkpt lat="53.345905" lon="-1.840903"><ele>535</ele><time>2020-08-05T14:45:03Z</time><name>PT17873</name></trkpt>
<trkpt lat="53.345909" lon="-1.840883"><ele>535</ele><time>2020-08-05T14:45:04Z</time><name>PT17874</name></trkpt>
<trkpt lat="53.345915" lon="-1.840863"><ele>535</ele><time>2020-08-05T14:45:04Z</time><name>PT17875</name></trkpt>
<trkpt lat="53.345921" lon="-1.840847"><ele>535</ele><time>2020-08-05T14:45:05Z</time><name>PT17876</name></trkpt>
<trkpt lat="53.345928" lon="-1.840827"><ele>535</ele><time>2020-08-05T14:45:07Z</time><name>PT17877</name></trkpt>
<trkpt lat="53.345932" lon="-1.840810"><ele>536</ele><time>2020-08-05T14:45:07Z</time><name>PT17878</name></trkpt>
<trkpt lat="53.345936" lon="-1.840793"><ele>536</ele><time>2020-08-05T14:45:08Z</time><name>PT17879</name></trkpt>
<trkpt lat="53.345941" lon="-1.840774"><ele>536</ele><time>2020-08-05T14:45:10Z</time><name>PT17880</name></trkpt>
<trkpt lat="53.345947" lon="-1.840752"><ele>537</ele><time>2020-08-05T14:45:10Z</time><name>PT17881</name></trkpt>
<trkpt lat="53.345954" lon="-1.840730"><ele>537</ele><time>2020-08-05T14:45:12Z</time><name>PT17882</name></trkpt>
<trkpt lat="53.345960" lon="-1.840705"><ele>537</ele><time>2020-08-05T14:45:13Z</time><name>PT17883</name></trkpt>
<trkpt lat="53.345970" lon="-1.840686"><ele>537</ele><time>2020-08-05T14:45:13Z</time><name>PT17884</name></trkpt>
<trkpt lat="53.345977" lon="-1.840669"><ele>537</ele><time>2020-08-05T14:45:14Z</time><name>PT17885</name></trkpt>
<trkpt lat="53.345980" lon="-1.840655"><ele>537</ele><time>2020-08-05T14:45:16Z</time><name>PT17886</name></trkpt>
<trkpt lat="53.345983" lon="-1.840640"><ele>536</ele><time>2020-08-05T14:45:16Z</time><name>PT17887</name></trkpt>
<trkpt lat="53.345985" lon="-1.840623"><ele>536</ele><time>2020-08-05T14:45:17Z</time><name>PT17888</name></trkpt>
<trkpt lat="53.345991" lon="-1.840603"><ele>536</ele><time>2020-08-05T14:45:19Z</time><name>PT17889</name></trkpt>
<trkpt lat="53.345998" lon="-1.840583"><ele>537</ele><time>2020-08-05T14:45:19Z</time><name>PT17890</name></trkpt>
<trkpt lat="53.346003" lon="-1.840561"><ele>536</ele><time>2020-08-05T14:45:20Z</time><name>PT17891</name></trkpt>
<trkpt lat="53.346009" lon="-1.840543"><ele>536</ele><time>2020-08-05T14:45:22Z</time><name>PT17892</name></trkpt>
<trkpt lat="53.346013" lon="-1.840529"><ele>537</ele><time>2020-08-05T14:45:22Z</time><name>PT17893</name></trkpt>
<trkpt lat="53.346017" lon="-1.840515"><ele>537</ele><time>2020-08-05T14:45:24Z</time><name>PT17894</name></trkpt>
<trkpt lat="53.346019" lon="-1.840498"><ele>537</ele><time>2020-08-05T14:45:25Z</time><name>PT17895</name></trkpt>
<trkpt lat="53.346026" lon="-1.840481"><ele>537</ele><time>2020-08-05T14:45:25Z</time><name>PT17896</name></trkpt>
<trkpt lat="53.346032" lon="-1.840461"><ele>538</ele><time>2020-08-05T14:45:26Z</time><name>PT17897</name></trkpt>
<trkpt lat="53.346039" lon="-1.840438"><ele>538</ele><time>2020-08-05T14:45:28Z</time><name>PT17898</name></trkpt>
<trkpt lat="53.346048" lon="-1.840418"><ele>538</ele><time>2020-08-05T14:45:28Z</time><name>PT17899</name></trkpt>
<trkpt lat="53.346056" lon="-1.840400"><ele>538</ele><time>2020-08-05T14:45:29Z</time><name>PT17900</name></trkpt>
<trkpt lat="53.346062" lon="-1.840389"><ele>539</ele><time>2020-08-05T14:45:31Z</time><name>PT17901</name></trkpt>
<trkpt lat="53.346068" lon="-1.840377"><ele>539</ele><time>2020-08-05T14:45:31Z</time><name>PT17902</name></trkpt>
<trkpt lat="53.346073" lon="-1.840359"><ele>539</ele><time>2020-08-05T14:45:32Z</time><name>PT17903</name></trkpt>
<trkpt lat="53.346081" lon="-1.840340"><ele>540</ele><time>2020-08-05T14:45:34Z</time><name>PT17904</name></trkpt>
<trkpt lat="53.346088" lon="-1.840320"><ele>540</ele><time>2020-08-05T14:45:34Z</time><name>PT17905</name></trkpt>
<trkpt lat="53.346094" lon="-1.840300"><ele>540</ele><time>2020-08-05T14:45:35Z</time><name>PT17906</name></trkpt>
<trkpt lat="53.346103" lon="-1.840282"><ele>540</ele><time>2020-08-05T14:45:37Z</time><name>PT17907</name></trkpt>
<trkpt lat="53.346108" lon="-1.840268"><ele>540</ele><time>2020-08-05T14:45:37Z</time><name>PT17908</name></trkpt>
<trkpt lat="53.346113" lon="-1.840251"><ele>541</ele><time>2020-08-05T14:45:38Z</time><name>PT17909</name></trkpt>
<trkpt lat="53.346118" lon="-1.840234"><ele>541</ele><time>2020-08-05T14:45:40Z</time><name>PT17910</name></trkpt>
<trkpt lat="53.346125" lon="-1.840220"><ele>540</ele><time>2020-08-05T14:45:40Z</time><name>PT17911</name></trkpt>
<trkpt lat="53.346131" lon="-1.840201"><ele>540</ele><time>2020-08-05T14:45:41Z</time><name>PT17912</name></trkpt>
<trkpt lat="53.346137" lon="-1.840183"><ele>540</ele><time>2020-08-05T14:45:43Z</time><name>PT17913</name></trkpt>
<trkpt lat="53.346142" lon="-1.840167"><ele>540</ele><time>2020-08-05T14:45:43Z</time><name>PT17914</name></trkpt>
<trkpt lat="53.346147" lon="-1.840149"><ele>540</ele><time>2020-08-05T14:45:44Z</time><name>PT17915</name></trkpt>
<trkpt lat="53.346151" lon="-1.840129"><ele>540</ele><time>2020-08-05T14:45:46Z</time><name>PT17916</name></trkpt>
<trkpt lat="53.346155" lon="-1.840109"><ele>540</ele><time>2020-08-05T14:45:46Z</time><name>PT17917</name></trkpt>
<trkpt lat="53.346159" lon="-1.840085"><ele>541</ele><time>2020-08-05T14:45:47Z</time><name>PT17918</name></trkpt>
<trkpt lat="53.346162" lon="-1.840059"><ele>541</ele><time>2020-08-05T14:45:49Z</time><name>PT17919</name></trkpt>
<trkpt lat="53.346166" lon="-1.840039"><ele>541</ele><time>2020-08-05T14:45:49Z</time><name>PT17920</name></trkpt>
<trkpt lat="53.346173" lon="-1.840022"><ele>541</ele><time>2020-08-05T14:45:50Z</time><name>PT17921</name></trkpt>
<trkpt lat="53.346175" lon="-1.840003"><ele>541</ele><time>2020-08-05T14:45:52Z</time><name>PT17922</name></trkpt>
<trkpt lat="53.346177" lon="-1.839981"><ele>541</ele><time>2020-08-05T14:45:52Z</time><name>PT17923</name></trkpt>
<trkpt lat="53.346183" lon="-1.839959"><ele>541</ele><time>2020-08-05T14:45:53Z</time><name>PT17924</name></trkpt>
<trkpt lat="53.346189" lon="-1.839939"><ele>541</ele><time>2020-08-05T14:45:55Z</time><name>PT17925</name></trkpt>
<trkpt lat="53.346192" lon="-1.839923"><ele>541</ele><time>2020-08-05T14:45:55Z</time><name>PT17926</name></trkpt>
<trkpt lat="53.346203" lon="-1.839900"><ele>541</ele><time>2020-08-05T14:45:56Z</time><name>PT17927</name></trkpt>
<trkpt lat="53.346215" lon="-1.839883"><ele>541</ele><time>2020-08-05T14:45:58Z</time><name>PT17928</name></trkpt>
<trkpt lat="53.346220" lon="-1.839856"><ele>540</ele><time>2020-08-05T14:45:58Z</time><name>PT17929</name></trkpt>
<trkpt lat="53.346228" lon="-1.839831"><ele>541</ele><time>2020-08-05T14:45:59Z</time><name>PT17930</name></trkpt>
<trkpt lat="53.346237" lon="-1.839814"><ele>541</ele><time>2020-08-05T14:46:01Z</time><name>PT17931</name></trkpt>
<trkpt lat="53.346244" lon="-1.839793"><ele>542</ele><time>2020-08-05T14:46:01Z</time><name>PT17932</name></trkpt>
<trkpt lat="53.346251" lon="-1.839775"><ele>542</ele><time>2020-08-05T14:46:02Z</time><name>PT17933</name></trkpt>
<trkpt lat="53.346258" lon="-1.839757"><ele>542</ele><time>2020-08-05T14:46:04Z</time><name>PT17934</name></trkpt>
<trkpt lat="53.346263" lon="-1.839741"><ele>542</ele><time>2020-08-05T14:46:04Z</time><name>PT17935</name></trkpt>
<trkpt lat="53.346270" lon="-1.839720"><ele>542</ele><time>2020-08-05T14:46:05Z</time><name>PT17936</name></trkpt>
<trkpt lat="53.346278" lon="-1.839700"><ele>542</ele><time>2020-08-05T14:46:07Z</time><name>PT17937</name></trkpt>
<trkpt lat="53.346283" lon="-1.839681"><ele>542</ele><time>2020-08-05T14:46:07Z</time><name>PT17938</name></trkpt>
<trkpt lat="53.346289" lon="-1.839663"><ele>542</ele><time>2020-08-05T14:46:08Z</time><name>PT17939</name></trkpt>
<trkpt lat="53.346294" lon="-1.839642"><ele>543</ele><time>2020-08-05T14:46:10Z</time><name>PT17940</name></trkpt>
<trkpt lat="53.346301" lon="-1.839628"><ele>543</ele><time>2020-08-05T14:46:10Z</time><name>PT17941</name></trkpt>
<trkpt lat="53.346309" lon="-1.839613"><ele>543</ele><time>2020-08-05T14:46:11Z</time><name>PT17942</name></trkpt>
<trkpt lat="53.346313" lon="-1.839600"><ele>543</ele><time>2020-08-05T14:46:13Z</time><name>PT17943</name></trkpt>
<trkpt lat="53.346316" lon="-1.839582"><ele>543</ele><time>2020-08-05T14:46:13Z</time><name>PT17944</name></trkpt>
<trkpt lat="53.346320" lon="-1.839565"><ele>543</ele><time>2020-08-05T14:46:14Z</time><name>PT17945</name></trkpt>
<trkpt lat="53.346324" lon="-1.839547"><ele>543</ele><time>2020-08-05T14:46:16Z</time><name>PT17946</name></trkpt>
<trkpt lat="53.346329" lon="-1.839524"><ele>543</ele><time>2020-08-05T14:46:16Z</time><name>PT17947</name></trkpt>
<trkpt lat="53.346334" lon="-1.839506"><ele>543</ele><time>2020-08-05T14:46:17Z</time><name>PT17948</name></trkpt>
<trkpt lat="53.346341" lon="-1.839487"><ele>543</ele><time>2020-08-05T14:46:19Z</time><name>PT17949</name></trkpt>
<trkpt lat="53.346348" lon="-1.839467"><ele>543</ele><time>2020-08-05T14:46:19Z</time><name>PT17950</name></trkpt>
<trkpt lat="53.346352" lon="-1.839449"><ele>543</ele><time>2020-08-05T14:46:20Z</time><name>PT17951</name></trkpt>
<trkpt lat="53.346356" lon="-1.839431"><ele>543</ele><time>2020-08-05T14:46:22Z</time><name>PT17952</name></trkpt>
<trkpt lat="53.346360" lon="-1.839414"><ele>543</ele><time>2020-08-05T14:46:22Z</time><name>PT17953</name></trkpt>
<trkpt lat="53.346366" lon="-1.839396"><ele>543</ele><time>2020-08-05T14:46:23Z</time><name>PT17954</name></trkpt>
<trkpt lat="53.346371" lon="-1.839375"><ele>543</ele><time>2020-08-05T14:46:25Z</time><name>PT17955</name></trkpt>
<trkpt lat="53.346377" lon="-1.839346"><ele>544</ele><time>2020-08-05T14:46:25Z</time><name>PT17956</name></trkpt>
<trkpt lat="53.346385" lon="-1.839321"><ele>544</ele><time>2020-08-05T14:46:26Z</time><name>PT17957</name></trkpt>
<trkpt lat="53.346392" lon="-1.839299"><ele>545</ele><time>2020-08-05T14:46:28Z</time><name>PT17958</name></trkpt>
<trkpt lat="53.346397" lon="-1.839280"><ele>545</ele><time>2020-08-05T14:46:28Z</time><name>PT17959</name></trkpt>
<trkpt lat="53.346402" lon="-1.839265"><ele>544</ele><time>2020-08-05T14:46:29Z</time><name>PT17960</name></trkpt>
<trkpt lat="53.346405" lon="-1.839250"><ele>544</ele><time>2020-08-05T14:46:31Z</time><name>PT17961</name></trkpt>
<trkpt lat="53.346408" lon="-1.839231"><ele>544</ele><time>2020-08-05T14:46:31Z</time><name>PT17962</name></trkpt>
<trkpt lat="53.346412" lon="-1.839217"><ele>544</ele><time>2020-08-05T14:46:32Z</time><name>PT17963</name></trkpt>
<trkpt lat="53.346419" lon="-1.839199"><ele>544</ele><time>2020-08-05T14:46:34Z</time><name>PT17964</name></trkpt>
<trkpt lat="53.346427" lon="-1.839183"><ele>545</ele><time>2020-08-05T14:46:34Z</time><name>PT17965</name></trkpt>
<trkpt lat="53.346434" lon="-1.839168"><ele>545</ele><time>2020-08-05T14:46:36Z</time><name>PT17966</name></trkpt>
<trkpt lat="53.346439" lon="-1.839155"><ele>544</ele><time>2020-08-05T14:46:37Z</time><name>PT17967</name></trkpt>
<trkpt lat="53.346443" lon="-1.839140"><ele>544</ele><time>2020-08-05T14:46:37Z</time><name>PT17968</name></trkpt>
<trkpt lat="53.346447" lon="-1.839123"><ele>544</ele><time>2020-08-05T14:46:38Z</time><name>PT17969</name></trkpt>
<trkpt lat="53.346451" lon="-1.839107"><ele>544</ele><time>2020-08-05T14:46:40Z</time><name>PT17970</name></trkpt>
<trkpt lat="53.346457" lon="-1.839084"><ele>544</ele><time>2020-08-05T14:46:40Z</time><name>PT17971</name></trkpt>
<trkpt lat="53.346462" lon="-1.839061"><ele>544</ele><time>2020-08-05T14:46:42Z</time><name>PT17972</name></trkpt>
<trkpt lat="53.346467" lon="-1.839046"><ele>544</ele><time>2020-08-05T14:46:43Z</time><name>PT17973</name></trkpt>
<trkpt lat="53.346471" lon="-1.839040"><ele>544</ele><time>2020-08-05T14:46:43Z</time><name>PT17974</name></trkpt>
<trkpt lat="53.346476" lon="-1.839036"><ele>544</ele><time>2020-08-05T14:46:44Z</time><name>PT17975</name></trkpt>
<trkpt lat="53.346484" lon="-1.839030"><ele>544</ele><time>2020-08-05T14:46:46Z</time><name>PT17976</name></trkpt>
<trkpt lat="53.346493" lon="-1.839028"><ele>544</ele><time>2020-08-05T14:46:46Z</time><name>PT17977</name></trkpt>
<trkpt lat="53.346499" lon="-1.839027"><ele>544</ele><time>2020-08-05T14:46:47Z</time><name>PT17978</name></trkpt>
<trkpt lat="53.346505" lon="-1.839023"><ele>544</ele><time>2020-08-05T14:46:49Z</time><name>PT17979</name></trkpt>
<trkpt lat="53.346509" lon="-1.839008"><ele>544</ele><time>2020-08-05T14:46:49Z</time><name>PT17980</name></trkpt>
<trkpt lat="53.346509" lon="-1.838996"><ele>544</ele><time>2020-08-05T14:46:50Z</time><name>PT17981</name></trkpt>
<trkpt lat="53.346511" lon="-1.838973"><ele>544</ele><time>2020-08-05T14:46:52Z</time><name>PT17982</name></trkpt>
<trkpt lat="53.346510" lon="-1.838951"><ele>543</ele><time>2020-08-05T14:46:52Z</time><name>PT17983</name></trkpt>
<trkpt lat="53.346512" lon="-1.838928"><ele>543</ele><time>2020-08-05T14:46:53Z</time><name>PT17984</name></trkpt>
<trkpt lat="53.346516" lon="-1.838908"><ele>543</ele><time>2020-08-05T14:46:55Z</time><name>PT17985</name></trkpt>
<trkpt lat="53.346523" lon="-1.838884"><ele>543</ele><time>2020-08-05T14:46:55Z</time><name>PT17986</name></trkpt>
<trkpt lat="53.346528" lon="-1.838863"><ele>543</ele><time>2020-08-05T14:46:56Z</time><name>PT17987</name></trkpt>
<trkpt lat="53.346532" lon="-1.838845"><ele>543</ele><time>2020-08-05T14:46:58Z</time><name>PT17988</name></trkpt>
<trkpt lat="53.346534" lon="-1.838832"><ele>543</ele><time>2020-08-05T14:46:58Z</time><name>PT17989</name></trkpt>
<trkpt lat="53.346536" lon="-1.838812"><ele>543</ele><time>2020-08-05T14:46:59Z</time><name>PT17990</name></trkpt>
<trkpt lat="53.346538" lon="-1.838791"><ele>543</ele><time>2020-08-05T14:47:01Z</time><name>PT17991</name></trkpt>
<trkpt lat="53.346542" lon="-1.838771"><ele>543</ele><time>2020-08-05T14:47:01Z</time><name>PT17992</name></trkpt>
<trkpt lat="53.346547" lon="-1.838748"><ele>543</ele><time>2020-08-05T14:47:02Z</time><name>PT17993</name></trkpt>
<trkpt lat="53.346548" lon="-1.838726"><ele>544</ele><time>2020-08-05T14:47:04Z</time><name>PT17994</name></trkpt>
<trkpt lat="53.346546" lon="-1.838706"><ele>544</ele><time>2020-08-05T14:47:04Z</time><name>PT17995</name></trkpt>
<trkpt lat="53.346548" lon="-1.838689"><ele>544</ele><time>2020-08-05T14:47:05Z</time><name>PT17996</name></trkpt>
<trkpt lat="53.346552" lon="-1.838669"><ele>544</ele><time>2020-08-05T14:47:07Z</time><name>PT17997</name></trkpt>
<trkpt lat="53.346557" lon="-1.838647"><ele>544</ele><time>2020-08-05T14:47:07Z</time><name>PT17998</name></trkpt>
<trkpt lat="53.346561" lon="-1.838627"><ele>544</ele><time>2020-08-05T14:47:08Z</time><name>PT17999</name></trkpt>
<trkpt lat="53.346569" lon="-1.838605"><ele>544</ele><time>2020-08-05T14:47:10Z</time><name>PT18000</name></trkpt>
<trkpt lat="53.346575" lon="-1.838586"><ele>544</ele><time>2020-08-05T14:47:10Z</time><name>PT18001</name></trkpt>
<trkpt lat="53.346582" lon="-1.838565"><ele>544</ele><time>2020-08-05T14:47:11Z</time><name>PT18002</name></trkpt>
<trkpt lat="53.346586" lon="-1.838550"><ele>544</ele><time>2020-08-05T14:47:13Z</time><name>PT18003</name></trkpt>
<trkpt lat="53.346589" lon="-1.838534"><ele>544</ele><time>2020-08-05T14:47:13Z</time><name>PT18004</name></trkpt>
<trkpt lat="53.346592" lon="-1.838515"><ele>543</ele><time>2020-08-05T14:47:14Z</time><name>PT18005</name></trkpt>
<trkpt lat="53.346597" lon="-1.838497"><ele>543</ele><time>2020-08-05T14:47:16Z</time><name>PT18006</name></trkpt>
<trkpt lat="53.346606" lon="-1.838479"><ele>544</ele><time>2020-08-05T14:47:16Z</time><name>PT18007</name></trkpt>
<trkpt lat="53.346613" lon="-1.838460"><ele>544</ele><time>2020-08-05T14:47:17Z</time><name>PT18008</name></trkpt>
<trkpt lat="53.346620" lon="-1.838440"><ele>544</ele><time>2020-08-05T14:47:19Z</time><name>PT18009</name></trkpt>
<trkpt lat="53.346626" lon="-1.838426"><ele>544</ele><time>2020-08-05T14:47:19Z</time><name>PT18010</name></trkpt>
<trkpt lat="53.346628" lon="-1.838412"><ele>544</ele><time>2020-08-05T14:47:20Z</time><name>PT18011</name></trkpt>
<trkpt lat="53.346631" lon="-1.838399"><ele>543</ele><time>2020-08-05T14:47:22Z</time><name>PT18012</name></trkpt>
<trkpt lat="53.346635" lon="-1.838379"><ele>543</ele><time>2020-08-05T14:47:22Z</time><name>PT18013</name></trkpt>
<trkpt lat="53.346639" lon="-1.838355"><ele>543</ele><time>2020-08-05T14:47:23Z</time><name>PT18014</name></trkpt>
<trkpt lat="53.346644" lon="-1.838333"><ele>544</ele><time>2020-08-05T14:47:25Z</time><name>PT18015</name></trkpt>
<trkpt lat="53.346651" lon="-1.838308"><ele>544</ele><time>2020-08-05T14:47:25Z</time><name>PT18016</name></trkpt>
<trkpt lat="53.346660" lon="-1.838287"><ele>544</ele><time>2020-08-05T14:47:26Z</time><name>PT18017</name></trkpt>
<trkpt lat="53.346666" lon="-1.838273"><ele>544</ele><time>2020-08-05T14:47:28Z</time><name>PT18018</name></trkpt>
<trkpt lat="53.346673" lon="-1.838258"><ele>544</ele><time>2020-08-05T14:47:28Z</time><name>PT18019</name></trkpt>
<trkpt lat="53.346678" lon="-1.838240"><ele>544</ele><time>2020-08-05T14:47:29Z</time><name>PT18020</name></trkpt>
<trkpt lat="53.346683" lon="-1.838221"><ele>544</ele><time>2020-08-05T14:47:31Z</time><name>PT18021</name></trkpt>
<trkpt lat="53.346690" lon="-1.838199"><ele>544</ele><time>2020-08-05T14:47:31Z</time><name>PT18022</name></trkpt>
<trkpt lat="53.346695" lon="-1.838179"><ele>544</ele><time>2020-08-05T14:47:32Z</time><name>PT18023</name></trkpt>
<trkpt lat="53.346700" lon="-1.838157"><ele>544</ele><time>2020-08-05T14:47:34Z</time><name>PT18024</name></trkpt>
<trkpt lat="53.346705" lon="-1.838137"><ele>545</ele><time>2020-08-05T14:47:34Z</time><name>PT18025</name></trkpt>
<trkpt lat="53.346708" lon="-1.838123"><ele>545</ele><time>2020-08-05T14:47:35Z</time><name>PT18026</name></trkpt>
<trkpt lat="53.346711" lon="-1.838105"><ele>545</ele><time>2020-08-05T14:47:37Z</time><name>PT18027</name></trkpt>
<trkpt lat="53.346718" lon="-1.838088"><ele>545</ele><time>2020-08-05T14:47:38Z</time><name>PT18028</name></trkpt>
<trkpt lat="53.346723" lon="-1.838072"><ele>545</ele><time>2020-08-05T14:47:38Z</time><name>PT18029</name></trkpt>
<trkpt lat="53.346729" lon="-1.838053"><ele>545</ele><time>2020-08-05T14:47:40Z</time><name>PT18030</name></trkpt>
<trkpt lat="53.346735" lon="-1.838034"><ele>545</ele><time>2020-08-05T14:47:40Z</time><name>PT18031</name></trkpt>
<trkpt lat="53.346742" lon="-1.838013"><ele>546</ele><time>2020-08-05T14:47:42Z</time><name>PT18032</name></trkpt>
<trkpt lat="53.346748" lon="-1.837992"><ele>545</ele><time>2020-08-05T14:47:43Z</time><name>PT18033</name></trkpt>
<trkpt lat="53.346755" lon="-1.837970"><ele>545</ele><time>2020-08-05T14:47:43Z</time><name>PT18034</name></trkpt>
<trkpt lat="53.346757" lon="-1.837952"><ele>545</ele><time>2020-08-05T14:47:44Z</time><name>PT18035</name></trkpt>
<trkpt lat="53.346761" lon="-1.837935"><ele>545</ele><time>2020-08-05T14:47:46Z</time><name>PT18036</name></trkpt>
<trkpt lat="53.346768" lon="-1.837915"><ele>544</ele><time>2020-08-05T14:47:46Z</time><name>PT18037</name></trkpt>
<trkpt lat="53.346771" lon="-1.837898"><ele>544</ele><time>2020-08-05T14:47:47Z</time><name>PT18038</name></trkpt>
<trkpt lat="53.346776" lon="-1.837871"><ele>545</ele><time>2020-08-05T14:47:49Z</time><name>PT18039</name></trkpt>
<trkpt lat="53.346783" lon="-1.837854"><ele>545</ele><time>2020-08-05T14:47:49Z</time><name>PT18040</name></trkpt>
<trkpt lat="53.346790" lon="-1.837832"><ele>545</ele><time>2020-08-05T14:47:50Z</time><name>PT18041</name></trkpt>
<trkpt lat="53.346797" lon="-1.837807"><ele>545</ele><time>2020-08-05T14:47:52Z</time><name>PT18042</name></trkpt>
<trkpt lat="53.346802" lon="-1.837787"><ele>545</ele><time>2020-08-05T14:47:52Z</time><name>PT18043</name></trkpt>
<trkpt lat="53.346805" lon="-1.837769"><ele>545</ele><time>2020-08-05T14:47:53Z</time><name>PT18044</name></trkpt>
<trkpt lat="53.346807" lon="-1.837751"><ele>545</ele><time>2020-08-05T14:47:55Z</time><name>PT18045</name></trkpt>
<trkpt lat="53.346811" lon="-1.837734"><ele>545</ele><time>2020-08-05T14:47:55Z</time><name>PT18046</name></trkpt>
<trkpt lat="53.346817" lon="-1.837713"><ele>545</ele><time>2020-08-05T14:47:56Z</time><name>PT18047</name></trkpt>
<trkpt lat="53.346824" lon="-1.837691"><ele>545</ele><time>2020-08-05T14:47:58Z</time><name>PT18048</name></trkpt>
<trkpt lat="53.346831" lon="-1.837673"><ele>545</ele><time>2020-08-05T14:47:58Z</time><name>PT18049</name></trkpt>
<trkpt lat="53.346838" lon="-1.837651"><ele>545</ele><time>2020-08-05T14:47:59Z</time><name>PT18050</name></trkpt>
<trkpt lat="53.346843" lon="-1.837634"><ele>545</ele><time>2020-08-05T14:48:01Z</time><name>PT18051</name></trkpt>
<trkpt lat="53.346846" lon="-1.837619"><ele>545</ele><time>2020-08-05T14:48:01Z</time><name>PT18052</name></trkpt>
<trkpt lat="53.346849" lon="-1.837600"><ele>545</ele><time>2020-08-05T14:48:02Z</time><name>PT18053</name></trkpt>
<trkpt lat="53.346853" lon="-1.837574"><ele>546</ele><time>2020-08-05T14:48:04Z</time><name>PT18054</name></trkpt>
<trkpt lat="53.346856" lon="-1.837556"><ele>546</ele><time>2020-08-05T14:48:04Z</time><name>PT18055</name></trkpt>
<trkpt lat="53.346861" lon="-1.837534"><ele>546</ele><time>2020-08-05T14:48:05Z</time><name>PT18056</name></trkpt>
<trkpt lat="53.346867" lon="-1.837511"><ele>546</ele><time>2020-08-05T14:48:07Z</time><name>PT18057</name></trkpt>
<trkpt lat="53.346871" lon="-1.837495"><ele>546</ele><time>2020-08-05T14:48:07Z</time><name>PT18058</name></trkpt>
<trkpt lat="53.346875" lon="-1.837482"><ele>546</ele><time>2020-08-05T14:48:08Z</time><name>PT18059</name></trkpt>
<trkpt lat="53.346879" lon="-1.837464"><ele>546</ele><time>2020-08-05T14:48:10Z</time><name>PT18060</name></trkpt>
<trkpt lat="53.346884" lon="-1.837450"><ele>545</ele><time>2020-08-05T14:48:10Z</time><name>PT18061</name></trkpt>
<trkpt lat="53.346888" lon="-1.837434"><ele>546</ele><time>2020-08-05T14:48:11Z</time><name>PT18062</name></trkpt>
<trkpt lat="53.346894" lon="-1.837414"><ele>546</ele><time>2020-08-05T14:48:13Z</time><name>PT18063</name></trkpt>
<trkpt lat="53.346903" lon="-1.837393"><ele>547</ele><time>2020-08-05T14:48:13Z</time><name>PT18064</name></trkpt>
<trkpt lat="53.346911" lon="-1.837371"><ele>547</ele><time>2020-08-05T14:48:14Z</time><name>PT18065</name></trkpt>
<trkpt lat="53.346916" lon="-1.837352"><ele>547</ele><time>2020-08-05T14:48:16Z</time><name>PT18066</name></trkpt>
<trkpt lat="53.346919" lon="-1.837340"><ele>546</ele><time>2020-08-05T14:48:16Z</time><name>PT18067</name></trkpt>
<trkpt lat="53.346924" lon="-1.837322"><ele>546</ele><time>2020-08-05T14:48:17Z</time><name>PT18068</name></trkpt>
<trkpt lat="53.346930" lon="-1.837300"><ele>546</ele><time>2020-08-05T14:48:19Z</time><name>PT18069</name></trkpt>
<trkpt lat="53.346934" lon="-1.837276"><ele>546</ele><time>2020-08-05T14:48:19Z</time><name>PT18070</name></trkpt>
<trkpt lat="53.346942" lon="-1.837257"><ele>546</ele><time>2020-08-05T14:48:21Z</time><name>PT18071</name></trkpt>
<trkpt lat="53.346951" lon="-1.837233"><ele>546</ele><time>2020-08-05T14:48:22Z</time><name>PT18072</name></trkpt>
<trkpt lat="53.346958" lon="-1.837212"><ele>546</ele><time>2020-08-05T14:48:22Z</time><name>PT18073</name></trkpt>
<trkpt lat="53.346962" lon="-1.837197"><ele>546</ele><time>2020-08-05T14:48:23Z</time><name>PT18074</name></trkpt>
<trkpt lat="53.346966" lon="-1.837183"><ele>545</ele><time>2020-08-05T14:48:25Z</time><name>PT18075</name></trkpt>
<trkpt lat="53.346972" lon="-1.837163"><ele>546</ele><time>2020-08-05T14:48:25Z</time><name>PT18076</name></trkpt>
<trkpt lat="53.346979" lon="-1.837136"><ele>547</ele><time>2020-08-05T14:48:26Z</time><name>PT18077</name></trkpt>
<trkpt lat="53.346987" lon="-1.837115"><ele>547</ele><time>2020-08-05T14:48:28Z</time><name>PT18078</name></trkpt>
<trkpt lat="53.346996" lon="-1.837097"><ele>547</ele><time>2020-08-05T14:48:28Z</time><name>PT18079</name></trkpt>
<trkpt lat="53.347000" lon="-1.837082"><ele>547</ele><time>2020-08-05T14:48:29Z</time><name>PT18080</name></trkpt>
<trkpt lat="53.347005" lon="-1.837061"><ele>547</ele><time>2020-08-05T14:48:31Z</time><name>PT18081</name></trkpt>
<trkpt lat="53.347011" lon="-1.837040"><ele>547</ele><time>2020-08-05T14:48:31Z</time><name>PT18082</name></trkpt>
<trkpt lat="53.347018" lon="-1.837028"><ele>547</ele><time>2020-08-05T14:48:32Z</time><name>PT18083</name></trkpt>
<trkpt lat="53.347024" lon="-1.837007"><ele>547</ele><time>2020-08-05T14:48:34Z</time><name>PT18084</name></trkpt>
<trkpt lat="53.347028" lon="-1.836986"><ele>547</ele><time>2020-08-05T14:48:34Z</time><name>PT18085</name></trkpt>
<trkpt lat="53.347030" lon="-1.836974"><ele>547</ele><time>2020-08-05T14:48:35Z</time><name>PT18086</name></trkpt>
<trkpt lat="53.347032" lon="-1.836959"><ele>547</ele><time>2020-08-05T14:48:37Z</time><name>PT18087</name></trkpt>
<trkpt lat="53.347036" lon="-1.836939"><ele>547</ele><time>2020-08-05T14:48:37Z</time><name>PT18088</name></trkpt>
<trkpt lat="53.347036" lon="-1.836922"><ele>547</ele><time>2020-08-05T14:48:38Z</time><name>PT18089</name></trkpt>
<trkpt lat="53.347041" lon="-1.836904"><ele>548</ele><time>2020-08-05T14:48:40Z</time><name>PT18090</name></trkpt>
<trkpt lat="53.347048" lon="-1.836883"><ele>549</ele><time>2020-08-05T14:48:40Z</time><name>PT18091</name></trkpt>
<trkpt lat="53.347058" lon="-1.836864"><ele>549</ele><time>2020-08-05T14:48:41Z</time><name>PT18092</name></trkpt>
<trkpt lat="53.347063" lon="-1.836851"><ele>549</ele><time>2020-08-05T14:48:43Z</time><name>PT18093</name></trkpt>
<trkpt lat="53.347067" lon="-1.836832"><ele>549</ele><time>2020-08-05T14:48:43Z</time><name>PT18094</name></trkpt>
<trkpt lat="53.347072" lon="-1.836813"><ele>549</ele><time>2020-08-05T14:48:44Z</time><name>PT18095</name></trkpt>
<trkpt lat="53.347077" lon="-1.836794"><ele>549</ele><time>2020-08-05T14:48:46Z</time><name>PT18096</name></trkpt>
<trkpt lat="53.347085" lon="-1.836773"><ele>549</ele><time>2020-08-05T14:48:46Z</time><name>PT18097</name></trkpt>
<trkpt lat="53.347093" lon="-1.836750"><ele>550</ele><time>2020-08-05T14:48:47Z</time><name>PT18098</name></trkpt>
<trkpt lat="53.347100" lon="-1.836727"><ele>550</ele><time>2020-08-05T14:48:49Z</time><name>PT18099</name></trkpt>
<trkpt lat="53.347104" lon="-1.836709"><ele>550</ele><time>2020-08-05T14:48:49Z</time><name>PT18100</name></trkpt>
<trkpt lat="53.347107" lon="-1.836692"><ele>549</ele><time>2020-08-05T14:48:50Z</time><name>PT18101</name></trkpt>
<trkpt lat="53.347108" lon="-1.836673"><ele>549</ele><time>2020-08-05T14:48:52Z</time><name>PT18102</name></trkpt>
<trkpt lat="53.347112" lon="-1.836652"><ele>549</ele><time>2020-08-05T14:48:52Z</time><name>PT18103</name></trkpt>
<trkpt lat="53.347118" lon="-1.836625"><ele>549</ele><time>2020-08-05T14:48:53Z</time><name>PT18104</name></trkpt>
<trkpt lat="53.347122" lon="-1.836599"><ele>549</ele><time>2020-08-05T14:48:55Z</time><name>PT18105</name></trkpt>
<trkpt lat="53.347128" lon="-1.836575"><ele>549</ele><time>2020-08-05T14:48:55Z</time><name>PT18106</name></trkpt>
<trkpt lat="53.347131" lon="-1.836558"><ele>549</ele><time>2020-08-05T14:48:56Z</time><name>PT18107</name></trkpt>
<trkpt lat="53.347134" lon="-1.836538"><ele>549</ele><time>2020-08-05T14:48:58Z</time><name>PT18108</name></trkpt>
<trkpt lat="53.347137" lon="-1.836515"><ele>549</ele><time>2020-08-05T14:48:58Z</time><name>PT18109</name></trkpt>
<trkpt lat="53.347141" lon="-1.836498"><ele>549</ele><time>2020-08-05T14:48:59Z</time><name>PT18110</name></trkpt>
<trkpt lat="53.347147" lon="-1.836474"><ele>550</ele><time>2020-08-05T14:49:01Z</time><name>PT18111</name></trkpt>
<trkpt lat="53.347153" lon="-1.836450"><ele>550</ele><time>2020-08-05T14:49:01Z</time><name>PT18112</name></trkpt>
<trkpt lat="53.347159" lon="-1.836422"><ele>550</ele><time>2020-08-05T14:49:02Z</time><name>PT18113</name></trkpt>
<trkpt lat="53.347164" lon="-1.836400"><ele>550</ele><time>2020-08-05T14:49:04Z</time><name>PT18114</name></trkpt>
<trkpt lat="53.347167" lon="-1.836384"><ele>550</ele><time>2020-08-05T14:49:04Z</time><name>PT18115</name></trkpt>
<trkpt lat="53.347170" lon="-1.836364"><ele>550</ele><time>2020-08-05T14:49:05Z</time><name>PT18116</name></trkpt>
<trkpt lat="53.347174" lon="-1.836341"><ele>549</ele><time>2020-08-05T14:49:07Z</time><name>PT18117</name></trkpt>
<trkpt lat="53.347179" lon="-1.836319"><ele>550</ele><time>2020-08-05T14:49:07Z</time><name>PT18118</name></trkpt>
<trkpt lat="53.347183" lon="-1.836305"><ele>550</ele><time>2020-08-05T14:49:08Z</time><name>PT18119</name></trkpt>
<trkpt lat="53.347190" lon="-1.836288"><ele>550</ele><time>2020-08-05T14:49:10Z</time><name>PT18120</name></trkpt>
<trkpt lat="53.347198" lon="-1.836265"><ele>550</ele><time>2020-08-05T14:49:10Z</time><name>PT18121</name></trkpt>
<trkpt lat="53.347205" lon="-1.836246"><ele>551</ele><time>2020-08-05T14:49:11Z</time><name>PT18122</name></trkpt>
<trkpt lat="53.347207" lon="-1.836229"><ele>551</ele><time>2020-08-05T14:49:13Z</time><name>PT18123</name></trkpt>
<trkpt lat="53.347210" lon="-1.836213"><ele>551</ele><time>2020-08-05T14:49:13Z</time><name>PT18124</name></trkpt>
<trkpt lat="53.347215" lon="-1.836193"><ele>551</ele><time>2020-08-05T14:49:14Z</time><name>PT18125</name></trkpt>
<trkpt lat="53.347221" lon="-1.836176"><ele>550</ele><time>2020-08-05T14:49:16Z</time><name>PT18126</name></trkpt>
<trkpt lat="53.347227" lon="-1.836160"><ele>551</ele><time>2020-08-05T14:49:16Z</time><name>PT18127</name></trkpt>
<trkpt lat="53.347233" lon="-1.836140"><ele>551</ele><time>2020-08-05T14:49:17Z</time><name>PT18128</name></trkpt>
<trkpt lat="53.347238" lon="-1.836117"><ele>551</ele><time>2020-08-05T14:49:19Z</time><name>PT18129</name></trkpt>
<trkpt lat="53.347245" lon="-1.836093"><ele>551</ele><time>2020-08-05T14:49:19Z</time><name>PT18130</name></trkpt>
<trkpt lat="53.347249" lon="-1.836077"><ele>551</ele><time>2020-08-05T14:49:20Z</time><name>PT18131</name></trkpt>
<trkpt lat="53.347251" lon="-1.836057"><ele>550</ele><time>2020-08-05T14:49:22Z</time><name>PT18132</name></trkpt>
<trkpt lat="53.347256" lon="-1.836038"><ele>550</ele><time>2020-08-05T14:49:22Z</time><name>PT18133</name></trkpt>
<trkpt lat="53.347261" lon="-1.836018"><ele>550</ele><time>2020-08-05T14:49:23Z</time><name>PT18134</name></trkpt>
<trkpt lat="53.347265" lon="-1.835998"><ele>551</ele><time>2020-08-05T14:49:25Z</time><name>PT18135</name></trkpt>
<trkpt lat="53.347271" lon="-1.835977"><ele>551</ele><time>2020-08-05T14:49:25Z</time><name>PT18136</name></trkpt>
<trkpt lat="53.347275" lon="-1.835953"><ele>551</ele><time>2020-08-05T14:49:26Z</time><name>PT18137</name></trkpt>
<trkpt lat="53.347281" lon="-1.835937"><ele>551</ele><time>2020-08-05T14:49:28Z</time><name>PT18138</name></trkpt>
<trkpt lat="53.347283" lon="-1.835922"><ele>551</ele><time>2020-08-05T14:49:28Z</time><name>PT18139</name></trkpt>
<trkpt lat="53.347287" lon="-1.835903"><ele>551</ele><time>2020-08-05T14:49:29Z</time><name>PT18140</name></trkpt>
<trkpt lat="53.347290" lon="-1.835884"><ele>551</ele><time>2020-08-05T14:49:31Z</time><name>PT18141</name></trkpt>
<trkpt lat="53.347294" lon="-1.835860"><ele>551</ele><time>2020-08-05T14:49:31Z</time><name>PT18142</name></trkpt>
<trkpt lat="53.347300" lon="-1.835837"><ele>551</ele><time>2020-08-05T14:49:32Z</time><name>PT18143</name></trkpt>
<trkpt lat="53.347303" lon="-1.835818"><ele>551</ele><time>2020-08-05T14:49:34Z</time><name>PT18144</name></trkpt>
<trkpt lat="53.347308" lon="-1.835796"><ele>551</ele><time>2020-08-05T14:49:34Z</time><name>PT18145</name></trkpt>
<trkpt lat="53.347309" lon="-1.835776"><ele>552</ele><time>2020-08-05T14:49:35Z</time><name>PT18146</name></trkpt>
<trkpt lat="53.347310" lon="-1.835757"><ele>551</ele><time>2020-08-05T14:49:37Z</time><name>PT18147</name></trkpt>
<trkpt lat="53.347313" lon="-1.835741"><ele>551</ele><time>2020-08-05T14:49:37Z</time><name>PT18148</name></trkpt>
<trkpt lat="53.347315" lon="-1.835721"><ele>551</ele><time>2020-08-05T14:49:38Z</time><name>PT18149</name></trkpt>
<trkpt lat="53.347316" lon="-1.835700"><ele>551</ele><time>2020-08-05T14:49:40Z</time><name>PT18150</name></trkpt>
<trkpt lat="53.347319" lon="-1.835676"><ele>551</ele><time>2020-08-05T14:49:40Z</time><name>PT18151</name></trkpt>
<trkpt lat="53.347322" lon="-1.835657"><ele>551</ele><time>2020-08-05T14:49:41Z</time><name>PT18152</name></trkpt>
<trkpt lat="53.347328" lon="-1.835638"><ele>551</ele><time>2020-08-05T14:49:43Z</time><name>PT18153</name></trkpt>
<trkpt lat="53.347334" lon="-1.835623"><ele>550</ele><time>2020-08-05T14:49:43Z</time><name>PT18154</name></trkpt>
<trkpt lat="53.347339" lon="-1.835609"><ele>551</ele><time>2020-08-05T14:49:44Z</time><name>PT18155</name></trkpt>
<trkpt lat="53.347342" lon="-1.835597"><ele>551</ele><time>2020-08-05T14:49:46Z</time><name>PT18156</name></trkpt>
<trkpt lat="53.347342" lon="-1.835582"><ele>551</ele><time>2020-08-05T14:49:46Z</time><name>PT18157</name></trkpt>
<trkpt lat="53.347342" lon="-1.835567"><ele>550</ele><time>2020-08-05T14:49:47Z</time><name>PT18158</name></trkpt>
<trkpt lat="53.347345" lon="-1.835547"><ele>551</ele><time>2020-08-05T14:49:49Z</time><name>PT18159</name></trkpt>
<trkpt lat="53.347351" lon="-1.835525"><ele>551</ele><time>2020-08-05T14:49:49Z</time><name>PT18160</name></trkpt>
<trkpt lat="53.347357" lon="-1.835501"><ele>551</ele><time>2020-08-05T14:49:50Z</time><name>PT18161</name></trkpt>
<trkpt lat="53.347361" lon="-1.835481"><ele>551</ele><time>2020-08-05T14:49:52Z</time><name>PT18162</name></trkpt>
<trkpt lat="53.347364" lon="-1.835460"><ele>551</ele><time>2020-08-05T14:49:52Z</time><name>PT18163</name></trkpt>
<trkpt lat="53.347367" lon="-1.835441"><ele>551</ele><time>2020-08-05T14:49:53Z</time><name>PT18164</name></trkpt>
<trkpt lat="53.347371" lon="-1.835421"><ele>551</ele><time>2020-08-05T14:49:55Z</time><name>PT18165</name></trkpt>
<trkpt lat="53.347376" lon="-1.835403"><ele>551</ele><time>2020-08-05T14:49:55Z</time><name>PT18166</name></trkpt>
<trkpt lat="53.347381" lon="-1.835382"><ele>551</ele><time>2020-08-05T14:49:57Z</time><name>PT18167</name></trkpt>
<trkpt lat="53.347388" lon="-1.835364"><ele>551</ele><time>2020-08-05T14:49:58Z</time><name>PT18168</name></trkpt>
<trkpt lat="53.347395" lon="-1.835345"><ele>551</ele><time>2020-08-05T14:49:58Z</time><name>PT18169</name></trkpt>
<trkpt lat="53.347402" lon="-1.835330"><ele>551</ele><time>2020-08-05T14:49:59Z</time><name>PT18170</name></trkpt>
<trkpt lat="53.347406" lon="-1.835314"><ele>552</ele><time>2020-08-05T14:50:01Z</time><name>PT18171</name></trkpt>
<trkpt lat="53.347408" lon="-1.835296"><ele>551</ele><time>2020-08-05T14:50:01Z</time><name>PT18172</name></trkpt>
<trkpt lat="53.347414" lon="-1.835276"><ele>551</ele><time>2020-08-05T14:50:02Z</time><name>PT18173</name></trkpt>
<trkpt lat="53.347422" lon="-1.835260"><ele>551</ele><time>2020-08-05T14:50:04Z</time><name>PT18174</name></trkpt>
<trkpt lat="53.347431" lon="-1.835245"><ele>551</ele><time>2020-08-05T14:50:04Z</time><name>PT18175</name></trkpt>
<trkpt lat="53.347441" lon="-1.835228"><ele>551</ele><time>2020-08-05T14:50:05Z</time><name>PT18176</name></trkpt>
<trkpt lat="53.347448" lon="-1.835214"><ele>551</ele><time>2020-08-05T14:50:07Z</time><name>PT18177</name></trkpt>
<trkpt lat="53.347451" lon="-1.835199"><ele>551</ele><time>2020-08-05T14:50:07Z</time><name>PT18178</name></trkpt>
<trkpt lat="53.347454" lon="-1.835182"><ele>550</ele><time>2020-08-05T14:50:08Z</time><name>PT18179</name></trkpt>
<trkpt lat="53.347459" lon="-1.835157"><ele>550</ele><time>2020-08-05T14:50:10Z</time><name>PT18180</name></trkpt>
<trkpt lat="53.347465" lon="-1.835138"><ele>551</ele><time>2020-08-05T14:50:10Z</time><name>PT18181</name></trkpt>
<trkpt lat="53.347470" lon="-1.835117"><ele>551</ele><time>2020-08-05T14:50:12Z</time><name>PT18182</name></trkpt>
<trkpt lat="53.347475" lon="-1.835096"><ele>551</ele><time>2020-08-05T14:50:13Z</time><name>PT18183</name></trkpt>
<trkpt lat="53.347481" lon="-1.835072"><ele>551</ele><time>2020-08-05T14:50:13Z</time><name>PT18184</name></trkpt>
<trkpt lat="53.347485" lon="-1.835057"><ele>551</ele><time>2020-08-05T14:50:14Z</time><name>PT18185</name></trkpt>
<trkpt lat="53.347488" lon="-1.835042"><ele>551</ele><time>2020-08-05T14:50:16Z</time><name>PT18186</name></trkpt>
<trkpt lat="53.347493" lon="-1.835023"><ele>551</ele><time>2020-08-05T14:50:16Z</time><name>PT18187</name></trkpt>
<trkpt lat="53.347498" lon="-1.835002"><ele>551</ele><time>2020-08-05T14:50:17Z</time><name>PT18188</name></trkpt>
<trkpt lat="53.347503" lon="-1.834980"><ele>552</ele><time>2020-08-05T14:50:19Z</time><name>PT18189</name></trkpt>
<trkpt lat="53.347508" lon="-1.834961"><ele>553</ele><time>2020-08-05T14:50:19Z</time><name>PT18190</name></trkpt>
<trkpt lat="53.347511" lon="-1.834941"><ele>553</ele><time>2020-08-05T14:50:20Z</time><name>PT18191</name></trkpt>
<trkpt lat="53.347514" lon="-1.834924"><ele>553</ele><time>2020-08-05T14:50:22Z</time><name>PT18192</name></trkpt>
<trkpt lat="53.347516" lon="-1.834908"><ele>553</ele><time>2020-08-05T14:50:22Z</time><name>PT18193</name></trkpt>
<trkpt lat="53.347520" lon="-1.834889"><ele>553</ele><time>2020-08-05T14:50:24Z</time><name>PT18194</name></trkpt>
<trkpt lat="53.347524" lon="-1.834868"><ele>553</ele><time>2020-08-05T14:50:25Z</time><name>PT18195</name></trkpt>
<trkpt lat="53.347529" lon="-1.834849"><ele>552</ele><time>2020-08-05T14:50:25Z</time><name>PT18196</name></trkpt>
<trkpt lat="53.347538" lon="-1.834826"><ele>553</ele><time>2020-08-05T14:50:27Z</time><name>PT18197</name></trkpt>
<trkpt lat="53.347544" lon="-1.834802"><ele>553</ele><time>2020-08-05T14:50:28Z</time><name>PT18198</name></trkpt>
<trkpt lat="53.347547" lon="-1.834778"><ele>554</ele><time>2020-08-05T14:50:28Z</time><name>PT18199</name></trkpt>
<trkpt lat="53.347550" lon="-1.834763"><ele>554</ele><time>2020-08-05T14:50:29Z</time><name>PT18200</name></trkpt>
<trkpt lat="53.347551" lon="-1.834745"><ele>553</ele><time>2020-08-05T14:50:31Z</time><name>PT18201</name></trkpt>
<trkpt lat="53.347552" lon="-1.834723"><ele>553</ele><time>2020-08-05T14:50:31Z</time><name>PT18202</name></trkpt>
<trkpt lat="53.347556" lon="-1.834693"><ele>554</ele><time>2020-08-05T14:50:32Z</time><name>PT18203</name></trkpt>
<trkpt lat="53.347562" lon="-1.834665"><ele>554</ele><time>2020-08-05T14:50:34Z</time><name>PT18204</name></trkpt>
<trkpt lat="53.347569" lon="-1.834638"><ele>554</ele><time>2020-08-05T14:50:34Z</time><name>PT18205</name></trkpt>
<trkpt lat="53.347575" lon="-1.834612"><ele>554</ele><time>2020-08-05T14:50:35Z</time><name>PT18206</name></trkpt>
<trkpt lat="53.347581" lon="-1.834589"><ele>554</ele><time>2020-08-05T14:50:37Z</time><name>PT18207</name></trkpt>
<trkpt lat="53.347585" lon="-1.834569"><ele>554</ele><time>2020-08-05T14:50:37Z</time><name>PT18208</name></trkpt>
<trkpt lat="53.347588" lon="-1.834551"><ele>554</ele><time>2020-08-05T14:50:39Z</time><name>PT18209</name></trkpt>
<trkpt lat="53.347590" lon="-1.834536"><ele>553</ele><time>2020-08-05T14:50:40Z</time><name>PT18210</name></trkpt>
<trkpt lat="53.347594" lon="-1.834517"><ele>554</ele><time>2020-08-05T14:50:40Z</time><name>PT18211</name></trkpt>
<trkpt lat="53.347598" lon="-1.834496"><ele>554</ele><time>2020-08-05T14:50:42Z</time><name>PT18212</name></trkpt>
<trkpt lat="53.347602" lon="-1.834475"><ele>555</ele><time>2020-08-05T14:50:43Z</time><name>PT18213</name></trkpt>
<trkpt lat="53.347608" lon="-1.834448"><ele>555</ele><time>2020-08-05T14:50:43Z</time><name>PT18214</name></trkpt>
<trkpt lat="53.347612" lon="-1.834420"><ele>555</ele><time>2020-08-05T14:50:44Z</time><name>PT18215</name></trkpt>
<trkpt lat="53.347614" lon="-1.834395"><ele>555</ele><time>2020-08-05T14:50:46Z</time><name>PT18216</name></trkpt>
<trkpt lat="53.347615" lon="-1.834382"><ele>555</ele><time>2020-08-05T14:50:46Z</time><name>PT18217</name></trkpt>
<trkpt lat="53.347616" lon="-1.834366"><ele>555</ele><time>2020-08-05T14:50:47Z</time><name>PT18218</name></trkpt>
<trkpt lat="53.347617" lon="-1.834346"><ele>555</ele><time>2020-08-05T14:50:49Z</time><name>PT18219</name></trkpt>
<trkpt lat="53.347622" lon="-1.834323"><ele>554</ele><time>2020-08-05T14:50:49Z</time><name>PT18220</name></trkpt>
<trkpt lat="53.347623" lon="-1.834297"><ele>554</ele><time>2020-08-05T14:50:50Z</time><name>PT18221</name></trkpt>
<trkpt lat="53.347624" lon="-1.834272"><ele>554</ele><time>2020-08-05T14:50:52Z</time><name>PT18222</name></trkpt>
<trkpt lat="53.347629" lon="-1.834245"><ele>555</ele><time>2020-08-05T14:50:52Z</time><name>PT18223</name></trkpt>
<trkpt lat="53.347634" lon="-1.834223"><ele>555</ele><time>2020-08-05T14:50:53Z</time><name>PT18224</name></trkpt>
<trkpt lat="53.347639" lon="-1.834198"><ele>555</ele><time>2020-08-05T14:50:55Z</time><name>PT18225</name></trkpt>
<trkpt lat="53.347642" lon="-1.834171"><ele>556</ele><time>2020-08-05T14:50:55Z</time><name>PT18226</name></trkpt>
<trkpt lat="53.347644" lon="-1.834149"><ele>555</ele><time>2020-08-05T14:50:56Z</time><name>PT18227</name></trkpt>
<trkpt lat="53.347644" lon="-1.834132"><ele>555</ele><time>2020-08-05T14:50:58Z</time><name>PT18228</name></trkpt>
<trkpt lat="53.347647" lon="-1.834115"><ele>555</ele><time>2020-08-05T14:50:58Z</time><name>PT18229</name></trkpt>
<trkpt lat="53.347649" lon="-1.834094"><ele>555</ele><time>2020-08-05T14:50:59Z</time><name>PT18230</name></trkpt>
<trkpt lat="53.347653" lon="-1.834074"><ele>554</ele><time>2020-08-05T14:51:01Z</time><name>PT18231</name></trkpt>
<trkpt lat="53.347658" lon="-1.834052"><ele>554</ele><time>2020-08-05T14:51:01Z</time><name>PT18232</name></trkpt>
<trkpt lat="53.347662" lon="-1.834032"><ele>555</ele><time>2020-08-05T14:51:02Z</time><name>PT18233</name></trkpt>
<trkpt lat="53.347670" lon="-1.834011"><ele>555</ele><time>2020-08-05T14:51:04Z</time><name>PT18234</name></trkpt>
<trkpt lat="53.347676" lon="-1.833991"><ele>555</ele><time>2020-08-05T14:51:04Z</time><name>PT18235</name></trkpt>
<trkpt lat="53.347679" lon="-1.833978"><ele>555</ele><time>2020-08-05T14:51:05Z</time><name>PT18236</name></trkpt>
<trkpt lat="53.347679" lon="-1.833962"><ele>554</ele><time>2020-08-05T14:51:07Z</time><name>PT18237</name></trkpt>
<trkpt lat="53.347679" lon="-1.833943"><ele>554</ele><time>2020-08-05T14:51:08Z</time><name>PT18238</name></trkpt>
<trkpt lat="53.347680" lon="-1.833923"><ele>554</ele><time>2020-08-05T14:51:08Z</time><name>PT18239</name></trkpt>
<trkpt lat="53.347680" lon="-1.833903"><ele>554</ele><time>2020-08-05T14:51:10Z</time><name>PT18240</name></trkpt>
<trkpt lat="53.347683" lon="-1.833882"><ele>555</ele><time>2020-08-05T14:51:10Z</time><name>PT18241</name></trkpt>
<trkpt lat="53.347687" lon="-1.833860"><ele>555</ele><time>2020-08-05T14:51:11Z</time><name>PT18242</name></trkpt>
<trkpt lat="53.347690" lon="-1.833837"><ele>555</ele><time>2020-08-05T14:51:13Z</time><name>PT18243</name></trkpt>
<trkpt lat="53.347693" lon="-1.833821"><ele>555</ele><time>2020-08-05T14:51:13Z</time><name>PT18244</name></trkpt>
<trkpt lat="53.347694" lon="-1.833804"><ele>555</ele><time>2020-08-05T14:51:14Z</time><name>PT18245</name></trkpt>
<trkpt lat="53.347695" lon="-1.833784"><ele>555</ele><time>2020-08-05T14:51:16Z</time><name>PT18246</name></trkpt>
<trkpt lat="53.347698" lon="-1.833767"><ele>555</ele><time>2020-08-05T14:51:16Z</time><name>PT18247</name></trkpt>
<trkpt lat="53.347702" lon="-1.833745"><ele>555</ele><time>2020-08-05T14:51:17Z</time><name>PT18248</name></trkpt>
<trkpt lat="53.347708" lon="-1.833722"><ele>555</ele><time>2020-08-05T14:51:19Z</time><name>PT18249</name></trkpt>
<trkpt lat="53.347713" lon="-1.833706"><ele>555</ele><time>2020-08-05T14:51:19Z</time><name>PT18250</name></trkpt>
<trkpt lat="53.347715" lon="-1.833690"><ele>555</ele><time>2020-08-05T14:51:20Z</time><name>PT18251</name></trkpt>
<trkpt lat="53.347715" lon="-1.833676"><ele>555</ele><time>2020-08-05T14:51:22Z</time><name>PT18252</name></trkpt>
<trkpt lat="53.347711" lon="-1.833655"><ele>555</ele><time>2020-08-05T14:51:22Z</time><name>PT18253</name></trkpt>
<trkpt lat="53.347710" lon="-1.833631"><ele>555</ele><time>2020-08-05T14:51:23Z</time><name>PT18254</name></trkpt>
<trkpt lat="53.347714" lon="-1.833606"><ele>555</ele><time>2020-08-05T14:51:25Z</time><name>PT18255</name></trkpt>
<trkpt lat="53.347715" lon="-1.833581"><ele>555</ele><time>2020-08-05T14:51:25Z</time><name>PT18256</name></trkpt>
<trkpt lat="53.347717" lon="-1.833559"><ele>555</ele><time>2020-08-05T14:51:26Z</time><name>PT18257</name></trkpt>
<trkpt lat="53.347719" lon="-1.833544"><ele>555</ele><time>2020-08-05T14:51:28Z</time><name>PT18258</name></trkpt>
<trkpt lat="53.347721" lon="-1.833529"><ele>555</ele><time>2020-08-05T14:51:28Z</time><name>PT18259</name></trkpt>
<trkpt lat="53.347726" lon="-1.833511"><ele>555</ele><time>2020-08-05T14:51:29Z</time><name>PT18260</name></trkpt>
<trkpt lat="53.347731" lon="-1.833489"><ele>555</ele><time>2020-08-05T14:51:31Z</time><name>PT18261</name></trkpt>
<trkpt lat="53.347733" lon="-1.833465"><ele>554</ele><time>2020-08-05T14:51:31Z</time><name>PT18262</name></trkpt>
<trkpt lat="53.347734" lon="-1.833441"><ele>555</ele><time>2020-08-05T14:51:32Z</time><name>PT18263</name></trkpt>
<trkpt lat="53.347734" lon="-1.833418"><ele>554</ele><time>2020-08-05T14:51:34Z</time><name>PT18264</name></trkpt>
<trkpt lat="53.347734" lon="-1.833395"><ele>554</ele><time>2020-08-05T14:51:34Z</time><name>PT18265</name></trkpt>
<trkpt lat="53.347734" lon="-1.833376"><ele>554</ele><time>2020-08-05T14:51:35Z</time><name>PT18266</name></trkpt>
<trkpt lat="53.347735" lon="-1.833356"><ele>554</ele><time>2020-08-05T14:51:37Z</time><name>PT18267</name></trkpt>
<trkpt lat="53.347740" lon="-1.833333"><ele>553</ele><time>2020-08-05T14:51:37Z</time><name>PT18268</name></trkpt>
<trkpt lat="53.347742" lon="-1.833313"><ele>553</ele><time>2020-08-05T14:51:38Z</time><name>PT18269</name></trkpt>
<trkpt lat="53.347747" lon="-1.833294"><ele>553</ele><time>2020-08-05T14:51:40Z</time><name>PT18270</name></trkpt>
<trkpt lat="53.347749" lon="-1.833270"><ele>553</ele><time>2020-08-05T14:51:40Z</time><name>PT18271</name></trkpt>
<trkpt lat="53.347752" lon="-1.833251"><ele>553</ele><time>2020-08-05T14:51:41Z</time><name>PT18272</name></trkpt>
<trkpt lat="53.347753" lon="-1.833231"><ele>553</ele><time>2020-08-05T14:51:43Z</time><name>PT18273</name></trkpt>
<trkpt lat="53.347753" lon="-1.833212"><ele>553</ele><time>2020-08-05T14:51:43Z</time><name>PT18274</name></trkpt>
<trkpt lat="53.347755" lon="-1.833188"><ele>553</ele><time>2020-08-05T14:51:44Z</time><name>PT18275</name></trkpt>
<trkpt lat="53.347757" lon="-1.833164"><ele>553</ele><time>2020-08-05T14:51:46Z</time><name>PT18276</name></trkpt>
<trkpt lat="53.347761" lon="-1.833142"><ele>553</ele><time>2020-08-05T14:51:46Z</time><name>PT18277</name></trkpt>
<trkpt lat="53.347764" lon="-1.833117"><ele>553</ele><time>2020-08-05T14:51:47Z</time><name>PT18278</name></trkpt>
<trkpt lat="53.347765" lon="-1.833101"><ele>553</ele><time>2020-08-05T14:51:49Z</time><name>PT18279</name></trkpt>
<trkpt lat="53.347766" lon="-1.833081"><ele>553</ele><time>2020-08-05T14:51:49Z</time><name>PT18280</name></trkpt>
<trkpt lat="53.347767" lon="-1.833061"><ele>553</ele><time>2020-08-05T14:51:50Z</time><name>PT18281</name></trkpt>
<trkpt lat="53.347770" lon="-1.833038"><ele>553</ele><time>2020-08-05T14:51:52Z</time><name>PT18282</name></trkpt>
<trkpt lat="53.347773" lon="-1.833015"><ele>553</ele><time>2020-08-05T14:51:52Z</time><name>PT18283</name></trkpt>
<trkpt lat="53.347776" lon="-1.832991"><ele>553</ele><time>2020-08-05T14:51:53Z</time><name>PT18284</name></trkpt>
<trkpt lat="53.347780" lon="-1.832960"><ele>554</ele><time>2020-08-05T14:51:55Z</time><name>PT18285</name></trkpt>
<trkpt lat="53.347783" lon="-1.832937"><ele>554</ele><time>2020-08-05T14:51:55Z</time><name>PT18286</name></trkpt>
<trkpt lat="53.347786" lon="-1.832918"><ele>553</ele><time>2020-08-05T14:51:56Z</time><name>PT18287</name></trkpt>
<trkpt lat="53.347789" lon="-1.832905"><ele>553</ele><time>2020-08-05T14:51:58Z</time><name>PT18288</name></trkpt>
<trkpt lat="53.347793" lon="-1.832885"><ele>553</ele><time>2020-08-05T14:51:58Z</time><name>PT18289</name></trkpt>
<trkpt lat="53.347798" lon="-1.832863"><ele>553</ele><time>2020-08-05T14:51:59Z</time><name>PT18290</name></trkpt>
<trkpt lat="53.347802" lon="-1.832839"><ele>553</ele><time>2020-08-05T14:52:01Z</time><name>PT18291</name></trkpt>
<trkpt lat="53.347803" lon="-1.832818"><ele>553</ele><time>2020-08-05T14:52:01Z</time><name>PT18292</name></trkpt>
<trkpt lat="53.347809" lon="-1.832793"><ele>553</ele><time>2020-08-05T14:52:02Z</time><name>PT18293</name></trkpt>
<trkpt lat="53.347815" lon="-1.832766"><ele>553</ele><time>2020-08-05T14:52:04Z</time><name>PT18294</name></trkpt>
<trkpt lat="53.347818" lon="-1.832745"><ele>553</ele><time>2020-08-05T14:52:04Z</time><name>PT18295</name></trkpt>
<trkpt lat="53.347822" lon="-1.832727"><ele>552</ele><time>2020-08-05T14:52:05Z</time><name>PT18296</name></trkpt>
<trkpt lat="53.347822" lon="-1.832710"><ele>552</ele><time>2020-08-05T14:52:07Z</time><name>PT18297</name></trkpt>
<trkpt lat="53.347824" lon="-1.832698"><ele>552</ele><time>2020-08-05T14:52:07Z</time><name>PT18298</name></trkpt>
<trkpt lat="53.347826" lon="-1.832679"><ele>552</ele><time>2020-08-05T14:52:08Z</time><name>PT18299</name></trkpt>
<trkpt lat="53.347827" lon="-1.832659"><ele>552</ele><time>2020-08-05T14:52:10Z</time><name>PT18300</name></trkpt>
<trkpt lat="53.347829" lon="-1.832636"><ele>552</ele><time>2020-08-05T14:52:10Z</time><name>PT18301</name></trkpt>
<trkpt lat="53.347833" lon="-1.832614"><ele>552</ele><time>2020-08-05T14:52:11Z</time><name>PT18302</name></trkpt>
<trkpt lat="53.347835" lon="-1.832587"><ele>552</ele><time>2020-08-05T14:52:13Z</time><name>PT18303</name></trkpt>
<trkpt lat="53.347839" lon="-1.832560"><ele>552</ele><time>2020-08-05T14:52:13Z</time><name>PT18304</name></trkpt>
<trkpt lat="53.347841" lon="-1.832540"><ele>551</ele><time>2020-08-05T14:52:14Z</time><name>PT18305</name></trkpt>
<trkpt lat="53.347842" lon="-1.832525"><ele>551</ele><time>2020-08-05T14:52:16Z</time><name>PT18306</name></trkpt>
<trkpt lat="53.347843" lon="-1.832505"><ele>551</ele><time>2020-08-05T14:52:16Z</time><name>PT18307</name></trkpt>
<trkpt lat="53.347845" lon="-1.832484"><ele>551</ele><time>2020-08-05T14:52:17Z</time><name>PT18308</name></trkpt>
<trkpt lat="53.347847" lon="-1.832462"><ele>551</ele><time>2020-08-05T14:52:19Z</time><name>PT18309</name></trkpt>
<trkpt lat="53.347850" lon="-1.832438"><ele>551</ele><time>2020-08-05T14:52:19Z</time><name>PT18310</name></trkpt>
<trkpt lat="53.347854" lon="-1.832414"><ele>552</ele><time>2020-08-05T14:52:20Z</time><name>PT18311</name></trkpt>
<trkpt lat="53.347857" lon="-1.832393"><ele>552</ele><time>2020-08-05T14:52:22Z</time><name>PT18312</name></trkpt>
<trkpt lat="53.347859" lon="-1.832374"><ele>551</ele><time>2020-08-05T14:52:22Z</time><name>PT18313</name></trkpt>
<trkpt lat="53.347859" lon="-1.832354"><ele>552</ele><time>2020-08-05T14:52:24Z</time><name>PT18314</name></trkpt>
<trkpt lat="53.347857" lon="-1.832337"><ele>552</ele><time>2020-08-05T14:52:25Z</time><name>PT18315</name></trkpt>
<trkpt lat="53.347858" lon="-1.832315"><ele>552</ele><time>2020-08-05T14:52:25Z</time><name>PT18316</name></trkpt>
<trkpt lat="53.347861" lon="-1.832292"><ele>552</ele><time>2020-08-05T14:52:26Z</time><name>PT18317</name></trkpt>
<trkpt lat="53.347864" lon="-1.832270"><ele>551</ele><time>2020-08-05T14:52:28Z</time><name>PT18318</name></trkpt>
<trkpt lat="53.347868" lon="-1.832251"><ele>552</ele><time>2020-08-05T14:52:28Z</time><name>PT18319</name></trkpt>
<trkpt lat="53.347874" lon="-1.832229"><ele>552</ele><time>2020-08-05T14:52:29Z</time><name>PT18320</name></trkpt>
<trkpt lat="53.347884" lon="-1.832202"><ele>553</ele><time>2020-08-05T14:52:31Z</time><name>PT18321</name></trkpt>
<trkpt lat="53.347891" lon="-1.832182"><ele>553</ele><time>2020-08-05T14:52:31Z</time><name>PT18322</name></trkpt>
<trkpt lat="53.347893" lon="-1.832166"><ele>552</ele><time>2020-08-05T14:52:32Z</time><name>PT18323</name></trkpt>
<trkpt lat="53.347895" lon="-1.832150"><ele>552</ele><time>2020-08-05T14:52:34Z</time><name>PT18324</name></trkpt>
<trkpt lat="53.347897" lon="-1.832133"><ele>552</ele><time>2020-08-05T14:52:34Z</time><name>PT18325</name></trkpt>
<trkpt lat="53.347901" lon="-1.832115"><ele>552</ele><time>2020-08-05T14:52:35Z</time><name>PT18326</name></trkpt>
<trkpt lat="53.347907" lon="-1.832098"><ele>551</ele><time>2020-08-05T14:52:37Z</time><name>PT18327</name></trkpt>
<trkpt lat="53.347913" lon="-1.832076"><ele>551</ele><time>2020-08-05T14:52:37Z</time><name>PT18328</name></trkpt>
<trkpt lat="53.347919" lon="-1.832052"><ele>552</ele><time>2020-08-05T14:52:38Z</time><name>PT18329</name></trkpt>
<trkpt lat="53.347922" lon="-1.832032"><ele>552</ele><time>2020-08-05T14:52:40Z</time><name>PT18330</name></trkpt>
<trkpt lat="53.347922" lon="-1.832016"><ele>551</ele><time>2020-08-05T14:52:40Z</time><name>PT18331</name></trkpt>
<trkpt lat="53.347920" lon="-1.832005"><ele>551</ele><time>2020-08-05T14:52:41Z</time><name>PT18332</name></trkpt>
<trkpt lat="53.347914" lon="-1.831993"><ele>551</ele><time>2020-08-05T14:52:43Z</time><name>PT18333</name></trkpt>
<trkpt lat="53.347906" lon="-1.831979"><ele>550</ele><time>2020-08-05T14:52:43Z</time><name>PT18334</name></trkpt>
<trkpt lat="53.347901" lon="-1.831963"><ele>549</ele><time>2020-08-05T14:52:44Z</time><name>PT18335</name></trkpt>
<trkpt lat="53.347899" lon="-1.831940"><ele>549</ele><time>2020-08-05T14:52:46Z</time><name>PT18336</name></trkpt>
<trkpt lat="53.347898" lon="-1.831919"><ele>549</ele><time>2020-08-05T14:52:46Z</time><name>PT18337</name></trkpt>
<trkpt lat="53.347896" lon="-1.831896"><ele>549</ele><time>2020-08-05T14:52:47Z</time><name>PT18338</name></trkpt>
<trkpt lat="53.347894" lon="-1.831869"><ele>549</ele><time>2020-08-05T14:52:49Z</time><name>PT18339</name></trkpt>
<trkpt lat="53.347891" lon="-1.831845"><ele>549</ele><time>2020-08-05T14:52:49Z</time><name>PT18340</name></trkpt>
<trkpt lat="53.347889" lon="-1.831821"><ele>549</ele><time>2020-08-05T14:52:50Z</time><name>PT18341</name></trkpt>
<trkpt lat="53.347888" lon="-1.831800"><ele>549</ele><time>2020-08-05T14:52:52Z</time><name>PT18342</name></trkpt>
<trkpt lat="53.347886" lon="-1.831783"><ele>549</ele><time>2020-08-05T14:52:52Z</time><name>PT18343</name></trkpt>
<trkpt lat="53.347883" lon="-1.831766"><ele>549</ele><time>2020-08-05T14:52:54Z</time><name>PT18344</name></trkpt>
<trkpt lat="53.347882" lon="-1.831747"><ele>548</ele><time>2020-08-05T14:52:55Z</time><name>PT18345</name></trkpt>
<trkpt lat="53.347882" lon="-1.831727"><ele>548</ele><time>2020-08-05T14:52:55Z</time><name>PT18346</name></trkpt>
<trkpt lat="53.347883" lon="-1.831703"><ele>549</ele><time>2020-08-05T14:52:56Z</time><name>PT18347</name></trkpt>
<trkpt lat="53.347885" lon="-1.831682"><ele>548</ele><time>2020-08-05T14:52:58Z</time><name>PT18348</name></trkpt>
<trkpt lat="53.347887" lon="-1.831668"><ele>548</ele><time>2020-08-05T14:52:58Z</time><name>PT18349</name></trkpt>
<trkpt lat="53.347889" lon="-1.831654"><ele>548</ele><time>2020-08-05T14:52:59Z</time><name>PT18350</name></trkpt>
<trkpt lat="53.347892" lon="-1.831636"><ele>548</ele><time>2020-08-05T14:53:01Z</time><name>PT18351</name></trkpt>
<trkpt lat="53.347892" lon="-1.831621"><ele>547</ele><time>2020-08-05T14:53:01Z</time><name>PT18352</name></trkpt>
<trkpt lat="53.347894" lon="-1.831601"><ele>547</ele><time>2020-08-05T14:53:02Z</time><name>PT18353</name></trkpt>
<trkpt lat="53.347894" lon="-1.831577"><ele>547</ele><time>2020-08-05T14:53:04Z</time><name>PT18354</name></trkpt>
<trkpt lat="53.347893" lon="-1.831555"><ele>547</ele><time>2020-08-05T14:53:04Z</time><name>PT18355</name></trkpt>
<trkpt lat="53.347891" lon="-1.831535"><ele>547</ele><time>2020-08-05T14:53:05Z</time><name>PT18356</name></trkpt>
<trkpt lat="53.347890" lon="-1.831522"><ele>546</ele><time>2020-08-05T14:53:07Z</time><name>PT18357</name></trkpt>
<trkpt lat="53.347889" lon="-1.831508"><ele>546</ele><time>2020-08-05T14:53:07Z</time><name>PT18358</name></trkpt>
<trkpt lat="53.347887" lon="-1.831488"><ele>546</ele><time>2020-08-05T14:53:08Z</time><name>PT18359</name></trkpt>
<trkpt lat="53.347885" lon="-1.831468"><ele>546</ele><time>2020-08-05T14:53:10Z</time><name>PT18360</name></trkpt>
<trkpt lat="53.347885" lon="-1.831446"><ele>546</ele><time>2020-08-05T14:53:10Z</time><name>PT18361</name></trkpt>
<trkpt lat="53.347883" lon="-1.831425"><ele>546</ele><time>2020-08-05T14:53:11Z</time><name>PT18362</name></trkpt>
<trkpt lat="53.347884" lon="-1.831410"><ele>546</ele><time>2020-08-05T14:53:13Z</time><name>PT18363</name></trkpt>
<trkpt lat="53.347883" lon="-1.831394"><ele>546</ele><time>2020-08-05T14:53:13Z</time><name>PT18364</name></trkpt>
<trkpt lat="53.347885" lon="-1.831380"><ele>546</ele><time>2020-08-05T14:53:15Z</time><name>PT18365</name></trkpt>
<trkpt lat="53.347891" lon="-1.831367"><ele>546</ele><time>2020-08-05T14:53:16Z</time><name>PT18366</name></trkpt>
<trkpt lat="53.347895" lon="-1.831351"><ele>545</ele><time>2020-08-05T14:53:16Z</time><name>PT18367</name></trkpt>
<trkpt lat="53.347897" lon="-1.831334"><ele>545</ele><time>2020-08-05T14:53:17Z</time><name>PT18368</name></trkpt>
<trkpt lat="53.347900" lon="-1.831315"><ele>546</ele><time>2020-08-05T14:53:19Z</time><name>PT18369</name></trkpt>
<trkpt lat="53.347900" lon="-1.831295"><ele>545</ele><time>2020-08-05T14:53:19Z</time><name>PT18370</name></trkpt>
<trkpt lat="53.347904" lon="-1.831283"><ele>545</ele><time>2020-08-05T14:53:20Z</time><name>PT18371</name></trkpt>
<trkpt lat="53.347904" lon="-1.831264"><ele>545</ele><time>2020-08-05T14:53:22Z</time><name>PT18372</name></trkpt>
<trkpt lat="53.347900" lon="-1.831239"><ele>544</ele><time>2020-08-05T14:53:22Z</time><name>PT18373</name></trkpt>
<trkpt lat="53.347899" lon="-1.831221"><ele>544</ele><time>2020-08-05T14:53:23Z</time><name>PT18374</name></trkpt>
<trkpt lat="53.347897" lon="-1.831206"><ele>544</ele><time>2020-08-05T14:53:25Z</time><name>PT18375</name></trkpt>
<trkpt lat="53.347896" lon="-1.831188"><ele>544</ele><time>2020-08-05T14:53:25Z</time><name>PT18376</name></trkpt>
<trkpt lat="53.347895" lon="-1.831170"><ele>544</ele><time>2020-08-05T14:53:26Z</time><name>PT18377</name></trkpt>
<trkpt lat="53.347890" lon="-1.831148"><ele>543</ele><time>2020-08-05T14:53:28Z</time><name>PT18378</name></trkpt>
<trkpt lat="53.347888" lon="-1.831125"><ele>543</ele><time>2020-08-05T14:53:28Z</time><name>PT18379</name></trkpt>
<trkpt lat="53.347888" lon="-1.831107"><ele>543</ele><time>2020-08-05T14:53:29Z</time><name>PT18380</name></trkpt>
<trkpt lat="53.347885" lon="-1.831092"><ele>543</ele><time>2020-08-05T14:53:31Z</time><name>PT18381</name></trkpt>
<trkpt lat="53.347882" lon="-1.831067"><ele>543</ele><time>2020-08-05T14:53:31Z</time><name>PT18382</name></trkpt>
<trkpt lat="53.347876" lon="-1.831045"><ele>543</ele><time>2020-08-05T14:53:32Z</time><name>PT18383</name></trkpt>
<trkpt lat="53.347869" lon="-1.831022"><ele>543</ele><time>2020-08-05T14:53:34Z</time><name>PT18384</name></trkpt>
<trkpt lat="53.347866" lon="-1.831000"><ele>543</ele><time>2020-08-05T14:53:34Z</time><name>PT18385</name></trkpt>
<trkpt lat="53.347864" lon="-1.830984"><ele>543</ele><time>2020-08-05T14:53:35Z</time><name>PT18386</name></trkpt>
<trkpt lat="53.347862" lon="-1.830966"><ele>543</ele><time>2020-08-05T14:53:37Z</time><name>PT18387</name></trkpt>
<trkpt lat="53.347864" lon="-1.830944"><ele>543</ele><time>2020-08-05T14:53:37Z</time><name>PT18388</name></trkpt>
<trkpt lat="53.347863" lon="-1.830919"><ele>543</ele><time>2020-08-05T14:53:38Z</time><name>PT18389</name></trkpt>
<trkpt lat="53.347863" lon="-1.830898"><ele>543</ele><time>2020-08-05T14:53:40Z</time><name>PT18390</name></trkpt>
<trkpt lat="53.347862" lon="-1.830871"><ele>543</ele><time>2020-08-05T14:53:40Z</time><name>PT18391</name></trkpt>
<trkpt lat="53.347860" lon="-1.830848"><ele>543</ele><time>2020-08-05T14:53:41Z</time><name>PT18392</name></trkpt>
<trkpt lat="53.347859" lon="-1.830831"><ele>543</ele><time>2020-08-05T14:53:43Z</time><name>PT18393</name></trkpt>
<trkpt lat="53.347856" lon="-1.830814"><ele>542</ele><time>2020-08-05T14:53:43Z</time><name>PT18394</name></trkpt>
<trkpt lat="53.347853" lon="-1.830796"><ele>542</ele><time>2020-08-05T14:53:44Z</time><name>PT18395</name></trkpt>
<trkpt lat="53.347852" lon="-1.830781"><ele>542</ele><time>2020-08-05T14:53:46Z</time><name>PT18396</name></trkpt>
<trkpt lat="53.347849" lon="-1.830759"><ele>541</ele><time>2020-08-05T14:53:46Z</time><name>PT18397</name></trkpt>
<trkpt lat="53.347848" lon="-1.830732"><ele>541</ele><time>2020-08-05T14:53:47Z</time><name>PT18398</name></trkpt>
<trkpt lat="53.347848" lon="-1.830705"><ele>541</ele><time>2020-08-05T14:53:49Z</time><name>PT18399</name></trkpt>
<trkpt lat="53.347847" lon="-1.830678"><ele>541</ele><time>2020-08-05T14:53:49Z</time><name>PT18400</name></trkpt>
<trkpt lat="53.347844" lon="-1.830652"><ele>542</ele><time>2020-08-05T14:53:50Z</time><name>PT18401</name></trkpt>
<trkpt lat="53.347839" lon="-1.830631"><ele>542</ele><time>2020-08-05T14:53:52Z</time><name>PT18402</name></trkpt>
<trkpt lat="53.347837" lon="-1.830618"><ele>542</ele><time>2020-08-05T14:53:52Z</time><name>PT18403</name></trkpt>
<trkpt lat="53.347833" lon="-1.830604"><ele>542</ele><time>2020-08-05T14:53:53Z</time><name>PT18404</name></trkpt>
<trkpt lat="53.347828" lon="-1.830586"><ele>541</ele><time>2020-08-05T14:53:55Z</time><name>PT18405</name></trkpt>
<trkpt lat="53.347825" lon="-1.830568"><ele>541</ele><time>2020-08-05T14:53:55Z</time><name>PT18406</name></trkpt>
<trkpt lat="53.347823" lon="-1.830550"><ele>541</ele><time>2020-08-05T14:53:56Z</time><name>PT18407</name></trkpt>
<trkpt lat="53.347823" lon="-1.830527"><ele>541</ele><time>2020-08-05T14:53:58Z</time><name>PT18408</name></trkpt>
<trkpt lat="53.347822" lon="-1.830507"><ele>541</ele><time>2020-08-05T14:53:58Z</time><name>PT18409</name></trkpt>
<trkpt lat="53.347820" lon="-1.830486"><ele>541</ele><time>2020-08-05T14:53:59Z</time><name>PT18410</name></trkpt>
<trkpt lat="53.347818" lon="-1.830470"><ele>540</ele><time>2020-08-05T14:54:01Z</time><name>PT18411</name></trkpt>
<trkpt lat="53.347816" lon="-1.830452"><ele>540</ele><time>2020-08-05T14:54:01Z</time><name>PT18412</name></trkpt>
<trkpt lat="53.347812" lon="-1.830429"><ele>540</ele><time>2020-08-05T14:54:02Z</time><name>PT18413</name></trkpt>
<trkpt lat="53.347811" lon="-1.830406"><ele>539</ele><time>2020-08-05T14:54:04Z</time><name>PT18414</name></trkpt>
<trkpt lat="53.347811" lon="-1.830381"><ele>539</ele><time>2020-08-05T14:54:04Z</time><name>PT18415</name></trkpt>
<trkpt lat="53.347811" lon="-1.830359"><ele>540</ele><time>2020-08-05T14:54:05Z</time><name>PT18416</name></trkpt>
<trkpt lat="53.347809" lon="-1.830336"><ele>540</ele><time>2020-08-05T14:54:07Z</time><name>PT18417</name></trkpt>
<trkpt lat="53.347805" lon="-1.830313"><ele>540</ele><time>2020-08-05T14:54:07Z</time><name>PT18418</name></trkpt>
<trkpt lat="53.347800" lon="-1.830290"><ele>540</ele><time>2020-08-05T14:54:08Z</time><name>PT18419</name></trkpt>
<trkpt lat="53.347797" lon="-1.830275"><ele>539</ele><time>2020-08-05T14:54:10Z</time><name>PT18420</name></trkpt>
<trkpt lat="53.347795" lon="-1.830260"><ele>539</ele><time>2020-08-05T14:54:10Z</time><name>PT18421</name></trkpt>
<trkpt lat="53.347792" lon="-1.830244"><ele>539</ele><time>2020-08-05T14:54:11Z</time><name>PT18422</name></trkpt>
<trkpt lat="53.347789" lon="-1.830223"><ele>539</ele><time>2020-08-05T14:54:13Z</time><name>PT18423</name></trkpt>
<trkpt lat="53.347789" lon="-1.830206"><ele>539</ele><time>2020-08-05T14:54:13Z</time><name>PT18424</name></trkpt>
<trkpt lat="53.347788" lon="-1.830183"><ele>539</ele><time>2020-08-05T14:54:14Z</time><name>PT18425</name></trkpt>
<trkpt lat="53.347788" lon="-1.830156"><ele>539</ele><time>2020-08-05T14:54:16Z</time><name>PT18426</name></trkpt>
<trkpt lat="53.347790" lon="-1.830133"><ele>539</ele><time>2020-08-05T14:54:16Z</time><name>PT18427</name></trkpt>
<trkpt lat="53.347789" lon="-1.830114"><ele>538</ele><time>2020-08-05T14:54:17Z</time><name>PT18428</name></trkpt>
<trkpt lat="53.347788" lon="-1.830100"><ele>538</ele><time>2020-08-05T14:54:19Z</time><name>PT18429</name></trkpt>
<trkpt lat="53.347785" lon="-1.830087"><ele>538</ele><time>2020-08-05T14:54:19Z</time><name>PT18430</name></trkpt>
<trkpt lat="53.347781" lon="-1.830068"><ele>537</ele><time>2020-08-05T14:54:20Z</time><name>PT18431</name></trkpt>
<trkpt lat="53.347778" lon="-1.830048"><ele>537</ele><time>2020-08-05T14:54:22Z</time><name>PT18432</name></trkpt>
<trkpt lat="53.347776" lon="-1.830027"><ele>537</ele><time>2020-08-05T14:54:22Z</time><name>PT18433</name></trkpt>
<trkpt lat="53.347774" lon="-1.830005"><ele>537</ele><time>2020-08-05T14:54:23Z</time><name>PT18434</name></trkpt>
<trkpt lat="53.347774" lon="-1.829981"><ele>538</ele><time>2020-08-05T14:54:25Z</time><name>PT18435</name></trkpt>
<trkpt lat="53.347773" lon="-1.829956"><ele>538</ele><time>2020-08-05T14:54:25Z</time><name>PT18436</name></trkpt>
<trkpt lat="53.347773" lon="-1.829940"><ele>537</ele><time>2020-08-05T14:54:26Z</time><name>PT18437</name></trkpt>
<trkpt lat="53.347771" lon="-1.829927"><ele>537</ele><time>2020-08-05T14:54:28Z</time><name>PT18438</name></trkpt>
<trkpt lat="53.347769" lon="-1.829911"><ele>537</ele><time>2020-08-05T14:54:28Z</time><name>PT18439</name></trkpt>
<trkpt lat="53.347767" lon="-1.829893"><ele>537</ele><time>2020-08-05T14:54:29Z</time><name>PT18440</name></trkpt>
<trkpt lat="53.347766" lon="-1.829875"><ele>537</ele><time>2020-08-05T14:54:31Z</time><name>PT18441</name></trkpt>
<trkpt lat="53.347765" lon="-1.829857"><ele>537</ele><time>2020-08-05T14:54:31Z</time><name>PT18442</name></trkpt>
<trkpt lat="53.347763" lon="-1.829836"><ele>537</ele><time>2020-08-05T14:54:32Z</time><name>PT18443</name></trkpt>
<trkpt lat="53.347759" lon="-1.829812"><ele>537</ele><time>2020-08-05T14:54:34Z</time><name>PT18444</name></trkpt>
<trkpt lat="53.347755" lon="-1.829788"><ele>537</ele><time>2020-08-05T14:54:34Z</time><name>PT18445</name></trkpt>
<trkpt lat="53.347754" lon="-1.829770"><ele>537</ele><time>2020-08-05T14:54:35Z</time><name>PT18446</name></trkpt>
<trkpt lat="53.347752" lon="-1.829756"><ele>537</ele><time>2020-08-05T14:54:37Z</time><name>PT18447</name></trkpt>
<trkpt lat="53.347749" lon="-1.829740"><ele>537</ele><time>2020-08-05T14:54:37Z</time><name>PT18448</name></trkpt>
<trkpt lat="53.347747" lon="-1.829721"><ele>536</ele><time>2020-08-05T14:54:39Z</time><name>PT18449</name></trkpt>
<trkpt lat="53.347743" lon="-1.829701"><ele>535</ele><time>2020-08-05T14:54:40Z</time><name>PT18450</name></trkpt>
<trkpt lat="53.347740" lon="-1.829679"><ele>535</ele><time>2020-08-05T14:54:40Z</time><name>PT18451</name></trkpt>
<trkpt lat="53.347739" lon="-1.829656"><ele>535</ele><time>2020-08-05T14:54:41Z</time><name>PT18452</name></trkpt>
<trkpt lat="53.347736" lon="-1.829633"><ele>535</ele><time>2020-08-05T14:54:43Z</time><name>PT18453</name></trkpt>
<trkpt lat="53.347733" lon="-1.829609"><ele>535</ele><time>2020-08-05T14:54:43Z</time><name>PT18454</name></trkpt>
<trkpt lat="53.347731" lon="-1.829593"><ele>535</ele><time>2020-08-05T14:54:44Z</time><name>PT18455</name></trkpt>
<trkpt lat="53.347729" lon="-1.829581"><ele>535</ele><time>2020-08-05T14:54:46Z</time><name>PT18456</name></trkpt>
<trkpt lat="53.347725" lon="-1.829569"><ele>534</ele><time>2020-08-05T14:54:46Z</time><name>PT18457</name></trkpt>
<trkpt lat="53.347725" lon="-1.829556"><ele>534</ele><time>2020-08-05T14:54:47Z</time><name>PT18458</name></trkpt>
<trkpt lat="53.347721" lon="-1.829543"><ele>534</ele><time>2020-08-05T14:54:49Z</time><name>PT18459</name></trkpt>
<trkpt lat="53.347718" lon="-1.829524"><ele>534</ele><time>2020-08-05T14:54:49Z</time><name>PT18460</name></trkpt>
<trkpt lat="53.347717" lon="-1.829505"><ele>534</ele><time>2020-08-05T14:54:50Z</time><name>PT18461</name></trkpt>
<trkpt lat="53.347715" lon="-1.829491"><ele>534</ele><time>2020-08-05T14:54:52Z</time><name>PT18462</name></trkpt>
<trkpt lat="53.347713" lon="-1.829483"><ele>534</ele><time>2020-08-05T14:54:52Z</time><name>PT18463</name></trkpt>
<trkpt lat="53.347713" lon="-1.829477"><ele>534</ele><time>2020-08-05T14:54:53Z</time><name>PT18464</name></trkpt>
<trkpt lat="53.347714" lon="-1.829473"><ele>534</ele><time>2020-08-05T14:54:55Z</time><name>PT18465</name></trkpt>
<trkpt lat="53.347713" lon="-1.829470"><ele>534</ele><time>2020-08-05T14:54:55Z</time><name>PT18466</name></trkpt>
<trkpt lat="53.347714" lon="-1.829462"><ele>533</ele><time>2020-08-05T14:54:56Z</time><name>PT18467</name></trkpt>
<trkpt lat="53.347714" lon="-1.829450"><ele>533</ele><time>2020-08-05T14:54:58Z</time><name>PT18468</name></trkpt>
<trkpt lat="53.347713" lon="-1.829444"><ele>533</ele><time>2020-08-05T14:54:58Z</time><name>PT18469</name></trkpt>
<trkpt lat="53.347711" lon="-1.829440"><ele>532</ele><time>2020-08-05T14:54:59Z</time><name>PT18470</name></trkpt>
<trkpt lat="53.347711" lon="-1.829433"><ele>532</ele><time>2020-08-05T14:55:01Z</time><name>PT18471</name></trkpt>
<trkpt lat="53.347718" lon="-1.829414"><ele>532</ele><time>2020-08-05T14:55:01Z</time><name>PT18472</name></trkpt>
<trkpt lat="53.347723" lon="-1.829394"><ele>531</ele><time>2020-08-05T14:55:02Z</time><name>PT18473</name></trkpt>
<trkpt lat="53.347725" lon="-1.829382"><ele>531</ele><time>2020-08-05T14:55:04Z</time><name>PT18474</name></trkpt>
<trkpt lat="53.347730" lon="-1.829366"><ele>531</ele><time>2020-08-05T14:55:04Z</time><name>PT18475</name></trkpt>
<trkpt lat="53.347733" lon="-1.829346"><ele>531</ele><time>2020-08-05T14:55:05Z</time><name>PT18476</name></trkpt>
<trkpt lat="53.347735" lon="-1.829327"><ele>531</ele><time>2020-08-05T14:55:07Z</time><name>PT18477</name></trkpt>
<trkpt lat="53.347733" lon="-1.829307"><ele>531</ele><time>2020-08-05T14:55:07Z</time><name>PT18478</name></trkpt>
<trkpt lat="53.347733" lon="-1.829298"><ele>530</ele><time>2020-08-05T14:55:08Z</time><name>PT18479</name></trkpt>
<trkpt lat="53.347731" lon="-1.829295"><ele>530</ele><time>2020-08-05T14:55:10Z</time><name>PT18480</name></trkpt>
<trkpt lat="53.347731" lon="-1.829294"><ele>530</ele><time>2020-08-05T14:55:10Z</time><name>PT18481</name></trkpt>
<trkpt lat="53.347731" lon="-1.829290"><ele>531</ele><time>2020-08-05T14:55:11Z</time><name>PT18482</name></trkpt>
<trkpt lat="53.347732" lon="-1.829283"><ele>531</ele><time>2020-08-05T14:55:19Z</time><name>PT18483</name></trkpt>
<trkpt lat="53.347733" lon="-1.829267"><ele>531</ele><time>2020-08-05T14:55:20Z</time><name>PT18484</name></trkpt>
<trkpt lat="53.347733" lon="-1.829246"><ele>531</ele><time>2020-08-05T14:55:22Z</time><name>PT18485</name></trkpt>
<trkpt lat="53.347739" lon="-1.829219"><ele>531</ele><time>2020-08-05T14:55:22Z</time><name>PT18486</name></trkpt>
<trkpt lat="53.347740" lon="-1.829192"><ele>531</ele><time>2020-08-05T14:55:23Z</time><name>PT18487</name></trkpt>
<trkpt lat="53.347744" lon="-1.829171"><ele>530</ele><time>2020-08-05T14:55:25Z</time><name>PT18488</name></trkpt>
<trkpt lat="53.347746" lon="-1.829152"><ele>529</ele><time>2020-08-05T14:55:25Z</time><name>PT18489</name></trkpt>
<trkpt lat="53.347746" lon="-1.829128"><ele>529</ele><time>2020-08-05T14:55:26Z</time><name>PT18490</name></trkpt>
<trkpt lat="53.347746" lon="-1.829115"><ele>529</ele><time>2020-08-05T14:55:28Z</time><name>PT18491</name></trkpt>
<trkpt lat="53.347745" lon="-1.829100"><ele>529</ele><time>2020-08-05T14:55:28Z</time><name>PT18492</name></trkpt>
<trkpt lat="53.347747" lon="-1.829081"><ele>529</ele><time>2020-08-05T14:55:30Z</time><name>PT18493</name></trkpt>
<trkpt lat="53.347746" lon="-1.829061"><ele>528</ele><time>2020-08-05T14:55:31Z</time><name>PT18494</name></trkpt>
<trkpt lat="53.347747" lon="-1.829037"><ele>528</ele><time>2020-08-05T14:55:31Z</time><name>PT18495</name></trkpt>
<trkpt lat="53.347749" lon="-1.829012"><ele>528</ele><time>2020-08-05T14:55:32Z</time><name>PT18496</name></trkpt>
<trkpt lat="53.347750" lon="-1.828984"><ele>528</ele><time>2020-08-05T14:55:34Z</time><name>PT18497</name></trkpt>
<trkpt lat="53.347748" lon="-1.828956"><ele>528</ele><time>2020-08-05T14:55:34Z</time><name>PT18498</name></trkpt>
<trkpt lat="53.347746" lon="-1.828930"><ele>528</ele><time>2020-08-05T14:55:35Z</time><name>PT18499</name></trkpt>
<trkpt lat="53.347745" lon="-1.828913"><ele>527</ele><time>2020-08-05T14:55:37Z</time><name>PT18500</name></trkpt>
<trkpt lat="53.347743" lon="-1.828897"><ele>527</ele><time>2020-08-05T14:55:37Z</time><name>PT18501</name></trkpt>
<trkpt lat="53.347740" lon="-1.828880"><ele>527</ele><time>2020-08-05T14:55:38Z</time><name>PT18502</name></trkpt>
<trkpt lat="53.347736" lon="-1.828860"><ele>527</ele><time>2020-08-05T14:55:40Z</time><name>PT18503</name></trkpt>
<trkpt lat="53.347732" lon="-1.828839"><ele>527</ele><time>2020-08-05T14:55:40Z</time><name>PT18504</name></trkpt>
<trkpt lat="53.347732" lon="-1.828815"><ele>526</ele><time>2020-08-05T14:55:41Z</time><name>PT18505</name></trkpt>
<trkpt lat="53.347731" lon="-1.828795"><ele>527</ele><time>2020-08-05T14:55:43Z</time><name>PT18506</name></trkpt>
<trkpt lat="53.347731" lon="-1.828775"><ele>527</ele><time>2020-08-05T14:55:43Z</time><name>PT18507</name></trkpt>
<trkpt lat="53.347730" lon="-1.828754"><ele>527</ele><time>2020-08-05T14:55:45Z</time><name>PT18508</name></trkpt>
<trkpt lat="53.347728" lon="-1.828732"><ele>527</ele><time>2020-08-05T14:55:46Z</time><name>PT18509</name></trkpt>
<trkpt lat="53.347728" lon="-1.828710"><ele>526</ele><time>2020-08-05T14:55:46Z</time><name>PT18510</name></trkpt>
<trkpt lat="53.347726" lon="-1.828695"><ele>526</ele><time>2020-08-05T14:55:47Z</time><name>PT18511</name></trkpt>
<trkpt lat="53.347725" lon="-1.828679"><ele>526</ele><time>2020-08-05T14:55:49Z</time><name>PT18512</name></trkpt>
<trkpt lat="53.347728" lon="-1.828660"><ele>525</ele><time>2020-08-05T14:55:49Z</time><name>PT18513</name></trkpt>
<trkpt lat="53.347729" lon="-1.828640"><ele>525</ele><time>2020-08-05T14:55:50Z</time><name>PT18514</name></trkpt>
<trkpt lat="53.347730" lon="-1.828621"><ele>525</ele><time>2020-08-05T14:55:52Z</time><name>PT18515</name></trkpt>
<trkpt lat="53.347732" lon="-1.828603"><ele>525</ele><time>2020-08-05T14:55:52Z</time><name>PT18516</name></trkpt>
<trkpt lat="53.347734" lon="-1.828584"><ele>525</ele><time>2020-08-05T14:55:53Z</time><name>PT18517</name></trkpt>
<trkpt lat="53.347734" lon="-1.828565"><ele>525</ele><time>2020-08-05T14:55:55Z</time><name>PT18518</name></trkpt>
<trkpt lat="53.347735" lon="-1.828542"><ele>524</ele><time>2020-08-05T14:55:55Z</time><name>PT18519</name></trkpt>
<trkpt lat="53.347733" lon="-1.828527"><ele>524</ele><time>2020-08-05T14:55:56Z</time><name>PT18520</name></trkpt>
<trkpt lat="53.347730" lon="-1.828512"><ele>524</ele><time>2020-08-05T14:55:58Z</time><name>PT18521</name></trkpt>
<trkpt lat="53.347730" lon="-1.828496"><ele>524</ele><time>2020-08-05T14:55:58Z</time><name>PT18522</name></trkpt>
<trkpt lat="53.347729" lon="-1.828479"><ele>524</ele><time>2020-08-05T14:55:59Z</time><name>PT18523</name></trkpt>
<trkpt lat="53.347729" lon="-1.828463"><ele>524</ele><time>2020-08-05T14:56:01Z</time><name>PT18524</name></trkpt>
<trkpt lat="53.347732" lon="-1.828448"><ele>523</ele><time>2020-08-05T14:56:01Z</time><name>PT18525</name></trkpt>
<trkpt lat="53.347732" lon="-1.828435"><ele>523</ele><time>2020-08-05T14:56:02Z</time><name>PT18526</name></trkpt>
<trkpt lat="53.347732" lon="-1.828420"><ele>523</ele><time>2020-08-05T14:56:04Z</time><name>PT18527</name></trkpt>
<trkpt lat="53.347732" lon="-1.828403"><ele>523</ele><time>2020-08-05T14:56:04Z</time><name>PT18528</name></trkpt>
<trkpt lat="53.347731" lon="-1.828382"><ele>522</ele><time>2020-08-05T14:56:05Z</time><name>PT18529</name></trkpt>
<trkpt lat="53.347730" lon="-1.828361"><ele>523</ele><time>2020-08-05T14:56:07Z</time><name>PT18530</name></trkpt>
<trkpt lat="53.347730" lon="-1.828344"><ele>523</ele><time>2020-08-05T14:56:07Z</time><name>PT18531</name></trkpt>
<trkpt lat="53.347729" lon="-1.828323"><ele>523</ele><time>2020-08-05T14:56:08Z</time><name>PT18532</name></trkpt>
<trkpt lat="53.347726" lon="-1.828304"><ele>522</ele><time>2020-08-05T14:56:10Z</time><name>PT18533</name></trkpt>
<trkpt lat="53.347722" lon="-1.828288"><ele>522</ele><time>2020-08-05T14:56:10Z</time><name>PT18534</name></trkpt>
<trkpt lat="53.347719" lon="-1.828274"><ele>522</ele><time>2020-08-05T14:56:11Z</time><name>PT18535</name></trkpt>
<trkpt lat="53.347717" lon="-1.828262"><ele>522</ele><time>2020-08-05T14:56:13Z</time><name>PT18536</name></trkpt>
<trkpt lat="53.347715" lon="-1.828243"><ele>522</ele><time>2020-08-05T14:56:13Z</time><name>PT18537</name></trkpt>
<trkpt lat="53.347712" lon="-1.828223"><ele>521</ele><time>2020-08-05T14:56:15Z</time><name>PT18538</name></trkpt>
<trkpt lat="53.347711" lon="-1.828202"><ele>521</ele><time>2020-08-05T14:56:16Z</time><name>PT18539</name></trkpt>
<trkpt lat="53.347710" lon="-1.828180"><ele>520</ele><time>2020-08-05T14:56:16Z</time><name>PT18540</name></trkpt>
<trkpt lat="53.347708" lon="-1.828159"><ele>520</ele><time>2020-08-05T14:56:18Z</time><name>PT18541</name></trkpt>
<trkpt lat="53.347708" lon="-1.828137"><ele>520</ele><time>2020-08-05T14:56:19Z</time><name>PT18542</name></trkpt>
<trkpt lat="53.347707" lon="-1.828112"><ele>520</ele><time>2020-08-05T14:56:19Z</time><name>PT18543</name></trkpt>
<trkpt lat="53.347705" lon="-1.828087"><ele>520</ele><time>2020-08-05T14:56:20Z</time><name>PT18544</name></trkpt>
<trkpt lat="53.347704" lon="-1.828067"><ele>520</ele><time>2020-08-05T14:56:22Z</time><name>PT18545</name></trkpt>
<trkpt lat="53.347702" lon="-1.828050"><ele>520</ele><time>2020-08-05T14:56:22Z</time><name>PT18546</name></trkpt>
<trkpt lat="53.347700" lon="-1.828039"><ele>520</ele><time>2020-08-05T14:56:23Z</time><name>PT18547</name></trkpt>
<trkpt lat="53.347696" lon="-1.828019"><ele>520</ele><time>2020-08-05T14:56:25Z</time><name>PT18548</name></trkpt>
<trkpt lat="53.347695" lon="-1.827997"><ele>519</ele><time>2020-08-05T14:56:25Z</time><name>PT18549</name></trkpt>
<trkpt lat="53.347694" lon="-1.827972"><ele>520</ele><time>2020-08-05T14:56:27Z</time><name>PT18550</name></trkpt>
<trkpt lat="53.347691" lon="-1.827948"><ele>520</ele><time>2020-08-05T14:56:28Z</time><name>PT18551</name></trkpt>
<trkpt lat="53.347689" lon="-1.827925"><ele>520</ele><time>2020-08-05T14:56:28Z</time><name>PT18552</name></trkpt>
<trkpt lat="53.347689" lon="-1.827909"><ele>520</ele><time>2020-08-05T14:56:29Z</time><name>PT18553</name></trkpt>
<trkpt lat="53.347685" lon="-1.827894"><ele>520</ele><time>2020-08-05T14:56:31Z</time><name>PT18554</name></trkpt>
<trkpt lat="53.347685" lon="-1.827874"><ele>520</ele><time>2020-08-05T14:56:31Z</time><name>PT18555</name></trkpt>
<trkpt lat="53.347686" lon="-1.827852"><ele>520</ele><time>2020-08-05T14:56:32Z</time><name>PT18556</name></trkpt>
<trkpt lat="53.347688" lon="-1.827832"><ele>520</ele><time>2020-08-05T14:56:34Z</time><name>PT18557</name></trkpt>
<trkpt lat="53.347690" lon="-1.827808"><ele>520</ele><time>2020-08-05T14:56:34Z</time><name>PT18558</name></trkpt>
<trkpt lat="53.347690" lon="-1.827786"><ele>520</ele><time>2020-08-05T14:56:35Z</time><name>PT18559</name></trkpt>
<trkpt lat="53.347692" lon="-1.827766"><ele>520</ele><time>2020-08-05T14:56:37Z</time><name>PT18560</name></trkpt>
<trkpt lat="53.347695" lon="-1.827751"><ele>520</ele><time>2020-08-05T14:56:37Z</time><name>PT18561</name></trkpt>
<trkpt lat="53.347695" lon="-1.827734"><ele>520</ele><time>2020-08-05T14:56:38Z</time><name>PT18562</name></trkpt>
<trkpt lat="53.347696" lon="-1.827712"><ele>519</ele><time>2020-08-05T14:56:40Z</time><name>PT18563</name></trkpt>
<trkpt lat="53.347698" lon="-1.827691"><ele>519</ele><time>2020-08-05T14:56:40Z</time><name>PT18564</name></trkpt>
<trkpt lat="53.347699" lon="-1.827670"><ele>520</ele><time>2020-08-05T14:56:41Z</time><name>PT18565</name></trkpt>
<trkpt lat="53.347702" lon="-1.827648"><ele>520</ele><time>2020-08-05T14:56:43Z</time><name>PT18566</name></trkpt>
<trkpt lat="53.347701" lon="-1.827626"><ele>520</ele><time>2020-08-05T14:56:43Z</time><name>PT18567</name></trkpt>
<trkpt lat="53.347700" lon="-1.827606"><ele>520</ele><time>2020-08-05T14:56:44Z</time><name>PT18568</name></trkpt>
<trkpt lat="53.347699" lon="-1.827591"><ele>520</ele><time>2020-08-05T14:56:46Z</time><name>PT18569</name></trkpt>
<trkpt lat="53.347697" lon="-1.827574"><ele>520</ele><time>2020-08-05T14:56:46Z</time><name>PT18570</name></trkpt>
<trkpt lat="53.347696" lon="-1.827550"><ele>520</ele><time>2020-08-05T14:56:47Z</time><name>PT18571</name></trkpt>
<trkpt lat="53.347695" lon="-1.827522"><ele>520</ele><time>2020-08-05T14:56:49Z</time><name>PT18572</name></trkpt>
<trkpt lat="53.347695" lon="-1.827496"><ele>520</ele><time>2020-08-05T14:56:49Z</time><name>PT18573</name></trkpt>
<trkpt lat="53.347695" lon="-1.827470"><ele>520</ele><time>2020-08-05T14:56:50Z</time><name>PT18574</name></trkpt>
<trkpt lat="53.347694" lon="-1.827443"><ele>520</ele><time>2020-08-05T14:56:52Z</time><name>PT18575</name></trkpt>
<trkpt lat="53.347694" lon="-1.827416"><ele>520</ele><time>2020-08-05T14:56:52Z</time><name>PT18576</name></trkpt>
<trkpt lat="53.347692" lon="-1.827396"><ele>519</ele><time>2020-08-05T14:56:53Z</time><name>PT18577</name></trkpt>
<trkpt lat="53.347691" lon="-1.827382"><ele>519</ele><time>2020-08-05T14:56:55Z</time><name>PT18578</name></trkpt>
<trkpt lat="53.347689" lon="-1.827363"><ele>519</ele><time>2020-08-05T14:56:55Z</time><name>PT18579</name></trkpt>
<trkpt lat="53.347690" lon="-1.827343"><ele>518</ele><time>2020-08-05T14:56:56Z</time><name>PT18580</name></trkpt>
<trkpt lat="53.347685" lon="-1.827308"><ele>519</ele><time>2020-08-05T14:56:58Z</time><name>PT18581</name></trkpt>
<trkpt lat="53.347681" lon="-1.827279"><ele>519</ele><time>2020-08-05T14:56:58Z</time><name>PT18582</name></trkpt>
<trkpt lat="53.347678" lon="-1.827257"><ele>519</ele><time>2020-08-05T14:56:59Z</time><name>PT18583</name></trkpt>
<trkpt lat="53.347678" lon="-1.827239"><ele>519</ele><time>2020-08-05T14:57:01Z</time><name>PT18584</name></trkpt>
<trkpt lat="53.347680" lon="-1.827220"><ele>519</ele><time>2020-08-05T14:57:01Z</time><name>PT18585</name></trkpt>
<trkpt lat="53.347683" lon="-1.827195"><ele>519</ele><time>2020-08-05T14:57:02Z</time><name>PT18586</name></trkpt>
<trkpt lat="53.347687" lon="-1.827170"><ele>519</ele><time>2020-08-05T14:57:04Z</time><name>PT18587</name></trkpt>
<trkpt lat="53.347690" lon="-1.827153"><ele>518</ele><time>2020-08-05T14:57:04Z</time><name>PT18588</name></trkpt>
<trkpt lat="53.347689" lon="-1.827133"><ele>518</ele><time>2020-08-05T14:57:05Z</time><name>PT18589</name></trkpt>
<trkpt lat="53.347687" lon="-1.827114"><ele>518</ele><time>2020-08-05T14:57:07Z</time><name>PT18590</name></trkpt>
<trkpt lat="53.347683" lon="-1.827095"><ele>518</ele><time>2020-08-05T14:57:07Z</time><name>PT18591</name></trkpt>
<trkpt lat="53.347680" lon="-1.827070"><ele>518</ele><time>2020-08-05T14:57:08Z</time><name>PT18592</name></trkpt>
<trkpt lat="53.347678" lon="-1.827044"><ele>517</ele><time>2020-08-05T14:57:10Z</time><name>PT18593</name></trkpt>
<trkpt lat="53.347677" lon="-1.827023"><ele>517</ele><time>2020-08-05T14:57:10Z</time><name>PT18594</name></trkpt>
<trkpt lat="53.347677" lon="-1.826996"><ele>517</ele><time>2020-08-05T14:57:11Z</time><name>PT18595</name></trkpt>
<trkpt lat="53.347674" lon="-1.826970"><ele>517</ele><time>2020-08-05T14:57:13Z</time><name>PT18596</name></trkpt>
<trkpt lat="53.347673" lon="-1.826951"><ele>517</ele><time>2020-08-05T14:57:13Z</time><name>PT18597</name></trkpt>
<trkpt lat="53.347671" lon="-1.826931"><ele>517</ele><time>2020-08-05T14:57:14Z</time><name>PT18598</name></trkpt>
<trkpt lat="53.347670" lon="-1.826913"><ele>517</ele><time>2020-08-05T14:57:16Z</time><name>PT18599</name></trkpt>
<trkpt lat="53.347670" lon="-1.826892"><ele>517</ele><time>2020-08-05T14:57:16Z</time><name>PT18600</name></trkpt>
<trkpt lat="53.347670" lon="-1.826868"><ele>517</ele><time>2020-08-05T14:57:17Z</time><name>PT18601</name></trkpt>
<trkpt lat="53.347672" lon="-1.826843"><ele>516</ele><time>2020-08-05T14:57:19Z</time><name>PT18602</name></trkpt>
<trkpt lat="53.347673" lon="-1.826814"><ele>517</ele><time>2020-08-05T14:57:19Z</time><name>PT18603</name></trkpt>
<trkpt lat="53.347672" lon="-1.826786"><ele>517</ele><time>2020-08-05T14:57:20Z</time><name>PT18604</name></trkpt>
<trkpt lat="53.347672" lon="-1.826757"><ele>517</ele><time>2020-08-05T14:57:22Z</time><name>PT18605</name></trkpt>
<trkpt lat="53.347674" lon="-1.826737"><ele>516</ele><time>2020-08-05T14:57:22Z</time><name>PT18606</name></trkpt>
<trkpt lat="53.347673" lon="-1.826723"><ele>516</ele><time>2020-08-05T14:57:23Z</time><name>PT18607</name></trkpt>
<trkpt lat="53.347671" lon="-1.826707"><ele>516</ele><time>2020-08-05T14:57:25Z</time><name>PT18608</name></trkpt>
<trkpt lat="53.347671" lon="-1.826687"><ele>516</ele><time>2020-08-05T14:57:25Z</time><name>PT18609</name></trkpt>
<trkpt lat="53.347671" lon="-1.826670"><ele>516</ele><time>2020-08-05T14:57:26Z</time><name>PT18610</name></trkpt>
<trkpt lat="53.347669" lon="-1.826650"><ele>516</ele><time>2020-08-05T14:57:28Z</time><name>PT18611</name></trkpt>
<trkpt lat="53.347670" lon="-1.826625"><ele>516</ele><time>2020-08-05T14:57:28Z</time><name>PT18612</name></trkpt>
<trkpt lat="53.347672" lon="-1.826599"><ele>516</ele><time>2020-08-05T14:57:29Z</time><name>PT18613</name></trkpt>
<trkpt lat="53.347672" lon="-1.826577"><ele>516</ele><time>2020-08-05T14:57:31Z</time><name>PT18614</name></trkpt>
<trkpt lat="53.347668" lon="-1.826564"><ele>516</ele><time>2020-08-05T14:57:31Z</time><name>PT18615</name></trkpt>
<trkpt lat="53.347665" lon="-1.826552"><ele>516</ele><time>2020-08-05T14:57:32Z</time><name>PT18616</name></trkpt>
<trkpt lat="53.347661" lon="-1.826533"><ele>515</ele><time>2020-08-05T14:57:34Z</time><name>PT18617</name></trkpt>
<trkpt lat="53.347658" lon="-1.826513"><ele>515</ele><time>2020-08-05T14:57:34Z</time><name>PT18618</name></trkpt>
<trkpt lat="53.347655" lon="-1.826491"><ele>515</ele><time>2020-08-05T14:57:35Z</time><name>PT18619</name></trkpt>
<trkpt lat="53.347653" lon="-1.826468"><ele>515</ele><time>2020-08-05T14:57:37Z</time><name>PT18620</name></trkpt>
<trkpt lat="53.347650" lon="-1.826444"><ele>515</ele><time>2020-08-05T14:57:37Z</time><name>PT18621</name></trkpt>
<trkpt lat="53.347648" lon="-1.826424"><ele>514</ele><time>2020-08-05T14:57:38Z</time><name>PT18622</name></trkpt>
<trkpt lat="53.347646" lon="-1.826410"><ele>514</ele><time>2020-08-05T14:57:40Z</time><name>PT18623</name></trkpt>
<trkpt lat="53.347641" lon="-1.826392"><ele>514</ele><time>2020-08-05T14:57:40Z</time><name>PT18624</name></trkpt>
<trkpt lat="53.347639" lon="-1.826377"><ele>514</ele><time>2020-08-05T14:57:41Z</time><name>PT18625</name></trkpt>
<trkpt lat="53.347637" lon="-1.826366"><ele>514</ele><time>2020-08-05T14:57:43Z</time><name>PT18626</name></trkpt>
<trkpt lat="53.347636" lon="-1.826359"><ele>514</ele><time>2020-08-05T14:57:43Z</time><name>PT18627</name></trkpt>
<trkpt lat="53.347634" lon="-1.826357"><ele>514</ele><time>2020-08-05T14:57:44Z</time><name>PT18628</name></trkpt>
<trkpt lat="53.347634" lon="-1.826355"><ele>514</ele><time>2020-08-05T14:57:46Z</time><name>PT18629</name></trkpt>
<trkpt lat="53.347632" lon="-1.826347"><ele>514</ele><time>2020-08-05T14:57:46Z</time><name>PT18630</name></trkpt>
<trkpt lat="53.347630" lon="-1.826341"><ele>514</ele><time>2020-08-05T14:57:48Z</time><name>PT18631</name></trkpt>
<trkpt lat="53.347629" lon="-1.826334"><ele>514</ele><time>2020-08-05T14:57:49Z</time><name>PT18632</name></trkpt>
<trkpt lat="53.347627" lon="-1.826319"><ele>514</ele><time>2020-08-05T14:57:52Z</time><name>PT18633</name></trkpt>
<trkpt lat="53.347623" lon="-1.826294"><ele>514</ele><time>2020-08-05T14:57:52Z</time><name>PT18634</name></trkpt>
<trkpt lat="53.347622" lon="-1.826270"><ele>514</ele><time>2020-08-05T14:57:53Z</time><name>PT18635</name></trkpt>
<trkpt lat="53.347623" lon="-1.826242"><ele>514</ele><time>2020-08-05T14:57:55Z</time><name>PT18636</name></trkpt>
<trkpt lat="53.347625" lon="-1.826216"><ele>514</ele><time>2020-08-05T14:57:55Z</time><name>PT18637</name></trkpt>
<trkpt lat="53.347625" lon="-1.826184"><ele>515</ele><time>2020-08-05T14:57:56Z</time><name>PT18638</name></trkpt>
<trkpt lat="53.347622" lon="-1.826153"><ele>515</ele><time>2020-08-05T14:57:58Z</time><name>PT18639</name></trkpt>
<trkpt lat="53.347620" lon="-1.826126"><ele>515</ele><time>2020-08-05T14:57:58Z</time><name>PT18640</name></trkpt>
<trkpt lat="53.347620" lon="-1.826100"><ele>515</ele><time>2020-08-05T14:57:59Z</time><name>PT18641</name></trkpt>
<trkpt lat="53.347621" lon="-1.826076"><ele>515</ele><time>2020-08-05T14:58:01Z</time><name>PT18642</name></trkpt>
<trkpt lat="53.347620" lon="-1.826059"><ele>515</ele><time>2020-08-05T14:58:01Z</time><name>PT18643</name></trkpt>
<trkpt lat="53.347620" lon="-1.826039"><ele>515</ele><time>2020-08-05T14:58:02Z</time><name>PT18644</name></trkpt>
<trkpt lat="53.347621" lon="-1.826015"><ele>515</ele><time>2020-08-05T14:58:04Z</time><name>PT18645</name></trkpt>
<trkpt lat="53.347620" lon="-1.825991"><ele>515</ele><time>2020-08-05T14:58:04Z</time><name>PT18646</name></trkpt>
<trkpt lat="53.347620" lon="-1.825966"><ele>515</ele><time>2020-08-05T14:58:05Z</time><name>PT18647</name></trkpt>
<trkpt lat="53.347620" lon="-1.825940"><ele>515</ele><time>2020-08-05T14:58:07Z</time><name>PT18648</name></trkpt>
<trkpt lat="53.347620" lon="-1.825917"><ele>515</ele><time>2020-08-05T14:58:07Z</time><name>PT18649</name></trkpt>
<trkpt lat="53.347620" lon="-1.825890"><ele>515</ele><time>2020-08-05T14:58:08Z</time><name>PT18650</name></trkpt>
<trkpt lat="53.347622" lon="-1.825859"><ele>515</ele><time>2020-08-05T14:58:10Z</time><name>PT18651</name></trkpt>
<trkpt lat="53.347623" lon="-1.825837"><ele>515</ele><time>2020-08-05T14:58:10Z</time><name>PT18652</name></trkpt>
<trkpt lat="53.347621" lon="-1.825821"><ele>515</ele><time>2020-08-05T14:58:11Z</time><name>PT18653</name></trkpt>
<trkpt lat="53.347620" lon="-1.825804"><ele>515</ele><time>2020-08-05T14:58:13Z</time><name>PT18654</name></trkpt>
<trkpt lat="53.347621" lon="-1.825784"><ele>515</ele><time>2020-08-05T14:58:13Z</time><name>PT18655</name></trkpt>
<trkpt lat="53.347622" lon="-1.825761"><ele>514</ele><time>2020-08-05T14:58:14Z</time><name>PT18656</name></trkpt>
<trkpt lat="53.347622" lon="-1.825736"><ele>514</ele><time>2020-08-05T14:58:16Z</time><name>PT18657</name></trkpt>
<trkpt lat="53.347625" lon="-1.825712"><ele>514</ele><time>2020-08-05T14:58:16Z</time><name>PT18658</name></trkpt>
<trkpt lat="53.347626" lon="-1.825687"><ele>514</ele><time>2020-08-05T14:58:17Z</time><name>PT18659</name></trkpt>
<trkpt lat="53.347629" lon="-1.825664"><ele>514</ele><time>2020-08-05T14:58:19Z</time><name>PT18660</name></trkpt>
<trkpt lat="53.347631" lon="-1.825648"><ele>514</ele><time>2020-08-05T14:58:19Z</time><name>PT18661</name></trkpt>
<trkpt lat="53.347631" lon="-1.825634"><ele>514</ele><time>2020-08-05T14:58:20Z</time><name>PT18662</name></trkpt>
<trkpt lat="53.347632" lon="-1.825613"><ele>513</ele><time>2020-08-05T14:58:22Z</time><name>PT18663</name></trkpt>
<trkpt lat="53.347634" lon="-1.825591"><ele>513</ele><time>2020-08-05T14:58:22Z</time><name>PT18664</name></trkpt>
<trkpt lat="53.347637" lon="-1.825573"><ele>513</ele><time>2020-08-05T14:58:23Z</time><name>PT18665</name></trkpt>
<trkpt lat="53.347640" lon="-1.825548"><ele>514</ele><time>2020-08-05T14:58:25Z</time><name>PT18666</name></trkpt>
<trkpt lat="53.347643" lon="-1.825522"><ele>513</ele><time>2020-08-05T14:58:25Z</time><name>PT18667</name></trkpt>
<trkpt lat="53.347642" lon="-1.825500"><ele>514</ele><time>2020-08-05T14:58:26Z</time><name>PT18668</name></trkpt>
<trkpt lat="53.347643" lon="-1.825482"><ele>514</ele><time>2020-08-05T14:58:28Z</time><name>PT18669</name></trkpt>
<trkpt lat="53.347644" lon="-1.825462"><ele>514</ele><time>2020-08-05T14:58:28Z</time><name>PT18670</name></trkpt>
<trkpt lat="53.347644" lon="-1.825442"><ele>514</ele><time>2020-08-05T14:58:29Z</time><name>PT18671</name></trkpt>
<trkpt lat="53.347644" lon="-1.825423"><ele>514</ele><time>2020-08-05T14:58:31Z</time><name>PT18672</name></trkpt>
<trkpt lat="53.347644" lon="-1.825396"><ele>514</ele><time>2020-08-05T14:58:31Z</time><name>PT18673</name></trkpt>
<trkpt lat="53.347648" lon="-1.825371"><ele>514</ele><time>2020-08-05T14:58:32Z</time><name>PT18674</name></trkpt>
<trkpt lat="53.347652" lon="-1.825347"><ele>514</ele><time>2020-08-05T14:58:34Z</time><name>PT18675</name></trkpt>
<trkpt lat="53.347654" lon="-1.825323"><ele>515</ele><time>2020-08-05T14:58:34Z</time><name>PT18676</name></trkpt>
<trkpt lat="53.347654" lon="-1.825306"><ele>514</ele><time>2020-08-05T14:58:35Z</time><name>PT18677</name></trkpt>
<trkpt lat="53.347654" lon="-1.825285"><ele>514</ele><time>2020-08-05T14:58:37Z</time><name>PT18678</name></trkpt>
<trkpt lat="53.347655" lon="-1.825261"><ele>514</ele><time>2020-08-05T14:58:37Z</time><name>PT18679</name></trkpt>
<trkpt lat="53.347656" lon="-1.825239"><ele>514</ele><time>2020-08-05T14:58:38Z</time><name>PT18680</name></trkpt>
<trkpt lat="53.347660" lon="-1.825215"><ele>514</ele><time>2020-08-05T14:58:40Z</time><name>PT18681</name></trkpt>
<trkpt lat="53.347663" lon="-1.825188"><ele>514</ele><time>2020-08-05T14:58:41Z</time><name>PT18682</name></trkpt>
<trkpt lat="53.347667" lon="-1.825164"><ele>515</ele><time>2020-08-05T14:58:41Z</time><name>PT18683</name></trkpt>
<trkpt lat="53.347669" lon="-1.825145"><ele>514</ele><time>2020-08-05T14:58:43Z</time><name>PT18684</name></trkpt>
<trkpt lat="53.347669" lon="-1.825128"><ele>514</ele><time>2020-08-05T14:58:43Z</time><name>PT18685</name></trkpt>
<trkpt lat="53.347670" lon="-1.825110"><ele>514</ele><time>2020-08-05T14:58:44Z</time><name>PT18686</name></trkpt>
<trkpt lat="53.347670" lon="-1.825088"><ele>514</ele><time>2020-08-05T14:58:46Z</time><name>PT18687</name></trkpt>
<trkpt lat="53.347673" lon="-1.825069"><ele>513</ele><time>2020-08-05T14:58:46Z</time><name>PT18688</name></trkpt>
<trkpt lat="53.347676" lon="-1.825044"><ele>513</ele><time>2020-08-05T14:58:47Z</time><name>PT18689</name></trkpt>
<trkpt lat="53.347679" lon="-1.825019"><ele>513</ele><time>2020-08-05T14:58:49Z</time><name>PT18690</name></trkpt>
<trkpt lat="53.347681" lon="-1.824998"><ele>513</ele><time>2020-08-05T14:58:49Z</time><name>PT18691</name></trkpt>
<trkpt lat="53.347680" lon="-1.824976"><ele>513</ele><time>2020-08-05T14:58:50Z</time><name>PT18692</name></trkpt>
<trkpt lat="53.347680" lon="-1.824957"><ele>513</ele><time>2020-08-05T14:58:52Z</time><name>PT18693</name></trkpt>
<trkpt lat="53.347681" lon="-1.824937"><ele>513</ele><time>2020-08-05T14:58:52Z</time><name>PT18694</name></trkpt>
<trkpt lat="53.347681" lon="-1.824912"><ele>512</ele><time>2020-08-05T14:58:53Z</time><name>PT18695</name></trkpt>
<trkpt lat="53.347683" lon="-1.824885"><ele>512</ele><time>2020-08-05T14:58:55Z</time><name>PT18696</name></trkpt>
<trkpt lat="53.347685" lon="-1.824860"><ele>512</ele><time>2020-08-05T14:58:55Z</time><name>PT18697</name></trkpt>
<trkpt lat="53.347686" lon="-1.824832"><ele>512</ele><time>2020-08-05T14:58:56Z</time><name>PT18698</name></trkpt>
<trkpt lat="53.347686" lon="-1.824805"><ele>513</ele><time>2020-08-05T14:58:58Z</time><name>PT18699</name></trkpt>
<trkpt lat="53.347685" lon="-1.824784"><ele>513</ele><time>2020-08-05T14:58:58Z</time><name>PT18700</name></trkpt>
<trkpt lat="53.347684" lon="-1.824769"><ele>512</ele><time>2020-08-05T14:58:59Z</time><name>PT18701</name></trkpt>
<trkpt lat="53.347684" lon="-1.824750"><ele>512</ele><time>2020-08-05T14:59:01Z</time><name>PT18702</name></trkpt>
<trkpt lat="53.347684" lon="-1.824726"><ele>512</ele><time>2020-08-05T14:59:01Z</time><name>PT18703</name></trkpt>
<trkpt lat="53.347685" lon="-1.824701"><ele>512</ele><time>2020-08-05T14:59:02Z</time><name>PT18704</name></trkpt>
<trkpt lat="53.347686" lon="-1.824679"><ele>512</ele><time>2020-08-05T14:59:04Z</time><name>PT18705</name></trkpt>
<trkpt lat="53.347688" lon="-1.824650"><ele>512</ele><time>2020-08-05T14:59:04Z</time><name>PT18706</name></trkpt>
<trkpt lat="53.347688" lon="-1.824626"><ele>513</ele><time>2020-08-05T14:59:05Z</time><name>PT18707</name></trkpt>
<trkpt lat="53.347687" lon="-1.824612"><ele>513</ele><time>2020-08-05T14:59:07Z</time><name>PT18708</name></trkpt>
<trkpt lat="53.347683" lon="-1.824597"><ele>513</ele><time>2020-08-05T14:59:07Z</time><name>PT18709</name></trkpt>
<trkpt lat="53.347682" lon="-1.824577"><ele>513</ele><time>2020-08-05T14:59:08Z</time><name>PT18710</name></trkpt>
<trkpt lat="53.347682" lon="-1.824553"><ele>513</ele><time>2020-08-05T14:59:10Z</time><name>PT18711</name></trkpt>
<trkpt lat="53.347683" lon="-1.824530"><ele>513</ele><time>2020-08-05T14:59:10Z</time><name>PT18712</name></trkpt>
<trkpt lat="53.347687" lon="-1.824508"><ele>513</ele><time>2020-08-05T14:59:11Z</time><name>PT18713</name></trkpt>
<trkpt lat="53.347689" lon="-1.824487"><ele>513</ele><time>2020-08-05T14:59:13Z</time><name>PT18714</name></trkpt>
<trkpt lat="53.347691" lon="-1.824465"><ele>512</ele><time>2020-08-05T14:59:13Z</time><name>PT18715</name></trkpt>
<trkpt lat="53.347689" lon="-1.824443"><ele>512</ele><time>2020-08-05T14:59:14Z</time><name>PT18716</name></trkpt>
<trkpt lat="53.347689" lon="-1.824425"><ele>512</ele><time>2020-08-05T14:59:16Z</time><name>PT18717</name></trkpt>
<trkpt lat="53.347689" lon="-1.824407"><ele>512</ele><time>2020-08-05T14:59:16Z</time><name>PT18718</name></trkpt>
<trkpt lat="53.347686" lon="-1.824387"><ele>512</ele><time>2020-08-05T14:59:17Z</time><name>PT18719</name></trkpt>
<trkpt lat="53.347683" lon="-1.824367"><ele>512</ele><time>2020-08-05T14:59:19Z</time><name>PT18720</name></trkpt>
<trkpt lat="53.347682" lon="-1.824347"><ele>511</ele><time>2020-08-05T14:59:19Z</time><name>PT18721</name></trkpt>
<trkpt lat="53.347682" lon="-1.824323"><ele>511</ele><time>2020-08-05T14:59:20Z</time><name>PT18722</name></trkpt>
<trkpt lat="53.347682" lon="-1.824295"><ele>511</ele><time>2020-08-05T14:59:22Z</time><name>PT18723</name></trkpt>
<trkpt lat="53.347684" lon="-1.824269"><ele>511</ele><time>2020-08-05T14:59:22Z</time><name>PT18724</name></trkpt>
<trkpt lat="53.347685" lon="-1.824250"><ele>511</ele><time>2020-08-05T14:59:23Z</time><name>PT18725</name></trkpt>
<trkpt lat="53.347685" lon="-1.824234"><ele>511</ele><time>2020-08-05T14:59:25Z</time><name>PT18726</name></trkpt>
<trkpt lat="53.347685" lon="-1.824211"><ele>511</ele><time>2020-08-05T14:59:25Z</time><name>PT18727</name></trkpt>
<trkpt lat="53.347687" lon="-1.824188"><ele>511</ele><time>2020-08-05T14:59:26Z</time><name>PT18728</name></trkpt>
<trkpt lat="53.347686" lon="-1.824167"><ele>512</ele><time>2020-08-05T14:59:28Z</time><name>PT18729</name></trkpt>
<trkpt lat="53.347689" lon="-1.824143"><ele>512</ele><time>2020-08-05T14:59:28Z</time><name>PT18730</name></trkpt>
<trkpt lat="53.347694" lon="-1.824119"><ele>511</ele><time>2020-08-05T14:59:29Z</time><name>PT18731</name></trkpt>
<trkpt lat="53.347696" lon="-1.824101"><ele>511</ele><time>2020-08-05T14:59:31Z</time><name>PT18732</name></trkpt>
<trkpt lat="53.347695" lon="-1.824087"><ele>510</ele><time>2020-08-05T14:59:31Z</time><name>PT18733</name></trkpt>
<trkpt lat="53.347692" lon="-1.824067"><ele>510</ele><time>2020-08-05T14:59:32Z</time><name>PT18734</name></trkpt>
<trkpt lat="53.347688" lon="-1.824045"><ele>510</ele><time>2020-08-05T14:59:34Z</time><name>PT18735</name></trkpt>
<trkpt lat="53.347683" lon="-1.824022"><ele>510</ele><time>2020-08-05T14:59:34Z</time><name>PT18736</name></trkpt>
<trkpt lat="53.347681" lon="-1.823998"><ele>510</ele><time>2020-08-05T14:59:35Z</time><name>PT18737</name></trkpt>
<trkpt lat="53.347680" lon="-1.823971"><ele>510</ele><time>2020-08-05T14:59:37Z</time><name>PT18738</name></trkpt>
<trkpt lat="53.347679" lon="-1.823943"><ele>510</ele><time>2020-08-05T14:59:37Z</time><name>PT18739</name></trkpt>
<trkpt lat="53.347678" lon="-1.823921"><ele>510</ele><time>2020-08-05T14:59:38Z</time><name>PT18740</name></trkpt>
<trkpt lat="53.347675" lon="-1.823905"><ele>510</ele><time>2020-08-05T14:59:40Z</time><name>PT18741</name></trkpt>
<trkpt lat="53.347673" lon="-1.823888"><ele>510</ele><time>2020-08-05T14:59:40Z</time><name>PT18742</name></trkpt>
<trkpt lat="53.347672" lon="-1.823869"><ele>509</ele><time>2020-08-05T14:59:41Z</time><name>PT18743</name></trkpt>
<trkpt lat="53.347671" lon="-1.823849"><ele>509</ele><time>2020-08-05T14:59:43Z</time><name>PT18744</name></trkpt>
<trkpt lat="53.347668" lon="-1.823827"><ele>509</ele><time>2020-08-05T14:59:43Z</time><name>PT18745</name></trkpt>
<trkpt lat="53.347668" lon="-1.823800"><ele>509</ele><time>2020-08-05T14:59:44Z</time><name>PT18746</name></trkpt>
<trkpt lat="53.347667" lon="-1.823776"><ele>509</ele><time>2020-08-05T14:59:46Z</time><name>PT18747</name></trkpt>
<trkpt lat="53.347664" lon="-1.823757"><ele>509</ele><time>2020-08-05T14:59:46Z</time><name>PT18748</name></trkpt>
<trkpt lat="53.347661" lon="-1.823741"><ele>509</ele><time>2020-08-05T14:59:47Z</time><name>PT18749</name></trkpt>
<trkpt lat="53.347658" lon="-1.823722"><ele>509</ele><time>2020-08-05T14:59:49Z</time><name>PT18750</name></trkpt>
<trkpt lat="53.347657" lon="-1.823700"><ele>508</ele><time>2020-08-05T14:59:49Z</time><name>PT18751</name></trkpt>
<trkpt lat="53.347656" lon="-1.823678"><ele>508</ele><time>2020-08-05T14:59:50Z</time><name>PT18752</name></trkpt>
<trkpt lat="53.347657" lon="-1.823651"><ele>508</ele><time>2020-08-05T14:59:52Z</time><name>PT18753</name></trkpt>
<trkpt lat="53.347653" lon="-1.823630"><ele>508</ele><time>2020-08-05T14:59:52Z</time><name>PT18754</name></trkpt>
<trkpt lat="53.347655" lon="-1.823611"><ele>508</ele><time>2020-08-05T14:59:53Z</time><name>PT18755</name></trkpt>
<trkpt lat="53.347655" lon="-1.823590"><ele>508</ele><time>2020-08-05T14:59:55Z</time><name>PT18756</name></trkpt>
<trkpt lat="53.347655" lon="-1.823573"><ele>508</ele><time>2020-08-05T14:59:55Z</time><name>PT18757</name></trkpt>
<trkpt lat="53.347656" lon="-1.823554"><ele>508</ele><time>2020-08-05T14:59:56Z</time><name>PT18758</name></trkpt>
<trkpt lat="53.347657" lon="-1.823536"><ele>507</ele><time>2020-08-05T14:59:58Z</time><name>PT18759</name></trkpt>
<trkpt lat="53.347656" lon="-1.823513"><ele>507</ele><time>2020-08-05T14:59:58Z</time><name>PT18760</name></trkpt>
<trkpt lat="53.347658" lon="-1.823488"><ele>507</ele><time>2020-08-05T14:59:59Z</time><name>PT18761</name></trkpt>
<trkpt lat="53.347662" lon="-1.823460"><ele>507</ele><time>2020-08-05T15:00:01Z</time><name>PT18762</name></trkpt>
<trkpt lat="53.347664" lon="-1.823433"><ele>508</ele><time>2020-08-05T15:00:01Z</time><name>PT18763</name></trkpt>
<trkpt lat="53.347667" lon="-1.823407"><ele>507</ele><time>2020-08-05T15:00:02Z</time><name>PT18764</name></trkpt>
<trkpt lat="53.347669" lon="-1.823385"><ele>507</ele><time>2020-08-05T15:00:04Z</time><name>PT18765</name></trkpt>
<trkpt lat="53.347670" lon="-1.823363"><ele>507</ele><time>2020-08-05T15:00:04Z</time><name>PT18766</name></trkpt>
<trkpt lat="53.347670" lon="-1.823344"><ele>507</ele><time>2020-08-05T15:00:05Z</time><name>PT18767</name></trkpt>
<trkpt lat="53.347669" lon="-1.823322"><ele>507</ele><time>2020-08-05T15:00:07Z</time><name>PT18768</name></trkpt>
<trkpt lat="53.347670" lon="-1.823296"><ele>507</ele><time>2020-08-05T15:00:07Z</time><name>PT18769</name></trkpt>
<trkpt lat="53.347670" lon="-1.823272"><ele>507</ele><time>2020-08-05T15:00:08Z</time><name>PT18770</name></trkpt>
<trkpt lat="53.347672" lon="-1.823247"><ele>507</ele><time>2020-08-05T15:00:10Z</time><name>PT18771</name></trkpt>
<trkpt lat="53.347675" lon="-1.823224"><ele>507</ele><time>2020-08-05T15:00:10Z</time><name>PT18772</name></trkpt>
<trkpt lat="53.347676" lon="-1.823199"><ele>507</ele><time>2020-08-05T15:00:11Z</time><name>PT18773</name></trkpt>
<trkpt lat="53.347676" lon="-1.823179"><ele>506</ele><time>2020-08-05T15:00:13Z</time><name>PT18774</name></trkpt>
<trkpt lat="53.347675" lon="-1.823160"><ele>507</ele><time>2020-08-05T15:00:13Z</time><name>PT18775</name></trkpt>
<trkpt lat="53.347674" lon="-1.823139"><ele>506</ele><time>2020-08-05T15:00:14Z</time><name>PT18776</name></trkpt>
<trkpt lat="53.347673" lon="-1.823121"><ele>507</ele><time>2020-08-05T15:00:16Z</time><name>PT18777</name></trkpt>
<trkpt lat="53.347673" lon="-1.823100"><ele>507</ele><time>2020-08-05T15:00:16Z</time><name>PT18778</name></trkpt>
<trkpt lat="53.347673" lon="-1.823076"><ele>507</ele><time>2020-08-05T15:00:17Z</time><name>PT18779</name></trkpt>
<trkpt lat="53.347674" lon="-1.823055"><ele>507</ele><time>2020-08-05T15:00:19Z</time><name>PT18780</name></trkpt>
<trkpt lat="53.347677" lon="-1.823031"><ele>507</ele><time>2020-08-05T15:00:19Z</time><name>PT18781</name></trkpt>
<trkpt lat="53.347679" lon="-1.823014"><ele>506</ele><time>2020-08-05T15:00:20Z</time><name>PT18782</name></trkpt>
<trkpt lat="53.347678" lon="-1.822998"><ele>507</ele><time>2020-08-05T15:00:22Z</time><name>PT18783</name></trkpt>
<trkpt lat="53.347678" lon="-1.822979"><ele>506</ele><time>2020-08-05T15:00:22Z</time><name>PT18784</name></trkpt>
<trkpt lat="53.347681" lon="-1.822958"><ele>506</ele><time>2020-08-05T15:00:24Z</time><name>PT18785</name></trkpt>
<trkpt lat="53.347684" lon="-1.822934"><ele>506</ele><time>2020-08-05T15:00:25Z</time><name>PT18786</name></trkpt>
<trkpt lat="53.347687" lon="-1.822906"><ele>506</ele><time>2020-08-05T15:00:25Z</time><name>PT18787</name></trkpt>
<trkpt lat="53.347688" lon="-1.822881"><ele>506</ele><time>2020-08-05T15:00:26Z</time><name>PT18788</name></trkpt>
<trkpt lat="53.347690" lon="-1.822856"><ele>506</ele><time>2020-08-05T15:00:28Z</time><name>PT18789</name></trkpt>
<trkpt lat="53.347691" lon="-1.822837"><ele>506</ele><time>2020-08-05T15:00:28Z</time><name>PT18790</name></trkpt>
<trkpt lat="53.347693" lon="-1.822820"><ele>506</ele><time>2020-08-05T15:00:29Z</time><name>PT18791</name></trkpt>
<trkpt lat="53.347695" lon="-1.822800"><ele>505</ele><time>2020-08-05T15:00:31Z</time><name>PT18792</name></trkpt>
<trkpt lat="53.347697" lon="-1.822777"><ele>505</ele><time>2020-08-05T15:00:31Z</time><name>PT18793</name></trkpt>
<trkpt lat="53.347699" lon="-1.822760"><ele>504</ele><time>2020-08-05T15:00:32Z</time><name>PT18794</name></trkpt>
<trkpt lat="53.347701" lon="-1.822744"><ele>504</ele><time>2020-08-05T15:00:34Z</time><name>PT18795</name></trkpt>
<trkpt lat="53.347705" lon="-1.822722"><ele>505</ele><time>2020-08-05T15:00:34Z</time><name>PT18796</name></trkpt>
<trkpt lat="53.347709" lon="-1.822697"><ele>506</ele><time>2020-08-05T15:00:36Z</time><name>PT18797</name></trkpt>
<trkpt lat="53.347710" lon="-1.822672"><ele>505</ele><time>2020-08-05T15:00:37Z</time><name>PT18798</name></trkpt>
<trkpt lat="53.347709" lon="-1.822656"><ele>505</ele><time>2020-08-05T15:00:37Z</time><name>PT18799</name></trkpt>
<trkpt lat="53.347707" lon="-1.822642"><ele>505</ele><time>2020-08-05T15:00:39Z</time><name>PT18800</name></trkpt>
<trkpt lat="53.347707" lon="-1.822622"><ele>505</ele><time>2020-08-05T15:00:40Z</time><name>PT18801</name></trkpt>
<trkpt lat="53.347707" lon="-1.822600"><ele>505</ele><time>2020-08-05T15:00:40Z</time><name>PT18802</name></trkpt>
<trkpt lat="53.347705" lon="-1.822578"><ele>505</ele><time>2020-08-05T15:00:41Z</time><name>PT18803</name></trkpt>
<trkpt lat="53.347702" lon="-1.822558"><ele>504</ele><time>2020-08-05T15:00:43Z</time><name>PT18804</name></trkpt>
<trkpt lat="53.347702" lon="-1.822535"><ele>504</ele><time>2020-08-05T15:00:43Z</time><name>PT18805</name></trkpt>
<trkpt lat="53.347705" lon="-1.822508"><ele>505</ele><time>2020-08-05T15:00:44Z</time><name>PT18806</name></trkpt>
<trkpt lat="53.347707" lon="-1.822486"><ele>505</ele><time>2020-08-05T15:00:46Z</time><name>PT18807</name></trkpt>
<trkpt lat="53.347711" lon="-1.822465"><ele>504</ele><time>2020-08-05T15:00:46Z</time><name>PT18808</name></trkpt>
<trkpt lat="53.347716" lon="-1.822440"><ele>504</ele><time>2020-08-05T15:00:47Z</time><name>PT18809</name></trkpt>
<trkpt lat="53.347716" lon="-1.822423"><ele>504</ele><time>2020-08-05T15:00:49Z</time><name>PT18810</name></trkpt>
<trkpt lat="53.347715" lon="-1.822407"><ele>504</ele><time>2020-08-05T15:00:49Z</time><name>PT18811</name></trkpt>
<trkpt lat="53.347714" lon="-1.822387"><ele>504</ele><time>2020-08-05T15:00:50Z</time><name>PT18812</name></trkpt>
<trkpt lat="53.347713" lon="-1.822366"><ele>504</ele><time>2020-08-05T15:00:52Z</time><name>PT18813</name></trkpt>
<trkpt lat="53.347713" lon="-1.822344"><ele>504</ele><time>2020-08-05T15:00:52Z</time><name>PT18814</name></trkpt>
<trkpt lat="53.347712" lon="-1.822325"><ele>504</ele><time>2020-08-05T15:00:53Z</time><name>PT18815</name></trkpt>
<trkpt lat="53.347712" lon="-1.822307"><ele>504</ele><time>2020-08-05T15:00:55Z</time><name>PT18816</name></trkpt>
<trkpt lat="53.347713" lon="-1.822288"><ele>504</ele><time>2020-08-05T15:00:55Z</time><name>PT18817</name></trkpt>
<trkpt lat="53.347714" lon="-1.822270"><ele>504</ele><time>2020-08-05T15:00:56Z</time><name>PT18818</name></trkpt>
<trkpt lat="53.347714" lon="-1.822251"><ele>504</ele><time>2020-08-05T15:00:58Z</time><name>PT18819</name></trkpt>
<trkpt lat="53.347716" lon="-1.822233"><ele>504</ele><time>2020-08-05T15:00:58Z</time><name>PT18820</name></trkpt>
<trkpt lat="53.347715" lon="-1.822220"><ele>504</ele><time>2020-08-05T15:00:59Z</time><name>PT18821</name></trkpt>
<trkpt lat="53.347713" lon="-1.822205"><ele>503</ele><time>2020-08-05T15:01:01Z</time><name>PT18822</name></trkpt>
<trkpt lat="53.347711" lon="-1.822185"><ele>503</ele><time>2020-08-05T15:01:01Z</time><name>PT18823</name></trkpt>
<trkpt lat="53.347711" lon="-1.822165"><ele>503</ele><time>2020-08-05T15:01:02Z</time><name>PT18824</name></trkpt>
<trkpt lat="53.347712" lon="-1.822140"><ele>504</ele><time>2020-08-05T15:01:04Z</time><name>PT18825</name></trkpt>
<trkpt lat="53.347712" lon="-1.822116"><ele>504</ele><time>2020-08-05T15:01:04Z</time><name>PT18826</name></trkpt>
<trkpt lat="53.347712" lon="-1.822093"><ele>504</ele><time>2020-08-05T15:01:05Z</time><name>PT18827</name></trkpt>
<trkpt lat="53.347716" lon="-1.822067"><ele>504</ele><time>2020-08-05T15:01:07Z</time><name>PT18828</name></trkpt>
<trkpt lat="53.347719" lon="-1.822036"><ele>505</ele><time>2020-08-05T15:01:07Z</time><name>PT18829</name></trkpt>
<trkpt lat="53.347720" lon="-1.822009"><ele>505</ele><time>2020-08-05T15:01:08Z</time><name>PT18830</name></trkpt>
<trkpt lat="53.347724" lon="-1.821985"><ele>505</ele><time>2020-08-05T15:01:10Z</time><name>PT18831</name></trkpt>
<trkpt lat="53.347726" lon="-1.821970"><ele>505</ele><time>2020-08-05T15:01:10Z</time><name>PT18832</name></trkpt>
<trkpt lat="53.347727" lon="-1.821955"><ele>505</ele><time>2020-08-05T15:01:11Z</time><name>PT18833</name></trkpt>
<trkpt lat="53.347728" lon="-1.821944"><ele>504</ele><time>2020-08-05T15:01:13Z</time><name>PT18834</name></trkpt>
<trkpt lat="53.347732" lon="-1.821922"><ele>504</ele><time>2020-08-05T15:01:13Z</time><name>PT18835</name></trkpt>
<trkpt lat="53.347735" lon="-1.821898"><ele>504</ele><time>2020-08-05T15:01:14Z</time><name>PT18836</name></trkpt>
<trkpt lat="53.347738" lon="-1.821880"><ele>504</ele><time>2020-08-05T15:01:16Z</time><name>PT18837</name></trkpt>
<trkpt lat="53.347743" lon="-1.821853"><ele>504</ele><time>2020-08-05T15:01:16Z</time><name>PT18838</name></trkpt>
<trkpt lat="53.347746" lon="-1.821823"><ele>504</ele><time>2020-08-05T15:01:17Z</time><name>PT18839</name></trkpt>
<trkpt lat="53.347749" lon="-1.821796"><ele>504</ele><time>2020-08-05T15:01:19Z</time><name>PT18840</name></trkpt>
<trkpt lat="53.347753" lon="-1.821777"><ele>504</ele><time>2020-08-05T15:01:19Z</time><name>PT18841</name></trkpt>
<trkpt lat="53.347751" lon="-1.821754"><ele>504</ele><time>2020-08-05T15:01:20Z</time><name>PT18842</name></trkpt>
<trkpt lat="53.347751" lon="-1.821731"><ele>504</ele><time>2020-08-05T15:01:22Z</time><name>PT18843</name></trkpt>
<trkpt lat="53.347754" lon="-1.821709"><ele>504</ele><time>2020-08-05T15:01:22Z</time><name>PT18844</name></trkpt>
<trkpt lat="53.347756" lon="-1.821685"><ele>503</ele><time>2020-08-05T15:01:23Z</time><name>PT18845</name></trkpt>
<trkpt lat="53.347761" lon="-1.821659"><ele>503</ele><time>2020-08-05T15:01:25Z</time><name>PT18846</name></trkpt>
<trkpt lat="53.347764" lon="-1.821638"><ele>504</ele><time>2020-08-05T15:01:25Z</time><name>PT18847</name></trkpt>
<trkpt lat="53.347768" lon="-1.821617"><ele>504</ele><time>2020-08-05T15:01:26Z</time><name>PT18848</name></trkpt>
<trkpt lat="53.347774" lon="-1.821591"><ele>504</ele><time>2020-08-05T15:01:28Z</time><name>PT18849</name></trkpt>
<trkpt lat="53.347778" lon="-1.821569"><ele>504</ele><time>2020-08-05T15:01:28Z</time><name>PT18850</name></trkpt>
<trkpt lat="53.347781" lon="-1.821551"><ele>504</ele><time>2020-08-05T15:01:29Z</time><name>PT18851</name></trkpt>
<trkpt lat="53.347781" lon="-1.821533"><ele>504</ele><time>2020-08-05T15:01:31Z</time><name>PT18852</name></trkpt>
<trkpt lat="53.347780" lon="-1.821506"><ele>503</ele><time>2020-08-05T15:01:31Z</time><name>PT18853</name></trkpt>
<trkpt lat="53.347783" lon="-1.821480"><ele>504</ele><time>2020-08-05T15:01:32Z</time><name>PT18854</name></trkpt>
<trkpt lat="53.347785" lon="-1.821455"><ele>504</ele><time>2020-08-05T15:01:34Z</time><name>PT18855</name></trkpt>
<trkpt lat="53.347786" lon="-1.821428"><ele>504</ele><time>2020-08-05T15:01:34Z</time><name>PT18856</name></trkpt>
<trkpt lat="53.347791" lon="-1.821407"><ele>505</ele><time>2020-08-05T15:01:35Z</time><name>PT18857</name></trkpt>
<trkpt lat="53.347793" lon="-1.821382"><ele>505</ele><time>2020-08-05T15:01:37Z</time><name>PT18858</name></trkpt>
<trkpt lat="53.347796" lon="-1.821366"><ele>505</ele><time>2020-08-05T15:01:37Z</time><name>PT18859</name></trkpt>
<trkpt lat="53.347797" lon="-1.821348"><ele>504</ele><time>2020-08-05T15:01:38Z</time><name>PT18860</name></trkpt>
<trkpt lat="53.347798" lon="-1.821326"><ele>504</ele><time>2020-08-05T15:01:40Z</time><name>PT18861</name></trkpt>
<trkpt lat="53.347802" lon="-1.821301"><ele>504</ele><time>2020-08-05T15:01:40Z</time><name>PT18862</name></trkpt>
<trkpt lat="53.347804" lon="-1.821277"><ele>504</ele><time>2020-08-05T15:01:42Z</time><name>PT18863</name></trkpt>
<trkpt lat="53.347808" lon="-1.821254"><ele>504</ele><time>2020-08-05T15:01:43Z</time><name>PT18864</name></trkpt>
<trkpt lat="53.347812" lon="-1.821229"><ele>505</ele><time>2020-08-05T15:01:43Z</time><name>PT18865</name></trkpt>
<trkpt lat="53.347813" lon="-1.821199"><ele>506</ele><time>2020-08-05T15:01:44Z</time><name>PT18866</name></trkpt>
<trkpt lat="53.347814" lon="-1.821170"><ele>506</ele><time>2020-08-05T15:01:46Z</time><name>PT18867</name></trkpt>
<trkpt lat="53.347818" lon="-1.821147"><ele>506</ele><time>2020-08-05T15:01:46Z</time><name>PT18868</name></trkpt>
<trkpt lat="53.347817" lon="-1.821130"><ele>506</ele><time>2020-08-05T15:01:47Z</time><name>PT18869</name></trkpt>
<trkpt lat="53.347814" lon="-1.821110"><ele>506</ele><time>2020-08-05T15:01:49Z</time><name>PT18870</name></trkpt>
<trkpt lat="53.347812" lon="-1.821090"><ele>505</ele><time>2020-08-05T15:01:49Z</time><name>PT18871</name></trkpt>
<trkpt lat="53.347812" lon="-1.821065"><ele>506</ele><time>2020-08-05T15:01:50Z</time><name>PT18872</name></trkpt>
<trkpt lat="53.347813" lon="-1.821040"><ele>506</ele><time>2020-08-05T15:01:52Z</time><name>PT18873</name></trkpt>
<trkpt lat="53.347819" lon="-1.821015"><ele>506</ele><time>2020-08-05T15:01:52Z</time><name>PT18874</name></trkpt>
<trkpt lat="53.347822" lon="-1.820991"><ele>507</ele><time>2020-08-05T15:01:53Z</time><name>PT18875</name></trkpt>
<trkpt lat="53.347825" lon="-1.820964"><ele>507</ele><time>2020-08-05T15:01:55Z</time><name>PT18876</name></trkpt>
<trkpt lat="53.347824" lon="-1.820938"><ele>507</ele><time>2020-08-05T15:01:55Z</time><name>PT18877</name></trkpt>
<trkpt lat="53.347824" lon="-1.820911"><ele>507</ele><time>2020-08-05T15:01:56Z</time><name>PT18878</name></trkpt>
<trkpt lat="53.347829" lon="-1.820888"><ele>507</ele><time>2020-08-05T15:01:58Z</time><name>PT18879</name></trkpt>
<trkpt lat="53.347832" lon="-1.820868"><ele>506</ele><time>2020-08-05T15:01:58Z</time><name>PT18880</name></trkpt>
<trkpt lat="53.347831" lon="-1.820846"><ele>506</ele><time>2020-08-05T15:01:59Z</time><name>PT18881</name></trkpt>
<trkpt lat="53.347831" lon="-1.820826"><ele>506</ele><time>2020-08-05T15:02:01Z</time><name>PT18882</name></trkpt>
<trkpt lat="53.347831" lon="-1.820813"><ele>506</ele><time>2020-08-05T15:02:01Z</time><name>PT18883</name></trkpt>
<trkpt lat="53.347829" lon="-1.820799"><ele>507</ele><time>2020-08-05T15:02:02Z</time><name>PT18884</name></trkpt>
<trkpt lat="53.347829" lon="-1.820782"><ele>506</ele><time>2020-08-05T15:02:04Z</time><name>PT18885</name></trkpt>
<trkpt lat="53.347830" lon="-1.820766"><ele>506</ele><time>2020-08-05T15:02:04Z</time><name>PT18886</name></trkpt>
<trkpt lat="53.347829" lon="-1.820739"><ele>506</ele><time>2020-08-05T15:02:05Z</time><name>PT18887</name></trkpt>
<trkpt lat="53.347831" lon="-1.820714"><ele>506</ele><time>2020-08-05T15:02:07Z</time><name>PT18888</name></trkpt>
<trkpt lat="53.347835" lon="-1.820685"><ele>506</ele><time>2020-08-05T15:02:07Z</time><name>PT18889</name></trkpt>
<trkpt lat="53.347837" lon="-1.820661"><ele>507</ele><time>2020-08-05T15:02:08Z</time><name>PT18890</name></trkpt>
<trkpt lat="53.347841" lon="-1.820636"><ele>507</ele><time>2020-08-05T15:02:10Z</time><name>PT18891</name></trkpt>
<trkpt lat="53.347843" lon="-1.820612"><ele>507</ele><time>2020-08-05T15:02:10Z</time><name>PT18892</name></trkpt>
<trkpt lat="53.347846" lon="-1.820589"><ele>507</ele><time>2020-08-05T15:02:11Z</time><name>PT18893</name></trkpt>
<trkpt lat="53.347844" lon="-1.820575"><ele>506</ele><time>2020-08-05T15:02:13Z</time><name>PT18894</name></trkpt>
<trkpt lat="53.347844" lon="-1.820559"><ele>506</ele><time>2020-08-05T15:02:13Z</time><name>PT18895</name></trkpt>
<trkpt lat="53.347845" lon="-1.820541"><ele>507</ele><time>2020-08-05T15:02:14Z</time><name>PT18896</name></trkpt>
<trkpt lat="53.347847" lon="-1.820517"><ele>507</ele><time>2020-08-05T15:02:16Z</time><name>PT18897</name></trkpt>
<trkpt lat="53.347847" lon="-1.820496"><ele>507</ele><time>2020-08-05T15:02:16Z</time><name>PT18898</name></trkpt>
<trkpt lat="53.347849" lon="-1.820473"><ele>507</ele><time>2020-08-05T15:02:17Z</time><name>PT18899</name></trkpt>
<trkpt lat="53.347850" lon="-1.820450"><ele>507</ele><time>2020-08-05T15:02:19Z</time><name>PT18900</name></trkpt>
<trkpt lat="53.347853" lon="-1.820423"><ele>508</ele><time>2020-08-05T15:02:19Z</time><name>PT18901</name></trkpt>
<trkpt lat="53.347856" lon="-1.820398"><ele>508</ele><time>2020-08-05T15:02:20Z</time><name>PT18902</name></trkpt>
<trkpt lat="53.347860" lon="-1.820371"><ele>509</ele><time>2020-08-05T15:02:22Z</time><name>PT18903</name></trkpt>
<trkpt lat="53.347863" lon="-1.820348"><ele>509</ele><time>2020-08-05T15:02:22Z</time><name>PT18904</name></trkpt>
<trkpt lat="53.347867" lon="-1.820327"><ele>508</ele><time>2020-08-05T15:02:23Z</time><name>PT18905</name></trkpt>
<trkpt lat="53.347868" lon="-1.820312"><ele>508</ele><time>2020-08-05T15:02:25Z</time><name>PT18906</name></trkpt>
<trkpt lat="53.347869" lon="-1.820293"><ele>508</ele><time>2020-08-05T15:02:25Z</time><name>PT18907</name></trkpt>
<trkpt lat="53.347868" lon="-1.820277"><ele>508</ele><time>2020-08-05T15:02:26Z</time><name>PT18908</name></trkpt>
<trkpt lat="53.347867" lon="-1.820256"><ele>508</ele><time>2020-08-05T15:02:28Z</time><name>PT18909</name></trkpt>
<trkpt lat="53.347869" lon="-1.820236"><ele>508</ele><time>2020-08-05T15:02:28Z</time><name>PT18910</name></trkpt>
<trkpt lat="53.347869" lon="-1.820214"><ele>508</ele><time>2020-08-05T15:02:29Z</time><name>PT18911</name></trkpt>
<trkpt lat="53.347869" lon="-1.820188"><ele>508</ele><time>2020-08-05T15:02:31Z</time><name>PT18912</name></trkpt>
<trkpt lat="53.347869" lon="-1.820164"><ele>508</ele><time>2020-08-05T15:02:31Z</time><name>PT18913</name></trkpt>
<trkpt lat="53.347872" lon="-1.820146"><ele>508</ele><time>2020-08-05T15:02:32Z</time><name>PT18914</name></trkpt>
<trkpt lat="53.347875" lon="-1.820131"><ele>508</ele><time>2020-08-05T15:02:34Z</time><name>PT18915</name></trkpt>
<trkpt lat="53.347877" lon="-1.820115"><ele>508</ele><time>2020-08-05T15:02:34Z</time><name>PT18916</name></trkpt>
<trkpt lat="53.347878" lon="-1.820099"><ele>507</ele><time>2020-08-05T15:02:35Z</time><name>PT18917</name></trkpt>
<trkpt lat="53.347877" lon="-1.820079"><ele>507</ele><time>2020-08-05T15:02:37Z</time><name>PT18918</name></trkpt>
<trkpt lat="53.347877" lon="-1.820057"><ele>507</ele><time>2020-08-05T15:02:37Z</time><name>PT18919</name></trkpt>
<trkpt lat="53.347877" lon="-1.820033"><ele>507</ele><time>2020-08-05T15:02:38Z</time><name>PT18920</name></trkpt>
<trkpt lat="53.347877" lon="-1.820006"><ele>507</ele><time>2020-08-05T15:02:40Z</time><name>PT18921</name></trkpt>
<trkpt lat="53.347875" lon="-1.819976"><ele>508</ele><time>2020-08-05T15:02:40Z</time><name>PT18922</name></trkpt>
<trkpt lat="53.347872" lon="-1.819949"><ele>508</ele><time>2020-08-05T15:02:41Z</time><name>PT18923</name></trkpt>
<trkpt lat="53.347871" lon="-1.819930"><ele>507</ele><time>2020-08-05T15:02:43Z</time><name>PT18924</name></trkpt>
<trkpt lat="53.347870" lon="-1.819909"><ele>507</ele><time>2020-08-05T15:02:43Z</time><name>PT18925</name></trkpt>
<trkpt lat="53.347866" lon="-1.819889"><ele>508</ele><time>2020-08-05T15:02:44Z</time><name>PT18926</name></trkpt>
<trkpt lat="53.347865" lon="-1.819866"><ele>507</ele><time>2020-08-05T15:02:46Z</time><name>PT18927</name></trkpt>
<trkpt lat="53.347868" lon="-1.819836"><ele>507</ele><time>2020-08-05T15:02:46Z</time><name>PT18928</name></trkpt>
<trkpt lat="53.347869" lon="-1.819811"><ele>506</ele><time>2020-08-05T15:02:47Z</time><name>PT18929</name></trkpt>
<trkpt lat="53.347868" lon="-1.819786"><ele>506</ele><time>2020-08-05T15:02:49Z</time><name>PT18930</name></trkpt>
<trkpt lat="53.347867" lon="-1.819764"><ele>506</ele><time>2020-08-05T15:02:49Z</time><name>PT18931</name></trkpt>
<trkpt lat="53.347868" lon="-1.819740"><ele>507</ele><time>2020-08-05T15:02:50Z</time><name>PT18932</name></trkpt>
<trkpt lat="53.347855" lon="-1.819716"><ele>508</ele><time>2020-08-05T15:02:52Z</time><name>PT18933</name></trkpt>
<trkpt lat="53.347852" lon="-1.819696"><ele>508</ele><time>2020-08-05T15:02:52Z</time><name>PT18934</name></trkpt>
<trkpt lat="53.347851" lon="-1.819677"><ele>508</ele><time>2020-08-05T15:02:53Z</time><name>PT18935</name></trkpt>
<trkpt lat="53.347850" lon="-1.819657"><ele>508</ele><time>2020-08-05T15:02:55Z</time><name>PT18936</name></trkpt>
<trkpt lat="53.347851" lon="-1.819642"><ele>508</ele><time>2020-08-05T15:02:55Z</time><name>PT18937</name></trkpt>
<trkpt lat="53.347850" lon="-1.819624"><ele>508</ele><time>2020-08-05T15:02:56Z</time><name>PT18938</name></trkpt>
<trkpt lat="53.347853" lon="-1.819596"><ele>507</ele><time>2020-08-05T15:02:58Z</time><name>PT18939</name></trkpt>
<trkpt lat="53.347851" lon="-1.819577"><ele>507</ele><time>2020-08-05T15:02:58Z</time><name>PT18940</name></trkpt>
<trkpt lat="53.347853" lon="-1.819552"><ele>507</ele><time>2020-08-05T15:02:59Z</time><name>PT18941</name></trkpt>
<trkpt lat="53.347852" lon="-1.819531"><ele>506</ele><time>2020-08-05T15:03:01Z</time><name>PT18942</name></trkpt>
<trkpt lat="53.347853" lon="-1.819511"><ele>506</ele><time>2020-08-05T15:03:01Z</time><name>PT18943</name></trkpt>
<trkpt lat="53.347853" lon="-1.819484"><ele>506</ele><time>2020-08-05T15:03:02Z</time><name>PT18944</name></trkpt>
<trkpt lat="53.347852" lon="-1.819458"><ele>507</ele><time>2020-08-05T15:03:04Z</time><name>PT18945</name></trkpt>
<trkpt lat="53.347858" lon="-1.819439"><ele>506</ele><time>2020-08-05T15:03:04Z</time><name>PT18946</name></trkpt>
<trkpt lat="53.347864" lon="-1.819416"><ele>505</ele><time>2020-08-05T15:03:05Z</time><name>PT18947</name></trkpt>
<trkpt lat="53.347865" lon="-1.819399"><ele>505</ele><time>2020-08-05T15:03:07Z</time><name>PT18948</name></trkpt>
<trkpt lat="53.347866" lon="-1.819383"><ele>505</ele><time>2020-08-05T15:03:07Z</time><name>PT18949</name></trkpt>
<trkpt lat="53.347865" lon="-1.819366"><ele>504</ele><time>2020-08-05T15:03:08Z</time><name>PT18950</name></trkpt>
<trkpt lat="53.347863" lon="-1.819346"><ele>505</ele><time>2020-08-05T15:03:10Z</time><name>PT18951</name></trkpt>
<trkpt lat="53.347858" lon="-1.819331"><ele>504</ele><time>2020-08-05T15:03:10Z</time><name>PT18952</name></trkpt>
<trkpt lat="53.347856" lon="-1.819311"><ele>504</ele><time>2020-08-05T15:03:11Z</time><name>PT18953</name></trkpt>
<trkpt lat="53.347855" lon="-1.819291"><ele>504</ele><time>2020-08-05T15:03:13Z</time><name>PT18954</name></trkpt>
<trkpt lat="53.347855" lon="-1.819267"><ele>504</ele><time>2020-08-05T15:03:13Z</time><name>PT18955</name></trkpt>
<trkpt lat="53.347853" lon="-1.819244"><ele>503</ele><time>2020-08-05T15:03:14Z</time><name>PT18956</name></trkpt>
<trkpt lat="53.347849" lon="-1.819221"><ele>503</ele><time>2020-08-05T15:03:16Z</time><name>PT18957</name></trkpt>
<trkpt lat="53.347844" lon="-1.819204"><ele>503</ele><time>2020-08-05T15:03:16Z</time><name>PT18958</name></trkpt>
<trkpt lat="53.347838" lon="-1.819183"><ele>503</ele><time>2020-08-05T15:03:17Z</time><name>PT18959</name></trkpt>
<trkpt lat="53.347832" lon="-1.819165"><ele>503</ele><time>2020-08-05T15:03:19Z</time><name>PT18960</name></trkpt>
<trkpt lat="53.347827" lon="-1.819150"><ele>503</ele><time>2020-08-05T15:03:19Z</time><name>PT18961</name></trkpt>
<trkpt lat="53.347823" lon="-1.819132"><ele>503</ele><time>2020-08-05T15:03:20Z</time><name>PT18962</name></trkpt>
<trkpt lat="53.347818" lon="-1.819111"><ele>503</ele><time>2020-08-05T15:03:22Z</time><name>PT18963</name></trkpt>
<trkpt lat="53.347813" lon="-1.819088"><ele>503</ele><time>2020-08-05T15:03:22Z</time><name>PT18964</name></trkpt>
<trkpt lat="53.347809" lon="-1.819069"><ele>503</ele><time>2020-08-05T15:03:23Z</time><name>PT18965</name></trkpt>
<trkpt lat="53.347805" lon="-1.819047"><ele>503</ele><time>2020-08-05T15:03:25Z</time><name>PT18966</name></trkpt>
<trkpt lat="53.347798" lon="-1.819026"><ele>503</ele><time>2020-08-05T15:03:25Z</time><name>PT18967</name></trkpt>
<trkpt lat="53.347793" lon="-1.819003"><ele>503</ele><time>2020-08-05T15:03:26Z</time><name>PT18968</name></trkpt>
<trkpt lat="53.347786" lon="-1.818975"><ele>503</ele><time>2020-08-05T15:03:28Z</time><name>PT18969</name></trkpt>
<trkpt lat="53.347782" lon="-1.818947"><ele>502</ele><time>2020-08-05T15:03:28Z</time><name>PT18970</name></trkpt>
<trkpt lat="53.347778" lon="-1.818925"><ele>502</ele><time>2020-08-05T15:03:29Z</time><name>PT18971</name></trkpt>
<trkpt lat="53.347774" lon="-1.818910"><ele>501</ele><time>2020-08-05T15:03:31Z</time><name>PT18972</name></trkpt>
<trkpt lat="53.347769" lon="-1.818892"><ele>501</ele><time>2020-08-05T15:03:31Z</time><name>PT18973</name></trkpt>
<trkpt lat="53.347763" lon="-1.818875"><ele>501</ele><time>2020-08-05T15:03:32Z</time><name>PT18974</name></trkpt>
<trkpt lat="53.347761" lon="-1.818854"><ele>501</ele><time>2020-08-05T15:03:34Z</time><name>PT18975</name></trkpt>
<trkpt lat="53.347754" lon="-1.818835"><ele>501</ele><time>2020-08-05T15:03:34Z</time><name>PT18976</name></trkpt>
<trkpt lat="53.347747" lon="-1.818814"><ele>500</ele><time>2020-08-05T15:03:35Z</time><name>PT18977</name></trkpt>
<trkpt lat="53.347742" lon="-1.818793"><ele>500</ele><time>2020-08-05T15:03:37Z</time><name>PT18978</name></trkpt>
<trkpt lat="53.347738" lon="-1.818769"><ele>500</ele><time>2020-08-05T15:03:37Z</time><name>PT18979</name></trkpt>
<trkpt lat="53.347732" lon="-1.818742"><ele>500</ele><time>2020-08-05T15:03:38Z</time><name>PT18980</name></trkpt>
<trkpt lat="53.347727" lon="-1.818717"><ele>500</ele><time>2020-08-05T15:03:40Z</time><name>PT18981</name></trkpt>
<trkpt lat="53.347720" lon="-1.818691"><ele>500</ele><time>2020-08-05T15:03:40Z</time><name>PT18982</name></trkpt>
<trkpt lat="53.347717" lon="-1.818667"><ele>500</ele><time>2020-08-05T15:03:41Z</time><name>PT18983</name></trkpt>
<trkpt lat="53.347714" lon="-1.818649"><ele>499</ele><time>2020-08-05T15:03:43Z</time><name>PT18984</name></trkpt>
<trkpt lat="53.347710" lon="-1.818636"><ele>499</ele><time>2020-08-05T15:03:43Z</time><name>PT18985</name></trkpt>
<trkpt lat="53.347705" lon="-1.818621"><ele>499</ele><time>2020-08-05T15:03:44Z</time><name>PT18986</name></trkpt>
<trkpt lat="53.347701" lon="-1.818607"><ele>498</ele><time>2020-08-05T15:03:46Z</time><name>PT18987</name></trkpt>
<trkpt lat="53.347698" lon="-1.818585"><ele>498</ele><time>2020-08-05T15:03:46Z</time><name>PT18988</name></trkpt>
<trkpt lat="53.347695" lon="-1.818561"><ele>498</ele><time>2020-08-05T15:03:47Z</time><name>PT18989</name></trkpt>
<trkpt lat="53.347689" lon="-1.818541"><ele>498</ele><time>2020-08-05T15:03:49Z</time><name>PT18990</name></trkpt>
<trkpt lat="53.347684" lon="-1.818524"><ele>497</ele><time>2020-08-05T15:03:49Z</time><name>PT18991</name></trkpt>
<trkpt lat="53.347676" lon="-1.818503"><ele>497</ele><time>2020-08-05T15:03:50Z</time><name>PT18992</name></trkpt>
<trkpt lat="53.347667" lon="-1.818484"><ele>497</ele><time>2020-08-05T15:03:52Z</time><name>PT18993</name></trkpt>
<trkpt lat="53.347659" lon="-1.818464"><ele>497</ele><time>2020-08-05T15:03:52Z</time><name>PT18994</name></trkpt>
<trkpt lat="53.347652" lon="-1.818444"><ele>497</ele><time>2020-08-05T15:03:53Z</time><name>PT18995</name></trkpt>
<trkpt lat="53.347646" lon="-1.818429"><ele>497</ele><time>2020-08-05T15:03:55Z</time><name>PT18996</name></trkpt>
<trkpt lat="53.347639" lon="-1.818411"><ele>496</ele><time>2020-08-05T15:03:55Z</time><name>PT18997</name></trkpt>
<trkpt lat="53.347634" lon="-1.818388"><ele>496</ele><time>2020-08-05T15:03:56Z</time><name>PT18998</name></trkpt>
<trkpt lat="53.347630" lon="-1.818361"><ele>495</ele><time>2020-08-05T15:03:58Z</time><name>PT18999</name></trkpt>
<trkpt lat="53.347628" lon="-1.818332"><ele>495</ele><time>2020-08-05T15:03:58Z</time><name>PT19000</name></trkpt>
<trkpt lat="53.347626" lon="-1.818304"><ele>495</ele><time>2020-08-05T15:03:59Z</time><name>PT19001</name></trkpt>
<trkpt lat="53.347625" lon="-1.818280"><ele>494</ele><time>2020-08-05T15:04:01Z</time><name>PT19002</name></trkpt>
<trkpt lat="53.347627" lon="-1.818259"><ele>494</ele><time>2020-08-05T15:04:01Z</time><name>PT19003</name></trkpt>
<trkpt lat="53.347627" lon="-1.818235"><ele>494</ele><time>2020-08-05T15:04:02Z</time><name>PT19004</name></trkpt>
<trkpt lat="53.347626" lon="-1.818209"><ele>494</ele><time>2020-08-05T15:04:04Z</time><name>PT19005</name></trkpt>
<trkpt lat="53.347623" lon="-1.818178"><ele>495</ele><time>2020-08-05T15:04:04Z</time><name>PT19006</name></trkpt>
<trkpt lat="53.347616" lon="-1.818154"><ele>495</ele><time>2020-08-05T15:04:05Z</time><name>PT19007</name></trkpt>
<trkpt lat="53.347613" lon="-1.818134"><ele>495</ele><time>2020-08-05T15:04:07Z</time><name>PT19008</name></trkpt>
<trkpt lat="53.347611" lon="-1.818123"><ele>494</ele><time>2020-08-05T15:04:07Z</time><name>PT19009</name></trkpt>
<trkpt lat="53.347607" lon="-1.818105"><ele>494</ele><time>2020-08-05T15:04:08Z</time><name>PT19010</name></trkpt>
<trkpt lat="53.347601" lon="-1.818085"><ele>493</ele><time>2020-08-05T15:04:10Z</time><name>PT19011</name></trkpt>
<trkpt lat="53.347595" lon="-1.818063"><ele>493</ele><time>2020-08-05T15:04:10Z</time><name>PT19012</name></trkpt>
<trkpt lat="53.347591" lon="-1.818036"><ele>493</ele><time>2020-08-05T15:04:11Z</time><name>PT19013</name></trkpt>
<trkpt lat="53.347588" lon="-1.818011"><ele>493</ele><time>2020-08-05T15:04:13Z</time><name>PT19014</name></trkpt>
<trkpt lat="53.347585" lon="-1.817988"><ele>493</ele><time>2020-08-05T15:04:13Z</time><name>PT19015</name></trkpt>
<trkpt lat="53.347586" lon="-1.817966"><ele>493</ele><time>2020-08-05T15:04:14Z</time><name>PT19016</name></trkpt>
<trkpt lat="53.347587" lon="-1.817941"><ele>492</ele><time>2020-08-05T15:04:16Z</time><name>PT19017</name></trkpt>
<trkpt lat="53.347587" lon="-1.817914"><ele>492</ele><time>2020-08-05T15:04:16Z</time><name>PT19018</name></trkpt>
<trkpt lat="53.347589" lon="-1.817890"><ele>492</ele><time>2020-08-05T15:04:17Z</time><name>PT19019</name></trkpt>
<trkpt lat="53.347590" lon="-1.817867"><ele>491</ele><time>2020-08-05T15:04:19Z</time><name>PT19020</name></trkpt>
<trkpt lat="53.347589" lon="-1.817849"><ele>491</ele><time>2020-08-05T15:04:19Z</time><name>PT19021</name></trkpt>
<trkpt lat="53.347587" lon="-1.817833"><ele>491</ele><time>2020-08-05T15:04:20Z</time><name>PT19022</name></trkpt>
<trkpt lat="53.347585" lon="-1.817815"><ele>491</ele><time>2020-08-05T15:04:22Z</time><name>PT19023</name></trkpt>
<trkpt lat="53.347583" lon="-1.817793"><ele>490</ele><time>2020-08-05T15:04:22Z</time><name>PT19024</name></trkpt>
<trkpt lat="53.347580" lon="-1.817772"><ele>490</ele><time>2020-08-05T15:04:23Z</time><name>PT19025</name></trkpt>
<trkpt lat="53.347580" lon="-1.817746"><ele>490</ele><time>2020-08-05T15:04:25Z</time><name>PT19026</name></trkpt>
<trkpt lat="53.347578" lon="-1.817720"><ele>490</ele><time>2020-08-05T15:04:25Z</time><name>PT19027</name></trkpt>
<trkpt lat="53.347576" lon="-1.817692"><ele>491</ele><time>2020-08-05T15:04:26Z</time><name>PT19028</name></trkpt>
<trkpt lat="53.347575" lon="-1.817668"><ele>491</ele><time>2020-08-05T15:04:28Z</time><name>PT19029</name></trkpt>
<trkpt lat="53.347575" lon="-1.817643"><ele>490</ele><time>2020-08-05T15:04:28Z</time><name>PT19030</name></trkpt>
<trkpt lat="53.347575" lon="-1.817626"><ele>490</ele><time>2020-08-05T15:04:29Z</time><name>PT19031</name></trkpt>
<trkpt lat="53.347575" lon="-1.817610"><ele>490</ele><time>2020-08-05T15:04:31Z</time><name>PT19032</name></trkpt>
<trkpt lat="53.347571" lon="-1.817594"><ele>489</ele><time>2020-08-05T15:04:31Z</time><name>PT19033</name></trkpt>
<trkpt lat="53.347568" lon="-1.817574"><ele>489</ele><time>2020-08-05T15:04:32Z</time><name>PT19034</name></trkpt>
<trkpt lat="53.347564" lon="-1.817557"><ele>489</ele><time>2020-08-05T15:04:34Z</time><name>PT19035</name></trkpt>
<trkpt lat="53.347560" lon="-1.817536"><ele>488</ele><time>2020-08-05T15:04:34Z</time><name>PT19036</name></trkpt>
<trkpt lat="53.347555" lon="-1.817509"><ele>488</ele><time>2020-08-05T15:04:35Z</time><name>PT19037</name></trkpt>
<trkpt lat="53.347551" lon="-1.817488"><ele>488</ele><time>2020-08-05T15:04:37Z</time><name>PT19038</name></trkpt>
<trkpt lat="53.347546" lon="-1.817467"><ele>488</ele><time>2020-08-05T15:04:37Z</time><name>PT19039</name></trkpt>
<trkpt lat="53.347540" lon="-1.817448"><ele>487</ele><time>2020-08-05T15:04:38Z</time><name>PT19040</name></trkpt>
<trkpt lat="53.347536" lon="-1.817426"><ele>487</ele><time>2020-08-05T15:04:40Z</time><name>PT19041</name></trkpt>
<trkpt lat="53.347534" lon="-1.817401"><ele>487</ele><time>2020-08-05T15:04:40Z</time><name>PT19042</name></trkpt>
<trkpt lat="53.347532" lon="-1.817378"><ele>487</ele><time>2020-08-05T15:04:41Z</time><name>PT19043</name></trkpt>
<trkpt lat="53.347530" lon="-1.817352"><ele>487</ele><time>2020-08-05T15:04:43Z</time><name>PT19044</name></trkpt>
<trkpt lat="53.347529" lon="-1.817325"><ele>487</ele><time>2020-08-05T15:04:43Z</time><name>PT19045</name></trkpt>
<trkpt lat="53.347528" lon="-1.817307"><ele>486</ele><time>2020-08-05T15:04:44Z</time><name>PT19046</name></trkpt>
<trkpt lat="53.347524" lon="-1.817290"><ele>485</ele><time>2020-08-05T15:04:46Z</time><name>PT19047</name></trkpt>
<trkpt lat="53.347522" lon="-1.817271"><ele>486</ele><time>2020-08-05T15:04:46Z</time><name>PT19048</name></trkpt>
<trkpt lat="53.347522" lon="-1.817255"><ele>485</ele><time>2020-08-05T15:04:47Z</time><name>PT19049</name></trkpt>
<trkpt lat="53.347519" lon="-1.817234"><ele>485</ele><time>2020-08-05T15:04:49Z</time><name>PT19050</name></trkpt>
<trkpt lat="53.347516" lon="-1.817217"><ele>485</ele><time>2020-08-05T15:04:49Z</time><name>PT19051</name></trkpt>
<trkpt lat="53.347515" lon="-1.817193"><ele>485</ele><time>2020-08-05T15:04:50Z</time><name>PT19052</name></trkpt>
<trkpt lat="53.347514" lon="-1.817169"><ele>485</ele><time>2020-08-05T15:04:52Z</time><name>PT19053</name></trkpt>
<trkpt lat="53.347511" lon="-1.817146"><ele>484</ele><time>2020-08-05T15:04:52Z</time><name>PT19054</name></trkpt>
<trkpt lat="53.347511" lon="-1.817124"><ele>484</ele><time>2020-08-05T15:04:53Z</time><name>PT19055</name></trkpt>
<trkpt lat="53.347509" lon="-1.817103"><ele>484</ele><time>2020-08-05T15:04:55Z</time><name>PT19056</name></trkpt>
<trkpt lat="53.347508" lon="-1.817079"><ele>484</ele><time>2020-08-05T15:04:55Z</time><name>PT19057</name></trkpt>
<trkpt lat="53.347507" lon="-1.817054"><ele>484</ele><time>2020-08-05T15:04:56Z</time><name>PT19058</name></trkpt>
<trkpt lat="53.347505" lon="-1.817030"><ele>484</ele><time>2020-08-05T15:04:58Z</time><name>PT19059</name></trkpt>
<trkpt lat="53.347503" lon="-1.817010"><ele>483</ele><time>2020-08-05T15:04:58Z</time><name>PT19060</name></trkpt>
<trkpt lat="53.347502" lon="-1.816989"><ele>483</ele><time>2020-08-05T15:04:59Z</time><name>PT19061</name></trkpt>
<trkpt lat="53.347500" lon="-1.816972"><ele>482</ele><time>2020-08-05T15:05:01Z</time><name>PT19062</name></trkpt>
<trkpt lat="53.347500" lon="-1.816957"><ele>482</ele><time>2020-08-05T15:05:01Z</time><name>PT19063</name></trkpt>
<trkpt lat="53.347498" lon="-1.816940"><ele>482</ele><time>2020-08-05T15:05:02Z</time><name>PT19064</name></trkpt>
<trkpt lat="53.347495" lon="-1.816920"><ele>482</ele><time>2020-08-05T15:05:04Z</time><name>PT19065</name></trkpt>
<trkpt lat="53.347492" lon="-1.816898"><ele>482</ele><time>2020-08-05T15:05:04Z</time><name>PT19066</name></trkpt>
<trkpt lat="53.347486" lon="-1.816874"><ele>482</ele><time>2020-08-05T15:05:05Z</time><name>PT19067</name></trkpt>
<trkpt lat="53.347484" lon="-1.816848"><ele>481</ele><time>2020-08-05T15:05:07Z</time><name>PT19068</name></trkpt>
<trkpt lat="53.347485" lon="-1.816820"><ele>481</ele><time>2020-08-05T15:05:07Z</time><name>PT19069</name></trkpt>
<trkpt lat="53.347483" lon="-1.816797"><ele>481</ele><time>2020-08-05T15:05:08Z</time><name>PT19070</name></trkpt>
<trkpt lat="53.347482" lon="-1.816773"><ele>481</ele><time>2020-08-05T15:05:10Z</time><name>PT19071</name></trkpt>
<trkpt lat="53.347480" lon="-1.816749"><ele>481</ele><time>2020-08-05T15:05:10Z</time><name>PT19072</name></trkpt>
<trkpt lat="53.347483" lon="-1.816722"><ele>481</ele><time>2020-08-05T15:05:11Z</time><name>PT19073</name></trkpt>
<trkpt lat="53.347484" lon="-1.816696"><ele>481</ele><time>2020-08-05T15:05:13Z</time><name>PT19074</name></trkpt>
<trkpt lat="53.347485" lon="-1.816673"><ele>481</ele><time>2020-08-05T15:05:13Z</time><name>PT19075</name></trkpt>
<trkpt lat="53.347484" lon="-1.816654"><ele>480</ele><time>2020-08-05T15:05:14Z</time><name>PT19076</name></trkpt>
<trkpt lat="53.347483" lon="-1.816640"><ele>480</ele><time>2020-08-05T15:05:16Z</time><name>PT19077</name></trkpt>
<trkpt lat="53.347484" lon="-1.816620"><ele>480</ele><time>2020-08-05T15:05:16Z</time><name>PT19078</name></trkpt>
<trkpt lat="53.347485" lon="-1.816599"><ele>479</ele><time>2020-08-05T15:05:17Z</time><name>PT19079</name></trkpt>
<trkpt lat="53.347484" lon="-1.816574"><ele>479</ele><time>2020-08-05T15:05:19Z</time><name>PT19080</name></trkpt>
<trkpt lat="53.347483" lon="-1.816551"><ele>479</ele><time>2020-08-05T15:05:19Z</time><name>PT19081</name></trkpt>
<trkpt lat="53.347481" lon="-1.816527"><ele>479</ele><time>2020-08-05T15:05:20Z</time><name>PT19082</name></trkpt>
<trkpt lat="53.347479" lon="-1.816500"><ele>480</ele><time>2020-08-05T15:05:22Z</time><name>PT19083</name></trkpt>
<trkpt lat="53.347476" lon="-1.816471"><ele>480</ele><time>2020-08-05T15:05:22Z</time><name>PT19084</name></trkpt>
<trkpt lat="53.347475" lon="-1.816446"><ele>480</ele><time>2020-08-05T15:05:23Z</time><name>PT19085</name></trkpt>
<trkpt lat="53.347473" lon="-1.816425"><ele>479</ele><time>2020-08-05T15:05:25Z</time><name>PT19086</name></trkpt>
<trkpt lat="53.347471" lon="-1.816409"><ele>479</ele><time>2020-08-05T15:05:25Z</time><name>PT19087</name></trkpt>
<trkpt lat="53.347469" lon="-1.816393"><ele>479</ele><time>2020-08-05T15:05:26Z</time><name>PT19088</name></trkpt>
<trkpt lat="53.347467" lon="-1.816375"><ele>479</ele><time>2020-08-05T15:05:28Z</time><name>PT19089</name></trkpt>
<trkpt lat="53.347466" lon="-1.816360"><ele>478</ele><time>2020-08-05T15:05:28Z</time><name>PT19090</name></trkpt>
<trkpt lat="53.347466" lon="-1.816341"><ele>477</ele><time>2020-08-05T15:05:29Z</time><name>PT19091</name></trkpt>
<trkpt lat="53.347465" lon="-1.816319"><ele>477</ele><time>2020-08-05T15:05:31Z</time><name>PT19092</name></trkpt>
<trkpt lat="53.347464" lon="-1.816293"><ele>478</ele><time>2020-08-05T15:05:31Z</time><name>PT19093</name></trkpt>
<trkpt lat="53.347462" lon="-1.816268"><ele>478</ele><time>2020-08-05T15:05:32Z</time><name>PT19094</name></trkpt>
<trkpt lat="53.347459" lon="-1.816243"><ele>478</ele><time>2020-08-05T15:05:34Z</time><name>PT19095</name></trkpt>
<trkpt lat="53.347455" lon="-1.816221"><ele>478</ele><time>2020-08-05T15:05:34Z</time><name>PT19096</name></trkpt>
<trkpt lat="53.347453" lon="-1.816204"><ele>477</ele><time>2020-08-05T15:05:35Z</time><name>PT19097</name></trkpt>
<trkpt lat="53.347451" lon="-1.816185"><ele>477</ele><time>2020-08-05T15:05:37Z</time><name>PT19098</name></trkpt>
<trkpt lat="53.347446" lon="-1.816166"><ele>477</ele><time>2020-08-05T15:05:37Z</time><name>PT19099</name></trkpt>
<trkpt lat="53.347442" lon="-1.816147"><ele>477</ele><time>2020-08-05T15:05:38Z</time><name>PT19100</name></trkpt>
<trkpt lat="53.347440" lon="-1.816124"><ele>477</ele><time>2020-08-05T15:05:40Z</time><name>PT19101</name></trkpt>
<trkpt lat="53.347439" lon="-1.816100"><ele>477</ele><time>2020-08-05T15:05:40Z</time><name>PT19102</name></trkpt>
<trkpt lat="53.347438" lon="-1.816076"><ele>477</ele><time>2020-08-05T15:05:41Z</time><name>PT19103</name></trkpt>
<trkpt lat="53.347437" lon="-1.816050"><ele>477</ele><time>2020-08-05T15:05:43Z</time><name>PT19104</name></trkpt>
<trkpt lat="53.347437" lon="-1.816024"><ele>476</ele><time>2020-08-05T15:05:43Z</time><name>PT19105</name></trkpt>
<trkpt lat="53.347437" lon="-1.816005"><ele>476</ele><time>2020-08-05T15:05:45Z</time><name>PT19106</name></trkpt>
<trkpt lat="53.347436" lon="-1.815990"><ele>476</ele><time>2020-08-05T15:05:46Z</time><name>PT19107</name></trkpt>
<trkpt lat="53.347437" lon="-1.815973"><ele>475</ele><time>2020-08-05T15:05:46Z</time><name>PT19108</name></trkpt>
<trkpt lat="53.347436" lon="-1.815952"><ele>475</ele><time>2020-08-05T15:05:47Z</time><name>PT19109</name></trkpt>
<trkpt lat="53.347430" lon="-1.815932"><ele>475</ele><time>2020-08-05T15:05:49Z</time><name>PT19110</name></trkpt>
<trkpt lat="53.347430" lon="-1.815909"><ele>474</ele><time>2020-08-05T15:05:49Z</time><name>PT19111</name></trkpt>
<trkpt lat="53.347428" lon="-1.815885"><ele>475</ele><time>2020-08-05T15:05:50Z</time><name>PT19112</name></trkpt>
<trkpt lat="53.347426" lon="-1.815867"><ele>475</ele><time>2020-08-05T15:05:52Z</time><name>PT19113</name></trkpt>
<trkpt lat="53.347425" lon="-1.815847"><ele>474</ele><time>2020-08-05T15:05:52Z</time><name>PT19114</name></trkpt>
<trkpt lat="53.347426" lon="-1.815824"><ele>474</ele><time>2020-08-05T15:05:53Z</time><name>PT19115</name></trkpt>
<trkpt lat="53.347424" lon="-1.815799"><ele>474</ele><time>2020-08-05T15:05:55Z</time><name>PT19116</name></trkpt>
<trkpt lat="53.347423" lon="-1.815773"><ele>474</ele><time>2020-08-05T15:05:55Z</time><name>PT19117</name></trkpt>
<trkpt lat="53.347421" lon="-1.815754"><ele>474</ele><time>2020-08-05T15:05:56Z</time><name>PT19118</name></trkpt>
<trkpt lat="53.347419" lon="-1.815740"><ele>473</ele><time>2020-08-05T15:05:58Z</time><name>PT19119</name></trkpt>
<trkpt lat="53.347417" lon="-1.815727"><ele>473</ele><time>2020-08-05T15:05:58Z</time><name>PT19120</name></trkpt>
<trkpt lat="53.347414" lon="-1.815713"><ele>472</ele><time>2020-08-05T15:05:59Z</time><name>PT19121</name></trkpt>
<trkpt lat="53.347409" lon="-1.815695"><ele>472</ele><time>2020-08-05T15:06:01Z</time><name>PT19122</name></trkpt>
<trkpt lat="53.347405" lon="-1.815679"><ele>471</ele><time>2020-08-05T15:06:01Z</time><name>PT19123</name></trkpt>
<trkpt lat="53.347401" lon="-1.815659"><ele>471</ele><time>2020-08-05T15:06:02Z</time><name>PT19124</name></trkpt>
<trkpt lat="53.347396" lon="-1.815639"><ele>471</ele><time>2020-08-05T15:06:04Z</time><name>PT19125</name></trkpt>
<trkpt lat="53.347396" lon="-1.815618"><ele>470</ele><time>2020-08-05T15:06:04Z</time><name>PT19126</name></trkpt>
<trkpt lat="53.347394" lon="-1.815596"><ele>470</ele><time>2020-08-05T15:06:05Z</time><name>PT19127</name></trkpt>
<trkpt lat="53.347390" lon="-1.815567"><ele>471</ele><time>2020-08-05T15:06:07Z</time><name>PT19128</name></trkpt>
<trkpt lat="53.347382" lon="-1.815546"><ele>471</ele><time>2020-08-05T15:06:07Z</time><name>PT19129</name></trkpt>
<trkpt lat="53.347377" lon="-1.815525"><ele>471</ele><time>2020-08-05T15:06:08Z</time><name>PT19130</name></trkpt>
<trkpt lat="53.347374" lon="-1.815505"><ele>470</ele><time>2020-08-05T15:06:10Z</time><name>PT19131</name></trkpt>
<trkpt lat="53.347369" lon="-1.815487"><ele>470</ele><time>2020-08-05T15:06:10Z</time><name>PT19132</name></trkpt>
<trkpt lat="53.347362" lon="-1.815472"><ele>470</ele><time>2020-08-05T15:06:12Z</time><name>PT19133</name></trkpt>
<trkpt lat="53.347356" lon="-1.815451"><ele>470</ele><time>2020-08-05T15:06:13Z</time><name>PT19134</name></trkpt>
<trkpt lat="53.347351" lon="-1.815431"><ele>469</ele><time>2020-08-05T15:06:13Z</time><name>PT19135</name></trkpt>
<trkpt lat="53.347346" lon="-1.815410"><ele>469</ele><time>2020-08-05T15:06:15Z</time><name>PT19136</name></trkpt>
<trkpt lat="53.347344" lon="-1.815386"><ele>467</ele><time>2020-08-05T15:06:16Z</time><name>PT19137</name></trkpt>
<trkpt lat="53.347340" lon="-1.815364"><ele>466</ele><time>2020-08-05T15:06:16Z</time><name>PT19138</name></trkpt>
<trkpt lat="53.347333" lon="-1.815343"><ele>466</ele><time>2020-08-05T15:06:17Z</time><name>PT19139</name></trkpt>
<trkpt lat="53.347330" lon="-1.815323"><ele>466</ele><time>2020-08-05T15:06:19Z</time><name>PT19140</name></trkpt>
<trkpt lat="53.347325" lon="-1.815297"><ele>467</ele><time>2020-08-05T15:06:19Z</time><name>PT19141</name></trkpt>
<trkpt lat="53.347326" lon="-1.815273"><ele>467</ele><time>2020-08-05T15:06:20Z</time><name>PT19142</name></trkpt>
<trkpt lat="53.347323" lon="-1.815252"><ele>467</ele><time>2020-08-05T15:06:22Z</time><name>PT19143</name></trkpt>
<trkpt lat="53.347321" lon="-1.815231"><ele>467</ele><time>2020-08-05T15:06:22Z</time><name>PT19144</name></trkpt>
<trkpt lat="53.347319" lon="-1.815213"><ele>467</ele><time>2020-08-05T15:06:23Z</time><name>PT19145</name></trkpt>
<trkpt lat="53.347318" lon="-1.815196"><ele>467</ele><time>2020-08-05T15:06:25Z</time><name>PT19146</name></trkpt>
<trkpt lat="53.347318" lon="-1.815178"><ele>467</ele><time>2020-08-05T15:06:25Z</time><name>PT19147</name></trkpt>
<trkpt lat="53.347316" lon="-1.815164"><ele>466</ele><time>2020-08-05T15:06:27Z</time><name>PT19148</name></trkpt>
<trkpt lat="53.347315" lon="-1.815144"><ele>466</ele><time>2020-08-05T15:06:28Z</time><name>PT19149</name></trkpt>
<trkpt lat="53.347313" lon="-1.815123"><ele>465</ele><time>2020-08-05T15:06:28Z</time><name>PT19150</name></trkpt>
<trkpt lat="53.347316" lon="-1.815102"><ele>465</ele><time>2020-08-05T15:06:29Z</time><name>PT19151</name></trkpt>
<trkpt lat="53.347318" lon="-1.815082"><ele>465</ele><time>2020-08-05T15:06:31Z</time><name>PT19152</name></trkpt>
<trkpt lat="53.347320" lon="-1.815057"><ele>465</ele><time>2020-08-05T15:06:31Z</time><name>PT19153</name></trkpt>
<trkpt lat="53.347322" lon="-1.815027"><ele>465</ele><time>2020-08-05T15:06:32Z</time><name>PT19154</name></trkpt>
<trkpt lat="53.347322" lon="-1.814993"><ele>465</ele><time>2020-08-05T15:06:34Z</time><name>PT19155</name></trkpt>
<trkpt lat="53.347323" lon="-1.814968"><ele>465</ele><time>2020-08-05T15:06:34Z</time><name>PT19156</name></trkpt>
<trkpt lat="53.347324" lon="-1.814947"><ele>465</ele><time>2020-08-05T15:06:35Z</time><name>PT19157</name></trkpt>
<trkpt lat="53.347323" lon="-1.814929"><ele>465</ele><time>2020-08-05T15:06:37Z</time><name>PT19158</name></trkpt>
<trkpt lat="53.347323" lon="-1.814910"><ele>464</ele><time>2020-08-05T15:06:37Z</time><name>PT19159</name></trkpt>
<trkpt lat="53.347319" lon="-1.814883"><ele>464</ele><time>2020-08-05T15:06:38Z</time><name>PT19160</name></trkpt>
<trkpt lat="53.347315" lon="-1.814844"><ele>464</ele><time>2020-08-05T15:06:40Z</time><name>PT19161</name></trkpt>
<trkpt lat="53.347313" lon="-1.814820"><ele>463</ele><time>2020-08-05T15:06:40Z</time><name>PT19162</name></trkpt>
<trkpt lat="53.347309" lon="-1.814797"><ele>463</ele><time>2020-08-05T15:06:41Z</time><name>PT19163</name></trkpt>
<trkpt lat="53.347303" lon="-1.814782"><ele>462</ele><time>2020-08-05T15:06:43Z</time><name>PT19164</name></trkpt>
<trkpt lat="53.347297" lon="-1.814767"><ele>462</ele><time>2020-08-05T15:06:43Z</time><name>PT19165</name></trkpt>
<trkpt lat="53.347292" lon="-1.814755"><ele>462</ele><time>2020-08-05T15:06:44Z</time><name>PT19166</name></trkpt>
<trkpt lat="53.347285" lon="-1.814743"><ele>462</ele><time>2020-08-05T15:06:46Z</time><name>PT19167</name></trkpt>
<trkpt lat="53.347279" lon="-1.814729"><ele>462</ele><time>2020-08-05T15:06:46Z</time><name>PT19168</name></trkpt>
<trkpt lat="53.347272" lon="-1.814721"><ele>462</ele><time>2020-08-05T15:06:47Z</time><name>PT19169</name></trkpt>
<trkpt lat="53.347264" lon="-1.814718"><ele>461</ele><time>2020-08-05T15:06:49Z</time><name>PT19170</name></trkpt>
<trkpt lat="53.347256" lon="-1.814698"><ele>461</ele><time>2020-08-05T15:06:49Z</time><name>PT19171</name></trkpt>
<trkpt lat="53.347250" lon="-1.814684"><ele>461</ele><time>2020-08-05T15:06:50Z</time><name>PT19172</name></trkpt>
<trkpt lat="53.347246" lon="-1.814676"><ele>460</ele><time>2020-08-05T15:06:52Z</time><name>PT19173</name></trkpt>
<trkpt lat="53.347241" lon="-1.814665"><ele>460</ele><time>2020-08-05T15:06:52Z</time><name>PT19174</name></trkpt>
<trkpt lat="53.347236" lon="-1.814656"><ele>459</ele><time>2020-08-05T15:06:53Z</time><name>PT19175</name></trkpt>
<trkpt lat="53.347230" lon="-1.814645"><ele>459</ele><time>2020-08-05T15:06:55Z</time><name>PT19176</name></trkpt>
<trkpt lat="53.347224" lon="-1.814633"><ele>459</ele><time>2020-08-05T15:06:55Z</time><name>PT19177</name></trkpt>
<trkpt lat="53.347222" lon="-1.814614"><ele>459</ele><time>2020-08-05T15:06:56Z</time><name>PT19178</name></trkpt>
<trkpt lat="53.347222" lon="-1.814601"><ele>458</ele><time>2020-08-05T15:06:58Z</time><name>PT19179</name></trkpt>
<trkpt lat="53.347228" lon="-1.814601"><ele>458</ele><time>2020-08-05T15:06:58Z</time><name>PT19180</name></trkpt>
<trkpt lat="53.347227" lon="-1.814589"><ele>457</ele><time>2020-08-05T15:06:59Z</time><name>PT19181</name></trkpt>
<trkpt lat="53.347226" lon="-1.814577"><ele>456</ele><time>2020-08-05T15:07:01Z</time><name>PT19182</name></trkpt>
<trkpt lat="53.347221" lon="-1.814564"><ele>455</ele><time>2020-08-05T15:07:01Z</time><name>PT19183</name></trkpt>
<trkpt lat="53.347213" lon="-1.814554"><ele>454</ele><time>2020-08-05T15:07:02Z</time><name>PT19184</name></trkpt>
<trkpt lat="53.347206" lon="-1.814541"><ele>454</ele><time>2020-08-05T15:07:04Z</time><name>PT19185</name></trkpt>
<trkpt lat="53.347203" lon="-1.814518"><ele>453</ele><time>2020-08-05T15:07:04Z</time><name>PT19186</name></trkpt>
<trkpt lat="53.347197" lon="-1.814503"><ele>452</ele><time>2020-08-05T15:07:05Z</time><name>PT19187</name></trkpt>
<trkpt lat="53.347190" lon="-1.814489"><ele>452</ele><time>2020-08-05T15:07:07Z</time><name>PT19188</name></trkpt>
<trkpt lat="53.347184" lon="-1.814469"><ele>452</ele><time>2020-08-05T15:07:07Z</time><name>PT19189</name></trkpt>
<trkpt lat="53.347182" lon="-1.814458"><ele>452</ele><time>2020-08-05T15:07:08Z</time><name>PT19190</name></trkpt>
<trkpt lat="53.347178" lon="-1.814445"><ele>451</ele><time>2020-08-05T15:07:10Z</time><name>PT19191</name></trkpt>
<trkpt lat="53.347176" lon="-1.814442"><ele>451</ele><time>2020-08-05T15:07:10Z</time><name>PT19192</name></trkpt>
<trkpt lat="53.347169" lon="-1.814425"><ele>451</ele><time>2020-08-05T15:07:11Z</time><name>PT19193</name></trkpt>
<trkpt lat="53.347168" lon="-1.814416"><ele>450</ele><time>2020-08-05T15:07:13Z</time><name>PT19194</name></trkpt>
<trkpt lat="53.347166" lon="-1.814402"><ele>450</ele><time>2020-08-05T15:07:13Z</time><name>PT19195</name></trkpt>
<trkpt lat="53.347168" lon="-1.814393"><ele>450</ele><time>2020-08-05T15:07:14Z</time><name>PT19196</name></trkpt>
<trkpt lat="53.347168" lon="-1.814386"><ele>450</ele><time>2020-08-05T15:07:16Z</time><name>PT19197</name></trkpt>
<trkpt lat="53.347165" lon="-1.814379"><ele>449</ele><time>2020-08-05T15:07:16Z</time><name>PT19198</name></trkpt>
<trkpt lat="53.347162" lon="-1.814361"><ele>450</ele><time>2020-08-05T15:07:17Z</time><name>PT19199</name></trkpt>
<trkpt lat="53.347158" lon="-1.814343"><ele>450</ele><time>2020-08-05T15:07:19Z</time><name>PT19200</name></trkpt>
<trkpt lat="53.347155" lon="-1.814328"><ele>450</ele><time>2020-08-05T15:07:19Z</time><name>PT19201</name></trkpt>
<trkpt lat="53.347150" lon="-1.814307"><ele>451</ele><time>2020-08-05T15:07:21Z</time><name>PT19202</name></trkpt>
<trkpt lat="53.347150" lon="-1.814292"><ele>450</ele><time>2020-08-05T15:07:22Z</time><name>PT19203</name></trkpt>
<trkpt lat="53.347147" lon="-1.814276"><ele>450</ele><time>2020-08-05T15:07:22Z</time><name>PT19204</name></trkpt>
<trkpt lat="53.347149" lon="-1.814288"><ele>449</ele><time>2020-08-05T15:07:23Z</time><name>PT19205</name></trkpt>
<trkpt lat="53.347143" lon="-1.814278"><ele>449</ele><time>2020-08-05T15:07:25Z</time><name>PT19206</name></trkpt>
<trkpt lat="53.347140" lon="-1.814257"><ele>449</ele><time>2020-08-05T15:07:25Z</time><name>PT19207</name></trkpt>
<trkpt lat="53.347130" lon="-1.814244"><ele>449</ele><time>2020-08-05T15:07:27Z</time><name>PT19208</name></trkpt>
<trkpt lat="53.347123" lon="-1.814230"><ele>448</ele><time>2020-08-05T15:07:28Z</time><name>PT19209</name></trkpt>
<trkpt lat="53.347113" lon="-1.814209"><ele>449</ele><time>2020-08-05T15:07:28Z</time><name>PT19210</name></trkpt>
<trkpt lat="53.347107" lon="-1.814186"><ele>449</ele><time>2020-08-05T15:07:29Z</time><name>PT19211</name></trkpt>
<trkpt lat="53.347098" lon="-1.814162"><ele>449</ele><time>2020-08-05T15:07:31Z</time><name>PT19212</name></trkpt>
<trkpt lat="53.347093" lon="-1.814156"><ele>449</ele><time>2020-08-05T15:07:31Z</time><name>PT19213</name></trkpt>
<trkpt lat="53.347092" lon="-1.814149"><ele>449</ele><time>2020-08-05T15:07:32Z</time><name>PT19214</name></trkpt>
<trkpt lat="53.347088" lon="-1.814136"><ele>450</ele><time>2020-08-05T15:07:34Z</time><name>PT19215</name></trkpt>
<trkpt lat="53.347081" lon="-1.814127"><ele>451</ele><time>2020-08-05T15:07:34Z</time><name>PT19216</name></trkpt>
<trkpt lat="53.347073" lon="-1.814115"><ele>451</ele><time>2020-08-05T15:07:35Z</time><name>PT19217</name></trkpt>
<trkpt lat="53.347070" lon="-1.814108"><ele>451</ele><time>2020-08-05T15:07:37Z</time><name>PT19218</name></trkpt>
<trkpt lat="53.347070" lon="-1.814091"><ele>452</ele><time>2020-08-05T15:07:37Z</time><name>PT19219</name></trkpt>
<trkpt lat="53.347067" lon="-1.814083"><ele>452</ele><time>2020-08-05T15:07:38Z</time><name>PT19220</name></trkpt>
<trkpt lat="53.347071" lon="-1.814075"><ele>452</ele><time>2020-08-05T15:07:40Z</time><name>PT19221</name></trkpt>
<trkpt lat="53.347059" lon="-1.814054"><ele>451</ele><time>2020-08-05T15:07:41Z</time><name>PT19222</name></trkpt>
<trkpt lat="53.347054" lon="-1.814055"><ele>451</ele><time>2020-08-05T15:07:43Z</time><name>PT19223</name></trkpt>
<trkpt lat="53.347053" lon="-1.814062"><ele>451</ele><time>2020-08-05T15:07:43Z</time><name>PT19224</name></trkpt>
<trkpt lat="53.347049" lon="-1.814078"><ele>450</ele><time>2020-08-05T15:07:44Z</time><name>PT19225</name></trkpt>
<trkpt lat="53.347044" lon="-1.814098"><ele>450</ele><time>2020-08-05T15:07:46Z</time><name>PT19226</name></trkpt>
<trkpt lat="53.347039" lon="-1.814115"><ele>450</ele><time>2020-08-05T15:07:46Z</time><name>PT19227</name></trkpt>
<trkpt lat="53.347036" lon="-1.814130"><ele>450</ele><time>2020-08-05T15:07:47Z</time><name>PT19228</name></trkpt>
<trkpt lat="53.347033" lon="-1.814146"><ele>450</ele><time>2020-08-05T15:07:49Z</time><name>PT19229</name></trkpt>
<trkpt lat="53.347030" lon="-1.814163"><ele>450</ele><time>2020-08-05T15:07:49Z</time><name>PT19230</name></trkpt>
<trkpt lat="53.347028" lon="-1.814169"><ele>449</ele><time>2020-08-05T15:07:50Z</time><name>PT19231</name></trkpt>
<trkpt lat="53.347024" lon="-1.814183"><ele>450</ele><time>2020-08-05T15:07:52Z</time><name>PT19232</name></trkpt>
<trkpt lat="53.347019" lon="-1.814204"><ele>450</ele><time>2020-08-05T15:07:52Z</time><name>PT19233</name></trkpt>
<trkpt lat="53.347013" lon="-1.814228"><ele>450</ele><time>2020-08-05T15:07:53Z</time><name>PT19234</name></trkpt>
<trkpt lat="53.347006" lon="-1.814248"><ele>450</ele><time>2020-08-05T15:07:55Z</time><name>PT19235</name></trkpt>
<trkpt lat="53.347000" lon="-1.814263"><ele>449</ele><time>2020-08-05T15:07:55Z</time><name>PT19236</name></trkpt>
<trkpt lat="53.346996" lon="-1.814277"><ele>449</ele><time>2020-08-05T15:07:56Z</time><name>PT19237</name></trkpt>
<trkpt lat="53.346991" lon="-1.814289"><ele>449</ele><time>2020-08-05T15:07:58Z</time><name>PT19238</name></trkpt>
<trkpt lat="53.346985" lon="-1.814298"><ele>449</ele><time>2020-08-05T15:07:58Z</time><name>PT19239</name></trkpt>
<trkpt lat="53.346981" lon="-1.814309"><ele>448</ele><time>2020-08-05T15:07:59Z</time><name>PT19240</name></trkpt>
<trkpt lat="53.346977" lon="-1.814324"><ele>448</ele><time>2020-08-05T15:08:01Z</time><name>PT19241</name></trkpt>
<trkpt lat="53.346974" lon="-1.814340"><ele>448</ele><time>2020-08-05T15:08:01Z</time><name>PT19242</name></trkpt>
<trkpt lat="53.346970" lon="-1.814358"><ele>448</ele><time>2020-08-05T15:08:02Z</time><name>PT19243</name></trkpt>
<trkpt lat="53.346962" lon="-1.814376"><ele>448</ele><time>2020-08-05T15:08:04Z</time><name>PT19244</name></trkpt>
<trkpt lat="53.346956" lon="-1.814387"><ele>448</ele><time>2020-08-05T15:08:04Z</time><name>PT19245</name></trkpt>
<trkpt lat="53.346949" lon="-1.814404"><ele>448</ele><time>2020-08-05T15:08:05Z</time><name>PT19246</name></trkpt>
<trkpt lat="53.346942" lon="-1.814420"><ele>448</ele><time>2020-08-05T15:08:07Z</time><name>PT19247</name></trkpt>
<trkpt lat="53.346936" lon="-1.814435"><ele>449</ele><time>2020-08-05T15:08:07Z</time><name>PT19248</name></trkpt>
<trkpt lat="53.346933" lon="-1.814445"><ele>448</ele><time>2020-08-05T15:08:08Z</time><name>PT19249</name></trkpt>
<trkpt lat="53.346927" lon="-1.814461"><ele>448</ele><time>2020-08-05T15:08:10Z</time><name>PT19250</name></trkpt>
<trkpt lat="53.346925" lon="-1.814475"><ele>447</ele><time>2020-08-05T15:08:10Z</time><name>PT19251</name></trkpt>
<trkpt lat="53.346922" lon="-1.814489"><ele>447</ele><time>2020-08-05T15:08:11Z</time><name>PT19252</name></trkpt>
<trkpt lat="53.346916" lon="-1.814514"><ele>446</ele><time>2020-08-05T15:08:13Z</time><name>PT19253</name></trkpt>
<trkpt lat="53.346908" lon="-1.814538"><ele>446</ele><time>2020-08-05T15:08:13Z</time><name>PT19254</name></trkpt>
<trkpt lat="53.346900" lon="-1.814554"><ele>446</ele><time>2020-08-05T15:08:14Z</time><name>PT19255</name></trkpt>
<trkpt lat="53.346896" lon="-1.814571"><ele>446</ele><time>2020-08-05T15:08:16Z</time><name>PT19256</name></trkpt>
<trkpt lat="53.346887" lon="-1.814599"><ele>445</ele><time>2020-08-05T15:08:16Z</time><name>PT19257</name></trkpt>
<trkpt lat="53.346879" lon="-1.814618"><ele>445</ele><time>2020-08-05T15:08:18Z</time><name>PT19258</name></trkpt>
<trkpt lat="53.346877" lon="-1.814636"><ele>445</ele><time>2020-08-05T15:08:19Z</time><name>PT19259</name></trkpt>
<trkpt lat="53.346870" lon="-1.814655"><ele>445</ele><time>2020-08-05T15:08:19Z</time><name>PT19260</name></trkpt>
<trkpt lat="53.346864" lon="-1.814668"><ele>445</ele><time>2020-08-05T15:08:21Z</time><name>PT19261</name></trkpt>
<trkpt lat="53.346848" lon="-1.814671"><ele>445</ele><time>2020-08-05T15:08:22Z</time><name>PT19262</name></trkpt>
<trkpt lat="53.346842" lon="-1.814682"><ele>444</ele><time>2020-08-05T15:08:22Z</time><name>PT19263</name></trkpt>
<trkpt lat="53.346835" lon="-1.814698"><ele>444</ele><time>2020-08-05T15:08:23Z</time><name>PT19264</name></trkpt>
<trkpt lat="53.346832" lon="-1.814715"><ele>444</ele><time>2020-08-05T15:08:25Z</time><name>PT19265</name></trkpt>
<trkpt lat="53.346824" lon="-1.814734"><ele>444</ele><time>2020-08-05T15:08:25Z</time><name>PT19266</name></trkpt>
<trkpt lat="53.346819" lon="-1.814756"><ele>443</ele><time>2020-08-05T15:08:26Z</time><name>PT19267</name></trkpt>
<trkpt lat="53.346812" lon="-1.814781"><ele>444</ele><time>2020-08-05T15:08:28Z</time><name>PT19268</name></trkpt>
<trkpt lat="53.346803" lon="-1.814806"><ele>443</ele><time>2020-08-05T15:08:28Z</time><name>PT19269</name></trkpt>
<trkpt lat="53.346791" lon="-1.814830"><ele>445</ele><time>2020-08-05T15:08:29Z</time><name>PT19270</name></trkpt>
<trkpt lat="53.346781" lon="-1.814852"><ele>445</ele><time>2020-08-05T15:08:31Z</time><name>PT19271</name></trkpt>
<trkpt lat="53.346771" lon="-1.814874"><ele>445</ele><time>2020-08-05T15:08:31Z</time><name>PT19272</name></trkpt>
<trkpt lat="53.346766" lon="-1.814894"><ele>445</ele><time>2020-08-05T15:08:32Z</time><name>PT19273</name></trkpt>
<trkpt lat="53.346762" lon="-1.814911"><ele>445</ele><time>2020-08-05T15:08:34Z</time><name>PT19274</name></trkpt>
<trkpt lat="53.346751" lon="-1.814931"><ele>445</ele><time>2020-08-05T15:08:34Z</time><name>PT19275</name></trkpt>
<trkpt lat="53.346746" lon="-1.814948"><ele>444</ele><time>2020-08-05T15:08:35Z</time><name>PT19276</name></trkpt>
<trkpt lat="53.346741" lon="-1.814957"><ele>444</ele><time>2020-08-05T15:08:37Z</time><name>PT19277</name></trkpt>
<trkpt lat="53.346740" lon="-1.814972"><ele>443</ele><time>2020-08-05T15:08:37Z</time><name>PT19278</name></trkpt>
<trkpt lat="53.346739" lon="-1.814985"><ele>443</ele><time>2020-08-05T15:08:38Z</time><name>PT19279</name></trkpt>
<trkpt lat="53.346733" lon="-1.815000"><ele>442</ele><time>2020-08-05T15:08:40Z</time><name>PT19280</name></trkpt>
<trkpt lat="53.346730" lon="-1.815023"><ele>442</ele><time>2020-08-05T15:08:40Z</time><name>PT19281</name></trkpt>
<trkpt lat="53.346724" lon="-1.815048"><ele>443</ele><time>2020-08-05T15:08:41Z</time><name>PT19282</name></trkpt>
<trkpt lat="53.346719" lon="-1.815062"><ele>443</ele><time>2020-08-05T15:08:43Z</time><name>PT19283</name></trkpt>
<trkpt lat="53.346724" lon="-1.815066"><ele>442</ele><time>2020-08-05T15:08:43Z</time><name>PT19284</name></trkpt>
<trkpt lat="53.346724" lon="-1.815077"><ele>442</ele><time>2020-08-05T15:08:44Z</time><name>PT19285</name></trkpt>
<trkpt lat="53.346717" lon="-1.815084"><ele>442</ele><time>2020-08-05T15:08:46Z</time><name>PT19286</name></trkpt>
<trkpt lat="53.346714" lon="-1.815096"><ele>441</ele><time>2020-08-05T15:08:46Z</time><name>PT19287</name></trkpt>
<trkpt lat="53.346714" lon="-1.815101"><ele>441</ele><time>2020-08-05T15:08:47Z</time><name>PT19288</name></trkpt>
<trkpt lat="53.346705" lon="-1.815104"><ele>441</ele><time>2020-08-05T15:08:49Z</time><name>PT19289</name></trkpt>
<trkpt lat="53.346693" lon="-1.815115"><ele>440</ele><time>2020-08-05T15:08:49Z</time><name>PT19290</name></trkpt>
<trkpt lat="53.346685" lon="-1.815122"><ele>440</ele><time>2020-08-05T15:08:50Z</time><name>PT19291</name></trkpt>
<trkpt lat="53.346681" lon="-1.815130"><ele>440</ele><time>2020-08-05T15:08:52Z</time><name>PT19292</name></trkpt>
<trkpt lat="53.346665" lon="-1.815144"><ele>441</ele><time>2020-08-05T15:08:52Z</time><name>PT19293</name></trkpt>
<trkpt lat="53.346658" lon="-1.815149"><ele>440</ele><time>2020-08-05T15:08:53Z</time><name>PT19294</name></trkpt>
<trkpt lat="53.346653" lon="-1.815156"><ele>439</ele><time>2020-08-05T15:08:55Z</time><name>PT19295</name></trkpt>
<trkpt lat="53.346648" lon="-1.815165"><ele>438</ele><time>2020-08-05T15:08:55Z</time><name>PT19296</name></trkpt>
<trkpt lat="53.346641" lon="-1.815168"><ele>439</ele><time>2020-08-05T15:08:56Z</time><name>PT19297</name></trkpt>
<trkpt lat="53.346632" lon="-1.815181"><ele>438</ele><time>2020-08-05T15:08:58Z</time><name>PT19298</name></trkpt>
<trkpt lat="53.346622" lon="-1.815188"><ele>438</ele><time>2020-08-05T15:08:58Z</time><name>PT19299</name></trkpt>
<trkpt lat="53.346615" lon="-1.815197"><ele>436</ele><time>2020-08-05T15:08:59Z</time><name>PT19300</name></trkpt>
<trkpt lat="53.346606" lon="-1.815214"><ele>436</ele><time>2020-08-05T15:09:01Z</time><name>PT19301</name></trkpt>
<trkpt lat="53.346595" lon="-1.815223"><ele>436</ele><time>2020-08-05T15:09:01Z</time><name>PT19302</name></trkpt>
<trkpt lat="53.346584" lon="-1.815239"><ele>437</ele><time>2020-08-05T15:09:02Z</time><name>PT19303</name></trkpt>
<trkpt lat="53.346577" lon="-1.815253"><ele>437</ele><time>2020-08-05T15:09:04Z</time><name>PT19304</name></trkpt>
<trkpt lat="53.346568" lon="-1.815262"><ele>437</ele><time>2020-08-05T15:09:04Z</time><name>PT19305</name></trkpt>
<trkpt lat="53.346560" lon="-1.815271"><ele>437</ele><time>2020-08-05T15:09:05Z</time><name>PT19306</name></trkpt>
<trkpt lat="53.346553" lon="-1.815286"><ele>436</ele><time>2020-08-05T15:09:07Z</time><name>PT19307</name></trkpt>
<trkpt lat="53.346539" lon="-1.815295"><ele>436</ele><time>2020-08-05T15:09:07Z</time><name>PT19308</name></trkpt>
<trkpt lat="53.346531" lon="-1.815302"><ele>436</ele><time>2020-08-05T15:09:08Z</time><name>PT19309</name></trkpt>
<trkpt lat="53.346525" lon="-1.815303"><ele>436</ele><time>2020-08-05T15:09:10Z</time><name>PT19310</name></trkpt>
<trkpt lat="53.346519" lon="-1.815306"><ele>435</ele><time>2020-08-05T15:09:10Z</time><name>PT19311</name></trkpt>
<trkpt lat="53.346509" lon="-1.815305"><ele>435</ele><time>2020-08-05T15:09:11Z</time><name>PT19312</name></trkpt>
<trkpt lat="53.346490" lon="-1.815312"><ele>436</ele><time>2020-08-05T15:09:13Z</time><name>PT19313</name></trkpt>
<trkpt lat="53.346474" lon="-1.815317"><ele>436</ele><time>2020-08-05T15:09:13Z</time><name>PT19314</name></trkpt>
<trkpt lat="53.346472" lon="-1.815308"><ele>435</ele><time>2020-08-05T15:09:14Z</time><name>PT19315</name></trkpt>
<trkpt lat="53.346460" lon="-1.815311"><ele>434</ele><time>2020-08-05T15:09:16Z</time><name>PT19316</name></trkpt>
<trkpt lat="53.346448" lon="-1.815324"><ele>434</ele><time>2020-08-05T15:09:16Z</time><name>PT19317</name></trkpt>
<trkpt lat="53.346436" lon="-1.815335"><ele>434</ele><time>2020-08-05T15:09:17Z</time><name>PT19318</name></trkpt>
<trkpt lat="53.346426" lon="-1.815344"><ele>435</ele><time>2020-08-05T15:09:19Z</time><name>PT19319</name></trkpt>
<trkpt lat="53.346416" lon="-1.815357"><ele>434</ele><time>2020-08-05T15:09:19Z</time><name>PT19320</name></trkpt>
<trkpt lat="53.346404" lon="-1.815362"><ele>434</ele><time>2020-08-05T15:09:20Z</time><name>PT19321</name></trkpt>
<trkpt lat="53.346395" lon="-1.815360"><ele>433</ele><time>2020-08-05T15:09:22Z</time><name>PT19322</name></trkpt>
<trkpt lat="53.346388" lon="-1.815355"><ele>433</ele><time>2020-08-05T15:09:22Z</time><name>PT19323</name></trkpt>
<trkpt lat="53.346382" lon="-1.815342"><ele>433</ele><time>2020-08-05T15:09:23Z</time><name>PT19324</name></trkpt>
<trkpt lat="53.346375" lon="-1.815337"><ele>432</ele><time>2020-08-05T15:09:25Z</time><name>PT19325</name></trkpt>
<trkpt lat="53.346364" lon="-1.815337"><ele>432</ele><time>2020-08-05T15:09:25Z</time><name>PT19326</name></trkpt>
<trkpt lat="53.346356" lon="-1.815340"><ele>431</ele><time>2020-08-05T15:09:26Z</time><name>PT19327</name></trkpt>
<trkpt lat="53.346346" lon="-1.815338"><ele>431</ele><time>2020-08-05T15:09:28Z</time><name>PT19328</name></trkpt>
<trkpt lat="53.346333" lon="-1.815334"><ele>431</ele><time>2020-08-05T15:09:28Z</time><name>PT19329</name></trkpt>
<trkpt lat="53.346320" lon="-1.815336"><ele>431</ele><time>2020-08-05T15:09:29Z</time><name>PT19330</name></trkpt>
<trkpt lat="53.346310" lon="-1.815334"><ele>430</ele><time>2020-08-05T15:09:31Z</time><name>PT19331</name></trkpt>
<trkpt lat="53.346300" lon="-1.815332"><ele>430</ele><time>2020-08-05T15:09:31Z</time><name>PT19332</name></trkpt>
<trkpt lat="53.346288" lon="-1.815339"><ele>429</ele><time>2020-08-05T15:09:32Z</time><name>PT19333</name></trkpt>
<trkpt lat="53.346267" lon="-1.815344"><ele>430</ele><time>2020-08-05T15:09:34Z</time><name>PT19334</name></trkpt>
<trkpt lat="53.346255" lon="-1.815344"><ele>430</ele><time>2020-08-05T15:09:34Z</time><name>PT19335</name></trkpt>
<trkpt lat="53.346250" lon="-1.815333"><ele>429</ele><time>2020-08-05T15:09:35Z</time><name>PT19336</name></trkpt>
<trkpt lat="53.346244" lon="-1.815332"><ele>429</ele><time>2020-08-05T15:09:37Z</time><name>PT19337</name></trkpt>
<trkpt lat="53.346235" lon="-1.815342"><ele>428</ele><time>2020-08-05T15:09:37Z</time><name>PT19338</name></trkpt>
<trkpt lat="53.346231" lon="-1.815336"><ele>428</ele><time>2020-08-05T15:09:38Z</time><name>PT19339</name></trkpt>
<trkpt lat="53.346224" lon="-1.815331"><ele>428</ele><time>2020-08-05T15:09:40Z</time><name>PT19340</name></trkpt>
<trkpt lat="53.346218" lon="-1.815334"><ele>428</ele><time>2020-08-05T15:09:40Z</time><name>PT19341</name></trkpt>
<trkpt lat="53.346210" lon="-1.815343"><ele>427</ele><time>2020-08-05T15:09:41Z</time><name>PT19342</name></trkpt>
<trkpt lat="53.346202" lon="-1.815348"><ele>427</ele><time>2020-08-05T15:09:43Z</time><name>PT19343</name></trkpt>
<trkpt lat="53.346196" lon="-1.815350"><ele>427</ele><time>2020-08-05T15:09:43Z</time><name>PT19344</name></trkpt>
<trkpt lat="53.346185" lon="-1.815367"><ele>426</ele><time>2020-08-05T15:09:45Z</time><name>PT19345</name></trkpt>
<trkpt lat="53.346172" lon="-1.815382"><ele>426</ele><time>2020-08-05T15:09:46Z</time><name>PT19346</name></trkpt>
<trkpt lat="53.346160" lon="-1.815387"><ele>425</ele><time>2020-08-05T15:09:46Z</time><name>PT19347</name></trkpt>
<trkpt lat="53.346156" lon="-1.815390"><ele>424</ele><time>2020-08-05T15:09:47Z</time><name>PT19348</name></trkpt>
<trkpt lat="53.346146" lon="-1.815396"><ele>422</ele><time>2020-08-05T15:09:49Z</time><name>PT19349</name></trkpt>
<trkpt lat="53.346131" lon="-1.815401"><ele>422</ele><time>2020-08-05T15:09:49Z</time><name>PT19350</name></trkpt>
<trkpt lat="53.346114" lon="-1.815406"><ele>422</ele><time>2020-08-05T15:09:50Z</time><name>PT19351</name></trkpt>
<trkpt lat="53.346096" lon="-1.815424"><ele>422</ele><time>2020-08-05T15:09:52Z</time><name>PT19352</name></trkpt>
<trkpt lat="53.346078" lon="-1.815437"><ele>421</ele><time>2020-08-05T15:09:52Z</time><name>PT19353</name></trkpt>
<trkpt lat="53.346057" lon="-1.815446"><ele>422</ele><time>2020-08-05T15:09:53Z</time><name>PT19354</name></trkpt>
<trkpt lat="53.346044" lon="-1.815451"><ele>421</ele><time>2020-08-05T15:09:55Z</time><name>PT19355</name></trkpt>
<trkpt lat="53.346033" lon="-1.815455"><ele>421</ele><time>2020-08-05T15:09:55Z</time><name>PT19356</name></trkpt>
<trkpt lat="53.346024" lon="-1.815456"><ele>421</ele><time>2020-08-05T15:09:56Z</time><name>PT19357</name></trkpt>
<trkpt lat="53.346014" lon="-1.815464"><ele>421</ele><time>2020-08-05T15:09:58Z</time><name>PT19358</name></trkpt>
<trkpt lat="53.346001" lon="-1.815478"><ele>420</ele><time>2020-08-05T15:09:58Z</time><name>PT19359</name></trkpt>
<trkpt lat="53.345994" lon="-1.815488"><ele>419</ele><time>2020-08-05T15:09:59Z</time><name>PT19360</name></trkpt>
<trkpt lat="53.345983" lon="-1.815494"><ele>419</ele><time>2020-08-05T15:10:01Z</time><name>PT19361</name></trkpt>
<trkpt lat="53.345967" lon="-1.815503"><ele>419</ele><time>2020-08-05T15:10:01Z</time><name>PT19362</name></trkpt>
<trkpt lat="53.345952" lon="-1.815512"><ele>419</ele><time>2020-08-05T15:10:02Z</time><name>PT19363</name></trkpt>
<trkpt lat="53.345938" lon="-1.815525"><ele>419</ele><time>2020-08-05T15:10:04Z</time><name>PT19364</name></trkpt>
<trkpt lat="53.345923" lon="-1.815538"><ele>419</ele><time>2020-08-05T15:10:04Z</time><name>PT19365</name></trkpt>
<trkpt lat="53.345913" lon="-1.815541"><ele>418</ele><time>2020-08-05T15:10:05Z</time><name>PT19366</name></trkpt>
<trkpt lat="53.345903" lon="-1.815553"><ele>418</ele><time>2020-08-05T15:10:07Z</time><name>PT19367</name></trkpt>
<trkpt lat="53.345894" lon="-1.815566"><ele>418</ele><time>2020-08-05T15:10:07Z</time><name>PT19368</name></trkpt>
<trkpt lat="53.345884" lon="-1.815580"><ele>418</ele><time>2020-08-05T15:10:08Z</time><name>PT19369</name></trkpt>
<trkpt lat="53.345868" lon="-1.815589"><ele>419</ele><time>2020-08-05T15:10:10Z</time><name>PT19370</name></trkpt>
<trkpt lat="53.345859" lon="-1.815598"><ele>418</ele><time>2020-08-05T15:10:10Z</time><name>PT19371</name></trkpt>
<trkpt lat="53.345844" lon="-1.815607"><ele>418</ele><time>2020-08-05T15:10:11Z</time><name>PT19372</name></trkpt>
<trkpt lat="53.345829" lon="-1.815616"><ele>419</ele><time>2020-08-05T15:10:13Z</time><name>PT19373</name></trkpt>
<trkpt lat="53.345808" lon="-1.815626"><ele>419</ele><time>2020-08-05T15:10:13Z</time><name>PT19374</name></trkpt>
<trkpt lat="53.345797" lon="-1.815635"><ele>418</ele><time>2020-08-05T15:10:14Z</time><name>PT19375</name></trkpt>
<trkpt lat="53.345786" lon="-1.815633"><ele>417</ele><time>2020-08-05T15:10:16Z</time><name>PT19376</name></trkpt>
<trkpt lat="53.345777" lon="-1.815630"><ele>417</ele><time>2020-08-05T15:10:16Z</time><name>PT19377</name></trkpt>
<trkpt lat="53.345772" lon="-1.815623"><ele>417</ele><time>2020-08-05T15:10:17Z</time><name>PT19378</name></trkpt>
<trkpt lat="53.345751" lon="-1.815628"><ele>418</ele><time>2020-08-05T15:10:19Z</time><name>PT19379</name></trkpt>
<trkpt lat="53.345741" lon="-1.815620"><ele>418</ele><time>2020-08-05T15:10:19Z</time><name>PT19380</name></trkpt>
<trkpt lat="53.345731" lon="-1.815610"><ele>418</ele><time>2020-08-05T15:10:20Z</time><name>PT19381</name></trkpt>
<trkpt lat="53.345722" lon="-1.815604"><ele>417</ele><time>2020-08-05T15:10:22Z</time><name>PT19382</name></trkpt>
<trkpt lat="53.345712" lon="-1.815593"><ele>418</ele><time>2020-08-05T15:10:22Z</time><name>PT19383</name></trkpt>
<trkpt lat="53.345703" lon="-1.815569"><ele>418</ele><time>2020-08-05T15:10:23Z</time><name>PT19384</name></trkpt>
<trkpt lat="53.345699" lon="-1.815551"><ele>418</ele><time>2020-08-05T15:10:25Z</time><name>PT19385</name></trkpt>
<trkpt lat="53.345692" lon="-1.815530"><ele>418</ele><time>2020-08-05T15:10:25Z</time><name>PT19386</name></trkpt>
<trkpt lat="53.345684" lon="-1.815502"><ele>419</ele><time>2020-08-05T15:10:26Z</time><name>PT19387</name></trkpt>
<trkpt lat="53.345682" lon="-1.815486"><ele>419</ele><time>2020-08-05T15:10:28Z</time><name>PT19388</name></trkpt>
<trkpt lat="53.345677" lon="-1.815480"><ele>419</ele><time>2020-08-05T15:10:28Z</time><name>PT19389</name></trkpt>
<trkpt lat="53.345673" lon="-1.815471"><ele>418</ele><time>2020-08-05T15:10:29Z</time><name>PT19390</name></trkpt>
<trkpt lat="53.345668" lon="-1.815473"><ele>419</ele><time>2020-08-05T15:10:31Z</time><name>PT19391</name></trkpt>
<trkpt lat="53.345654" lon="-1.815468"><ele>420</ele><time>2020-08-05T15:10:31Z</time><name>PT19392</name></trkpt>
<trkpt lat="53.345654" lon="-1.815459"><ele>420</ele><time>2020-08-05T15:10:32Z</time><name>PT19393</name></trkpt>
<trkpt lat="53.345653" lon="-1.815457"><ele>420</ele><time>2020-08-05T15:10:34Z</time><name>PT19394</name></trkpt>
<trkpt lat="53.345648" lon="-1.815439"><ele>421</ele><time>2020-08-05T15:10:34Z</time><name>PT19395</name></trkpt>
<trkpt lat="53.345630" lon="-1.815423"><ele>423</ele><time>2020-08-05T15:10:35Z</time><name>PT19396</name></trkpt>
<trkpt lat="53.345631" lon="-1.815422"><ele>423</ele><time>2020-08-05T15:10:37Z</time><name>PT19397</name></trkpt>
<trkpt lat="53.345627" lon="-1.815423"><ele>423</ele><time>2020-08-05T15:10:37Z</time><name>PT19398</name></trkpt>
<trkpt lat="53.345635" lon="-1.815409"><ele>424</ele><time>2020-08-05T15:10:47Z</time><name>PT19399</name></trkpt>
<trkpt lat="53.345630" lon="-1.815386"><ele>424</ele><time>2020-08-05T15:10:49Z</time><name>PT19400</name></trkpt>
<trkpt lat="53.345625" lon="-1.815382"><ele>423</ele><time>2020-08-05T15:10:49Z</time><name>PT19401</name></trkpt></trkseg></trk></gpx>